<?xml version='1.0' encoding='UTF-8'?><gpx version="1.1" creator="JPX - https://github.com/jenetics/jpx" xmlns="http://www.topografix.com/GPX/1/1"><trk><trkseg><trkpt lat="43.4674154" lon="11.434341"><ele>354.0</ele><time>2026-04-11T07:49:29.984Z</time></trkpt><trkpt lat="43.4674617" lon="11.434412"><ele>354.0</ele><time>2026-04-11T07:49:37.019Z</time></trkpt><trkpt lat="43.4675291" lon="11.4343029"><ele>354.0</ele><time>2026-04-11T07:49:40.037Z</time></trkpt><trkpt lat="43.4674955" lon="11.4341998"><ele>354.0</ele><time>2026-04-11T07:49:42.05Z</time></trkpt><trkpt lat="43.467466" lon="11.4341231"><ele>354.0</ele><time>2026-04-11T07:49:44.061Z</time></trkpt><trkpt lat="43.4674001" lon="11.4341228"><ele>354.0</ele><time>2026-04-11T07:49:49.999Z</time></trkpt><trkpt lat="43.4673422" lon="11.4341649"><ele>354.0</ele><time>2026-04-11T07:49:52.011Z</time></trkpt><trkpt lat="43.4672613" lon="11.4342058"><ele>354.0</ele><time>2026-04-11T07:49:54.023Z</time></trkpt><trkpt lat="43.4671612" lon="11.4342415"><ele>354.0</ele><time>2026-04-11T07:49:56.035Z</time></trkpt><trkpt lat="43.4669454" lon="11.4342896"><ele>354.0</ele><time>2026-04-11T07:49:57.985Z</time></trkpt><trkpt lat="43.466772" lon="11.4343211"><ele>353.25</ele><time>2026-04-11T07:49:58.984Z</time></trkpt><trkpt lat="43.4666113" lon="11.4343447"><ele>352.5</ele><time>2026-04-11T07:49:59.985Z</time></trkpt><trkpt lat="43.4664786" lon="11.4343567"><ele>351.75</ele><time>2026-04-11T07:50:00.985Z</time></trkpt><trkpt lat="43.4663619" lon="11.4343553"><ele>351.0</ele><time>2026-04-11T07:50:01.984Z</time></trkpt><trkpt lat="43.4662529" lon="11.4343328"><ele>350.25</ele><time>2026-04-11T07:50:02.985Z</time></trkpt><trkpt lat="43.4661367" lon="11.4343111"><ele>349.5</ele><time>2026-04-11T07:50:03.985Z</time></trkpt><trkpt lat="43.4660221" lon="11.4342797"><ele>348.75</ele><time>2026-04-11T07:50:04.985Z</time></trkpt><trkpt lat="43.465911" lon="11.4342389"><ele>348.0</ele><time>2026-04-11T07:50:05.985Z</time></trkpt><trkpt lat="43.4657996" lon="11.4341928"><ele>348.0</ele><time>2026-04-11T07:50:06.985Z</time></trkpt><trkpt lat="43.465679" lon="11.4341403"><ele>348.0</ele><time>2026-04-11T07:50:07.985Z</time></trkpt><trkpt lat="43.4655549" lon="11.4340768"><ele>348.0</ele><time>2026-04-11T07:50:08.984Z</time></trkpt><trkpt lat="43.4654431" lon="11.4339858"><ele>348.0</ele><time>2026-04-11T07:50:09.985Z</time></trkpt><trkpt lat="43.4653415" lon="11.4338687"><ele>348.0</ele><time>2026-04-11T07:50:10.984Z</time></trkpt><trkpt lat="43.465245" lon="11.4337237"><ele>348.0</ele><time>2026-04-11T07:50:11.985Z</time></trkpt><trkpt lat="43.4651404" lon="11.4335526"><ele>348.0</ele><time>2026-04-11T07:50:12.985Z</time></trkpt><trkpt lat="43.4650312" lon="11.4333736"><ele>348.0</ele><time>2026-04-11T07:50:13.985Z</time></trkpt><trkpt lat="43.4649192" lon="11.4332159"><ele>348.0</ele><time>2026-04-11T07:50:14.985Z</time></trkpt><trkpt lat="43.4648045" lon="11.4330966"><ele>348.0</ele><time>2026-04-11T07:50:15.985Z</time></trkpt><trkpt lat="43.4646871" lon="11.4330057"><ele>348.0</ele><time>2026-04-11T07:50:16.984Z</time></trkpt><trkpt lat="43.4645726" lon="11.4329236"><ele>348.25</ele><time>2026-04-11T07:50:17.985Z</time></trkpt><trkpt lat="43.4644643" lon="11.4328392"><ele>348.5</ele><time>2026-04-11T07:50:18.985Z</time></trkpt><trkpt lat="43.4643677" lon="11.4327484"><ele>348.75</ele><time>2026-04-11T07:50:19.985Z</time></trkpt><trkpt lat="43.4642829" lon="11.4326493"><ele>349.0</ele><time>2026-04-11T07:50:20.984Z</time></trkpt><trkpt lat="43.4642103" lon="11.4325393"><ele>349.0</ele><time>2026-04-11T07:50:21.984Z</time></trkpt><trkpt lat="43.4641463" lon="11.4324181"><ele>349.0</ele><time>2026-04-11T07:50:22.985Z</time></trkpt><trkpt lat="43.464085" lon="11.4322819"><ele>349.0</ele><time>2026-04-11T07:50:23.986Z</time></trkpt><trkpt lat="43.4640234" lon="11.4321288"><ele>349.0</ele><time>2026-04-11T07:50:24.985Z</time></trkpt><trkpt lat="43.4639629" lon="11.4319704"><ele>348.0</ele><time>2026-04-11T07:50:25.986Z</time></trkpt><trkpt lat="43.4639037" lon="11.4318134"><ele>347.0</ele><time>2026-04-11T07:50:26.985Z</time></trkpt><trkpt lat="43.4638467" lon="11.4316613"><ele>346.0</ele><time>2026-04-11T07:50:27.986Z</time></trkpt><trkpt lat="43.4637936" lon="11.4315163"><ele>345.0</ele><time>2026-04-11T07:50:28.986Z</time></trkpt><trkpt lat="43.4637402" lon="11.4313748"><ele>345.5</ele><time>2026-04-11T07:50:29.986Z</time></trkpt><trkpt lat="43.4636851" lon="11.431229"><ele>346.0</ele><time>2026-04-11T07:50:30.986Z</time></trkpt><trkpt lat="43.463628" lon="11.4310802"><ele>346.5</ele><time>2026-04-11T07:50:31.985Z</time></trkpt><trkpt lat="43.4635643" lon="11.4309277"><ele>347.0</ele><time>2026-04-11T07:50:32.985Z</time></trkpt><trkpt lat="43.4634894" lon="11.4307678"><ele>347.0</ele><time>2026-04-11T07:50:33.986Z</time></trkpt><trkpt lat="43.4633965" lon="11.4306023"><ele>347.0</ele><time>2026-04-11T07:50:34.985Z</time></trkpt><trkpt lat="43.4632883" lon="11.430435"><ele>347.0</ele><time>2026-04-11T07:50:35.985Z</time></trkpt><trkpt lat="43.4631715" lon="11.4302632"><ele>346.6666666666667</ele><time>2026-04-11T07:50:36.986Z</time></trkpt><trkpt lat="43.4630615" lon="11.4300854"><ele>346.3333333333333</ele><time>2026-04-11T07:50:37.986Z</time></trkpt><trkpt lat="43.4629561" lon="11.4299019"><ele>346.0</ele><time>2026-04-11T07:50:38.985Z</time></trkpt><trkpt lat="43.4628455" lon="11.4297065"><ele>346.0</ele><time>2026-04-11T07:50:39.986Z</time></trkpt><trkpt lat="43.4627184" lon="11.4295146"><ele>346.0</ele><time>2026-04-11T07:50:40.986Z</time></trkpt><trkpt lat="43.4625773" lon="11.4293274"><ele>346.0</ele><time>2026-04-11T07:50:41.985Z</time></trkpt><trkpt lat="43.4624308" lon="11.4291531"><ele>346.0</ele><time>2026-04-11T07:50:42.985Z</time></trkpt><trkpt lat="43.4622843" lon="11.4289842"><ele>346.0</ele><time>2026-04-11T07:50:43.986Z</time></trkpt><trkpt lat="43.462142" lon="11.4288161"><ele>346.0</ele><time>2026-04-11T07:50:44.986Z</time></trkpt><trkpt lat="43.4620014" lon="11.4286447"><ele>344.66666666666663</ele><time>2026-04-11T07:50:45.986Z</time></trkpt><trkpt lat="43.4618628" lon="11.4284758"><ele>343.3333333333333</ele><time>2026-04-11T07:50:46.985Z</time></trkpt><trkpt lat="43.4617291" lon="11.4283179"><ele>342.0</ele><time>2026-04-11T07:50:47.985Z</time></trkpt><trkpt lat="43.4616012" lon="11.4281734"><ele>342.0</ele><time>2026-04-11T07:50:48.985Z</time></trkpt><trkpt lat="43.4614738" lon="11.428039"><ele>342.0</ele><time>2026-04-11T07:50:49.986Z</time></trkpt><trkpt lat="43.4613416" lon="11.4279056"><ele>342.0</ele><time>2026-04-11T07:50:50.986Z</time></trkpt><trkpt lat="43.4612069" lon="11.4277722"><ele>341.3333333333333</ele><time>2026-04-11T07:50:51.985Z</time></trkpt><trkpt lat="43.4610725" lon="11.4276391"><ele>340.66666666666663</ele><time>2026-04-11T07:50:52.986Z</time></trkpt><trkpt lat="43.4609381" lon="11.4275019"><ele>340.0</ele><time>2026-04-11T07:50:53.985Z</time></trkpt><trkpt lat="43.4608025" lon="11.4273557"><ele>340.0</ele><time>2026-04-11T07:50:54.985Z</time></trkpt><trkpt lat="43.460664" lon="11.4272059"><ele>340.0</ele><time>2026-04-11T07:50:55.985Z</time></trkpt><trkpt lat="43.4605155" lon="11.4270792"><ele>340.0</ele><time>2026-04-11T07:50:56.986Z</time></trkpt><trkpt lat="43.4603559" lon="11.4269863"><ele>341.0</ele><time>2026-04-11T07:50:57.985Z</time></trkpt><trkpt lat="43.4601834" lon="11.4269211"><ele>342.0</ele><time>2026-04-11T07:50:58.985Z</time></trkpt><trkpt lat="43.4600068" lon="11.4268685"><ele>343.0</ele><time>2026-04-11T07:50:59.986Z</time></trkpt><trkpt lat="43.4598314" lon="11.426809"><ele>343.0</ele><time>2026-04-11T07:51:00.985Z</time></trkpt><trkpt lat="43.4596589" lon="11.4267395"><ele>343.0</ele><time>2026-04-11T07:51:01.985Z</time></trkpt><trkpt lat="43.4594904" lon="11.4266621"><ele>343.0</ele><time>2026-04-11T07:51:02.986Z</time></trkpt><trkpt lat="43.4593222" lon="11.4265819"><ele>341.66666666666663</ele><time>2026-04-11T07:51:03.985Z</time></trkpt><trkpt lat="43.4591545" lon="11.4265029"><ele>340.3333333333333</ele><time>2026-04-11T07:51:04.986Z</time></trkpt><trkpt lat="43.4589844" lon="11.4264257"><ele>339.0</ele><time>2026-04-11T07:51:05.986Z</time></trkpt><trkpt lat="43.4588101" lon="11.4263505"><ele>338.0</ele><time>2026-04-11T07:51:06.986Z</time></trkpt><trkpt lat="43.4586328" lon="11.4262743"><ele>337.0</ele><time>2026-04-11T07:51:07.986Z</time></trkpt><trkpt lat="43.458456" lon="11.4261957"><ele>336.0</ele><time>2026-04-11T07:51:08.986Z</time></trkpt><trkpt lat="43.4582775" lon="11.4261173"><ele>336.0</ele><time>2026-04-11T07:51:09.985Z</time></trkpt><trkpt lat="43.4580983" lon="11.4260426"><ele>336.0</ele><time>2026-04-11T07:51:10.985Z</time></trkpt><trkpt lat="43.4579198" lon="11.4259655"><ele>336.0</ele><time>2026-04-11T07:51:11.986Z</time></trkpt><trkpt lat="43.4577404" lon="11.4258846"><ele>336.0</ele><time>2026-04-11T07:51:12.985Z</time></trkpt><trkpt lat="43.457561" lon="11.4258039"><ele>336.0</ele><time>2026-04-11T07:51:13.985Z</time></trkpt><trkpt lat="43.4573841" lon="11.4257195"><ele>336.0</ele><time>2026-04-11T07:51:14.985Z</time></trkpt><trkpt lat="43.4572069" lon="11.4256375"><ele>338.0</ele><time>2026-04-11T07:51:15.985Z</time></trkpt><trkpt lat="43.4570313" lon="11.4255652"><ele>340.0</ele><time>2026-04-11T07:51:16.986Z</time></trkpt><trkpt lat="43.4568586" lon="11.425511"><ele>342.0</ele><time>2026-04-11T07:51:17.986Z</time></trkpt><trkpt lat="43.4566883" lon="11.4254722"><ele>340.3333333333333</ele><time>2026-04-11T07:51:18.986Z</time></trkpt><trkpt lat="43.4565216" lon="11.4254546"><ele>338.66666666666663</ele><time>2026-04-11T07:51:19.985Z</time></trkpt><trkpt lat="43.456356" lon="11.4254435"><ele>337.0</ele><time>2026-04-11T07:51:20.985Z</time></trkpt><trkpt lat="43.4562127" lon="11.4254323"><ele>337.0</ele><time>2026-04-11T07:51:21.985Z</time></trkpt><trkpt lat="43.4560977" lon="11.4253763"><ele>337.0</ele><time>2026-04-11T07:51:22.985Z</time></trkpt><trkpt lat="43.4559775" lon="11.4252655"><ele>337.0</ele><time>2026-04-11T07:51:23.985Z</time></trkpt><trkpt lat="43.4558509" lon="11.4250939"><ele>337.0</ele><time>2026-04-11T07:51:24.986Z</time></trkpt><trkpt lat="43.4557053" lon="11.424912"><ele>337.0</ele><time>2026-04-11T07:51:25.986Z</time></trkpt><trkpt lat="43.4555578" lon="11.4247496"><ele>337.0</ele><time>2026-04-11T07:51:26.987Z</time></trkpt><trkpt lat="43.4554162" lon="11.4246015"><ele>337.0</ele><time>2026-04-11T07:51:27.986Z</time></trkpt><trkpt lat="43.4552873" lon="11.4244727"><ele>336.0</ele><time>2026-04-11T07:51:28.987Z</time></trkpt><trkpt lat="43.4551724" lon="11.4243558"><ele>335.0</ele><time>2026-04-11T07:51:29.986Z</time></trkpt><trkpt lat="43.455071" lon="11.4242505"><ele>334.0</ele><time>2026-04-11T07:51:30.987Z</time></trkpt><trkpt lat="43.4549813" lon="11.4241523"><ele>333.0</ele><time>2026-04-11T07:51:31.986Z</time></trkpt><trkpt lat="43.4548979" lon="11.424062"><ele>333.0</ele><time>2026-04-11T07:51:32.986Z</time></trkpt><trkpt lat="43.4548266" lon="11.423987"><ele>333.0</ele><time>2026-04-11T07:51:33.987Z</time></trkpt><trkpt lat="43.4547761" lon="11.4239339"><ele>333.0</ele><time>2026-04-11T07:51:34.986Z</time></trkpt><trkpt lat="43.4546926" lon="11.4238548"><ele>333.0</ele><time>2026-04-11T07:51:36.986Z</time></trkpt><trkpt lat="43.4545975" lon="11.4237702"><ele>333.0</ele><time>2026-04-11T07:51:37.987Z</time></trkpt><trkpt lat="43.4544895" lon="11.4236687"><ele>332.5</ele><time>2026-04-11T07:51:38.987Z</time></trkpt><trkpt lat="43.4543806" lon="11.4235636"><ele>332.0</ele><time>2026-04-11T07:51:39.987Z</time></trkpt><trkpt lat="43.4542814" lon="11.4234477"><ele>331.5</ele><time>2026-04-11T07:51:40.986Z</time></trkpt><trkpt lat="43.4541923" lon="11.4233273"><ele>331.0</ele><time>2026-04-11T07:51:41.987Z</time></trkpt><trkpt lat="43.4541192" lon="11.4232047"><ele>331.0</ele><time>2026-04-11T07:51:42.987Z</time></trkpt><trkpt lat="43.4540537" lon="11.4230749"><ele>331.0</ele><time>2026-04-11T07:51:43.987Z</time></trkpt><trkpt lat="43.4539815" lon="11.4229441"><ele>331.0</ele><time>2026-04-11T07:51:44.986Z</time></trkpt><trkpt lat="43.4538917" lon="11.4227989"><ele>331.0</ele><time>2026-04-11T07:51:45.986Z</time></trkpt><trkpt lat="43.4537907" lon="11.4226389"><ele>329.0</ele><time>2026-04-11T07:51:46.987Z</time></trkpt><trkpt lat="43.4536813" lon="11.4224747"><ele>327.0</ele><time>2026-04-11T07:51:47.986Z</time></trkpt><trkpt lat="43.4535702" lon="11.4223102"><ele>325.0</ele><time>2026-04-11T07:51:48.987Z</time></trkpt><trkpt lat="43.4534692" lon="11.4221561"><ele>327.3333333333333</ele><time>2026-04-11T07:51:49.987Z</time></trkpt><trkpt lat="43.4533702" lon="11.4219953"><ele>329.6666666666667</ele><time>2026-04-11T07:51:50.986Z</time></trkpt><trkpt lat="43.4532647" lon="11.4218301"><ele>332.0</ele><time>2026-04-11T07:51:51.987Z</time></trkpt><trkpt lat="43.4531565" lon="11.4216662"><ele>332.0</ele><time>2026-04-11T07:51:52.987Z</time></trkpt><trkpt lat="43.4530486" lon="11.4215075"><ele>332.0</ele><time>2026-04-11T07:51:53.987Z</time></trkpt><trkpt lat="43.4529272" lon="11.4213846"><ele>332.0</ele><time>2026-04-11T07:51:54.987Z</time></trkpt><trkpt lat="43.4527822" lon="11.4212772"><ele>333.0</ele><time>2026-04-11T07:51:55.986Z</time></trkpt><trkpt lat="43.4526339" lon="11.4211771"><ele>334.0</ele><time>2026-04-11T07:51:56.987Z</time></trkpt><trkpt lat="43.4524868" lon="11.4210571"><ele>335.0</ele><time>2026-04-11T07:51:57.987Z</time></trkpt><trkpt lat="43.4523503" lon="11.4209063"><ele>335.0</ele><time>2026-04-11T07:51:58.987Z</time></trkpt><trkpt lat="43.452236" lon="11.4207393"><ele>335.0</ele><time>2026-04-11T07:51:59.987Z</time></trkpt><trkpt lat="43.4521313" lon="11.4205639"><ele>335.0</ele><time>2026-04-11T07:52:00.986Z</time></trkpt><trkpt lat="43.4520343" lon="11.4203904"><ele>334.0</ele><time>2026-04-11T07:52:01.987Z</time></trkpt><trkpt lat="43.4519405" lon="11.4202275"><ele>333.0</ele><time>2026-04-11T07:52:02.986Z</time></trkpt><trkpt lat="43.4518547" lon="11.4200806"><ele>332.0</ele><time>2026-04-11T07:52:03.987Z</time></trkpt><trkpt lat="43.4517753" lon="11.4199389"><ele>331.0</ele><time>2026-04-11T07:52:04.986Z</time></trkpt><trkpt lat="43.4516957" lon="11.4198047"><ele>331.0</ele><time>2026-04-11T07:52:05.986Z</time></trkpt><trkpt lat="43.4516039" lon="11.4196768"><ele>331.0</ele><time>2026-04-11T07:52:06.986Z</time></trkpt><trkpt lat="43.4514959" lon="11.4195404"><ele>331.0</ele><time>2026-04-11T07:52:07.987Z</time></trkpt><trkpt lat="43.4513734" lon="11.4194089"><ele>331.0</ele><time>2026-04-11T07:52:08.986Z</time></trkpt><trkpt lat="43.4512434" lon="11.4192993"><ele>329.75</ele><time>2026-04-11T07:52:09.986Z</time></trkpt><trkpt lat="43.4511239" lon="11.4192045"><ele>328.5</ele><time>2026-04-11T07:52:10.986Z</time></trkpt><trkpt lat="43.4510008" lon="11.4191314"><ele>327.25</ele><time>2026-04-11T07:52:11.987Z</time></trkpt><trkpt lat="43.4508607" lon="11.4190717"><ele>326.0</ele><time>2026-04-11T07:52:12.986Z</time></trkpt><trkpt lat="43.4507045" lon="11.4190169"><ele>326.0</ele><time>2026-04-11T07:52:13.986Z</time></trkpt><trkpt lat="43.4505395" lon="11.4189759"><ele>326.0</ele><time>2026-04-11T07:52:14.986Z</time></trkpt><trkpt lat="43.4503746" lon="11.4189421"><ele>326.0</ele><time>2026-04-11T07:52:15.987Z</time></trkpt><trkpt lat="43.4502063" lon="11.4189217"><ele>325.33333333333337</ele><time>2026-04-11T07:52:16.986Z</time></trkpt><trkpt lat="43.4500374" lon="11.4189108"><ele>324.6666666666667</ele><time>2026-04-11T07:52:17.986Z</time></trkpt><trkpt lat="43.44986" lon="11.4188595"><ele>324.0</ele><time>2026-04-11T07:52:18.986Z</time></trkpt><trkpt lat="43.4496957" lon="11.4187822"><ele>326.3333333333333</ele><time>2026-04-11T07:52:19.987Z</time></trkpt><trkpt lat="43.4495344" lon="11.418692"><ele>328.66666666666663</ele><time>2026-04-11T07:52:20.987Z</time></trkpt><trkpt lat="43.449362" lon="11.4186076"><ele>331.0</ele><time>2026-04-11T07:52:21.986Z</time></trkpt><trkpt lat="43.4491773" lon="11.4185469"><ele>331.0</ele><time>2026-04-11T07:52:22.986Z</time></trkpt><trkpt lat="43.4489906" lon="11.4185195"><ele>331.0</ele><time>2026-04-11T07:52:23.986Z</time></trkpt><trkpt lat="43.4488096" lon="11.4185131"><ele>331.0</ele><time>2026-04-11T07:52:24.987Z</time></trkpt><trkpt lat="43.4486502" lon="11.4185069"><ele>331.0</ele><time>2026-04-11T07:52:25.986Z</time></trkpt><trkpt lat="43.4484948" lon="11.4184926"><ele>331.0</ele><time>2026-04-11T07:52:26.987Z</time></trkpt><trkpt lat="43.4483542" lon="11.418451"><ele>331.0</ele><time>2026-04-11T07:52:27.987Z</time></trkpt><trkpt lat="43.4482085" lon="11.4183746"><ele>331.0</ele><time>2026-04-11T07:52:28.987Z</time></trkpt><trkpt lat="43.4480655" lon="11.4182529"><ele>331.0</ele><time>2026-04-11T07:52:29.987Z</time></trkpt><trkpt lat="43.4479308" lon="11.4181024"><ele>331.0</ele><time>2026-04-11T07:52:30.987Z</time></trkpt><trkpt lat="43.4477972" lon="11.4179599"><ele>333.3333333333333</ele><time>2026-04-11T07:52:31.988Z</time></trkpt><trkpt lat="43.4476674" lon="11.417833"><ele>335.6666666666667</ele><time>2026-04-11T07:52:32.987Z</time></trkpt><trkpt lat="43.4475332" lon="11.4177475"><ele>338.0</ele><time>2026-04-11T07:52:33.987Z</time></trkpt><trkpt lat="43.4473734" lon="11.417684"><ele>338.0</ele><time>2026-04-11T07:52:34.987Z</time></trkpt><trkpt lat="43.4471985" lon="11.4176437"><ele>338.0</ele><time>2026-04-11T07:52:35.987Z</time></trkpt><trkpt lat="43.4470189" lon="11.4176041"><ele>338.0</ele><time>2026-04-11T07:52:36.987Z</time></trkpt><trkpt lat="43.4468182" lon="11.4175657"><ele>338.6666666666667</ele><time>2026-04-11T07:52:37.987Z</time></trkpt><trkpt lat="43.446635" lon="11.4175217"><ele>339.3333333333333</ele><time>2026-04-11T07:52:38.987Z</time></trkpt><trkpt lat="43.4464671" lon="11.4174896"><ele>340.0</ele><time>2026-04-11T07:52:39.987Z</time></trkpt><trkpt lat="43.4463178" lon="11.4174622"><ele>343.0</ele><time>2026-04-11T07:52:40.988Z</time></trkpt><trkpt lat="43.4461864" lon="11.417448"><ele>346.0</ele><time>2026-04-11T07:52:41.988Z</time></trkpt><trkpt lat="43.446066" lon="11.4174769"><ele>349.0</ele><time>2026-04-11T07:52:42.988Z</time></trkpt><trkpt lat="43.4459483" lon="11.4175564"><ele>352.0</ele><time>2026-04-11T07:52:43.987Z</time></trkpt><trkpt lat="43.4458438" lon="11.4177179"><ele>352.0</ele><time>2026-04-11T07:52:44.987Z</time></trkpt><trkpt lat="43.4457628" lon="11.4179198"><ele>352.0</ele><time>2026-04-11T07:52:45.988Z</time></trkpt><trkpt lat="43.4457095" lon="11.4181608"><ele>352.0</ele><time>2026-04-11T07:52:46.987Z</time></trkpt><trkpt lat="43.4456594" lon="11.4184234"><ele>348.66666666666663</ele><time>2026-04-11T07:52:47.988Z</time></trkpt><trkpt lat="43.4456228" lon="11.4186886"><ele>345.3333333333333</ele><time>2026-04-11T07:52:48.987Z</time></trkpt><trkpt lat="43.4456092" lon="11.4189464"><ele>342.0</ele><time>2026-04-11T07:52:49.988Z</time></trkpt><trkpt lat="43.4456146" lon="11.4191767"><ele>340.0</ele><time>2026-04-11T07:52:50.988Z</time></trkpt><trkpt lat="43.4456318" lon="11.4193772"><ele>338.0</ele><time>2026-04-11T07:52:51.988Z</time></trkpt><trkpt lat="43.4456257" lon="11.419547"><ele>336.0</ele><time>2026-04-11T07:52:52.988Z</time></trkpt><trkpt lat="43.4455745" lon="11.4196769"><ele>334.0</ele><time>2026-04-11T07:52:53.987Z</time></trkpt><trkpt lat="43.4454899" lon="11.4197855"><ele>335.66666666666663</ele><time>2026-04-11T07:52:54.988Z</time></trkpt><trkpt lat="43.4453774" lon="11.4198698"><ele>337.3333333333333</ele><time>2026-04-11T07:52:55.988Z</time></trkpt><trkpt lat="43.4451905" lon="11.4199391"><ele>339.0</ele><time>2026-04-11T07:52:56.987Z</time></trkpt><trkpt lat="43.445005" lon="11.4200072"><ele>339.0</ele><time>2026-04-11T07:52:57.988Z</time></trkpt><trkpt lat="43.4448425" lon="11.4200884"><ele>339.0</ele><time>2026-04-11T07:52:58.988Z</time></trkpt><trkpt lat="43.4446919" lon="11.4201802"><ele>339.0</ele><time>2026-04-11T07:52:59.988Z</time></trkpt><trkpt lat="43.4445632" lon="11.4202817"><ele>338.3333333333333</ele><time>2026-04-11T07:53:00.988Z</time></trkpt><trkpt lat="43.4444547" lon="11.4204112"><ele>337.66666666666663</ele><time>2026-04-11T07:53:01.988Z</time></trkpt><trkpt lat="43.4443613" lon="11.4205654"><ele>337.0</ele><time>2026-04-11T07:53:02.988Z</time></trkpt><trkpt lat="43.4442628" lon="11.420744"><ele>337.0</ele><time>2026-04-11T07:53:03.987Z</time></trkpt><trkpt lat="43.4441532" lon="11.4209073"><ele>337.0</ele><time>2026-04-11T07:53:04.988Z</time></trkpt><trkpt lat="43.4440307" lon="11.4210317"><ele>337.0</ele><time>2026-04-11T07:53:05.988Z</time></trkpt><trkpt lat="43.4438902" lon="11.4211264"><ele>340.0</ele><time>2026-04-11T07:53:06.988Z</time></trkpt><trkpt lat="43.4437346" lon="11.4212164"><ele>343.0</ele><time>2026-04-11T07:53:07.987Z</time></trkpt><trkpt lat="43.443563" lon="11.4213293"><ele>346.0</ele><time>2026-04-11T07:53:08.987Z</time></trkpt><trkpt lat="43.4433905" lon="11.421457"><ele>340.0</ele><time>2026-04-11T07:53:09.987Z</time></trkpt><trkpt lat="43.4432296" lon="11.4215624"><ele>334.0</ele><time>2026-04-11T07:53:10.987Z</time></trkpt><trkpt lat="43.4430655" lon="11.4216302"><ele>328.0</ele><time>2026-04-11T07:53:11.987Z</time></trkpt><trkpt lat="43.4428925" lon="11.4216482"><ele>328.0</ele><time>2026-04-11T07:53:12.988Z</time></trkpt><trkpt lat="43.4427005" lon="11.4216158"><ele>328.0</ele><time>2026-04-11T07:53:13.988Z</time></trkpt><trkpt lat="43.442502" lon="11.4215825"><ele>328.0</ele><time>2026-04-11T07:53:14.987Z</time></trkpt><trkpt lat="43.4423197" lon="11.4215514"><ele>328.0</ele><time>2026-04-11T07:53:15.987Z</time></trkpt><trkpt lat="43.4421482" lon="11.4215095"><ele>328.0</ele><time>2026-04-11T07:53:16.988Z</time></trkpt><trkpt lat="43.4419623" lon="11.4214784"><ele>328.0</ele><time>2026-04-11T07:53:17.988Z</time></trkpt><trkpt lat="43.4417622" lon="11.4214458"><ele>326.3333333333333</ele><time>2026-04-11T07:53:18.988Z</time></trkpt><trkpt lat="43.4415552" lon="11.4214137"><ele>324.6666666666667</ele><time>2026-04-11T07:53:19.988Z</time></trkpt><trkpt lat="43.4413532" lon="11.4213814"><ele>323.0</ele><time>2026-04-11T07:53:20.987Z</time></trkpt><trkpt lat="43.441166" lon="11.4213392"><ele>325.33333333333337</ele><time>2026-04-11T07:53:21.988Z</time></trkpt><trkpt lat="43.4409927" lon="11.4212726"><ele>327.6666666666667</ele><time>2026-04-11T07:53:22.987Z</time></trkpt><trkpt lat="43.4408228" lon="11.4211603"><ele>330.0</ele><time>2026-04-11T07:53:23.987Z</time></trkpt><trkpt lat="43.4406542" lon="11.4210054"><ele>330.0</ele><time>2026-04-11T07:53:24.988Z</time></trkpt><trkpt lat="43.4404875" lon="11.4208322"><ele>330.0</ele><time>2026-04-11T07:53:25.987Z</time></trkpt><trkpt lat="43.4403276" lon="11.4206838"><ele>330.0</ele><time>2026-04-11T07:53:26.988Z</time></trkpt><trkpt lat="43.4401765" lon="11.4205533"><ele>329.6666666666667</ele><time>2026-04-11T07:53:27.987Z</time></trkpt><trkpt lat="43.4400336" lon="11.4204244"><ele>329.33333333333337</ele><time>2026-04-11T07:53:28.987Z</time></trkpt><trkpt lat="43.4399003" lon="11.4203067"><ele>329.0</ele><time>2026-04-11T07:53:29.988Z</time></trkpt><trkpt lat="43.4397703" lon="11.4201865"><ele>329.0</ele><time>2026-04-11T07:53:30.989Z</time></trkpt><trkpt lat="43.4396432" lon="11.4200753"><ele>329.0</ele><time>2026-04-11T07:53:31.988Z</time></trkpt><trkpt lat="43.4395188" lon="11.4199692"><ele>329.0</ele><time>2026-04-11T07:53:32.988Z</time></trkpt><trkpt lat="43.4393971" lon="11.4198695"><ele>329.0</ele><time>2026-04-11T07:53:33.988Z</time></trkpt><trkpt lat="43.4392773" lon="11.4197829"><ele>328.75</ele><time>2026-04-11T07:53:34.988Z</time></trkpt><trkpt lat="43.4391498" lon="11.4197115"><ele>328.5</ele><time>2026-04-11T07:53:35.988Z</time></trkpt><trkpt lat="43.4390144" lon="11.4196536"><ele>328.25</ele><time>2026-04-11T07:53:36.989Z</time></trkpt><trkpt lat="43.4388693" lon="11.4196095"><ele>328.0</ele><time>2026-04-11T07:53:37.989Z</time></trkpt><trkpt lat="43.4387137" lon="11.419581"><ele>328.0</ele><time>2026-04-11T07:53:38.989Z</time></trkpt><trkpt lat="43.4385519" lon="11.4195687"><ele>328.0</ele><time>2026-04-11T07:53:39.989Z</time></trkpt><trkpt lat="43.4383866" lon="11.4195705"><ele>328.0</ele><time>2026-04-11T07:53:40.989Z</time></trkpt><trkpt lat="43.4382264" lon="11.4195688"><ele>328.0</ele><time>2026-04-11T07:53:41.989Z</time></trkpt><trkpt lat="43.4380791" lon="11.4195573"><ele>328.0</ele><time>2026-04-11T07:53:42.989Z</time></trkpt><trkpt lat="43.4379412" lon="11.4195374"><ele>328.0</ele><time>2026-04-11T07:53:43.988Z</time></trkpt><trkpt lat="43.4378048" lon="11.4195103"><ele>328.0</ele><time>2026-04-11T07:53:44.989Z</time></trkpt><trkpt lat="43.4376668" lon="11.4194822"><ele>326.3333333333333</ele><time>2026-04-11T07:53:45.989Z</time></trkpt><trkpt lat="43.4375218" lon="11.4194565"><ele>324.6666666666667</ele><time>2026-04-11T07:53:46.988Z</time></trkpt><trkpt lat="43.4373583" lon="11.4194388"><ele>323.0</ele><time>2026-04-11T07:53:47.988Z</time></trkpt><trkpt lat="43.437169" lon="11.4194101"><ele>322.0</ele><time>2026-04-11T07:53:48.989Z</time></trkpt><trkpt lat="43.4369551" lon="11.4193668"><ele>321.0</ele><time>2026-04-11T07:53:49.989Z</time></trkpt><trkpt lat="43.4367348" lon="11.4193061"><ele>320.0</ele><time>2026-04-11T07:53:50.989Z</time></trkpt><trkpt lat="43.4365211" lon="11.419252"><ele>320.0</ele><time>2026-04-11T07:53:51.989Z</time></trkpt><trkpt lat="43.4363053" lon="11.4192077"><ele>320.0</ele><time>2026-04-11T07:53:52.989Z</time></trkpt><trkpt lat="43.4360831" lon="11.4191708"><ele>320.0</ele><time>2026-04-11T07:53:53.989Z</time></trkpt><trkpt lat="43.4358671" lon="11.4191298"><ele>319.6666666666667</ele><time>2026-04-11T07:53:54.988Z</time></trkpt><trkpt lat="43.4356602" lon="11.4190944"><ele>319.3333333333333</ele><time>2026-04-11T07:53:55.988Z</time></trkpt><trkpt lat="43.4354802" lon="11.4190632"><ele>319.0</ele><time>2026-04-11T07:53:56.989Z</time></trkpt><trkpt lat="43.4353274" lon="11.4190616"><ele>319.0</ele><time>2026-04-11T07:53:57.989Z</time></trkpt><trkpt lat="43.4351806" lon="11.4190835"><ele>319.0</ele><time>2026-04-11T07:53:58.989Z</time></trkpt><trkpt lat="43.4350384" lon="11.4191414"><ele>319.0</ele><time>2026-04-11T07:53:59.989Z</time></trkpt><trkpt lat="43.4348964" lon="11.4192509"><ele>319.0</ele><time>2026-04-11T07:54:00.989Z</time></trkpt><trkpt lat="43.4347146" lon="11.4194343"><ele>319.0</ele><time>2026-04-11T07:54:01.989Z</time></trkpt><trkpt lat="43.4345383" lon="11.4196318"><ele>317.5</ele><time>2026-04-11T07:54:02.988Z</time></trkpt><trkpt lat="43.4343534" lon="11.4198469"><ele>316.0</ele><time>2026-04-11T07:54:03.989Z</time></trkpt><trkpt lat="43.4341907" lon="11.4200539"><ele>316.0</ele><time>2026-04-11T07:54:04.989Z</time></trkpt><trkpt lat="43.4340361" lon="11.4202459"><ele>316.0</ele><time>2026-04-11T07:54:05.989Z</time></trkpt><trkpt lat="43.4338825" lon="11.4204411"><ele>316.0</ele><time>2026-04-11T07:54:06.989Z</time></trkpt><trkpt lat="43.4337542" lon="11.4206178"><ele>312.75</ele><time>2026-04-11T07:54:07.988Z</time></trkpt><trkpt lat="43.4336517" lon="11.4207601"><ele>309.5</ele><time>2026-04-11T07:54:08.989Z</time></trkpt><trkpt lat="43.4335703" lon="11.420853"><ele>306.25</ele><time>2026-04-11T07:54:09.989Z</time></trkpt><trkpt lat="43.433489" lon="11.4209197"><ele>303.0</ele><time>2026-04-11T07:54:10.989Z</time></trkpt><trkpt lat="43.4333816" lon="11.420948"><ele>303.0</ele><time>2026-04-11T07:54:11.988Z</time></trkpt><trkpt lat="43.4332741" lon="11.420897"><ele>303.0</ele><time>2026-04-11T07:54:12.989Z</time></trkpt><trkpt lat="43.4331605" lon="11.4207867"><ele>303.0</ele><time>2026-04-11T07:54:13.989Z</time></trkpt><trkpt lat="43.4330731" lon="11.4205907"><ele>303.0</ele><time>2026-04-11T07:54:14.988Z</time></trkpt><trkpt lat="43.4329831" lon="11.4203458"><ele>303.3333333333333</ele><time>2026-04-11T07:54:15.988Z</time></trkpt><trkpt lat="43.4328957" lon="11.4200677"><ele>303.66666666666663</ele><time>2026-04-11T07:54:16.989Z</time></trkpt><trkpt lat="43.4328009" lon="11.4197924"><ele>304.0</ele><time>2026-04-11T07:54:17.989Z</time></trkpt><trkpt lat="43.4326989" lon="11.4195535"><ele>304.0</ele><time>2026-04-11T07:54:18.989Z</time></trkpt><trkpt lat="43.4325852" lon="11.4193586"><ele>304.0</ele><time>2026-04-11T07:54:19.988Z</time></trkpt><trkpt lat="43.4324592" lon="11.4191681"><ele>304.0</ele><time>2026-04-11T07:54:20.988Z</time></trkpt><trkpt lat="43.4323268" lon="11.4189809"><ele>302.3333333333333</ele><time>2026-04-11T07:54:21.989Z</time></trkpt><trkpt lat="43.4322044" lon="11.4188044"><ele>300.6666666666667</ele><time>2026-04-11T07:54:22.988Z</time></trkpt><trkpt lat="43.4320894" lon="11.418644"><ele>299.0</ele><time>2026-04-11T07:54:23.989Z</time></trkpt><trkpt lat="43.4319837" lon="11.4184898"><ele>299.0</ele><time>2026-04-11T07:54:24.989Z</time></trkpt><trkpt lat="43.431884" lon="11.4183463"><ele>299.0</ele><time>2026-04-11T07:54:25.988Z</time></trkpt><trkpt lat="43.4317951" lon="11.4182107"><ele>299.0</ele><time>2026-04-11T07:54:26.988Z</time></trkpt><trkpt lat="43.4317079" lon="11.4180831"><ele>299.0</ele><time>2026-04-11T07:54:27.988Z</time></trkpt><trkpt lat="43.4316186" lon="11.4179637"><ele>299.4</ele><time>2026-04-11T07:54:28.989Z</time></trkpt><trkpt lat="43.4315353" lon="11.4178393"><ele>299.79999999999995</ele><time>2026-04-11T07:54:29.988Z</time></trkpt><trkpt lat="43.4314594" lon="11.4177269"><ele>300.20000000000005</ele><time>2026-04-11T07:54:30.99Z</time></trkpt><trkpt lat="43.4313937" lon="11.41763"><ele>300.6</ele><time>2026-04-11T07:54:31.988Z</time></trkpt><trkpt lat="43.431346" lon="11.4175578"><ele>301.0</ele><time>2026-04-11T07:54:32.989Z</time></trkpt><trkpt lat="43.4312711" lon="11.4174801"><ele>301.0</ele><time>2026-04-11T07:54:34.989Z</time></trkpt><trkpt lat="43.4311935" lon="11.4175154"><ele>301.0</ele><time>2026-04-11T07:54:36.99Z</time></trkpt><trkpt lat="43.4311469" lon="11.4176134"><ele>301.0</ele><time>2026-04-11T07:54:38.99Z</time></trkpt><trkpt lat="43.4310482" lon="11.4177023"><ele>301.0</ele><time>2026-04-11T07:54:40.989Z</time></trkpt><trkpt lat="43.4309793" lon="11.4177451"><ele>301.0</ele><time>2026-04-11T07:54:41.989Z</time></trkpt><trkpt lat="43.4308797" lon="11.4178088"><ele>301.0</ele><time>2026-04-11T07:54:43.989Z</time></trkpt><trkpt lat="43.43082" lon="11.4178552"><ele>301.0</ele><time>2026-04-11T07:55:14.99Z</time></trkpt><trkpt lat="43.4307015" lon="11.417952"><ele>301.0</ele><time>2026-04-11T07:55:16.99Z</time></trkpt><trkpt lat="43.4306301" lon="11.4180164"><ele>301.0</ele><time>2026-04-11T07:55:17.99Z</time></trkpt><trkpt lat="43.4305463" lon="11.4180764"><ele>301.0</ele><time>2026-04-11T07:55:18.989Z</time></trkpt><trkpt lat="43.4304664" lon="11.4181315"><ele>301.16666666666663</ele><time>2026-04-11T07:55:19.989Z</time></trkpt><trkpt lat="43.430389" lon="11.4181898"><ele>301.3333333333333</ele><time>2026-04-11T07:55:20.989Z</time></trkpt><trkpt lat="43.4303149" lon="11.418246"><ele>301.5</ele><time>2026-04-11T07:55:21.99Z</time></trkpt><trkpt lat="43.4302523" lon="11.4182899"><ele>301.6666666666667</ele><time>2026-04-11T07:55:22.99Z</time></trkpt><trkpt lat="43.4301804" lon="11.4183236"><ele>301.83333333333337</ele><time>2026-04-11T07:55:24.989Z</time></trkpt><trkpt lat="43.430107" lon="11.4183321"><ele>302.0</ele><time>2026-04-11T07:55:46.99Z</time></trkpt><trkpt lat="43.4301957" lon="11.4183381"><ele>302.0</ele><time>2026-04-11T07:55:51.99Z</time></trkpt><trkpt lat="43.4303207" lon="11.4182342"><ele>302.0</ele><time>2026-04-11T07:55:53.99Z</time></trkpt><trkpt lat="43.4304224" lon="11.4181662"><ele>302.0</ele><time>2026-04-11T07:55:54.991Z</time></trkpt><trkpt lat="43.4305451" lon="11.4180808"><ele>302.0</ele><time>2026-04-11T07:55:55.99Z</time></trkpt><trkpt lat="43.4306656" lon="11.417991"><ele>301.75</ele><time>2026-04-11T07:55:56.991Z</time></trkpt><trkpt lat="43.4307839" lon="11.4179008"><ele>301.5</ele><time>2026-04-11T07:55:57.991Z</time></trkpt><trkpt lat="43.4308915" lon="11.4178242"><ele>301.25</ele><time>2026-04-11T07:55:58.991Z</time></trkpt><trkpt lat="43.4309959" lon="11.4177659"><ele>301.0</ele><time>2026-04-11T07:55:59.99Z</time></trkpt><trkpt lat="43.4310896" lon="11.4177136"><ele>301.0</ele><time>2026-04-11T07:56:00.99Z</time></trkpt><trkpt lat="43.4311633" lon="11.4176721"><ele>301.0</ele><time>2026-04-11T07:56:01.99Z</time></trkpt><trkpt lat="43.4312299" lon="11.4176438"><ele>301.0</ele><time>2026-04-11T07:56:02.991Z</time></trkpt><trkpt lat="43.4313067" lon="11.4176024"><ele>301.0</ele><time>2026-04-11T07:56:04.99Z</time></trkpt><trkpt lat="43.4313323" lon="11.4175174"><ele>301.0</ele><time>2026-04-11T07:56:07.99Z</time></trkpt><trkpt lat="43.43126" lon="11.4173742"><ele>301.0</ele><time>2026-04-11T07:56:09.991Z</time></trkpt><trkpt lat="43.431165" lon="11.4172644"><ele>304.5</ele><time>2026-04-11T07:56:10.99Z</time></trkpt><trkpt lat="43.4310631" lon="11.4171432"><ele>308.0</ele><time>2026-04-11T07:56:11.991Z</time></trkpt><trkpt lat="43.4309581" lon="11.4170214"><ele>311.5</ele><time>2026-04-11T07:56:12.99Z</time></trkpt><trkpt lat="43.4308308" lon="11.4169236"><ele>315.0</ele><time>2026-04-11T07:56:13.991Z</time></trkpt><trkpt lat="43.4306735" lon="11.4168438"><ele>315.0</ele><time>2026-04-11T07:56:14.991Z</time></trkpt><trkpt lat="43.4305199" lon="11.4167908"><ele>315.0</ele><time>2026-04-11T07:56:15.99Z</time></trkpt><trkpt lat="43.4303606" lon="11.4167638"><ele>315.0</ele><time>2026-04-11T07:56:16.99Z</time></trkpt><trkpt lat="43.4302046" lon="11.4167477"><ele>313.75</ele><time>2026-04-11T07:56:17.99Z</time></trkpt><trkpt lat="43.4300588" lon="11.4167469"><ele>312.5</ele><time>2026-04-11T07:56:18.99Z</time></trkpt><trkpt lat="43.42993" lon="11.416746"><ele>311.25</ele><time>2026-04-11T07:56:19.991Z</time></trkpt><trkpt lat="43.4298162" lon="11.4167235"><ele>310.0</ele><time>2026-04-11T07:56:20.991Z</time></trkpt><trkpt lat="43.4296993" lon="11.4166512"><ele>307.25</ele><time>2026-04-11T07:56:21.99Z</time></trkpt><trkpt lat="43.4295987" lon="11.4165365"><ele>304.5</ele><time>2026-04-11T07:56:22.991Z</time></trkpt><trkpt lat="43.4295214" lon="11.4163639"><ele>301.75</ele><time>2026-04-11T07:56:23.991Z</time></trkpt><trkpt lat="43.4294602" lon="11.4161786"><ele>299.0</ele><time>2026-04-11T07:56:24.991Z</time></trkpt><trkpt lat="43.4294303" lon="11.4159896"><ele>298.75</ele><time>2026-04-11T07:56:25.991Z</time></trkpt><trkpt lat="43.4294297" lon="11.4157924"><ele>298.5</ele><time>2026-04-11T07:56:26.99Z</time></trkpt><trkpt lat="43.4294574" lon="11.4156153"><ele>298.25</ele><time>2026-04-11T07:56:27.991Z</time></trkpt><trkpt lat="43.4295316" lon="11.4154794"><ele>298.0</ele><time>2026-04-11T07:56:28.99Z</time></trkpt><trkpt lat="43.4296349" lon="11.4153546"><ele>299.0</ele><time>2026-04-11T07:56:29.991Z</time></trkpt><trkpt lat="43.4297985" lon="11.4152592"><ele>300.0</ele><time>2026-04-11T07:56:30.991Z</time></trkpt><trkpt lat="43.4299791" lon="11.4151456"><ele>301.0</ele><time>2026-04-11T07:56:31.99Z</time></trkpt><trkpt lat="43.4301419" lon="11.4150333"><ele>301.0</ele><time>2026-04-11T07:56:32.991Z</time></trkpt><trkpt lat="43.4302778" lon="11.4149005"><ele>301.0</ele><time>2026-04-11T07:56:33.991Z</time></trkpt><trkpt lat="43.430385" lon="11.4147502"><ele>301.0</ele><time>2026-04-11T07:56:34.991Z</time></trkpt><trkpt lat="43.4305095" lon="11.4145953"><ele>301.66666666666663</ele><time>2026-04-11T07:56:35.991Z</time></trkpt><trkpt lat="43.4306242" lon="11.4144495"><ele>302.3333333333333</ele><time>2026-04-11T07:56:36.991Z</time></trkpt><trkpt lat="43.4308648" lon="11.4142963"><ele>303.0</ele><time>2026-04-11T07:56:38.991Z</time></trkpt><trkpt lat="43.4310009" lon="11.4142319"><ele>303.0</ele><time>2026-04-11T07:56:39.991Z</time></trkpt><trkpt lat="43.4311611" lon="11.4141772"><ele>303.0</ele><time>2026-04-11T07:56:40.99Z</time></trkpt><trkpt lat="43.4313179" lon="11.4141244"><ele>303.0</ele><time>2026-04-11T07:56:41.991Z</time></trkpt><trkpt lat="43.4314582" lon="11.4140623"><ele>302.75</ele><time>2026-04-11T07:56:42.992Z</time></trkpt><trkpt lat="43.4315772" lon="11.4139667"><ele>302.5</ele><time>2026-04-11T07:56:43.992Z</time></trkpt><trkpt lat="43.4316757" lon="11.4138312"><ele>302.25</ele><time>2026-04-11T07:56:44.992Z</time></trkpt><trkpt lat="43.4317575" lon="11.4136656"><ele>302.0</ele><time>2026-04-11T07:56:45.991Z</time></trkpt><trkpt lat="43.4318208" lon="11.4134904"><ele>302.0</ele><time>2026-04-11T07:56:46.991Z</time></trkpt><trkpt lat="43.4318741" lon="11.4133187"><ele>302.0</ele><time>2026-04-11T07:56:47.991Z</time></trkpt><trkpt lat="43.4319049" lon="11.4131495"><ele>302.0</ele><time>2026-04-11T07:56:48.992Z</time></trkpt><trkpt lat="43.4319042" lon="11.4129805"><ele>302.0</ele><time>2026-04-11T07:56:49.991Z</time></trkpt><trkpt lat="43.4318752" lon="11.412823"><ele>302.5</ele><time>2026-04-11T07:56:50.992Z</time></trkpt><trkpt lat="43.4317985" lon="11.4126791"><ele>303.0</ele><time>2026-04-11T07:56:51.991Z</time></trkpt><trkpt lat="43.4316894" lon="11.4125528"><ele>303.5</ele><time>2026-04-11T07:56:52.991Z</time></trkpt><trkpt lat="43.4315501" lon="11.4124861"><ele>304.0</ele><time>2026-04-11T07:56:53.992Z</time></trkpt><trkpt lat="43.431433" lon="11.412414"><ele>301.0</ele><time>2026-04-11T07:56:54.991Z</time></trkpt><trkpt lat="43.4312228" lon="11.4121625"><ele>298.0</ele><time>2026-04-11T07:56:56.991Z</time></trkpt><trkpt lat="43.4311093" lon="11.412005"><ele>295.0</ele><time>2026-04-11T07:56:57.992Z</time></trkpt><trkpt lat="43.4310094" lon="11.4118518"><ele>295.0</ele><time>2026-04-11T07:56:58.992Z</time></trkpt><trkpt lat="43.4309194" lon="11.4117006"><ele>295.0</ele><time>2026-04-11T07:56:59.992Z</time></trkpt><trkpt lat="43.4308513" lon="11.4115347"><ele>295.0</ele><time>2026-04-11T07:57:00.991Z</time></trkpt><trkpt lat="43.4307966" lon="11.4113233"><ele>295.0</ele><time>2026-04-11T07:57:01.992Z</time></trkpt><trkpt lat="43.4307306" lon="11.4111023"><ele>296.66666666666663</ele><time>2026-04-11T07:57:02.992Z</time></trkpt><trkpt lat="43.430649" lon="11.410882"><ele>298.3333333333333</ele><time>2026-04-11T07:57:03.992Z</time></trkpt><trkpt lat="43.4305458" lon="11.4106708"><ele>300.0</ele><time>2026-04-11T07:57:04.992Z</time></trkpt><trkpt lat="43.4304303" lon="11.4104829"><ele>300.0</ele><time>2026-04-11T07:57:05.991Z</time></trkpt><trkpt lat="43.4303047" lon="11.4103237"><ele>300.0</ele><time>2026-04-11T07:57:06.991Z</time></trkpt><trkpt lat="43.4301647" lon="11.4101996"><ele>300.0</ele><time>2026-04-11T07:57:07.992Z</time></trkpt><trkpt lat="43.4300124" lon="11.4101019"><ele>300.0</ele><time>2026-04-11T07:57:08.992Z</time></trkpt><trkpt lat="43.4298556" lon="11.4100108"><ele>300.0</ele><time>2026-04-11T07:57:09.992Z</time></trkpt><trkpt lat="43.4297045" lon="11.4099128"><ele>300.0</ele><time>2026-04-11T07:57:10.991Z</time></trkpt><trkpt lat="43.4295628" lon="11.4097963"><ele>299.0</ele><time>2026-04-11T07:57:11.992Z</time></trkpt><trkpt lat="43.4293085" lon="11.4095065"><ele>298.0</ele><time>2026-04-11T07:57:13.992Z</time></trkpt><trkpt lat="43.4291986" lon="11.409299"><ele>298.0</ele><time>2026-04-11T07:57:14.992Z</time></trkpt><trkpt lat="43.4290977" lon="11.4090836"><ele>298.0</ele><time>2026-04-11T07:57:15.991Z</time></trkpt><trkpt lat="43.4289937" lon="11.4088793"><ele>298.0</ele><time>2026-04-11T07:57:16.992Z</time></trkpt><trkpt lat="43.4288913" lon="11.4086847"><ele>297.75</ele><time>2026-04-11T07:57:17.992Z</time></trkpt><trkpt lat="43.4287815" lon="11.4085414"><ele>297.5</ele><time>2026-04-11T07:57:18.991Z</time></trkpt><trkpt lat="43.4286826" lon="11.4084147"><ele>297.25</ele><time>2026-04-11T07:57:19.991Z</time></trkpt><trkpt lat="43.4285788" lon="11.4083328"><ele>297.0</ele><time>2026-04-11T07:57:20.991Z</time></trkpt><trkpt lat="43.4284685" lon="11.4082882"><ele>297.0</ele><time>2026-04-11T07:57:21.992Z</time></trkpt><trkpt lat="43.4283105" lon="11.4083103"><ele>297.0</ele><time>2026-04-11T07:57:22.991Z</time></trkpt><trkpt lat="43.428148" lon="11.4083365"><ele>297.0</ele><time>2026-04-11T07:57:23.991Z</time></trkpt><trkpt lat="43.4279707" lon="11.4083387"><ele>294.3333333333333</ele><time>2026-04-11T07:57:24.991Z</time></trkpt><trkpt lat="43.4277759" lon="11.4083118"><ele>291.66666666666663</ele><time>2026-04-11T07:57:25.992Z</time></trkpt><trkpt lat="43.4276192" lon="11.408261"><ele>289.0</ele><time>2026-04-11T07:57:26.991Z</time></trkpt><trkpt lat="43.4274822" lon="11.4081463"><ele>288.3333333333333</ele><time>2026-04-11T07:57:27.992Z</time></trkpt><trkpt lat="43.42735" lon="11.4079878"><ele>287.6666666666667</ele><time>2026-04-11T07:57:28.991Z</time></trkpt><trkpt lat="43.4272142" lon="11.4077893"><ele>287.0</ele><time>2026-04-11T07:57:29.992Z</time></trkpt><trkpt lat="43.4270836" lon="11.4075656"><ele>287.0</ele><time>2026-04-11T07:57:30.991Z</time></trkpt><trkpt lat="43.4269316" lon="11.4074182"><ele>287.0</ele><time>2026-04-11T07:57:31.991Z</time></trkpt><trkpt lat="43.4268071" lon="11.4073157"><ele>287.0</ele><time>2026-04-11T07:57:32.991Z</time></trkpt><trkpt lat="43.4267168" lon="11.4072168"><ele>287.0</ele><time>2026-04-11T07:57:33.991Z</time></trkpt><trkpt lat="43.4266455" lon="11.4070961"><ele>287.0</ele><time>2026-04-11T07:57:34.992Z</time></trkpt><trkpt lat="43.4266416" lon="11.4069318"><ele>287.0</ele><time>2026-04-11T07:57:35.992Z</time></trkpt><trkpt lat="43.4266834" lon="11.4067212"><ele>287.0</ele><time>2026-04-11T07:57:36.991Z</time></trkpt><trkpt lat="43.4267217" lon="11.4064717"><ele>287.6666666666667</ele><time>2026-04-11T07:57:37.991Z</time></trkpt><trkpt lat="43.4267571" lon="11.4062231"><ele>288.3333333333333</ele><time>2026-04-11T07:57:38.992Z</time></trkpt><trkpt lat="43.4267756" lon="11.4059739"><ele>289.0</ele><time>2026-04-11T07:57:39.992Z</time></trkpt><trkpt lat="43.426779" lon="11.4057406"><ele>289.0</ele><time>2026-04-11T07:57:40.991Z</time></trkpt><trkpt lat="43.4267576" lon="11.4055216"><ele>289.0</ele><time>2026-04-11T07:57:41.991Z</time></trkpt><trkpt lat="43.426706" lon="11.4053215"><ele>289.0</ele><time>2026-04-11T07:57:42.992Z</time></trkpt><trkpt lat="43.4266209" lon="11.4051347"><ele>288.0</ele><time>2026-04-11T07:57:43.992Z</time></trkpt><trkpt lat="43.4265207" lon="11.40496"><ele>287.0</ele><time>2026-04-11T07:57:44.993Z</time></trkpt><trkpt lat="43.4264105" lon="11.4047937"><ele>286.0</ele><time>2026-04-11T07:57:45.992Z</time></trkpt><trkpt lat="43.4263107" lon="11.404668"><ele>289.66666666666663</ele><time>2026-04-11T07:57:46.993Z</time></trkpt><trkpt lat="43.4261928" lon="11.4045719"><ele>293.3333333333333</ele><time>2026-04-11T07:57:47.993Z</time></trkpt><trkpt lat="43.4260294" lon="11.4045061"><ele>297.0</ele><time>2026-04-11T07:57:48.992Z</time></trkpt><trkpt lat="43.4258259" lon="11.4044685"><ele>297.0</ele><time>2026-04-11T07:57:49.992Z</time></trkpt><trkpt lat="43.4256167" lon="11.4044235"><ele>297.0</ele><time>2026-04-11T07:57:50.993Z</time></trkpt><trkpt lat="43.425415" lon="11.404342"><ele>297.0</ele><time>2026-04-11T07:57:51.993Z</time></trkpt><trkpt lat="43.4252503" lon="11.4042394"><ele>294.25</ele><time>2026-04-11T07:57:52.993Z</time></trkpt><trkpt lat="43.4251265" lon="11.4041343"><ele>291.5</ele><time>2026-04-11T07:57:53.992Z</time></trkpt><trkpt lat="43.4250079" lon="11.4040418"><ele>288.75</ele><time>2026-04-11T07:57:54.992Z</time></trkpt><trkpt lat="43.4248748" lon="11.403995"><ele>286.0</ele><time>2026-04-11T07:57:55.993Z</time></trkpt><trkpt lat="43.4247268" lon="11.4039989"><ele>285.3333333333333</ele><time>2026-04-11T07:57:56.993Z</time></trkpt><trkpt lat="43.4245534" lon="11.404069"><ele>284.6666666666667</ele><time>2026-04-11T07:57:57.993Z</time></trkpt><trkpt lat="43.4243795" lon="11.4041157"><ele>284.0</ele><time>2026-04-11T07:57:58.992Z</time></trkpt><trkpt lat="43.42422" lon="11.40414"><ele>284.0</ele><time>2026-04-11T07:57:59.992Z</time></trkpt><trkpt lat="43.4240664" lon="11.4041421"><ele>284.0</ele><time>2026-04-11T07:58:00.993Z</time></trkpt><trkpt lat="43.4239265" lon="11.4041128"><ele>284.0</ele><time>2026-04-11T07:58:01.992Z</time></trkpt><trkpt lat="43.4238051" lon="11.4040804"><ele>284.0</ele><time>2026-04-11T07:58:02.992Z</time></trkpt><trkpt lat="43.4236733" lon="11.4040847"><ele>286.0</ele><time>2026-04-11T07:58:03.992Z</time></trkpt><trkpt lat="43.4235304" lon="11.4041457"><ele>288.0</ele><time>2026-04-11T07:58:04.992Z</time></trkpt><trkpt lat="43.4233804" lon="11.4042345"><ele>290.0</ele><time>2026-04-11T07:58:05.992Z</time></trkpt><trkpt lat="43.4232491" lon="11.4043347"><ele>290.0</ele><time>2026-04-11T07:58:06.992Z</time></trkpt><trkpt lat="43.4231423" lon="11.4044644"><ele>290.0</ele><time>2026-04-11T07:58:07.993Z</time></trkpt><trkpt lat="43.4230582" lon="11.4046239"><ele>290.0</ele><time>2026-04-11T07:58:08.992Z</time></trkpt><trkpt lat="43.4229797" lon="11.4047973"><ele>290.0</ele><time>2026-04-11T07:58:09.992Z</time></trkpt><trkpt lat="43.4229078" lon="11.4049514"><ele>289.0</ele><time>2026-04-11T07:58:10.993Z</time></trkpt><trkpt lat="43.4228362" lon="11.4050482"><ele>288.0</ele><time>2026-04-11T07:58:11.992Z</time></trkpt><trkpt lat="43.4227434" lon="11.4050846"><ele>287.0</ele><time>2026-04-11T07:58:12.992Z</time></trkpt><trkpt lat="43.4226297" lon="11.4050682"><ele>286.0</ele><time>2026-04-11T07:58:13.993Z</time></trkpt><trkpt lat="43.4224797" lon="11.405007"><ele>286.0</ele><time>2026-04-11T07:58:14.993Z</time></trkpt><trkpt lat="43.4223224" lon="11.4049145"><ele>286.0</ele><time>2026-04-11T07:58:15.992Z</time></trkpt><trkpt lat="43.4221704" lon="11.4048215"><ele>286.0</ele><time>2026-04-11T07:58:16.993Z</time></trkpt><trkpt lat="43.4220271" lon="11.404685"><ele>286.66666666666663</ele><time>2026-04-11T07:58:17.993Z</time></trkpt><trkpt lat="43.4219046" lon="11.4045028"><ele>287.3333333333333</ele><time>2026-04-11T07:58:18.993Z</time></trkpt><trkpt lat="43.4217985" lon="11.4042906"><ele>288.0</ele><time>2026-04-11T07:58:19.992Z</time></trkpt><trkpt lat="43.4216744" lon="11.4040718"><ele>288.0</ele><time>2026-04-11T07:58:20.993Z</time></trkpt><trkpt lat="43.4215409" lon="11.4038735"><ele>288.0</ele><time>2026-04-11T07:58:21.993Z</time></trkpt><trkpt lat="43.4213975" lon="11.4036845"><ele>288.0</ele><time>2026-04-11T07:58:22.993Z</time></trkpt><trkpt lat="43.4212379" lon="11.4035011"><ele>287.3333333333333</ele><time>2026-04-11T07:58:23.993Z</time></trkpt><trkpt lat="43.4210781" lon="11.4033247"><ele>286.66666666666663</ele><time>2026-04-11T07:58:24.992Z</time></trkpt><trkpt lat="43.4209262" lon="11.4031503"><ele>286.0</ele><time>2026-04-11T07:58:25.993Z</time></trkpt><trkpt lat="43.4207729" lon="11.4029959"><ele>285.0</ele><time>2026-04-11T07:58:26.993Z</time></trkpt><trkpt lat="43.4206244" lon="11.4028463"><ele>284.0</ele><time>2026-04-11T07:58:27.992Z</time></trkpt><trkpt lat="43.4204702" lon="11.4027116"><ele>283.0</ele><time>2026-04-11T07:58:28.992Z</time></trkpt><trkpt lat="43.4202918" lon="11.4025992"><ele>283.0</ele><time>2026-04-11T07:58:29.993Z</time></trkpt><trkpt lat="43.4201056" lon="11.4025126"><ele>283.0</ele><time>2026-04-11T07:58:30.993Z</time></trkpt><trkpt lat="43.419936" lon="11.4024154"><ele>283.0</ele><time>2026-04-11T07:58:31.992Z</time></trkpt><trkpt lat="43.4197946" lon="11.4023068"><ele>284.66666666666663</ele><time>2026-04-11T07:58:32.992Z</time></trkpt><trkpt lat="43.4196871" lon="11.402146"><ele>286.3333333333333</ele><time>2026-04-11T07:58:33.993Z</time></trkpt><trkpt lat="43.419592" lon="11.4019615"><ele>288.0</ele><time>2026-04-11T07:58:34.992Z</time></trkpt><trkpt lat="43.419522" lon="11.4017478"><ele>284.0</ele><time>2026-04-11T07:58:35.993Z</time></trkpt><trkpt lat="43.4194555" lon="11.4015121"><ele>280.0</ele><time>2026-04-11T07:58:36.992Z</time></trkpt><trkpt lat="43.4193808" lon="11.4012617"><ele>276.0</ele><time>2026-04-11T07:58:37.993Z</time></trkpt><trkpt lat="43.4192916" lon="11.4010008"><ele>276.0</ele><time>2026-04-11T07:58:38.992Z</time></trkpt><trkpt lat="43.419192" lon="11.4007467"><ele>276.0</ele><time>2026-04-11T07:58:39.993Z</time></trkpt><trkpt lat="43.4190821" lon="11.4005173"><ele>276.0</ele><time>2026-04-11T07:58:40.993Z</time></trkpt><trkpt lat="43.4189593" lon="11.4003104"><ele>275.3333333333333</ele><time>2026-04-11T07:58:41.993Z</time></trkpt><trkpt lat="43.418821" lon="11.4001149"><ele>274.66666666666663</ele><time>2026-04-11T07:58:42.992Z</time></trkpt><trkpt lat="43.4186691" lon="11.3999383"><ele>274.0</ele><time>2026-04-11T07:58:43.993Z</time></trkpt><trkpt lat="43.4185116" lon="11.3997638"><ele>279.3333333333333</ele><time>2026-04-11T07:58:44.992Z</time></trkpt><trkpt lat="43.4183578" lon="11.3995827"><ele>284.6666666666667</ele><time>2026-04-11T07:58:45.993Z</time></trkpt><trkpt lat="43.4182096" lon="11.3994011"><ele>290.0</ele><time>2026-04-11T07:58:46.992Z</time></trkpt><trkpt lat="43.418071" lon="11.3992124"><ele>291.6666666666667</ele><time>2026-04-11T07:58:47.992Z</time></trkpt><trkpt lat="43.4179466" lon="11.3990343"><ele>293.3333333333333</ele><time>2026-04-11T07:58:48.992Z</time></trkpt><trkpt lat="43.4178407" lon="11.398864"><ele>295.0</ele><time>2026-04-11T07:58:49.993Z</time></trkpt><trkpt lat="43.4177413" lon="11.3987028"><ele>295.0</ele><time>2026-04-11T07:58:50.993Z</time></trkpt><trkpt lat="43.4176056" lon="11.3985619"><ele>295.0</ele><time>2026-04-11T07:58:51.994Z</time></trkpt><trkpt lat="43.4174481" lon="11.3984627"><ele>295.0</ele><time>2026-04-11T07:58:52.994Z</time></trkpt><trkpt lat="43.4172843" lon="11.3983936"><ele>292.66666666666663</ele><time>2026-04-11T07:58:53.993Z</time></trkpt><trkpt lat="43.4171259" lon="11.3983578"><ele>290.3333333333333</ele><time>2026-04-11T07:58:54.994Z</time></trkpt><trkpt lat="43.4169743" lon="11.3983551"><ele>288.0</ele><time>2026-04-11T07:58:55.994Z</time></trkpt><trkpt lat="43.4168093" lon="11.3983686"><ele>288.0</ele><time>2026-04-11T07:58:56.994Z</time></trkpt><trkpt lat="43.416634" lon="11.3984107"><ele>288.0</ele><time>2026-04-11T07:58:57.994Z</time></trkpt><trkpt lat="43.4164561" lon="11.3984797"><ele>288.0</ele><time>2026-04-11T07:58:58.994Z</time></trkpt><trkpt lat="43.4162496" lon="11.3985756"><ele>290.3333333333333</ele><time>2026-04-11T07:58:59.994Z</time></trkpt><trkpt lat="43.4160754" lon="11.3986602"><ele>292.66666666666663</ele><time>2026-04-11T07:59:00.994Z</time></trkpt><trkpt lat="43.4159032" lon="11.3987338"><ele>295.0</ele><time>2026-04-11T07:59:01.994Z</time></trkpt><trkpt lat="43.4157375" lon="11.3988218"><ele>288.0</ele><time>2026-04-11T07:59:02.993Z</time></trkpt><trkpt lat="43.4155769" lon="11.3989143"><ele>281.0</ele><time>2026-04-11T07:59:03.994Z</time></trkpt><trkpt lat="43.4154373" lon="11.3990008"><ele>274.0</ele><time>2026-04-11T07:59:04.994Z</time></trkpt><trkpt lat="43.415299" lon="11.3990732"><ele>274.0</ele><time>2026-04-11T07:59:05.994Z</time></trkpt><trkpt lat="43.4151617" lon="11.3991416"><ele>274.0</ele><time>2026-04-11T07:59:06.993Z</time></trkpt><trkpt lat="43.4150237" lon="11.3992032"><ele>274.0</ele><time>2026-04-11T07:59:07.994Z</time></trkpt><trkpt lat="43.4148658" lon="11.3992312"><ele>274.0</ele><time>2026-04-11T07:59:08.994Z</time></trkpt><trkpt lat="43.4146845" lon="11.3992157"><ele>274.0</ele><time>2026-04-11T07:59:09.994Z</time></trkpt><trkpt lat="43.4144793" lon="11.3991786"><ele>274.0</ele><time>2026-04-11T07:59:10.993Z</time></trkpt><trkpt lat="43.4142667" lon="11.3991301"><ele>272.66666666666663</ele><time>2026-04-11T07:59:11.994Z</time></trkpt><trkpt lat="43.4140636" lon="11.3990859"><ele>271.3333333333333</ele><time>2026-04-11T07:59:12.994Z</time></trkpt><trkpt lat="43.4138638" lon="11.3990553"><ele>270.0</ele><time>2026-04-11T07:59:13.994Z</time></trkpt><trkpt lat="43.4136721" lon="11.399032"><ele>269.3333333333333</ele><time>2026-04-11T07:59:14.993Z</time></trkpt><trkpt lat="43.413483" lon="11.3990146"><ele>268.66666666666663</ele><time>2026-04-11T07:59:15.994Z</time></trkpt><trkpt lat="43.4132957" lon="11.398994"><ele>268.0</ele><time>2026-04-11T07:59:16.994Z</time></trkpt><trkpt lat="43.4131082" lon="11.3989709"><ele>267.66666666666663</ele><time>2026-04-11T07:59:17.993Z</time></trkpt><trkpt lat="43.412922" lon="11.3989477"><ele>267.3333333333333</ele><time>2026-04-11T07:59:18.994Z</time></trkpt><trkpt lat="43.4127466" lon="11.3989225"><ele>267.0</ele><time>2026-04-11T07:59:19.993Z</time></trkpt><trkpt lat="43.4125767" lon="11.3989053"><ele>267.0</ele><time>2026-04-11T07:59:20.993Z</time></trkpt><trkpt lat="43.412412" lon="11.3989034"><ele>267.0</ele><time>2026-04-11T07:59:21.993Z</time></trkpt><trkpt lat="43.4122407" lon="11.3989419"><ele>267.0</ele><time>2026-04-11T07:59:22.994Z</time></trkpt><trkpt lat="43.412057" lon="11.399026"><ele>267.0</ele><time>2026-04-11T07:59:23.994Z</time></trkpt><trkpt lat="43.4118868" lon="11.3991573"><ele>267.0</ele><time>2026-04-11T07:59:24.993Z</time></trkpt><trkpt lat="43.4117293" lon="11.3993146"><ele>267.0</ele><time>2026-04-11T07:59:25.994Z</time></trkpt><trkpt lat="43.4115854" lon="11.3994971"><ele>266.6666666666667</ele><time>2026-04-11T07:59:26.994Z</time></trkpt><trkpt lat="43.4114563" lon="11.3997041"><ele>266.33333333333337</ele><time>2026-04-11T07:59:27.993Z</time></trkpt><trkpt lat="43.4113176" lon="11.3999227"><ele>266.0</ele><time>2026-04-11T07:59:28.994Z</time></trkpt><trkpt lat="43.4111732" lon="11.4001459"><ele>266.0</ele><time>2026-04-11T07:59:29.994Z</time></trkpt><trkpt lat="43.4110192" lon="11.4003654"><ele>266.0</ele><time>2026-04-11T07:59:30.993Z</time></trkpt><trkpt lat="43.4108676" lon="11.4005859"><ele>266.0</ele><time>2026-04-11T07:59:31.994Z</time></trkpt><trkpt lat="43.4107148" lon="11.4008055"><ele>264.0</ele><time>2026-04-11T07:59:32.994Z</time></trkpt><trkpt lat="43.410555" lon="11.4010309"><ele>262.0</ele><time>2026-04-11T07:59:33.994Z</time></trkpt><trkpt lat="43.4103874" lon="11.4012666"><ele>264.5</ele><time>2026-04-11T07:59:34.994Z</time></trkpt><trkpt lat="43.4102181" lon="11.4015085"><ele>267.0</ele><time>2026-04-11T07:59:35.994Z</time></trkpt><trkpt lat="43.4100593" lon="11.4017472"><ele>267.0</ele><time>2026-04-11T07:59:36.993Z</time></trkpt><trkpt lat="43.4099049" lon="11.4019609"><ele>267.0</ele><time>2026-04-11T07:59:37.994Z</time></trkpt><trkpt lat="43.4097713" lon="11.4021496"><ele>267.0</ele><time>2026-04-11T07:59:38.994Z</time></trkpt><trkpt lat="43.4096496" lon="11.4023247"><ele>266.6666666666667</ele><time>2026-04-11T07:59:39.993Z</time></trkpt><trkpt lat="43.4095328" lon="11.4024903"><ele>266.33333333333337</ele><time>2026-04-11T07:59:40.994Z</time></trkpt><trkpt lat="43.4094283" lon="11.4026299"><ele>266.0</ele><time>2026-04-11T07:59:41.994Z</time></trkpt><trkpt lat="43.4093098" lon="11.4027981"><ele>266.0</ele><time>2026-04-11T07:59:42.993Z</time></trkpt><trkpt lat="43.4091894" lon="11.4029732"><ele>266.0</ele><time>2026-04-11T07:59:43.993Z</time></trkpt><trkpt lat="43.4090699" lon="11.4031505"><ele>266.0</ele><time>2026-04-11T07:59:44.994Z</time></trkpt><trkpt lat="43.4089549" lon="11.4033203"><ele>265.75</ele><time>2026-04-11T07:59:45.993Z</time></trkpt><trkpt lat="43.4088452" lon="11.4034891"><ele>265.5</ele><time>2026-04-11T07:59:46.993Z</time></trkpt><trkpt lat="43.4087541" lon="11.4036325"><ele>265.25</ele><time>2026-04-11T07:59:47.993Z</time></trkpt><trkpt lat="43.4086657" lon="11.4037559"><ele>265.0</ele><time>2026-04-11T07:59:48.994Z</time></trkpt><trkpt lat="43.4085675" lon="11.403844"><ele>271.0</ele><time>2026-04-11T07:59:49.993Z</time></trkpt><trkpt lat="43.4084339" lon="11.4039028"><ele>277.0</ele><time>2026-04-11T07:59:50.993Z</time></trkpt><trkpt lat="43.4082765" lon="11.4039024"><ele>283.0</ele><time>2026-04-11T07:59:51.994Z</time></trkpt><trkpt lat="43.4081123" lon="11.4038795"><ele>281.66666666666663</ele><time>2026-04-11T07:59:52.994Z</time></trkpt><trkpt lat="43.4079501" lon="11.4038967"><ele>280.3333333333333</ele><time>2026-04-11T07:59:53.995Z</time></trkpt><trkpt lat="43.4077692" lon="11.403939"><ele>279.0</ele><time>2026-04-11T07:59:54.995Z</time></trkpt><trkpt lat="43.4075793" lon="11.4040052"><ele>279.0</ele><time>2026-04-11T07:59:55.994Z</time></trkpt><trkpt lat="43.4073854" lon="11.404089"><ele>279.0</ele><time>2026-04-11T07:59:56.995Z</time></trkpt><trkpt lat="43.4071981" lon="11.4041673"><ele>279.0</ele><time>2026-04-11T07:59:57.995Z</time></trkpt><trkpt lat="43.4070105" lon="11.4042486"><ele>275.3333333333333</ele><time>2026-04-11T07:59:58.995Z</time></trkpt><trkpt lat="43.4068204" lon="11.4043428"><ele>271.66666666666663</ele><time>2026-04-11T07:59:59.995Z</time></trkpt><trkpt lat="43.4066415" lon="11.4044476"><ele>268.0</ele><time>2026-04-11T08:00:00.994Z</time></trkpt><trkpt lat="43.4064628" lon="11.4045511"><ele>266.0</ele><time>2026-04-11T08:00:01.995Z</time></trkpt><trkpt lat="43.4062872" lon="11.4046447"><ele>264.0</ele><time>2026-04-11T08:00:02.995Z</time></trkpt><trkpt lat="43.4061059" lon="11.4047239"><ele>262.0</ele><time>2026-04-11T08:00:03.995Z</time></trkpt><trkpt lat="43.4059137" lon="11.4047875"><ele>265.0</ele><time>2026-04-11T08:00:04.994Z</time></trkpt><trkpt lat="43.4057195" lon="11.4048334"><ele>268.0</ele><time>2026-04-11T08:00:05.995Z</time></trkpt><trkpt lat="43.4055321" lon="11.4048598"><ele>271.0</ele><time>2026-04-11T08:00:06.995Z</time></trkpt><trkpt lat="43.4053475" lon="11.4048694"><ele>271.0</ele><time>2026-04-11T08:00:07.994Z</time></trkpt><trkpt lat="43.4051745" lon="11.4048608"><ele>271.0</ele><time>2026-04-11T08:00:08.995Z</time></trkpt><trkpt lat="43.4050108" lon="11.4048405"><ele>271.0</ele><time>2026-04-11T08:00:09.995Z</time></trkpt><trkpt lat="43.4048601" lon="11.4048114"><ele>271.0</ele><time>2026-04-11T08:00:10.995Z</time></trkpt><trkpt lat="43.404719" lon="11.4048027"><ele>271.0</ele><time>2026-04-11T08:00:11.995Z</time></trkpt><trkpt lat="43.4045876" lon="11.4048435"><ele>271.0</ele><time>2026-04-11T08:00:12.994Z</time></trkpt><trkpt lat="43.4044551" lon="11.4049395"><ele>271.0</ele><time>2026-04-11T08:00:13.994Z</time></trkpt><trkpt lat="43.4043142" lon="11.4050764"><ele>269.3333333333333</ele><time>2026-04-11T08:00:14.994Z</time></trkpt><trkpt lat="43.4041572" lon="11.4052109"><ele>267.6666666666667</ele><time>2026-04-11T08:00:15.995Z</time></trkpt><trkpt lat="43.4039754" lon="11.4053266"><ele>266.0</ele><time>2026-04-11T08:00:16.995Z</time></trkpt><trkpt lat="43.4037728" lon="11.4054293"><ele>268.6666666666667</ele><time>2026-04-11T08:00:17.994Z</time></trkpt><trkpt lat="43.4035668" lon="11.4055012"><ele>271.3333333333333</ele><time>2026-04-11T08:00:18.995Z</time></trkpt><trkpt lat="43.4033633" lon="11.4055675"><ele>274.0</ele><time>2026-04-11T08:00:19.994Z</time></trkpt><trkpt lat="43.4031675" lon="11.4056364"><ele>270.66666666666663</ele><time>2026-04-11T08:00:20.994Z</time></trkpt><trkpt lat="43.4029816" lon="11.4057149"><ele>267.3333333333333</ele><time>2026-04-11T08:00:21.995Z</time></trkpt><trkpt lat="43.402814" lon="11.4057986"><ele>264.0</ele><time>2026-04-11T08:00:22.994Z</time></trkpt><trkpt lat="43.4026523" lon="11.4058977"><ele>264.0</ele><time>2026-04-11T08:00:23.995Z</time></trkpt><trkpt lat="43.4025081" lon="11.4060219"><ele>264.0</ele><time>2026-04-11T08:00:24.994Z</time></trkpt><trkpt lat="43.4023729" lon="11.4061452"><ele>264.0</ele><time>2026-04-11T08:00:25.995Z</time></trkpt><trkpt lat="43.4022381" lon="11.4062393"><ele>263.25</ele><time>2026-04-11T08:00:26.995Z</time></trkpt><trkpt lat="43.4021021" lon="11.4062833"><ele>262.5</ele><time>2026-04-11T08:00:27.995Z</time></trkpt><trkpt lat="43.4019701" lon="11.4062769"><ele>261.75</ele><time>2026-04-11T08:00:28.994Z</time></trkpt><trkpt lat="43.4018407" lon="11.4061673"><ele>261.0</ele><time>2026-04-11T08:00:29.994Z</time></trkpt><trkpt lat="43.4016756" lon="11.4060071"><ele>261.0</ele><time>2026-04-11T08:00:30.994Z</time></trkpt><trkpt lat="43.4014935" lon="11.4058316"><ele>261.0</ele><time>2026-04-11T08:00:31.995Z</time></trkpt><trkpt lat="43.4013178" lon="11.4056822"><ele>261.0</ele><time>2026-04-11T08:00:32.995Z</time></trkpt><trkpt lat="43.4011423" lon="11.4055451"><ele>261.3333333333333</ele><time>2026-04-11T08:00:33.995Z</time></trkpt><trkpt lat="43.4009682" lon="11.4054096"><ele>261.66666666666663</ele><time>2026-04-11T08:00:34.994Z</time></trkpt><trkpt lat="43.4007933" lon="11.4052765"><ele>262.0</ele><time>2026-04-11T08:00:35.994Z</time></trkpt><trkpt lat="43.4006159" lon="11.4051472"><ele>267.0</ele><time>2026-04-11T08:00:36.995Z</time></trkpt><trkpt lat="43.4004445" lon="11.4050219"><ele>272.0</ele><time>2026-04-11T08:00:37.994Z</time></trkpt><trkpt lat="43.4002804" lon="11.4049015"><ele>277.0</ele><time>2026-04-11T08:00:38.995Z</time></trkpt><trkpt lat="43.4001406" lon="11.4047792"><ele>272.3333333333333</ele><time>2026-04-11T08:00:39.995Z</time></trkpt><trkpt lat="43.400019" lon="11.4046395"><ele>267.6666666666667</ele><time>2026-04-11T08:00:40.994Z</time></trkpt><trkpt lat="43.3999124" lon="11.4044573"><ele>263.0</ele><time>2026-04-11T08:00:41.995Z</time></trkpt><trkpt lat="43.3998121" lon="11.404253"><ele>263.0</ele><time>2026-04-11T08:00:42.995Z</time></trkpt><trkpt lat="43.399714" lon="11.4040276"><ele>263.0</ele><time>2026-04-11T08:00:43.994Z</time></trkpt><trkpt lat="43.3996149" lon="11.403815"><ele>263.0</ele><time>2026-04-11T08:00:44.995Z</time></trkpt><trkpt lat="43.3995154" lon="11.403647"><ele>263.33333333333337</ele><time>2026-04-11T08:00:45.994Z</time></trkpt><trkpt lat="43.3993914" lon="11.4035043"><ele>263.6666666666667</ele><time>2026-04-11T08:00:46.994Z</time></trkpt><trkpt lat="43.3992449" lon="11.4033867"><ele>264.0</ele><time>2026-04-11T08:00:47.995Z</time></trkpt><trkpt lat="43.399068" lon="11.4032798"><ele>264.0</ele><time>2026-04-11T08:00:48.994Z</time></trkpt><trkpt lat="43.3988698" lon="11.4031908"><ele>264.0</ele><time>2026-04-11T08:00:49.995Z</time></trkpt><trkpt lat="43.3986702" lon="11.4031352"><ele>264.0</ele><time>2026-04-11T08:00:50.994Z</time></trkpt><trkpt lat="43.3985019" lon="11.4030849"><ele>264.0</ele><time>2026-04-11T08:00:51.994Z</time></trkpt><trkpt lat="43.3983557" lon="11.4030457"><ele>264.0</ele><time>2026-04-11T08:00:52.995Z</time></trkpt><trkpt lat="43.3982207" lon="11.4030381"><ele>264.0</ele><time>2026-04-11T08:00:53.994Z</time></trkpt><trkpt lat="43.398071" lon="11.403091"><ele>264.0</ele><time>2026-04-11T08:00:54.994Z</time></trkpt><trkpt lat="43.3979182" lon="11.4032096"><ele>261.6666666666667</ele><time>2026-04-11T08:00:55.996Z</time></trkpt><trkpt lat="43.3977748" lon="11.4033856"><ele>259.33333333333337</ele><time>2026-04-11T08:00:56.995Z</time></trkpt><trkpt lat="43.3976425" lon="11.4035819"><ele>257.0</ele><time>2026-04-11T08:00:57.996Z</time></trkpt><trkpt lat="43.3975077" lon="11.4037668"><ele>257.0</ele><time>2026-04-11T08:00:58.996Z</time></trkpt><trkpt lat="43.3973625" lon="11.403946"><ele>257.0</ele><time>2026-04-11T08:00:59.995Z</time></trkpt><trkpt lat="43.3972112" lon="11.4041335"><ele>257.0</ele><time>2026-04-11T08:01:00.996Z</time></trkpt><trkpt lat="43.3970667" lon="11.4043238"><ele>257.0</ele><time>2026-04-11T08:01:01.995Z</time></trkpt><trkpt lat="43.3969234" lon="11.4045215"><ele>257.0</ele><time>2026-04-11T08:01:02.995Z</time></trkpt><trkpt lat="43.3967704" lon="11.4047237"><ele>257.0</ele><time>2026-04-11T08:01:03.996Z</time></trkpt><trkpt lat="43.3966155" lon="11.4049309"><ele>258.0</ele><time>2026-04-11T08:01:04.995Z</time></trkpt><trkpt lat="43.3964464" lon="11.405128"><ele>259.0</ele><time>2026-04-11T08:01:05.995Z</time></trkpt><trkpt lat="43.3962756" lon="11.4053141"><ele>260.0</ele><time>2026-04-11T08:01:06.996Z</time></trkpt><trkpt lat="43.3961069" lon="11.4055019"><ele>260.0</ele><time>2026-04-11T08:01:07.996Z</time></trkpt><trkpt lat="43.3959455" lon="11.4056927"><ele>260.0</ele><time>2026-04-11T08:01:08.995Z</time></trkpt><trkpt lat="43.3957909" lon="11.405873"><ele>260.0</ele><time>2026-04-11T08:01:09.995Z</time></trkpt><trkpt lat="43.3956405" lon="11.4060433"><ele>259.0</ele><time>2026-04-11T08:01:10.995Z</time></trkpt><trkpt lat="43.3954852" lon="11.4062131"><ele>258.0</ele><time>2026-04-11T08:01:11.996Z</time></trkpt><trkpt lat="43.3953233" lon="11.4063883"><ele>257.0</ele><time>2026-04-11T08:01:12.996Z</time></trkpt><trkpt lat="43.3951719" lon="11.406576"><ele>257.0</ele><time>2026-04-11T08:01:13.995Z</time></trkpt><trkpt lat="43.3950393" lon="11.406761"><ele>257.0</ele><time>2026-04-11T08:01:14.995Z</time></trkpt><trkpt lat="43.3949122" lon="11.4069513"><ele>257.0</ele><time>2026-04-11T08:01:15.996Z</time></trkpt><trkpt lat="43.394788" lon="11.4071588"><ele>258.0</ele><time>2026-04-11T08:01:16.996Z</time></trkpt><trkpt lat="43.3946753" lon="11.4073791"><ele>259.0</ele><time>2026-04-11T08:01:17.995Z</time></trkpt><trkpt lat="43.3945799" lon="11.4076186"><ele>260.0</ele><time>2026-04-11T08:01:18.996Z</time></trkpt><trkpt lat="43.3944876" lon="11.4078589"><ele>258.33333333333337</ele><time>2026-04-11T08:01:19.995Z</time></trkpt><trkpt lat="43.3943945" lon="11.4080982"><ele>256.6666666666667</ele><time>2026-04-11T08:01:20.995Z</time></trkpt><trkpt lat="43.3942953" lon="11.4083288"><ele>255.0</ele><time>2026-04-11T08:01:21.995Z</time></trkpt><trkpt lat="43.3941942" lon="11.4085522"><ele>255.0</ele><time>2026-04-11T08:01:22.995Z</time></trkpt><trkpt lat="43.3940881" lon="11.4087806"><ele>255.0</ele><time>2026-04-11T08:01:23.996Z</time></trkpt><trkpt lat="43.3939807" lon="11.409013"><ele>255.0</ele><time>2026-04-11T08:01:24.995Z</time></trkpt><trkpt lat="43.3938867" lon="11.4092386"><ele>253.66666666666669</ele><time>2026-04-11T08:01:25.996Z</time></trkpt><trkpt lat="43.39381" lon="11.4094658"><ele>252.33333333333334</ele><time>2026-04-11T08:01:26.996Z</time></trkpt><trkpt lat="43.393745" lon="11.4097034"><ele>251.0</ele><time>2026-04-11T08:01:27.996Z</time></trkpt><trkpt lat="43.3936896" lon="11.4099401"><ele>251.0</ele><time>2026-04-11T08:01:28.996Z</time></trkpt><trkpt lat="43.3936356" lon="11.4101611"><ele>251.0</ele><time>2026-04-11T08:01:29.995Z</time></trkpt><trkpt lat="43.3935867" lon="11.4103696"><ele>251.0</ele><time>2026-04-11T08:01:30.995Z</time></trkpt><trkpt lat="43.3935398" lon="11.4105701"><ele>252.33333333333334</ele><time>2026-04-11T08:01:31.995Z</time></trkpt><trkpt lat="43.3934833" lon="11.4107669"><ele>253.66666666666669</ele><time>2026-04-11T08:01:32.995Z</time></trkpt><trkpt lat="43.3934004" lon="11.4109529"><ele>255.0</ele><time>2026-04-11T08:01:33.996Z</time></trkpt><trkpt lat="43.3932944" lon="11.4111454"><ele>256.0</ele><time>2026-04-11T08:01:34.995Z</time></trkpt><trkpt lat="43.3931746" lon="11.411347"><ele>257.0</ele><time>2026-04-11T08:01:35.996Z</time></trkpt><trkpt lat="43.3930639" lon="11.411554"><ele>258.0</ele><time>2026-04-11T08:01:36.996Z</time></trkpt><trkpt lat="43.3929591" lon="11.411766"><ele>256.3333333333333</ele><time>2026-04-11T08:01:37.996Z</time></trkpt><trkpt lat="43.3928615" lon="11.4119818"><ele>254.66666666666666</ele><time>2026-04-11T08:01:38.996Z</time></trkpt><trkpt lat="43.3927654" lon="11.412203"><ele>253.0</ele><time>2026-04-11T08:01:39.996Z</time></trkpt><trkpt lat="43.3926679" lon="11.4124184"><ele>253.0</ele><time>2026-04-11T08:01:40.995Z</time></trkpt><trkpt lat="43.3925716" lon="11.4126237"><ele>253.0</ele><time>2026-04-11T08:01:41.996Z</time></trkpt><trkpt lat="43.3924845" lon="11.4128182"><ele>253.0</ele><time>2026-04-11T08:01:42.996Z</time></trkpt><trkpt lat="43.3924057" lon="11.4130017"><ele>253.5</ele><time>2026-04-11T08:01:43.996Z</time></trkpt><trkpt lat="43.3923306" lon="11.4131795"><ele>254.0</ele><time>2026-04-11T08:01:44.996Z</time></trkpt><trkpt lat="43.3922392" lon="11.4133345"><ele>254.5</ele><time>2026-04-11T08:01:45.995Z</time></trkpt><trkpt lat="43.3921396" lon="11.4134663"><ele>255.0</ele><time>2026-04-11T08:01:46.995Z</time></trkpt><trkpt lat="43.3920378" lon="11.4135761"><ele>255.25</ele><time>2026-04-11T08:01:47.995Z</time></trkpt><trkpt lat="43.3919267" lon="11.4136736"><ele>255.5</ele><time>2026-04-11T08:01:48.996Z</time></trkpt><trkpt lat="43.391808" lon="11.4137646"><ele>255.75</ele><time>2026-04-11T08:01:49.995Z</time></trkpt><trkpt lat="43.391679" lon="11.4138561"><ele>256.0</ele><time>2026-04-11T08:01:50.996Z</time></trkpt><trkpt lat="43.3915456" lon="11.4139455"><ele>256.3333333333333</ele><time>2026-04-11T08:01:51.995Z</time></trkpt><trkpt lat="43.3914075" lon="11.4140267"><ele>256.6666666666667</ele><time>2026-04-11T08:01:52.996Z</time></trkpt><trkpt lat="43.3912635" lon="11.4140937"><ele>257.0</ele><time>2026-04-11T08:01:53.995Z</time></trkpt><trkpt lat="43.3911132" lon="11.414148"><ele>257.0</ele><time>2026-04-11T08:01:54.996Z</time></trkpt><trkpt lat="43.3909897" lon="11.4141548"><ele>257.0</ele><time>2026-04-11T08:01:55.996Z</time></trkpt><trkpt lat="43.3908747" lon="11.4141501"><ele>257.0</ele><time>2026-04-11T08:01:56.996Z</time></trkpt><trkpt lat="43.39079" lon="11.4141411"><ele>257.0</ele><time>2026-04-11T08:01:57.996Z</time></trkpt><trkpt lat="43.390708" lon="11.4141537"><ele>257.0</ele><time>2026-04-11T08:01:59.997Z</time></trkpt><trkpt lat="43.3907011" lon="11.414245"><ele>257.0</ele><time>2026-04-11T08:02:01.996Z</time></trkpt><trkpt lat="43.3907711" lon="11.4143299"><ele>257.0</ele><time>2026-04-11T08:02:03.996Z</time></trkpt><trkpt lat="43.3908491" lon="11.4143336"><ele>257.0</ele><time>2026-04-11T08:02:04.997Z</time></trkpt><trkpt lat="43.39095" lon="11.414345"><ele>257.0</ele><time>2026-04-11T08:02:05.997Z</time></trkpt><trkpt lat="43.3910598" lon="11.4143806"><ele>257.0</ele><time>2026-04-11T08:02:06.997Z</time></trkpt><trkpt lat="43.3911885" lon="11.4144389"><ele>257.0</ele><time>2026-04-11T08:02:07.997Z</time></trkpt><trkpt lat="43.3913132" lon="11.4144953"><ele>257.0</ele><time>2026-04-11T08:02:08.997Z</time></trkpt><trkpt lat="43.3914315" lon="11.4145485"><ele>257.0</ele><time>2026-04-11T08:02:09.996Z</time></trkpt><trkpt lat="43.3915441" lon="11.4145998"><ele>257.0</ele><time>2026-04-11T08:02:10.997Z</time></trkpt><trkpt lat="43.391643" lon="11.4146505"><ele>261.75</ele><time>2026-04-11T08:02:11.996Z</time></trkpt><trkpt lat="43.3917328" lon="11.414703"><ele>266.5</ele><time>2026-04-11T08:02:12.997Z</time></trkpt><trkpt lat="43.3918474" lon="11.4147637"><ele>271.25</ele><time>2026-04-11T08:02:13.997Z</time></trkpt><trkpt lat="43.3919708" lon="11.4148081"><ele>276.0</ele><time>2026-04-11T08:02:14.997Z</time></trkpt><trkpt lat="43.3920913" lon="11.4148117"><ele>275.6</ele><time>2026-04-11T08:02:15.996Z</time></trkpt><trkpt lat="43.3922081" lon="11.4147998"><ele>275.20000000000005</ele><time>2026-04-11T08:02:16.996Z</time></trkpt><trkpt lat="43.3923053" lon="11.4148064"><ele>274.79999999999995</ele><time>2026-04-11T08:02:17.997Z</time></trkpt><trkpt lat="43.3924104" lon="11.4148621"><ele>274.4</ele><time>2026-04-11T08:02:18.996Z</time></trkpt><trkpt lat="43.3925024" lon="11.4149429"><ele>274.0</ele><time>2026-04-11T08:02:19.997Z</time></trkpt><trkpt lat="43.3925864" lon="11.4150694"><ele>274.0</ele><time>2026-04-11T08:02:20.997Z</time></trkpt><trkpt lat="43.392663" lon="11.41524"><ele>274.0</ele><time>2026-04-11T08:02:21.997Z</time></trkpt><trkpt lat="43.3927467" lon="11.415437"><ele>274.0</ele><time>2026-04-11T08:02:22.996Z</time></trkpt><trkpt lat="43.3928311" lon="11.4156464"><ele>274.3333333333333</ele><time>2026-04-11T08:02:23.997Z</time></trkpt><trkpt lat="43.3929189" lon="11.4158742"><ele>274.6666666666667</ele><time>2026-04-11T08:02:24.997Z</time></trkpt><trkpt lat="43.3930143" lon="11.4160923"><ele>275.0</ele><time>2026-04-11T08:02:25.996Z</time></trkpt><trkpt lat="43.3931214" lon="11.4163036"><ele>282.6666666666667</ele><time>2026-04-11T08:02:26.996Z</time></trkpt><trkpt lat="43.393232" lon="11.4164902"><ele>290.3333333333333</ele><time>2026-04-11T08:02:27.996Z</time></trkpt><trkpt lat="43.3933615" lon="11.4166564"><ele>298.0</ele><time>2026-04-11T08:02:28.996Z</time></trkpt><trkpt lat="43.3935035" lon="11.4167924"><ele>298.0</ele><time>2026-04-11T08:02:29.997Z</time></trkpt><trkpt lat="43.3936541" lon="11.4169164"><ele>298.0</ele><time>2026-04-11T08:02:30.996Z</time></trkpt><trkpt lat="43.3937995" lon="11.417044"><ele>298.0</ele><time>2026-04-11T08:02:31.996Z</time></trkpt><trkpt lat="43.3939455" lon="11.4171827"><ele>299.3333333333333</ele><time>2026-04-11T08:02:32.997Z</time></trkpt><trkpt lat="43.3940872" lon="11.4173255"><ele>300.6666666666667</ele><time>2026-04-11T08:02:33.996Z</time></trkpt><trkpt lat="43.3942229" lon="11.4174626"><ele>302.0</ele><time>2026-04-11T08:02:34.996Z</time></trkpt><trkpt lat="43.3943586" lon="11.417602"><ele>302.0</ele><time>2026-04-11T08:02:35.997Z</time></trkpt><trkpt lat="43.3944829" lon="11.4177464"><ele>302.0</ele><time>2026-04-11T08:02:36.997Z</time></trkpt><trkpt lat="43.3945942" lon="11.4179043"><ele>302.0</ele><time>2026-04-11T08:02:37.996Z</time></trkpt><trkpt lat="43.3946751" lon="11.4180795"><ele>302.0</ele><time>2026-04-11T08:02:38.996Z</time></trkpt><trkpt lat="43.3947462" lon="11.4182766"><ele>302.0</ele><time>2026-04-11T08:02:39.996Z</time></trkpt><trkpt lat="43.3948131" lon="11.4184505"><ele>302.0</ele><time>2026-04-11T08:02:40.997Z</time></trkpt><trkpt lat="43.3948817" lon="11.4185902"><ele>302.0</ele><time>2026-04-11T08:02:41.997Z</time></trkpt><trkpt lat="43.3949778" lon="11.4186963"><ele>302.0</ele><time>2026-04-11T08:02:42.997Z</time></trkpt><trkpt lat="43.3951005" lon="11.4187842"><ele>302.0</ele><time>2026-04-11T08:02:43.997Z</time></trkpt><trkpt lat="43.3952505" lon="11.4188694"><ele>302.0</ele><time>2026-04-11T08:02:44.997Z</time></trkpt><trkpt lat="43.3953948" lon="11.4189554"><ele>304.6666666666667</ele><time>2026-04-11T08:02:45.996Z</time></trkpt><trkpt lat="43.395535" lon="11.4190476"><ele>307.3333333333333</ele><time>2026-04-11T08:02:46.997Z</time></trkpt><trkpt lat="43.3956681" lon="11.4191439"><ele>310.0</ele><time>2026-04-11T08:02:47.997Z</time></trkpt><trkpt lat="43.3958064" lon="11.4192486"><ele>310.0</ele><time>2026-04-11T08:02:48.996Z</time></trkpt><trkpt lat="43.3959414" lon="11.4193592"><ele>310.0</ele><time>2026-04-11T08:02:49.996Z</time></trkpt><trkpt lat="43.3960695" lon="11.4194762"><ele>310.0</ele><time>2026-04-11T08:02:50.996Z</time></trkpt><trkpt lat="43.3961826" lon="11.4195915"><ele>313.0</ele><time>2026-04-11T08:02:51.997Z</time></trkpt><trkpt lat="43.3962983" lon="11.4196882"><ele>316.0</ele><time>2026-04-11T08:02:52.997Z</time></trkpt><trkpt lat="43.3964194" lon="11.4197746"><ele>319.0</ele><time>2026-04-11T08:02:53.996Z</time></trkpt><trkpt lat="43.3965317" lon="11.4198509"><ele>322.0</ele><time>2026-04-11T08:02:54.997Z</time></trkpt><trkpt lat="43.3966314" lon="11.4199196"><ele>322.20000000000005</ele><time>2026-04-11T08:02:55.997Z</time></trkpt><trkpt lat="43.3967138" lon="11.4199705"><ele>322.4</ele><time>2026-04-11T08:02:56.997Z</time></trkpt><trkpt lat="43.3967779" lon="11.4200028"><ele>322.6</ele><time>2026-04-11T08:02:57.997Z</time></trkpt><trkpt lat="43.396856" lon="11.4200572"><ele>322.79999999999995</ele><time>2026-04-11T08:02:59.997Z</time></trkpt><trkpt lat="43.3968033" lon="11.4201689"><ele>323.0</ele><time>2026-04-11T08:03:01.997Z</time></trkpt><trkpt lat="43.396692" lon="11.4201925"><ele>323.0</ele><time>2026-04-11T08:03:03.997Z</time></trkpt><trkpt lat="43.3966102" lon="11.4200973"><ele>323.0</ele><time>2026-04-11T08:03:05.998Z</time></trkpt><trkpt lat="43.3965546" lon="11.420033"><ele>323.0</ele><time>2026-04-11T08:03:07.997Z</time></trkpt><trkpt lat="43.3964946" lon="11.4199876"><ele>323.0</ele><time>2026-04-11T08:03:11.997Z</time></trkpt><trkpt lat="43.3964164" lon="11.4199196"><ele>323.0</ele><time>2026-04-11T08:03:52.997Z</time></trkpt><trkpt lat="43.3963521" lon="11.4198825"><ele>323.0</ele><time>2026-04-11T08:03:53.997Z</time></trkpt><trkpt lat="43.3962681" lon="11.4198283"><ele>322.83333333333337</ele><time>2026-04-11T08:03:54.998Z</time></trkpt><trkpt lat="43.3961934" lon="11.4197813"><ele>322.6666666666667</ele><time>2026-04-11T08:03:55.998Z</time></trkpt><trkpt lat="43.3961233" lon="11.4197312"><ele>322.5</ele><time>2026-04-11T08:03:56.997Z</time></trkpt><trkpt lat="43.39605" lon="11.4196707"><ele>322.3333333333333</ele><time>2026-04-11T08:03:57.998Z</time></trkpt><trkpt lat="43.3959717" lon="11.4196104"><ele>322.16666666666663</ele><time>2026-04-11T08:03:58.998Z</time></trkpt><trkpt lat="43.3958918" lon="11.4195439"><ele>322.0</ele><time>2026-04-11T08:03:59.997Z</time></trkpt><trkpt lat="43.3958138" lon="11.4194765"><ele>321.0</ele><time>2026-04-11T08:04:00.998Z</time></trkpt><trkpt lat="43.3957344" lon="11.4194024"><ele>320.0</ele><time>2026-04-11T08:04:01.998Z</time></trkpt><trkpt lat="43.3956583" lon="11.4193428"><ele>319.0</ele><time>2026-04-11T08:04:02.999Z</time></trkpt><trkpt lat="43.3955808" lon="11.4192895"><ele>318.0</ele><time>2026-04-11T08:04:03.998Z</time></trkpt><trkpt lat="43.3955119" lon="11.4192495"><ele>317.0</ele><time>2026-04-11T08:04:04.999Z</time></trkpt><trkpt lat="43.3954443" lon="11.4192295"><ele>316.0</ele><time>2026-04-11T08:04:05.998Z</time></trkpt><trkpt lat="43.3953184" lon="11.4192441"><ele>316.0</ele><time>2026-04-11T08:04:07.998Z</time></trkpt><trkpt lat="43.3952597" lon="11.4192808"><ele>316.0</ele><time>2026-04-11T08:04:08.998Z</time></trkpt><trkpt lat="43.3951959" lon="11.4193451"><ele>316.0</ele><time>2026-04-11T08:04:09.998Z</time></trkpt><trkpt lat="43.3951319" lon="11.4194359"><ele>316.0</ele><time>2026-04-11T08:04:10.999Z</time></trkpt><trkpt lat="43.3950686" lon="11.4195427"><ele>316.0</ele><time>2026-04-11T08:04:11.999Z</time></trkpt><trkpt lat="43.3950029" lon="11.4196536"><ele>316.0</ele><time>2026-04-11T08:04:12.999Z</time></trkpt><trkpt lat="43.3949427" lon="11.4197607"><ele>316.8333333333333</ele><time>2026-04-11T08:04:13.999Z</time></trkpt><trkpt lat="43.3948848" lon="11.4198619"><ele>317.66666666666663</ele><time>2026-04-11T08:04:14.998Z</time></trkpt><trkpt lat="43.3948312" lon="11.419957"><ele>318.5</ele><time>2026-04-11T08:04:15.999Z</time></trkpt><trkpt lat="43.3947816" lon="11.4200371"><ele>319.3333333333333</ele><time>2026-04-11T08:04:16.998Z</time></trkpt><trkpt lat="43.3947226" lon="11.4200959"><ele>320.1666666666667</ele><time>2026-04-11T08:04:17.999Z</time></trkpt><trkpt lat="43.3946529" lon="11.4201351"><ele>321.0</ele><time>2026-04-11T08:04:18.999Z</time></trkpt><trkpt lat="43.3945751" lon="11.4201523"><ele>321.6</ele><time>2026-04-11T08:04:19.998Z</time></trkpt><trkpt lat="43.3944894" lon="11.4201514"><ele>322.20000000000005</ele><time>2026-04-11T08:04:20.998Z</time></trkpt><trkpt lat="43.3943908" lon="11.4201681"><ele>322.79999999999995</ele><time>2026-04-11T08:04:21.999Z</time></trkpt><trkpt lat="43.3942875" lon="11.4201926"><ele>323.4</ele><time>2026-04-11T08:04:22.998Z</time></trkpt><trkpt lat="43.3941771" lon="11.4202316"><ele>324.0</ele><time>2026-04-11T08:04:23.998Z</time></trkpt><trkpt lat="43.3940675" lon="11.4202711"><ele>324.0</ele><time>2026-04-11T08:04:24.999Z</time></trkpt><trkpt lat="43.3939617" lon="11.4203142"><ele>324.0</ele><time>2026-04-11T08:04:25.998Z</time></trkpt><trkpt lat="43.3938738" lon="11.4203544"><ele>324.0</ele><time>2026-04-11T08:04:26.998Z</time></trkpt><trkpt lat="43.3938084" lon="11.4203957"><ele>324.0</ele><time>2026-04-11T08:04:27.999Z</time></trkpt><trkpt lat="43.3937229" lon="11.4204941"><ele>324.0</ele><time>2026-04-11T08:04:29.999Z</time></trkpt><trkpt lat="43.3936728" lon="11.4206638"><ele>324.2</ele><time>2026-04-11T08:04:31.998Z</time></trkpt><trkpt lat="43.3936593" lon="11.4207794"><ele>324.4</ele><time>2026-04-11T08:04:32.998Z</time></trkpt><trkpt lat="43.3936485" lon="11.4209148"><ele>324.6</ele><time>2026-04-11T08:04:33.998Z</time></trkpt><trkpt lat="43.3936395" lon="11.4210584"><ele>324.8</ele><time>2026-04-11T08:04:34.999Z</time></trkpt><trkpt lat="43.3936264" lon="11.4212082"><ele>325.0</ele><time>2026-04-11T08:04:35.998Z</time></trkpt><trkpt lat="43.3936153" lon="11.4213579"><ele>325.0</ele><time>2026-04-11T08:04:36.998Z</time></trkpt><trkpt lat="43.3936028" lon="11.4215272"><ele>325.0</ele><time>2026-04-11T08:04:37.998Z</time></trkpt><trkpt lat="43.393582" lon="11.4216886"><ele>325.0</ele><time>2026-04-11T08:04:38.999Z</time></trkpt><trkpt lat="43.3935631" lon="11.4218345"><ele>325.0</ele><time>2026-04-11T08:04:39.998Z</time></trkpt><trkpt lat="43.3935426" lon="11.421982"><ele>325.0</ele><time>2026-04-11T08:04:40.998Z</time></trkpt><trkpt lat="43.3935182" lon="11.4221199"><ele>325.0</ele><time>2026-04-11T08:04:41.999Z</time></trkpt><trkpt lat="43.393482" lon="11.4222551"><ele>325.0</ele><time>2026-04-11T08:04:42.999Z</time></trkpt><trkpt lat="43.3934301" lon="11.422382"><ele>325.0</ele><time>2026-04-11T08:04:43.998Z</time></trkpt><trkpt lat="43.3933677" lon="11.422497"><ele>325.0</ele><time>2026-04-11T08:04:44.998Z</time></trkpt><trkpt lat="43.3933009" lon="11.4225964"><ele>325.8</ele><time>2026-04-11T08:04:45.999Z</time></trkpt><trkpt lat="43.3932254" lon="11.4226737"><ele>326.6</ele><time>2026-04-11T08:04:46.998Z</time></trkpt><trkpt lat="43.3931422" lon="11.4227325"><ele>327.4</ele><time>2026-04-11T08:04:47.998Z</time></trkpt><trkpt lat="43.393047" lon="11.4227695"><ele>328.2</ele><time>2026-04-11T08:04:48.998Z</time></trkpt><trkpt lat="43.3929448" lon="11.4227816"><ele>329.0</ele><time>2026-04-11T08:04:49.999Z</time></trkpt><trkpt lat="43.3928372" lon="11.4227681"><ele>329.0</ele><time>2026-04-11T08:04:50.998Z</time></trkpt><trkpt lat="43.3927368" lon="11.4227392"><ele>329.0</ele><time>2026-04-11T08:04:51.999Z</time></trkpt><trkpt lat="43.3926417" lon="11.4227204"><ele>329.0</ele><time>2026-04-11T08:04:52.998Z</time></trkpt><trkpt lat="43.3925606" lon="11.4227218"><ele>329.0</ele><time>2026-04-11T08:04:53.998Z</time></trkpt><trkpt lat="43.3924978" lon="11.4227283"><ele>329.0</ele><time>2026-04-11T08:04:54.998Z</time></trkpt><trkpt lat="43.3923843" lon="11.4227836"><ele>329.0</ele><time>2026-04-11T08:04:56.999Z</time></trkpt><trkpt lat="43.3923301" lon="11.4228379"><ele>329.0</ele><time>2026-04-11T08:04:57.998Z</time></trkpt><trkpt lat="43.3922743" lon="11.4229067"><ele>329.0</ele><time>2026-04-11T08:04:58.998Z</time></trkpt><trkpt lat="43.3922162" lon="11.4229817"><ele>329.0</ele><time>2026-04-11T08:04:59.999Z</time></trkpt><trkpt lat="43.392154" lon="11.42306"><ele>329.0</ele><time>2026-04-11T08:05:00.998Z</time></trkpt><trkpt lat="43.3920871" lon="11.4231405"><ele>329.0</ele><time>2026-04-11T08:05:01.999Z</time></trkpt><trkpt lat="43.3920267" lon="11.4232249"><ele>329.1666666666667</ele><time>2026-04-11T08:05:02.998Z</time></trkpt><trkpt lat="43.3919849" lon="11.4233048"><ele>329.33333333333337</ele><time>2026-04-11T08:05:03.998Z</time></trkpt><trkpt lat="43.3919555" lon="11.423405"><ele>329.5</ele><time>2026-04-11T08:05:05Z</time></trkpt><trkpt lat="43.3919326" lon="11.4235197"><ele>329.6666666666667</ele><time>2026-04-11T08:05:05.999Z</time></trkpt><trkpt lat="43.3919121" lon="11.4236472"><ele>329.8333333333333</ele><time>2026-04-11T08:05:07Z</time></trkpt><trkpt lat="43.3918908" lon="11.4237842"><ele>330.0</ele><time>2026-04-11T08:05:07.999Z</time></trkpt><trkpt lat="43.3918677" lon="11.4239262"><ele>330.0</ele><time>2026-04-11T08:05:08.999Z</time></trkpt><trkpt lat="43.3918449" lon="11.4240684"><ele>330.0</ele><time>2026-04-11T08:05:10Z</time></trkpt><trkpt lat="43.3918222" lon="11.4242015"><ele>330.0</ele><time>2026-04-11T08:05:10.999Z</time></trkpt><trkpt lat="43.3918052" lon="11.4243274"><ele>330.0</ele><time>2026-04-11T08:05:11.999Z</time></trkpt><trkpt lat="43.3917893" lon="11.4244523"><ele>330.0</ele><time>2026-04-11T08:05:13Z</time></trkpt><trkpt lat="43.3917727" lon="11.4245684"><ele>330.0</ele><time>2026-04-11T08:05:13.999Z</time></trkpt><trkpt lat="43.3917489" lon="11.4246768"><ele>330.0</ele><time>2026-04-11T08:05:14.999Z</time></trkpt><trkpt lat="43.3917115" lon="11.4247827"><ele>330.0</ele><time>2026-04-11T08:05:15.999Z</time></trkpt><trkpt lat="43.3916641" lon="11.4248745"><ele>330.0</ele><time>2026-04-11T08:05:17Z</time></trkpt><trkpt lat="43.3916056" lon="11.4249452"><ele>330.0</ele><time>2026-04-11T08:05:18Z</time></trkpt><trkpt lat="43.3915401" lon="11.4249983"><ele>330.0</ele><time>2026-04-11T08:05:18.999Z</time></trkpt><trkpt lat="43.3914637" lon="11.4250361"><ele>330.0</ele><time>2026-04-11T08:05:20Z</time></trkpt><trkpt lat="43.3913775" lon="11.4250672"><ele>330.0</ele><time>2026-04-11T08:05:21Z</time></trkpt><trkpt lat="43.391284" lon="11.425093"><ele>330.0</ele><time>2026-04-11T08:05:21.999Z</time></trkpt><trkpt lat="43.3911913" lon="11.4251237"><ele>330.0</ele><time>2026-04-11T08:05:23Z</time></trkpt><trkpt lat="43.3911125" lon="11.4251677"><ele>330.0</ele><time>2026-04-11T08:05:24Z</time></trkpt><trkpt lat="43.3910466" lon="11.4252407"><ele>330.0</ele><time>2026-04-11T08:05:24.999Z</time></trkpt><trkpt lat="43.3910019" lon="11.4253321"><ele>328.4</ele><time>2026-04-11T08:05:25.999Z</time></trkpt><trkpt lat="43.3909735" lon="11.4254353"><ele>326.8</ele><time>2026-04-11T08:05:26.999Z</time></trkpt><trkpt lat="43.3909509" lon="11.4255437"><ele>325.20000000000005</ele><time>2026-04-11T08:05:28Z</time></trkpt><trkpt lat="43.3909293" lon="11.4256627"><ele>323.6</ele><time>2026-04-11T08:05:28.999Z</time></trkpt><trkpt lat="43.3908992" lon="11.4257879"><ele>322.0</ele><time>2026-04-11T08:05:29.999Z</time></trkpt><trkpt lat="43.3908533" lon="11.4259155"><ele>322.0</ele><time>2026-04-11T08:05:31Z</time></trkpt><trkpt lat="43.390794" lon="11.4260233"><ele>322.0</ele><time>2026-04-11T08:05:31.999Z</time></trkpt><trkpt lat="43.3907361" lon="11.4261224"><ele>322.0</ele><time>2026-04-11T08:05:33Z</time></trkpt><trkpt lat="43.3906919" lon="11.4262157"><ele>322.0</ele><time>2026-04-11T08:05:34Z</time></trkpt><trkpt lat="43.3906715" lon="11.4263028"><ele>322.0</ele><time>2026-04-11T08:05:35Z</time></trkpt><trkpt lat="43.3906956" lon="11.4264544"><ele>321.0</ele><time>2026-04-11T08:05:36.999Z</time></trkpt><trkpt lat="43.3907748" lon="11.4265835"><ele>320.0</ele><time>2026-04-11T08:05:39Z</time></trkpt><trkpt lat="43.3908365" lon="11.4266371"><ele>319.0</ele><time>2026-04-11T08:05:39.999Z</time></trkpt><trkpt lat="43.3909092" lon="11.4266799"><ele>318.0</ele><time>2026-04-11T08:05:41Z</time></trkpt><trkpt lat="43.3909881" lon="11.4267187"><ele>317.0</ele><time>2026-04-11T08:05:41.999Z</time></trkpt><trkpt lat="43.3910576" lon="11.4267539"><ele>316.0</ele><time>2026-04-11T08:05:43Z</time></trkpt><trkpt lat="43.3911402" lon="11.4268368"><ele>316.0</ele><time>2026-04-11T08:05:44.999Z</time></trkpt><trkpt lat="43.3911824" lon="11.4269745"><ele>316.0</ele><time>2026-04-11T08:05:47Z</time></trkpt><trkpt lat="43.3911785" lon="11.4270693"><ele>316.0</ele><time>2026-04-11T08:05:48Z</time></trkpt><trkpt lat="43.391159" lon="11.4271594"><ele>316.0</ele><time>2026-04-11T08:05:48.999Z</time></trkpt><trkpt lat="43.3911199" lon="11.4272313"><ele>316.0</ele><time>2026-04-11T08:05:50Z</time></trkpt><trkpt lat="43.391063" lon="11.4272847"><ele>316.0</ele><time>2026-04-11T08:05:50.999Z</time></trkpt><trkpt lat="43.39099" lon="11.4273331"><ele>315.00000000000006</ele><time>2026-04-11T08:05:51.999Z</time></trkpt><trkpt lat="43.3909169" lon="11.4273845"><ele>314.0</ele><time>2026-04-11T08:05:52.999Z</time></trkpt><trkpt lat="43.3908583" lon="11.4274436"><ele>313.0</ele><time>2026-04-11T08:05:53.999Z</time></trkpt><trkpt lat="43.3908173" lon="11.4275189"><ele>312.0</ele><time>2026-04-11T08:05:55Z</time></trkpt><trkpt lat="43.3907955" lon="11.4276089"><ele>311.0</ele><time>2026-04-11T08:05:55.999Z</time></trkpt><trkpt lat="43.3907869" lon="11.4277138"><ele>310.00000000000006</ele><time>2026-04-11T08:05:57Z</time></trkpt><trkpt lat="43.3907942" lon="11.4278148"><ele>309.0</ele><time>2026-04-11T08:05:57.999Z</time></trkpt><trkpt lat="43.3908059" lon="11.4279121"><ele>307.8571428571429</ele><time>2026-04-11T08:05:59Z</time></trkpt><trkpt lat="43.3908257" lon="11.4280085"><ele>306.7142857142857</ele><time>2026-04-11T08:05:59.999Z</time></trkpt><trkpt lat="43.3908482" lon="11.4281066"><ele>305.57142857142856</ele><time>2026-04-11T08:06:00.999Z</time></trkpt><trkpt lat="43.3908714" lon="11.4282017"><ele>304.42857142857144</ele><time>2026-04-11T08:06:02Z</time></trkpt><trkpt lat="43.3909004" lon="11.4282981"><ele>303.2857142857143</ele><time>2026-04-11T08:06:02.999Z</time></trkpt><trkpt lat="43.3909276" lon="11.4283867"><ele>302.14285714285717</ele><time>2026-04-11T08:06:04Z</time></trkpt><trkpt lat="43.3909632" lon="11.4284845"><ele>301.0</ele><time>2026-04-11T08:06:05Z</time></trkpt><trkpt lat="43.3909987" lon="11.4285809"><ele>301.0</ele><time>2026-04-11T08:06:06Z</time></trkpt><trkpt lat="43.3910391" lon="11.428678"><ele>301.0</ele><time>2026-04-11T08:06:06.999Z</time></trkpt><trkpt lat="43.3910801" lon="11.4287713"><ele>301.0</ele><time>2026-04-11T08:06:08.001Z</time></trkpt><trkpt lat="43.3911235" lon="11.4288592"><ele>301.0</ele><time>2026-04-11T08:06:09Z</time></trkpt><trkpt lat="43.3911711" lon="11.4289393"><ele>301.0</ele><time>2026-04-11T08:06:10.001Z</time></trkpt><trkpt lat="43.3912238" lon="11.4290058"><ele>301.0</ele><time>2026-04-11T08:06:11Z</time></trkpt><trkpt lat="43.3912798" lon="11.4290624"><ele>301.0</ele><time>2026-04-11T08:06:12Z</time></trkpt><trkpt lat="43.3913385" lon="11.4291077"><ele>301.0</ele><time>2026-04-11T08:06:13.001Z</time></trkpt><trkpt lat="43.3913993" lon="11.429151"><ele>301.0</ele><time>2026-04-11T08:06:14Z</time></trkpt><trkpt lat="43.3914651" lon="11.4291989"><ele>301.0</ele><time>2026-04-11T08:06:15Z</time></trkpt><trkpt lat="43.391524" lon="11.4292539"><ele>301.0</ele><time>2026-04-11T08:06:16.001Z</time></trkpt><trkpt lat="43.3915733" lon="11.4293211"><ele>301.0</ele><time>2026-04-11T08:06:17Z</time></trkpt><trkpt lat="43.3916022" lon="11.4293992"><ele>301.0</ele><time>2026-04-11T08:06:18.001Z</time></trkpt><trkpt lat="43.3916037" lon="11.4295115"><ele>300.0</ele><time>2026-04-11T08:06:19Z</time></trkpt><trkpt lat="43.3915898" lon="11.4296424"><ele>299.0</ele><time>2026-04-11T08:06:20.001Z</time></trkpt><trkpt lat="43.3915602" lon="11.4297708"><ele>298.0</ele><time>2026-04-11T08:06:21Z</time></trkpt><trkpt lat="43.391525" lon="11.4298809"><ele>297.0</ele><time>2026-04-11T08:06:22.001Z</time></trkpt><trkpt lat="43.3914797" lon="11.4299805"><ele>296.0</ele><time>2026-04-11T08:06:23.001Z</time></trkpt><trkpt lat="43.3914235" lon="11.4300588"><ele>295.0</ele><time>2026-04-11T08:06:24Z</time></trkpt><trkpt lat="43.3913496" lon="11.4301194"><ele>295.2</ele><time>2026-04-11T08:06:25.001Z</time></trkpt><trkpt lat="43.3912666" lon="11.4301641"><ele>295.4</ele><time>2026-04-11T08:06:26.001Z</time></trkpt><trkpt lat="43.3911832" lon="11.4301915"><ele>295.6</ele><time>2026-04-11T08:06:27Z</time></trkpt><trkpt lat="43.3910941" lon="11.4302042"><ele>295.8</ele><time>2026-04-11T08:06:28Z</time></trkpt><trkpt lat="43.390999" lon="11.4302018"><ele>296.0</ele><time>2026-04-11T08:06:29.001Z</time></trkpt><trkpt lat="43.3908944" lon="11.4301842"><ele>296.0</ele><time>2026-04-11T08:06:30Z</time></trkpt><trkpt lat="43.3907913" lon="11.4301598"><ele>296.0</ele><time>2026-04-11T08:06:31.001Z</time></trkpt><trkpt lat="43.3906958" lon="11.4301351"><ele>296.0</ele><time>2026-04-11T08:06:32Z</time></trkpt><trkpt lat="43.3906036" lon="11.4301061"><ele>296.0</ele><time>2026-04-11T08:06:33Z</time></trkpt><trkpt lat="43.3905108" lon="11.4300573"><ele>296.0</ele><time>2026-04-11T08:06:34.001Z</time></trkpt><trkpt lat="43.3904132" lon="11.4299891"><ele>298.75</ele><time>2026-04-11T08:06:35Z</time></trkpt><trkpt lat="43.3903163" lon="11.4299129"><ele>301.5</ele><time>2026-04-11T08:06:36.001Z</time></trkpt><trkpt lat="43.3902146" lon="11.4298358"><ele>304.25</ele><time>2026-04-11T08:06:37.001Z</time></trkpt><trkpt lat="43.3901135" lon="11.42976"><ele>307.0</ele><time>2026-04-11T08:06:38.001Z</time></trkpt><trkpt lat="43.3900209" lon="11.4296847"><ele>307.8</ele><time>2026-04-11T08:06:39Z</time></trkpt><trkpt lat="43.3899386" lon="11.4296196"><ele>308.6</ele><time>2026-04-11T08:06:40Z</time></trkpt><trkpt lat="43.3898678" lon="11.4295555"><ele>309.40000000000003</ele><time>2026-04-11T08:06:41Z</time></trkpt><trkpt lat="43.3897911" lon="11.4294755"><ele>310.2</ele><time>2026-04-11T08:06:42Z</time></trkpt><trkpt lat="43.3897182" lon="11.4293898"><ele>311.0</ele><time>2026-04-11T08:06:43Z</time></trkpt><trkpt lat="43.389649" lon="11.4292949"><ele>311.0</ele><time>2026-04-11T08:06:44.001Z</time></trkpt><trkpt lat="43.3895793" lon="11.4291879"><ele>311.0</ele><time>2026-04-11T08:06:45.001Z</time></trkpt><trkpt lat="43.3895108" lon="11.4290764"><ele>311.0</ele><time>2026-04-11T08:06:46Z</time></trkpt><trkpt lat="43.3894422" lon="11.4289619"><ele>311.0</ele><time>2026-04-11T08:06:47Z</time></trkpt><trkpt lat="43.3893747" lon="11.4288516"><ele>311.0</ele><time>2026-04-11T08:06:48Z</time></trkpt><trkpt lat="43.3893096" lon="11.4287596"><ele>309.33333333333337</ele><time>2026-04-11T08:06:49Z</time></trkpt><trkpt lat="43.3892459" lon="11.4286873"><ele>307.6666666666667</ele><time>2026-04-11T08:06:50Z</time></trkpt><trkpt lat="43.389177" lon="11.4286295"><ele>306.0</ele><time>2026-04-11T08:06:51.001Z</time></trkpt><trkpt lat="43.3891013" lon="11.428598"><ele>304.3333333333333</ele><time>2026-04-11T08:06:52.001Z</time></trkpt><trkpt lat="43.3890125" lon="11.4285896"><ele>302.66666666666663</ele><time>2026-04-11T08:06:53.001Z</time></trkpt><trkpt lat="43.3889169" lon="11.4285954"><ele>301.0</ele><time>2026-04-11T08:06:54Z</time></trkpt><trkpt lat="43.3888217" lon="11.4286049"><ele>301.0</ele><time>2026-04-11T08:06:55.001Z</time></trkpt><trkpt lat="43.3887247" lon="11.4286158"><ele>301.0</ele><time>2026-04-11T08:06:56.001Z</time></trkpt><trkpt lat="43.3886304" lon="11.4286296"><ele>301.0</ele><time>2026-04-11T08:06:57Z</time></trkpt><trkpt lat="43.3885393" lon="11.4286358"><ele>301.0</ele><time>2026-04-11T08:06:58.001Z</time></trkpt><trkpt lat="43.3884483" lon="11.4286191"><ele>301.0</ele><time>2026-04-11T08:06:59.001Z</time></trkpt><trkpt lat="43.3883549" lon="11.4285755"><ele>301.0</ele><time>2026-04-11T08:07:00.001Z</time></trkpt><trkpt lat="43.3882667" lon="11.4285102"><ele>301.0</ele><time>2026-04-11T08:07:01Z</time></trkpt><trkpt lat="43.3881803" lon="11.428448"><ele>301.0</ele><time>2026-04-11T08:07:02.001Z</time></trkpt><trkpt lat="43.3880968" lon="11.4284036"><ele>301.0</ele><time>2026-04-11T08:07:03Z</time></trkpt><trkpt lat="43.3880142" lon="11.4283744"><ele>301.0</ele><time>2026-04-11T08:07:04Z</time></trkpt><trkpt lat="43.3879316" lon="11.4283552"><ele>301.6</ele><time>2026-04-11T08:07:05.001Z</time></trkpt><trkpt lat="43.3878511" lon="11.4283536"><ele>302.20000000000005</ele><time>2026-04-11T08:07:06.001Z</time></trkpt><trkpt lat="43.3877676" lon="11.4283669"><ele>302.79999999999995</ele><time>2026-04-11T08:07:07.001Z</time></trkpt><trkpt lat="43.3876792" lon="11.4283931"><ele>303.4</ele><time>2026-04-11T08:07:08Z</time></trkpt><trkpt lat="43.3875863" lon="11.4284273"><ele>304.0</ele><time>2026-04-11T08:07:09Z</time></trkpt><trkpt lat="43.3874883" lon="11.4284663"><ele>304.0</ele><time>2026-04-11T08:07:10.002Z</time></trkpt><trkpt lat="43.3873872" lon="11.4285016"><ele>304.0</ele><time>2026-04-11T08:07:11.002Z</time></trkpt><trkpt lat="43.387288" lon="11.4285362"><ele>304.0</ele><time>2026-04-11T08:07:12.002Z</time></trkpt><trkpt lat="43.3871923" lon="11.4285696"><ele>304.0</ele><time>2026-04-11T08:07:13.001Z</time></trkpt><trkpt lat="43.3870962" lon="11.4286043"><ele>304.0</ele><time>2026-04-11T08:07:14.001Z</time></trkpt><trkpt lat="43.3869967" lon="11.4286392"><ele>302.25</ele><time>2026-04-11T08:07:15.002Z</time></trkpt><trkpt lat="43.3868871" lon="11.4286736"><ele>300.5</ele><time>2026-04-11T08:07:16.001Z</time></trkpt><trkpt lat="43.3867695" lon="11.4287093"><ele>298.75</ele><time>2026-04-11T08:07:17.001Z</time></trkpt><trkpt lat="43.3866519" lon="11.4287489"><ele>297.0</ele><time>2026-04-11T08:07:18.001Z</time></trkpt><trkpt lat="43.3865371" lon="11.4287866"><ele>298.0</ele><time>2026-04-11T08:07:19.001Z</time></trkpt><trkpt lat="43.3864246" lon="11.4288215"><ele>299.0</ele><time>2026-04-11T08:07:20.002Z</time></trkpt><trkpt lat="43.3863142" lon="11.4288567"><ele>300.0</ele><time>2026-04-11T08:07:21.002Z</time></trkpt><trkpt lat="43.3862078" lon="11.4288903"><ele>301.0</ele><time>2026-04-11T08:07:22.002Z</time></trkpt><trkpt lat="43.3861014" lon="11.4289224"><ele>302.0</ele><time>2026-04-11T08:07:23.002Z</time></trkpt><trkpt lat="43.3859937" lon="11.4289527"><ele>300.0</ele><time>2026-04-11T08:07:24.001Z</time></trkpt><trkpt lat="43.3858851" lon="11.4289839"><ele>298.0</ele><time>2026-04-11T08:07:25.001Z</time></trkpt><trkpt lat="43.3857764" lon="11.4290189"><ele>296.0</ele><time>2026-04-11T08:07:26.001Z</time></trkpt><trkpt lat="43.3856679" lon="11.4290548"><ele>294.0</ele><time>2026-04-11T08:07:27.002Z</time></trkpt><trkpt lat="43.3855618" lon="11.429089"><ele>292.0</ele><time>2026-04-11T08:07:28.002Z</time></trkpt><trkpt lat="43.3854582" lon="11.4291197"><ele>290.2</ele><time>2026-04-11T08:07:29.001Z</time></trkpt><trkpt lat="43.3853534" lon="11.4291503"><ele>288.4</ele><time>2026-04-11T08:07:30.002Z</time></trkpt><trkpt lat="43.3852492" lon="11.4291803"><ele>286.6</ele><time>2026-04-11T08:07:31.001Z</time></trkpt><trkpt lat="43.3851487" lon="11.429207"><ele>284.8</ele><time>2026-04-11T08:07:32.001Z</time></trkpt><trkpt lat="43.385057" lon="11.4292295"><ele>283.0</ele><time>2026-04-11T08:07:33.002Z</time></trkpt><trkpt lat="43.3849817" lon="11.4292534"><ele>283.0</ele><time>2026-04-11T08:07:34.001Z</time></trkpt><trkpt lat="43.3849217" lon="11.4292822"><ele>283.0</ele><time>2026-04-11T08:07:35.002Z</time></trkpt><trkpt lat="43.384834" lon="11.4293913"><ele>283.0</ele><time>2026-04-11T08:07:37.001Z</time></trkpt><trkpt lat="43.3848066" lon="11.4294859"><ele>283.0</ele><time>2026-04-11T08:07:38.002Z</time></trkpt><trkpt lat="43.3847962" lon="11.4295871"><ele>283.0</ele><time>2026-04-11T08:07:39.001Z</time></trkpt><trkpt lat="43.3848029" lon="11.429707"><ele>283.0</ele><time>2026-04-11T08:07:40.002Z</time></trkpt><trkpt lat="43.3848113" lon="11.4298411"><ele>283.2</ele><time>2026-04-11T08:07:41.002Z</time></trkpt><trkpt lat="43.3848068" lon="11.4299728"><ele>283.4</ele><time>2026-04-11T08:07:42.001Z</time></trkpt><trkpt lat="43.3847844" lon="11.430096"><ele>283.59999999999997</ele><time>2026-04-11T08:07:43.001Z</time></trkpt><trkpt lat="43.3847517" lon="11.4302152"><ele>283.8</ele><time>2026-04-11T08:07:44.002Z</time></trkpt><trkpt lat="43.3847192" lon="11.4303283"><ele>284.0</ele><time>2026-04-11T08:07:45.001Z</time></trkpt><trkpt lat="43.3846953" lon="11.4304424"><ele>284.0</ele><time>2026-04-11T08:07:46.001Z</time></trkpt><trkpt lat="43.3846847" lon="11.4305589"><ele>284.0</ele><time>2026-04-11T08:07:47.002Z</time></trkpt><trkpt lat="43.384689" lon="11.4306698"><ele>284.0</ele><time>2026-04-11T08:07:48.002Z</time></trkpt><trkpt lat="43.3847053" lon="11.4307821"><ele>284.0</ele><time>2026-04-11T08:07:49.002Z</time></trkpt><trkpt lat="43.3847283" lon="11.4308979"><ele>284.0</ele><time>2026-04-11T08:07:50.001Z</time></trkpt><trkpt lat="43.3847537" lon="11.4310132"><ele>284.0</ele><time>2026-04-11T08:07:51.001Z</time></trkpt><trkpt lat="43.3847749" lon="11.431129"><ele>284.0</ele><time>2026-04-11T08:07:52.001Z</time></trkpt><trkpt lat="43.3847799" lon="11.4312379"><ele>284.0</ele><time>2026-04-11T08:07:53.001Z</time></trkpt><trkpt lat="43.3847586" lon="11.4313313"><ele>284.0</ele><time>2026-04-11T08:07:54.002Z</time></trkpt><trkpt lat="43.3847161" lon="11.4314076"><ele>284.0</ele><time>2026-04-11T08:07:55.001Z</time></trkpt><trkpt lat="43.3846598" lon="11.4314642"><ele>284.0</ele><time>2026-04-11T08:07:56.001Z</time></trkpt><trkpt lat="43.3845938" lon="11.431505"><ele>284.0</ele><time>2026-04-11T08:07:57.002Z</time></trkpt><trkpt lat="43.3845249" lon="11.4315225"><ele>284.0</ele><time>2026-04-11T08:07:58.001Z</time></trkpt><trkpt lat="43.384451" lon="11.4315027"><ele>282.8</ele><time>2026-04-11T08:07:59.001Z</time></trkpt><trkpt lat="43.3843957" lon="11.4314535"><ele>281.59999999999997</ele><time>2026-04-11T08:08:00.002Z</time></trkpt><trkpt lat="43.3843212" lon="11.4313722"><ele>280.4</ele><time>2026-04-11T08:08:01.002Z</time></trkpt><trkpt lat="43.3842417" lon="11.4312464"><ele>279.2</ele><time>2026-04-11T08:08:02.001Z</time></trkpt><trkpt lat="43.3841491" lon="11.4311107"><ele>278.0</ele><time>2026-04-11T08:08:03.002Z</time></trkpt><trkpt lat="43.3840521" lon="11.4309806"><ele>278.0</ele><time>2026-04-11T08:08:04.001Z</time></trkpt><trkpt lat="43.3839563" lon="11.4308638"><ele>278.0</ele><time>2026-04-11T08:08:05.001Z</time></trkpt><trkpt lat="43.3838732" lon="11.4307667"><ele>278.0</ele><time>2026-04-11T08:08:06.002Z</time></trkpt><trkpt lat="43.3837963" lon="11.4306723"><ele>278.0</ele><time>2026-04-11T08:08:07.001Z</time></trkpt><trkpt lat="43.3837289" lon="11.4305749"><ele>278.0</ele><time>2026-04-11T08:08:08.001Z</time></trkpt><trkpt lat="43.383673" lon="11.4304754"><ele>277.5</ele><time>2026-04-11T08:08:09.001Z</time></trkpt><trkpt lat="43.3836239" lon="11.4303816"><ele>277.0</ele><time>2026-04-11T08:08:10.002Z</time></trkpt><trkpt lat="43.3835784" lon="11.4303044"><ele>276.5</ele><time>2026-04-11T08:08:11.001Z</time></trkpt><trkpt lat="43.3834878" lon="11.4302148"><ele>276.0</ele><time>2026-04-11T08:08:13.001Z</time></trkpt><trkpt lat="43.3833752" lon="11.430178"><ele>275.5</ele><time>2026-04-11T08:08:15.002Z</time></trkpt><trkpt lat="43.3833114" lon="11.4301944"><ele>275.0</ele><time>2026-04-11T08:08:16.002Z</time></trkpt><trkpt lat="43.3832445" lon="11.430233"><ele>275.0</ele><time>2026-04-11T08:08:17.002Z</time></trkpt><trkpt lat="43.3831787" lon="11.430286"><ele>275.0</ele><time>2026-04-11T08:08:18.003Z</time></trkpt><trkpt lat="43.3831175" lon="11.4303423"><ele>275.0</ele><time>2026-04-11T08:08:19.002Z</time></trkpt><trkpt lat="43.3830657" lon="11.430409"><ele>275.0</ele><time>2026-04-11T08:08:20.003Z</time></trkpt><trkpt lat="43.3830252" lon="11.4304869"><ele>275.0</ele><time>2026-04-11T08:08:21.003Z</time></trkpt><trkpt lat="43.382997" lon="11.4305657"><ele>275.0</ele><time>2026-04-11T08:08:22.003Z</time></trkpt><trkpt lat="43.3829886" lon="11.4307289"><ele>277.0</ele><time>2026-04-11T08:08:24.003Z</time></trkpt><trkpt lat="43.3830306" lon="11.4308469"><ele>279.0</ele><time>2026-04-11T08:08:26.003Z</time></trkpt><trkpt lat="43.383129" lon="11.430899"><ele>281.0</ele><time>2026-04-11T08:08:28.002Z</time></trkpt><trkpt lat="43.3831938" lon="11.430903"><ele>283.0</ele><time>2026-04-11T08:08:29.002Z</time></trkpt><trkpt lat="43.3832814" lon="11.4308923"><ele>285.0</ele><time>2026-04-11T08:08:30.002Z</time></trkpt><trkpt lat="43.3833691" lon="11.4309"><ele>287.0</ele><time>2026-04-11T08:08:31.003Z</time></trkpt><trkpt lat="43.3834416" lon="11.4309343"><ele>287.0</ele><time>2026-04-11T08:08:32.002Z</time></trkpt><trkpt lat="43.3834959" lon="11.4309959"><ele>287.0</ele><time>2026-04-11T08:08:33.002Z</time></trkpt><trkpt lat="43.3835118" lon="11.4311606"><ele>287.0</ele><time>2026-04-11T08:08:35.003Z</time></trkpt><trkpt lat="43.383496" lon="11.4312615"><ele>287.0</ele><time>2026-04-11T08:08:36.002Z</time></trkpt><trkpt lat="43.3834527" lon="11.4313496"><ele>287.0</ele><time>2026-04-11T08:08:37.002Z</time></trkpt><trkpt lat="43.3833969" lon="11.4314372"><ele>287.0</ele><time>2026-04-11T08:08:38.003Z</time></trkpt><trkpt lat="43.3833324" lon="11.4315177"><ele>288.6</ele><time>2026-04-11T08:08:39.002Z</time></trkpt><trkpt lat="43.3832599" lon="11.4315894"><ele>290.2</ele><time>2026-04-11T08:08:40.002Z</time></trkpt><trkpt lat="43.3831794" lon="11.4316533"><ele>291.8</ele><time>2026-04-11T08:08:41.003Z</time></trkpt><trkpt lat="43.3830894" lon="11.4317053"><ele>293.4</ele><time>2026-04-11T08:08:42.002Z</time></trkpt><trkpt lat="43.3829912" lon="11.4317399"><ele>295.0</ele><time>2026-04-11T08:08:43.003Z</time></trkpt><trkpt lat="43.3828791" lon="11.4317629"><ele>295.0</ele><time>2026-04-11T08:08:44.002Z</time></trkpt><trkpt lat="43.3827599" lon="11.431795"><ele>295.0</ele><time>2026-04-11T08:08:45.002Z</time></trkpt><trkpt lat="43.3826363" lon="11.4318318"><ele>295.0</ele><time>2026-04-11T08:08:46.003Z</time></trkpt><trkpt lat="43.3825166" lon="11.4318726"><ele>295.0</ele><time>2026-04-11T08:08:47.002Z</time></trkpt><trkpt lat="43.3824062" lon="11.4319089"><ele>295.0</ele><time>2026-04-11T08:08:48.003Z</time></trkpt><trkpt lat="43.3823035" lon="11.4319397"><ele>295.0</ele><time>2026-04-11T08:08:49.003Z</time></trkpt><trkpt lat="43.3822072" lon="11.4319623"><ele>295.0</ele><time>2026-04-11T08:08:50.003Z</time></trkpt><trkpt lat="43.3821115" lon="11.4319888"><ele>295.0</ele><time>2026-04-11T08:08:51.003Z</time></trkpt><trkpt lat="43.3820109" lon="11.432019"><ele>295.0</ele><time>2026-04-11T08:08:52.002Z</time></trkpt><trkpt lat="43.3819158" lon="11.4320529"><ele>295.7142857142857</ele><time>2026-04-11T08:08:53.002Z</time></trkpt><trkpt lat="43.3818346" lon="11.4320841"><ele>296.42857142857144</ele><time>2026-04-11T08:08:54.002Z</time></trkpt><trkpt lat="43.3817674" lon="11.43211"><ele>297.1428571428571</ele><time>2026-04-11T08:08:55.003Z</time></trkpt><trkpt lat="43.3816977" lon="11.4321266"><ele>297.8571428571429</ele><time>2026-04-11T08:08:56.002Z</time></trkpt><trkpt lat="43.38163" lon="11.4321263"><ele>298.57142857142856</ele><time>2026-04-11T08:08:57.003Z</time></trkpt><trkpt lat="43.3815653" lon="11.4320969"><ele>299.2857142857143</ele><time>2026-04-11T08:08:58.003Z</time></trkpt><trkpt lat="43.3815009" lon="11.4320316"><ele>300.0</ele><time>2026-04-11T08:08:59.003Z</time></trkpt><trkpt lat="43.3814447" lon="11.4319364"><ele>300.0</ele><time>2026-04-11T08:09:00.002Z</time></trkpt><trkpt lat="43.381402" lon="11.4318236"><ele>300.0</ele><time>2026-04-11T08:09:01.002Z</time></trkpt><trkpt lat="43.3813683" lon="11.431695"><ele>300.0</ele><time>2026-04-11T08:09:02.003Z</time></trkpt><trkpt lat="43.3813342" lon="11.4315631"><ele>300.0</ele><time>2026-04-11T08:09:03.002Z</time></trkpt><trkpt lat="43.3812916" lon="11.4314299"><ele>300.0</ele><time>2026-04-11T08:09:04.002Z</time></trkpt><trkpt lat="43.381249" lon="11.4312954"><ele>303.5</ele><time>2026-04-11T08:09:05.002Z</time></trkpt><trkpt lat="43.3812101" lon="11.4311536"><ele>307.0</ele><time>2026-04-11T08:09:06.002Z</time></trkpt><trkpt lat="43.381137" lon="11.4308966"><ele>310.5</ele><time>2026-04-11T08:09:08.003Z</time></trkpt><trkpt lat="43.3811025" lon="11.4307878"><ele>314.0</ele><time>2026-04-11T08:09:09.002Z</time></trkpt><trkpt lat="43.3810677" lon="11.4306885"><ele>314.0</ele><time>2026-04-11T08:09:10.002Z</time></trkpt><trkpt lat="43.3810335" lon="11.4306073"><ele>314.0</ele><time>2026-04-11T08:09:11.002Z</time></trkpt><trkpt lat="43.380957" lon="11.4304865"><ele>314.0</ele><time>2026-04-11T08:09:13.003Z</time></trkpt><trkpt lat="43.3808748" lon="11.4304186"><ele>314.0</ele><time>2026-04-11T08:09:15.003Z</time></trkpt><trkpt lat="43.3808097" lon="11.4304084"><ele>314.0</ele><time>2026-04-11T08:09:17.004Z</time></trkpt><trkpt lat="43.3807556" lon="11.4304539"><ele>314.0</ele><time>2026-04-11T08:09:19.003Z</time></trkpt><trkpt lat="43.3807176" lon="11.4305291"><ele>314.0</ele><time>2026-04-11T08:09:22.004Z</time></trkpt><trkpt lat="43.3806619" lon="11.4306567"><ele>314.0</ele><time>2026-04-11T08:09:26.003Z</time></trkpt><trkpt lat="43.3806178" lon="11.4307408"><ele>314.0</ele><time>2026-04-11T08:09:27.004Z</time></trkpt><trkpt lat="43.3805628" lon="11.4308429"><ele>314.0</ele><time>2026-04-11T08:09:28.004Z</time></trkpt><trkpt lat="43.3805009" lon="11.4309447"><ele>314.0</ele><time>2026-04-11T08:09:29.004Z</time></trkpt><trkpt lat="43.3804285" lon="11.4310573"><ele>313.25</ele><time>2026-04-11T08:09:30.003Z</time></trkpt><trkpt lat="43.3803381" lon="11.4311904"><ele>312.5</ele><time>2026-04-11T08:09:31.004Z</time></trkpt><trkpt lat="43.380252" lon="11.4313163"><ele>311.75</ele><time>2026-04-11T08:09:32.003Z</time></trkpt><trkpt lat="43.3801795" lon="11.4314284"><ele>311.0</ele><time>2026-04-11T08:09:33.003Z</time></trkpt><trkpt lat="43.3801125" lon="11.4315363"><ele>313.20000000000005</ele><time>2026-04-11T08:09:34.004Z</time></trkpt><trkpt lat="43.3800599" lon="11.4316442"><ele>315.40000000000003</ele><time>2026-04-11T08:09:35.003Z</time></trkpt><trkpt lat="43.3800127" lon="11.4317581"><ele>317.6</ele><time>2026-04-11T08:09:36.003Z</time></trkpt><trkpt lat="43.3799744" lon="11.4318799"><ele>319.8</ele><time>2026-04-11T08:09:37.003Z</time></trkpt><trkpt lat="43.379955" lon="11.4320085"><ele>322.0</ele><time>2026-04-11T08:09:38.004Z</time></trkpt><trkpt lat="43.379967" lon="11.4321379"><ele>321.8</ele><time>2026-04-11T08:09:39.003Z</time></trkpt><trkpt lat="43.3799971" lon="11.4322589"><ele>321.6</ele><time>2026-04-11T08:09:40.004Z</time></trkpt><trkpt lat="43.380035" lon="11.432374"><ele>321.40000000000003</ele><time>2026-04-11T08:09:41.003Z</time></trkpt><trkpt lat="43.3800622" lon="11.432517"><ele>321.20000000000005</ele><time>2026-04-11T08:09:43.003Z</time></trkpt><trkpt lat="43.3799952" lon="11.432604"><ele>321.0</ele><time>2026-04-11T08:09:46.003Z</time></trkpt><trkpt lat="43.3798685" lon="11.4325924"><ele>321.0</ele><time>2026-04-11T08:09:48.004Z</time></trkpt><trkpt lat="43.3797776" lon="11.4325719"><ele>321.0</ele><time>2026-04-11T08:09:49.004Z</time></trkpt><trkpt lat="43.3796723" lon="11.4325391"><ele>321.0</ele><time>2026-04-11T08:09:50.004Z</time></trkpt><trkpt lat="43.3795651" lon="11.4325002"><ele>321.0</ele><time>2026-04-11T08:09:51.003Z</time></trkpt><trkpt lat="43.3794295" lon="11.4324348"><ele>320.0</ele><time>2026-04-11T08:09:52.004Z</time></trkpt><trkpt lat="43.3792831" lon="11.4323652"><ele>319.0</ele><time>2026-04-11T08:09:53.003Z</time></trkpt><trkpt lat="43.3791325" lon="11.4322938"><ele>318.0</ele><time>2026-04-11T08:09:54.004Z</time></trkpt><trkpt lat="43.3789853" lon="11.4322238"><ele>317.75</ele><time>2026-04-11T08:09:55.004Z</time></trkpt><trkpt lat="43.3788429" lon="11.4321553"><ele>317.5</ele><time>2026-04-11T08:09:56.003Z</time></trkpt><trkpt lat="43.3787122" lon="11.4320911"><ele>317.25</ele><time>2026-04-11T08:09:57.003Z</time></trkpt><trkpt lat="43.3785871" lon="11.4320274"><ele>317.0</ele><time>2026-04-11T08:09:58.004Z</time></trkpt><trkpt lat="43.3784668" lon="11.4319639"><ele>317.0</ele><time>2026-04-11T08:09:59.004Z</time></trkpt><trkpt lat="43.3783459" lon="11.4318981"><ele>317.0</ele><time>2026-04-11T08:10:00.004Z</time></trkpt><trkpt lat="43.3782285" lon="11.4318326"><ele>317.0</ele><time>2026-04-11T08:10:01.003Z</time></trkpt><trkpt lat="43.3781106" lon="11.4317698"><ele>317.0</ele><time>2026-04-11T08:10:02.004Z</time></trkpt><trkpt lat="43.3779926" lon="11.4317093"><ele>317.5</ele><time>2026-04-11T08:10:03.004Z</time></trkpt><trkpt lat="43.3778754" lon="11.4316507"><ele>318.0</ele><time>2026-04-11T08:10:04.004Z</time></trkpt><trkpt lat="43.3777625" lon="11.431595"><ele>318.5</ele><time>2026-04-11T08:10:05.004Z</time></trkpt><trkpt lat="43.3776544" lon="11.4315386"><ele>319.0</ele><time>2026-04-11T08:10:06.003Z</time></trkpt><trkpt lat="43.3775501" lon="11.4314873"><ele>319.0</ele><time>2026-04-11T08:10:07.004Z</time></trkpt><trkpt lat="43.3774469" lon="11.4314447"><ele>319.0</ele><time>2026-04-11T08:10:08.003Z</time></trkpt><trkpt lat="43.3773461" lon="11.4314112"><ele>319.0</ele><time>2026-04-11T08:10:09.003Z</time></trkpt><trkpt lat="43.3772433" lon="11.431379"><ele>319.0</ele><time>2026-04-11T08:10:10.003Z</time></trkpt><trkpt lat="43.3771342" lon="11.4313607"><ele>319.0</ele><time>2026-04-11T08:10:11.003Z</time></trkpt><trkpt lat="43.3770154" lon="11.4313419"><ele>318.25</ele><time>2026-04-11T08:10:12.003Z</time></trkpt><trkpt lat="43.3768835" lon="11.4313217"><ele>317.5</ele><time>2026-04-11T08:10:13.004Z</time></trkpt><trkpt lat="43.3767424" lon="11.4313023"><ele>316.75</ele><time>2026-04-11T08:10:14.004Z</time></trkpt><trkpt lat="43.3766009" lon="11.4312839"><ele>316.0</ele><time>2026-04-11T08:10:15.004Z</time></trkpt><trkpt lat="43.3764612" lon="11.4312679"><ele>315.25</ele><time>2026-04-11T08:10:16.003Z</time></trkpt><trkpt lat="43.3763206" lon="11.4312516"><ele>314.5</ele><time>2026-04-11T08:10:17.005Z</time></trkpt><trkpt lat="43.3761744" lon="11.4312278"><ele>313.75</ele><time>2026-04-11T08:10:18.005Z</time></trkpt><trkpt lat="43.376031" lon="11.4312003"><ele>313.0</ele><time>2026-04-11T08:10:19.004Z</time></trkpt><trkpt lat="43.3758887" lon="11.4311692"><ele>313.0</ele><time>2026-04-11T08:10:20.004Z</time></trkpt><trkpt lat="43.3757505" lon="11.4311029"><ele>313.0</ele><time>2026-04-11T08:10:21.005Z</time></trkpt><trkpt lat="43.3756176" lon="11.4310175"><ele>313.0</ele><time>2026-04-11T08:10:22.005Z</time></trkpt><trkpt lat="43.3754814" lon="11.4309181"><ele>313.0</ele><time>2026-04-11T08:10:23.005Z</time></trkpt><trkpt lat="43.3753433" lon="11.4308148"><ele>310.0</ele><time>2026-04-11T08:10:24.004Z</time></trkpt><trkpt lat="43.3752001" lon="11.4307083"><ele>307.0</ele><time>2026-04-11T08:10:25.005Z</time></trkpt><trkpt lat="43.375047" lon="11.4306112"><ele>304.0</ele><time>2026-04-11T08:10:26.005Z</time></trkpt><trkpt lat="43.374889" lon="11.4305308"><ele>304.3333333333333</ele><time>2026-04-11T08:10:27.004Z</time></trkpt><trkpt lat="43.3747333" lon="11.4304644"><ele>304.6666666666667</ele><time>2026-04-11T08:10:28.004Z</time></trkpt><trkpt lat="43.3745798" lon="11.4304083"><ele>305.0</ele><time>2026-04-11T08:10:29.004Z</time></trkpt><trkpt lat="43.3744258" lon="11.4303544"><ele>305.0</ele><time>2026-04-11T08:10:30.004Z</time></trkpt><trkpt lat="43.374274" lon="11.4303032"><ele>305.0</ele><time>2026-04-11T08:10:31.005Z</time></trkpt><trkpt lat="43.3741234" lon="11.4302524"><ele>305.0</ele><time>2026-04-11T08:10:32.005Z</time></trkpt><trkpt lat="43.373976" lon="11.430202"><ele>304.6666666666667</ele><time>2026-04-11T08:10:33.004Z</time></trkpt><trkpt lat="43.3738268" lon="11.430146"><ele>304.3333333333333</ele><time>2026-04-11T08:10:34.004Z</time></trkpt><trkpt lat="43.3736772" lon="11.4300817"><ele>304.0</ele><time>2026-04-11T08:10:35.004Z</time></trkpt><trkpt lat="43.373527" lon="11.4300082"><ele>304.0</ele><time>2026-04-11T08:10:36.004Z</time></trkpt><trkpt lat="43.3733732" lon="11.4299255"><ele>304.0</ele><time>2026-04-11T08:10:37.005Z</time></trkpt><trkpt lat="43.3732194" lon="11.4298359"><ele>304.0</ele><time>2026-04-11T08:10:38.004Z</time></trkpt><trkpt lat="43.3730641" lon="11.4297433"><ele>301.66666666666663</ele><time>2026-04-11T08:10:39.004Z</time></trkpt><trkpt lat="43.3729068" lon="11.4296514"><ele>299.3333333333333</ele><time>2026-04-11T08:10:40.005Z</time></trkpt><trkpt lat="43.3727522" lon="11.4295625"><ele>297.0</ele><time>2026-04-11T08:10:41.005Z</time></trkpt><trkpt lat="43.3725956" lon="11.4294739"><ele>297.0</ele><time>2026-04-11T08:10:42.005Z</time></trkpt><trkpt lat="43.3724374" lon="11.4293811"><ele>297.0</ele><time>2026-04-11T08:10:43.004Z</time></trkpt><trkpt lat="43.3722802" lon="11.4292867"><ele>297.0</ele><time>2026-04-11T08:10:44.004Z</time></trkpt><trkpt lat="43.372122" lon="11.429193"><ele>295.6666666666667</ele><time>2026-04-11T08:10:45.004Z</time></trkpt><trkpt lat="43.3719654" lon="11.4291057"><ele>294.33333333333337</ele><time>2026-04-11T08:10:46.004Z</time></trkpt><trkpt lat="43.3718112" lon="11.4290225"><ele>293.0</ele><time>2026-04-11T08:10:47.005Z</time></trkpt><trkpt lat="43.3716683" lon="11.4289461"><ele>293.0</ele><time>2026-04-11T08:10:48.004Z</time></trkpt><trkpt lat="43.3715235" lon="11.4288787"><ele>293.0</ele><time>2026-04-11T08:10:49.005Z</time></trkpt><trkpt lat="43.3713751" lon="11.4288099"><ele>293.0</ele><time>2026-04-11T08:10:50.005Z</time></trkpt><trkpt lat="43.3712066" lon="11.4287578"><ele>293.33333333333337</ele><time>2026-04-11T08:10:51.005Z</time></trkpt><trkpt lat="43.3710447" lon="11.4287077"><ele>293.6666666666667</ele><time>2026-04-11T08:10:52.005Z</time></trkpt><trkpt lat="43.3708702" lon="11.4286693"><ele>294.0</ele><time>2026-04-11T08:10:53.004Z</time></trkpt><trkpt lat="43.3706912" lon="11.4286461"><ele>291.6666666666667</ele><time>2026-04-11T08:10:54.005Z</time></trkpt><trkpt lat="43.3705135" lon="11.428615"><ele>289.33333333333337</ele><time>2026-04-11T08:10:55.005Z</time></trkpt><trkpt lat="43.370338" lon="11.4285938"><ele>287.0</ele><time>2026-04-11T08:10:56.004Z</time></trkpt><trkpt lat="43.3701565" lon="11.428568"><ele>287.0</ele><time>2026-04-11T08:10:57.005Z</time></trkpt><trkpt lat="43.3699763" lon="11.4285447"><ele>287.0</ele><time>2026-04-11T08:10:58.005Z</time></trkpt><trkpt lat="43.3698068" lon="11.4285235"><ele>287.0</ele><time>2026-04-11T08:10:59.005Z</time></trkpt><trkpt lat="43.3696373" lon="11.4285071"><ele>285.33333333333337</ele><time>2026-04-11T08:11:00.004Z</time></trkpt><trkpt lat="43.3694701" lon="11.4284912"><ele>283.6666666666667</ele><time>2026-04-11T08:11:01.005Z</time></trkpt><trkpt lat="43.3692979" lon="11.4284784"><ele>282.0</ele><time>2026-04-11T08:11:02.004Z</time></trkpt><trkpt lat="43.3691381" lon="11.428474"><ele>282.0</ele><time>2026-04-11T08:11:03.005Z</time></trkpt><trkpt lat="43.3689788" lon="11.4284597"><ele>282.0</ele><time>2026-04-11T08:11:04.004Z</time></trkpt><trkpt lat="43.3688255" lon="11.4284425"><ele>282.0</ele><time>2026-04-11T08:11:05.005Z</time></trkpt><trkpt lat="43.3686785" lon="11.4283825"><ele>282.6666666666667</ele><time>2026-04-11T08:11:06.005Z</time></trkpt><trkpt lat="43.3685327" lon="11.4282923"><ele>283.33333333333337</ele><time>2026-04-11T08:11:07.004Z</time></trkpt><trkpt lat="43.3683976" lon="11.4281828"><ele>284.0</ele><time>2026-04-11T08:11:08.004Z</time></trkpt><trkpt lat="43.3682758" lon="11.4280477"><ele>283.6666666666667</ele><time>2026-04-11T08:11:09.004Z</time></trkpt><trkpt lat="43.3681669" lon="11.4278996"><ele>283.3333333333333</ele><time>2026-04-11T08:11:10.004Z</time></trkpt><trkpt lat="43.3680791" lon="11.4277231"><ele>283.0</ele><time>2026-04-11T08:11:11.005Z</time></trkpt><trkpt lat="43.3680166" lon="11.4275047"><ele>283.0</ele><time>2026-04-11T08:11:12.005Z</time></trkpt><trkpt lat="43.3679709" lon="11.4272614"><ele>283.0</ele><time>2026-04-11T08:11:13.005Z</time></trkpt><trkpt lat="43.3678093" lon="11.4269237"><ele>283.3333333333333</ele><time>2026-04-11T08:11:15.004Z</time></trkpt><trkpt lat="43.3676892" lon="11.4268113"><ele>283.6666666666667</ele><time>2026-04-11T08:11:16.005Z</time></trkpt><trkpt lat="43.3675492" lon="11.4267353"><ele>284.0</ele><time>2026-04-11T08:11:17.004Z</time></trkpt><trkpt lat="43.3673932" lon="11.4266598"><ele>284.0</ele><time>2026-04-11T08:11:18.005Z</time></trkpt><trkpt lat="43.3672155" lon="11.4265837"><ele>284.0</ele><time>2026-04-11T08:11:19.006Z</time></trkpt><trkpt lat="43.3670466" lon="11.426504"><ele>284.0</ele><time>2026-04-11T08:11:20.006Z</time></trkpt><trkpt lat="43.3668826" lon="11.426434"><ele>285.6666666666667</ele><time>2026-04-11T08:11:21.005Z</time></trkpt><trkpt lat="43.3667323" lon="11.4263784"><ele>287.3333333333333</ele><time>2026-04-11T08:11:22.006Z</time></trkpt><trkpt lat="43.3665728" lon="11.4263542"><ele>289.0</ele><time>2026-04-11T08:11:23.006Z</time></trkpt><trkpt lat="43.3664149" lon="11.4263561"><ele>288.5</ele><time>2026-04-11T08:11:24.006Z</time></trkpt><trkpt lat="43.3662566" lon="11.426368"><ele>288.0</ele><time>2026-04-11T08:11:25.006Z</time></trkpt><trkpt lat="43.3661096" lon="11.4263795"><ele>287.5</ele><time>2026-04-11T08:11:26.005Z</time></trkpt><trkpt lat="43.3659799" lon="11.4263674"><ele>287.0</ele><time>2026-04-11T08:11:27.006Z</time></trkpt><trkpt lat="43.3658524" lon="11.4263352"><ele>287.75</ele><time>2026-04-11T08:11:28.006Z</time></trkpt><trkpt lat="43.3657496" lon="11.4262122"><ele>288.5</ele><time>2026-04-11T08:11:29.005Z</time></trkpt><trkpt lat="43.3656629" lon="11.4260666"><ele>289.25</ele><time>2026-04-11T08:11:30.005Z</time></trkpt><trkpt lat="43.3655667" lon="11.4259067"><ele>290.0</ele><time>2026-04-11T08:11:31.006Z</time></trkpt><trkpt lat="43.3654633" lon="11.4257408"><ele>287.33333333333337</ele><time>2026-04-11T08:11:32.006Z</time></trkpt><trkpt lat="43.3653477" lon="11.4255543"><ele>284.6666666666667</ele><time>2026-04-11T08:11:33.005Z</time></trkpt><trkpt lat="43.3652278" lon="11.4253636"><ele>282.0</ele><time>2026-04-11T08:11:34.006Z</time></trkpt><trkpt lat="43.3651171" lon="11.4251839"><ele>281.6666666666667</ele><time>2026-04-11T08:11:35.006Z</time></trkpt><trkpt lat="43.3650157" lon="11.4250219"><ele>281.33333333333337</ele><time>2026-04-11T08:11:36.005Z</time></trkpt><trkpt lat="43.3649234" lon="11.424849"><ele>281.0</ele><time>2026-04-11T08:11:37.005Z</time></trkpt><trkpt lat="43.3648278" lon="11.4246621"><ele>280.5</ele><time>2026-04-11T08:11:38.005Z</time></trkpt><trkpt lat="43.3647483" lon="11.4244924"><ele>280.0</ele><time>2026-04-11T08:11:39.005Z</time></trkpt><trkpt lat="43.3646871" lon="11.4243041"><ele>279.5</ele><time>2026-04-11T08:11:40.005Z</time></trkpt><trkpt lat="43.364631" lon="11.4241179"><ele>279.0</ele><time>2026-04-11T08:11:41.005Z</time></trkpt><trkpt lat="43.3645912" lon="11.4239148"><ele>276.3333333333333</ele><time>2026-04-11T08:11:42.006Z</time></trkpt><trkpt lat="43.3645546" lon="11.4237096"><ele>273.66666666666663</ele><time>2026-04-11T08:11:43.005Z</time></trkpt><trkpt lat="43.3645345" lon="11.4234851"><ele>271.0</ele><time>2026-04-11T08:11:44.005Z</time></trkpt><trkpt lat="43.3645233" lon="11.4232543"><ele>271.0</ele><time>2026-04-11T08:11:45.006Z</time></trkpt><trkpt lat="43.3645103" lon="11.4230275"><ele>271.0</ele><time>2026-04-11T08:11:46.005Z</time></trkpt><trkpt lat="43.3644984" lon="11.4227952"><ele>271.0</ele><time>2026-04-11T08:11:47.005Z</time></trkpt><trkpt lat="43.3644854" lon="11.4225645"><ele>268.66666666666663</ele><time>2026-04-11T08:11:48.006Z</time></trkpt><trkpt lat="43.3644743" lon="11.4223425"><ele>266.3333333333333</ele><time>2026-04-11T08:11:49.005Z</time></trkpt><trkpt lat="43.3644628" lon="11.4221419"><ele>264.0</ele><time>2026-04-11T08:11:50.006Z</time></trkpt><trkpt lat="43.3644547" lon="11.4219255"><ele>262.25</ele><time>2026-04-11T08:11:51.005Z</time></trkpt><trkpt lat="43.3644488" lon="11.4217135"><ele>260.5</ele><time>2026-04-11T08:11:52.006Z</time></trkpt><trkpt lat="43.3644233" lon="11.4215153"><ele>258.75</ele><time>2026-04-11T08:11:53.005Z</time></trkpt><trkpt lat="43.3643882" lon="11.4213263"><ele>257.0</ele><time>2026-04-11T08:11:54.005Z</time></trkpt><trkpt lat="43.3643416" lon="11.4211434"><ele>256.75</ele><time>2026-04-11T08:11:55.006Z</time></trkpt><trkpt lat="43.3642848" lon="11.4209605"><ele>256.5</ele><time>2026-04-11T08:11:56.006Z</time></trkpt><trkpt lat="43.3642284" lon="11.4207763"><ele>256.25</ele><time>2026-04-11T08:11:57.005Z</time></trkpt><trkpt lat="43.3641815" lon="11.4206077"><ele>256.0</ele><time>2026-04-11T08:11:58.006Z</time></trkpt><trkpt lat="43.3641395" lon="11.4204446"><ele>255.5</ele><time>2026-04-11T08:11:59.006Z</time></trkpt><trkpt lat="43.3641033" lon="11.4202665"><ele>255.0</ele><time>2026-04-11T08:12:00.006Z</time></trkpt><trkpt lat="43.3640819" lon="11.420089"><ele>254.5</ele><time>2026-04-11T08:12:01.005Z</time></trkpt><trkpt lat="43.3640665" lon="11.4199146"><ele>254.0</ele><time>2026-04-11T08:12:02.005Z</time></trkpt><trkpt lat="43.3640546" lon="11.419739"><ele>253.0</ele><time>2026-04-11T08:12:03.006Z</time></trkpt><trkpt lat="43.3640455" lon="11.4195778"><ele>252.0</ele><time>2026-04-11T08:12:04.006Z</time></trkpt><trkpt lat="43.3640367" lon="11.4194182"><ele>251.0</ele><time>2026-04-11T08:12:05.006Z</time></trkpt><trkpt lat="43.3640255" lon="11.4192616"><ele>250.0</ele><time>2026-04-11T08:12:06.006Z</time></trkpt><trkpt lat="43.3640209" lon="11.4191072"><ele>249.99999999999997</ele><time>2026-04-11T08:12:07.005Z</time></trkpt><trkpt lat="43.3640225" lon="11.4189582"><ele>250.0</ele><time>2026-04-11T08:12:08.006Z</time></trkpt><trkpt lat="43.3640238" lon="11.4188406"><ele>250.0</ele><time>2026-04-11T08:12:09.006Z</time></trkpt><trkpt lat="43.3639882" lon="11.4186913"><ele>250.0</ele><time>2026-04-11T08:12:11.005Z</time></trkpt><trkpt lat="43.3639392" lon="11.4186256"><ele>249.99999999999997</ele><time>2026-04-11T08:12:12.006Z</time></trkpt><trkpt lat="43.3638786" lon="11.4185735"><ele>250.0</ele><time>2026-04-11T08:12:13.006Z</time></trkpt><trkpt lat="43.3638033" lon="11.4185397"><ele>248.33333333333331</ele><time>2026-04-11T08:12:14.006Z</time></trkpt><trkpt lat="43.3637346" lon="11.4185221"><ele>246.66666666666666</ele><time>2026-04-11T08:12:17.006Z</time></trkpt><trkpt lat="43.3636885" lon="11.4184611"><ele>245.0</ele><time>2026-04-11T08:12:25.007Z</time></trkpt><trkpt lat="43.3636128" lon="11.4184346"><ele>243.33333333333331</ele><time>2026-04-11T08:12:26.006Z</time></trkpt><trkpt lat="43.3635041" lon="11.4184233"><ele>241.66666666666666</ele><time>2026-04-11T08:12:27.007Z</time></trkpt><trkpt lat="43.3633764" lon="11.4184333"><ele>240.0</ele><time>2026-04-11T08:12:28.006Z</time></trkpt><trkpt lat="43.3632315" lon="11.418439"><ele>240.0</ele><time>2026-04-11T08:12:29.006Z</time></trkpt><trkpt lat="43.3630767" lon="11.4184251"><ele>240.0</ele><time>2026-04-11T08:12:30.007Z</time></trkpt><trkpt lat="43.3629286" lon="11.4183943"><ele>240.0</ele><time>2026-04-11T08:12:31.006Z</time></trkpt><trkpt lat="43.3627929" lon="11.4183562"><ele>240.0</ele><time>2026-04-11T08:12:32.007Z</time></trkpt><trkpt lat="43.3626723" lon="11.4183163"><ele>239.25</ele><time>2026-04-11T08:12:33.007Z</time></trkpt><trkpt lat="43.3625532" lon="11.4182742"><ele>238.5</ele><time>2026-04-11T08:12:34.007Z</time></trkpt><trkpt lat="43.3624292" lon="11.4182361"><ele>237.75</ele><time>2026-04-11T08:12:35.006Z</time></trkpt><trkpt lat="43.362305" lon="11.4182204"><ele>237.0</ele><time>2026-04-11T08:12:36.006Z</time></trkpt><trkpt lat="43.3621852" lon="11.4182485"><ele>235.5</ele><time>2026-04-11T08:12:37.006Z</time></trkpt><trkpt lat="43.3620739" lon="11.4183242"><ele>234.0</ele><time>2026-04-11T08:12:38.006Z</time></trkpt><trkpt lat="43.3619788" lon="11.4184378"><ele>232.5</ele><time>2026-04-11T08:12:39.006Z</time></trkpt><trkpt lat="43.3618867" lon="11.4185909"><ele>231.0</ele><time>2026-04-11T08:12:40.007Z</time></trkpt><trkpt lat="43.3617906" lon="11.4187628"><ele>231.25</ele><time>2026-04-11T08:12:41.006Z</time></trkpt><trkpt lat="43.3616975" lon="11.418947"><ele>231.5</ele><time>2026-04-11T08:12:42.006Z</time></trkpt><trkpt lat="43.3615983" lon="11.41909"><ele>231.75</ele><time>2026-04-11T08:12:43.007Z</time></trkpt><trkpt lat="43.3614821" lon="11.4191946"><ele>232.0</ele><time>2026-04-11T08:12:44.006Z</time></trkpt><trkpt lat="43.3613288" lon="11.4192658"><ele>232.0</ele><time>2026-04-11T08:12:45.007Z</time></trkpt><trkpt lat="43.3611648" lon="11.4193128"><ele>232.0</ele><time>2026-04-11T08:12:46.007Z</time></trkpt><trkpt lat="43.3609887" lon="11.4193572"><ele>232.0</ele><time>2026-04-11T08:12:47.006Z</time></trkpt><trkpt lat="43.3608101" lon="11.419411"><ele>232.0</ele><time>2026-04-11T08:12:48.006Z</time></trkpt><trkpt lat="43.3606331" lon="11.4194767"><ele>232.0</ele><time>2026-04-11T08:12:49.006Z</time></trkpt><trkpt lat="43.360239" lon="11.419613"><ele>232.0</ele><time>2026-04-11T08:12:51.006Z</time></trkpt><trkpt lat="43.3600451" lon="11.4196804"><ele>232.0</ele><time>2026-04-11T08:12:52.006Z</time></trkpt><trkpt lat="43.3598561" lon="11.4197455"><ele>232.0</ele><time>2026-04-11T08:12:53.007Z</time></trkpt><trkpt lat="43.359683" lon="11.4198031"><ele>230.66666666666666</ele><time>2026-04-11T08:12:54.007Z</time></trkpt><trkpt lat="43.3595208" lon="11.4198626"><ele>229.33333333333331</ele><time>2026-04-11T08:12:55.007Z</time></trkpt><trkpt lat="43.3593675" lon="11.419918"><ele>228.0</ele><time>2026-04-11T08:12:56.006Z</time></trkpt><trkpt lat="43.3592262" lon="11.4199426"><ele>228.0</ele><time>2026-04-11T08:12:57.007Z</time></trkpt><trkpt lat="43.3591103" lon="11.4199237"><ele>228.0</ele><time>2026-04-11T08:12:58.006Z</time></trkpt><trkpt lat="43.3590093" lon="11.4198612"><ele>228.0</ele><time>2026-04-11T08:12:59.006Z</time></trkpt><trkpt lat="43.3589121" lon="11.4197483"><ele>228.0</ele><time>2026-04-11T08:13:00.006Z</time></trkpt><trkpt lat="43.3588138" lon="11.4196055"><ele>226.0</ele><time>2026-04-11T08:13:01.006Z</time></trkpt><trkpt lat="43.3587083" lon="11.4194467"><ele>224.0</ele><time>2026-04-11T08:13:02.006Z</time></trkpt><trkpt lat="43.3585967" lon="11.4192785"><ele>222.0</ele><time>2026-04-11T08:13:03.006Z</time></trkpt><trkpt lat="43.3584862" lon="11.4191055"><ele>222.0</ele><time>2026-04-11T08:13:04.006Z</time></trkpt><trkpt lat="43.3583718" lon="11.4189283"><ele>222.0</ele><time>2026-04-11T08:13:05.006Z</time></trkpt><trkpt lat="43.358256" lon="11.4187506"><ele>222.0</ele><time>2026-04-11T08:13:06.007Z</time></trkpt><trkpt lat="43.3581428" lon="11.4185752"><ele>221.0</ele><time>2026-04-11T08:13:07.006Z</time></trkpt><trkpt lat="43.3580308" lon="11.4184019"><ele>220.0</ele><time>2026-04-11T08:13:08.007Z</time></trkpt><trkpt lat="43.3579176" lon="11.4182276"><ele>219.0</ele><time>2026-04-11T08:13:09.006Z</time></trkpt><trkpt lat="43.3578038" lon="11.4180534"><ele>219.33333333333331</ele><time>2026-04-11T08:13:10.007Z</time></trkpt><trkpt lat="43.3576929" lon="11.4178833"><ele>219.66666666666666</ele><time>2026-04-11T08:13:11.006Z</time></trkpt><trkpt lat="43.3575852" lon="11.4177168"><ele>220.0</ele><time>2026-04-11T08:13:12.006Z</time></trkpt><trkpt lat="43.3574816" lon="11.4175572"><ele>220.0</ele><time>2026-04-11T08:13:13.006Z</time></trkpt><trkpt lat="43.3573836" lon="11.4174055"><ele>220.0</ele><time>2026-04-11T08:13:14.007Z</time></trkpt><trkpt lat="43.3572933" lon="11.4172649"><ele>220.0</ele><time>2026-04-11T08:13:15.007Z</time></trkpt><trkpt lat="43.3572085" lon="11.4171332"><ele>220.0</ele><time>2026-04-11T08:13:16.007Z</time></trkpt><trkpt lat="43.3571305" lon="11.4170066"><ele>219.75</ele><time>2026-04-11T08:13:17.007Z</time></trkpt><trkpt lat="43.3570498" lon="11.4168804"><ele>219.5</ele><time>2026-04-11T08:13:18.007Z</time></trkpt><trkpt lat="43.356963" lon="11.4167535"><ele>219.25</ele><time>2026-04-11T08:13:19.007Z</time></trkpt><trkpt lat="43.3568763" lon="11.4166266"><ele>219.0</ele><time>2026-04-11T08:13:20.007Z</time></trkpt><trkpt lat="43.3567869" lon="11.4164963"><ele>219.0</ele><time>2026-04-11T08:13:21.007Z</time></trkpt><trkpt lat="43.356698" lon="11.4163594"><ele>219.0</ele><time>2026-04-11T08:13:22.008Z</time></trkpt><trkpt lat="43.3566143" lon="11.4162184"><ele>219.0</ele><time>2026-04-11T08:13:23.008Z</time></trkpt><trkpt lat="43.3565399" lon="11.4160859"><ele>219.0</ele><time>2026-04-11T08:13:24.008Z</time></trkpt><trkpt lat="43.3564822" lon="11.4159836"><ele>219.33333333333334</ele><time>2026-04-11T08:13:25.007Z</time></trkpt><trkpt lat="43.3564361" lon="11.4159087"><ele>219.66666666666669</ele><time>2026-04-11T08:13:26.007Z</time></trkpt><trkpt lat="43.3563674" lon="11.4158085"><ele>220.0</ele><time>2026-04-11T08:13:28.007Z</time></trkpt><trkpt lat="43.3563594" lon="11.4157126"><ele>220.33333333333334</ele><time>2026-04-11T08:19:35.04Z</time></trkpt><trkpt lat="43.3563707" lon="11.4156244"><ele>220.66666666666669</ele><time>2026-04-11T08:19:36.012Z</time></trkpt><trkpt lat="43.3563804" lon="11.4154835"><ele>221.0</ele><time>2026-04-11T08:19:37.013Z</time></trkpt><trkpt lat="43.3564021" lon="11.4153371"><ele>222.20000000000002</ele><time>2026-04-11T08:19:38.013Z</time></trkpt><trkpt lat="43.3564267" lon="11.4151983"><ele>223.40000000000003</ele><time>2026-04-11T08:19:39.012Z</time></trkpt><trkpt lat="43.3564507" lon="11.4150653"><ele>224.6</ele><time>2026-04-11T08:19:40.013Z</time></trkpt><trkpt lat="43.3564748" lon="11.4149412"><ele>225.8</ele><time>2026-04-11T08:19:41.012Z</time></trkpt><trkpt lat="43.3564978" lon="11.4148414"><ele>227.0</ele><time>2026-04-11T08:19:42.012Z</time></trkpt><trkpt lat="43.3565265" lon="11.4147237"><ele>227.8</ele><time>2026-04-11T08:19:44.013Z</time></trkpt><trkpt lat="43.3565583" lon="11.4146311"><ele>228.6</ele><time>2026-04-11T08:20:02.014Z</time></trkpt><trkpt lat="43.356579" lon="11.4145175"><ele>229.40000000000003</ele><time>2026-04-11T08:20:03.013Z</time></trkpt><trkpt lat="43.3566062" lon="11.4143845"><ele>230.20000000000002</ele><time>2026-04-11T08:20:04.013Z</time></trkpt><trkpt lat="43.3566414" lon="11.4142371"><ele>231.0</ele><time>2026-04-11T08:20:05.014Z</time></trkpt><trkpt lat="43.3566774" lon="11.4140955"><ele>231.0</ele><time>2026-04-11T08:20:06.013Z</time></trkpt><trkpt lat="43.3567136" lon="11.4139512"><ele>231.0</ele><time>2026-04-11T08:20:07.014Z</time></trkpt><trkpt lat="43.3567524" lon="11.4137969"><ele>231.0</ele><time>2026-04-11T08:20:08.013Z</time></trkpt><trkpt lat="43.3567935" lon="11.4136386"><ele>231.0</ele><time>2026-04-11T08:20:09.014Z</time></trkpt><trkpt lat="43.3568362" lon="11.4134819"><ele>231.60000000000002</ele><time>2026-04-11T08:20:10.014Z</time></trkpt><trkpt lat="43.3568778" lon="11.4133304"><ele>232.20000000000002</ele><time>2026-04-11T08:20:11.013Z</time></trkpt><trkpt lat="43.3569202" lon="11.4131879"><ele>232.79999999999998</ele><time>2026-04-11T08:20:12.013Z</time></trkpt><trkpt lat="43.3569628" lon="11.4130532"><ele>233.39999999999998</ele><time>2026-04-11T08:20:13.013Z</time></trkpt><trkpt lat="43.3570081" lon="11.4129222"><ele>234.0</ele><time>2026-04-11T08:20:14.013Z</time></trkpt><trkpt lat="43.3570539" lon="11.4127938"><ele>234.6</ele><time>2026-04-11T08:20:15.014Z</time></trkpt><trkpt lat="43.3571016" lon="11.4126708"><ele>235.2</ele><time>2026-04-11T08:20:16.013Z</time></trkpt><trkpt lat="43.3571544" lon="11.4125504"><ele>235.79999999999998</ele><time>2026-04-11T08:20:17.013Z</time></trkpt><trkpt lat="43.3572104" lon="11.4124425"><ele>236.39999999999998</ele><time>2026-04-11T08:20:18.014Z</time></trkpt><trkpt lat="43.3572679" lon="11.4123555"><ele>237.0</ele><time>2026-04-11T08:20:19.014Z</time></trkpt><trkpt lat="43.357336" lon="11.4122997"><ele>237.83333333333334</ele><time>2026-04-11T08:20:20.013Z</time></trkpt><trkpt lat="43.3574109" lon="11.4122535"><ele>238.66666666666669</ele><time>2026-04-11T08:20:21.013Z</time></trkpt><trkpt lat="43.3574974" lon="11.4122231"><ele>239.5</ele><time>2026-04-11T08:20:22.014Z</time></trkpt><trkpt lat="43.3575893" lon="11.4122127"><ele>240.33333333333334</ele><time>2026-04-11T08:20:23.013Z</time></trkpt><trkpt lat="43.3576846" lon="11.4122239"><ele>241.16666666666669</ele><time>2026-04-11T08:20:24.013Z</time></trkpt><trkpt lat="43.3577717" lon="11.4122478"><ele>242.0</ele><time>2026-04-11T08:20:25.013Z</time></trkpt><trkpt lat="43.3578502" lon="11.4122825"><ele>242.0</ele><time>2026-04-11T08:20:26.013Z</time></trkpt><trkpt lat="43.3579436" lon="11.412336"><ele>242.0</ele><time>2026-04-11T08:20:27.013Z</time></trkpt><trkpt lat="43.3580356" lon="11.4123831"><ele>242.0</ele><time>2026-04-11T08:20:28.013Z</time></trkpt><trkpt lat="43.358135" lon="11.4124243"><ele>242.0</ele><time>2026-04-11T08:20:29.013Z</time></trkpt><trkpt lat="43.358239" lon="11.4124421"><ele>242.0</ele><time>2026-04-11T08:20:30.014Z</time></trkpt><trkpt lat="43.3583444" lon="11.4124373"><ele>243.0</ele><time>2026-04-11T08:20:31.013Z</time></trkpt><trkpt lat="43.3584425" lon="11.4124255"><ele>244.0</ele><time>2026-04-11T08:20:32.014Z</time></trkpt><trkpt lat="43.3585354" lon="11.4124106"><ele>245.0</ele><time>2026-04-11T08:20:33.013Z</time></trkpt><trkpt lat="43.3586301" lon="11.4123915"><ele>246.0</ele><time>2026-04-11T08:20:34.013Z</time></trkpt><trkpt lat="43.3587305" lon="11.4123632"><ele>247.0</ele><time>2026-04-11T08:20:35.013Z</time></trkpt><trkpt lat="43.3588176" lon="11.4123271"><ele>247.28571428571428</ele><time>2026-04-11T08:20:36.014Z</time></trkpt><trkpt lat="43.3588875" lon="11.4122746"><ele>247.57142857142856</ele><time>2026-04-11T08:20:37.014Z</time></trkpt><trkpt lat="43.3589408" lon="11.4122134"><ele>247.85714285714283</ele><time>2026-04-11T08:20:38.014Z</time></trkpt><trkpt lat="43.3589812" lon="11.4121432"><ele>248.14285714285714</ele><time>2026-04-11T08:20:39.013Z</time></trkpt><trkpt lat="43.3590077" lon="11.4120592"><ele>248.4285714285714</ele><time>2026-04-11T08:20:40.013Z</time></trkpt><trkpt lat="43.3590212" lon="11.4119704"><ele>248.7142857142857</ele><time>2026-04-11T08:20:41.014Z</time></trkpt><trkpt lat="43.3590216" lon="11.4118702"><ele>249.0</ele><time>2026-04-11T08:20:42.014Z</time></trkpt><trkpt lat="43.3590139" lon="11.4117438"><ele>250.79999999999998</ele><time>2026-04-11T08:20:43.014Z</time></trkpt><trkpt lat="43.3590083" lon="11.4116087"><ele>252.59999999999997</ele><time>2026-04-11T08:20:44.014Z</time></trkpt><trkpt lat="43.3590072" lon="11.4114632"><ele>254.4</ele><time>2026-04-11T08:20:45.013Z</time></trkpt><trkpt lat="43.3590136" lon="11.4113163"><ele>256.2</ele><time>2026-04-11T08:20:46.013Z</time></trkpt><trkpt lat="43.3590289" lon="11.4111828"><ele>258.0</ele><time>2026-04-11T08:20:47.014Z</time></trkpt><trkpt lat="43.3590523" lon="11.4110712"><ele>258.85714285714283</ele><time>2026-04-11T08:20:48.013Z</time></trkpt><trkpt lat="43.3590887" lon="11.4109934"><ele>259.7142857142857</ele><time>2026-04-11T08:20:49.014Z</time></trkpt><trkpt lat="43.3591427" lon="11.4109257"><ele>260.57142857142856</ele><time>2026-04-11T08:20:50.013Z</time></trkpt><trkpt lat="43.3592012" lon="11.4108784"><ele>261.42857142857144</ele><time>2026-04-11T08:20:51.014Z</time></trkpt><trkpt lat="43.3592723" lon="11.4108648"><ele>262.2857142857143</ele><time>2026-04-11T08:20:52.013Z</time></trkpt><trkpt lat="43.359343" lon="11.4108863"><ele>263.1428571428571</ele><time>2026-04-11T08:20:53.013Z</time></trkpt><trkpt lat="43.3594036" lon="11.410937"><ele>264.0</ele><time>2026-04-11T08:20:54.013Z</time></trkpt><trkpt lat="43.359459" lon="11.4110039"><ele>264.0</ele><time>2026-04-11T08:20:55.015Z</time></trkpt><trkpt lat="43.3595084" lon="11.4110982"><ele>264.0</ele><time>2026-04-11T08:20:56.014Z</time></trkpt><trkpt lat="43.3595576" lon="11.4112076"><ele>264.0</ele><time>2026-04-11T08:20:57.014Z</time></trkpt><trkpt lat="43.3595948" lon="11.4113413"><ele>264.0</ele><time>2026-04-11T08:20:58.015Z</time></trkpt><trkpt lat="43.3596225" lon="11.4114905"><ele>264.0</ele><time>2026-04-11T08:20:59.015Z</time></trkpt><trkpt lat="43.3596393" lon="11.4116505"><ele>262.8</ele><time>2026-04-11T08:21:00.014Z</time></trkpt><trkpt lat="43.3596531" lon="11.4117946"><ele>261.59999999999997</ele><time>2026-04-11T08:21:01.015Z</time></trkpt><trkpt lat="43.3596767" lon="11.4119147"><ele>260.4</ele><time>2026-04-11T08:21:02.014Z</time></trkpt><trkpt lat="43.3597123" lon="11.4119973"><ele>259.2</ele><time>2026-04-11T08:21:03.014Z</time></trkpt><trkpt lat="43.3597961" lon="11.4120733"><ele>258.0</ele><time>2026-04-11T08:21:05.015Z</time></trkpt><trkpt lat="43.3599131" lon="11.4120685"><ele>260.4</ele><time>2026-04-11T08:21:07.014Z</time></trkpt><trkpt lat="43.3599983" lon="11.4119699"><ele>262.8</ele><time>2026-04-11T08:21:09.015Z</time></trkpt><trkpt lat="43.3600069" lon="11.4117943"><ele>265.2</ele><time>2026-04-11T08:21:11.014Z</time></trkpt><trkpt lat="43.359986" lon="11.4116994"><ele>267.6</ele><time>2026-04-11T08:21:12.014Z</time></trkpt><trkpt lat="43.3599597" lon="11.4115931"><ele>270.0</ele><time>2026-04-11T08:21:13.014Z</time></trkpt><trkpt lat="43.3599406" lon="11.4114828"><ele>270.0</ele><time>2026-04-11T08:21:14.015Z</time></trkpt><trkpt lat="43.3599388" lon="11.4113691"><ele>270.0</ele><time>2026-04-11T08:21:15.015Z</time></trkpt><trkpt lat="43.3599531" lon="11.4112718"><ele>270.0</ele><time>2026-04-11T08:21:16.015Z</time></trkpt><trkpt lat="43.35998" lon="11.4111776"><ele>270.0</ele><time>2026-04-11T08:21:17.014Z</time></trkpt><trkpt lat="43.3600202" lon="11.4110921"><ele>270.0</ele><time>2026-04-11T08:21:18.014Z</time></trkpt><trkpt lat="43.3600647" lon="11.4110259"><ele>270.0</ele><time>2026-04-11T08:21:19.014Z</time></trkpt><trkpt lat="43.3601234" lon="11.4109662"><ele>270.0</ele><time>2026-04-11T08:21:20.014Z</time></trkpt><trkpt lat="43.3601922" lon="11.4109221"><ele>270.0</ele><time>2026-04-11T08:21:21.015Z</time></trkpt><trkpt lat="43.3602632" lon="11.4108908"><ele>270.0</ele><time>2026-04-11T08:21:22.014Z</time></trkpt><trkpt lat="43.3603355" lon="11.4108716"><ele>270.0</ele><time>2026-04-11T08:21:23.014Z</time></trkpt><trkpt lat="43.3604086" lon="11.4108534"><ele>270.0</ele><time>2026-04-11T08:21:24.014Z</time></trkpt><trkpt lat="43.3604845" lon="11.4108258"><ele>270.0</ele><time>2026-04-11T08:21:25.014Z</time></trkpt><trkpt lat="43.3605627" lon="11.4107908"><ele>270.0</ele><time>2026-04-11T08:21:26.015Z</time></trkpt><trkpt lat="43.3607162" lon="11.4106958"><ele>271.3333333333333</ele><time>2026-04-11T08:21:28.015Z</time></trkpt><trkpt lat="43.3607816" lon="11.4106156"><ele>272.6666666666667</ele><time>2026-04-11T08:21:29.014Z</time></trkpt><trkpt lat="43.3608289" lon="11.4105179"><ele>274.0</ele><time>2026-04-11T08:21:30.014Z</time></trkpt><trkpt lat="43.3608571" lon="11.4104054"><ele>275.33333333333337</ele><time>2026-04-11T08:21:31.014Z</time></trkpt><trkpt lat="43.3608795" lon="11.4102929"><ele>276.6666666666667</ele><time>2026-04-11T08:21:32.015Z</time></trkpt><trkpt lat="43.3608761" lon="11.4101653"><ele>278.0</ele><time>2026-04-11T08:21:33.014Z</time></trkpt><trkpt lat="43.3608498" lon="11.4100441"><ele>278.6</ele><time>2026-04-11T08:21:34.014Z</time></trkpt><trkpt lat="43.3608107" lon="11.40992"><ele>279.20000000000005</ele><time>2026-04-11T08:21:35.015Z</time></trkpt><trkpt lat="43.3607658" lon="11.4097935"><ele>279.8</ele><time>2026-04-11T08:21:36.015Z</time></trkpt><trkpt lat="43.3607154" lon="11.4096592"><ele>280.40000000000003</ele><time>2026-04-11T08:21:37.015Z</time></trkpt><trkpt lat="43.3606632" lon="11.4095204"><ele>281.0</ele><time>2026-04-11T08:21:38.015Z</time></trkpt><trkpt lat="43.3606063" lon="11.4093792"><ele>280.75</ele><time>2026-04-11T08:21:39.015Z</time></trkpt><trkpt lat="43.3605419" lon="11.4092391"><ele>280.5</ele><time>2026-04-11T08:21:40.015Z</time></trkpt><trkpt lat="43.3604724" lon="11.4091038"><ele>280.25</ele><time>2026-04-11T08:21:41.014Z</time></trkpt><trkpt lat="43.3603996" lon="11.4089796"><ele>280.0</ele><time>2026-04-11T08:21:42.014Z</time></trkpt><trkpt lat="43.3603202" lon="11.4088699"><ele>282.25</ele><time>2026-04-11T08:21:43.015Z</time></trkpt><trkpt lat="43.3602361" lon="11.4087679"><ele>284.5</ele><time>2026-04-11T08:21:44.016Z</time></trkpt><trkpt lat="43.3601385" lon="11.4086802"><ele>286.75</ele><time>2026-04-11T08:21:45.015Z</time></trkpt><trkpt lat="43.360038" lon="11.4085965"><ele>289.0</ele><time>2026-04-11T08:21:46.014Z</time></trkpt><trkpt lat="43.3599335" lon="11.4085167"><ele>289.0</ele><time>2026-04-11T08:21:47.015Z</time></trkpt><trkpt lat="43.3598322" lon="11.4084413"><ele>289.0</ele><time>2026-04-11T08:21:48.014Z</time></trkpt><trkpt lat="43.3597361" lon="11.4083687"><ele>289.0</ele><time>2026-04-11T08:21:49.015Z</time></trkpt><trkpt lat="43.3596477" lon="11.4082967"><ele>289.0</ele><time>2026-04-11T08:21:50.014Z</time></trkpt><trkpt lat="43.3595729" lon="11.4082106"><ele>289.0</ele><time>2026-04-11T08:21:51.015Z</time></trkpt><trkpt lat="43.3595205" lon="11.4081067"><ele>290.16666666666663</ele><time>2026-04-11T08:21:52.015Z</time></trkpt><trkpt lat="43.3594936" lon="11.4079917"><ele>291.3333333333333</ele><time>2026-04-11T08:21:53.014Z</time></trkpt><trkpt lat="43.3594914" lon="11.4078765"><ele>292.5</ele><time>2026-04-11T08:21:54.016Z</time></trkpt><trkpt lat="43.3595118" lon="11.4077662"><ele>293.6666666666667</ele><time>2026-04-11T08:21:55.014Z</time></trkpt><trkpt lat="43.3595492" lon="11.4076624"><ele>294.83333333333337</ele><time>2026-04-11T08:21:56.014Z</time></trkpt><trkpt lat="43.3596016" lon="11.40757"><ele>296.0</ele><time>2026-04-11T08:21:57.015Z</time></trkpt><trkpt lat="43.3596673" lon="11.4074907"><ele>295.83333333333337</ele><time>2026-04-11T08:21:58.014Z</time></trkpt><trkpt lat="43.3597437" lon="11.407428"><ele>295.6666666666667</ele><time>2026-04-11T08:21:59.015Z</time></trkpt><trkpt lat="43.359828" lon="11.4073932"><ele>295.5</ele><time>2026-04-11T08:22:00.016Z</time></trkpt><trkpt lat="43.3599155" lon="11.407388"><ele>295.3333333333333</ele><time>2026-04-11T08:22:01.016Z</time></trkpt><trkpt lat="43.3600038" lon="11.4074054"><ele>295.16666666666663</ele><time>2026-04-11T08:22:02.015Z</time></trkpt><trkpt lat="43.3600953" lon="11.4074318"><ele>295.0</ele><time>2026-04-11T08:22:03.016Z</time></trkpt><trkpt lat="43.3601933" lon="11.4074585"><ele>295.0</ele><time>2026-04-11T08:22:04.015Z</time></trkpt><trkpt lat="43.3602973" lon="11.4074839"><ele>295.0</ele><time>2026-04-11T08:22:05.016Z</time></trkpt><trkpt lat="43.3604057" lon="11.4075058"><ele>295.0</ele><time>2026-04-11T08:22:06.016Z</time></trkpt><trkpt lat="43.360513" lon="11.4075228"><ele>295.0</ele><time>2026-04-11T08:22:07.016Z</time></trkpt><trkpt lat="43.3606212" lon="11.4075404"><ele>295.0</ele><time>2026-04-11T08:22:08.016Z</time></trkpt><trkpt lat="43.3607296" lon="11.4075571"><ele>295.75</ele><time>2026-04-11T08:22:09.016Z</time></trkpt><trkpt lat="43.3608429" lon="11.4075689"><ele>296.5</ele><time>2026-04-11T08:22:10.015Z</time></trkpt><trkpt lat="43.3609595" lon="11.4075692"><ele>297.25</ele><time>2026-04-11T08:22:11.016Z</time></trkpt><trkpt lat="43.3610789" lon="11.4075604"><ele>298.0</ele><time>2026-04-11T08:22:12.016Z</time></trkpt><trkpt lat="43.3612028" lon="11.407547"><ele>298.0</ele><time>2026-04-11T08:22:13.016Z</time></trkpt><trkpt lat="43.361333" lon="11.4075291"><ele>298.0</ele><time>2026-04-11T08:22:14.016Z</time></trkpt><trkpt lat="43.3614635" lon="11.4075066"><ele>298.0</ele><time>2026-04-11T08:22:15.016Z</time></trkpt><trkpt lat="43.3615878" lon="11.4074819"><ele>298.0</ele><time>2026-04-11T08:22:16.016Z</time></trkpt><trkpt lat="43.3617042" lon="11.4074517"><ele>300.0</ele><time>2026-04-11T08:22:17.015Z</time></trkpt><trkpt lat="43.3618195" lon="11.4074167"><ele>302.0</ele><time>2026-04-11T08:22:18.015Z</time></trkpt><trkpt lat="43.3619364" lon="11.4073761"><ele>304.0</ele><time>2026-04-11T08:22:19.016Z</time></trkpt><trkpt lat="43.3620556" lon="11.4073342"><ele>306.0</ele><time>2026-04-11T08:22:20.016Z</time></trkpt><trkpt lat="43.3621795" lon="11.4072918"><ele>307.25</ele><time>2026-04-11T08:22:21.016Z</time></trkpt><trkpt lat="43.3623114" lon="11.4072542"><ele>308.5</ele><time>2026-04-11T08:22:22.016Z</time></trkpt><trkpt lat="43.3624503" lon="11.407212"><ele>309.75</ele><time>2026-04-11T08:22:23.015Z</time></trkpt><trkpt lat="43.3625992" lon="11.4071585"><ele>311.0</ele><time>2026-04-11T08:22:24.016Z</time></trkpt><trkpt lat="43.3627537" lon="11.4070937"><ele>311.0</ele><time>2026-04-11T08:22:25.015Z</time></trkpt><trkpt lat="43.3628957" lon="11.4070295"><ele>311.0</ele><time>2026-04-11T08:22:26.015Z</time></trkpt><trkpt lat="43.3630136" lon="11.4069751"><ele>311.0</ele><time>2026-04-11T08:22:27.016Z</time></trkpt><trkpt lat="43.3631151" lon="11.4069198"><ele>311.0</ele><time>2026-04-11T08:22:28.015Z</time></trkpt><trkpt lat="43.3632169" lon="11.4068594"><ele>313.0</ele><time>2026-04-11T08:22:29.015Z</time></trkpt><trkpt lat="43.363327" lon="11.4067801"><ele>315.0</ele><time>2026-04-11T08:22:30.016Z</time></trkpt><trkpt lat="43.3634433" lon="11.4066982"><ele>317.0</ele><time>2026-04-11T08:22:31.015Z</time></trkpt><trkpt lat="43.3635622" lon="11.406622"><ele>319.0</ele><time>2026-04-11T08:22:32.015Z</time></trkpt><trkpt lat="43.3636799" lon="11.4065452"><ele>319.0</ele><time>2026-04-11T08:22:33.015Z</time></trkpt><trkpt lat="43.3637942" lon="11.406467"><ele>319.0</ele><time>2026-04-11T08:22:34.015Z</time></trkpt><trkpt lat="43.3639048" lon="11.4063902"><ele>319.0</ele><time>2026-04-11T08:22:35.016Z</time></trkpt><trkpt lat="43.3640127" lon="11.4063118"><ele>319.0</ele><time>2026-04-11T08:22:36.015Z</time></trkpt><trkpt lat="43.3641179" lon="11.4062332"><ele>321.0</ele><time>2026-04-11T08:22:37.015Z</time></trkpt><trkpt lat="43.3642214" lon="11.4061545"><ele>323.0</ele><time>2026-04-11T08:22:38.015Z</time></trkpt><trkpt lat="43.3643239" lon="11.4060768"><ele>325.0</ele><time>2026-04-11T08:22:39.015Z</time></trkpt><trkpt lat="43.364424" lon="11.4060087"><ele>327.0</ele><time>2026-04-11T08:22:40.015Z</time></trkpt><trkpt lat="43.3645141" lon="11.4059586"><ele>329.0</ele><time>2026-04-11T08:22:41.015Z</time></trkpt><trkpt lat="43.3645952" lon="11.405933"><ele>329.0</ele><time>2026-04-11T08:22:42.015Z</time></trkpt><trkpt lat="43.3646656" lon="11.4059431"><ele>329.0</ele><time>2026-04-11T08:22:43.016Z</time></trkpt><trkpt lat="43.3647587" lon="11.4060537"><ele>329.0</ele><time>2026-04-11T08:22:45.016Z</time></trkpt><trkpt lat="43.3648066" lon="11.406137"><ele>329.0</ele><time>2026-04-11T08:22:46.015Z</time></trkpt><trkpt lat="43.3648617" lon="11.4062367"><ele>329.0</ele><time>2026-04-11T08:22:47.015Z</time></trkpt><trkpt lat="43.3649254" lon="11.4063346"><ele>331.0</ele><time>2026-04-11T08:22:48.016Z</time></trkpt><trkpt lat="43.3649888" lon="11.4064097"><ele>333.0</ele><time>2026-04-11T08:22:49.016Z</time></trkpt><trkpt lat="43.365044" lon="11.4064539"><ele>335.0</ele><time>2026-04-11T08:22:50.016Z</time></trkpt><trkpt lat="43.3651427" lon="11.4064732"><ele>337.0</ele><time>2026-04-11T08:22:52.015Z</time></trkpt><trkpt lat="43.3652803" lon="11.4064383"><ele>339.0</ele><time>2026-04-11T08:22:54.016Z</time></trkpt><trkpt lat="43.3653697" lon="11.4063978"><ele>339.0</ele><time>2026-04-11T08:22:55.015Z</time></trkpt><trkpt lat="43.3654663" lon="11.4063452"><ele>339.0</ele><time>2026-04-11T08:22:56.016Z</time></trkpt><trkpt lat="43.3655751" lon="11.406291"><ele>339.0</ele><time>2026-04-11T08:22:57.015Z</time></trkpt><trkpt lat="43.3656858" lon="11.4062452"><ele>339.0</ele><time>2026-04-11T08:22:58.016Z</time></trkpt><trkpt lat="43.3657861" lon="11.4062068"><ele>339.0</ele><time>2026-04-11T08:22:59.016Z</time></trkpt><trkpt lat="43.3658684" lon="11.406173"><ele>340.0</ele><time>2026-04-11T08:23:00.015Z</time></trkpt><trkpt lat="43.3659347" lon="11.4061291"><ele>341.0</ele><time>2026-04-11T08:23:01.015Z</time></trkpt><trkpt lat="43.3659891" lon="11.40607"><ele>342.0</ele><time>2026-04-11T08:23:02.015Z</time></trkpt><trkpt lat="43.3660398" lon="11.4059832"><ele>343.0</ele><time>2026-04-11T08:23:03.016Z</time></trkpt><trkpt lat="43.3660914" lon="11.4058506"><ele>344.0</ele><time>2026-04-11T08:23:04.016Z</time></trkpt><trkpt lat="43.3661438" lon="11.4056885"><ele>344.0</ele><time>2026-04-11T08:23:05.017Z</time></trkpt><trkpt lat="43.3662068" lon="11.405514"><ele>344.0</ele><time>2026-04-11T08:23:06.017Z</time></trkpt><trkpt lat="43.3662746" lon="11.4053384"><ele>344.0</ele><time>2026-04-11T08:23:07.017Z</time></trkpt><trkpt lat="43.366343" lon="11.4051646"><ele>344.0</ele><time>2026-04-11T08:23:08.017Z</time></trkpt><trkpt lat="43.3664106" lon="11.4049897"><ele>344.0</ele><time>2026-04-11T08:23:09.017Z</time></trkpt><trkpt lat="43.3664732" lon="11.4048221"><ele>344.0</ele><time>2026-04-11T08:23:10.017Z</time></trkpt><trkpt lat="43.3665457" lon="11.4046623"><ele>344.0</ele><time>2026-04-11T08:23:11.016Z</time></trkpt><trkpt lat="43.3666316" lon="11.4045194"><ele>344.0</ele><time>2026-04-11T08:23:12.017Z</time></trkpt><trkpt lat="43.3667322" lon="11.404397"><ele>345.25</ele><time>2026-04-11T08:23:13.017Z</time></trkpt><trkpt lat="43.3668475" lon="11.4043041"><ele>346.5</ele><time>2026-04-11T08:23:14.016Z</time></trkpt><trkpt lat="43.3669766" lon="11.4042382"><ele>347.75</ele><time>2026-04-11T08:23:15.016Z</time></trkpt><trkpt lat="43.3671207" lon="11.4042028"><ele>349.0</ele><time>2026-04-11T08:23:16.017Z</time></trkpt><trkpt lat="43.3672672" lon="11.4041956"><ele>349.0</ele><time>2026-04-11T08:23:17.016Z</time></trkpt><trkpt lat="43.3674096" lon="11.4042087"><ele>349.0</ele><time>2026-04-11T08:23:18.017Z</time></trkpt><trkpt lat="43.3675629" lon="11.4042408"><ele>349.0</ele><time>2026-04-11T08:23:19.017Z</time></trkpt><trkpt lat="43.3677232" lon="11.4042802"><ele>349.0</ele><time>2026-04-11T08:23:20.016Z</time></trkpt><trkpt lat="43.3678884" lon="11.4043225"><ele>349.0</ele><time>2026-04-11T08:23:21.016Z</time></trkpt><trkpt lat="43.3680599" lon="11.4043656"><ele>349.0</ele><time>2026-04-11T08:23:22.016Z</time></trkpt><trkpt lat="43.3682349" lon="11.4044024"><ele>350.0</ele><time>2026-04-11T08:23:23.017Z</time></trkpt><trkpt lat="43.3684015" lon="11.40444"><ele>351.0</ele><time>2026-04-11T08:23:24.017Z</time></trkpt><trkpt lat="43.3685607" lon="11.4044723"><ele>352.0</ele><time>2026-04-11T08:23:25.017Z</time></trkpt><trkpt lat="43.3687139" lon="11.4044961"><ele>352.75</ele><time>2026-04-11T08:23:26.016Z</time></trkpt><trkpt lat="43.3688673" lon="11.4045058"><ele>353.5</ele><time>2026-04-11T08:23:27.016Z</time></trkpt><trkpt lat="43.3690182" lon="11.4044978"><ele>354.25</ele><time>2026-04-11T08:23:28.017Z</time></trkpt><trkpt lat="43.3691601" lon="11.4044813"><ele>355.0</ele><time>2026-04-11T08:23:29.016Z</time></trkpt><trkpt lat="43.36929" lon="11.4044668"><ele>355.0</ele><time>2026-04-11T08:23:30.016Z</time></trkpt><trkpt lat="43.3694209" lon="11.4044582"><ele>355.0</ele><time>2026-04-11T08:23:31.016Z</time></trkpt><trkpt lat="43.3695551" lon="11.4044557"><ele>355.0</ele><time>2026-04-11T08:23:32.016Z</time></trkpt><trkpt lat="43.3696954" lon="11.4044597"><ele>355.0</ele><time>2026-04-11T08:23:33.017Z</time></trkpt><trkpt lat="43.3698346" lon="11.404466"><ele>356.5</ele><time>2026-04-11T08:23:34.017Z</time></trkpt><trkpt lat="43.3699694" lon="11.404473"><ele>358.0</ele><time>2026-04-11T08:23:35.017Z</time></trkpt><trkpt lat="43.3700955" lon="11.4044813"><ele>359.5</ele><time>2026-04-11T08:23:36.016Z</time></trkpt><trkpt lat="43.3702183" lon="11.4044891"><ele>361.0</ele><time>2026-04-11T08:23:37.016Z</time></trkpt><trkpt lat="43.3703389" lon="11.4044965"><ele>361.0</ele><time>2026-04-11T08:23:38.016Z</time></trkpt><trkpt lat="43.3704542" lon="11.4045016"><ele>361.0</ele><time>2026-04-11T08:23:39.016Z</time></trkpt><trkpt lat="43.3705677" lon="11.4045008"><ele>361.0</ele><time>2026-04-11T08:23:40.016Z</time></trkpt><trkpt lat="43.3706778" lon="11.4044887"><ele>361.0</ele><time>2026-04-11T08:23:41.016Z</time></trkpt><trkpt lat="43.3707775" lon="11.4044626"><ele>361.0</ele><time>2026-04-11T08:23:42.016Z</time></trkpt><trkpt lat="43.3708614" lon="11.404415"><ele>362.0</ele><time>2026-04-11T08:23:43.017Z</time></trkpt><trkpt lat="43.3709413" lon="11.4043476"><ele>363.0</ele><time>2026-04-11T08:23:44.017Z</time></trkpt><trkpt lat="43.3710125" lon="11.4042547"><ele>364.0</ele><time>2026-04-11T08:23:45.017Z</time></trkpt><trkpt lat="43.3710778" lon="11.4041425"><ele>365.0</ele><time>2026-04-11T08:23:46.017Z</time></trkpt><trkpt lat="43.3711381" lon="11.4040102"><ele>366.0</ele><time>2026-04-11T08:23:47.017Z</time></trkpt><trkpt lat="43.3711955" lon="11.4038509"><ele>366.5</ele><time>2026-04-11T08:23:48.016Z</time></trkpt><trkpt lat="43.3712574" lon="11.4036752"><ele>367.0</ele><time>2026-04-11T08:23:49.017Z</time></trkpt><trkpt lat="43.3713243" lon="11.4034981"><ele>367.5</ele><time>2026-04-11T08:23:50.017Z</time></trkpt><trkpt lat="43.3713965" lon="11.4033171"><ele>368.0</ele><time>2026-04-11T08:23:51.017Z</time></trkpt><trkpt lat="43.3714726" lon="11.4031312"><ele>370.75</ele><time>2026-04-11T08:23:52.016Z</time></trkpt><trkpt lat="43.3715467" lon="11.4029484"><ele>373.5</ele><time>2026-04-11T08:23:53.016Z</time></trkpt><trkpt lat="43.3716165" lon="11.4027758"><ele>376.25</ele><time>2026-04-11T08:23:54.017Z</time></trkpt><trkpt lat="43.3716874" lon="11.4026091"><ele>379.0</ele><time>2026-04-11T08:23:55.016Z</time></trkpt><trkpt lat="43.3717629" lon="11.4024389"><ele>379.0</ele><time>2026-04-11T08:23:56.017Z</time></trkpt><trkpt lat="43.371832" lon="11.4022817"><ele>379.0</ele><time>2026-04-11T08:23:57.017Z</time></trkpt><trkpt lat="43.3718764" lon="11.4021388"><ele>379.0</ele><time>2026-04-11T08:23:58.017Z</time></trkpt><trkpt lat="43.3718992" lon="11.4019933"><ele>379.0</ele><time>2026-04-11T08:23:59.016Z</time></trkpt><trkpt lat="43.3719052" lon="11.4018452"><ele>379.4</ele><time>2026-04-11T08:24:00.017Z</time></trkpt><trkpt lat="43.3719142" lon="11.4016966"><ele>379.79999999999995</ele><time>2026-04-11T08:24:01.016Z</time></trkpt><trkpt lat="43.3719444" lon="11.4015679"><ele>380.20000000000005</ele><time>2026-04-11T08:24:02.016Z</time></trkpt><trkpt lat="43.372007" lon="11.4014536"><ele>380.6</ele><time>2026-04-11T08:24:03.016Z</time></trkpt><trkpt lat="43.3720951" lon="11.4013457"><ele>381.0</ele><time>2026-04-11T08:24:04.017Z</time></trkpt><trkpt lat="43.3722011" lon="11.4012496"><ele>382.25</ele><time>2026-04-11T08:24:05.017Z</time></trkpt><trkpt lat="43.3723204" lon="11.4011521"><ele>383.5</ele><time>2026-04-11T08:24:06.017Z</time></trkpt><trkpt lat="43.3724433" lon="11.4010566"><ele>384.75</ele><time>2026-04-11T08:24:07.017Z</time></trkpt><trkpt lat="43.3725568" lon="11.4009591"><ele>386.0</ele><time>2026-04-11T08:24:08.017Z</time></trkpt><trkpt lat="43.3726601" lon="11.4008483"><ele>386.0</ele><time>2026-04-11T08:24:09.018Z</time></trkpt><trkpt lat="43.3727494" lon="11.400737"><ele>386.0</ele><time>2026-04-11T08:24:10.017Z</time></trkpt><trkpt lat="43.3728428" lon="11.4006229"><ele>386.0</ele><time>2026-04-11T08:24:11.017Z</time></trkpt><trkpt lat="43.3729373" lon="11.4005169"><ele>386.0</ele><time>2026-04-11T08:24:12.017Z</time></trkpt><trkpt lat="43.3730372" lon="11.4004077"><ele>385.25</ele><time>2026-04-11T08:24:13.018Z</time></trkpt><trkpt lat="43.3731384" lon="11.4003047"><ele>384.5</ele><time>2026-04-11T08:24:14.017Z</time></trkpt><trkpt lat="43.3732388" lon="11.4002159"><ele>383.75</ele><time>2026-04-11T08:24:15.017Z</time></trkpt><trkpt lat="43.37334" lon="11.400146"><ele>383.0</ele><time>2026-04-11T08:24:16.018Z</time></trkpt><trkpt lat="43.3734497" lon="11.4000935"><ele>383.0</ele><time>2026-04-11T08:24:17.017Z</time></trkpt><trkpt lat="43.3735736" lon="11.400049"><ele>383.0</ele><time>2026-04-11T08:24:18.017Z</time></trkpt><trkpt lat="43.3737071" lon="11.4000035"><ele>383.0</ele><time>2026-04-11T08:24:19.017Z</time></trkpt><trkpt lat="43.3738353" lon="11.399957"><ele>383.0</ele><time>2026-04-11T08:24:20.017Z</time></trkpt><trkpt lat="43.3739539" lon="11.3999076"><ele>383.0</ele><time>2026-04-11T08:24:21.018Z</time></trkpt><trkpt lat="43.3740618" lon="11.3998544"><ele>383.0</ele><time>2026-04-11T08:24:22.017Z</time></trkpt><trkpt lat="43.3741656" lon="11.3997917"><ele>383.0</ele><time>2026-04-11T08:24:23.017Z</time></trkpt><trkpt lat="43.3742648" lon="11.3997198"><ele>383.0</ele><time>2026-04-11T08:24:24.018Z</time></trkpt><trkpt lat="43.3743678" lon="11.3996305"><ele>382.75</ele><time>2026-04-11T08:24:25.018Z</time></trkpt><trkpt lat="43.3744761" lon="11.3995235"><ele>382.5</ele><time>2026-04-11T08:24:26.017Z</time></trkpt><trkpt lat="43.3745922" lon="11.399402"><ele>382.25</ele><time>2026-04-11T08:24:27.017Z</time></trkpt><trkpt lat="43.3747135" lon="11.3992718"><ele>382.0</ele><time>2026-04-11T08:24:28.018Z</time></trkpt><trkpt lat="43.3748385" lon="11.3991323"><ele>382.0</ele><time>2026-04-11T08:24:29.018Z</time></trkpt><trkpt lat="43.3749602" lon="11.3989912"><ele>382.0</ele><time>2026-04-11T08:24:30.018Z</time></trkpt><trkpt lat="43.3750753" lon="11.3988558"><ele>382.0</ele><time>2026-04-11T08:24:31.017Z</time></trkpt><trkpt lat="43.3751845" lon="11.3987336"><ele>382.25</ele><time>2026-04-11T08:24:32.018Z</time></trkpt><trkpt lat="43.3752894" lon="11.3986244"><ele>382.5</ele><time>2026-04-11T08:24:33.017Z</time></trkpt><trkpt lat="43.3753946" lon="11.3985309"><ele>382.75</ele><time>2026-04-11T08:24:34.017Z</time></trkpt><trkpt lat="43.3755042" lon="11.3984518"><ele>383.0</ele><time>2026-04-11T08:24:35.017Z</time></trkpt><trkpt lat="43.3756217" lon="11.3983855"><ele>383.0</ele><time>2026-04-11T08:24:36.017Z</time></trkpt><trkpt lat="43.3757503" lon="11.3983258"><ele>383.0</ele><time>2026-04-11T08:24:37.017Z</time></trkpt><trkpt lat="43.3758832" lon="11.3982765"><ele>383.0</ele><time>2026-04-11T08:24:38.018Z</time></trkpt><trkpt lat="43.376018" lon="11.3982344"><ele>383.0</ele><time>2026-04-11T08:24:39.017Z</time></trkpt><trkpt lat="43.3761538" lon="11.3981928"><ele>383.0</ele><time>2026-04-11T08:24:40.017Z</time></trkpt><trkpt lat="43.376286" lon="11.398152"><ele>383.0</ele><time>2026-04-11T08:24:41.018Z</time></trkpt><trkpt lat="43.3764129" lon="11.3981085"><ele>383.0</ele><time>2026-04-11T08:24:42.018Z</time></trkpt><trkpt lat="43.3765429" lon="11.3980594"><ele>383.0</ele><time>2026-04-11T08:24:43.017Z</time></trkpt><trkpt lat="43.3766729" lon="11.3979961"><ele>384.0</ele><time>2026-04-11T08:24:44.018Z</time></trkpt><trkpt lat="43.3767905" lon="11.3979038"><ele>385.0</ele><time>2026-04-11T08:24:45.017Z</time></trkpt><trkpt lat="43.3768928" lon="11.3977907"><ele>386.0</ele><time>2026-04-11T08:24:46.017Z</time></trkpt><trkpt lat="43.3769883" lon="11.3976771"><ele>387.0</ele><time>2026-04-11T08:24:47.017Z</time></trkpt><trkpt lat="43.3770923" lon="11.3975625"><ele>386.75</ele><time>2026-04-11T08:24:48.018Z</time></trkpt><trkpt lat="43.3772077" lon="11.3974463"><ele>386.5</ele><time>2026-04-11T08:24:49.017Z</time></trkpt><trkpt lat="43.3773291" lon="11.3973327"><ele>386.25</ele><time>2026-04-11T08:24:50.017Z</time></trkpt><trkpt lat="43.3774514" lon="11.3972274"><ele>386.0</ele><time>2026-04-11T08:24:51.018Z</time></trkpt><trkpt lat="43.3775703" lon="11.3971386"><ele>386.75</ele><time>2026-04-11T08:24:52.018Z</time></trkpt><trkpt lat="43.3776961" lon="11.3970784"><ele>387.5</ele><time>2026-04-11T08:24:53.017Z</time></trkpt><trkpt lat="43.3778457" lon="11.397061"><ele>388.25</ele><time>2026-04-11T08:24:54.017Z</time></trkpt><trkpt lat="43.378011" lon="11.3970536"><ele>389.0</ele><time>2026-04-11T08:24:55.018Z</time></trkpt><trkpt lat="43.378186" lon="11.3970344"><ele>390.66666666666663</ele><time>2026-04-11T08:24:56.017Z</time></trkpt><trkpt lat="43.3783605" lon="11.3969804"><ele>392.33333333333337</ele><time>2026-04-11T08:24:57.018Z</time></trkpt><trkpt lat="43.3785369" lon="11.3969126"><ele>394.0</ele><time>2026-04-11T08:24:58.018Z</time></trkpt><trkpt lat="43.3787217" lon="11.3968412"><ele>396.0</ele><time>2026-04-11T08:24:59.017Z</time></trkpt><trkpt lat="43.3789091" lon="11.3967735"><ele>398.0</ele><time>2026-04-11T08:25:00.017Z</time></trkpt><trkpt lat="43.3790771" lon="11.3967149"><ele>400.0</ele><time>2026-04-11T08:25:01.017Z</time></trkpt><trkpt lat="43.3792332" lon="11.3966569"><ele>400.0</ele><time>2026-04-11T08:25:02.018Z</time></trkpt><trkpt lat="43.3793849" lon="11.3966011"><ele>400.0</ele><time>2026-04-11T08:25:03.018Z</time></trkpt><trkpt lat="43.3795428" lon="11.3965551"><ele>400.0</ele><time>2026-04-11T08:25:04.017Z</time></trkpt><trkpt lat="43.3797058" lon="11.3965208"><ele>401.33333333333337</ele><time>2026-04-11T08:25:05.017Z</time></trkpt><trkpt lat="43.3798718" lon="11.3964895"><ele>402.66666666666663</ele><time>2026-04-11T08:25:06.017Z</time></trkpt><trkpt lat="43.3800384" lon="11.3964511"><ele>404.0</ele><time>2026-04-11T08:25:07.017Z</time></trkpt><trkpt lat="43.3802085" lon="11.3964043"><ele>404.0</ele><time>2026-04-11T08:25:08.018Z</time></trkpt><trkpt lat="43.3803802" lon="11.3963606"><ele>404.0</ele><time>2026-04-11T08:25:09.018Z</time></trkpt><trkpt lat="43.3805549" lon="11.3963157"><ele>404.0</ele><time>2026-04-11T08:25:10.017Z</time></trkpt><trkpt lat="43.3807215" lon="11.3962756"><ele>405.3333333333333</ele><time>2026-04-11T08:25:11.018Z</time></trkpt><trkpt lat="43.3808752" lon="11.396246"><ele>406.66666666666663</ele><time>2026-04-11T08:25:12.018Z</time></trkpt><trkpt lat="43.3810232" lon="11.3962315"><ele>408.0</ele><time>2026-04-11T08:25:13.018Z</time></trkpt><trkpt lat="43.3811747" lon="11.3962316"><ele>408.0</ele><time>2026-04-11T08:25:14.019Z</time></trkpt><trkpt lat="43.3813275" lon="11.3962418"><ele>408.0</ele><time>2026-04-11T08:25:15.019Z</time></trkpt><trkpt lat="43.3814815" lon="11.3962503"><ele>408.0</ele><time>2026-04-11T08:25:16.018Z</time></trkpt><trkpt lat="43.3816395" lon="11.3962406"><ele>408.5</ele><time>2026-04-11T08:25:17.019Z</time></trkpt><trkpt lat="43.3817925" lon="11.3962178"><ele>409.0</ele><time>2026-04-11T08:25:18.018Z</time></trkpt><trkpt lat="43.3819299" lon="11.3961929"><ele>409.5</ele><time>2026-04-11T08:25:19.018Z</time></trkpt><trkpt lat="43.3820578" lon="11.3961691"><ele>410.0</ele><time>2026-04-11T08:25:20.018Z</time></trkpt><trkpt lat="43.3821846" lon="11.396145"><ele>411.0</ele><time>2026-04-11T08:25:21.018Z</time></trkpt><trkpt lat="43.3823168" lon="11.396117"><ele>412.0</ele><time>2026-04-11T08:25:22.019Z</time></trkpt><trkpt lat="43.3824513" lon="11.3960847"><ele>413.0</ele><time>2026-04-11T08:25:23.019Z</time></trkpt><trkpt lat="43.3825849" lon="11.3960492"><ele>414.0</ele><time>2026-04-11T08:25:24.018Z</time></trkpt><trkpt lat="43.3827139" lon="11.3960128"><ele>414.0</ele><time>2026-04-11T08:25:25.019Z</time></trkpt><trkpt lat="43.3828428" lon="11.3959737"><ele>414.0</ele><time>2026-04-11T08:25:26.018Z</time></trkpt><trkpt lat="43.3829765" lon="11.3959301"><ele>414.0</ele><time>2026-04-11T08:25:27.019Z</time></trkpt><trkpt lat="43.383114" lon="11.3958805"><ele>414.0</ele><time>2026-04-11T08:25:28.019Z</time></trkpt><trkpt lat="43.3832495" lon="11.3958271"><ele>415.0</ele><time>2026-04-11T08:25:29.019Z</time></trkpt><trkpt lat="43.3833801" lon="11.3957717"><ele>416.0</ele><time>2026-04-11T08:25:30.018Z</time></trkpt><trkpt lat="43.3835023" lon="11.395721"><ele>417.0</ele><time>2026-04-11T08:25:31.018Z</time></trkpt><trkpt lat="43.3836212" lon="11.3956737"><ele>418.0</ele><time>2026-04-11T08:25:32.019Z</time></trkpt><trkpt lat="43.3837423" lon="11.3956279"><ele>417.5</ele><time>2026-04-11T08:25:33.018Z</time></trkpt><trkpt lat="43.383867" lon="11.3955787"><ele>417.0</ele><time>2026-04-11T08:25:34.018Z</time></trkpt><trkpt lat="43.3839924" lon="11.3955315"><ele>416.5</ele><time>2026-04-11T08:25:35.018Z</time></trkpt><trkpt lat="43.3841208" lon="11.3954849"><ele>416.0</ele><time>2026-04-11T08:25:36.018Z</time></trkpt><trkpt lat="43.3842477" lon="11.3954403"><ele>416.0</ele><time>2026-04-11T08:25:37.018Z</time></trkpt><trkpt lat="43.3843676" lon="11.3953939"><ele>416.0</ele><time>2026-04-11T08:25:38.018Z</time></trkpt><trkpt lat="43.3844803" lon="11.3953446"><ele>416.0</ele><time>2026-04-11T08:25:39.018Z</time></trkpt><trkpt lat="43.3845849" lon="11.395287"><ele>416.0</ele><time>2026-04-11T08:25:40.018Z</time></trkpt><trkpt lat="43.3846844" lon="11.3952082"><ele>417.75</ele><time>2026-04-11T08:25:41.018Z</time></trkpt><trkpt lat="43.3847765" lon="11.3951043"><ele>419.5</ele><time>2026-04-11T08:25:42.019Z</time></trkpt><trkpt lat="43.3848661" lon="11.3949751"><ele>421.25</ele><time>2026-04-11T08:25:43.019Z</time></trkpt><trkpt lat="43.3849558" lon="11.3948289"><ele>423.0</ele><time>2026-04-11T08:25:44.018Z</time></trkpt><trkpt lat="43.3850474" lon="11.3946679"><ele>423.66666666666663</ele><time>2026-04-11T08:25:45.018Z</time></trkpt><trkpt lat="43.3851412" lon="11.3945114"><ele>424.3333333333333</ele><time>2026-04-11T08:25:46.018Z</time></trkpt><trkpt lat="43.385242" lon="11.3943547"><ele>425.0</ele><time>2026-04-11T08:25:47.019Z</time></trkpt><trkpt lat="43.3853467" lon="11.3941981"><ele>425.0</ele><time>2026-04-11T08:25:48.019Z</time></trkpt><trkpt lat="43.3854529" lon="11.3940398"><ele>425.0</ele><time>2026-04-11T08:25:49.019Z</time></trkpt><trkpt lat="43.3855601" lon="11.3938787"><ele>425.0</ele><time>2026-04-11T08:25:50.018Z</time></trkpt><trkpt lat="43.3856681" lon="11.393716"><ele>426.0</ele><time>2026-04-11T08:25:51.019Z</time></trkpt><trkpt lat="43.3857775" lon="11.3935542"><ele>427.0</ele><time>2026-04-11T08:25:52.019Z</time></trkpt><trkpt lat="43.3858847" lon="11.3933972"><ele>428.0</ele><time>2026-04-11T08:25:53.018Z</time></trkpt><trkpt lat="43.385989" lon="11.3932433"><ele>428.0</ele><time>2026-04-11T08:25:54.018Z</time></trkpt><trkpt lat="43.3860893" lon="11.3930963"><ele>428.0</ele><time>2026-04-11T08:25:55.018Z</time></trkpt><trkpt lat="43.3861818" lon="11.3929547"><ele>428.0</ele><time>2026-04-11T08:25:56.018Z</time></trkpt><trkpt lat="43.3862715" lon="11.3928195"><ele>428.0</ele><time>2026-04-11T08:25:57.019Z</time></trkpt><trkpt lat="43.386363" lon="11.3926954"><ele>428.75</ele><time>2026-04-11T08:25:58.019Z</time></trkpt><trkpt lat="43.3864643" lon="11.3925824"><ele>429.5</ele><time>2026-04-11T08:25:59.018Z</time></trkpt><trkpt lat="43.3865788" lon="11.3924803"><ele>430.25</ele><time>2026-04-11T08:26:00.018Z</time></trkpt><trkpt lat="43.3866981" lon="11.3923809"><ele>431.0</ele><time>2026-04-11T08:26:01.018Z</time></trkpt><trkpt lat="43.3868164" lon="11.3922785"><ele>430.75</ele><time>2026-04-11T08:26:02.019Z</time></trkpt><trkpt lat="43.3869318" lon="11.3921695"><ele>430.5</ele><time>2026-04-11T08:26:03.018Z</time></trkpt><trkpt lat="43.3870404" lon="11.3920453"><ele>430.25</ele><time>2026-04-11T08:26:04.018Z</time></trkpt><trkpt lat="43.3871431" lon="11.3919068"><ele>430.0</ele><time>2026-04-11T08:26:05.018Z</time></trkpt><trkpt lat="43.387238" lon="11.3917515"><ele>431.0</ele><time>2026-04-11T08:26:06.018Z</time></trkpt><trkpt lat="43.3873319" lon="11.3915897"><ele>432.0</ele><time>2026-04-11T08:26:07.018Z</time></trkpt><trkpt lat="43.3874275" lon="11.3914309"><ele>433.0</ele><time>2026-04-11T08:26:08.018Z</time></trkpt><trkpt lat="43.3875207" lon="11.3912857"><ele>434.0</ele><time>2026-04-11T08:26:09.019Z</time></trkpt><trkpt lat="43.3876099" lon="11.3911505"><ele>434.5</ele><time>2026-04-11T08:26:10.019Z</time></trkpt><trkpt lat="43.3876935" lon="11.3910228"><ele>435.0</ele><time>2026-04-11T08:26:11.019Z</time></trkpt><trkpt lat="43.3877702" lon="11.3909018"><ele>435.5</ele><time>2026-04-11T08:26:12.018Z</time></trkpt><trkpt lat="43.3878424" lon="11.3907856"><ele>436.0</ele><time>2026-04-11T08:26:13.019Z</time></trkpt><trkpt lat="43.387913" lon="11.3906767"><ele>436.0</ele><time>2026-04-11T08:26:14.018Z</time></trkpt><trkpt lat="43.3879824" lon="11.3905746"><ele>436.0</ele><time>2026-04-11T08:26:15.019Z</time></trkpt><trkpt lat="43.3880458" lon="11.3904798"><ele>436.0</ele><time>2026-04-11T08:26:16.018Z</time></trkpt><trkpt lat="43.3881008" lon="11.3903778"><ele>436.0</ele><time>2026-04-11T08:26:17.019Z</time></trkpt><trkpt lat="43.388141" lon="11.3902637"><ele>436.0</ele><time>2026-04-11T08:26:18.019Z</time></trkpt><trkpt lat="43.3881684" lon="11.3901313"><ele>434.0</ele><time>2026-04-11T08:26:19.019Z</time></trkpt><trkpt lat="43.388186" lon="11.38996"><ele>432.0</ele><time>2026-04-11T08:26:20.02Z</time></trkpt><trkpt lat="43.3882088" lon="11.3897774"><ele>430.0</ele><time>2026-04-11T08:26:21.02Z</time></trkpt><trkpt lat="43.388244" lon="11.3895952"><ele>428.0</ele><time>2026-04-11T08:26:22.02Z</time></trkpt><trkpt lat="43.3882915" lon="11.3894234"><ele>427.75</ele><time>2026-04-11T08:26:23.02Z</time></trkpt><trkpt lat="43.3883557" lon="11.3892571"><ele>427.5</ele><time>2026-04-11T08:26:24.019Z</time></trkpt><trkpt lat="43.388428" lon="11.3890859"><ele>427.25</ele><time>2026-04-11T08:26:25.019Z</time></trkpt><trkpt lat="43.3885058" lon="11.3889092"><ele>427.0</ele><time>2026-04-11T08:26:26.019Z</time></trkpt><trkpt lat="43.3885858" lon="11.3887309"><ele>427.5</ele><time>2026-04-11T08:26:27.019Z</time></trkpt><trkpt lat="43.3886656" lon="11.3885553"><ele>428.0</ele><time>2026-04-11T08:26:28.02Z</time></trkpt><trkpt lat="43.388744" lon="11.3883851"><ele>428.5</ele><time>2026-04-11T08:26:29.02Z</time></trkpt><trkpt lat="43.388819" lon="11.3882162"><ele>429.0</ele><time>2026-04-11T08:26:30.02Z</time></trkpt><trkpt lat="43.3888915" lon="11.3880555"><ele>427.25</ele><time>2026-04-11T08:26:31.02Z</time></trkpt><trkpt lat="43.388961" lon="11.3878982"><ele>425.5</ele><time>2026-04-11T08:26:32.02Z</time></trkpt><trkpt lat="43.3890275" lon="11.3877417"><ele>423.75</ele><time>2026-04-11T08:26:33.019Z</time></trkpt><trkpt lat="43.3890908" lon="11.3875825"><ele>422.0</ele><time>2026-04-11T08:26:34.019Z</time></trkpt><trkpt lat="43.389152" lon="11.387423"><ele>422.0</ele><time>2026-04-11T08:26:35.019Z</time></trkpt><trkpt lat="43.3892146" lon="11.3872663"><ele>422.0</ele><time>2026-04-11T08:26:36.02Z</time></trkpt><trkpt lat="43.3892798" lon="11.387116"><ele>422.0</ele><time>2026-04-11T08:26:37.02Z</time></trkpt><trkpt lat="43.3893488" lon="11.3869754"><ele>422.0</ele><time>2026-04-11T08:26:38.019Z</time></trkpt><trkpt lat="43.3894182" lon="11.3868515"><ele>422.0</ele><time>2026-04-11T08:26:39.02Z</time></trkpt><trkpt lat="43.3894857" lon="11.3867327"><ele>422.0</ele><time>2026-04-11T08:26:40.02Z</time></trkpt><trkpt lat="43.3895507" lon="11.3866126"><ele>422.0</ele><time>2026-04-11T08:26:41.02Z</time></trkpt><trkpt lat="43.3896117" lon="11.3864876"><ele>422.0</ele><time>2026-04-11T08:26:42.02Z</time></trkpt><trkpt lat="43.3896658" lon="11.386357"><ele>422.0</ele><time>2026-04-11T08:26:43.019Z</time></trkpt><trkpt lat="43.3897149" lon="11.386225"><ele>421.99999999999994</ele><time>2026-04-11T08:26:44.02Z</time></trkpt><trkpt lat="43.389759" lon="11.3861022"><ele>422.0</ele><time>2026-04-11T08:26:45.02Z</time></trkpt><trkpt lat="43.3897985" lon="11.385987"><ele>422.0</ele><time>2026-04-11T08:26:46.019Z</time></trkpt><trkpt lat="43.3898299" lon="11.3858878"><ele>422.0</ele><time>2026-04-11T08:26:47.019Z</time></trkpt><trkpt lat="43.3898712" lon="11.3857536"><ele>421.99999999999994</ele><time>2026-04-11T08:26:49.02Z</time></trkpt><trkpt lat="43.3899263" lon="11.3856887"><ele>422.0</ele><time>2026-04-11T08:26:53.02Z</time></trkpt><trkpt lat="43.3900019" lon="11.3856014"><ele>422.0</ele><time>2026-04-11T08:28:09.02Z</time></trkpt><trkpt lat="43.3901372" lon="11.3855342"><ele>422.0</ele><time>2026-04-11T08:28:11.02Z</time></trkpt><trkpt lat="43.3902405" lon="11.3854742"><ele>422.0</ele><time>2026-04-11T08:28:12.02Z</time></trkpt><trkpt lat="43.3903359" lon="11.3854077"><ele>422.0</ele><time>2026-04-11T08:28:13.021Z</time></trkpt><trkpt lat="43.3904169" lon="11.3853497"><ele>422.20000000000005</ele><time>2026-04-11T08:28:14.02Z</time></trkpt><trkpt lat="43.3904943" lon="11.3852946"><ele>422.4</ele><time>2026-04-11T08:28:15.02Z</time></trkpt><trkpt lat="43.3905711" lon="11.3852375"><ele>422.6</ele><time>2026-04-11T08:28:16.02Z</time></trkpt><trkpt lat="43.3906464" lon="11.3851814"><ele>422.79999999999995</ele><time>2026-04-11T08:28:17.02Z</time></trkpt><trkpt lat="43.3907246" lon="11.3851196"><ele>423.0</ele><time>2026-04-11T08:28:18.02Z</time></trkpt><trkpt lat="43.3908133" lon="11.3850476"><ele>423.0</ele><time>2026-04-11T08:28:19.02Z</time></trkpt><trkpt lat="43.3908968" lon="11.3849753"><ele>423.0</ele><time>2026-04-11T08:28:20.021Z</time></trkpt><trkpt lat="43.3909798" lon="11.3848974"><ele>423.0</ele><time>2026-04-11T08:28:21.02Z</time></trkpt><trkpt lat="43.3910645" lon="11.3848159"><ele>423.0</ele><time>2026-04-11T08:28:22.02Z</time></trkpt><trkpt lat="43.3911572" lon="11.3847285"><ele>423.0</ele><time>2026-04-11T08:28:23.022Z</time></trkpt><trkpt lat="43.3912632" lon="11.3846329"><ele>423.5</ele><time>2026-04-11T08:28:24.02Z</time></trkpt><trkpt lat="43.3913711" lon="11.3845391"><ele>424.0</ele><time>2026-04-11T08:28:25.021Z</time></trkpt><trkpt lat="43.3914769" lon="11.3844454"><ele>424.5</ele><time>2026-04-11T08:28:26.02Z</time></trkpt><trkpt lat="43.3915812" lon="11.3843532"><ele>425.0</ele><time>2026-04-11T08:28:27.022Z</time></trkpt><trkpt lat="43.3916783" lon="11.3842652"><ele>425.0</ele><time>2026-04-11T08:28:28.021Z</time></trkpt><trkpt lat="43.3917711" lon="11.3841736"><ele>425.0</ele><time>2026-04-11T08:28:29.021Z</time></trkpt><trkpt lat="43.3918589" lon="11.3840715"><ele>425.0</ele><time>2026-04-11T08:28:30.022Z</time></trkpt><trkpt lat="43.3919355" lon="11.3839537"><ele>425.0</ele><time>2026-04-11T08:28:31.022Z</time></trkpt><trkpt lat="43.3920006" lon="11.3838276"><ele>425.25</ele><time>2026-04-11T08:28:32.021Z</time></trkpt><trkpt lat="43.3920493" lon="11.3836803"><ele>425.5</ele><time>2026-04-11T08:28:33.021Z</time></trkpt><trkpt lat="43.3920739" lon="11.383497"><ele>425.75</ele><time>2026-04-11T08:28:34.021Z</time></trkpt><trkpt lat="43.3920909" lon="11.3833041"><ele>426.0</ele><time>2026-04-11T08:28:35.022Z</time></trkpt><trkpt lat="43.3920995" lon="11.3831239"><ele>425.8</ele><time>2026-04-11T08:28:36.021Z</time></trkpt><trkpt lat="43.3921139" lon="11.3829716"><ele>425.6</ele><time>2026-04-11T08:28:37.022Z</time></trkpt><trkpt lat="43.3921473" lon="11.3828449"><ele>425.4</ele><time>2026-04-11T08:28:38.022Z</time></trkpt><trkpt lat="43.3921933" lon="11.3827449"><ele>425.2</ele><time>2026-04-11T08:28:39.021Z</time></trkpt><trkpt lat="43.392245" lon="11.3826559"><ele>425.0</ele><time>2026-04-11T08:28:40.021Z</time></trkpt><trkpt lat="43.3923053" lon="11.3825763"><ele>425.0</ele><time>2026-04-11T08:28:41.021Z</time></trkpt><trkpt lat="43.3923686" lon="11.3825023"><ele>425.0</ele><time>2026-04-11T08:28:42.021Z</time></trkpt><trkpt lat="43.3924504" lon="11.3824152"><ele>425.0</ele><time>2026-04-11T08:28:43.021Z</time></trkpt><trkpt lat="43.392551" lon="11.3823203"><ele>425.0</ele><time>2026-04-11T08:28:44.021Z</time></trkpt><trkpt lat="43.3926783" lon="11.3822133"><ele>425.3333333333333</ele><time>2026-04-11T08:28:45.021Z</time></trkpt><trkpt lat="43.3928102" lon="11.3821072"><ele>425.66666666666663</ele><time>2026-04-11T08:28:46.022Z</time></trkpt><trkpt lat="43.3929496" lon="11.3819956"><ele>426.0</ele><time>2026-04-11T08:28:47.022Z</time></trkpt><trkpt lat="43.3930898" lon="11.3818809"><ele>424.75</ele><time>2026-04-11T08:28:48.021Z</time></trkpt><trkpt lat="43.3932253" lon="11.3817621"><ele>423.5</ele><time>2026-04-11T08:28:49.021Z</time></trkpt><trkpt lat="43.3933522" lon="11.3816566"><ele>422.25</ele><time>2026-04-11T08:28:50.022Z</time></trkpt><trkpt lat="43.3934734" lon="11.3815609"><ele>421.0</ele><time>2026-04-11T08:28:51.021Z</time></trkpt><trkpt lat="43.3935931" lon="11.3814736"><ele>421.0</ele><time>2026-04-11T08:28:52.022Z</time></trkpt><trkpt lat="43.3937126" lon="11.3813884"><ele>421.0</ele><time>2026-04-11T08:28:53.021Z</time></trkpt><trkpt lat="43.3938345" lon="11.3813047"><ele>421.0</ele><time>2026-04-11T08:28:54.022Z</time></trkpt><trkpt lat="43.3939589" lon="11.3812262"><ele>421.0</ele><time>2026-04-11T08:28:55.021Z</time></trkpt><trkpt lat="43.3940818" lon="11.3811637"><ele>419.5</ele><time>2026-04-11T08:28:56.022Z</time></trkpt><trkpt lat="43.394206" lon="11.3811197"><ele>418.0</ele><time>2026-04-11T08:28:57.022Z</time></trkpt><trkpt lat="43.3943331" lon="11.3810822"><ele>416.5</ele><time>2026-04-11T08:28:58.022Z</time></trkpt><trkpt lat="43.3944599" lon="11.3810518"><ele>415.0</ele><time>2026-04-11T08:28:59.021Z</time></trkpt><trkpt lat="43.3945836" lon="11.3810232"><ele>415.2</ele><time>2026-04-11T08:29:00.021Z</time></trkpt><trkpt lat="43.3947016" lon="11.3809967"><ele>415.4</ele><time>2026-04-11T08:29:01.021Z</time></trkpt><trkpt lat="43.3948126" lon="11.3809768"><ele>415.6</ele><time>2026-04-11T08:29:02.021Z</time></trkpt><trkpt lat="43.3949196" lon="11.3809604"><ele>415.8</ele><time>2026-04-11T08:29:03.022Z</time></trkpt><trkpt lat="43.3950251" lon="11.3809494"><ele>416.0</ele><time>2026-04-11T08:29:04.022Z</time></trkpt><trkpt lat="43.3951333" lon="11.3809491"><ele>416.0</ele><time>2026-04-11T08:29:05.021Z</time></trkpt><trkpt lat="43.3952432" lon="11.3809602"><ele>416.0</ele><time>2026-04-11T08:29:06.021Z</time></trkpt><trkpt lat="43.3953511" lon="11.3809803"><ele>416.0</ele><time>2026-04-11T08:29:07.022Z</time></trkpt><trkpt lat="43.3956252" lon="11.3810252"><ele>415.0</ele><time>2026-04-11T08:29:09.022Z</time></trkpt><trkpt lat="43.3957595" lon="11.3810394"><ele>414.0</ele><time>2026-04-11T08:29:10.022Z</time></trkpt><trkpt lat="43.3958854" lon="11.3810429"><ele>413.0</ele><time>2026-04-11T08:29:11.022Z</time></trkpt><trkpt lat="43.3960069" lon="11.381024"><ele>412.0</ele><time>2026-04-11T08:29:12.022Z</time></trkpt><trkpt lat="43.3961291" lon="11.3809794"><ele>412.0</ele><time>2026-04-11T08:29:13.021Z</time></trkpt><trkpt lat="43.3962462" lon="11.3809059"><ele>412.0</ele><time>2026-04-11T08:29:14.021Z</time></trkpt><trkpt lat="43.3963516" lon="11.3808017"><ele>412.0</ele><time>2026-04-11T08:29:15.021Z</time></trkpt><trkpt lat="43.3964439" lon="11.3806717"><ele>412.0</ele><time>2026-04-11T08:29:16.022Z</time></trkpt><trkpt lat="43.396522" lon="11.3805146"><ele>411.25</ele><time>2026-04-11T08:29:17.021Z</time></trkpt><trkpt lat="43.3965838" lon="11.380337"><ele>410.5</ele><time>2026-04-11T08:29:18.022Z</time></trkpt><trkpt lat="43.3966312" lon="11.3801448"><ele>409.75</ele><time>2026-04-11T08:29:19.021Z</time></trkpt><trkpt lat="43.3966677" lon="11.3799528"><ele>409.0</ele><time>2026-04-11T08:29:20.022Z</time></trkpt><trkpt lat="43.3967022" lon="11.37977"><ele>410.25</ele><time>2026-04-11T08:29:21.022Z</time></trkpt><trkpt lat="43.3967347" lon="11.3795935"><ele>411.5</ele><time>2026-04-11T08:29:22.021Z</time></trkpt><trkpt lat="43.3967684" lon="11.3794231"><ele>412.75</ele><time>2026-04-11T08:29:23.022Z</time></trkpt><trkpt lat="43.3968016" lon="11.3792459"><ele>414.0</ele><time>2026-04-11T08:29:24.021Z</time></trkpt><trkpt lat="43.3968338" lon="11.3790808"><ele>414.0</ele><time>2026-04-11T08:29:25.022Z</time></trkpt><trkpt lat="43.396864" lon="11.3789307"><ele>414.0</ele><time>2026-04-11T08:29:26.022Z</time></trkpt><trkpt lat="43.3968998" lon="11.3787959"><ele>414.0</ele><time>2026-04-11T08:29:27.022Z</time></trkpt><trkpt lat="43.3969437" lon="11.3786651"><ele>414.0</ele><time>2026-04-11T08:29:28.022Z</time></trkpt><trkpt lat="43.3969972" lon="11.3785424"><ele>414.0</ele><time>2026-04-11T08:29:29.021Z</time></trkpt><trkpt lat="43.3970584" lon="11.3784259"><ele>414.0</ele><time>2026-04-11T08:29:30.022Z</time></trkpt><trkpt lat="43.3971257" lon="11.3783027"><ele>414.0</ele><time>2026-04-11T08:29:31.022Z</time></trkpt><trkpt lat="43.3971984" lon="11.3781713"><ele>414.0</ele><time>2026-04-11T08:29:32.023Z</time></trkpt><trkpt lat="43.3972755" lon="11.3780311"><ele>414.0</ele><time>2026-04-11T08:29:33.022Z</time></trkpt><trkpt lat="43.3973542" lon="11.3778888"><ele>415.25</ele><time>2026-04-11T08:29:34.023Z</time></trkpt><trkpt lat="43.3974392" lon="11.3777472"><ele>416.5</ele><time>2026-04-11T08:29:35.023Z</time></trkpt><trkpt lat="43.3975282" lon="11.3776039"><ele>417.75</ele><time>2026-04-11T08:29:36.022Z</time></trkpt><trkpt lat="43.3976172" lon="11.3774664"><ele>419.0</ele><time>2026-04-11T08:29:37.023Z</time></trkpt><trkpt lat="43.3977047" lon="11.3773312"><ele>419.0</ele><time>2026-04-11T08:29:38.022Z</time></trkpt><trkpt lat="43.3977938" lon="11.3771985"><ele>419.0</ele><time>2026-04-11T08:29:39.022Z</time></trkpt><trkpt lat="43.3978865" lon="11.3770668"><ele>419.0</ele><time>2026-04-11T08:29:40.022Z</time></trkpt><trkpt lat="43.3979827" lon="11.3769307"><ele>419.0</ele><time>2026-04-11T08:29:41.022Z</time></trkpt><trkpt lat="43.3980811" lon="11.3767911"><ele>419.66666666666663</ele><time>2026-04-11T08:29:42.023Z</time></trkpt><trkpt lat="43.398185" lon="11.3766559"><ele>420.33333333333337</ele><time>2026-04-11T08:29:43.023Z</time></trkpt><trkpt lat="43.3984156" lon="11.3764196"><ele>421.0</ele><time>2026-04-11T08:29:45.023Z</time></trkpt><trkpt lat="43.398539" lon="11.3763159"><ele>421.5</ele><time>2026-04-11T08:29:46.022Z</time></trkpt><trkpt lat="43.3986582" lon="11.3762269"><ele>422.0</ele><time>2026-04-11T08:29:47.022Z</time></trkpt><trkpt lat="43.3987798" lon="11.3761515"><ele>422.5</ele><time>2026-04-11T08:29:48.023Z</time></trkpt><trkpt lat="43.3989017" lon="11.3760808"><ele>423.0</ele><time>2026-04-11T08:29:49.023Z</time></trkpt><trkpt lat="43.3990219" lon="11.3760218"><ele>424.0</ele><time>2026-04-11T08:29:50.023Z</time></trkpt><trkpt lat="43.399138" lon="11.3759902"><ele>425.0</ele><time>2026-04-11T08:29:51.022Z</time></trkpt><trkpt lat="43.3992398" lon="11.3759616"><ele>425.99999999999994</ele><time>2026-04-11T08:29:52.023Z</time></trkpt><trkpt lat="43.3993379" lon="11.3759379"><ele>427.0</ele><time>2026-04-11T08:29:53.022Z</time></trkpt><trkpt lat="43.3994292" lon="11.3759028"><ele>428.0</ele><time>2026-04-11T08:29:54.022Z</time></trkpt><trkpt lat="43.3995133" lon="11.3758603"><ele>428.0</ele><time>2026-04-11T08:29:55.023Z</time></trkpt><trkpt lat="43.3995884" lon="11.3757991"><ele>427.99999999999994</ele><time>2026-04-11T08:29:56.022Z</time></trkpt><trkpt lat="43.3996624" lon="11.3757155"><ele>427.99999999999994</ele><time>2026-04-11T08:29:57.022Z</time></trkpt><trkpt lat="43.3997386" lon="11.3755989"><ele>428.0</ele><time>2026-04-11T08:29:58.022Z</time></trkpt><trkpt lat="43.3998135" lon="11.3754675"><ele>428.0</ele><time>2026-04-11T08:29:59.022Z</time></trkpt><trkpt lat="43.3998864" lon="11.3753299"><ele>430.0</ele><time>2026-04-11T08:30:00.022Z</time></trkpt><trkpt lat="43.3999524" lon="11.375201"><ele>432.0</ele><time>2026-04-11T08:30:01.023Z</time></trkpt><trkpt lat="43.4000242" lon="11.3750689"><ele>434.0</ele><time>2026-04-11T08:30:02.022Z</time></trkpt><trkpt lat="43.4000976" lon="11.3749419"><ele>436.0</ele><time>2026-04-11T08:30:03.022Z</time></trkpt><trkpt lat="43.4001703" lon="11.3748144"><ele>436.0</ele><time>2026-04-11T08:30:04.022Z</time></trkpt><trkpt lat="43.4002461" lon="11.3746912"><ele>436.0</ele><time>2026-04-11T08:30:05.022Z</time></trkpt><trkpt lat="43.4003209" lon="11.3745652"><ele>436.0</ele><time>2026-04-11T08:30:06.023Z</time></trkpt><trkpt lat="43.4003965" lon="11.3744346"><ele>436.0</ele><time>2026-04-11T08:30:07.023Z</time></trkpt><trkpt lat="43.4004658" lon="11.3743052"><ele>436.0</ele><time>2026-04-11T08:30:08.022Z</time></trkpt><trkpt lat="43.400527" lon="11.3741836"><ele>436.0</ele><time>2026-04-11T08:30:09.022Z</time></trkpt><trkpt lat="43.4005728" lon="11.3740817"><ele>436.0</ele><time>2026-04-11T08:30:10.023Z</time></trkpt><trkpt lat="43.4006028" lon="11.3739743"><ele>436.0</ele><time>2026-04-11T08:30:11.023Z</time></trkpt><trkpt lat="43.4006281" lon="11.3738563"><ele>436.0</ele><time>2026-04-11T08:30:12.022Z</time></trkpt><trkpt lat="43.400648" lon="11.3737319"><ele>436.4</ele><time>2026-04-11T08:30:13.022Z</time></trkpt><trkpt lat="43.4006702" lon="11.3735934"><ele>436.8</ele><time>2026-04-11T08:30:14.023Z</time></trkpt><trkpt lat="43.4006971" lon="11.3734519"><ele>437.19999999999993</ele><time>2026-04-11T08:30:15.023Z</time></trkpt><trkpt lat="43.4007331" lon="11.373313"><ele>437.59999999999997</ele><time>2026-04-11T08:30:16.022Z</time></trkpt><trkpt lat="43.4007784" lon="11.3731878"><ele>438.0</ele><time>2026-04-11T08:30:17.023Z</time></trkpt><trkpt lat="43.4008367" lon="11.3730776"><ele>437.5</ele><time>2026-04-11T08:30:18.022Z</time></trkpt><trkpt lat="43.4009245" lon="11.3729828"><ele>437.0</ele><time>2026-04-11T08:30:19.023Z</time></trkpt><trkpt lat="43.4010198" lon="11.3728854"><ele>436.5</ele><time>2026-04-11T08:30:20.023Z</time></trkpt><trkpt lat="43.4011109" lon="11.3727875"><ele>436.0</ele><time>2026-04-11T08:30:21.022Z</time></trkpt><trkpt lat="43.4012307" lon="11.3725641"><ele>436.0</ele><time>2026-04-11T08:30:23.023Z</time></trkpt><trkpt lat="43.4012655" lon="11.3724485"><ele>436.0</ele><time>2026-04-11T08:30:24.023Z</time></trkpt><trkpt lat="43.4012874" lon="11.3723263"><ele>436.0</ele><time>2026-04-11T08:30:25.023Z</time></trkpt><trkpt lat="43.4012935" lon="11.3721989"><ele>436.0</ele><time>2026-04-11T08:30:26.022Z</time></trkpt><trkpt lat="43.4012938" lon="11.3720608"><ele>436.0</ele><time>2026-04-11T08:30:27.022Z</time></trkpt><trkpt lat="43.4012906" lon="11.3719246"><ele>435.5</ele><time>2026-04-11T08:30:28.023Z</time></trkpt><trkpt lat="43.401286" lon="11.3717634"><ele>435.0</ele><time>2026-04-11T08:30:29.023Z</time></trkpt><trkpt lat="43.4012818" lon="11.3715984"><ele>434.5</ele><time>2026-04-11T08:30:30.023Z</time></trkpt><trkpt lat="43.4012783" lon="11.3714344"><ele>434.0</ele><time>2026-04-11T08:30:31.023Z</time></trkpt><trkpt lat="43.4012767" lon="11.3712775"><ele>433.2</ele><time>2026-04-11T08:30:32.023Z</time></trkpt><trkpt lat="43.4012822" lon="11.3711271"><ele>432.4</ele><time>2026-04-11T08:30:33.023Z</time></trkpt><trkpt lat="43.4012883" lon="11.3709823"><ele>431.6</ele><time>2026-04-11T08:30:34.023Z</time></trkpt><trkpt lat="43.4013049" lon="11.3708423"><ele>430.8</ele><time>2026-04-11T08:30:35.024Z</time></trkpt><trkpt lat="43.4013295" lon="11.3706974"><ele>430.0</ele><time>2026-04-11T08:30:36.024Z</time></trkpt><trkpt lat="43.4013646" lon="11.3705518"><ele>429.75</ele><time>2026-04-11T08:30:37.023Z</time></trkpt><trkpt lat="43.4014096" lon="11.3704069"><ele>429.5</ele><time>2026-04-11T08:30:38.024Z</time></trkpt><trkpt lat="43.4014574" lon="11.3702588"><ele>429.25</ele><time>2026-04-11T08:30:39.023Z</time></trkpt><trkpt lat="43.4015076" lon="11.3701096"><ele>429.0</ele><time>2026-04-11T08:30:40.024Z</time></trkpt><trkpt lat="43.4015581" lon="11.3699539"><ele>429.0</ele><time>2026-04-11T08:30:41.024Z</time></trkpt><trkpt lat="43.4016019" lon="11.3697992"><ele>429.0</ele><time>2026-04-11T08:30:42.023Z</time></trkpt><trkpt lat="43.401639" lon="11.3696472"><ele>429.0</ele><time>2026-04-11T08:30:43.024Z</time></trkpt><trkpt lat="43.4016727" lon="11.3694928"><ele>429.0</ele><time>2026-04-11T08:30:44.024Z</time></trkpt><trkpt lat="43.4016996" lon="11.3693349"><ele>429.25</ele><time>2026-04-11T08:30:45.023Z</time></trkpt><trkpt lat="43.4017208" lon="11.3691765"><ele>429.5</ele><time>2026-04-11T08:30:46.024Z</time></trkpt><trkpt lat="43.4017399" lon="11.3690201"><ele>429.75</ele><time>2026-04-11T08:30:47.024Z</time></trkpt><trkpt lat="43.401754" lon="11.3688678"><ele>430.0</ele><time>2026-04-11T08:30:48.023Z</time></trkpt><trkpt lat="43.4017567" lon="11.3687216"><ele>430.5</ele><time>2026-04-11T08:30:49.024Z</time></trkpt><trkpt lat="43.4017456" lon="11.3685799"><ele>431.0</ele><time>2026-04-11T08:30:50.023Z</time></trkpt><trkpt lat="43.4017289" lon="11.3684321"><ele>431.5</ele><time>2026-04-11T08:30:51.023Z</time></trkpt><trkpt lat="43.4017121" lon="11.3682739"><ele>432.0</ele><time>2026-04-11T08:30:52.024Z</time></trkpt><trkpt lat="43.4016908" lon="11.3680973"><ele>432.5</ele><time>2026-04-11T08:30:53.024Z</time></trkpt><trkpt lat="43.4016731" lon="11.3679098"><ele>433.0</ele><time>2026-04-11T08:30:54.024Z</time></trkpt><trkpt lat="43.4016544" lon="11.3677211"><ele>433.5</ele><time>2026-04-11T08:30:55.024Z</time></trkpt><trkpt lat="43.4016348" lon="11.3675272"><ele>434.0</ele><time>2026-04-11T08:30:56.023Z</time></trkpt><trkpt lat="43.4016158" lon="11.3673377"><ele>434.2</ele><time>2026-04-11T08:30:57.024Z</time></trkpt><trkpt lat="43.4015953" lon="11.3671734"><ele>434.4</ele><time>2026-04-11T08:30:58.023Z</time></trkpt><trkpt lat="43.4015735" lon="11.3670264"><ele>434.6</ele><time>2026-04-11T08:30:59.024Z</time></trkpt><trkpt lat="43.4015376" lon="11.3668981"><ele>434.8</ele><time>2026-04-11T08:31:00.023Z</time></trkpt><trkpt lat="43.4014842" lon="11.3667703"><ele>435.0</ele><time>2026-04-11T08:31:01.024Z</time></trkpt><trkpt lat="43.4014208" lon="11.3666415"><ele>435.0</ele><time>2026-04-11T08:31:02.024Z</time></trkpt><trkpt lat="43.4013561" lon="11.3665158"><ele>435.0</ele><time>2026-04-11T08:31:03.023Z</time></trkpt><trkpt lat="43.4012978" lon="11.3663868"><ele>435.0</ele><time>2026-04-11T08:31:04.023Z</time></trkpt><trkpt lat="43.401255" lon="11.3662542"><ele>435.0</ele><time>2026-04-11T08:31:05.023Z</time></trkpt><trkpt lat="43.4012228" lon="11.3661033"><ele>435.0</ele><time>2026-04-11T08:31:06.024Z</time></trkpt><trkpt lat="43.4012023" lon="11.3659219"><ele>436.25</ele><time>2026-04-11T08:31:07.023Z</time></trkpt><trkpt lat="43.4011801" lon="11.3657436"><ele>437.5</ele><time>2026-04-11T08:31:08.024Z</time></trkpt><trkpt lat="43.4011553" lon="11.3655697"><ele>438.75</ele><time>2026-04-11T08:31:09.023Z</time></trkpt><trkpt lat="43.4011302" lon="11.3654163"><ele>440.0</ele><time>2026-04-11T08:31:10.024Z</time></trkpt><trkpt lat="43.4011065" lon="11.365274"><ele>440.0</ele><time>2026-04-11T08:31:11.024Z</time></trkpt><trkpt lat="43.4010875" lon="11.3651287"><ele>440.0</ele><time>2026-04-11T08:31:12.023Z</time></trkpt><trkpt lat="43.4010729" lon="11.3649595"><ele>440.0</ele><time>2026-04-11T08:31:13.024Z</time></trkpt><trkpt lat="43.4010556" lon="11.3647906"><ele>440.0</ele><time>2026-04-11T08:31:14.024Z</time></trkpt><trkpt lat="43.4010299" lon="11.3646346"><ele>440.5</ele><time>2026-04-11T08:31:15.023Z</time></trkpt><trkpt lat="43.4009916" lon="11.3644866"><ele>441.0</ele><time>2026-04-11T08:31:16.024Z</time></trkpt><trkpt lat="43.4009375" lon="11.3643422"><ele>441.5</ele><time>2026-04-11T08:31:17.023Z</time></trkpt><trkpt lat="43.4008746" lon="11.3642029"><ele>442.0</ele><time>2026-04-11T08:31:18.023Z</time></trkpt><trkpt lat="43.4008171" lon="11.3640662"><ele>442.0</ele><time>2026-04-11T08:31:19.023Z</time></trkpt><trkpt lat="43.4007748" lon="11.3639316"><ele>442.00000000000006</ele><time>2026-04-11T08:31:20.024Z</time></trkpt><trkpt lat="43.4007548" lon="11.3637958"><ele>442.00000000000006</ele><time>2026-04-11T08:31:21.024Z</time></trkpt><trkpt lat="43.4007617" lon="11.36366"><ele>442.0</ele><time>2026-04-11T08:31:22.024Z</time></trkpt><trkpt lat="43.4007872" lon="11.3635217"><ele>442.0</ele><time>2026-04-11T08:31:23.024Z</time></trkpt><trkpt lat="43.4008313" lon="11.3634005"><ele>441.6</ele><time>2026-04-11T08:31:24.023Z</time></trkpt><trkpt lat="43.4008909" lon="11.3633018"><ele>441.20000000000005</ele><time>2026-04-11T08:31:25.024Z</time></trkpt><trkpt lat="43.400964" lon="11.3632318"><ele>440.8</ele><time>2026-04-11T08:31:26.023Z</time></trkpt><trkpt lat="43.4010505" lon="11.3631841"><ele>440.4</ele><time>2026-04-11T08:31:27.024Z</time></trkpt><trkpt lat="43.4011533" lon="11.3631414"><ele>440.0</ele><time>2026-04-11T08:31:28.024Z</time></trkpt><trkpt lat="43.4012571" lon="11.3630927"><ele>442.25</ele><time>2026-04-11T08:31:29.024Z</time></trkpt><trkpt lat="43.4013483" lon="11.3630223"><ele>444.5</ele><time>2026-04-11T08:31:30.024Z</time></trkpt><trkpt lat="43.4014274" lon="11.3628039"><ele>446.75</ele><time>2026-04-11T08:31:32.023Z</time></trkpt><trkpt lat="43.4014311" lon="11.3626728"><ele>449.0</ele><time>2026-04-11T08:31:33.023Z</time></trkpt><trkpt lat="43.4014212" lon="11.36254"><ele>449.0</ele><time>2026-04-11T08:31:34.023Z</time></trkpt><trkpt lat="43.4013965" lon="11.3624043"><ele>449.0</ele><time>2026-04-11T08:31:35.023Z</time></trkpt><trkpt lat="43.4013645" lon="11.3622756"><ele>449.0</ele><time>2026-04-11T08:31:36.024Z</time></trkpt><trkpt lat="43.4013328" lon="11.3621532"><ele>449.0</ele><time>2026-04-11T08:31:37.023Z</time></trkpt><trkpt lat="43.40132" lon="11.3620448"><ele>449.0</ele><time>2026-04-11T08:31:38.024Z</time></trkpt><trkpt lat="43.4013595" lon="11.3619474"><ele>448.0</ele><time>2026-04-11T08:31:39.024Z</time></trkpt><trkpt lat="43.401402" lon="11.3618606"><ele>447.0</ele><time>2026-04-11T08:31:40.025Z</time></trkpt><trkpt lat="43.4014782" lon="11.3617783"><ele>446.0</ele><time>2026-04-11T08:31:41.025Z</time></trkpt><trkpt lat="43.4015628" lon="11.3616901"><ele>445.0</ele><time>2026-04-11T08:31:42.024Z</time></trkpt><trkpt lat="43.401651" lon="11.3616018"><ele>444.0</ele><time>2026-04-11T08:31:43.025Z</time></trkpt><trkpt lat="43.401751" lon="11.3614854"><ele>444.0</ele><time>2026-04-11T08:31:44.024Z</time></trkpt><trkpt lat="43.40185" lon="11.3613752"><ele>444.0</ele><time>2026-04-11T08:31:45.025Z</time></trkpt><trkpt lat="43.4019456" lon="11.3612578"><ele>444.0</ele><time>2026-04-11T08:31:46.024Z</time></trkpt><trkpt lat="43.4020331" lon="11.361142"><ele>444.0</ele><time>2026-04-11T08:31:47.025Z</time></trkpt><trkpt lat="43.4021213" lon="11.3610307"><ele>443.4</ele><time>2026-04-11T08:31:48.024Z</time></trkpt><trkpt lat="43.4022138" lon="11.3609346"><ele>442.79999999999995</ele><time>2026-04-11T08:31:49.024Z</time></trkpt><trkpt lat="43.4023131" lon="11.3608544"><ele>442.20000000000005</ele><time>2026-04-11T08:31:50.025Z</time></trkpt><trkpt lat="43.4024117" lon="11.360806"><ele>441.6</ele><time>2026-04-11T08:31:51.024Z</time></trkpt><trkpt lat="43.4025074" lon="11.3607893"><ele>441.0</ele><time>2026-04-11T08:31:52.025Z</time></trkpt><trkpt lat="43.4026069" lon="11.3608017"><ele>441.0</ele><time>2026-04-11T08:31:53.024Z</time></trkpt><trkpt lat="43.4027162" lon="11.3608424"><ele>441.0</ele><time>2026-04-11T08:31:54.024Z</time></trkpt><trkpt lat="43.4028413" lon="11.3608991"><ele>441.0</ele><time>2026-04-11T08:31:55.025Z</time></trkpt><trkpt lat="43.402957" lon="11.3609301"><ele>441.0</ele><time>2026-04-11T08:31:56.025Z</time></trkpt><trkpt lat="43.4030684" lon="11.3609224"><ele>442.0</ele><time>2026-04-11T08:31:57.025Z</time></trkpt><trkpt lat="43.403175" lon="11.3608843"><ele>443.0</ele><time>2026-04-11T08:31:58.025Z</time></trkpt><trkpt lat="43.4032773" lon="11.3608424"><ele>444.0</ele><time>2026-04-11T08:31:59.024Z</time></trkpt><trkpt lat="43.4033694" lon="11.3608075"><ele>445.0</ele><time>2026-04-11T08:32:00.024Z</time></trkpt><trkpt lat="43.4034536" lon="11.3607674"><ele>446.0</ele><time>2026-04-11T08:32:01.025Z</time></trkpt><trkpt lat="43.403521" lon="11.3607048"><ele>445.99999999999994</ele><time>2026-04-11T08:32:02.025Z</time></trkpt><trkpt lat="43.403557" lon="11.360614"><ele>446.0</ele><time>2026-04-11T08:32:03.025Z</time></trkpt><trkpt lat="43.4035674" lon="11.3604953"><ele>446.0</ele><time>2026-04-11T08:32:04.025Z</time></trkpt><trkpt lat="43.4035571" lon="11.3603736"><ele>446.0</ele><time>2026-04-11T08:32:05.024Z</time></trkpt><trkpt lat="43.4035423" lon="11.3602514"><ele>445.99999999999994</ele><time>2026-04-11T08:32:06.024Z</time></trkpt><trkpt lat="43.4035249" lon="11.3601235"><ele>446.0</ele><time>2026-04-11T08:32:07.024Z</time></trkpt><trkpt lat="43.403521" lon="11.3599778"><ele>445.8</ele><time>2026-04-11T08:32:08.025Z</time></trkpt><trkpt lat="43.4035394" lon="11.3598209"><ele>445.6</ele><time>2026-04-11T08:32:09.025Z</time></trkpt><trkpt lat="43.4035712" lon="11.359668"><ele>445.4</ele><time>2026-04-11T08:32:10.025Z</time></trkpt><trkpt lat="43.4036029" lon="11.3595197"><ele>445.2</ele><time>2026-04-11T08:32:11.025Z</time></trkpt><trkpt lat="43.4036213" lon="11.359396"><ele>445.0</ele><time>2026-04-11T08:32:12.024Z</time></trkpt><trkpt lat="43.4036215" lon="11.3593001"><ele>445.00000000000006</ele><time>2026-04-11T08:32:13.024Z</time></trkpt><trkpt lat="43.4036048" lon="11.3592075"><ele>445.0</ele><time>2026-04-11T08:32:14.024Z</time></trkpt><trkpt lat="43.4035622" lon="11.3591215"><ele>445.0</ele><time>2026-04-11T08:32:15.025Z</time></trkpt><trkpt lat="43.4035145" lon="11.3590583"><ele>445.0</ele><time>2026-04-11T08:32:16.025Z</time></trkpt><trkpt lat="43.4034477" lon="11.3589959"><ele>445.00000000000006</ele><time>2026-04-11T08:32:17.025Z</time></trkpt><trkpt lat="43.40337" lon="11.3589397"><ele>445.0</ele><time>2026-04-11T08:32:18.024Z</time></trkpt><trkpt lat="43.4032817" lon="11.3589061"><ele>445.00000000000006</ele><time>2026-04-11T08:32:19.025Z</time></trkpt><trkpt lat="43.4031855" lon="11.3588805"><ele>445.0</ele><time>2026-04-11T08:32:20.025Z</time></trkpt><trkpt lat="43.403093" lon="11.3588587"><ele>445.0</ele><time>2026-04-11T08:32:21.024Z</time></trkpt><trkpt lat="43.4030177" lon="11.3588188"><ele>445.0</ele><time>2026-04-11T08:32:22.024Z</time></trkpt><trkpt lat="43.4029519" lon="11.358741"><ele>445.00000000000006</ele><time>2026-04-11T08:32:23.024Z</time></trkpt><trkpt lat="43.4029089" lon="11.3586385"><ele>445.0</ele><time>2026-04-11T08:32:24.024Z</time></trkpt><trkpt lat="43.4028867" lon="11.3585116"><ele>444.6</ele><time>2026-04-11T08:32:25.024Z</time></trkpt><trkpt lat="43.4028736" lon="11.3583883"><ele>444.2</ele><time>2026-04-11T08:32:26.024Z</time></trkpt><trkpt lat="43.4028569" lon="11.3582405"><ele>443.79999999999995</ele><time>2026-04-11T08:32:27.024Z</time></trkpt><trkpt lat="43.4028336" lon="11.3580866"><ele>443.4</ele><time>2026-04-11T08:32:28.025Z</time></trkpt><trkpt lat="43.4028089" lon="11.3579352"><ele>443.0</ele><time>2026-04-11T08:32:29.024Z</time></trkpt><trkpt lat="43.4027844" lon="11.3577874"><ele>442.99999999999994</ele><time>2026-04-11T08:32:30.025Z</time></trkpt><trkpt lat="43.4027643" lon="11.3576509"><ele>443.0</ele><time>2026-04-11T08:32:31.024Z</time></trkpt><trkpt lat="43.4027597" lon="11.3575306"><ele>443.0</ele><time>2026-04-11T08:32:32.025Z</time></trkpt><trkpt lat="43.4027756" lon="11.3574146"><ele>443.0</ele><time>2026-04-11T08:32:33.025Z</time></trkpt><trkpt lat="43.4028125" lon="11.35731"><ele>442.99999999999994</ele><time>2026-04-11T08:32:34.024Z</time></trkpt><trkpt lat="43.4028734" lon="11.3572209"><ele>443.0</ele><time>2026-04-11T08:32:35.025Z</time></trkpt><trkpt lat="43.4029486" lon="11.3571482"><ele>443.79999999999995</ele><time>2026-04-11T08:32:36.024Z</time></trkpt><trkpt lat="43.403035" lon="11.3570955"><ele>444.59999999999997</ele><time>2026-04-11T08:32:37.025Z</time></trkpt><trkpt lat="43.4031309" lon="11.3570779"><ele>445.40000000000003</ele><time>2026-04-11T08:32:38.025Z</time></trkpt><trkpt lat="43.4032298" lon="11.357089"><ele>446.20000000000005</ele><time>2026-04-11T08:32:39.024Z</time></trkpt><trkpt lat="43.4033327" lon="11.3571107"><ele>447.0</ele><time>2026-04-11T08:32:40.025Z</time></trkpt><trkpt lat="43.4034331" lon="11.3571238"><ele>447.0</ele><time>2026-04-11T08:32:41.026Z</time></trkpt><trkpt lat="43.4035411" lon="11.3571184"><ele>447.0</ele><time>2026-04-11T08:32:42.025Z</time></trkpt><trkpt lat="43.4036356" lon="11.3570988"><ele>447.0</ele><time>2026-04-11T08:32:43.025Z</time></trkpt><trkpt lat="43.4037235" lon="11.357071"><ele>447.0</ele><time>2026-04-11T08:32:44.025Z</time></trkpt><trkpt lat="43.403788" lon="11.3570275"><ele>447.0</ele><time>2026-04-11T08:32:45.026Z</time></trkpt><trkpt lat="43.4038381" lon="11.3569619"><ele>447.0</ele><time>2026-04-11T08:32:46.026Z</time></trkpt><trkpt lat="43.4038674" lon="11.3568758"><ele>447.0</ele><time>2026-04-11T08:32:47.025Z</time></trkpt><trkpt lat="43.4038805" lon="11.356767"><ele>447.0</ele><time>2026-04-11T08:32:48.026Z</time></trkpt><trkpt lat="43.4038752" lon="11.3566676"><ele>447.0</ele><time>2026-04-11T08:32:49.025Z</time></trkpt><trkpt lat="43.4038442" lon="11.356573"><ele>447.0</ele><time>2026-04-11T08:32:50.026Z</time></trkpt><trkpt lat="43.4037913" lon="11.3564887"><ele>447.0</ele><time>2026-04-11T08:32:51.026Z</time></trkpt><trkpt lat="43.4037192" lon="11.3563956"><ele>447.0</ele><time>2026-04-11T08:32:52.026Z</time></trkpt><trkpt lat="43.403658" lon="11.3563001"><ele>446.8333333333333</ele><time>2026-04-11T08:32:53.025Z</time></trkpt><trkpt lat="43.4036162" lon="11.3561958"><ele>446.66666666666663</ele><time>2026-04-11T08:32:54.026Z</time></trkpt><trkpt lat="43.4035976" lon="11.356086"><ele>446.5</ele><time>2026-04-11T08:32:55.026Z</time></trkpt><trkpt lat="43.4036144" lon="11.3559897"><ele>446.3333333333333</ele><time>2026-04-11T08:32:56.026Z</time></trkpt><trkpt lat="43.4036669" lon="11.3559072"><ele>446.16666666666663</ele><time>2026-04-11T08:32:57.026Z</time></trkpt><trkpt lat="43.4037424" lon="11.355822"><ele>446.0</ele><time>2026-04-11T08:32:58.026Z</time></trkpt><trkpt lat="43.4038321" lon="11.3557427"><ele>447.5</ele><time>2026-04-11T08:32:59.025Z</time></trkpt><trkpt lat="43.4039401" lon="11.3556714"><ele>449.0</ele><time>2026-04-11T08:33:00.025Z</time></trkpt><trkpt lat="43.4040518" lon="11.3556065"><ele>450.5</ele><time>2026-04-11T08:33:01.026Z</time></trkpt><trkpt lat="43.4041647" lon="11.3555586"><ele>452.0</ele><time>2026-04-11T08:33:02.026Z</time></trkpt><trkpt lat="43.4043729" lon="11.3555889"><ele>452.0</ele><time>2026-04-11T08:33:04.026Z</time></trkpt><trkpt lat="43.4044888" lon="11.3556254"><ele>452.00000000000006</ele><time>2026-04-11T08:33:05.026Z</time></trkpt><trkpt lat="43.4045897" lon="11.3556704"><ele>452.00000000000006</ele><time>2026-04-11T08:33:06.026Z</time></trkpt><trkpt lat="43.4046862" lon="11.3557301"><ele>452.0</ele><time>2026-04-11T08:33:07.026Z</time></trkpt><trkpt lat="43.4047759" lon="11.3558002"><ele>452.0</ele><time>2026-04-11T08:33:08.025Z</time></trkpt><trkpt lat="43.4048719" lon="11.3558761"><ele>452.8</ele><time>2026-04-11T08:33:09.025Z</time></trkpt><trkpt lat="43.4049518" lon="11.3559518"><ele>453.6</ele><time>2026-04-11T08:33:10.026Z</time></trkpt><trkpt lat="43.4050194" lon="11.3560189"><ele>454.40000000000003</ele><time>2026-04-11T08:33:11.026Z</time></trkpt><trkpt lat="43.4050842" lon="11.3560774"><ele>455.20000000000005</ele><time>2026-04-11T08:33:12.026Z</time></trkpt><trkpt lat="43.4052054" lon="11.3561238"><ele>456.0</ele><time>2026-04-11T08:33:14.025Z</time></trkpt><trkpt lat="43.4053173" lon="11.356075"><ele>456.0</ele><time>2026-04-11T08:33:16.026Z</time></trkpt><trkpt lat="43.4053871" lon="11.3559397"><ele>456.0</ele><time>2026-04-11T08:33:18.026Z</time></trkpt><trkpt lat="43.4053941" lon="11.3558386"><ele>456.0</ele><time>2026-04-11T08:33:19.025Z</time></trkpt><trkpt lat="43.4053967" lon="11.3557115"><ele>456.0</ele><time>2026-04-11T08:33:20.026Z</time></trkpt><trkpt lat="43.4054075" lon="11.3555963"><ele>456.0</ele><time>2026-04-11T08:33:21.026Z</time></trkpt><trkpt lat="43.405437" lon="11.3554947"><ele>455.5</ele><time>2026-04-11T08:33:22.026Z</time></trkpt><trkpt lat="43.4054867" lon="11.3554402"><ele>455.0</ele><time>2026-04-11T08:33:23.026Z</time></trkpt><trkpt lat="43.40556" lon="11.3554051"><ele>454.5</ele><time>2026-04-11T08:33:24.026Z</time></trkpt><trkpt lat="43.4056347" lon="11.3553942"><ele>454.0</ele><time>2026-04-11T08:33:25.026Z</time></trkpt><trkpt lat="43.4057197" lon="11.3554243"><ele>453.5</ele><time>2026-04-11T08:33:26.025Z</time></trkpt><trkpt lat="43.4058155" lon="11.3554787"><ele>453.0</ele><time>2026-04-11T08:33:27.025Z</time></trkpt><trkpt lat="43.4059208" lon="11.3555541"><ele>455.5</ele><time>2026-04-11T08:33:28.026Z</time></trkpt><trkpt lat="43.4060283" lon="11.3556392"><ele>458.0</ele><time>2026-04-11T08:33:29.025Z</time></trkpt><trkpt lat="43.4061367" lon="11.3557344"><ele>460.5</ele><time>2026-04-11T08:33:30.025Z</time></trkpt><trkpt lat="43.4062425" lon="11.3558277"><ele>463.0</ele><time>2026-04-11T08:33:31.026Z</time></trkpt><trkpt lat="43.4063408" lon="11.3559147"><ele>463.50000000000006</ele><time>2026-04-11T08:33:32.026Z</time></trkpt><trkpt lat="43.406426" lon="11.3559862"><ele>464.0</ele><time>2026-04-11T08:33:33.026Z</time></trkpt><trkpt lat="43.4064998" lon="11.3560417"><ele>464.5</ele><time>2026-04-11T08:33:34.026Z</time></trkpt><trkpt lat="43.4065608" lon="11.3560643"><ele>465.0</ele><time>2026-04-11T08:33:35.026Z</time></trkpt><trkpt lat="43.4066633" lon="11.3560246"><ele>465.50000000000006</ele><time>2026-04-11T08:33:37.025Z</time></trkpt><trkpt lat="43.4067153" lon="11.3559519"><ele>466.0</ele><time>2026-04-11T08:33:38.025Z</time></trkpt><trkpt lat="43.4067272" lon="11.355863"><ele>466.00000000000006</ele><time>2026-04-11T08:33:39.026Z</time></trkpt><trkpt lat="43.4067259" lon="11.3557568"><ele>466.0</ele><time>2026-04-11T08:33:40.026Z</time></trkpt><trkpt lat="43.4067098" lon="11.3556549"><ele>466.0</ele><time>2026-04-11T08:33:41.025Z</time></trkpt><trkpt lat="43.4066866" lon="11.3555522"><ele>466.0</ele><time>2026-04-11T08:33:42.026Z</time></trkpt><trkpt lat="43.4066517" lon="11.3554386"><ele>466.00000000000006</ele><time>2026-04-11T08:33:43.027Z</time></trkpt><trkpt lat="43.4066148" lon="11.35531"><ele>466.0</ele><time>2026-04-11T08:33:44.026Z</time></trkpt><trkpt lat="43.4065821" lon="11.3551588"><ele>465.33333333333337</ele><time>2026-04-11T08:33:45.027Z</time></trkpt><trkpt lat="43.4065622" lon="11.355004"><ele>464.6666666666667</ele><time>2026-04-11T08:33:46.027Z</time></trkpt><trkpt lat="43.4065563" lon="11.3548621"><ele>464.0</ele><time>2026-04-11T08:33:47.026Z</time></trkpt><trkpt lat="43.4065733" lon="11.3547588"><ele>463.33333333333337</ele><time>2026-04-11T08:33:48.027Z</time></trkpt><trkpt lat="43.4066097" lon="11.3546785"><ele>462.6666666666667</ele><time>2026-04-11T08:33:49.026Z</time></trkpt><trkpt lat="43.4066688" lon="11.3546132"><ele>462.0</ele><time>2026-04-11T08:33:50.026Z</time></trkpt><trkpt lat="43.4067505" lon="11.354552"><ele>462.6</ele><time>2026-04-11T08:33:51.026Z</time></trkpt><trkpt lat="43.4068451" lon="11.3544868"><ele>463.20000000000005</ele><time>2026-04-11T08:33:52.026Z</time></trkpt><trkpt lat="43.4069473" lon="11.3544217"><ele>463.8</ele><time>2026-04-11T08:33:53.026Z</time></trkpt><trkpt lat="43.4070506" lon="11.3543691"><ele>464.4</ele><time>2026-04-11T08:33:54.026Z</time></trkpt><trkpt lat="43.4071559" lon="11.3543356"><ele>465.0</ele><time>2026-04-11T08:33:55.027Z</time></trkpt><trkpt lat="43.4072591" lon="11.3543264"><ele>465.0</ele><time>2026-04-11T08:33:56.026Z</time></trkpt><trkpt lat="43.4073551" lon="11.3543454"><ele>465.0</ele><time>2026-04-11T08:33:57.026Z</time></trkpt><trkpt lat="43.4074409" lon="11.3543902"><ele>465.0</ele><time>2026-04-11T08:33:58.026Z</time></trkpt><trkpt lat="43.4075187" lon="11.3544281"><ele>465.0</ele><time>2026-04-11T08:33:59.026Z</time></trkpt><trkpt lat="43.4076192" lon="11.3543754"><ele>465.0</ele><time>2026-04-11T08:34:01.027Z</time></trkpt><trkpt lat="43.4076576" lon="11.3542831"><ele>465.0</ele><time>2026-04-11T08:34:02.027Z</time></trkpt><trkpt lat="43.4076864" lon="11.354153"><ele>465.0</ele><time>2026-04-11T08:34:03.027Z</time></trkpt><trkpt lat="43.4077257" lon="11.3540367"><ele>465.0</ele><time>2026-04-11T08:34:04.027Z</time></trkpt><trkpt lat="43.4077803" lon="11.353934"><ele>465.0</ele><time>2026-04-11T08:34:05.027Z</time></trkpt><trkpt lat="43.4078507" lon="11.3538576"><ele>465.0</ele><time>2026-04-11T08:34:06.026Z</time></trkpt><trkpt lat="43.4079344" lon="11.3538113"><ele>464.1666666666667</ele><time>2026-04-11T08:34:07.026Z</time></trkpt><trkpt lat="43.4080239" lon="11.3537987"><ele>463.33333333333337</ele><time>2026-04-11T08:34:08.027Z</time></trkpt><trkpt lat="43.4081039" lon="11.3538053"><ele>462.5</ele><time>2026-04-11T08:34:09.027Z</time></trkpt><trkpt lat="43.408177" lon="11.3538583"><ele>461.6666666666667</ele><time>2026-04-11T08:34:10.027Z</time></trkpt><trkpt lat="43.408251" lon="11.3539352"><ele>460.83333333333337</ele><time>2026-04-11T08:34:11.026Z</time></trkpt><trkpt lat="43.4083215" lon="11.3540225"><ele>460.0</ele><time>2026-04-11T08:34:12.027Z</time></trkpt><trkpt lat="43.408392" lon="11.3540978"><ele>459.99999999999994</ele><time>2026-04-11T08:34:13.026Z</time></trkpt><trkpt lat="43.4084607" lon="11.3541445"><ele>460.0</ele><time>2026-04-11T08:34:14.026Z</time></trkpt><trkpt lat="43.4085311" lon="11.3541684"><ele>459.99999999999994</ele><time>2026-04-11T08:34:15.026Z</time></trkpt><trkpt lat="43.4085991" lon="11.354157"><ele>459.99999999999994</ele><time>2026-04-11T08:34:16.026Z</time></trkpt><trkpt lat="43.4086642" lon="11.3541117"><ele>460.0</ele><time>2026-04-11T08:34:17.027Z</time></trkpt><trkpt lat="43.4087149" lon="11.3540331"><ele>459.99999999999994</ele><time>2026-04-11T08:34:18.027Z</time></trkpt><trkpt lat="43.4087607" lon="11.3539448"><ele>459.99999999999994</ele><time>2026-04-11T08:34:19.027Z</time></trkpt><trkpt lat="43.4087882" lon="11.3538336"><ele>460.0</ele><time>2026-04-11T08:34:20.026Z</time></trkpt><trkpt lat="43.4088013" lon="11.3537158"><ele>460.0</ele><time>2026-04-11T08:34:21.027Z</time></trkpt><trkpt lat="43.4088051" lon="11.3535872"><ele>460.0</ele><time>2026-04-11T08:34:22.026Z</time></trkpt><trkpt lat="43.4088124" lon="11.3534528"><ele>460.0</ele><time>2026-04-11T08:34:23.027Z</time></trkpt><trkpt lat="43.4088302" lon="11.3533224"><ele>460.0</ele><time>2026-04-11T08:34:24.027Z</time></trkpt><trkpt lat="43.4088689" lon="11.3532336"><ele>461.6</ele><time>2026-04-11T08:34:25.026Z</time></trkpt><trkpt lat="43.4089344" lon="11.3531907"><ele>463.2</ele><time>2026-04-11T08:34:26.027Z</time></trkpt><trkpt lat="43.4090126" lon="11.3531674"><ele>464.79999999999995</ele><time>2026-04-11T08:34:27.027Z</time></trkpt><trkpt lat="43.4091136" lon="11.3531608"><ele>466.4</ele><time>2026-04-11T08:34:28.027Z</time></trkpt><trkpt lat="43.4092262" lon="11.3531689"><ele>468.0</ele><time>2026-04-11T08:34:29.026Z</time></trkpt><trkpt lat="43.4093445" lon="11.3532017"><ele>468.0</ele><time>2026-04-11T08:34:30.027Z</time></trkpt><trkpt lat="43.409449" lon="11.3532546"><ele>468.0</ele><time>2026-04-11T08:34:31.026Z</time></trkpt><trkpt lat="43.4095476" lon="11.3533137"><ele>468.0</ele><time>2026-04-11T08:34:32.026Z</time></trkpt><trkpt lat="43.4096329" lon="11.3533473"><ele>468.0</ele><time>2026-04-11T08:34:33.027Z</time></trkpt><trkpt lat="43.4097022" lon="11.3533539"><ele>468.0</ele><time>2026-04-11T08:34:34.026Z</time></trkpt><trkpt lat="43.4097643" lon="11.3533315"><ele>468.0</ele><time>2026-04-11T08:34:35.027Z</time></trkpt><trkpt lat="43.409836" lon="11.3532136"><ele>468.1666666666667</ele><time>2026-04-11T08:34:37.026Z</time></trkpt><trkpt lat="43.4098428" lon="11.3531232"><ele>468.33333333333337</ele><time>2026-04-11T08:34:38.026Z</time></trkpt><trkpt lat="43.4098452" lon="11.3530265"><ele>468.5</ele><time>2026-04-11T08:34:39.027Z</time></trkpt><trkpt lat="43.4098611" lon="11.3529012"><ele>468.6666666666667</ele><time>2026-04-11T08:34:40.026Z</time></trkpt><trkpt lat="43.409898" lon="11.3527879"><ele>468.83333333333337</ele><time>2026-04-11T08:34:41.027Z</time></trkpt><trkpt lat="43.4099614" lon="11.3526878"><ele>469.0</ele><time>2026-04-11T08:34:42.026Z</time></trkpt><trkpt lat="43.4100468" lon="11.3525876"><ele>469.00000000000006</ele><time>2026-04-11T08:34:43.026Z</time></trkpt><trkpt lat="43.4101301" lon="11.3524884"><ele>469.0</ele><time>2026-04-11T08:34:44.027Z</time></trkpt><trkpt lat="43.4101974" lon="11.3524191"><ele>469.0</ele><time>2026-04-11T08:34:45.027Z</time></trkpt><trkpt lat="43.4102537" lon="11.3523616"><ele>469.0</ele><time>2026-04-11T08:34:46.028Z</time></trkpt><trkpt lat="43.4103374" lon="11.3523212"><ele>469.00000000000006</ele><time>2026-04-11T08:34:48.028Z</time></trkpt><trkpt lat="43.4104126" lon="11.3523046"><ele>469.0</ele><time>2026-04-11T08:34:49.027Z</time></trkpt><trkpt lat="43.4105051" lon="11.3522868"><ele>469.4</ele><time>2026-04-11T08:34:50.027Z</time></trkpt><trkpt lat="43.4105837" lon="11.3522693"><ele>469.79999999999995</ele><time>2026-04-11T08:34:51.027Z</time></trkpt><trkpt lat="43.4106627" lon="11.3522524"><ele>470.20000000000005</ele><time>2026-04-11T08:34:53.027Z</time></trkpt><trkpt lat="43.4107303" lon="11.3522427"><ele>470.6</ele><time>2026-04-11T08:35:04.027Z</time></trkpt><trkpt lat="43.4108455" lon="11.3521655"><ele>471.0</ele><time>2026-04-11T08:35:06.028Z</time></trkpt><trkpt lat="43.410942" lon="11.3521383"><ele>471.0</ele><time>2026-04-11T08:35:07.028Z</time></trkpt><trkpt lat="43.4110706" lon="11.3521184"><ele>471.0</ele><time>2026-04-11T08:35:08.027Z</time></trkpt><trkpt lat="43.411215" lon="11.3521012"><ele>471.0</ele><time>2026-04-11T08:35:09.027Z</time></trkpt><trkpt lat="43.4113686" lon="11.3520719"><ele>471.0</ele><time>2026-04-11T08:35:10.027Z</time></trkpt><trkpt lat="43.41152" lon="11.3520424"><ele>470.0</ele><time>2026-04-11T08:35:11.027Z</time></trkpt><trkpt lat="43.4116615" lon="11.3520093"><ele>469.0</ele><time>2026-04-11T08:35:12.028Z</time></trkpt><trkpt lat="43.4117963" lon="11.3519699"><ele>468.0</ele><time>2026-04-11T08:35:13.027Z</time></trkpt><trkpt lat="43.4119198" lon="11.3519363"><ele>467.0</ele><time>2026-04-11T08:35:14.027Z</time></trkpt><trkpt lat="43.412047" lon="11.3519007"><ele>468.25</ele><time>2026-04-11T08:35:15.028Z</time></trkpt><trkpt lat="43.4121791" lon="11.3518645"><ele>469.5</ele><time>2026-04-11T08:35:16.027Z</time></trkpt><trkpt lat="43.4123141" lon="11.3518261"><ele>470.75</ele><time>2026-04-11T08:35:17.027Z</time></trkpt><trkpt lat="43.4124457" lon="11.3517915"><ele>472.0</ele><time>2026-04-11T08:35:18.028Z</time></trkpt><trkpt lat="43.4125705" lon="11.3517597"><ele>472.0</ele><time>2026-04-11T08:35:19.027Z</time></trkpt><trkpt lat="43.4126924" lon="11.3517282"><ele>472.0</ele><time>2026-04-11T08:35:20.028Z</time></trkpt><trkpt lat="43.412812" lon="11.3516884"><ele>472.0</ele><time>2026-04-11T08:35:21.028Z</time></trkpt><trkpt lat="43.4129347" lon="11.3516214"><ele>472.0</ele><time>2026-04-11T08:35:22.027Z</time></trkpt><trkpt lat="43.4130542" lon="11.3515228"><ele>474.33333333333337</ele><time>2026-04-11T08:35:23.028Z</time></trkpt><trkpt lat="43.4131702" lon="11.3513789"><ele>476.66666666666663</ele><time>2026-04-11T08:35:24.028Z</time></trkpt><trkpt lat="43.4132786" lon="11.3512021"><ele>479.0</ele><time>2026-04-11T08:35:25.027Z</time></trkpt><trkpt lat="43.4133883" lon="11.3510116"><ele>479.25</ele><time>2026-04-11T08:35:26.028Z</time></trkpt><trkpt lat="43.4134986" lon="11.3508421"><ele>479.5</ele><time>2026-04-11T08:35:27.027Z</time></trkpt><trkpt lat="43.4135995" lon="11.3506968"><ele>479.75</ele><time>2026-04-11T08:35:28.028Z</time></trkpt><trkpt lat="43.4136923" lon="11.3505653"><ele>480.0</ele><time>2026-04-11T08:35:29.028Z</time></trkpt><trkpt lat="43.4137738" lon="11.3504539"><ele>482.8</ele><time>2026-04-11T08:35:30.028Z</time></trkpt><trkpt lat="43.4138503" lon="11.3503572"><ele>485.6</ele><time>2026-04-11T08:35:31.028Z</time></trkpt><trkpt lat="43.4139415" lon="11.3502858"><ele>488.4</ele><time>2026-04-11T08:35:32.028Z</time></trkpt><trkpt lat="43.4140587" lon="11.3502579"><ele>491.2</ele><time>2026-04-11T08:35:33.027Z</time></trkpt><trkpt lat="43.4141665" lon="11.3502753"><ele>494.0</ele><time>2026-04-11T08:35:34.027Z</time></trkpt><trkpt lat="43.4142951" lon="11.3503585"><ele>494.0</ele><time>2026-04-11T08:35:35.028Z</time></trkpt><trkpt lat="43.4144041" lon="11.3504289"><ele>494.0</ele><time>2026-04-11T08:35:36.028Z</time></trkpt><trkpt lat="43.4145064" lon="11.3504447"><ele>494.0</ele><time>2026-04-11T08:35:37.028Z</time></trkpt><trkpt lat="43.414592" lon="11.350416"><ele>494.0</ele><time>2026-04-11T08:35:38.027Z</time></trkpt><trkpt lat="43.4146611" lon="11.3503712"><ele>494.0</ele><time>2026-04-11T08:35:39.028Z</time></trkpt><trkpt lat="43.4147234" lon="11.3503092"><ele>493.25</ele><time>2026-04-11T08:35:40.028Z</time></trkpt><trkpt lat="43.4147503" lon="11.3501989"><ele>492.5</ele><time>2026-04-11T08:35:41.028Z</time></trkpt><trkpt lat="43.4147453" lon="11.3500321"><ele>491.75</ele><time>2026-04-11T08:35:42.027Z</time></trkpt><trkpt lat="43.4147342" lon="11.3498346"><ele>491.0</ele><time>2026-04-11T08:35:43.027Z</time></trkpt><trkpt lat="43.4147287" lon="11.3496283"><ele>491.0</ele><time>2026-04-11T08:35:44.027Z</time></trkpt><trkpt lat="43.4147507" lon="11.3494453"><ele>491.0</ele><time>2026-04-11T08:35:45.028Z</time></trkpt><trkpt lat="43.4148146" lon="11.3492475"><ele>491.0</ele><time>2026-04-11T08:35:46.029Z</time></trkpt><trkpt lat="43.4149051" lon="11.349049"><ele>491.0</ele><time>2026-04-11T08:35:47.028Z</time></trkpt><trkpt lat="43.4150326" lon="11.3488976"><ele>491.0</ele><time>2026-04-11T08:35:48.028Z</time></trkpt><trkpt lat="43.415169" lon="11.348811"><ele>491.0</ele><time>2026-04-11T08:35:49.028Z</time></trkpt><trkpt lat="43.4152809" lon="11.3487716"><ele>491.0</ele><time>2026-04-11T08:35:50.028Z</time></trkpt><trkpt lat="43.4153801" lon="11.348776"><ele>490.75</ele><time>2026-04-11T08:35:51.029Z</time></trkpt><trkpt lat="43.4154955" lon="11.3488255"><ele>490.5</ele><time>2026-04-11T08:35:52.028Z</time></trkpt><trkpt lat="43.4156339" lon="11.3488761"><ele>490.25</ele><time>2026-04-11T08:35:53.029Z</time></trkpt><trkpt lat="43.4157853" lon="11.3489171"><ele>490.0</ele><time>2026-04-11T08:35:54.028Z</time></trkpt><trkpt lat="43.4159488" lon="11.3489235"><ele>490.0</ele><time>2026-04-11T08:35:55.028Z</time></trkpt><trkpt lat="43.4160768" lon="11.3488986"><ele>490.0</ele><time>2026-04-11T08:35:56.028Z</time></trkpt><trkpt lat="43.4161781" lon="11.3488698"><ele>490.0</ele><time>2026-04-11T08:35:57.028Z</time></trkpt><trkpt lat="43.4162666" lon="11.34885"><ele>490.0</ele><time>2026-04-11T08:35:58.029Z</time></trkpt><trkpt lat="43.416358" lon="11.348833"><ele>490.0</ele><time>2026-04-11T08:35:59.029Z</time></trkpt><trkpt lat="43.4164507" lon="11.3488173"><ele>492.50000000000006</ele><time>2026-04-11T08:36:00.028Z</time></trkpt><trkpt lat="43.4165402" lon="11.3487963"><ele>495.0</ele><time>2026-04-11T08:36:01.028Z</time></trkpt><trkpt lat="43.4166156" lon="11.3487802"><ele>497.5</ele><time>2026-04-11T08:36:02.028Z</time></trkpt><trkpt lat="43.4166963" lon="11.3487691"><ele>500.0</ele><time>2026-04-11T08:36:03.028Z</time></trkpt><trkpt lat="43.4167855" lon="11.3487603"><ele>502.50000000000006</ele><time>2026-04-11T08:36:04.029Z</time></trkpt><trkpt lat="43.4168746" lon="11.3487482"><ele>505.0</ele><time>2026-04-11T08:36:05.029Z</time></trkpt><trkpt lat="43.4169578" lon="11.3487298"><ele>505.00000000000006</ele><time>2026-04-11T08:36:06.029Z</time></trkpt><trkpt lat="43.4170397" lon="11.3486986"><ele>505.0</ele><time>2026-04-11T08:36:07.028Z</time></trkpt><trkpt lat="43.4171221" lon="11.3486461"><ele>505.0</ele><time>2026-04-11T08:36:08.028Z</time></trkpt><trkpt lat="43.417194" lon="11.3485752"><ele>505.0</ele><time>2026-04-11T08:36:09.028Z</time></trkpt><trkpt lat="43.4172503" lon="11.3484764"><ele>505.00000000000006</ele><time>2026-04-11T08:36:10.028Z</time></trkpt><trkpt lat="43.4172788" lon="11.3483591"><ele>505.0</ele><time>2026-04-11T08:36:11.029Z</time></trkpt><trkpt lat="43.4172686" lon="11.3482265"><ele>506.5</ele><time>2026-04-11T08:36:12.028Z</time></trkpt><trkpt lat="43.4172311" lon="11.3480805"><ele>508.0</ele><time>2026-04-11T08:36:13.029Z</time></trkpt><trkpt lat="43.4171794" lon="11.3479064"><ele>509.5</ele><time>2026-04-11T08:36:14.028Z</time></trkpt><trkpt lat="43.4171333" lon="11.347712"><ele>511.0</ele><time>2026-04-11T08:36:15.028Z</time></trkpt><trkpt lat="43.4171188" lon="11.3475294"><ele>511.0</ele><time>2026-04-11T08:36:16.029Z</time></trkpt><trkpt lat="43.4171388" lon="11.347379"><ele>511.0</ele><time>2026-04-11T08:36:17.028Z</time></trkpt><trkpt lat="43.4171951" lon="11.3472541"><ele>511.0</ele><time>2026-04-11T08:36:18.029Z</time></trkpt><trkpt lat="43.4172943" lon="11.3471398"><ele>511.0</ele><time>2026-04-11T08:36:19.029Z</time></trkpt><trkpt lat="43.4174222" lon="11.3470305"><ele>511.0</ele><time>2026-04-11T08:36:20.029Z</time></trkpt><trkpt lat="43.4175509" lon="11.3469223"><ele>511.0</ele><time>2026-04-11T08:36:21.028Z</time></trkpt><trkpt lat="43.4176825" lon="11.3468099"><ele>511.0</ele><time>2026-04-11T08:36:22.029Z</time></trkpt><trkpt lat="43.4178238" lon="11.3467003"><ele>511.0</ele><time>2026-04-11T08:36:23.028Z</time></trkpt><trkpt lat="43.4179735" lon="11.3466113"><ele>511.0</ele><time>2026-04-11T08:36:24.028Z</time></trkpt><trkpt lat="43.4181147" lon="11.3465503"><ele>511.0</ele><time>2026-04-11T08:36:25.029Z</time></trkpt><trkpt lat="43.4182454" lon="11.3465113"><ele>511.0</ele><time>2026-04-11T08:36:26.028Z</time></trkpt><trkpt lat="43.4183762" lon="11.346481"><ele>508.5</ele><time>2026-04-11T08:36:27.029Z</time></trkpt><trkpt lat="43.41851" lon="11.3464575"><ele>506.0</ele><time>2026-04-11T08:36:28.028Z</time></trkpt><trkpt lat="43.418645" lon="11.3464394"><ele>503.5</ele><time>2026-04-11T08:36:29.029Z</time></trkpt><trkpt lat="43.4187816" lon="11.346434"><ele>501.0</ele><time>2026-04-11T08:36:30.028Z</time></trkpt><trkpt lat="43.4189135" lon="11.346457"><ele>501.0</ele><time>2026-04-11T08:36:31.029Z</time></trkpt><trkpt lat="43.4190328" lon="11.3465312"><ele>501.0</ele><time>2026-04-11T08:36:32.028Z</time></trkpt><trkpt lat="43.4191368" lon="11.3466513"><ele>501.0</ele><time>2026-04-11T08:36:33.029Z</time></trkpt><trkpt lat="43.4192446" lon="11.3467863"><ele>501.0</ele><time>2026-04-11T08:36:34.028Z</time></trkpt><trkpt lat="43.4193562" lon="11.3468975"><ele>501.0</ele><time>2026-04-11T08:36:35.028Z</time></trkpt><trkpt lat="43.419462" lon="11.3469707"><ele>501.0</ele><time>2026-04-11T08:36:36.029Z</time></trkpt><trkpt lat="43.419567" lon="11.3470145"><ele>501.0</ele><time>2026-04-11T08:36:37.028Z</time></trkpt><trkpt lat="43.4196735" lon="11.3470335"><ele>501.0</ele><time>2026-04-11T08:36:38.028Z</time></trkpt><trkpt lat="43.4197933" lon="11.3470206"><ele>502.5</ele><time>2026-04-11T08:36:39.028Z</time></trkpt><trkpt lat="43.4199241" lon="11.3469888"><ele>504.0</ele><time>2026-04-11T08:36:40.029Z</time></trkpt><trkpt lat="43.4200565" lon="11.3469744"><ele>505.5</ele><time>2026-04-11T08:36:41.028Z</time></trkpt><trkpt lat="43.4201818" lon="11.3470024"><ele>507.0</ele><time>2026-04-11T08:36:42.029Z</time></trkpt><trkpt lat="43.4202927" lon="11.3470608"><ele>507.0</ele><time>2026-04-11T08:36:43.029Z</time></trkpt><trkpt lat="43.4203829" lon="11.3471315"><ele>507.00000000000006</ele><time>2026-04-11T08:36:44.029Z</time></trkpt><trkpt lat="43.4204624" lon="11.3472163"><ele>507.00000000000006</ele><time>2026-04-11T08:36:45.028Z</time></trkpt><trkpt lat="43.4205456" lon="11.3472727"><ele>507.0</ele><time>2026-04-11T08:36:46.028Z</time></trkpt><trkpt lat="43.4206374" lon="11.3472943"><ele>507.0</ele><time>2026-04-11T08:36:47.029Z</time></trkpt><trkpt lat="43.4207497" lon="11.3472823"><ele>506.0</ele><time>2026-04-11T08:36:48.029Z</time></trkpt><trkpt lat="43.4208564" lon="11.3472657"><ele>505.0</ele><time>2026-04-11T08:36:49.029Z</time></trkpt><trkpt lat="43.4209529" lon="11.3472615"><ele>504.0</ele><time>2026-04-11T08:36:50.028Z</time></trkpt><trkpt lat="43.4210315" lon="11.347274"><ele>503.0</ele><time>2026-04-11T08:36:51.028Z</time></trkpt><trkpt lat="43.4211056" lon="11.347297"><ele>502.0</ele><time>2026-04-11T08:36:52.028Z</time></trkpt><trkpt lat="43.4211839" lon="11.3473297"><ele>501.0</ele><time>2026-04-11T08:36:53.029Z</time></trkpt><trkpt lat="43.4212581" lon="11.3473739"><ele>501.0</ele><time>2026-04-11T08:36:54.029Z</time></trkpt><trkpt lat="43.4213239" lon="11.3474254"><ele>501.0</ele><time>2026-04-11T08:36:55.03Z</time></trkpt><trkpt lat="43.4213726" lon="11.347486"><ele>501.0</ele><time>2026-04-11T08:36:56.029Z</time></trkpt><trkpt lat="43.4214241" lon="11.34762"><ele>501.0</ele><time>2026-04-11T08:36:58.029Z</time></trkpt><trkpt lat="43.4214456" lon="11.3477913"><ele>501.0</ele><time>2026-04-11T08:37:00.03Z</time></trkpt><trkpt lat="43.4214458" lon="11.3479072"><ele>501.0</ele><time>2026-04-11T08:37:01.03Z</time></trkpt><trkpt lat="43.4214363" lon="11.3480265"><ele>501.0</ele><time>2026-04-11T08:37:02.03Z</time></trkpt><trkpt lat="43.4214234" lon="11.3481438"><ele>501.0</ele><time>2026-04-11T08:37:03.029Z</time></trkpt><trkpt lat="43.4214089" lon="11.3482546"><ele>501.0</ele><time>2026-04-11T08:37:04.029Z</time></trkpt><trkpt lat="43.4213938" lon="11.3483616"><ele>501.0</ele><time>2026-04-11T08:37:05.03Z</time></trkpt><trkpt lat="43.4213733" lon="11.3484684"><ele>501.0</ele><time>2026-04-11T08:37:06.03Z</time></trkpt><trkpt lat="43.4213527" lon="11.3485768"><ele>501.6</ele><time>2026-04-11T08:37:07.029Z</time></trkpt><trkpt lat="43.4213339" lon="11.3486916"><ele>502.20000000000005</ele><time>2026-04-11T08:37:08.03Z</time></trkpt><trkpt lat="43.421323" lon="11.34882"><ele>502.79999999999995</ele><time>2026-04-11T08:37:09.029Z</time></trkpt><trkpt lat="43.4213193" lon="11.3489525"><ele>503.4</ele><time>2026-04-11T08:37:10.029Z</time></trkpt><trkpt lat="43.4213187" lon="11.3490915"><ele>504.0</ele><time>2026-04-11T08:37:11.029Z</time></trkpt><trkpt lat="43.4213254" lon="11.349227"><ele>503.0</ele><time>2026-04-11T08:37:12.029Z</time></trkpt><trkpt lat="43.4213334" lon="11.3493526"><ele>502.0</ele><time>2026-04-11T08:37:13.029Z</time></trkpt><trkpt lat="43.4213477" lon="11.3494635"><ele>501.0</ele><time>2026-04-11T08:37:14.029Z</time></trkpt><trkpt lat="43.4213776" lon="11.349552"><ele>500.0</ele><time>2026-04-11T08:37:15.029Z</time></trkpt><trkpt lat="43.4214267" lon="11.3496177"><ele>499.0</ele><time>2026-04-11T08:37:16.03Z</time></trkpt><trkpt lat="43.4214946" lon="11.3496528"><ele>498.0</ele><time>2026-04-11T08:37:17.03Z</time></trkpt><trkpt lat="43.4215803" lon="11.3496569"><ele>498.0</ele><time>2026-04-11T08:37:18.03Z</time></trkpt><trkpt lat="43.4217028" lon="11.3496134"><ele>498.0</ele><time>2026-04-11T08:37:19.029Z</time></trkpt><trkpt lat="43.4218297" lon="11.3495699"><ele>498.0</ele><time>2026-04-11T08:37:20.029Z</time></trkpt><trkpt lat="43.4219382" lon="11.3495568"><ele>498.0</ele><time>2026-04-11T08:37:21.029Z</time></trkpt><trkpt lat="43.4220457" lon="11.3495592"><ele>497.79999999999995</ele><time>2026-04-11T08:37:22.03Z</time></trkpt><trkpt lat="43.422162" lon="11.3495998"><ele>497.59999999999997</ele><time>2026-04-11T08:37:23.03Z</time></trkpt><trkpt lat="43.4222606" lon="11.3496545"><ele>497.40000000000003</ele><time>2026-04-11T08:37:24.03Z</time></trkpt><trkpt lat="43.422342" lon="11.3497203"><ele>497.20000000000005</ele><time>2026-04-11T08:37:25.029Z</time></trkpt><trkpt lat="43.4224056" lon="11.3497982"><ele>497.0</ele><time>2026-04-11T08:37:26.03Z</time></trkpt><trkpt lat="43.4224625" lon="11.3498889"><ele>495.1428571428571</ele><time>2026-04-11T08:37:27.03Z</time></trkpt><trkpt lat="43.4225124" lon="11.3499693"><ele>493.2857142857143</ele><time>2026-04-11T08:37:28.03Z</time></trkpt><trkpt lat="43.4225641" lon="11.3500328"><ele>491.42857142857144</ele><time>2026-04-11T08:37:29.029Z</time></trkpt><trkpt lat="43.4226262" lon="11.3500839"><ele>489.57142857142856</ele><time>2026-04-11T08:37:30.029Z</time></trkpt><trkpt lat="43.4226908" lon="11.3501324"><ele>487.71428571428567</ele><time>2026-04-11T08:37:31.029Z</time></trkpt><trkpt lat="43.4227484" lon="11.3501902"><ele>485.85714285714283</ele><time>2026-04-11T08:37:32.029Z</time></trkpt><trkpt lat="43.422802" lon="11.3502641"><ele>484.0</ele><time>2026-04-11T08:37:33.03Z</time></trkpt><trkpt lat="43.4228472" lon="11.35035"><ele>484.00000000000006</ele><time>2026-04-11T08:37:34.03Z</time></trkpt><trkpt lat="43.4228793" lon="11.3504402"><ele>484.0</ele><time>2026-04-11T08:37:35.029Z</time></trkpt><trkpt lat="43.4228996" lon="11.3505279"><ele>484.0</ele><time>2026-04-11T08:37:36.029Z</time></trkpt><trkpt lat="43.4229207" lon="11.3506374"><ele>484.0</ele><time>2026-04-11T08:37:37.03Z</time></trkpt><trkpt lat="43.4229843" lon="11.3507104"><ele>484.00000000000006</ele><time>2026-04-11T08:37:39.03Z</time></trkpt><trkpt lat="43.4230751" lon="11.3506594"><ele>484.0</ele><time>2026-04-11T08:37:41.03Z</time></trkpt><trkpt lat="43.4231216" lon="11.3505923"><ele>482.6666666666667</ele><time>2026-04-11T08:37:42.03Z</time></trkpt><trkpt lat="43.4231805" lon="11.3505025"><ele>481.33333333333337</ele><time>2026-04-11T08:37:43.03Z</time></trkpt><trkpt lat="43.4232373" lon="11.350417"><ele>480.0</ele><time>2026-04-11T08:37:44.03Z</time></trkpt><trkpt lat="43.4233045" lon="11.3503525"><ele>478.66666666666663</ele><time>2026-04-11T08:37:45.029Z</time></trkpt><trkpt lat="43.4233731" lon="11.3503019"><ele>477.3333333333333</ele><time>2026-04-11T08:37:46.03Z</time></trkpt><trkpt lat="43.4234519" lon="11.3502646"><ele>476.0</ele><time>2026-04-11T08:37:47.03Z</time></trkpt><trkpt lat="43.4235367" lon="11.3502344"><ele>475.99999999999994</ele><time>2026-04-11T08:37:48.03Z</time></trkpt><trkpt lat="43.4236253" lon="11.3502106"><ele>476.0</ele><time>2026-04-11T08:37:49.03Z</time></trkpt><trkpt lat="43.4237164" lon="11.3501888"><ele>476.0</ele><time>2026-04-11T08:37:50.029Z</time></trkpt><trkpt lat="43.4238009" lon="11.350185"><ele>476.0</ele><time>2026-04-11T08:37:51.029Z</time></trkpt><trkpt lat="43.4238718" lon="11.350203"><ele>475.99999999999994</ele><time>2026-04-11T08:37:52.029Z</time></trkpt><trkpt lat="43.4239314" lon="11.350238"><ele>476.0</ele><time>2026-04-11T08:37:53.03Z</time></trkpt><trkpt lat="43.4239819" lon="11.3502951"><ele>473.6</ele><time>2026-04-11T08:37:54.03Z</time></trkpt><trkpt lat="43.4240243" lon="11.3503778"><ele>471.20000000000005</ele><time>2026-04-11T08:37:55.03Z</time></trkpt><trkpt lat="43.4240491" lon="11.3504852"><ele>468.79999999999995</ele><time>2026-04-11T08:37:56.03Z</time></trkpt><trkpt lat="43.4240426" lon="11.3506383"><ele>466.4</ele><time>2026-04-11T08:37:57.031Z</time></trkpt><trkpt lat="43.4240275" lon="11.3508063"><ele>464.0</ele><time>2026-04-11T08:37:58.029Z</time></trkpt><trkpt lat="43.4240089" lon="11.3509865"><ele>461.25</ele><time>2026-04-11T08:37:59.031Z</time></trkpt><trkpt lat="43.4239918" lon="11.3511514"><ele>458.5</ele><time>2026-04-11T08:38:00.03Z</time></trkpt><trkpt lat="43.4239656" lon="11.3513056"><ele>455.75</ele><time>2026-04-11T08:38:01.03Z</time></trkpt><trkpt lat="43.4239301" lon="11.3514548"><ele>453.0</ele><time>2026-04-11T08:38:02.03Z</time></trkpt><trkpt lat="43.4238857" lon="11.3516069"><ele>452.79999999999995</ele><time>2026-04-11T08:38:03.03Z</time></trkpt><trkpt lat="43.4238343" lon="11.3517501"><ele>452.59999999999997</ele><time>2026-04-11T08:38:04.03Z</time></trkpt><trkpt lat="43.4237776" lon="11.3518743"><ele>452.40000000000003</ele><time>2026-04-11T08:38:05.031Z</time></trkpt><trkpt lat="43.4237278" lon="11.3519914"><ele>452.20000000000005</ele><time>2026-04-11T08:38:06.03Z</time></trkpt><trkpt lat="43.4236894" lon="11.3521099"><ele>452.0</ele><time>2026-04-11T08:38:07.031Z</time></trkpt><trkpt lat="43.4236677" lon="11.3522319"><ele>450.20000000000005</ele><time>2026-04-11T08:38:08.03Z</time></trkpt><trkpt lat="43.4236592" lon="11.3523574"><ele>448.40000000000003</ele><time>2026-04-11T08:38:09.03Z</time></trkpt><trkpt lat="43.423661" lon="11.3524935"><ele>446.59999999999997</ele><time>2026-04-11T08:38:10.031Z</time></trkpt><trkpt lat="43.423674" lon="11.3526362"><ele>444.79999999999995</ele><time>2026-04-11T08:38:11.03Z</time></trkpt><trkpt lat="43.4236905" lon="11.3527871"><ele>443.0</ele><time>2026-04-11T08:38:12.031Z</time></trkpt><trkpt lat="43.423711" lon="11.3529457"><ele>441.0</ele><time>2026-04-11T08:38:13.031Z</time></trkpt><trkpt lat="43.4237308" lon="11.3530989"><ele>438.99999999999994</ele><time>2026-04-11T08:38:14.03Z</time></trkpt><trkpt lat="43.4237495" lon="11.3532462"><ele>436.99999999999994</ele><time>2026-04-11T08:38:15.031Z</time></trkpt><trkpt lat="43.423771" lon="11.3533868"><ele>435.0</ele><time>2026-04-11T08:38:16.03Z</time></trkpt><trkpt lat="43.4237904" lon="11.3535205"><ele>433.0</ele><time>2026-04-11T08:38:17.031Z</time></trkpt><trkpt lat="43.4238084" lon="11.3536517"><ele>433.33333333333337</ele><time>2026-04-11T08:38:18.03Z</time></trkpt><trkpt lat="43.4238192" lon="11.3537809"><ele>433.6666666666667</ele><time>2026-04-11T08:38:19.031Z</time></trkpt><trkpt lat="43.4238276" lon="11.353904"><ele>434.0</ele><time>2026-04-11T08:38:20.03Z</time></trkpt><trkpt lat="43.4238367" lon="11.3540168"><ele>434.33333333333337</ele><time>2026-04-11T08:38:21.03Z</time></trkpt><trkpt lat="43.4238488" lon="11.3541179"><ele>434.6666666666667</ele><time>2026-04-11T08:38:22.03Z</time></trkpt><trkpt lat="43.4238654" lon="11.3542116"><ele>435.0</ele><time>2026-04-11T08:38:23.03Z</time></trkpt><trkpt lat="43.4238825" lon="11.3542962"><ele>435.0</ele><time>2026-04-11T08:38:24.031Z</time></trkpt><trkpt lat="43.4239103" lon="11.3543845"><ele>435.0</ele><time>2026-04-11T08:38:25.031Z</time></trkpt><trkpt lat="43.4239454" lon="11.3544628"><ele>435.0</ele><time>2026-04-11T08:38:26.03Z</time></trkpt><trkpt lat="43.4239865" lon="11.3545461"><ele>435.0</ele><time>2026-04-11T08:38:27.031Z</time></trkpt><trkpt lat="43.4240348" lon="11.3546307"><ele>435.0</ele><time>2026-04-11T08:38:28.03Z</time></trkpt><trkpt lat="43.4240915" lon="11.3547279"><ele>435.0</ele><time>2026-04-11T08:38:29.03Z</time></trkpt><trkpt lat="43.4241672" lon="11.354825"><ele>432.25</ele><time>2026-04-11T08:38:30.03Z</time></trkpt><trkpt lat="43.4242601" lon="11.3548855"><ele>429.5</ele><time>2026-04-11T08:38:31.031Z</time></trkpt><trkpt lat="43.4243764" lon="11.3549145"><ele>426.75</ele><time>2026-04-11T08:38:32.03Z</time></trkpt><trkpt lat="43.424547" lon="11.3549139"><ele>424.0</ele><time>2026-04-11T08:38:33.031Z</time></trkpt><trkpt lat="43.4246945" lon="11.354917"><ele>424.00000000000006</ele><time>2026-04-11T08:38:34.031Z</time></trkpt><trkpt lat="43.4248119" lon="11.3549147"><ele>424.0</ele><time>2026-04-11T08:38:35.03Z</time></trkpt><trkpt lat="43.4249048" lon="11.3549014"><ele>424.0</ele><time>2026-04-11T08:38:36.03Z</time></trkpt><trkpt lat="43.4249721" lon="11.3548617"><ele>424.0</ele><time>2026-04-11T08:38:37.03Z</time></trkpt><trkpt lat="43.4250268" lon="11.3547822"><ele>424.00000000000006</ele><time>2026-04-11T08:38:38.031Z</time></trkpt><trkpt lat="43.425067" lon="11.3546801"><ele>424.0</ele><time>2026-04-11T08:38:39.031Z</time></trkpt><trkpt lat="43.4250855" lon="11.3545513"><ele>424.2</ele><time>2026-04-11T08:38:40.031Z</time></trkpt><trkpt lat="43.4251188" lon="11.3544399"><ele>424.4</ele><time>2026-04-11T08:38:41.03Z</time></trkpt><trkpt lat="43.4252103" lon="11.354314"><ele>424.6</ele><time>2026-04-11T08:38:43.031Z</time></trkpt><trkpt lat="43.4253057" lon="11.3543187"><ele>424.8</ele><time>2026-04-11T08:38:44.03Z</time></trkpt><trkpt lat="43.425394" lon="11.3542977"><ele>425.0</ele><time>2026-04-11T08:38:45.03Z</time></trkpt><trkpt lat="43.425469" lon="11.3542399"><ele>420.5</ele><time>2026-04-11T08:38:46.031Z</time></trkpt><trkpt lat="43.4255464" lon="11.3541449"><ele>416.0</ele><time>2026-04-11T08:38:47.03Z</time></trkpt><trkpt lat="43.4256102" lon="11.3540215"><ele>411.5</ele><time>2026-04-11T08:38:48.031Z</time></trkpt><trkpt lat="43.4256793" lon="11.3538776"><ele>407.0</ele><time>2026-04-11T08:38:49.03Z</time></trkpt><trkpt lat="43.4257211" lon="11.3537164"><ele>405.0</ele><time>2026-04-11T08:38:50.03Z</time></trkpt><trkpt lat="43.4257386" lon="11.3535282"><ele>403.0</ele><time>2026-04-11T08:38:51.03Z</time></trkpt><trkpt lat="43.425732" lon="11.3533611"><ele>401.0</ele><time>2026-04-11T08:38:52.03Z</time></trkpt><trkpt lat="43.425723" lon="11.3532118"><ele>399.0</ele><time>2026-04-11T08:38:53.031Z</time></trkpt><trkpt lat="43.4257119" lon="11.3530784"><ele>399.4</ele><time>2026-04-11T08:38:54.032Z</time></trkpt><trkpt lat="43.4257288" lon="11.3529203"><ele>399.79999999999995</ele><time>2026-04-11T08:38:55.031Z</time></trkpt><trkpt lat="43.4257476" lon="11.3527697"><ele>400.20000000000005</ele><time>2026-04-11T08:38:56.03Z</time></trkpt><trkpt lat="43.4257714" lon="11.3526246"><ele>400.6</ele><time>2026-04-11T08:38:57.031Z</time></trkpt><trkpt lat="43.4257986" lon="11.3524785"><ele>401.0</ele><time>2026-04-11T08:38:58.03Z</time></trkpt><trkpt lat="43.4258361" lon="11.352341"><ele>401.0</ele><time>2026-04-11T08:38:59.03Z</time></trkpt><trkpt lat="43.4258804" lon="11.3522227"><ele>401.0</ele><time>2026-04-11T08:39:00.031Z</time></trkpt><trkpt lat="43.4259349" lon="11.3521115"><ele>401.0</ele><time>2026-04-11T08:39:01.031Z</time></trkpt><trkpt lat="43.4260183" lon="11.3520172"><ele>401.0</ele><time>2026-04-11T08:39:02.032Z</time></trkpt><trkpt lat="43.4261393" lon="11.3519335"><ele>401.0</ele><time>2026-04-11T08:39:03.031Z</time></trkpt><trkpt lat="43.4262627" lon="11.3518561"><ele>398.6</ele><time>2026-04-11T08:39:04.032Z</time></trkpt><trkpt lat="43.4263699" lon="11.3517657"><ele>396.20000000000005</ele><time>2026-04-11T08:39:05.032Z</time></trkpt><trkpt lat="43.4264529" lon="11.3516854"><ele>393.79999999999995</ele><time>2026-04-11T08:39:06.032Z</time></trkpt><trkpt lat="43.426523" lon="11.3516004"><ele>391.4</ele><time>2026-04-11T08:39:07.031Z</time></trkpt><trkpt lat="43.4265832" lon="11.3515044"><ele>389.0</ele><time>2026-04-11T08:39:08.032Z</time></trkpt><trkpt lat="43.4266434" lon="11.3513945"><ele>390.0</ele><time>2026-04-11T08:39:09.032Z</time></trkpt><trkpt lat="43.426683" lon="11.3512857"><ele>391.0</ele><time>2026-04-11T08:39:10.031Z</time></trkpt><trkpt lat="43.4267194" lon="11.3511736"><ele>392.0</ele><time>2026-04-11T08:39:11.031Z</time></trkpt><trkpt lat="43.4267632" lon="11.3510581"><ele>393.0</ele><time>2026-04-11T08:39:12.032Z</time></trkpt><trkpt lat="43.4268062" lon="11.3509411"><ele>394.0</ele><time>2026-04-11T08:39:13.032Z</time></trkpt><trkpt lat="43.4268571" lon="11.3508171"><ele>394.00000000000006</ele><time>2026-04-11T08:39:14.032Z</time></trkpt><trkpt lat="43.4269025" lon="11.3506951"><ele>394.0</ele><time>2026-04-11T08:39:15.031Z</time></trkpt><trkpt lat="43.4269499" lon="11.3505825"><ele>394.0</ele><time>2026-04-11T08:39:16.031Z</time></trkpt><trkpt lat="43.4270019" lon="11.3504993"><ele>394.0</ele><time>2026-04-11T08:39:17.032Z</time></trkpt><trkpt lat="43.4270669" lon="11.3504449"><ele>394.00000000000006</ele><time>2026-04-11T08:39:18.032Z</time></trkpt><trkpt lat="43.4271591" lon="11.3504127"><ele>394.0</ele><time>2026-04-11T08:39:19.031Z</time></trkpt><trkpt lat="43.4272773" lon="11.3503813"><ele>390.0</ele><time>2026-04-11T08:39:20.031Z</time></trkpt><trkpt lat="43.4274008" lon="11.3503531"><ele>386.0</ele><time>2026-04-11T08:39:21.032Z</time></trkpt><trkpt lat="43.4275349" lon="11.3503151"><ele>382.0</ele><time>2026-04-11T08:39:22.032Z</time></trkpt><trkpt lat="43.4276722" lon="11.3502616"><ele>378.0</ele><time>2026-04-11T08:39:23.031Z</time></trkpt><trkpt lat="43.427795" lon="11.350203"><ele>378.0</ele><time>2026-04-11T08:39:24.032Z</time></trkpt><trkpt lat="43.4279139" lon="11.3501399"><ele>378.0</ele><time>2026-04-11T08:39:25.032Z</time></trkpt><trkpt lat="43.4280187" lon="11.350076"><ele>378.0</ele><time>2026-04-11T08:39:26.031Z</time></trkpt><trkpt lat="43.4281155" lon="11.3500248"><ele>378.0</ele><time>2026-04-11T08:39:27.031Z</time></trkpt><trkpt lat="43.4282264" lon="11.3500046"><ele>377.79999999999995</ele><time>2026-04-11T08:39:28.032Z</time></trkpt><trkpt lat="43.4283439" lon="11.3500162"><ele>377.6</ele><time>2026-04-11T08:39:29.032Z</time></trkpt><trkpt lat="43.4284567" lon="11.3500372"><ele>377.4</ele><time>2026-04-11T08:39:30.031Z</time></trkpt><trkpt lat="43.4285574" lon="11.3500864"><ele>377.20000000000005</ele><time>2026-04-11T08:39:31.031Z</time></trkpt><trkpt lat="43.4286522" lon="11.3501485"><ele>377.0</ele><time>2026-04-11T08:39:32.031Z</time></trkpt><trkpt lat="43.4287577" lon="11.3502465"><ele>377.0</ele><time>2026-04-11T08:39:33.032Z</time></trkpt><trkpt lat="43.428858" lon="11.3503427"><ele>377.0</ele><time>2026-04-11T08:39:34.032Z</time></trkpt><trkpt lat="43.4289645" lon="11.3504285"><ele>377.0</ele><time>2026-04-11T08:39:35.032Z</time></trkpt><trkpt lat="43.4290733" lon="11.3505061"><ele>377.0</ele><time>2026-04-11T08:39:36.032Z</time></trkpt><trkpt lat="43.4291921" lon="11.3505787"><ele>377.5</ele><time>2026-04-11T08:39:37.032Z</time></trkpt><trkpt lat="43.4293168" lon="11.3506542"><ele>378.0</ele><time>2026-04-11T08:39:38.031Z</time></trkpt><trkpt lat="43.4294351" lon="11.3507326"><ele>378.5</ele><time>2026-04-11T08:39:39.032Z</time></trkpt><trkpt lat="43.4295409" lon="11.3508171"><ele>379.0</ele><time>2026-04-11T08:39:40.031Z</time></trkpt><trkpt lat="43.4296539" lon="11.3508818"><ele>379.0</ele><time>2026-04-11T08:39:41.031Z</time></trkpt><trkpt lat="43.4297622" lon="11.350911"><ele>379.0</ele><time>2026-04-11T08:39:42.032Z</time></trkpt><trkpt lat="43.4298716" lon="11.3509133"><ele>379.0</ele><time>2026-04-11T08:39:43.031Z</time></trkpt><trkpt lat="43.4299825" lon="11.3508895"><ele>379.0</ele><time>2026-04-11T08:39:44.031Z</time></trkpt><trkpt lat="43.4300921" lon="11.3508557"><ele>379.0</ele><time>2026-04-11T08:39:45.032Z</time></trkpt><trkpt lat="43.4302079" lon="11.3508355"><ele>379.0</ele><time>2026-04-11T08:39:46.031Z</time></trkpt><trkpt lat="43.4303338" lon="11.350834"><ele>379.0</ele><time>2026-04-11T08:39:47.031Z</time></trkpt><trkpt lat="43.4304729" lon="11.3508444"><ele>379.0</ele><time>2026-04-11T08:39:48.031Z</time></trkpt><trkpt lat="43.4306019" lon="11.3508705"><ele>379.0</ele><time>2026-04-11T08:39:49.031Z</time></trkpt><trkpt lat="43.4307227" lon="11.3508963"><ele>379.6</ele><time>2026-04-11T08:39:50.032Z</time></trkpt><trkpt lat="43.430838" lon="11.3509101"><ele>380.2</ele><time>2026-04-11T08:39:51.032Z</time></trkpt><trkpt lat="43.430951" lon="11.3508979"><ele>380.8</ele><time>2026-04-11T08:39:52.032Z</time></trkpt><trkpt lat="43.4310582" lon="11.3508555"><ele>381.40000000000003</ele><time>2026-04-11T08:39:53.032Z</time></trkpt><trkpt lat="43.4311552" lon="11.3507888"><ele>382.0</ele><time>2026-04-11T08:39:54.031Z</time></trkpt><trkpt lat="43.4313139" lon="11.3506769"><ele>384.3333333333333</ele><time>2026-04-11T08:39:56.032Z</time></trkpt><trkpt lat="43.4313856" lon="11.3506747"><ele>386.66666666666663</ele><time>2026-04-11T08:39:57.031Z</time></trkpt><trkpt lat="43.4314499" lon="11.3506896"><ele>389.0</ele><time>2026-04-11T08:39:58.032Z</time></trkpt><trkpt lat="43.4315337" lon="11.350815"><ele>391.3333333333333</ele><time>2026-04-11T08:40:00.032Z</time></trkpt><trkpt lat="43.4315749" lon="11.3508907"><ele>393.6666666666667</ele><time>2026-04-11T08:40:01.031Z</time></trkpt><trkpt lat="43.4316238" lon="11.3509744"><ele>396.0</ele><time>2026-04-11T08:40:02.031Z</time></trkpt><trkpt lat="43.431682" lon="11.351055"><ele>396.0</ele><time>2026-04-11T08:40:03.032Z</time></trkpt><trkpt lat="43.4317398" lon="11.35113"><ele>396.0</ele><time>2026-04-11T08:40:04.032Z</time></trkpt><trkpt lat="43.4317999" lon="11.351185"><ele>396.0</ele><time>2026-04-11T08:40:05.031Z</time></trkpt><trkpt lat="43.4318611" lon="11.3512361"><ele>396.0</ele><time>2026-04-11T08:40:06.033Z</time></trkpt><trkpt lat="43.43192" lon="11.3512789"><ele>396.0</ele><time>2026-04-11T08:40:07.032Z</time></trkpt><trkpt lat="43.431977" lon="11.3513162"><ele>396.0</ele><time>2026-04-11T08:40:08.032Z</time></trkpt><trkpt lat="43.4320546" lon="11.351342"><ele>396.0</ele><time>2026-04-11T08:40:09.033Z</time></trkpt><trkpt lat="43.432147" lon="11.3513551"><ele>396.20000000000005</ele><time>2026-04-11T08:40:10.032Z</time></trkpt><trkpt lat="43.4322343" lon="11.351367"><ele>396.40000000000003</ele><time>2026-04-11T08:40:11.032Z</time></trkpt><trkpt lat="43.4323372" lon="11.3513805"><ele>396.6</ele><time>2026-04-11T08:40:12.033Z</time></trkpt><trkpt lat="43.4324414" lon="11.3513924"><ele>396.8</ele><time>2026-04-11T08:40:13.033Z</time></trkpt><trkpt lat="43.432546" lon="11.3514019"><ele>397.0</ele><time>2026-04-11T08:40:14.032Z</time></trkpt><trkpt lat="43.4326498" lon="11.351395"><ele>397.0</ele><time>2026-04-11T08:40:15.033Z</time></trkpt><trkpt lat="43.4327469" lon="11.3513753"><ele>397.0</ele><time>2026-04-11T08:40:16.034Z</time></trkpt><trkpt lat="43.4328374" lon="11.3513195"><ele>397.0</ele><time>2026-04-11T08:40:17.032Z</time></trkpt><trkpt lat="43.4329337" lon="11.3512503"><ele>397.0</ele><time>2026-04-11T08:40:18.032Z</time></trkpt><trkpt lat="43.4330389" lon="11.3511714"><ele>397.0</ele><time>2026-04-11T08:40:19.033Z</time></trkpt><trkpt lat="43.4331475" lon="11.3510874"><ele>393.0</ele><time>2026-04-11T08:40:20.032Z</time></trkpt><trkpt lat="43.4332622" lon="11.3509948"><ele>389.0</ele><time>2026-04-11T08:40:21.032Z</time></trkpt><trkpt lat="43.4333743" lon="11.350895"><ele>385.0</ele><time>2026-04-11T08:40:22.033Z</time></trkpt><trkpt lat="43.433478" lon="11.3507949"><ele>381.0</ele><time>2026-04-11T08:40:23.033Z</time></trkpt><trkpt lat="43.4335722" lon="11.3506961"><ele>381.0</ele><time>2026-04-11T08:40:24.033Z</time></trkpt><trkpt lat="43.4336576" lon="11.3505984"><ele>381.0</ele><time>2026-04-11T08:40:25.033Z</time></trkpt><trkpt lat="43.4337453" lon="11.3504956"><ele>381.0</ele><time>2026-04-11T08:40:26.033Z</time></trkpt><trkpt lat="43.4338336" lon="11.3503911"><ele>381.0</ele><time>2026-04-11T08:40:27.032Z</time></trkpt><trkpt lat="43.4339245" lon="11.3502871"><ele>381.25</ele><time>2026-04-11T08:40:28.033Z</time></trkpt><trkpt lat="43.4340169" lon="11.3501806"><ele>381.5</ele><time>2026-04-11T08:40:29.032Z</time></trkpt><trkpt lat="43.4341078" lon="11.3500729"><ele>381.75</ele><time>2026-04-11T08:40:30.032Z</time></trkpt><trkpt lat="43.4341977" lon="11.3499646"><ele>382.0</ele><time>2026-04-11T08:40:31.033Z</time></trkpt><trkpt lat="43.4342791" lon="11.3498605"><ele>382.0</ele><time>2026-04-11T08:40:32.033Z</time></trkpt><trkpt lat="43.4343394" lon="11.3497607"><ele>382.0</ele><time>2026-04-11T08:40:33.033Z</time></trkpt><trkpt lat="43.4343903" lon="11.3496572"><ele>382.0</ele><time>2026-04-11T08:40:34.033Z</time></trkpt><trkpt lat="43.4344402" lon="11.3495333"><ele>382.0</ele><time>2026-04-11T08:40:35.033Z</time></trkpt><trkpt lat="43.4344882" lon="11.349387"><ele>382.0</ele><time>2026-04-11T08:40:36.033Z</time></trkpt><trkpt lat="43.434532" lon="11.349226"><ele>382.3333333333333</ele><time>2026-04-11T08:40:37.033Z</time></trkpt><trkpt lat="43.4345699" lon="11.3490817"><ele>382.66666666666663</ele><time>2026-04-11T08:40:38.032Z</time></trkpt><trkpt lat="43.4346072" lon="11.3489507"><ele>383.0</ele><time>2026-04-11T08:40:39.033Z</time></trkpt><trkpt lat="43.4346454" lon="11.3488425"><ele>383.3333333333333</ele><time>2026-04-11T08:40:40.033Z</time></trkpt><trkpt lat="43.4346908" lon="11.3487558"><ele>383.6666666666667</ele><time>2026-04-11T08:40:41.033Z</time></trkpt><trkpt lat="43.4347419" lon="11.348695"><ele>384.0</ele><time>2026-04-11T08:40:42.032Z</time></trkpt><trkpt lat="43.4348705" lon="11.3486843"><ele>384.0</ele><time>2026-04-11T08:40:44.032Z</time></trkpt><trkpt lat="43.4349601" lon="11.3487342"><ele>384.0</ele><time>2026-04-11T08:40:45.032Z</time></trkpt><trkpt lat="43.4350661" lon="11.3488109"><ele>384.0</ele><time>2026-04-11T08:40:46.033Z</time></trkpt><trkpt lat="43.4351557" lon="11.3488532"><ele>384.0</ele><time>2026-04-11T08:40:47.033Z</time></trkpt><trkpt lat="43.435258" lon="11.3488533"><ele>384.0</ele><time>2026-04-11T08:40:48.032Z</time></trkpt><trkpt lat="43.4353734" lon="11.3488192"><ele>383.75</ele><time>2026-04-11T08:40:49.033Z</time></trkpt><trkpt lat="43.4354994" lon="11.3487693"><ele>383.5</ele><time>2026-04-11T08:40:50.033Z</time></trkpt><trkpt lat="43.435626" lon="11.3487223"><ele>383.25</ele><time>2026-04-11T08:40:51.033Z</time></trkpt><trkpt lat="43.4357433" lon="11.3486801"><ele>383.0</ele><time>2026-04-11T08:40:52.033Z</time></trkpt><trkpt lat="43.4358403" lon="11.3486643"><ele>383.0</ele><time>2026-04-11T08:40:53.032Z</time></trkpt><trkpt lat="43.4359234" lon="11.3486797"><ele>383.0</ele><time>2026-04-11T08:40:54.033Z</time></trkpt><trkpt lat="43.4360093" lon="11.3487187"><ele>383.0</ele><time>2026-04-11T08:40:55.033Z</time></trkpt><trkpt lat="43.4361028" lon="11.3487764"><ele>383.0</ele><time>2026-04-11T08:40:56.032Z</time></trkpt><trkpt lat="43.4362033" lon="11.348852"><ele>383.0</ele><time>2026-04-11T08:40:57.032Z</time></trkpt><trkpt lat="43.4363099" lon="11.3489321"><ele>381.0</ele><time>2026-04-11T08:40:58.033Z</time></trkpt><trkpt lat="43.4364106" lon="11.3490157"><ele>379.0</ele><time>2026-04-11T08:40:59.033Z</time></trkpt><trkpt lat="43.436496" lon="11.3491053"><ele>377.0</ele><time>2026-04-11T08:41:00.033Z</time></trkpt><trkpt lat="43.4365788" lon="11.3491976"><ele>375.0</ele><time>2026-04-11T08:41:01.032Z</time></trkpt><trkpt lat="43.4366508" lon="11.3492778"><ele>373.0</ele><time>2026-04-11T08:41:02.032Z</time></trkpt><trkpt lat="43.436716" lon="11.3493415"><ele>373.0</ele><time>2026-04-11T08:41:03.033Z</time></trkpt><trkpt lat="43.43678" lon="11.3493891"><ele>373.0</ele><time>2026-04-11T08:41:04.032Z</time></trkpt><trkpt lat="43.4368421" lon="11.3494075"><ele>373.0</ele><time>2026-04-11T08:41:05.033Z</time></trkpt><trkpt lat="43.4369142" lon="11.3493917"><ele>373.0</ele><time>2026-04-11T08:41:06.033Z</time></trkpt><trkpt lat="43.4369776" lon="11.3493664"><ele>373.0</ele><time>2026-04-11T08:41:07.033Z</time></trkpt><trkpt lat="43.4370359" lon="11.3493257"><ele>373.0</ele><time>2026-04-11T08:41:08.033Z</time></trkpt><trkpt lat="43.4370934" lon="11.3492683"><ele>373.0</ele><time>2026-04-11T08:41:09.033Z</time></trkpt><trkpt lat="43.4371381" lon="11.3491931"><ele>372.66666666666663</ele><time>2026-04-11T08:41:10.033Z</time></trkpt><trkpt lat="43.4371803" lon="11.3490974"><ele>372.3333333333333</ele><time>2026-04-11T08:41:11.033Z</time></trkpt><trkpt lat="43.4372192" lon="11.3489899"><ele>372.0</ele><time>2026-04-11T08:41:12.034Z</time></trkpt><trkpt lat="43.4372504" lon="11.3488807"><ele>371.6666666666667</ele><time>2026-04-11T08:41:13.034Z</time></trkpt><trkpt lat="43.4372685" lon="11.3487655"><ele>371.33333333333337</ele><time>2026-04-11T08:41:14.034Z</time></trkpt><trkpt lat="43.4372819" lon="11.3486586"><ele>371.0</ele><time>2026-04-11T08:41:15.033Z</time></trkpt><trkpt lat="43.4373026" lon="11.348534"><ele>372.5</ele><time>2026-04-11T08:41:16.033Z</time></trkpt><trkpt lat="43.4373487" lon="11.3484195"><ele>374.0</ele><time>2026-04-11T08:41:17.034Z</time></trkpt><trkpt lat="43.4374408" lon="11.3483233"><ele>375.5</ele><time>2026-04-11T08:41:18.033Z</time></trkpt><trkpt lat="43.4375485" lon="11.3482743"><ele>377.0</ele><time>2026-04-11T08:41:19.033Z</time></trkpt><trkpt lat="43.4376794" lon="11.3483007"><ele>377.0</ele><time>2026-04-11T08:41:20.033Z</time></trkpt><trkpt lat="43.4377948" lon="11.3483835"><ele>377.0</ele><time>2026-04-11T08:41:21.033Z</time></trkpt><trkpt lat="43.4378991" lon="11.3484957"><ele>377.0</ele><time>2026-04-11T08:41:22.034Z</time></trkpt><trkpt lat="43.4379702" lon="11.3486441"><ele>377.0</ele><time>2026-04-11T08:41:23.033Z</time></trkpt><trkpt lat="43.4380006" lon="11.3488422"><ele>378.75</ele><time>2026-04-11T08:41:24.033Z</time></trkpt><trkpt lat="43.4380322" lon="11.3490461"><ele>380.5</ele><time>2026-04-11T08:41:25.034Z</time></trkpt><trkpt lat="43.4380604" lon="11.3492403"><ele>382.25</ele><time>2026-04-11T08:41:26.033Z</time></trkpt><trkpt lat="43.4381064" lon="11.3494258"><ele>384.0</ele><time>2026-04-11T08:41:27.033Z</time></trkpt><trkpt lat="43.4381771" lon="11.3495809"><ele>381.75</ele><time>2026-04-11T08:41:28.034Z</time></trkpt><trkpt lat="43.4382643" lon="11.3497165"><ele>379.5</ele><time>2026-04-11T08:41:29.034Z</time></trkpt><trkpt lat="43.4383628" lon="11.3498294"><ele>377.25</ele><time>2026-04-11T08:41:30.034Z</time></trkpt><trkpt lat="43.4384784" lon="11.3499147"><ele>375.0</ele><time>2026-04-11T08:41:31.034Z</time></trkpt><trkpt lat="43.4386146" lon="11.3499769"><ele>375.0</ele><time>2026-04-11T08:41:32.034Z</time></trkpt><trkpt lat="43.4387617" lon="11.3500278"><ele>375.0</ele><time>2026-04-11T08:41:33.034Z</time></trkpt><trkpt lat="43.4389035" lon="11.3500747"><ele>375.0</ele><time>2026-04-11T08:41:34.033Z</time></trkpt><trkpt lat="43.4390291" lon="11.3501179"><ele>375.0</ele><time>2026-04-11T08:41:35.034Z</time></trkpt><trkpt lat="43.4391261" lon="11.3501512"><ele>375.4</ele><time>2026-04-11T08:41:36.034Z</time></trkpt><trkpt lat="43.4392189" lon="11.3501863"><ele>375.8</ele><time>2026-04-11T08:41:37.034Z</time></trkpt><trkpt lat="43.4393207" lon="11.3502302"><ele>376.20000000000005</ele><time>2026-04-11T08:41:38.033Z</time></trkpt><trkpt lat="43.4394236" lon="11.3502731"><ele>376.6</ele><time>2026-04-11T08:41:39.034Z</time></trkpt><trkpt lat="43.439528" lon="11.3503151"><ele>377.0</ele><time>2026-04-11T08:41:40.033Z</time></trkpt><trkpt lat="43.4396285" lon="11.3503599"><ele>376.75</ele><time>2026-04-11T08:41:41.033Z</time></trkpt><trkpt lat="43.4397327" lon="11.3504091"><ele>376.5</ele><time>2026-04-11T08:41:42.034Z</time></trkpt><trkpt lat="43.4398423" lon="11.3504676"><ele>376.25</ele><time>2026-04-11T08:41:43.033Z</time></trkpt><trkpt lat="43.4399504" lon="11.3505448"><ele>376.0</ele><time>2026-04-11T08:41:44.033Z</time></trkpt><trkpt lat="43.4400474" lon="11.3506174"><ele>375.4</ele><time>2026-04-11T08:41:45.033Z</time></trkpt><trkpt lat="43.4401364" lon="11.350698"><ele>374.8</ele><time>2026-04-11T08:41:46.033Z</time></trkpt><trkpt lat="43.44022" lon="11.3507865"><ele>374.2</ele><time>2026-04-11T08:41:47.033Z</time></trkpt><trkpt lat="43.4402964" lon="11.350887"><ele>373.59999999999997</ele><time>2026-04-11T08:41:48.034Z</time></trkpt><trkpt lat="43.4403528" lon="11.3509948"><ele>373.0</ele><time>2026-04-11T08:41:49.033Z</time></trkpt><trkpt lat="43.4403853" lon="11.3511002"><ele>373.0</ele><time>2026-04-11T08:41:50.034Z</time></trkpt><trkpt lat="43.4404166" lon="11.3512247"><ele>373.0</ele><time>2026-04-11T08:41:51.033Z</time></trkpt><trkpt lat="43.4404502" lon="11.3513456"><ele>373.0</ele><time>2026-04-11T08:41:52.034Z</time></trkpt><trkpt lat="43.440492" lon="11.3514596"><ele>373.0</ele><time>2026-04-11T08:41:53.034Z</time></trkpt><trkpt lat="43.440537" lon="11.3515611"><ele>373.0</ele><time>2026-04-11T08:41:54.034Z</time></trkpt><trkpt lat="43.4405778" lon="11.3516541"><ele>373.0</ele><time>2026-04-11T08:41:55.033Z</time></trkpt><trkpt lat="43.4406049" lon="11.3517477"><ele>373.0</ele><time>2026-04-11T08:41:56.033Z</time></trkpt><trkpt lat="43.4406136" lon="11.3518556"><ele>373.0</ele><time>2026-04-11T08:41:57.033Z</time></trkpt><trkpt lat="43.44061" lon="11.35199"><ele>373.0</ele><time>2026-04-11T08:41:58.033Z</time></trkpt><trkpt lat="43.4406139" lon="11.3521361"><ele>373.0</ele><time>2026-04-11T08:41:59.033Z</time></trkpt><trkpt lat="43.4406314" lon="11.3523016"><ele>373.0</ele><time>2026-04-11T08:42:00.033Z</time></trkpt><trkpt lat="43.440656" lon="11.3524588"><ele>371.79999999999995</ele><time>2026-04-11T08:42:01.034Z</time></trkpt><trkpt lat="43.4406812" lon="11.3526062"><ele>370.6</ele><time>2026-04-11T08:42:02.034Z</time></trkpt><trkpt lat="43.4407018" lon="11.3527483"><ele>369.4</ele><time>2026-04-11T08:42:03.034Z</time></trkpt><trkpt lat="43.4407235" lon="11.3529009"><ele>368.20000000000005</ele><time>2026-04-11T08:42:04.034Z</time></trkpt><trkpt lat="43.4407415" lon="11.3530579"><ele>367.0</ele><time>2026-04-11T08:42:05.034Z</time></trkpt><trkpt lat="43.4407537" lon="11.3532146"><ele>365.8</ele><time>2026-04-11T08:42:06.034Z</time></trkpt><trkpt lat="43.4407654" lon="11.3533605"><ele>364.6</ele><time>2026-04-11T08:42:07.034Z</time></trkpt><trkpt lat="43.4407765" lon="11.353491"><ele>363.40000000000003</ele><time>2026-04-11T08:42:08.033Z</time></trkpt><trkpt lat="43.4407905" lon="11.3536195"><ele>362.20000000000005</ele><time>2026-04-11T08:42:09.033Z</time></trkpt><trkpt lat="43.4408015" lon="11.3537453"><ele>361.0</ele><time>2026-04-11T08:42:10.034Z</time></trkpt><trkpt lat="43.4408119" lon="11.3538732"><ele>359.8</ele><time>2026-04-11T08:42:11.034Z</time></trkpt><trkpt lat="43.4408237" lon="11.3539945"><ele>358.6</ele><time>2026-04-11T08:42:12.034Z</time></trkpt><trkpt lat="43.4408418" lon="11.3541171"><ele>357.4</ele><time>2026-04-11T08:42:13.033Z</time></trkpt><trkpt lat="43.4408628" lon="11.3542298"><ele>356.2</ele><time>2026-04-11T08:42:14.034Z</time></trkpt><trkpt lat="43.4408901" lon="11.3543584"><ele>355.0</ele><time>2026-04-11T08:42:15.035Z</time></trkpt><trkpt lat="43.4409225" lon="11.3545042"><ele>355.0</ele><time>2026-04-11T08:42:16.034Z</time></trkpt><trkpt lat="43.4409569" lon="11.3546588"><ele>355.0</ele><time>2026-04-11T08:42:17.035Z</time></trkpt><trkpt lat="43.4409845" lon="11.3547919"><ele>355.0</ele><time>2026-04-11T08:42:18.034Z</time></trkpt><trkpt lat="43.4410173" lon="11.3549165"><ele>355.0</ele><time>2026-04-11T08:42:19.034Z</time></trkpt><trkpt lat="43.441042" lon="11.3550264"><ele>355.0</ele><time>2026-04-11T08:42:20.034Z</time></trkpt><trkpt lat="43.4410562" lon="11.3551245"><ele>354.66666666666663</ele><time>2026-04-11T08:42:21.034Z</time></trkpt><trkpt lat="43.4410648" lon="11.355221"><ele>354.3333333333333</ele><time>2026-04-11T08:42:22.034Z</time></trkpt><trkpt lat="43.4410677" lon="11.355312"><ele>354.0</ele><time>2026-04-11T08:42:23.034Z</time></trkpt><trkpt lat="43.4410643" lon="11.3553994"><ele>353.6666666666667</ele><time>2026-04-11T08:42:24.035Z</time></trkpt><trkpt lat="43.4410312" lon="11.355537"><ele>353.33333333333337</ele><time>2026-04-11T08:42:26.035Z</time></trkpt><trkpt lat="43.4409855" lon="11.3556616"><ele>353.0</ele><time>2026-04-11T08:42:28.034Z</time></trkpt><trkpt lat="43.440982" lon="11.3557963"><ele>352.83333333333337</ele><time>2026-04-11T08:42:30.034Z</time></trkpt><trkpt lat="43.4410438" lon="11.3558857"><ele>352.6666666666667</ele><time>2026-04-11T08:42:32.034Z</time></trkpt><trkpt lat="43.4411475" lon="11.3559039"><ele>352.5</ele><time>2026-04-11T08:42:34.035Z</time></trkpt><trkpt lat="43.4412181" lon="11.3558654"><ele>352.3333333333333</ele><time>2026-04-11T08:42:35.034Z</time></trkpt><trkpt lat="43.4412887" lon="11.3558039"><ele>352.16666666666663</ele><time>2026-04-11T08:42:36.035Z</time></trkpt><trkpt lat="43.4413494" lon="11.3557291"><ele>352.0</ele><time>2026-04-11T08:42:37.035Z</time></trkpt><trkpt lat="43.4414043" lon="11.3556442"><ele>352.5</ele><time>2026-04-11T08:42:38.035Z</time></trkpt><trkpt lat="43.4414544" lon="11.355552"><ele>353.0</ele><time>2026-04-11T08:42:39.035Z</time></trkpt><trkpt lat="43.4415073" lon="11.3554567"><ele>353.5</ele><time>2026-04-11T08:42:40.035Z</time></trkpt><trkpt lat="43.441574" lon="11.3553837"><ele>354.0</ele><time>2026-04-11T08:42:41.035Z</time></trkpt><trkpt lat="43.4416469" lon="11.3553322"><ele>354.5</ele><time>2026-04-11T08:42:42.035Z</time></trkpt><trkpt lat="43.4417167" lon="11.355308"><ele>355.0</ele><time>2026-04-11T08:42:43.035Z</time></trkpt><trkpt lat="43.4417882" lon="11.3553035"><ele>355.0</ele><time>2026-04-11T08:42:44.035Z</time></trkpt><trkpt lat="43.4418608" lon="11.3553102"><ele>355.0</ele><time>2026-04-11T08:42:45.034Z</time></trkpt><trkpt lat="43.4419407" lon="11.355314"><ele>355.0</ele><time>2026-04-11T08:42:46.034Z</time></trkpt><trkpt lat="43.4420209" lon="11.3553144"><ele>355.0</ele><time>2026-04-11T08:42:47.034Z</time></trkpt><trkpt lat="43.4421041" lon="11.3553079"><ele>355.0</ele><time>2026-04-11T08:42:48.034Z</time></trkpt><trkpt lat="43.4421939" lon="11.3552894"><ele>355.0</ele><time>2026-04-11T08:42:49.035Z</time></trkpt><trkpt lat="43.4422764" lon="11.3552597"><ele>351.8333333333333</ele><time>2026-04-11T08:42:50.035Z</time></trkpt><trkpt lat="43.4423482" lon="11.3552177"><ele>348.66666666666663</ele><time>2026-04-11T08:42:51.034Z</time></trkpt><trkpt lat="43.4424172" lon="11.3551602"><ele>345.5</ele><time>2026-04-11T08:42:52.034Z</time></trkpt><trkpt lat="43.4424889" lon="11.3550944"><ele>342.3333333333333</ele><time>2026-04-11T08:42:53.035Z</time></trkpt><trkpt lat="43.4425588" lon="11.3550223"><ele>339.1666666666667</ele><time>2026-04-11T08:42:54.035Z</time></trkpt><trkpt lat="43.4426302" lon="11.354951"><ele>336.0</ele><time>2026-04-11T08:42:55.034Z</time></trkpt><trkpt lat="43.4427037" lon="11.3548821"><ele>336.0</ele><time>2026-04-11T08:42:56.035Z</time></trkpt><trkpt lat="43.4427857" lon="11.354819"><ele>336.0</ele><time>2026-04-11T08:42:57.035Z</time></trkpt><trkpt lat="43.4428687" lon="11.3547653"><ele>336.0</ele><time>2026-04-11T08:42:58.035Z</time></trkpt><trkpt lat="43.4429566" lon="11.3547149"><ele>336.0</ele><time>2026-04-11T08:42:59.035Z</time></trkpt><trkpt lat="43.4430466" lon="11.3546709"><ele>336.0</ele><time>2026-04-11T08:43:00.035Z</time></trkpt><trkpt lat="43.4431398" lon="11.3546259"><ele>335.5</ele><time>2026-04-11T08:43:01.034Z</time></trkpt><trkpt lat="43.4432407" lon="11.3545711"><ele>335.0</ele><time>2026-04-11T08:43:02.034Z</time></trkpt><trkpt lat="43.4433577" lon="11.3544949"><ele>334.5</ele><time>2026-04-11T08:43:03.035Z</time></trkpt><trkpt lat="43.4434902" lon="11.354402"><ele>334.0</ele><time>2026-04-11T08:43:04.034Z</time></trkpt><trkpt lat="43.4436246" lon="11.3543073"><ele>334.0</ele><time>2026-04-11T08:43:05.035Z</time></trkpt><trkpt lat="43.4437614" lon="11.3542101"><ele>334.0</ele><time>2026-04-11T08:43:06.035Z</time></trkpt><trkpt lat="43.4438855" lon="11.3541232"><ele>334.0</ele><time>2026-04-11T08:43:07.035Z</time></trkpt><trkpt lat="43.4440106" lon="11.3540412"><ele>334.0</ele><time>2026-04-11T08:43:08.034Z</time></trkpt><trkpt lat="43.4441277" lon="11.3539712"><ele>335.75</ele><time>2026-04-11T08:43:09.034Z</time></trkpt><trkpt lat="43.4442437" lon="11.3539111"><ele>337.5</ele><time>2026-04-11T08:43:10.034Z</time></trkpt><trkpt lat="43.4443665" lon="11.3538668"><ele>339.25</ele><time>2026-04-11T08:43:11.034Z</time></trkpt><trkpt lat="43.444484" lon="11.3538359"><ele>341.0</ele><time>2026-04-11T08:43:12.034Z</time></trkpt><trkpt lat="43.4445866" lon="11.3538124"><ele>338.83333333333337</ele><time>2026-04-11T08:43:13.034Z</time></trkpt><trkpt lat="43.4446673" lon="11.3537817"><ele>336.6666666666667</ele><time>2026-04-11T08:43:14.034Z</time></trkpt><trkpt lat="43.4447414" lon="11.3537499"><ele>334.5</ele><time>2026-04-11T08:43:15.035Z</time></trkpt><trkpt lat="43.4448113" lon="11.3537288"><ele>332.3333333333333</ele><time>2026-04-11T08:43:16.034Z</time></trkpt><trkpt lat="43.4449105" lon="11.353802"><ele>330.16666666666663</ele><time>2026-04-11T08:43:18.034Z</time></trkpt><trkpt lat="43.444944" lon="11.3538851"><ele>328.0</ele><time>2026-04-11T08:43:19.036Z</time></trkpt><trkpt lat="43.4449593" lon="11.3539824"><ele>328.0</ele><time>2026-04-11T08:43:20.036Z</time></trkpt><trkpt lat="43.4449545" lon="11.3541249"><ele>328.0</ele><time>2026-04-11T08:43:21.035Z</time></trkpt><trkpt lat="43.4449549" lon="11.3542769"><ele>328.0</ele><time>2026-04-11T08:43:22.035Z</time></trkpt><trkpt lat="43.4449701" lon="11.3544293"><ele>328.0</ele><time>2026-04-11T08:43:23.036Z</time></trkpt><trkpt lat="43.4450079" lon="11.354566"><ele>328.0</ele><time>2026-04-11T08:43:24.036Z</time></trkpt><trkpt lat="43.4450555" lon="11.354691"><ele>327.5</ele><time>2026-04-11T08:43:25.036Z</time></trkpt><trkpt lat="43.4451339" lon="11.3548009"><ele>327.0</ele><time>2026-04-11T08:43:26.036Z</time></trkpt><trkpt lat="43.4452293" lon="11.3549082"><ele>326.5</ele><time>2026-04-11T08:43:27.035Z</time></trkpt><trkpt lat="43.445333" lon="11.3550058"><ele>326.0</ele><time>2026-04-11T08:43:28.036Z</time></trkpt><trkpt lat="43.4454324" lon="11.3550744"><ele>327.20000000000005</ele><time>2026-04-11T08:43:29.035Z</time></trkpt><trkpt lat="43.4455343" lon="11.3551323"><ele>328.40000000000003</ele><time>2026-04-11T08:43:30.035Z</time></trkpt><trkpt lat="43.4456387" lon="11.3551816"><ele>329.6</ele><time>2026-04-11T08:43:31.035Z</time></trkpt><trkpt lat="43.4457476" lon="11.3552114"><ele>330.8</ele><time>2026-04-11T08:43:32.035Z</time></trkpt><trkpt lat="43.4458529" lon="11.3552185"><ele>332.0</ele><time>2026-04-11T08:43:33.035Z</time></trkpt><trkpt lat="43.4459514" lon="11.3552187"><ele>332.0</ele><time>2026-04-11T08:43:34.035Z</time></trkpt><trkpt lat="43.4460469" lon="11.355217"><ele>332.0</ele><time>2026-04-11T08:43:35.035Z</time></trkpt><trkpt lat="43.4461437" lon="11.3552222"><ele>332.0</ele><time>2026-04-11T08:43:36.036Z</time></trkpt><trkpt lat="43.4462455" lon="11.3552321"><ele>332.0</ele><time>2026-04-11T08:43:37.036Z</time></trkpt><trkpt lat="43.4463467" lon="11.3552452"><ele>332.0</ele><time>2026-04-11T08:43:38.036Z</time></trkpt><trkpt lat="43.4464487" lon="11.355262"><ele>333.25</ele><time>2026-04-11T08:43:39.035Z</time></trkpt><trkpt lat="43.4465661" lon="11.3552786"><ele>334.5</ele><time>2026-04-11T08:43:40.035Z</time></trkpt><trkpt lat="43.4466889" lon="11.3552976"><ele>335.75</ele><time>2026-04-11T08:43:41.035Z</time></trkpt><trkpt lat="43.4468084" lon="11.3553219"><ele>337.0</ele><time>2026-04-11T08:43:42.035Z</time></trkpt><trkpt lat="43.446923" lon="11.3553499"><ele>337.0</ele><time>2026-04-11T08:43:43.035Z</time></trkpt><trkpt lat="43.4470284" lon="11.3553712"><ele>337.0</ele><time>2026-04-11T08:43:44.035Z</time></trkpt><trkpt lat="43.4471277" lon="11.3553901"><ele>337.0</ele><time>2026-04-11T08:43:45.035Z</time></trkpt><trkpt lat="43.4472299" lon="11.3554082"><ele>337.0</ele><time>2026-04-11T08:43:46.035Z</time></trkpt><trkpt lat="43.4473399" lon="11.3554258"><ele>337.0</ele><time>2026-04-11T08:43:47.036Z</time></trkpt><trkpt lat="43.4474378" lon="11.3554458"><ele>335.5</ele><time>2026-04-11T08:43:48.035Z</time></trkpt><trkpt lat="43.4475375" lon="11.3554792"><ele>334.0</ele><time>2026-04-11T08:43:49.036Z</time></trkpt><trkpt lat="43.4476437" lon="11.3555301"><ele>332.5</ele><time>2026-04-11T08:43:50.036Z</time></trkpt><trkpt lat="43.4477584" lon="11.355604"><ele>331.0</ele><time>2026-04-11T08:43:51.036Z</time></trkpt><trkpt lat="43.4478826" lon="11.3556893"><ele>332.25</ele><time>2026-04-11T08:43:52.035Z</time></trkpt><trkpt lat="43.4480109" lon="11.3557713"><ele>333.5</ele><time>2026-04-11T08:43:53.035Z</time></trkpt><trkpt lat="43.4481345" lon="11.3558498"><ele>334.75</ele><time>2026-04-11T08:43:54.036Z</time></trkpt><trkpt lat="43.4482571" lon="11.3559266"><ele>336.0</ele><time>2026-04-11T08:43:55.036Z</time></trkpt><trkpt lat="43.4483856" lon="11.3560036"><ele>336.0</ele><time>2026-04-11T08:43:56.035Z</time></trkpt><trkpt lat="43.4485118" lon="11.356075"><ele>336.0</ele><time>2026-04-11T08:43:57.035Z</time></trkpt><trkpt lat="43.448632" lon="11.3561413"><ele>336.0</ele><time>2026-04-11T08:43:58.036Z</time></trkpt><trkpt lat="43.4487404" lon="11.356198"><ele>336.0</ele><time>2026-04-11T08:43:59.035Z</time></trkpt><trkpt lat="43.4488375" lon="11.3562531"><ele>335.20000000000005</ele><time>2026-04-11T08:44:00.035Z</time></trkpt><trkpt lat="43.4489388" lon="11.3563184"><ele>334.40000000000003</ele><time>2026-04-11T08:44:01.036Z</time></trkpt><trkpt lat="43.4490317" lon="11.3563901"><ele>333.6</ele><time>2026-04-11T08:44:02.035Z</time></trkpt><trkpt lat="43.449127" lon="11.3564756"><ele>332.8</ele><time>2026-04-11T08:44:03.036Z</time></trkpt><trkpt lat="43.4492186" lon="11.3565603"><ele>332.0</ele><time>2026-04-11T08:44:04.036Z</time></trkpt><trkpt lat="43.4493106" lon="11.3566301"><ele>332.0</ele><time>2026-04-11T08:44:05.036Z</time></trkpt><trkpt lat="43.4494049" lon="11.356685"><ele>332.0</ele><time>2026-04-11T08:44:06.035Z</time></trkpt><trkpt lat="43.4495083" lon="11.3567187"><ele>332.0</ele><time>2026-04-11T08:44:07.035Z</time></trkpt><trkpt lat="43.4496203" lon="11.3567369"><ele>332.0</ele><time>2026-04-11T08:44:08.036Z</time></trkpt><trkpt lat="43.4497379" lon="11.3567537"><ele>332.0</ele><time>2026-04-11T08:44:09.036Z</time></trkpt><trkpt lat="43.4498542" lon="11.3567646"><ele>333.6</ele><time>2026-04-11T08:44:10.035Z</time></trkpt><trkpt lat="43.449968" lon="11.3567644"><ele>335.20000000000005</ele><time>2026-04-11T08:44:11.035Z</time></trkpt><trkpt lat="43.4500691" lon="11.3567423"><ele>336.8</ele><time>2026-04-11T08:44:12.036Z</time></trkpt><trkpt lat="43.4501545" lon="11.3566985"><ele>338.4</ele><time>2026-04-11T08:44:13.037Z</time></trkpt><trkpt lat="43.4502319" lon="11.356634"><ele>340.0</ele><time>2026-04-11T08:44:14.035Z</time></trkpt><trkpt lat="43.4503094" lon="11.3565558"><ele>340.0</ele><time>2026-04-11T08:44:15.036Z</time></trkpt><trkpt lat="43.4503921" lon="11.3564759"><ele>340.0</ele><time>2026-04-11T08:44:16.036Z</time></trkpt><trkpt lat="43.4504794" lon="11.3563964"><ele>340.0</ele><time>2026-04-11T08:44:17.036Z</time></trkpt><trkpt lat="43.4505691" lon="11.3563054"><ele>340.0</ele><time>2026-04-11T08:44:18.035Z</time></trkpt><trkpt lat="43.4506535" lon="11.3562139"><ele>340.0</ele><time>2026-04-11T08:44:19.035Z</time></trkpt><trkpt lat="43.4507344" lon="11.3561177"><ele>341.75</ele><time>2026-04-11T08:44:20.035Z</time></trkpt><trkpt lat="43.4508123" lon="11.3560236"><ele>343.5</ele><time>2026-04-11T08:44:21.035Z</time></trkpt><trkpt lat="43.4508995" lon="11.35592"><ele>345.25</ele><time>2026-04-11T08:44:22.035Z</time></trkpt><trkpt lat="43.4509972" lon="11.3558079"><ele>347.0</ele><time>2026-04-11T08:44:23.037Z</time></trkpt><trkpt lat="43.4510905" lon="11.355702"><ele>347.0</ele><time>2026-04-11T08:44:24.036Z</time></trkpt><trkpt lat="43.4511789" lon="11.3556137"><ele>347.0</ele><time>2026-04-11T08:44:25.037Z</time></trkpt><trkpt lat="43.4512713" lon="11.3555497"><ele>347.0</ele><time>2026-04-11T08:44:26.036Z</time></trkpt><trkpt lat="43.4513791" lon="11.3554925"><ele>347.0</ele><time>2026-04-11T08:44:27.036Z</time></trkpt><trkpt lat="43.4514937" lon="11.3554243"><ele>347.40000000000003</ele><time>2026-04-11T08:44:28.036Z</time></trkpt><trkpt lat="43.4515945" lon="11.3553613"><ele>347.8</ele><time>2026-04-11T08:44:29.037Z</time></trkpt><trkpt lat="43.4516847" lon="11.355312"><ele>348.2</ele><time>2026-04-11T08:44:30.036Z</time></trkpt><trkpt lat="43.4517647" lon="11.3552748"><ele>348.6</ele><time>2026-04-11T08:44:31.036Z</time></trkpt><trkpt lat="43.4518569" lon="11.3552608"><ele>349.0</ele><time>2026-04-11T08:44:32.036Z</time></trkpt><trkpt lat="43.4519644" lon="11.3552619"><ele>349.0</ele><time>2026-04-11T08:44:33.036Z</time></trkpt><trkpt lat="43.4520653" lon="11.3552514"><ele>349.0</ele><time>2026-04-11T08:44:34.036Z</time></trkpt><trkpt lat="43.4521582" lon="11.3552267"><ele>349.0</ele><time>2026-04-11T08:44:35.036Z</time></trkpt><trkpt lat="43.4522498" lon="11.3551891"><ele>349.0</ele><time>2026-04-11T08:44:36.036Z</time></trkpt><trkpt lat="43.4523351" lon="11.3551428"><ele>349.0</ele><time>2026-04-11T08:44:37.036Z</time></trkpt><trkpt lat="43.4524253" lon="11.3550923"><ele>347.6</ele><time>2026-04-11T08:44:38.037Z</time></trkpt><trkpt lat="43.4525117" lon="11.3550448"><ele>346.2</ele><time>2026-04-11T08:44:39.036Z</time></trkpt><trkpt lat="43.4526065" lon="11.3549929"><ele>344.8</ele><time>2026-04-11T08:44:40.037Z</time></trkpt><trkpt lat="43.4527004" lon="11.3549386"><ele>343.40000000000003</ele><time>2026-04-11T08:44:41.036Z</time></trkpt><trkpt lat="43.4527913" lon="11.3548801"><ele>342.0</ele><time>2026-04-11T08:44:42.037Z</time></trkpt><trkpt lat="43.4528864" lon="11.354818"><ele>342.5</ele><time>2026-04-11T08:44:43.037Z</time></trkpt><trkpt lat="43.4529897" lon="11.3547563"><ele>343.0</ele><time>2026-04-11T08:44:44.037Z</time></trkpt><trkpt lat="43.4530897" lon="11.3546997"><ele>343.5</ele><time>2026-04-11T08:44:45.036Z</time></trkpt><trkpt lat="43.453199" lon="11.3546401"><ele>344.0</ele><time>2026-04-11T08:44:46.036Z</time></trkpt><trkpt lat="43.4533124" lon="11.3545829"><ele>344.0</ele><time>2026-04-11T08:44:47.037Z</time></trkpt><trkpt lat="43.4534293" lon="11.3545291"><ele>344.0</ele><time>2026-04-11T08:44:48.037Z</time></trkpt><trkpt lat="43.4535391" lon="11.3544763"><ele>344.0</ele><time>2026-04-11T08:44:49.036Z</time></trkpt><trkpt lat="43.4536467" lon="11.3544204"><ele>344.0</ele><time>2026-04-11T08:44:50.037Z</time></trkpt><trkpt lat="43.4537495" lon="11.3543668"><ele>342.4</ele><time>2026-04-11T08:44:51.036Z</time></trkpt><trkpt lat="43.453846" lon="11.3543114"><ele>340.79999999999995</ele><time>2026-04-11T08:44:52.037Z</time></trkpt><trkpt lat="43.4539334" lon="11.35426"><ele>339.20000000000005</ele><time>2026-04-11T08:44:53.036Z</time></trkpt><trkpt lat="43.4540066" lon="11.3542302"><ele>337.6</ele><time>2026-04-11T08:44:54.036Z</time></trkpt><trkpt lat="43.4541217" lon="11.3542589"><ele>336.0</ele><time>2026-04-11T08:44:56.037Z</time></trkpt><trkpt lat="43.4541893" lon="11.3543107"><ele>336.0</ele><time>2026-04-11T08:44:57.037Z</time></trkpt><trkpt lat="43.4542594" lon="11.3543495"><ele>336.0</ele><time>2026-04-11T08:44:58.036Z</time></trkpt><trkpt lat="43.4543294" lon="11.3543586"><ele>336.0</ele><time>2026-04-11T08:44:59.037Z</time></trkpt><trkpt lat="43.4543991" lon="11.3543446"><ele>336.0</ele><time>2026-04-11T08:45:00.037Z</time></trkpt><trkpt lat="43.4544706" lon="11.3543076"><ele>336.0</ele><time>2026-04-11T08:45:01.037Z</time></trkpt><trkpt lat="43.4545541" lon="11.3542573"><ele>336.0</ele><time>2026-04-11T08:45:02.036Z</time></trkpt><trkpt lat="43.4546387" lon="11.3541966"><ele>337.4</ele><time>2026-04-11T08:45:03.036Z</time></trkpt><trkpt lat="43.4547188" lon="11.3541387"><ele>338.8</ele><time>2026-04-11T08:45:04.036Z</time></trkpt><trkpt lat="43.4547933" lon="11.3540832"><ele>340.2</ele><time>2026-04-11T08:45:05.036Z</time></trkpt><trkpt lat="43.4548714" lon="11.3540342"><ele>341.59999999999997</ele><time>2026-04-11T08:45:06.036Z</time></trkpt><trkpt lat="43.4549593" lon="11.3539957"><ele>343.0</ele><time>2026-04-11T08:45:07.036Z</time></trkpt><trkpt lat="43.4550556" lon="11.3539691"><ele>343.0</ele><time>2026-04-11T08:45:08.037Z</time></trkpt><trkpt lat="43.4551499" lon="11.3539447"><ele>343.0</ele><time>2026-04-11T08:45:09.036Z</time></trkpt><trkpt lat="43.4552323" lon="11.353922"><ele>343.0</ele><time>2026-04-11T08:45:10.036Z</time></trkpt><trkpt lat="43.4552994" lon="11.3539"><ele>343.0</ele><time>2026-04-11T08:45:11.037Z</time></trkpt><trkpt lat="43.4554166" lon="11.3538756"><ele>343.0</ele><time>2026-04-11T08:45:13.036Z</time></trkpt><trkpt lat="43.4554962" lon="11.3538833"><ele>343.0</ele><time>2026-04-11T08:45:14.037Z</time></trkpt><trkpt lat="43.4555868" lon="11.3539064"><ele>343.4</ele><time>2026-04-11T08:45:15.037Z</time></trkpt><trkpt lat="43.4556835" lon="11.3539483"><ele>343.79999999999995</ele><time>2026-04-11T08:45:16.037Z</time></trkpt><trkpt lat="43.455786" lon="11.3539952"><ele>344.2</ele><time>2026-04-11T08:45:17.036Z</time></trkpt><trkpt lat="43.455886" lon="11.3540399"><ele>344.6</ele><time>2026-04-11T08:45:18.037Z</time></trkpt><trkpt lat="43.4559875" lon="11.3540806"><ele>345.0</ele><time>2026-04-11T08:45:19.036Z</time></trkpt><trkpt lat="43.4560916" lon="11.3541124"><ele>345.0</ele><time>2026-04-11T08:45:20.037Z</time></trkpt><trkpt lat="43.456198" lon="11.3541381"><ele>345.0</ele><time>2026-04-11T08:45:21.037Z</time></trkpt><trkpt lat="43.4562971" lon="11.3541552"><ele>345.0</ele><time>2026-04-11T08:45:22.037Z</time></trkpt><trkpt lat="43.4563952" lon="11.3541675"><ele>345.0</ele><time>2026-04-11T08:45:23.038Z</time></trkpt><trkpt lat="43.4564925" lon="11.3541779"><ele>345.0</ele><time>2026-04-11T08:45:24.036Z</time></trkpt><trkpt lat="43.4565907" lon="11.3541906"><ele>345.2</ele><time>2026-04-11T08:45:25.038Z</time></trkpt><trkpt lat="43.4566871" lon="11.3542089"><ele>345.4</ele><time>2026-04-11T08:45:26.037Z</time></trkpt><trkpt lat="43.4567808" lon="11.3542263"><ele>345.6</ele><time>2026-04-11T08:45:27.038Z</time></trkpt><trkpt lat="43.4568813" lon="11.354247"><ele>345.8</ele><time>2026-04-11T08:45:28.038Z</time></trkpt><trkpt lat="43.4569756" lon="11.3542737"><ele>346.0</ele><time>2026-04-11T08:45:29.037Z</time></trkpt><trkpt lat="43.457061" lon="11.354298"><ele>347.5</ele><time>2026-04-11T08:45:30.037Z</time></trkpt><trkpt lat="43.4571337" lon="11.3543251"><ele>349.0</ele><time>2026-04-11T08:45:31.038Z</time></trkpt><trkpt lat="43.4572049" lon="11.3543582"><ele>350.5</ele><time>2026-04-11T08:45:32.037Z</time></trkpt><trkpt lat="43.457289" lon="11.3544037"><ele>352.0</ele><time>2026-04-11T08:45:33.037Z</time></trkpt><trkpt lat="43.4573762" lon="11.3544595"><ele>353.5</ele><time>2026-04-11T08:45:34.037Z</time></trkpt><trkpt lat="43.4574685" lon="11.3545153"><ele>355.0</ele><time>2026-04-11T08:45:35.038Z</time></trkpt><trkpt lat="43.4575566" lon="11.3545676"><ele>355.0</ele><time>2026-04-11T08:45:36.038Z</time></trkpt><trkpt lat="43.4576403" lon="11.3546073"><ele>355.0</ele><time>2026-04-11T08:45:37.038Z</time></trkpt><trkpt lat="43.4577191" lon="11.3546368"><ele>355.0</ele><time>2026-04-11T08:45:38.038Z</time></trkpt><trkpt lat="43.4577998" lon="11.3546592"><ele>355.0</ele><time>2026-04-11T08:45:39.037Z</time></trkpt><trkpt lat="43.4578784" lon="11.3546803"><ele>355.0</ele><time>2026-04-11T08:45:40.038Z</time></trkpt><trkpt lat="43.4579565" lon="11.3547029"><ele>355.0</ele><time>2026-04-11T08:45:41.038Z</time></trkpt><trkpt lat="43.4580412" lon="11.3547382"><ele>354.0</ele><time>2026-04-11T08:45:42.038Z</time></trkpt><trkpt lat="43.4581197" lon="11.3547739"><ele>353.0</ele><time>2026-04-11T08:45:43.038Z</time></trkpt><trkpt lat="43.4581992" lon="11.3548188"><ele>352.0</ele><time>2026-04-11T08:45:44.037Z</time></trkpt><trkpt lat="43.4582794" lon="11.3548818"><ele>351.0</ele><time>2026-04-11T08:45:45.038Z</time></trkpt><trkpt lat="43.4583628" lon="11.3549733"><ele>350.0</ele><time>2026-04-11T08:45:46.038Z</time></trkpt><trkpt lat="43.4584494" lon="11.3550726"><ele>350.0</ele><time>2026-04-11T08:45:47.038Z</time></trkpt><trkpt lat="43.4585281" lon="11.3551554"><ele>350.0</ele><time>2026-04-11T08:45:48.038Z</time></trkpt><trkpt lat="43.4586139" lon="11.3552255"><ele>350.0</ele><time>2026-04-11T08:45:49.038Z</time></trkpt><trkpt lat="43.458712" lon="11.355296"><ele>350.0</ele><time>2026-04-11T08:45:50.038Z</time></trkpt><trkpt lat="43.4588104" lon="11.3553615"><ele>350.0</ele><time>2026-04-11T08:45:51.038Z</time></trkpt><trkpt lat="43.4589047" lon="11.3554139"><ele>349.83333333333337</ele><time>2026-04-11T08:45:52.037Z</time></trkpt><trkpt lat="43.4589917" lon="11.3554522"><ele>349.6666666666667</ele><time>2026-04-11T08:45:53.037Z</time></trkpt><trkpt lat="43.4590743" lon="11.3554762"><ele>349.5</ele><time>2026-04-11T08:45:54.038Z</time></trkpt><trkpt lat="43.459151" lon="11.35549"><ele>349.3333333333333</ele><time>2026-04-11T08:45:55.037Z</time></trkpt><trkpt lat="43.4592269" lon="11.3555044"><ele>349.16666666666663</ele><time>2026-04-11T08:45:56.037Z</time></trkpt><trkpt lat="43.4593111" lon="11.3555215"><ele>349.0</ele><time>2026-04-11T08:45:57.038Z</time></trkpt><trkpt lat="43.4594035" lon="11.3555374"><ele>349.0</ele><time>2026-04-11T08:45:58.037Z</time></trkpt><trkpt lat="43.4595011" lon="11.3555529"><ele>349.0</ele><time>2026-04-11T08:45:59.037Z</time></trkpt><trkpt lat="43.4595932" lon="11.3555701"><ele>349.0</ele><time>2026-04-11T08:46:00.037Z</time></trkpt><trkpt lat="43.4596619" lon="11.3555811"><ele>349.0</ele><time>2026-04-11T08:46:01.037Z</time></trkpt><trkpt lat="43.4597373" lon="11.3555832"><ele>349.0</ele><time>2026-04-11T08:46:05.037Z</time></trkpt><trkpt lat="43.4598065" lon="11.3555816"><ele>349.0</ele><time>2026-04-11T08:46:07.038Z</time></trkpt><trkpt lat="43.459924" lon="11.3555586"><ele>351.57142857142856</ele><time>2026-04-11T08:46:09.037Z</time></trkpt><trkpt lat="43.4599956" lon="11.3555285"><ele>354.1428571428571</ele><time>2026-04-11T08:46:10.037Z</time></trkpt><trkpt lat="43.460063" lon="11.3554961"><ele>356.71428571428567</ele><time>2026-04-11T08:46:11.038Z</time></trkpt><trkpt lat="43.4601322" lon="11.3554683"><ele>359.2857142857143</ele><time>2026-04-11T08:46:12.038Z</time></trkpt><trkpt lat="43.4601964" lon="11.3554559"><ele>361.8571428571429</ele><time>2026-04-11T08:46:13.037Z</time></trkpt><trkpt lat="43.4602596" lon="11.3554617"><ele>364.4285714285714</ele><time>2026-04-11T08:46:14.037Z</time></trkpt><trkpt lat="43.4603264" lon="11.3554835"><ele>367.0</ele><time>2026-04-11T08:46:15.038Z</time></trkpt><trkpt lat="43.4604039" lon="11.3555126"><ele>364.40000000000003</ele><time>2026-04-11T08:46:16.037Z</time></trkpt><trkpt lat="43.4604921" lon="11.355545"><ele>361.8</ele><time>2026-04-11T08:46:17.038Z</time></trkpt><trkpt lat="43.4605823" lon="11.3555727"><ele>359.2</ele><time>2026-04-11T08:46:18.037Z</time></trkpt><trkpt lat="43.4606871" lon="11.3555913"><ele>356.6</ele><time>2026-04-11T08:46:19.037Z</time></trkpt><trkpt lat="43.4607925" lon="11.3556017"><ele>354.0</ele><time>2026-04-11T08:46:20.038Z</time></trkpt><trkpt lat="43.4609055" lon="11.3555985"><ele>354.0</ele><time>2026-04-11T08:46:21.038Z</time></trkpt><trkpt lat="43.4610223" lon="11.3555783"><ele>354.0</ele><time>2026-04-11T08:46:22.038Z</time></trkpt><trkpt lat="43.4611453" lon="11.3555478"><ele>354.0</ele><time>2026-04-11T08:46:23.038Z</time></trkpt><trkpt lat="43.4612677" lon="11.3555162"><ele>354.0</ele><time>2026-04-11T08:46:24.038Z</time></trkpt><trkpt lat="43.4613678" lon="11.355496"><ele>354.4</ele><time>2026-04-11T08:46:25.037Z</time></trkpt><trkpt lat="43.4614516" lon="11.3554999"><ele>354.79999999999995</ele><time>2026-04-11T08:46:26.038Z</time></trkpt><trkpt lat="43.461531" lon="11.3555322"><ele>355.20000000000005</ele><time>2026-04-11T08:46:27.038Z</time></trkpt><trkpt lat="43.4616196" lon="11.3555914"><ele>355.6</ele><time>2026-04-11T08:46:28.038Z</time></trkpt><trkpt lat="43.4617302" lon="11.35568"><ele>356.0</ele><time>2026-04-11T08:46:29.038Z</time></trkpt><trkpt lat="43.461849" lon="11.3557816"><ele>356.0</ele><time>2026-04-11T08:46:30.038Z</time></trkpt><trkpt lat="43.4619689" lon="11.3558932"><ele>356.0</ele><time>2026-04-11T08:46:31.038Z</time></trkpt><trkpt lat="43.4620891" lon="11.3560046"><ele>356.0</ele><time>2026-04-11T08:46:32.039Z</time></trkpt><trkpt lat="43.4622106" lon="11.3561223"><ele>356.0</ele><time>2026-04-11T08:46:33.039Z</time></trkpt><trkpt lat="43.4623273" lon="11.3562401"><ele>355.75</ele><time>2026-04-11T08:46:34.038Z</time></trkpt><trkpt lat="43.4624377" lon="11.3563499"><ele>355.5</ele><time>2026-04-11T08:46:35.039Z</time></trkpt><trkpt lat="43.4625453" lon="11.3564451"><ele>355.25</ele><time>2026-04-11T08:46:36.038Z</time></trkpt><trkpt lat="43.462658" lon="11.35654"><ele>355.0</ele><time>2026-04-11T08:46:37.039Z</time></trkpt><trkpt lat="43.4627681" lon="11.3566339"><ele>355.0</ele><time>2026-04-11T08:46:38.039Z</time></trkpt><trkpt lat="43.4628697" lon="11.3567248"><ele>355.0</ele><time>2026-04-11T08:46:39.039Z</time></trkpt><trkpt lat="43.4629617" lon="11.3568093"><ele>355.0</ele><time>2026-04-11T08:46:40.038Z</time></trkpt><trkpt lat="43.4630429" lon="11.3568872"><ele>355.0</ele><time>2026-04-11T08:46:41.038Z</time></trkpt><trkpt lat="43.4631171" lon="11.3569561"><ele>355.0</ele><time>2026-04-11T08:46:42.039Z</time></trkpt><trkpt lat="43.4631924" lon="11.3569976"><ele>357.6</ele><time>2026-04-11T08:46:43.039Z</time></trkpt><trkpt lat="43.4632818" lon="11.3570134"><ele>360.2</ele><time>2026-04-11T08:46:44.038Z</time></trkpt><trkpt lat="43.4633828" lon="11.3570113"><ele>362.79999999999995</ele><time>2026-04-11T08:46:45.038Z</time></trkpt><trkpt lat="43.4634842" lon="11.3570176"><ele>365.4</ele><time>2026-04-11T08:46:46.039Z</time></trkpt><trkpt lat="43.4636014" lon="11.3570383"><ele>368.0</ele><time>2026-04-11T08:46:47.038Z</time></trkpt><trkpt lat="43.4637124" lon="11.3570643"><ele>367.0</ele><time>2026-04-11T08:46:48.038Z</time></trkpt><trkpt lat="43.4638233" lon="11.3570865"><ele>366.0</ele><time>2026-04-11T08:46:49.038Z</time></trkpt><trkpt lat="43.4639403" lon="11.3571178"><ele>365.0</ele><time>2026-04-11T08:46:50.039Z</time></trkpt><trkpt lat="43.4640664" lon="11.3571717"><ele>364.0</ele><time>2026-04-11T08:46:51.039Z</time></trkpt><trkpt lat="43.4641867" lon="11.3572674"><ele>364.0</ele><time>2026-04-11T08:46:52.038Z</time></trkpt><trkpt lat="43.4643019" lon="11.3573634"><ele>364.0</ele><time>2026-04-11T08:46:53.039Z</time></trkpt><trkpt lat="43.464412" lon="11.3574703"><ele>364.0</ele><time>2026-04-11T08:46:54.039Z</time></trkpt><trkpt lat="43.4645091" lon="11.357578"><ele>364.0</ele><time>2026-04-11T08:46:55.038Z</time></trkpt><trkpt lat="43.4645979" lon="11.3577044"><ele>365.25</ele><time>2026-04-11T08:46:56.038Z</time></trkpt><trkpt lat="43.4646828" lon="11.3578571"><ele>366.5</ele><time>2026-04-11T08:46:57.038Z</time></trkpt><trkpt lat="43.4647509" lon="11.3580171"><ele>367.75</ele><time>2026-04-11T08:46:58.039Z</time></trkpt><trkpt lat="43.4647988" lon="11.3581781"><ele>369.0</ele><time>2026-04-11T08:46:59.039Z</time></trkpt><trkpt lat="43.464836" lon="11.358343"><ele>369.0</ele><time>2026-04-11T08:47:00.039Z</time></trkpt><trkpt lat="43.4648749" lon="11.3585171"><ele>369.0</ele><time>2026-04-11T08:47:01.038Z</time></trkpt><trkpt lat="43.4649127" lon="11.3586991"><ele>369.0</ele><time>2026-04-11T08:47:02.039Z</time></trkpt><trkpt lat="43.464942" lon="11.3588768"><ele>369.0</ele><time>2026-04-11T08:47:03.039Z</time></trkpt><trkpt lat="43.4649637" lon="11.3590532"><ele>368.2</ele><time>2026-04-11T08:47:04.039Z</time></trkpt><trkpt lat="43.464978" lon="11.3592178"><ele>367.4</ele><time>2026-04-11T08:47:05.038Z</time></trkpt><trkpt lat="43.4649979" lon="11.3593674"><ele>366.6</ele><time>2026-04-11T08:47:06.039Z</time></trkpt><trkpt lat="43.4650232" lon="11.3595047"><ele>365.8</ele><time>2026-04-11T08:47:07.039Z</time></trkpt><trkpt lat="43.4650623" lon="11.3596432"><ele>365.0</ele><time>2026-04-11T08:47:08.039Z</time></trkpt><trkpt lat="43.4651093" lon="11.359788"><ele>364.6</ele><time>2026-04-11T08:47:09.038Z</time></trkpt><trkpt lat="43.4651665" lon="11.359925"><ele>364.2</ele><time>2026-04-11T08:47:10.038Z</time></trkpt><trkpt lat="43.4652299" lon="11.3600529"><ele>363.79999999999995</ele><time>2026-04-11T08:47:11.039Z</time></trkpt><trkpt lat="43.4653007" lon="11.3601599"><ele>363.4</ele><time>2026-04-11T08:47:12.039Z</time></trkpt><trkpt lat="43.4653755" lon="11.3602654"><ele>363.0</ele><time>2026-04-11T08:47:13.039Z</time></trkpt><trkpt lat="43.4654596" lon="11.360382"><ele>364.75</ele><time>2026-04-11T08:47:14.038Z</time></trkpt><trkpt lat="43.465542" lon="11.3605128"><ele>366.5</ele><time>2026-04-11T08:47:15.039Z</time></trkpt><trkpt lat="43.4656112" lon="11.3606481"><ele>368.25</ele><time>2026-04-11T08:47:16.039Z</time></trkpt><trkpt lat="43.4656749" lon="11.3607878"><ele>370.0</ele><time>2026-04-11T08:47:17.038Z</time></trkpt><trkpt lat="43.4657537" lon="11.3609142"><ele>370.0</ele><time>2026-04-11T08:47:18.039Z</time></trkpt><trkpt lat="43.465842" lon="11.3610145"><ele>370.0</ele><time>2026-04-11T08:47:19.038Z</time></trkpt><trkpt lat="43.465936" lon="11.3610824"><ele>370.0</ele><time>2026-04-11T08:47:20.038Z</time></trkpt><trkpt lat="43.4660338" lon="11.3611427"><ele>370.0</ele><time>2026-04-11T08:47:21.039Z</time></trkpt><trkpt lat="43.4661143" lon="11.3612154"><ele>370.0</ele><time>2026-04-11T08:47:22.039Z</time></trkpt><trkpt lat="43.4661872" lon="11.361313"><ele>369.25</ele><time>2026-04-11T08:47:23.039Z</time></trkpt><trkpt lat="43.4662478" lon="11.36144"><ele>368.5</ele><time>2026-04-11T08:47:24.038Z</time></trkpt><trkpt lat="43.4662798" lon="11.3616019"><ele>367.75</ele><time>2026-04-11T08:47:25.038Z</time></trkpt><trkpt lat="43.4663132" lon="11.3617736"><ele>367.0</ele><time>2026-04-11T08:47:26.038Z</time></trkpt><trkpt lat="43.4663504" lon="11.3619496"><ele>367.5</ele><time>2026-04-11T08:47:27.039Z</time></trkpt><trkpt lat="43.466394" lon="11.3621163"><ele>368.0</ele><time>2026-04-11T08:47:28.038Z</time></trkpt><trkpt lat="43.4664508" lon="11.3622798"><ele>368.5</ele><time>2026-04-11T08:47:29.039Z</time></trkpt><trkpt lat="43.4665148" lon="11.3624298"><ele>369.0</ele><time>2026-04-11T08:47:30.038Z</time></trkpt><trkpt lat="43.4665834" lon="11.3625652"><ele>369.0</ele><time>2026-04-11T08:47:31.039Z</time></trkpt><trkpt lat="43.4666573" lon="11.3626798"><ele>369.0</ele><time>2026-04-11T08:47:32.038Z</time></trkpt><trkpt lat="43.466731" lon="11.3627829"><ele>369.0</ele><time>2026-04-11T08:47:33.038Z</time></trkpt><trkpt lat="43.4668023" lon="11.3628865"><ele>369.0</ele><time>2026-04-11T08:47:34.04Z</time></trkpt><trkpt lat="43.4668617" lon="11.363004"><ele>369.0</ele><time>2026-04-11T08:47:35.04Z</time></trkpt><trkpt lat="43.4668942" lon="11.3631303"><ele>368.25</ele><time>2026-04-11T08:47:36.04Z</time></trkpt><trkpt lat="43.4668811" lon="11.3632764"><ele>367.5</ele><time>2026-04-11T08:47:37.039Z</time></trkpt><trkpt lat="43.4668413" lon="11.3634343"><ele>366.75</ele><time>2026-04-11T08:47:38.039Z</time></trkpt><trkpt lat="43.4667819" lon="11.3636057"><ele>366.0</ele><time>2026-04-11T08:47:39.04Z</time></trkpt><trkpt lat="43.466723" lon="11.3637925"><ele>367.0</ele><time>2026-04-11T08:47:40.04Z</time></trkpt><trkpt lat="43.4666716" lon="11.3639885"><ele>368.0</ele><time>2026-04-11T08:47:41.04Z</time></trkpt><trkpt lat="43.4666234" lon="11.3641936"><ele>369.0</ele><time>2026-04-11T08:47:42.04Z</time></trkpt><trkpt lat="43.4665752" lon="11.3643904"><ele>369.0</ele><time>2026-04-11T08:47:43.039Z</time></trkpt><trkpt lat="43.4665329" lon="11.364571"><ele>369.0</ele><time>2026-04-11T08:47:44.04Z</time></trkpt><trkpt lat="43.4664968" lon="11.3647431"><ele>369.0</ele><time>2026-04-11T08:47:45.039Z</time></trkpt><trkpt lat="43.4664622" lon="11.3649177"><ele>369.0</ele><time>2026-04-11T08:47:46.039Z</time></trkpt><trkpt lat="43.4664239" lon="11.3651024"><ele>369.3333333333333</ele><time>2026-04-11T08:47:47.039Z</time></trkpt><trkpt lat="43.4663802" lon="11.3653002"><ele>369.66666666666663</ele><time>2026-04-11T08:47:48.039Z</time></trkpt><trkpt lat="43.466334" lon="11.3655065"><ele>370.0</ele><time>2026-04-11T08:47:49.04Z</time></trkpt><trkpt lat="43.4662864" lon="11.3657149"><ele>369.3333333333333</ele><time>2026-04-11T08:47:50.039Z</time></trkpt><trkpt lat="43.4662392" lon="11.3659251"><ele>368.6666666666667</ele><time>2026-04-11T08:47:51.039Z</time></trkpt><trkpt lat="43.4661901" lon="11.3661368"><ele>368.0</ele><time>2026-04-11T08:47:52.04Z</time></trkpt><trkpt lat="43.4661434" lon="11.3663456"><ele>368.33333333333337</ele><time>2026-04-11T08:47:53.039Z</time></trkpt><trkpt lat="43.4660981" lon="11.3665532"><ele>368.6666666666667</ele><time>2026-04-11T08:47:54.04Z</time></trkpt><trkpt lat="43.4660537" lon="11.3667569"><ele>369.0</ele><time>2026-04-11T08:47:55.04Z</time></trkpt><trkpt lat="43.466012" lon="11.3669555"><ele>369.0</ele><time>2026-04-11T08:47:56.04Z</time></trkpt><trkpt lat="43.4659735" lon="11.3671467"><ele>369.0</ele><time>2026-04-11T08:47:57.04Z</time></trkpt><trkpt lat="43.4659368" lon="11.3673293"><ele>369.0</ele><time>2026-04-11T08:47:58.04Z</time></trkpt><trkpt lat="43.4659006" lon="11.3675048"><ele>369.0</ele><time>2026-04-11T08:47:59.04Z</time></trkpt><trkpt lat="43.4658659" lon="11.3676726"><ele>369.4</ele><time>2026-04-11T08:48:00.039Z</time></trkpt><trkpt lat="43.4658335" lon="11.367834"><ele>369.79999999999995</ele><time>2026-04-11T08:48:01.04Z</time></trkpt><trkpt lat="43.4658019" lon="11.3679819"><ele>370.20000000000005</ele><time>2026-04-11T08:48:02.039Z</time></trkpt><trkpt lat="43.4657725" lon="11.3681208"><ele>370.6</ele><time>2026-04-11T08:48:03.04Z</time></trkpt><trkpt lat="43.4657467" lon="11.3682537"><ele>371.0</ele><time>2026-04-11T08:48:04.04Z</time></trkpt><trkpt lat="43.46573" lon="11.3683812"><ele>371.6</ele><time>2026-04-11T08:48:05.04Z</time></trkpt><trkpt lat="43.4657253" lon="11.3685069"><ele>372.20000000000005</ele><time>2026-04-11T08:48:06.04Z</time></trkpt><trkpt lat="43.4657355" lon="11.3686395"><ele>372.79999999999995</ele><time>2026-04-11T08:48:07.039Z</time></trkpt><trkpt lat="43.4657575" lon="11.3687732"><ele>373.4</ele><time>2026-04-11T08:48:08.039Z</time></trkpt><trkpt lat="43.4657856" lon="11.3689155"><ele>374.0</ele><time>2026-04-11T08:48:09.039Z</time></trkpt><trkpt lat="43.4658167" lon="11.3690631"><ele>374.0</ele><time>2026-04-11T08:48:10.039Z</time></trkpt><trkpt lat="43.4658507" lon="11.369217"><ele>374.0</ele><time>2026-04-11T08:48:11.039Z</time></trkpt><trkpt lat="43.4658915" lon="11.3693831"><ele>374.0</ele><time>2026-04-11T08:48:12.039Z</time></trkpt><trkpt lat="43.4659399" lon="11.3695621"><ele>374.0</ele><time>2026-04-11T08:48:13.04Z</time></trkpt><trkpt lat="43.4659949" lon="11.3697514"><ele>374.5</ele><time>2026-04-11T08:48:14.039Z</time></trkpt><trkpt lat="43.4660583" lon="11.3699468"><ele>375.0</ele><time>2026-04-11T08:48:15.039Z</time></trkpt><trkpt lat="43.4661225" lon="11.3701121"><ele>375.5</ele><time>2026-04-11T08:48:16.039Z</time></trkpt><trkpt lat="43.4661854" lon="11.3702592"><ele>376.0</ele><time>2026-04-11T08:48:17.039Z</time></trkpt><trkpt lat="43.4662562" lon="11.3704005"><ele>376.75</ele><time>2026-04-11T08:48:18.039Z</time></trkpt><trkpt lat="43.4663317" lon="11.3705499"><ele>377.5</ele><time>2026-04-11T08:48:19.039Z</time></trkpt><trkpt lat="43.4664159" lon="11.370704"><ele>378.25</ele><time>2026-04-11T08:48:20.039Z</time></trkpt><trkpt lat="43.4665086" lon="11.3708503"><ele>379.0</ele><time>2026-04-11T08:48:21.04Z</time></trkpt><trkpt lat="43.4666037" lon="11.3709929"><ele>379.0</ele><time>2026-04-11T08:48:22.039Z</time></trkpt><trkpt lat="43.466689" lon="11.3711172"><ele>379.0</ele><time>2026-04-11T08:48:23.039Z</time></trkpt><trkpt lat="43.4667684" lon="11.3712198"><ele>379.0</ele><time>2026-04-11T08:48:24.04Z</time></trkpt><trkpt lat="43.4668524" lon="11.371305"><ele>379.0</ele><time>2026-04-11T08:48:25.039Z</time></trkpt><trkpt lat="43.4669394" lon="11.3713775"><ele>379.0</ele><time>2026-04-11T08:48:26.039Z</time></trkpt><trkpt lat="43.4670465" lon="11.3714399"><ele>379.25</ele><time>2026-04-11T08:48:27.039Z</time></trkpt><trkpt lat="43.4671619" lon="11.3714986"><ele>379.5</ele><time>2026-04-11T08:48:28.039Z</time></trkpt><trkpt lat="43.4672743" lon="11.3715649"><ele>379.75</ele><time>2026-04-11T08:48:29.04Z</time></trkpt><trkpt lat="43.4673747" lon="11.3716426"><ele>380.0</ele><time>2026-04-11T08:48:30.039Z</time></trkpt><trkpt lat="43.4674626" lon="11.3717348"><ele>380.0</ele><time>2026-04-11T08:48:31.04Z</time></trkpt><trkpt lat="43.4675367" lon="11.3718428"><ele>380.0</ele><time>2026-04-11T08:48:32.04Z</time></trkpt><trkpt lat="43.4675998" lon="11.3719662"><ele>380.0</ele><time>2026-04-11T08:48:33.04Z</time></trkpt><trkpt lat="43.4676556" lon="11.3721058"><ele>380.0</ele><time>2026-04-11T08:48:34.039Z</time></trkpt><trkpt lat="43.4677073" lon="11.3722553"><ele>379.2</ele><time>2026-04-11T08:48:35.039Z</time></trkpt><trkpt lat="43.4677568" lon="11.372403"><ele>378.4</ele><time>2026-04-11T08:48:36.04Z</time></trkpt><trkpt lat="43.4678033" lon="11.3725442"><ele>377.6</ele><time>2026-04-11T08:48:37.04Z</time></trkpt><trkpt lat="43.4678435" lon="11.3726761"><ele>376.8</ele><time>2026-04-11T08:48:38.041Z</time></trkpt><trkpt lat="43.4678713" lon="11.3728009"><ele>376.0</ele><time>2026-04-11T08:48:39.041Z</time></trkpt><trkpt lat="43.4678847" lon="11.372921"><ele>376.16666666666663</ele><time>2026-04-11T08:48:40.04Z</time></trkpt><trkpt lat="43.4678876" lon="11.373032"><ele>376.3333333333333</ele><time>2026-04-11T08:48:41.04Z</time></trkpt><trkpt lat="43.467887" lon="11.3731249"><ele>376.5</ele><time>2026-04-11T08:48:42.04Z</time></trkpt><trkpt lat="43.4678973" lon="11.3732449"><ele>376.6666666666667</ele><time>2026-04-11T08:48:44.041Z</time></trkpt><trkpt lat="43.4679858" lon="11.3733389"><ele>376.83333333333337</ele><time>2026-04-11T08:48:46.04Z</time></trkpt><trkpt lat="43.4680779" lon="11.3733732"><ele>377.0</ele><time>2026-04-11T08:48:47.04Z</time></trkpt><trkpt lat="43.468207" lon="11.3734173"><ele>378.20000000000005</ele><time>2026-04-11T08:48:48.04Z</time></trkpt><trkpt lat="43.4683394" lon="11.3734682"><ele>379.4</ele><time>2026-04-11T08:48:49.041Z</time></trkpt><trkpt lat="43.4684331" lon="11.3735236"><ele>380.6</ele><time>2026-04-11T08:48:50.041Z</time></trkpt><trkpt lat="43.4685028" lon="11.3735913"><ele>381.79999999999995</ele><time>2026-04-11T08:48:52.041Z</time></trkpt><trkpt lat="43.4685955" lon="11.3736827"><ele>383.0</ele><time>2026-04-11T08:48:55.04Z</time></trkpt><trkpt lat="43.4686621" lon="11.373768"><ele>383.0</ele><time>2026-04-11T08:48:56.041Z</time></trkpt><trkpt lat="43.468765" lon="11.3739242"><ele>383.0</ele><time>2026-04-11T08:48:57.04Z</time></trkpt><trkpt lat="43.4688685" lon="11.3740801"><ele>383.0</ele><time>2026-04-11T08:48:58.041Z</time></trkpt><trkpt lat="43.4689801" lon="11.3742047"><ele>383.5</ele><time>2026-04-11T08:48:59.041Z</time></trkpt><trkpt lat="43.4690827" lon="11.3742771"><ele>384.0</ele><time>2026-04-11T08:49:00.041Z</time></trkpt><trkpt lat="43.4692005" lon="11.3743108"><ele>384.5</ele><time>2026-04-11T08:49:01.041Z</time></trkpt><trkpt lat="43.4693543" lon="11.3743075"><ele>385.0</ele><time>2026-04-11T08:49:02.04Z</time></trkpt><trkpt lat="43.4695224" lon="11.3742987"><ele>387.33333333333337</ele><time>2026-04-11T08:49:03.041Z</time></trkpt><trkpt lat="43.469696" lon="11.3742869"><ele>389.66666666666663</ele><time>2026-04-11T08:49:04.04Z</time></trkpt><trkpt lat="43.4698882" lon="11.3742805"><ele>392.0</ele><time>2026-04-11T08:49:05.041Z</time></trkpt><trkpt lat="43.4700924" lon="11.3742802"><ele>392.0</ele><time>2026-04-11T08:49:06.04Z</time></trkpt><trkpt lat="43.4702993" lon="11.3742892"><ele>392.0</ele><time>2026-04-11T08:49:07.041Z</time></trkpt><trkpt lat="43.4705083" lon="11.3742933"><ele>392.0</ele><time>2026-04-11T08:49:08.04Z</time></trkpt><trkpt lat="43.4706911" lon="11.3742898"><ele>393.0</ele><time>2026-04-11T08:49:09.041Z</time></trkpt><trkpt lat="43.4708656" lon="11.3742857"><ele>394.0</ele><time>2026-04-11T08:49:10.04Z</time></trkpt><trkpt lat="43.4710331" lon="11.3742614"><ele>395.0</ele><time>2026-04-11T08:49:11.04Z</time></trkpt><trkpt lat="43.4712095" lon="11.3742134"><ele>395.66666666666663</ele><time>2026-04-11T08:49:12.041Z</time></trkpt><trkpt lat="43.4713908" lon="11.3741506"><ele>396.33333333333337</ele><time>2026-04-11T08:49:13.04Z</time></trkpt><trkpt lat="43.4715799" lon="11.3740845"><ele>397.0</ele><time>2026-04-11T08:49:14.04Z</time></trkpt><trkpt lat="43.4717713" lon="11.3740231"><ele>397.0</ele><time>2026-04-11T08:49:15.041Z</time></trkpt><trkpt lat="43.4719563" lon="11.3739727"><ele>397.0</ele><time>2026-04-11T08:49:16.04Z</time></trkpt><trkpt lat="43.4721361" lon="11.373933"><ele>397.0</ele><time>2026-04-11T08:49:17.04Z</time></trkpt><trkpt lat="43.4723021" lon="11.3739016"><ele>399.0</ele><time>2026-04-11T08:49:18.04Z</time></trkpt><trkpt lat="43.4724617" lon="11.3738966"><ele>401.0</ele><time>2026-04-11T08:49:19.041Z</time></trkpt><trkpt lat="43.4726132" lon="11.3739414"><ele>403.0</ele><time>2026-04-11T08:49:20.04Z</time></trkpt><trkpt lat="43.4727616" lon="11.3740416"><ele>403.0</ele><time>2026-04-11T08:49:21.041Z</time></trkpt><trkpt lat="43.4729167" lon="11.3741622"><ele>403.0</ele><time>2026-04-11T08:49:22.041Z</time></trkpt><trkpt lat="43.473062" lon="11.374275"><ele>403.0</ele><time>2026-04-11T08:49:23.041Z</time></trkpt><trkpt lat="43.473211" lon="11.3743618"><ele>405.75</ele><time>2026-04-11T08:49:24.041Z</time></trkpt><trkpt lat="43.4733634" lon="11.374416"><ele>408.5</ele><time>2026-04-11T08:49:25.041Z</time></trkpt><trkpt lat="43.4734996" lon="11.374429"><ele>411.25</ele><time>2026-04-11T08:49:26.04Z</time></trkpt><trkpt lat="43.4736215" lon="11.3743978"><ele>414.0</ele><time>2026-04-11T08:49:27.041Z</time></trkpt><trkpt lat="43.4737292" lon="11.3743253"><ele>414.0</ele><time>2026-04-11T08:49:28.041Z</time></trkpt><trkpt lat="43.4738335" lon="11.3742061"><ele>414.0</ele><time>2026-04-11T08:49:29.042Z</time></trkpt><trkpt lat="43.4739215" lon="11.3740492"><ele>414.0</ele><time>2026-04-11T08:49:30.041Z</time></trkpt><trkpt lat="43.4740022" lon="11.3738769"><ele>414.0</ele><time>2026-04-11T08:49:31.04Z</time></trkpt><trkpt lat="43.474079" lon="11.3737069"><ele>417.75</ele><time>2026-04-11T08:49:32.041Z</time></trkpt><trkpt lat="43.4741815" lon="11.3735809"><ele>421.5</ele><time>2026-04-11T08:49:33.041Z</time></trkpt><trkpt lat="43.4743087" lon="11.3735048"><ele>425.25</ele><time>2026-04-11T08:49:34.04Z</time></trkpt><trkpt lat="43.4744237" lon="11.3734808"><ele>429.0</ele><time>2026-04-11T08:49:35.041Z</time></trkpt><trkpt lat="43.4745249" lon="11.3735084"><ele>430.25</ele><time>2026-04-11T08:49:36.041Z</time></trkpt><trkpt lat="43.4746477" lon="11.3736165"><ele>431.5</ele><time>2026-04-11T08:49:37.041Z</time></trkpt><trkpt lat="43.4747506" lon="11.3737719"><ele>432.75</ele><time>2026-04-11T08:49:38.04Z</time></trkpt><trkpt lat="43.4748506" lon="11.3739176"><ele>434.0</ele><time>2026-04-11T08:49:39.041Z</time></trkpt><trkpt lat="43.4749373" lon="11.3739794"><ele>432.0</ele><time>2026-04-11T08:49:40.041Z</time></trkpt><trkpt lat="43.4750549" lon="11.3739611"><ele>430.0</ele><time>2026-04-11T08:49:41.042Z</time></trkpt><trkpt lat="43.4751996" lon="11.3739261"><ele>428.0</ele><time>2026-04-11T08:49:42.041Z</time></trkpt><trkpt lat="43.475361" lon="11.3739029"><ele>426.0</ele><time>2026-04-11T08:49:43.041Z</time></trkpt><trkpt lat="43.4755403" lon="11.3738671"><ele>430.66666666666663</ele><time>2026-04-11T08:49:44.041Z</time></trkpt><trkpt lat="43.4757262" lon="11.37384"><ele>435.3333333333333</ele><time>2026-04-11T08:49:45.042Z</time></trkpt><trkpt lat="43.4759148" lon="11.3738142"><ele>440.0</ele><time>2026-04-11T08:49:46.042Z</time></trkpt><trkpt lat="43.4760827" lon="11.3737905"><ele>440.0</ele><time>2026-04-11T08:49:47.042Z</time></trkpt><trkpt lat="43.4762307" lon="11.373774"><ele>440.0</ele><time>2026-04-11T08:49:48.041Z</time></trkpt><trkpt lat="43.4763628" lon="11.3737518"><ele>440.0</ele><time>2026-04-11T08:49:49.042Z</time></trkpt><trkpt lat="43.4764714" lon="11.3737133"><ele>440.0</ele><time>2026-04-11T08:49:50.041Z</time></trkpt><trkpt lat="43.476555" lon="11.3736479"><ele>438.5</ele><time>2026-04-11T08:49:51.042Z</time></trkpt><trkpt lat="43.4765978" lon="11.3735237"><ele>437.0</ele><time>2026-04-11T08:49:52.041Z</time></trkpt><trkpt lat="43.4766081" lon="11.3733276"><ele>435.5</ele><time>2026-04-11T08:49:53.041Z</time></trkpt><trkpt lat="43.4766193" lon="11.373103"><ele>434.0</ele><time>2026-04-11T08:49:54.042Z</time></trkpt><trkpt lat="43.4766262" lon="11.3728532"><ele>438.0</ele><time>2026-04-11T08:49:55.041Z</time></trkpt><trkpt lat="43.4766532" lon="11.3725973"><ele>442.0</ele><time>2026-04-11T08:49:56.041Z</time></trkpt><trkpt lat="43.4766812" lon="11.3723734"><ele>446.0</ele><time>2026-04-11T08:49:57.041Z</time></trkpt><trkpt lat="43.4767056" lon="11.3721831"><ele>448.25</ele><time>2026-04-11T08:49:58.042Z</time></trkpt><trkpt lat="43.4767299" lon="11.3720218"><ele>450.5</ele><time>2026-04-11T08:49:59.042Z</time></trkpt><trkpt lat="43.4767771" lon="11.3718924"><ele>452.75</ele><time>2026-04-11T08:50:00.041Z</time></trkpt><trkpt lat="43.4768625" lon="11.3718008"><ele>455.0</ele><time>2026-04-11T08:50:01.041Z</time></trkpt><trkpt lat="43.4769943" lon="11.3717494"><ele>455.66666666666663</ele><time>2026-04-11T08:50:02.041Z</time></trkpt><trkpt lat="43.4771463" lon="11.3717715"><ele>456.33333333333337</ele><time>2026-04-11T08:50:03.041Z</time></trkpt><trkpt lat="43.4773191" lon="11.371853"><ele>457.0</ele><time>2026-04-11T08:50:04.041Z</time></trkpt><trkpt lat="43.4775037" lon="11.3719658"><ele>457.0</ele><time>2026-04-11T08:50:05.041Z</time></trkpt><trkpt lat="43.4776834" lon="11.3720639"><ele>457.0</ele><time>2026-04-11T08:50:06.042Z</time></trkpt><trkpt lat="43.4778141" lon="11.3720506"><ele>457.0</ele><time>2026-04-11T08:50:07.042Z</time></trkpt><trkpt lat="43.4779681" lon="11.3720062"><ele>456.25</ele><time>2026-04-11T08:50:08.042Z</time></trkpt><trkpt lat="43.4780782" lon="11.371927"><ele>455.5</ele><time>2026-04-11T08:50:09.042Z</time></trkpt><trkpt lat="43.4781775" lon="11.3717828"><ele>454.75</ele><time>2026-04-11T08:50:10.042Z</time></trkpt><trkpt lat="43.4782532" lon="11.3716076"><ele>454.0</ele><time>2026-04-11T08:50:11.041Z</time></trkpt><trkpt lat="43.4782936" lon="11.3714457"><ele>456.25</ele><time>2026-04-11T08:50:12.042Z</time></trkpt><trkpt lat="43.4782965" lon="11.3713177"><ele>458.5</ele><time>2026-04-11T08:50:13.042Z</time></trkpt><trkpt lat="43.4782746" lon="11.3711744"><ele>460.75</ele><time>2026-04-11T08:50:14.041Z</time></trkpt><trkpt lat="43.4782189" lon="11.3710036"><ele>463.0</ele><time>2026-04-11T08:50:15.041Z</time></trkpt><trkpt lat="43.4781474" lon="11.370794"><ele>463.0</ele><time>2026-04-11T08:50:16.042Z</time></trkpt><trkpt lat="43.4780726" lon="11.3705742"><ele>463.0</ele><time>2026-04-11T08:50:17.041Z</time></trkpt><trkpt lat="43.4780147" lon="11.3703791"><ele>463.0</ele><time>2026-04-11T08:50:18.042Z</time></trkpt><trkpt lat="43.4779638" lon="11.3701985"><ele>464.59999999999997</ele><time>2026-04-11T08:50:19.042Z</time></trkpt><trkpt lat="43.4779248" lon="11.3700492"><ele>466.19999999999993</ele><time>2026-04-11T08:50:20.042Z</time></trkpt><trkpt lat="43.4779161" lon="11.3699234"><ele>467.8</ele><time>2026-04-11T08:50:21.042Z</time></trkpt><trkpt lat="43.477959" lon="11.3698465"><ele>469.4</ele><time>2026-04-11T08:50:22.042Z</time></trkpt><trkpt lat="43.4780424" lon="11.3697858"><ele>471.0</ele><time>2026-04-11T08:50:23.042Z</time></trkpt><trkpt lat="43.4781658" lon="11.3697489"><ele>471.0</ele><time>2026-04-11T08:50:24.042Z</time></trkpt><trkpt lat="43.4783289" lon="11.3697765"><ele>471.0</ele><time>2026-04-11T08:50:25.041Z</time></trkpt><trkpt lat="43.4784972" lon="11.3698676"><ele>471.0</ele><time>2026-04-11T08:50:26.042Z</time></trkpt><trkpt lat="43.4786088" lon="11.3698745"><ele>471.0</ele><time>2026-04-11T08:50:27.041Z</time></trkpt><trkpt lat="43.4787127" lon="11.3698352"><ele>471.0</ele><time>2026-04-11T08:50:28.041Z</time></trkpt><trkpt lat="43.4788202" lon="11.3697203"><ele>471.0</ele><time>2026-04-11T08:50:29.042Z</time></trkpt><trkpt lat="43.4789181" lon="11.3695642"><ele>471.0</ele><time>2026-04-11T08:50:30.042Z</time></trkpt><trkpt lat="43.4790346" lon="11.3693723"><ele>474.33333333333337</ele><time>2026-04-11T08:50:31.041Z</time></trkpt><trkpt lat="43.4791403" lon="11.3691975"><ele>477.6666666666667</ele><time>2026-04-11T08:50:32.042Z</time></trkpt><trkpt lat="43.47926" lon="11.3690017"><ele>481.0</ele><time>2026-04-11T08:50:33.041Z</time></trkpt><trkpt lat="43.4793813" lon="11.3688084"><ele>481.33333333333337</ele><time>2026-04-11T08:50:34.041Z</time></trkpt><trkpt lat="43.4795097" lon="11.3686199"><ele>481.66666666666663</ele><time>2026-04-11T08:50:35.042Z</time></trkpt><trkpt lat="43.4796472" lon="11.3684352"><ele>482.0</ele><time>2026-04-11T08:50:36.042Z</time></trkpt><trkpt lat="43.4797796" lon="11.3682479"><ele>482.0</ele><time>2026-04-11T08:50:37.042Z</time></trkpt><trkpt lat="43.4799149" lon="11.3680609"><ele>482.0</ele><time>2026-04-11T08:50:38.042Z</time></trkpt><trkpt lat="43.4800272" lon="11.367896"><ele>482.0</ele><time>2026-04-11T08:50:39.042Z</time></trkpt><trkpt lat="43.48013" lon="11.3677551"><ele>483.6</ele><time>2026-04-11T08:50:40.041Z</time></trkpt><trkpt lat="43.4802162" lon="11.3676532"><ele>485.20000000000005</ele><time>2026-04-11T08:50:41.042Z</time></trkpt><trkpt lat="43.4802946" lon="11.3676098"><ele>486.8</ele><time>2026-04-11T08:50:42.041Z</time></trkpt><trkpt lat="43.4803917" lon="11.3675989"><ele>488.4</ele><time>2026-04-11T08:50:43.043Z</time></trkpt><trkpt lat="43.480508" lon="11.3676763"><ele>490.0</ele><time>2026-04-11T08:50:44.041Z</time></trkpt><trkpt lat="43.4806284" lon="11.3677579"><ele>490.0</ele><time>2026-04-11T08:50:45.042Z</time></trkpt><trkpt lat="43.4807188" lon="11.3677624"><ele>490.0</ele><time>2026-04-11T08:50:46.042Z</time></trkpt><trkpt lat="43.4808088" lon="11.3677163"><ele>490.0</ele><time>2026-04-11T08:50:47.043Z</time></trkpt><trkpt lat="43.4808861" lon="11.3675973"><ele>490.0</ele><time>2026-04-11T08:50:48.043Z</time></trkpt><trkpt lat="43.480961" lon="11.3674299"><ele>490.0</ele><time>2026-04-11T08:50:49.043Z</time></trkpt><trkpt lat="43.4810436" lon="11.3672466"><ele>491.5</ele><time>2026-04-11T08:50:50.043Z</time></trkpt><trkpt lat="43.4811475" lon="11.3671204"><ele>493.0</ele><time>2026-04-11T08:50:51.043Z</time></trkpt><trkpt lat="43.481278" lon="11.3670672"><ele>494.5</ele><time>2026-04-11T08:50:52.042Z</time></trkpt><trkpt lat="43.4814263" lon="11.3670991"><ele>496.0</ele><time>2026-04-11T08:50:53.042Z</time></trkpt><trkpt lat="43.4815897" lon="11.3671193"><ele>496.0</ele><time>2026-04-11T08:50:54.043Z</time></trkpt><trkpt lat="43.4817297" lon="11.3671213"><ele>496.0</ele><time>2026-04-11T08:50:55.043Z</time></trkpt><trkpt lat="43.4818456" lon="11.367071"><ele>496.0</ele><time>2026-04-11T08:50:56.042Z</time></trkpt><trkpt lat="43.4819468" lon="11.3669792"><ele>496.0</ele><time>2026-04-11T08:50:57.043Z</time></trkpt><trkpt lat="43.48202" lon="11.3668432"><ele>495.0</ele><time>2026-04-11T08:50:58.043Z</time></trkpt><trkpt lat="43.4821087" lon="11.3666631"><ele>494.0</ele><time>2026-04-11T08:50:59.042Z</time></trkpt><trkpt lat="43.4821958" lon="11.3665146"><ele>493.0</ele><time>2026-04-11T08:51:00.042Z</time></trkpt><trkpt lat="43.4822974" lon="11.3664178"><ele>492.0</ele><time>2026-04-11T08:51:01.042Z</time></trkpt><trkpt lat="43.4824391" lon="11.3663664"><ele>492.0</ele><time>2026-04-11T08:51:02.043Z</time></trkpt><trkpt lat="43.4826104" lon="11.3664035"><ele>492.0</ele><time>2026-04-11T08:51:03.042Z</time></trkpt><trkpt lat="43.4827531" lon="11.3664605"><ele>492.0</ele><time>2026-04-11T08:51:04.043Z</time></trkpt><trkpt lat="43.4828907" lon="11.3665079"><ele>492.25</ele><time>2026-04-11T08:51:05.042Z</time></trkpt><trkpt lat="43.4830191" lon="11.3665324"><ele>492.5</ele><time>2026-04-11T08:51:06.042Z</time></trkpt><trkpt lat="43.4831414" lon="11.3665202"><ele>492.75</ele><time>2026-04-11T08:51:07.043Z</time></trkpt><trkpt lat="43.483251" lon="11.3664658"><ele>493.0</ele><time>2026-04-11T08:51:08.042Z</time></trkpt><trkpt lat="43.4833666" lon="11.3663538"><ele>497.6666666666667</ele><time>2026-04-11T08:51:09.043Z</time></trkpt><trkpt lat="43.4834911" lon="11.3661893"><ele>502.33333333333337</ele><time>2026-04-11T08:51:10.042Z</time></trkpt><trkpt lat="43.4836036" lon="11.3660028"><ele>507.0</ele><time>2026-04-11T08:51:11.042Z</time></trkpt><trkpt lat="43.4837144" lon="11.3658177"><ele>507.6</ele><time>2026-04-11T08:51:12.042Z</time></trkpt><trkpt lat="43.4838045" lon="11.3656736"><ele>508.20000000000005</ele><time>2026-04-11T08:51:13.043Z</time></trkpt><trkpt lat="43.4838823" lon="11.3655866"><ele>508.8</ele><time>2026-04-11T08:51:14.042Z</time></trkpt><trkpt lat="43.4839485" lon="11.365527"><ele>509.4</ele><time>2026-04-11T08:51:15.043Z</time></trkpt><trkpt lat="43.4840358" lon="11.3654932"><ele>510.0</ele><time>2026-04-11T08:51:17.042Z</time></trkpt><trkpt lat="43.4841634" lon="11.3655344"><ele>508.2</ele><time>2026-04-11T08:51:29.043Z</time></trkpt><trkpt lat="43.4842507" lon="11.3656046"><ele>506.4</ele><time>2026-04-11T08:51:30.043Z</time></trkpt><trkpt lat="43.4843466" lon="11.3657049"><ele>504.6</ele><time>2026-04-11T08:51:31.042Z</time></trkpt><trkpt lat="43.4844241" lon="11.3658154"><ele>502.8</ele><time>2026-04-11T08:51:32.042Z</time></trkpt><trkpt lat="43.484468" lon="11.3659231"><ele>501.0</ele><time>2026-04-11T08:51:33.042Z</time></trkpt><trkpt lat="43.4844545" lon="11.3660449"><ele>501.0</ele><time>2026-04-11T08:51:34.043Z</time></trkpt><trkpt lat="43.4844064" lon="11.3662061"><ele>501.0</ele><time>2026-04-11T08:51:35.042Z</time></trkpt><trkpt lat="43.4843577" lon="11.3663784"><ele>501.0</ele><time>2026-04-11T08:51:36.042Z</time></trkpt><trkpt lat="43.4843303" lon="11.3665449"><ele>501.0</ele><time>2026-04-11T08:51:37.042Z</time></trkpt><trkpt lat="43.4843206" lon="11.3667011"><ele>499.8</ele><time>2026-04-11T08:51:38.042Z</time></trkpt><trkpt lat="43.4843301" lon="11.3668586"><ele>498.6</ele><time>2026-04-11T08:51:39.043Z</time></trkpt><trkpt lat="43.484354" lon="11.3670021"><ele>497.4</ele><time>2026-04-11T08:51:40.042Z</time></trkpt><trkpt lat="43.4844013" lon="11.3671346"><ele>496.2</ele><time>2026-04-11T08:51:41.043Z</time></trkpt><trkpt lat="43.4844548" lon="11.3672682"><ele>495.0</ele><time>2026-04-11T08:51:42.043Z</time></trkpt><trkpt lat="43.484501" lon="11.3674037"><ele>494.75</ele><time>2026-04-11T08:51:43.042Z</time></trkpt><trkpt lat="43.4845447" lon="11.367551"><ele>494.5</ele><time>2026-04-11T08:51:44.042Z</time></trkpt><trkpt lat="43.4845814" lon="11.3677048"><ele>494.25</ele><time>2026-04-11T08:51:45.043Z</time></trkpt><trkpt lat="43.4846121" lon="11.3678634"><ele>494.0</ele><time>2026-04-11T08:51:46.043Z</time></trkpt><trkpt lat="43.4846327" lon="11.3680195"><ele>496.0</ele><time>2026-04-11T08:51:47.042Z</time></trkpt><trkpt lat="43.4846498" lon="11.3681715"><ele>498.0</ele><time>2026-04-11T08:51:48.043Z</time></trkpt><trkpt lat="43.4846669" lon="11.3683204"><ele>500.0</ele><time>2026-04-11T08:51:49.044Z</time></trkpt><trkpt lat="43.4846863" lon="11.3684725"><ele>502.0</ele><time>2026-04-11T08:51:50.043Z</time></trkpt><trkpt lat="43.4847042" lon="11.3686316"><ele>502.0</ele><time>2026-04-11T08:51:51.043Z</time></trkpt><trkpt lat="43.4847205" lon="11.3687903"><ele>502.00000000000006</ele><time>2026-04-11T08:51:52.043Z</time></trkpt><trkpt lat="43.484735" lon="11.368944"><ele>502.00000000000006</ele><time>2026-04-11T08:51:53.044Z</time></trkpt><trkpt lat="43.4847498" lon="11.3690854"><ele>502.0</ele><time>2026-04-11T08:51:54.043Z</time></trkpt><trkpt lat="43.4847733" lon="11.3692194"><ele>502.0</ele><time>2026-04-11T08:51:55.043Z</time></trkpt><trkpt lat="43.4848081" lon="11.3693484"><ele>503.0</ele><time>2026-04-11T08:51:56.044Z</time></trkpt><trkpt lat="43.4848597" lon="11.3694627"><ele>504.00000000000006</ele><time>2026-04-11T08:51:57.043Z</time></trkpt><trkpt lat="43.4849216" lon="11.3695628"><ele>505.00000000000006</ele><time>2026-04-11T08:51:58.044Z</time></trkpt><trkpt lat="43.4849909" lon="11.3696472"><ele>506.0</ele><time>2026-04-11T08:51:59.043Z</time></trkpt><trkpt lat="43.4850629" lon="11.3697257"><ele>507.0</ele><time>2026-04-11T08:52:00.043Z</time></trkpt><trkpt lat="43.4851334" lon="11.3697968"><ele>507.8333333333333</ele><time>2026-04-11T08:52:01.044Z</time></trkpt><trkpt lat="43.4852065" lon="11.3698555"><ele>508.66666666666663</ele><time>2026-04-11T08:52:02.044Z</time></trkpt><trkpt lat="43.4852837" lon="11.3699061"><ele>509.5</ele><time>2026-04-11T08:52:03.043Z</time></trkpt><trkpt lat="43.485371" lon="11.3699433"><ele>510.3333333333333</ele><time>2026-04-11T08:52:04.043Z</time></trkpt><trkpt lat="43.4854592" lon="11.3699586"><ele>511.16666666666663</ele><time>2026-04-11T08:52:05.044Z</time></trkpt><trkpt lat="43.4855411" lon="11.369964"><ele>512.0</ele><time>2026-04-11T08:52:06.044Z</time></trkpt><trkpt lat="43.4856231" lon="11.369977"><ele>512.0</ele><time>2026-04-11T08:52:07.044Z</time></trkpt><trkpt lat="43.4857108" lon="11.3700124"><ele>512.0</ele><time>2026-04-11T08:52:08.043Z</time></trkpt><trkpt lat="43.4857966" lon="11.3700812"><ele>512.0</ele><time>2026-04-11T08:52:09.043Z</time></trkpt><trkpt lat="43.4858723" lon="11.3701683"><ele>512.0</ele><time>2026-04-11T08:52:10.043Z</time></trkpt><trkpt lat="43.4859353" lon="11.3702744"><ele>512.0</ele><time>2026-04-11T08:52:11.044Z</time></trkpt><trkpt lat="43.4859933" lon="11.3703912"><ele>512.0</ele><time>2026-04-11T08:52:12.043Z</time></trkpt><trkpt lat="43.4860449" lon="11.3705132"><ele>512.0</ele><time>2026-04-11T08:52:13.043Z</time></trkpt><trkpt lat="43.4860891" lon="11.3706449"><ele>512.0</ele><time>2026-04-11T08:52:14.043Z</time></trkpt><trkpt lat="43.4861287" lon="11.370778"><ele>512.0</ele><time>2026-04-11T08:52:15.043Z</time></trkpt><trkpt lat="43.4861656" lon="11.3709082"><ele>512.0</ele><time>2026-04-11T08:52:16.043Z</time></trkpt><trkpt lat="43.4861962" lon="11.3710261"><ele>513.1666666666666</ele><time>2026-04-11T08:52:17.043Z</time></trkpt><trkpt lat="43.4862223" lon="11.3711344"><ele>514.3333333333333</ele><time>2026-04-11T08:52:18.043Z</time></trkpt><trkpt lat="43.4862441" lon="11.371249"><ele>515.5</ele><time>2026-04-11T08:52:19.043Z</time></trkpt><trkpt lat="43.4862614" lon="11.3713631"><ele>516.6666666666666</ele><time>2026-04-11T08:52:20.044Z</time></trkpt><trkpt lat="43.4862787" lon="11.371479"><ele>517.8333333333334</ele><time>2026-04-11T08:52:21.043Z</time></trkpt><trkpt lat="43.4862925" lon="11.3715893"><ele>519.0</ele><time>2026-04-11T08:52:22.043Z</time></trkpt><trkpt lat="43.486303" lon="11.3716993"><ele>518.3333333333334</ele><time>2026-04-11T08:52:23.044Z</time></trkpt><trkpt lat="43.4863071" lon="11.3718206"><ele>517.6666666666666</ele><time>2026-04-11T08:52:24.043Z</time></trkpt><trkpt lat="43.4863124" lon="11.3719455"><ele>517.0</ele><time>2026-04-11T08:52:25.044Z</time></trkpt><trkpt lat="43.4863236" lon="11.3720664"><ele>516.3333333333333</ele><time>2026-04-11T08:52:26.043Z</time></trkpt><trkpt lat="43.4863376" lon="11.3721846"><ele>515.6666666666666</ele><time>2026-04-11T08:52:27.043Z</time></trkpt><trkpt lat="43.4863502" lon="11.3722957"><ele>515.0</ele><time>2026-04-11T08:52:28.043Z</time></trkpt><trkpt lat="43.4863605" lon="11.3724053"><ele>515.0</ele><time>2026-04-11T08:52:29.043Z</time></trkpt><trkpt lat="43.4863728" lon="11.372504"><ele>515.0</ele><time>2026-04-11T08:52:30.044Z</time></trkpt><trkpt lat="43.4863857" lon="11.3725919"><ele>515.0</ele><time>2026-04-11T08:52:31.044Z</time></trkpt><trkpt lat="43.4864031" lon="11.3727224"><ele>515.0</ele><time>2026-04-11T08:52:33.044Z</time></trkpt><trkpt lat="43.4864108" lon="11.3728596"><ele>515.0</ele><time>2026-04-11T08:52:35.044Z</time></trkpt><trkpt lat="43.4864041" lon="11.3730305"><ele>515.8</ele><time>2026-04-11T08:52:37.044Z</time></trkpt><trkpt lat="43.4864008" lon="11.3731208"><ele>516.6</ele><time>2026-04-11T08:52:38.044Z</time></trkpt><trkpt lat="43.4863845" lon="11.3732613"><ele>517.4</ele><time>2026-04-11T08:52:40.043Z</time></trkpt><trkpt lat="43.4863572" lon="11.3733837"><ele>518.2</ele><time>2026-04-11T08:52:42.043Z</time></trkpt><trkpt lat="43.4862982" lon="11.3735616"><ele>519.0</ele><time>2026-04-11T08:52:44.043Z</time></trkpt><trkpt lat="43.48626" lon="11.3736772"><ele>519.0</ele><time>2026-04-11T08:52:45.044Z</time></trkpt><trkpt lat="43.4862216" lon="11.3737975"><ele>519.0</ele><time>2026-04-11T08:52:46.044Z</time></trkpt><trkpt lat="43.4861947" lon="11.3739072"><ele>519.0</ele><time>2026-04-11T08:52:47.044Z</time></trkpt><trkpt lat="43.486173" lon="11.3740107"><ele>519.0</ele><time>2026-04-11T08:52:48.043Z</time></trkpt><trkpt lat="43.4861568" lon="11.3741168"><ele>519.0</ele><time>2026-04-11T08:52:49.043Z</time></trkpt><trkpt lat="43.4861354" lon="11.3742153"><ele>519.0</ele><time>2026-04-11T08:52:50.043Z</time></trkpt><trkpt lat="43.4861182" lon="11.3743001"><ele>518.75</ele><time>2026-04-11T08:52:51.043Z</time></trkpt><trkpt lat="43.4861067" lon="11.3744596"><ele>518.5</ele><time>2026-04-11T08:52:53.044Z</time></trkpt><trkpt lat="43.4861367" lon="11.3746254"><ele>518.25</ele><time>2026-04-11T08:52:55.044Z</time></trkpt><trkpt lat="43.4862033" lon="11.3747519"><ele>518.0</ele><time>2026-04-11T08:52:57.045Z</time></trkpt><trkpt lat="43.4862824" lon="11.3748615"><ele>520.3333333333333</ele><time>2026-04-11T08:52:59.044Z</time></trkpt><trkpt lat="43.4863281" lon="11.3749305"><ele>522.6666666666666</ele><time>2026-04-11T08:53:00.045Z</time></trkpt><trkpt lat="43.4863789" lon="11.3750145"><ele>525.0</ele><time>2026-04-11T08:53:01.044Z</time></trkpt><trkpt lat="43.4864333" lon="11.3751025"><ele>527.3333333333334</ele><time>2026-04-11T08:53:02.044Z</time></trkpt><trkpt lat="43.4864946" lon="11.3751956"><ele>529.6666666666667</ele><time>2026-04-11T08:53:03.044Z</time></trkpt><trkpt lat="43.4865587" lon="11.3752975"><ele>532.0</ele><time>2026-04-11T08:53:04.045Z</time></trkpt><trkpt lat="43.4866224" lon="11.3753953"><ele>532.0</ele><time>2026-04-11T08:53:05.044Z</time></trkpt><trkpt lat="43.4866876" lon="11.3754932"><ele>532.0</ele><time>2026-04-11T08:53:06.045Z</time></trkpt><trkpt lat="43.4867468" lon="11.3755798"><ele>532.0</ele><time>2026-04-11T08:53:07.045Z</time></trkpt><trkpt lat="43.4867971" lon="11.3756577"><ele>532.0</ele><time>2026-04-11T08:53:08.045Z</time></trkpt><trkpt lat="43.4868459" lon="11.3757362"><ele>532.0</ele><time>2026-04-11T08:53:09.044Z</time></trkpt><trkpt lat="43.4868878" lon="11.3758047"><ele>532.0</ele><time>2026-04-11T08:53:10.044Z</time></trkpt><trkpt lat="43.4869329" lon="11.3759307"><ele>530.3333333333334</ele><time>2026-04-11T08:53:12.044Z</time></trkpt><trkpt lat="43.4869274" lon="11.3760617"><ele>528.6666666666667</ele><time>2026-04-11T08:53:14.045Z</time></trkpt><trkpt lat="43.4869227" lon="11.3761591"><ele>527.0</ele><time>2026-04-11T08:53:15.045Z</time></trkpt><trkpt lat="43.4869182" lon="11.3762934"><ele>525.3333333333334</ele><time>2026-04-11T08:53:16.044Z</time></trkpt><trkpt lat="43.4869072" lon="11.3764216"><ele>523.6666666666666</ele><time>2026-04-11T08:53:17.044Z</time></trkpt><trkpt lat="43.4868947" lon="11.376542"><ele>522.0</ele><time>2026-04-11T08:53:18.045Z</time></trkpt><trkpt lat="43.4868841" lon="11.3766615"><ele>520.8333333333334</ele><time>2026-04-11T08:53:19.044Z</time></trkpt><trkpt lat="43.4868733" lon="11.3767672"><ele>519.6666666666666</ele><time>2026-04-11T08:53:20.044Z</time></trkpt><trkpt lat="43.4868656" lon="11.3768762"><ele>518.5</ele><time>2026-04-11T08:53:21.044Z</time></trkpt><trkpt lat="43.4868599" lon="11.3769927"><ele>517.3333333333333</ele><time>2026-04-11T08:53:22.044Z</time></trkpt><trkpt lat="43.486854" lon="11.3771129"><ele>516.1666666666666</ele><time>2026-04-11T08:53:23.044Z</time></trkpt><trkpt lat="43.4868473" lon="11.377234"><ele>515.0</ele><time>2026-04-11T08:53:24.044Z</time></trkpt><trkpt lat="43.4868429" lon="11.3773452"><ele>515.0</ele><time>2026-04-11T08:53:25.045Z</time></trkpt><trkpt lat="43.4868352" lon="11.3774624"><ele>515.0</ele><time>2026-04-11T08:53:26.044Z</time></trkpt><trkpt lat="43.4868283" lon="11.3775877"><ele>515.0</ele><time>2026-04-11T08:53:27.045Z</time></trkpt><trkpt lat="43.4868219" lon="11.37771"><ele>515.0</ele><time>2026-04-11T08:53:28.044Z</time></trkpt><trkpt lat="43.4868204" lon="11.3778326"><ele>515.0</ele><time>2026-04-11T08:53:29.045Z</time></trkpt><trkpt lat="43.4868253" lon="11.3779597"><ele>515.0</ele><time>2026-04-11T08:53:30.045Z</time></trkpt><trkpt lat="43.4868417" lon="11.3780969"><ele>514.0</ele><time>2026-04-11T08:53:31.044Z</time></trkpt><trkpt lat="43.4868689" lon="11.3782308"><ele>513.0</ele><time>2026-04-11T08:53:32.044Z</time></trkpt><trkpt lat="43.4869053" lon="11.3783687"><ele>512.0</ele><time>2026-04-11T08:53:33.045Z</time></trkpt><trkpt lat="43.4869538" lon="11.3785014"><ele>511.0</ele><time>2026-04-11T08:53:34.045Z</time></trkpt><trkpt lat="43.4870108" lon="11.3786341"><ele>510.0</ele><time>2026-04-11T08:53:35.044Z</time></trkpt><trkpt lat="43.4870717" lon="11.3787591"><ele>509.2</ele><time>2026-04-11T08:53:36.045Z</time></trkpt><trkpt lat="43.4871395" lon="11.3788746"><ele>508.4</ele><time>2026-04-11T08:53:37.044Z</time></trkpt><trkpt lat="43.4872098" lon="11.3789877"><ele>507.6</ele><time>2026-04-11T08:53:38.044Z</time></trkpt><trkpt lat="43.4872806" lon="11.3791011"><ele>506.8</ele><time>2026-04-11T08:53:39.044Z</time></trkpt><trkpt lat="43.4873498" lon="11.3792278"><ele>506.0</ele><time>2026-04-11T08:53:40.045Z</time></trkpt><trkpt lat="43.4874228" lon="11.3793569"><ele>506.0</ele><time>2026-04-11T08:53:41.044Z</time></trkpt><trkpt lat="43.4874987" lon="11.3794663"><ele>506.0</ele><time>2026-04-11T08:53:42.045Z</time></trkpt><trkpt lat="43.4875789" lon="11.3795604"><ele>506.0</ele><time>2026-04-11T08:53:43.044Z</time></trkpt><trkpt lat="43.4876551" lon="11.3796437"><ele>506.0</ele><time>2026-04-11T08:53:44.044Z</time></trkpt><trkpt lat="43.4877378" lon="11.379723"><ele>506.0</ele><time>2026-04-11T08:53:45.045Z</time></trkpt><trkpt lat="43.4878149" lon="11.3798109"><ele>505.25</ele><time>2026-04-11T08:53:46.045Z</time></trkpt><trkpt lat="43.4878729" lon="11.3799359"><ele>504.5</ele><time>2026-04-11T08:53:47.045Z</time></trkpt><trkpt lat="43.4879105" lon="11.3800824"><ele>503.75</ele><time>2026-04-11T08:53:48.044Z</time></trkpt><trkpt lat="43.4879295" lon="11.3802411"><ele>503.0</ele><time>2026-04-11T08:53:49.045Z</time></trkpt><trkpt lat="43.4879211" lon="11.3804226"><ele>502.5</ele><time>2026-04-11T08:53:50.045Z</time></trkpt><trkpt lat="43.4879198" lon="11.3806143"><ele>502.0</ele><time>2026-04-11T08:53:51.045Z</time></trkpt><trkpt lat="43.4879368" lon="11.3808047"><ele>501.5</ele><time>2026-04-11T08:53:52.045Z</time></trkpt><trkpt lat="43.487965" lon="11.380994"><ele>501.0</ele><time>2026-04-11T08:53:53.045Z</time></trkpt><trkpt lat="43.4880003" lon="11.3811817"><ele>497.25</ele><time>2026-04-11T08:53:54.044Z</time></trkpt><trkpt lat="43.48804" lon="11.381358"><ele>493.5</ele><time>2026-04-11T08:53:55.046Z</time></trkpt><trkpt lat="43.4880867" lon="11.3815182"><ele>489.75</ele><time>2026-04-11T08:53:56.045Z</time></trkpt><trkpt lat="43.4881356" lon="11.381668"><ele>486.0</ele><time>2026-04-11T08:53:57.046Z</time></trkpt><trkpt lat="43.4881865" lon="11.3818066"><ele>486.0</ele><time>2026-04-11T08:53:58.046Z</time></trkpt><trkpt lat="43.4882409" lon="11.3819496"><ele>486.0</ele><time>2026-04-11T08:53:59.046Z</time></trkpt><trkpt lat="43.4882982" lon="11.3821011"><ele>486.0</ele><time>2026-04-11T08:54:00.046Z</time></trkpt><trkpt lat="43.4883705" lon="11.3822591"><ele>486.0</ele><time>2026-04-11T08:54:01.046Z</time></trkpt><trkpt lat="43.4884605" lon="11.3824242"><ele>484.5</ele><time>2026-04-11T08:54:02.046Z</time></trkpt><trkpt lat="43.4885603" lon="11.3825761"><ele>483.0</ele><time>2026-04-11T08:54:03.045Z</time></trkpt><trkpt lat="43.4886676" lon="11.3827042"><ele>481.5</ele><time>2026-04-11T08:54:04.045Z</time></trkpt><trkpt lat="43.4887783" lon="11.3828109"><ele>480.0</ele><time>2026-04-11T08:54:05.045Z</time></trkpt><trkpt lat="43.488891" lon="11.3829025"><ele>479.5</ele><time>2026-04-11T08:54:06.046Z</time></trkpt><trkpt lat="43.4890038" lon="11.3829924"><ele>479.0</ele><time>2026-04-11T08:54:07.046Z</time></trkpt><trkpt lat="43.4891191" lon="11.3830889"><ele>478.5</ele><time>2026-04-11T08:54:08.046Z</time></trkpt><trkpt lat="43.4892346" lon="11.3831974"><ele>478.0</ele><time>2026-04-11T08:54:09.046Z</time></trkpt><trkpt lat="43.4893529" lon="11.3833187"><ele>476.0</ele><time>2026-04-11T08:54:10.045Z</time></trkpt><trkpt lat="43.4894705" lon="11.3834476"><ele>474.0</ele><time>2026-04-11T08:54:11.046Z</time></trkpt><trkpt lat="43.489586" lon="11.3835704"><ele>472.0</ele><time>2026-04-11T08:54:12.046Z</time></trkpt><trkpt lat="43.4896966" lon="11.3836888"><ele>470.0</ele><time>2026-04-11T08:54:13.046Z</time></trkpt><trkpt lat="43.489803" lon="11.3838051"><ele>468.25</ele><time>2026-04-11T08:54:14.046Z</time></trkpt><trkpt lat="43.4899047" lon="11.3839231"><ele>466.5</ele><time>2026-04-11T08:54:15.045Z</time></trkpt><trkpt lat="43.4899908" lon="11.3840584"><ele>464.75</ele><time>2026-04-11T08:54:16.046Z</time></trkpt><trkpt lat="43.4900503" lon="11.3842042"><ele>463.0</ele><time>2026-04-11T08:54:17.045Z</time></trkpt><trkpt lat="43.4900782" lon="11.384364"><ele>463.0</ele><time>2026-04-11T08:54:18.046Z</time></trkpt><trkpt lat="43.4900861" lon="11.3845517"><ele>463.0</ele><time>2026-04-11T08:54:19.045Z</time></trkpt><trkpt lat="43.4901047" lon="11.3847328"><ele>463.0</ele><time>2026-04-11T08:54:20.045Z</time></trkpt><trkpt lat="43.4901416" lon="11.3848821"><ele>463.0</ele><time>2026-04-11T08:54:21.046Z</time></trkpt><trkpt lat="43.4902002" lon="11.3850135"><ele>462.2</ele><time>2026-04-11T08:54:22.046Z</time></trkpt><trkpt lat="43.4902675" lon="11.385126"><ele>461.4</ele><time>2026-04-11T08:54:23.046Z</time></trkpt><trkpt lat="43.4903156" lon="11.3852391"><ele>460.59999999999997</ele><time>2026-04-11T08:54:24.045Z</time></trkpt><trkpt lat="43.4903368" lon="11.385367"><ele>459.79999999999995</ele><time>2026-04-11T08:54:25.046Z</time></trkpt><trkpt lat="43.4903278" lon="11.3855236"><ele>459.0</ele><time>2026-04-11T08:54:26.046Z</time></trkpt><trkpt lat="43.4903224" lon="11.3857015"><ele>459.0</ele><time>2026-04-11T08:54:27.045Z</time></trkpt><trkpt lat="43.4903156" lon="11.3858754"><ele>459.0</ele><time>2026-04-11T08:54:28.045Z</time></trkpt><trkpt lat="43.4902964" lon="11.3860317"><ele>459.0</ele><time>2026-04-11T08:54:29.046Z</time></trkpt><trkpt lat="43.4902452" lon="11.3861713"><ele>459.0</ele><time>2026-04-11T08:54:30.045Z</time></trkpt><trkpt lat="43.4901489" lon="11.3862729"><ele>459.0</ele><time>2026-04-11T08:54:31.045Z</time></trkpt><trkpt lat="43.4900388" lon="11.3863474"><ele>459.0</ele><time>2026-04-11T08:54:32.046Z</time></trkpt><trkpt lat="43.4899471" lon="11.3863877"><ele>459.0</ele><time>2026-04-11T08:54:33.045Z</time></trkpt><trkpt lat="43.4898743" lon="11.3863437"><ele>459.0</ele><time>2026-04-11T08:54:34.046Z</time></trkpt><trkpt lat="43.4897757" lon="11.3862447"><ele>459.0</ele><time>2026-04-11T08:54:36.045Z</time></trkpt><trkpt lat="43.4897091" lon="11.3861872"><ele>459.0</ele><time>2026-04-11T08:54:37.045Z</time></trkpt><trkpt lat="43.4896287" lon="11.3862302"><ele>459.0</ele><time>2026-04-11T08:54:39.045Z</time></trkpt><trkpt lat="43.4896069" lon="11.3864566"><ele>459.0</ele><time>2026-04-11T08:54:41.046Z</time></trkpt><trkpt lat="43.4896057" lon="11.3866256"><ele>459.0</ele><time>2026-04-11T08:54:42.045Z</time></trkpt><trkpt lat="43.4895852" lon="11.3868056"><ele>456.25</ele><time>2026-04-11T08:54:43.045Z</time></trkpt><trkpt lat="43.4895537" lon="11.3869931"><ele>453.5</ele><time>2026-04-11T08:54:44.045Z</time></trkpt><trkpt lat="43.4895264" lon="11.3871895"><ele>450.75</ele><time>2026-04-11T08:54:45.045Z</time></trkpt><trkpt lat="43.4895058" lon="11.3873851"><ele>448.0</ele><time>2026-04-11T08:54:46.046Z</time></trkpt><trkpt lat="43.4894879" lon="11.3875767"><ele>448.0</ele><time>2026-04-11T08:54:47.046Z</time></trkpt><trkpt lat="43.4894695" lon="11.3877589"><ele>448.0</ele><time>2026-04-11T08:54:48.046Z</time></trkpt><trkpt lat="43.4894514" lon="11.3879262"><ele>448.0</ele><time>2026-04-11T08:54:49.045Z</time></trkpt><trkpt lat="43.4894344" lon="11.3880759"><ele>448.0</ele><time>2026-04-11T08:54:50.045Z</time></trkpt><trkpt lat="43.4894162" lon="11.3882262"><ele>448.75</ele><time>2026-04-11T08:54:51.045Z</time></trkpt><trkpt lat="43.489401" lon="11.3883807"><ele>449.5</ele><time>2026-04-11T08:54:52.046Z</time></trkpt><trkpt lat="43.4893872" lon="11.3885483"><ele>450.25</ele><time>2026-04-11T08:54:53.045Z</time></trkpt><trkpt lat="43.4893676" lon="11.3887221"><ele>451.0</ele><time>2026-04-11T08:54:54.046Z</time></trkpt><trkpt lat="43.489334" lon="11.3888799"><ele>451.8</ele><time>2026-04-11T08:54:55.046Z</time></trkpt><trkpt lat="43.4892964" lon="11.3890095"><ele>452.6</ele><time>2026-04-11T08:54:56.046Z</time></trkpt><trkpt lat="43.4892532" lon="11.3891417"><ele>453.4</ele><time>2026-04-11T08:54:57.045Z</time></trkpt><trkpt lat="43.4892352" lon="11.389272"><ele>454.2</ele><time>2026-04-11T08:54:58.046Z</time></trkpt><trkpt lat="43.4892416" lon="11.3894061"><ele>455.0</ele><time>2026-04-11T08:54:59.046Z</time></trkpt><trkpt lat="43.4892704" lon="11.3895288"><ele>454.3333333333333</ele><time>2026-04-11T08:55:00.046Z</time></trkpt><trkpt lat="43.4893888" lon="11.3898076"><ele>453.66666666666663</ele><time>2026-04-11T08:55:02.046Z</time></trkpt><trkpt lat="43.4894405" lon="11.3899446"><ele>453.0</ele><time>2026-04-11T08:55:03.047Z</time></trkpt><trkpt lat="43.4894908" lon="11.390073"><ele>453.0</ele><time>2026-04-11T08:55:04.046Z</time></trkpt><trkpt lat="43.4895408" lon="11.3901983"><ele>452.99999999999994</ele><time>2026-04-11T08:55:05.046Z</time></trkpt><trkpt lat="43.4895917" lon="11.3903271"><ele>452.99999999999994</ele><time>2026-04-11T08:55:06.047Z</time></trkpt><trkpt lat="43.4896432" lon="11.3904641"><ele>453.0</ele><time>2026-04-11T08:55:07.047Z</time></trkpt><trkpt lat="43.4897042" lon="11.3905986"><ele>453.0</ele><time>2026-04-11T08:55:08.047Z</time></trkpt><trkpt lat="43.4897748" lon="11.3907334"><ele>454.5</ele><time>2026-04-11T08:55:09.046Z</time></trkpt><trkpt lat="43.4898584" lon="11.3908587"><ele>456.0</ele><time>2026-04-11T08:55:10.047Z</time></trkpt><trkpt lat="43.4899488" lon="11.390975"><ele>457.5</ele><time>2026-04-11T08:55:11.047Z</time></trkpt><trkpt lat="43.4900388" lon="11.3910917"><ele>459.0</ele><time>2026-04-11T08:55:12.047Z</time></trkpt><trkpt lat="43.4901298" lon="11.3912123"><ele>458.25</ele><time>2026-04-11T08:55:13.046Z</time></trkpt><trkpt lat="43.4902085" lon="11.3913532"><ele>457.5</ele><time>2026-04-11T08:55:14.046Z</time></trkpt><trkpt lat="43.4902544" lon="11.3915209"><ele>456.75</ele><time>2026-04-11T08:55:15.047Z</time></trkpt><trkpt lat="43.4902471" lon="11.3917134"><ele>456.0</ele><time>2026-04-11T08:55:16.047Z</time></trkpt><trkpt lat="43.4902149" lon="11.3919248"><ele>456.0</ele><time>2026-04-11T08:55:17.046Z</time></trkpt><trkpt lat="43.490189" lon="11.3921341"><ele>456.0</ele><time>2026-04-11T08:55:18.047Z</time></trkpt><trkpt lat="43.4901826" lon="11.3923411"><ele>456.0</ele><time>2026-04-11T08:55:19.046Z</time></trkpt><trkpt lat="43.4901981" lon="11.3925425"><ele>456.33333333333337</ele><time>2026-04-11T08:55:20.046Z</time></trkpt><trkpt lat="43.490233" lon="11.3927317"><ele>456.6666666666667</ele><time>2026-04-11T08:55:21.046Z</time></trkpt><trkpt lat="43.4902808" lon="11.3929148"><ele>457.0</ele><time>2026-04-11T08:55:22.047Z</time></trkpt><trkpt lat="43.4903775" lon="11.3932854"><ele>457.75</ele><time>2026-04-11T08:55:24.046Z</time></trkpt><trkpt lat="43.4903803" lon="11.3934744"><ele>458.5</ele><time>2026-04-11T08:55:25.046Z</time></trkpt><trkpt lat="43.4903515" lon="11.3936628"><ele>459.25</ele><time>2026-04-11T08:55:26.047Z</time></trkpt><trkpt lat="43.4902899" lon="11.3938422"><ele>460.0</ele><time>2026-04-11T08:55:27.046Z</time></trkpt><trkpt lat="43.4902098" lon="11.3940258"><ele>461.33333333333337</ele><time>2026-04-11T08:55:28.046Z</time></trkpt><trkpt lat="43.4901436" lon="11.3942118"><ele>462.66666666666663</ele><time>2026-04-11T08:55:29.046Z</time></trkpt><trkpt lat="43.4901007" lon="11.3944147"><ele>464.0</ele><time>2026-04-11T08:55:30.047Z</time></trkpt><trkpt lat="43.4900839" lon="11.3946288"><ele>465.66666666666663</ele><time>2026-04-11T08:55:31.046Z</time></trkpt><trkpt lat="43.4900881" lon="11.3948495"><ele>467.33333333333337</ele><time>2026-04-11T08:55:32.047Z</time></trkpt><trkpt lat="43.4901012" lon="11.3950742"><ele>469.0</ele><time>2026-04-11T08:55:33.047Z</time></trkpt><trkpt lat="43.4901143" lon="11.395297"><ele>470.33333333333337</ele><time>2026-04-11T08:55:34.046Z</time></trkpt><trkpt lat="43.490119" lon="11.3955237"><ele>471.66666666666663</ele><time>2026-04-11T08:55:35.046Z</time></trkpt><trkpt lat="43.4901134" lon="11.3957524"><ele>473.0</ele><time>2026-04-11T08:55:36.046Z</time></trkpt><trkpt lat="43.4900912" lon="11.395981"><ele>473.0</ele><time>2026-04-11T08:55:37.046Z</time></trkpt><trkpt lat="43.4900564" lon="11.3961963"><ele>473.0</ele><time>2026-04-11T08:55:38.047Z</time></trkpt><trkpt lat="43.4900164" lon="11.3963781"><ele>473.0</ele><time>2026-04-11T08:55:39.047Z</time></trkpt><trkpt lat="43.4899612" lon="11.3965207"><ele>473.0</ele><time>2026-04-11T08:55:40.047Z</time></trkpt><trkpt lat="43.489893" lon="11.3966318"><ele>473.0</ele><time>2026-04-11T08:55:41.047Z</time></trkpt><trkpt lat="43.4898016" lon="11.396731"><ele>473.0</ele><time>2026-04-11T08:55:42.047Z</time></trkpt><trkpt lat="43.4896907" lon="11.3968375"><ele>473.0</ele><time>2026-04-11T08:55:43.047Z</time></trkpt><trkpt lat="43.4895795" lon="11.3969907"><ele>473.0</ele><time>2026-04-11T08:55:44.047Z</time></trkpt><trkpt lat="43.489482" lon="11.3971879"><ele>478.66666666666663</ele><time>2026-04-11T08:55:45.047Z</time></trkpt><trkpt lat="43.4893807" lon="11.3974184"><ele>484.33333333333337</ele><time>2026-04-11T08:55:46.046Z</time></trkpt><trkpt lat="43.4892771" lon="11.3976462"><ele>490.0</ele><time>2026-04-11T08:55:47.046Z</time></trkpt><trkpt lat="43.4891759" lon="11.397855"><ele>488.0</ele><time>2026-04-11T08:55:48.046Z</time></trkpt><trkpt lat="43.4890756" lon="11.3980572"><ele>486.0</ele><time>2026-04-11T08:55:49.046Z</time></trkpt><trkpt lat="43.4889792" lon="11.3982552"><ele>484.0</ele><time>2026-04-11T08:55:50.047Z</time></trkpt><trkpt lat="43.4888872" lon="11.3984556"><ele>484.0</ele><time>2026-04-11T08:55:51.047Z</time></trkpt><trkpt lat="43.4887962" lon="11.3986573"><ele>484.0</ele><time>2026-04-11T08:55:52.047Z</time></trkpt><trkpt lat="43.4887054" lon="11.3988541"><ele>484.0</ele><time>2026-04-11T08:55:53.046Z</time></trkpt><trkpt lat="43.4886143" lon="11.3990468"><ele>488.0</ele><time>2026-04-11T08:55:54.047Z</time></trkpt><trkpt lat="43.4885277" lon="11.3992291"><ele>492.0</ele><time>2026-04-11T08:55:55.046Z</time></trkpt><trkpt lat="43.4884502" lon="11.3994014"><ele>496.0</ele><time>2026-04-11T08:55:56.047Z</time></trkpt><trkpt lat="43.4883801" lon="11.3995434"><ele>500.0</ele><time>2026-04-11T08:55:57.046Z</time></trkpt><trkpt lat="43.4883003" lon="11.3996483"><ele>500.25</ele><time>2026-04-11T08:55:58.046Z</time></trkpt><trkpt lat="43.4881967" lon="11.3997225"><ele>500.5</ele><time>2026-04-11T08:55:59.047Z</time></trkpt><trkpt lat="43.4880769" lon="11.3997672"><ele>500.75</ele><time>2026-04-11T08:56:00.046Z</time></trkpt><trkpt lat="43.4879447" lon="11.3997935"><ele>501.0</ele><time>2026-04-11T08:56:01.046Z</time></trkpt><trkpt lat="43.4878145" lon="11.3997771"><ele>501.0</ele><time>2026-04-11T08:56:02.046Z</time></trkpt><trkpt lat="43.4877" lon="11.3997525"><ele>501.0</ele><time>2026-04-11T08:56:03.046Z</time></trkpt><trkpt lat="43.4876237" lon="11.3997697"><ele>501.0</ele><time>2026-04-11T08:56:04.048Z</time></trkpt><trkpt lat="43.4875692" lon="11.3998237"><ele>501.0</ele><time>2026-04-11T08:56:05.047Z</time></trkpt><trkpt lat="43.4875335" lon="11.3999271"><ele>501.0</ele><time>2026-04-11T08:56:06.048Z</time></trkpt><trkpt lat="43.4875095" lon="11.4000638"><ele>501.0</ele><time>2026-04-11T08:56:07.048Z</time></trkpt><trkpt lat="43.4875085" lon="11.4002328"><ele>501.0</ele><time>2026-04-11T08:56:08.048Z</time></trkpt><trkpt lat="43.4875248" lon="11.4004474"><ele>501.0</ele><time>2026-04-11T08:56:09.048Z</time></trkpt><trkpt lat="43.4875332" lon="11.4006673"><ele>501.0</ele><time>2026-04-11T08:56:10.047Z</time></trkpt><trkpt lat="43.4875167" lon="11.4008539"><ele>501.8</ele><time>2026-04-11T08:56:11.047Z</time></trkpt><trkpt lat="43.4874828" lon="11.401009"><ele>502.6</ele><time>2026-04-11T08:56:12.047Z</time></trkpt><trkpt lat="43.4874504" lon="11.4011484"><ele>503.4</ele><time>2026-04-11T08:56:13.048Z</time></trkpt><trkpt lat="43.4874502" lon="11.4012654"><ele>504.2</ele><time>2026-04-11T08:56:14.047Z</time></trkpt><trkpt lat="43.4874878" lon="11.4013489"><ele>505.0</ele><time>2026-04-11T08:56:15.048Z</time></trkpt><trkpt lat="43.4875706" lon="11.4013652"><ele>505.0</ele><time>2026-04-11T08:56:16.047Z</time></trkpt><trkpt lat="43.4876489" lon="11.401321"><ele>505.0</ele><time>2026-04-11T08:56:17.047Z</time></trkpt><trkpt lat="43.4877178" lon="11.4012372"><ele>505.0</ele><time>2026-04-11T08:56:18.048Z</time></trkpt><trkpt lat="43.4878174" lon="11.4011234"><ele>505.0</ele><time>2026-04-11T08:56:19.047Z</time></trkpt><trkpt lat="43.4878911" lon="11.4009543"><ele>505.0</ele><time>2026-04-11T08:56:20.048Z</time></trkpt><trkpt lat="43.4880019" lon="11.4007985"><ele>507.0</ele><time>2026-04-11T08:56:21.047Z</time></trkpt><trkpt lat="43.4881174" lon="11.4007329"><ele>509.0</ele><time>2026-04-11T08:56:22.048Z</time></trkpt><trkpt lat="43.4882409" lon="11.4007323"><ele>511.0</ele><time>2026-04-11T08:56:23.048Z</time></trkpt><trkpt lat="43.4883823" lon="11.4007953"><ele>513.0</ele><time>2026-04-11T08:56:24.048Z</time></trkpt><trkpt lat="43.4885459" lon="11.4009152"><ele>513.0</ele><time>2026-04-11T08:56:25.048Z</time></trkpt><trkpt lat="43.4886849" lon="11.4010359"><ele>513.0</ele><time>2026-04-11T08:56:26.047Z</time></trkpt><trkpt lat="43.4887999" lon="11.4011426"><ele>513.0</ele><time>2026-04-11T08:56:27.048Z</time></trkpt><trkpt lat="43.4889017" lon="11.401247"><ele>513.0</ele><time>2026-04-11T08:56:28.047Z</time></trkpt><trkpt lat="43.4889751" lon="11.4013595"><ele>512.75</ele><time>2026-04-11T08:56:29.047Z</time></trkpt><trkpt lat="43.489018" lon="11.4014819"><ele>512.5</ele><time>2026-04-11T08:56:30.047Z</time></trkpt><trkpt lat="43.4890411" lon="11.4016268"><ele>512.25</ele><time>2026-04-11T08:56:31.048Z</time></trkpt><trkpt lat="43.4890018" lon="11.4018188"><ele>512.0</ele><time>2026-04-11T08:56:32.047Z</time></trkpt><trkpt lat="43.4889086" lon="11.4020414"><ele>512.3333333333333</ele><time>2026-04-11T08:56:33.047Z</time></trkpt><trkpt lat="43.4888424" lon="11.4022554"><ele>512.6666666666666</ele><time>2026-04-11T08:56:34.048Z</time></trkpt><trkpt lat="43.4888045" lon="11.4024897"><ele>513.0</ele><time>2026-04-11T08:56:35.048Z</time></trkpt><trkpt lat="43.4887876" lon="11.4027363"><ele>513.0</ele><time>2026-04-11T08:56:36.047Z</time></trkpt><trkpt lat="43.4887658" lon="11.4029731"><ele>513.0</ele><time>2026-04-11T08:56:37.048Z</time></trkpt><trkpt lat="43.4887494" lon="11.403194"><ele>513.0</ele><time>2026-04-11T08:56:38.047Z</time></trkpt><trkpt lat="43.4887436" lon="11.4034014"><ele>519.25</ele><time>2026-04-11T08:56:39.047Z</time></trkpt><trkpt lat="43.4887553" lon="11.403595"><ele>525.5</ele><time>2026-04-11T08:56:40.047Z</time></trkpt><trkpt lat="43.4887561" lon="11.4037923"><ele>531.75</ele><time>2026-04-11T08:56:41.048Z</time></trkpt><trkpt lat="43.4887262" lon="11.4039999"><ele>538.0</ele><time>2026-04-11T08:56:42.047Z</time></trkpt><trkpt lat="43.4886916" lon="11.4042141"><ele>538.3333333333334</ele><time>2026-04-11T08:56:43.048Z</time></trkpt><trkpt lat="43.4886768" lon="11.4044294"><ele>538.6666666666666</ele><time>2026-04-11T08:56:44.048Z</time></trkpt><trkpt lat="43.4886911" lon="11.4046303"><ele>539.0</ele><time>2026-04-11T08:56:45.048Z</time></trkpt><trkpt lat="43.4887447" lon="11.4048305"><ele>534.6666666666666</ele><time>2026-04-11T08:56:46.048Z</time></trkpt><trkpt lat="43.4888266" lon="11.4050286"><ele>530.3333333333334</ele><time>2026-04-11T08:56:47.047Z</time></trkpt><trkpt lat="43.4889037" lon="11.4052317"><ele>526.0</ele><time>2026-04-11T08:56:48.048Z</time></trkpt><trkpt lat="43.4889733" lon="11.4054396"><ele>528.6666666666667</ele><time>2026-04-11T08:56:49.048Z</time></trkpt><trkpt lat="43.4890233" lon="11.4056578"><ele>531.3333333333334</ele><time>2026-04-11T08:56:50.047Z</time></trkpt><trkpt lat="43.4890591" lon="11.4058834"><ele>534.0</ele><time>2026-04-11T08:56:51.048Z</time></trkpt><trkpt lat="43.4890991" lon="11.406107"><ele>534.0</ele><time>2026-04-11T08:56:52.047Z</time></trkpt><trkpt lat="43.4891517" lon="11.4063245"><ele>534.0</ele><time>2026-04-11T08:56:53.047Z</time></trkpt><trkpt lat="43.4892246" lon="11.4065344"><ele>534.0</ele><time>2026-04-11T08:56:54.048Z</time></trkpt><trkpt lat="43.4893288" lon="11.4067229"><ele>534.0</ele><time>2026-04-11T08:56:55.048Z</time></trkpt><trkpt lat="43.489453" lon="11.4069015"><ele>534.0</ele><time>2026-04-11T08:56:56.048Z</time></trkpt><trkpt lat="43.4895905" lon="11.4070754"><ele>534.0</ele><time>2026-04-11T08:56:57.048Z</time></trkpt><trkpt lat="43.4897268" lon="11.4072524"><ele>537.0</ele><time>2026-04-11T08:56:58.047Z</time></trkpt><trkpt lat="43.48989" lon="11.4076041"><ele>540.0</ele><time>2026-04-11T08:57:00.048Z</time></trkpt><trkpt lat="43.4899368" lon="11.4077988"><ele>540.6666666666666</ele><time>2026-04-11T08:57:01.047Z</time></trkpt><trkpt lat="43.4899689" lon="11.4080137"><ele>541.3333333333333</ele><time>2026-04-11T08:57:02.047Z</time></trkpt><trkpt lat="43.4899895" lon="11.4082441"><ele>542.0</ele><time>2026-04-11T08:57:03.047Z</time></trkpt><trkpt lat="43.490009" lon="11.4084817"><ele>542.0</ele><time>2026-04-11T08:57:04.048Z</time></trkpt><trkpt lat="43.49002" lon="11.4087301"><ele>542.0</ele><time>2026-04-11T08:57:05.048Z</time></trkpt><trkpt lat="43.4900262" lon="11.4089763"><ele>542.0</ele><time>2026-04-11T08:57:06.048Z</time></trkpt><trkpt lat="43.4900227" lon="11.4092197"><ele>543.3333333333333</ele><time>2026-04-11T08:57:07.048Z</time></trkpt><trkpt lat="43.4900107" lon="11.4094577"><ele>544.6666666666666</ele><time>2026-04-11T08:57:08.048Z</time></trkpt><trkpt lat="43.4899967" lon="11.4096819"><ele>546.0</ele><time>2026-04-11T08:57:09.048Z</time></trkpt><trkpt lat="43.4899831" lon="11.4098874"><ele>546.6666666666666</ele><time>2026-04-11T08:57:10.049Z</time></trkpt><trkpt lat="43.4899614" lon="11.4100808"><ele>547.3333333333333</ele><time>2026-04-11T08:57:11.048Z</time></trkpt><trkpt lat="43.4899171" lon="11.4102729"><ele>548.0</ele><time>2026-04-11T08:57:12.049Z</time></trkpt><trkpt lat="43.4898241" lon="11.4104733"><ele>548.3333333333333</ele><time>2026-04-11T08:57:13.049Z</time></trkpt><trkpt lat="43.4897039" lon="11.4106718"><ele>548.6666666666666</ele><time>2026-04-11T08:57:14.048Z</time></trkpt><trkpt lat="43.4895709" lon="11.4108433"><ele>549.0</ele><time>2026-04-11T08:57:15.048Z</time></trkpt><trkpt lat="43.4894523" lon="11.4110209"><ele>549.0</ele><time>2026-04-11T08:57:16.048Z</time></trkpt><trkpt lat="43.4893813" lon="11.4111839"><ele>549.0</ele><time>2026-04-11T08:57:17.049Z</time></trkpt><trkpt lat="43.4893563" lon="11.4113554"><ele>549.0</ele><time>2026-04-11T08:57:18.049Z</time></trkpt><trkpt lat="43.4893682" lon="11.4115185"><ele>549.0</ele><time>2026-04-11T08:57:19.048Z</time></trkpt><trkpt lat="43.4893909" lon="11.4116675"><ele>549.75</ele><time>2026-04-11T08:57:20.048Z</time></trkpt><trkpt lat="43.4894317" lon="11.4117997"><ele>550.5</ele><time>2026-04-11T08:57:21.049Z</time></trkpt><trkpt lat="43.4894931" lon="11.411943"><ele>551.25</ele><time>2026-04-11T08:57:22.049Z</time></trkpt><trkpt lat="43.4895744" lon="11.4120739"><ele>552.0</ele><time>2026-04-11T08:57:23.049Z</time></trkpt><trkpt lat="43.4896723" lon="11.4122034"><ele>554.0</ele><time>2026-04-11T08:57:24.048Z</time></trkpt><trkpt lat="43.4898027" lon="11.4123556"><ele>556.0</ele><time>2026-04-11T08:57:25.049Z</time></trkpt><trkpt lat="43.4899472" lon="11.4124967"><ele>558.0</ele><time>2026-04-11T08:57:26.049Z</time></trkpt><trkpt lat="43.4901035" lon="11.4126307"><ele>558.0</ele><time>2026-04-11T08:57:27.049Z</time></trkpt><trkpt lat="43.4902562" lon="11.4127817"><ele>558.0</ele><time>2026-04-11T08:57:28.048Z</time></trkpt><trkpt lat="43.4903983" lon="11.4129479"><ele>558.0</ele><time>2026-04-11T08:57:29.049Z</time></trkpt><trkpt lat="43.4905148" lon="11.4131226"><ele>556.75</ele><time>2026-04-11T08:57:30.048Z</time></trkpt><trkpt lat="43.4905986" lon="11.4132774"><ele>555.5</ele><time>2026-04-11T08:57:31.048Z</time></trkpt><trkpt lat="43.4906454" lon="11.4134335"><ele>554.25</ele><time>2026-04-11T08:57:32.049Z</time></trkpt><trkpt lat="43.4906694" lon="11.4136158"><ele>553.0</ele><time>2026-04-11T08:57:33.048Z</time></trkpt><trkpt lat="43.4906446" lon="11.4138366"><ele>553.0</ele><time>2026-04-11T08:57:34.048Z</time></trkpt><trkpt lat="43.4905946" lon="11.4140755"><ele>553.0</ele><time>2026-04-11T08:57:35.048Z</time></trkpt><trkpt lat="43.4905441" lon="11.4143118"><ele>553.0</ele><time>2026-04-11T08:57:36.048Z</time></trkpt><trkpt lat="43.4904952" lon="11.4145468"><ele>553.3333333333334</ele><time>2026-04-11T08:57:37.049Z</time></trkpt><trkpt lat="43.4904526" lon="11.4147906"><ele>553.6666666666666</ele><time>2026-04-11T08:57:38.049Z</time></trkpt><trkpt lat="43.490408" lon="11.4150462"><ele>554.0</ele><time>2026-04-11T08:57:39.048Z</time></trkpt><trkpt lat="43.4903578" lon="11.4153061"><ele>554.6666666666666</ele><time>2026-04-11T08:57:40.048Z</time></trkpt><trkpt lat="43.4902995" lon="11.4155719"><ele>555.3333333333334</ele><time>2026-04-11T08:57:41.049Z</time></trkpt><trkpt lat="43.490236" lon="11.4158406"><ele>556.0</ele><time>2026-04-11T08:57:42.048Z</time></trkpt><trkpt lat="43.4901695" lon="11.4161014"><ele>558.0</ele><time>2026-04-11T08:57:43.048Z</time></trkpt><trkpt lat="43.4901075" lon="11.4163464"><ele>560.0</ele><time>2026-04-11T08:57:44.049Z</time></trkpt><trkpt lat="43.4900595" lon="11.4165767"><ele>562.0</ele><time>2026-04-11T08:57:45.049Z</time></trkpt><trkpt lat="43.4900304" lon="11.4168058"><ele>562.0</ele><time>2026-04-11T08:57:46.048Z</time></trkpt><trkpt lat="43.4900405" lon="11.4170192"><ele>562.0</ele><time>2026-04-11T08:57:47.049Z</time></trkpt><trkpt lat="43.4900793" lon="11.417225"><ele>562.0</ele><time>2026-04-11T08:57:48.049Z</time></trkpt><trkpt lat="43.4901404" lon="11.41744"><ele>563.0</ele><time>2026-04-11T08:57:49.048Z</time></trkpt><trkpt lat="43.4902025" lon="11.4176465"><ele>564.0</ele><time>2026-04-11T08:57:50.048Z</time></trkpt><trkpt lat="43.4902714" lon="11.4178217"><ele>565.0</ele><time>2026-04-11T08:57:51.049Z</time></trkpt><trkpt lat="43.4903513" lon="11.4179604"><ele>566.0</ele><time>2026-04-11T08:57:52.048Z</time></trkpt><trkpt lat="43.4904455" lon="11.4180627"><ele>566.5</ele><time>2026-04-11T08:57:53.049Z</time></trkpt><trkpt lat="43.4905794" lon="11.4181429"><ele>567.0</ele><time>2026-04-11T08:57:54.049Z</time></trkpt><trkpt lat="43.4907257" lon="11.4181922"><ele>567.5</ele><time>2026-04-11T08:57:55.049Z</time></trkpt><trkpt lat="43.4908511" lon="11.4182551"><ele>568.0</ele><time>2026-04-11T08:57:56.049Z</time></trkpt><trkpt lat="43.4909499" lon="11.4183526"><ele>568.0</ele><time>2026-04-11T08:57:57.049Z</time></trkpt><trkpt lat="43.4910124" lon="11.4184875"><ele>568.0</ele><time>2026-04-11T08:57:58.049Z</time></trkpt><trkpt lat="43.4910152" lon="11.4186619"><ele>568.0</ele><time>2026-04-11T08:57:59.048Z</time></trkpt><trkpt lat="43.4909842" lon="11.4188655"><ele>568.0</ele><time>2026-04-11T08:58:00.048Z</time></trkpt><trkpt lat="43.4909777" lon="11.4190815"><ele>566.3333333333334</ele><time>2026-04-11T08:58:01.048Z</time></trkpt><trkpt lat="43.491004" lon="11.4193143"><ele>564.6666666666666</ele><time>2026-04-11T08:58:02.048Z</time></trkpt><trkpt lat="43.4910549" lon="11.4195538"><ele>563.0</ele><time>2026-04-11T08:58:03.049Z</time></trkpt><trkpt lat="43.4911279" lon="11.4198036"><ele>561.0</ele><time>2026-04-11T08:58:04.048Z</time></trkpt><trkpt lat="43.491176" lon="11.4200261"><ele>559.0</ele><time>2026-04-11T08:58:05.049Z</time></trkpt><trkpt lat="43.491205" lon="11.4202456"><ele>557.0</ele><time>2026-04-11T08:58:06.048Z</time></trkpt><trkpt lat="43.4912356" lon="11.4204687"><ele>557.75</ele><time>2026-04-11T08:58:07.049Z</time></trkpt><trkpt lat="43.491264" lon="11.4206675"><ele>558.5</ele><time>2026-04-11T08:58:08.049Z</time></trkpt><trkpt lat="43.4912885" lon="11.4208434"><ele>559.25</ele><time>2026-04-11T08:58:09.049Z</time></trkpt><trkpt lat="43.4913094" lon="11.42099"><ele>560.0</ele><time>2026-04-11T08:58:10.049Z</time></trkpt><trkpt lat="43.4913201" lon="11.421103"><ele>560.0</ele><time>2026-04-11T08:58:11.049Z</time></trkpt><trkpt lat="43.4912644" lon="11.4212466"><ele>560.0</ele><time>2026-04-11T08:58:13.05Z</time></trkpt><trkpt lat="43.4911985" lon="11.4212528"><ele>560.0</ele><time>2026-04-11T08:58:14.05Z</time></trkpt><trkpt lat="43.4911129" lon="11.4212329"><ele>560.0</ele><time>2026-04-11T08:58:15.05Z</time></trkpt><trkpt lat="43.4910359" lon="11.4212257"><ele>560.0</ele><time>2026-04-11T08:58:16.049Z</time></trkpt><trkpt lat="43.4909552" lon="11.4212264"><ele>560.0</ele><time>2026-04-11T08:58:17.05Z</time></trkpt><trkpt lat="43.4908745" lon="11.4212419"><ele>560.0</ele><time>2026-04-11T08:58:18.05Z</time></trkpt><trkpt lat="43.4907847" lon="11.4212693"><ele>560.0</ele><time>2026-04-11T08:58:19.049Z</time></trkpt><trkpt lat="43.490682" lon="11.421303"><ele>560.0</ele><time>2026-04-11T08:58:20.049Z</time></trkpt><trkpt lat="43.4905634" lon="11.421333"><ele>560.0</ele><time>2026-04-11T08:58:21.05Z</time></trkpt><trkpt lat="43.4904465" lon="11.4213653"><ele>560.0</ele><time>2026-04-11T08:58:22.049Z</time></trkpt><trkpt lat="43.4903371" lon="11.4213971"><ele>561.6</ele><time>2026-04-11T08:58:23.049Z</time></trkpt><trkpt lat="43.4902381" lon="11.4214254"><ele>563.2</ele><time>2026-04-11T08:58:24.05Z</time></trkpt><trkpt lat="43.4901358" lon="11.4214624"><ele>564.8</ele><time>2026-04-11T08:58:25.049Z</time></trkpt><trkpt lat="43.4900255" lon="11.4214993"><ele>566.4</ele><time>2026-04-11T08:58:26.05Z</time></trkpt><trkpt lat="43.489912" lon="11.4215332"><ele>568.0</ele><time>2026-04-11T08:58:27.049Z</time></trkpt><trkpt lat="43.4898003" lon="11.4215754"><ele>568.0</ele><time>2026-04-11T08:58:28.049Z</time></trkpt><trkpt lat="43.4896797" lon="11.4216375"><ele>568.0</ele><time>2026-04-11T08:58:29.049Z</time></trkpt><trkpt lat="43.4895568" lon="11.4217033"><ele>568.0</ele><time>2026-04-11T08:58:30.05Z</time></trkpt><trkpt lat="43.4894236" lon="11.4217827"><ele>568.0</ele><time>2026-04-11T08:58:31.05Z</time></trkpt><trkpt lat="43.4893045" lon="11.4218638"><ele>564.8</ele><time>2026-04-11T08:58:32.05Z</time></trkpt><trkpt lat="43.4892019" lon="11.4219164"><ele>561.5999999999999</ele><time>2026-04-11T08:58:33.05Z</time></trkpt><trkpt lat="43.4891136" lon="11.4219289"><ele>558.4000000000001</ele><time>2026-04-11T08:58:34.05Z</time></trkpt><trkpt lat="43.4890167" lon="11.4219103"><ele>555.2</ele><time>2026-04-11T08:58:35.049Z</time></trkpt><trkpt lat="43.4889199" lon="11.4218904"><ele>552.0</ele><time>2026-04-11T08:58:36.05Z</time></trkpt><trkpt lat="43.488827" lon="11.421899"><ele>553.2</ele><time>2026-04-11T08:58:37.049Z</time></trkpt><trkpt lat="43.4887386" lon="11.4219369"><ele>554.4000000000001</ele><time>2026-04-11T08:58:38.049Z</time></trkpt><trkpt lat="43.488654" lon="11.4219836"><ele>555.5999999999999</ele><time>2026-04-11T08:58:39.049Z</time></trkpt><trkpt lat="43.4885615" lon="11.4220373"><ele>556.8</ele><time>2026-04-11T08:58:40.05Z</time></trkpt><trkpt lat="43.4884719" lon="11.4221002"><ele>558.0</ele><time>2026-04-11T08:58:41.049Z</time></trkpt><trkpt lat="43.4883923" lon="11.4221749"><ele>558.0</ele><time>2026-04-11T08:58:42.05Z</time></trkpt><trkpt lat="43.4883384" lon="11.4222681"><ele>558.0</ele><time>2026-04-11T08:58:43.05Z</time></trkpt><trkpt lat="43.4883087" lon="11.4223795"><ele>558.0</ele><time>2026-04-11T08:58:44.049Z</time></trkpt><trkpt lat="43.4882917" lon="11.422503"><ele>558.0</ele><time>2026-04-11T08:58:45.049Z</time></trkpt><trkpt lat="43.4882744" lon="11.4226181"><ele>558.0</ele><time>2026-04-11T08:58:46.05Z</time></trkpt><trkpt lat="43.4882495" lon="11.4227225"><ele>558.0</ele><time>2026-04-11T08:58:47.049Z</time></trkpt><trkpt lat="43.488213" lon="11.4227984"><ele>558.0</ele><time>2026-04-11T08:58:48.049Z</time></trkpt><trkpt lat="43.4881464" lon="11.4228412"><ele>558.0</ele><time>2026-04-11T08:58:49.049Z</time></trkpt><trkpt lat="43.4880683" lon="11.4228476"><ele>558.0</ele><time>2026-04-11T08:58:50.049Z</time></trkpt><trkpt lat="43.487989" lon="11.4228085"><ele>558.0</ele><time>2026-04-11T08:58:51.049Z</time></trkpt><trkpt lat="43.4879228" lon="11.4227385"><ele>558.0</ele><time>2026-04-11T08:58:52.05Z</time></trkpt><trkpt lat="43.4878512" lon="11.4226398"><ele>558.0</ele><time>2026-04-11T08:58:53.049Z</time></trkpt><trkpt lat="43.4877749" lon="11.4225518"><ele>557.0</ele><time>2026-04-11T08:58:54.05Z</time></trkpt><trkpt lat="43.4876905" lon="11.4224613"><ele>556.0</ele><time>2026-04-11T08:58:55.05Z</time></trkpt><trkpt lat="43.4875876" lon="11.422362"><ele>555.0</ele><time>2026-04-11T08:58:56.049Z</time></trkpt><trkpt lat="43.48748" lon="11.4222598"><ele>554.0</ele><time>2026-04-11T08:58:57.05Z</time></trkpt><trkpt lat="43.4873779" lon="11.4221651"><ele>551.8</ele><time>2026-04-11T08:58:58.049Z</time></trkpt><trkpt lat="43.4872824" lon="11.4220668"><ele>549.5999999999999</ele><time>2026-04-11T08:58:59.05Z</time></trkpt><trkpt lat="43.4871977" lon="11.4219681"><ele>547.4</ele><time>2026-04-11T08:59:00.05Z</time></trkpt><trkpt lat="43.4871206" lon="11.4218641"><ele>545.1999999999999</ele><time>2026-04-11T08:59:01.05Z</time></trkpt><trkpt lat="43.4870511" lon="11.4217446"><ele>543.0</ele><time>2026-04-11T08:59:02.05Z</time></trkpt><trkpt lat="43.4869833" lon="11.4216079"><ele>543.0</ele><time>2026-04-11T08:59:03.05Z</time></trkpt><trkpt lat="43.486914" lon="11.4214664"><ele>543.0</ele><time>2026-04-11T08:59:04.049Z</time></trkpt><trkpt lat="43.4868461" lon="11.4213226"><ele>543.0</ele><time>2026-04-11T08:59:05.049Z</time></trkpt><trkpt lat="43.4867767" lon="11.4211809"><ele>543.0</ele><time>2026-04-11T08:59:06.05Z</time></trkpt><trkpt lat="43.4867048" lon="11.4210366"><ele>542.75</ele><time>2026-04-11T08:59:07.05Z</time></trkpt><trkpt lat="43.4866276" lon="11.4208863"><ele>542.5</ele><time>2026-04-11T08:59:08.049Z</time></trkpt><trkpt lat="43.4865434" lon="11.4207375"><ele>542.25</ele><time>2026-04-11T08:59:09.049Z</time></trkpt><trkpt lat="43.4864581" lon="11.4206083"><ele>542.0</ele><time>2026-04-11T08:59:10.049Z</time></trkpt><trkpt lat="43.4863715" lon="11.4204994"><ele>543.25</ele><time>2026-04-11T08:59:11.049Z</time></trkpt><trkpt lat="43.4862774" lon="11.4204064"><ele>544.5</ele><time>2026-04-11T08:59:12.05Z</time></trkpt><trkpt lat="43.4861731" lon="11.4203249"><ele>545.75</ele><time>2026-04-11T08:59:13.049Z</time></trkpt><trkpt lat="43.4860611" lon="11.4202541"><ele>547.0</ele><time>2026-04-11T08:59:14.051Z</time></trkpt><trkpt lat="43.4859479" lon="11.420185"><ele>547.0</ele><time>2026-04-11T08:59:15.051Z</time></trkpt><trkpt lat="43.4858368" lon="11.420118"><ele>547.0</ele><time>2026-04-11T08:59:16.05Z</time></trkpt><trkpt lat="43.4857252" lon="11.4200556"><ele>547.0</ele><time>2026-04-11T08:59:17.05Z</time></trkpt><trkpt lat="43.4856131" lon="11.419996"><ele>547.0</ele><time>2026-04-11T08:59:18.051Z</time></trkpt><trkpt lat="43.4854991" lon="11.4199362"><ele>548.75</ele><time>2026-04-11T08:59:19.05Z</time></trkpt><trkpt lat="43.4853845" lon="11.4198755"><ele>550.5</ele><time>2026-04-11T08:59:20.05Z</time></trkpt><trkpt lat="43.4852672" lon="11.4198123"><ele>552.25</ele><time>2026-04-11T08:59:21.051Z</time></trkpt><trkpt lat="43.4851447" lon="11.4197466"><ele>554.0</ele><time>2026-04-11T08:59:22.051Z</time></trkpt><trkpt lat="43.4850246" lon="11.4196816"><ele>552.5</ele><time>2026-04-11T08:59:23.051Z</time></trkpt><trkpt lat="43.4849034" lon="11.4196154"><ele>551.0</ele><time>2026-04-11T08:59:24.051Z</time></trkpt><trkpt lat="43.4847887" lon="11.4195495"><ele>549.5</ele><time>2026-04-11T08:59:25.051Z</time></trkpt><trkpt lat="43.4846792" lon="11.4194874"><ele>548.0</ele><time>2026-04-11T08:59:26.05Z</time></trkpt><trkpt lat="43.4845725" lon="11.4194329"><ele>548.0</ele><time>2026-04-11T08:59:27.05Z</time></trkpt><trkpt lat="43.4844717" lon="11.419395"><ele>548.0</ele><time>2026-04-11T08:59:28.05Z</time></trkpt><trkpt lat="43.4843783" lon="11.4193841"><ele>548.0</ele><time>2026-04-11T08:59:29.05Z</time></trkpt><trkpt lat="43.4842938" lon="11.4193962"><ele>548.0</ele><time>2026-04-11T08:59:30.05Z</time></trkpt><trkpt lat="43.4842135" lon="11.4194178"><ele>548.0</ele><time>2026-04-11T08:59:31.05Z</time></trkpt><trkpt lat="43.4841306" lon="11.4194504"><ele>548.0</ele><time>2026-04-11T08:59:32.05Z</time></trkpt><trkpt lat="43.4840368" lon="11.4194956"><ele>548.0</ele><time>2026-04-11T08:59:33.051Z</time></trkpt><trkpt lat="43.4839335" lon="11.4195564"><ele>548.0</ele><time>2026-04-11T08:59:34.05Z</time></trkpt><trkpt lat="43.4838164" lon="11.4196356"><ele>548.0</ele><time>2026-04-11T08:59:35.051Z</time></trkpt><trkpt lat="43.4836965" lon="11.4197153"><ele>547.25</ele><time>2026-04-11T08:59:36.051Z</time></trkpt><trkpt lat="43.4835708" lon="11.4197956"><ele>546.5</ele><time>2026-04-11T08:59:37.051Z</time></trkpt><trkpt lat="43.4834444" lon="11.419873"><ele>545.75</ele><time>2026-04-11T08:59:38.051Z</time></trkpt><trkpt lat="43.4833161" lon="11.4199567"><ele>545.0</ele><time>2026-04-11T08:59:39.051Z</time></trkpt><trkpt lat="43.4831855" lon="11.4200471"><ele>545.0</ele><time>2026-04-11T08:59:40.05Z</time></trkpt><trkpt lat="43.4830526" lon="11.4201395"><ele>545.0</ele><time>2026-04-11T08:59:41.05Z</time></trkpt><trkpt lat="43.4829208" lon="11.4202283"><ele>545.0</ele><time>2026-04-11T08:59:42.051Z</time></trkpt><trkpt lat="43.482792" lon="11.4203097"><ele>545.0</ele><time>2026-04-11T08:59:43.05Z</time></trkpt><trkpt lat="43.4826652" lon="11.4203909"><ele>544.75</ele><time>2026-04-11T08:59:44.05Z</time></trkpt><trkpt lat="43.4825459" lon="11.4204739"><ele>544.5</ele><time>2026-04-11T08:59:45.05Z</time></trkpt><trkpt lat="43.4824273" lon="11.4205577"><ele>544.25</ele><time>2026-04-11T08:59:46.05Z</time></trkpt><trkpt lat="43.4823082" lon="11.4206439"><ele>544.0</ele><time>2026-04-11T08:59:47.051Z</time></trkpt><trkpt lat="43.4821891" lon="11.4207363"><ele>542.25</ele><time>2026-04-11T08:59:48.051Z</time></trkpt><trkpt lat="43.482072" lon="11.4208295"><ele>540.5</ele><time>2026-04-11T08:59:49.051Z</time></trkpt><trkpt lat="43.4819534" lon="11.420921"><ele>538.75</ele><time>2026-04-11T08:59:50.051Z</time></trkpt><trkpt lat="43.4818353" lon="11.421012"><ele>537.0</ele><time>2026-04-11T08:59:51.05Z</time></trkpt><trkpt lat="43.4817226" lon="11.4211032"><ele>537.0</ele><time>2026-04-11T08:59:52.05Z</time></trkpt><trkpt lat="43.481616" lon="11.4211888"><ele>537.0</ele><time>2026-04-11T08:59:53.051Z</time></trkpt><trkpt lat="43.4815159" lon="11.4212678"><ele>537.0</ele><time>2026-04-11T08:59:54.05Z</time></trkpt><trkpt lat="43.4814166" lon="11.421346"><ele>537.0</ele><time>2026-04-11T08:59:55.05Z</time></trkpt><trkpt lat="43.4813154" lon="11.4214293"><ele>537.25</ele><time>2026-04-11T08:59:56.05Z</time></trkpt><trkpt lat="43.4812118" lon="11.4215197"><ele>537.5</ele><time>2026-04-11T08:59:57.05Z</time></trkpt><trkpt lat="43.481105" lon="11.4216171"><ele>537.75</ele><time>2026-04-11T08:59:58.051Z</time></trkpt><trkpt lat="43.4809919" lon="11.4217128"><ele>538.0</ele><time>2026-04-11T08:59:59.051Z</time></trkpt><trkpt lat="43.4808736" lon="11.4218054"><ele>538.0</ele><time>2026-04-11T09:00:00.05Z</time></trkpt><trkpt lat="43.4807523" lon="11.4218932"><ele>538.0</ele><time>2026-04-11T09:00:01.05Z</time></trkpt><trkpt lat="43.4806356" lon="11.421984"><ele>538.0</ele><time>2026-04-11T09:00:02.051Z</time></trkpt><trkpt lat="43.4805182" lon="11.4220768"><ele>538.0</ele><time>2026-04-11T09:00:03.05Z</time></trkpt><trkpt lat="43.4804023" lon="11.4221647"><ele>536.75</ele><time>2026-04-11T09:00:04.051Z</time></trkpt><trkpt lat="43.4802868" lon="11.4222485"><ele>535.5</ele><time>2026-04-11T09:00:05.051Z</time></trkpt><trkpt lat="43.4801799" lon="11.4223359"><ele>534.25</ele><time>2026-04-11T09:00:06.051Z</time></trkpt><trkpt lat="43.4800718" lon="11.422435"><ele>533.0</ele><time>2026-04-11T09:00:07.051Z</time></trkpt><trkpt lat="43.4799569" lon="11.4225593"><ele>533.0</ele><time>2026-04-11T09:00:08.051Z</time></trkpt><trkpt lat="43.4798376" lon="11.4227093"><ele>533.0</ele><time>2026-04-11T09:00:09.051Z</time></trkpt><trkpt lat="43.479715" lon="11.4228489"><ele>533.0</ele><time>2026-04-11T09:00:10.05Z</time></trkpt><trkpt lat="43.4796105" lon="11.4229684"><ele>533.25</ele><time>2026-04-11T09:00:11.05Z</time></trkpt><trkpt lat="43.4795185" lon="11.4230778"><ele>533.5</ele><time>2026-04-11T09:00:12.05Z</time></trkpt><trkpt lat="43.4794457" lon="11.4231886"><ele>533.75</ele><time>2026-04-11T09:00:13.051Z</time></trkpt><trkpt lat="43.4793814" lon="11.4233259"><ele>534.0</ele><time>2026-04-11T09:00:14.051Z</time></trkpt><trkpt lat="43.4793151" lon="11.423474"><ele>534.0</ele><time>2026-04-11T09:00:15.05Z</time></trkpt><trkpt lat="43.4792514" lon="11.4236092"><ele>534.0</ele><time>2026-04-11T09:00:16.05Z</time></trkpt><trkpt lat="43.4791886" lon="11.4237235"><ele>534.0</ele><time>2026-04-11T09:00:17.051Z</time></trkpt><trkpt lat="43.4791256" lon="11.4238258"><ele>534.0</ele><time>2026-04-11T09:00:18.052Z</time></trkpt><trkpt lat="43.479055" lon="11.4239293"><ele>534.0</ele><time>2026-04-11T09:00:19.052Z</time></trkpt><trkpt lat="43.4789783" lon="11.4240332"><ele>532.5</ele><time>2026-04-11T09:00:20.052Z</time></trkpt><trkpt lat="43.4788927" lon="11.4241379"><ele>531.0</ele><time>2026-04-11T09:00:21.052Z</time></trkpt><trkpt lat="43.4787947" lon="11.4242431"><ele>529.5</ele><time>2026-04-11T09:00:22.052Z</time></trkpt><trkpt lat="43.4786954" lon="11.4243261"><ele>528.0</ele><time>2026-04-11T09:00:23.052Z</time></trkpt><trkpt lat="43.4785804" lon="11.4243951"><ele>526.5</ele><time>2026-04-11T09:00:24.051Z</time></trkpt><trkpt lat="43.4784635" lon="11.4244604"><ele>525.0</ele><time>2026-04-11T09:00:25.051Z</time></trkpt><trkpt lat="43.4783539" lon="11.4245319"><ele>523.5</ele><time>2026-04-11T09:00:26.051Z</time></trkpt><trkpt lat="43.4782474" lon="11.4246041"><ele>522.0</ele><time>2026-04-11T09:00:27.052Z</time></trkpt><trkpt lat="43.4781551" lon="11.4246675"><ele>521.3333333333334</ele><time>2026-04-11T09:00:28.051Z</time></trkpt><trkpt lat="43.4780797" lon="11.4247158"><ele>520.6666666666666</ele><time>2026-04-11T09:00:29.051Z</time></trkpt><trkpt lat="43.4780046" lon="11.4247464"><ele>520.0</ele><time>2026-04-11T09:00:31.051Z</time></trkpt><trkpt lat="43.4779451" lon="11.4246879"><ele>519.3333333333333</ele><time>2026-04-11T09:00:35.052Z</time></trkpt><trkpt lat="43.4779028" lon="11.4246171"><ele>518.6666666666666</ele><time>2026-04-11T09:00:37.052Z</time></trkpt><trkpt lat="43.4778466" lon="11.4244994"><ele>518.0</ele><time>2026-04-11T09:00:39.051Z</time></trkpt><trkpt lat="43.4777982" lon="11.4243774"><ele>515.5</ele><time>2026-04-11T09:00:41.052Z</time></trkpt><trkpt lat="43.4777177" lon="11.4242299"><ele>513.0</ele><time>2026-04-11T09:00:43.051Z</time></trkpt><trkpt lat="43.4776501" lon="11.4241321"><ele>510.5</ele><time>2026-04-11T09:00:44.052Z</time></trkpt><trkpt lat="43.4775737" lon="11.4240161"><ele>508.0</ele><time>2026-04-11T09:00:45.051Z</time></trkpt><trkpt lat="43.477488" lon="11.4238841"><ele>508.0</ele><time>2026-04-11T09:00:46.052Z</time></trkpt><trkpt lat="43.4774036" lon="11.4237537"><ele>508.0</ele><time>2026-04-11T09:00:47.052Z</time></trkpt><trkpt lat="43.477319" lon="11.4236261"><ele>508.0</ele><time>2026-04-11T09:00:48.052Z</time></trkpt><trkpt lat="43.4772295" lon="11.4234959"><ele>508.0</ele><time>2026-04-11T09:00:49.052Z</time></trkpt><trkpt lat="43.477133" lon="11.4233615"><ele>507.5</ele><time>2026-04-11T09:00:50.052Z</time></trkpt><trkpt lat="43.4770366" lon="11.4232288"><ele>507.0</ele><time>2026-04-11T09:00:51.052Z</time></trkpt><trkpt lat="43.4769485" lon="11.4231136"><ele>506.5</ele><time>2026-04-11T09:00:52.051Z</time></trkpt><trkpt lat="43.4768711" lon="11.4230179"><ele>506.0</ele><time>2026-04-11T09:00:53.051Z</time></trkpt><trkpt lat="43.4768008" lon="11.4229396"><ele>505.66666666666663</ele><time>2026-04-11T09:00:54.052Z</time></trkpt><trkpt lat="43.4767282" lon="11.4228731"><ele>505.3333333333333</ele><time>2026-04-11T09:00:55.051Z</time></trkpt><trkpt lat="43.4766548" lon="11.4228198"><ele>505.0</ele><time>2026-04-11T09:00:56.052Z</time></trkpt><trkpt lat="43.4765782" lon="11.4227782"><ele>504.66666666666663</ele><time>2026-04-11T09:00:57.051Z</time></trkpt><trkpt lat="43.476493" lon="11.4227319"><ele>504.3333333333333</ele><time>2026-04-11T09:00:58.051Z</time></trkpt><trkpt lat="43.4763976" lon="11.422679"><ele>504.0</ele><time>2026-04-11T09:00:59.051Z</time></trkpt><trkpt lat="43.4762949" lon="11.4226188"><ele>504.4</ele><time>2026-04-11T09:01:00.052Z</time></trkpt><trkpt lat="43.4761879" lon="11.4225577"><ele>504.79999999999995</ele><time>2026-04-11T09:01:01.051Z</time></trkpt><trkpt lat="43.4760852" lon="11.4225013"><ele>505.20000000000005</ele><time>2026-04-11T09:01:02.051Z</time></trkpt><trkpt lat="43.4759875" lon="11.4224449"><ele>505.6</ele><time>2026-04-11T09:01:03.052Z</time></trkpt><trkpt lat="43.4758912" lon="11.4223902"><ele>506.0</ele><time>2026-04-11T09:01:04.051Z</time></trkpt><trkpt lat="43.4757994" lon="11.4223445"><ele>506.0</ele><time>2026-04-11T09:01:05.051Z</time></trkpt><trkpt lat="43.4757089" lon="11.4223166"><ele>506.0</ele><time>2026-04-11T09:01:06.052Z</time></trkpt><trkpt lat="43.4756185" lon="11.4223077"><ele>506.0</ele><time>2026-04-11T09:01:07.051Z</time></trkpt><trkpt lat="43.4755292" lon="11.4223177"><ele>506.0</ele><time>2026-04-11T09:01:08.052Z</time></trkpt><trkpt lat="43.4754372" lon="11.4223472"><ele>506.0</ele><time>2026-04-11T09:01:09.051Z</time></trkpt><trkpt lat="43.4753506" lon="11.4223876"><ele>508.20000000000005</ele><time>2026-04-11T09:01:10.051Z</time></trkpt><trkpt lat="43.4752683" lon="11.4224463"><ele>510.40000000000003</ele><time>2026-04-11T09:01:11.051Z</time></trkpt><trkpt lat="43.4751864" lon="11.422503"><ele>512.6</ele><time>2026-04-11T09:01:12.052Z</time></trkpt><trkpt lat="43.4750987" lon="11.4225511"><ele>514.8000000000001</ele><time>2026-04-11T09:01:13.051Z</time></trkpt><trkpt lat="43.4750049" lon="11.4225953"><ele>517.0</ele><time>2026-04-11T09:01:14.052Z</time></trkpt><trkpt lat="43.4749118" lon="11.4226186"><ele>517.0</ele><time>2026-04-11T09:01:15.051Z</time></trkpt><trkpt lat="43.4748289" lon="11.4226212"><ele>517.0</ele><time>2026-04-11T09:01:16.051Z</time></trkpt><trkpt lat="43.4747452" lon="11.4226098"><ele>517.0</ele><time>2026-04-11T09:01:17.052Z</time></trkpt><trkpt lat="43.4746551" lon="11.4225877"><ele>517.0</ele><time>2026-04-11T09:01:18.051Z</time></trkpt><trkpt lat="43.4745549" lon="11.4225518"><ele>517.0</ele><time>2026-04-11T09:01:19.051Z</time></trkpt><trkpt lat="43.4744411" lon="11.4225053"><ele>517.75</ele><time>2026-04-11T09:01:20.051Z</time></trkpt><trkpt lat="43.4743212" lon="11.4224576"><ele>518.5</ele><time>2026-04-11T09:01:21.052Z</time></trkpt><trkpt lat="43.4742022" lon="11.4224192"><ele>519.25</ele><time>2026-04-11T09:01:22.053Z</time></trkpt><trkpt lat="43.4740902" lon="11.4223961"><ele>520.0</ele><time>2026-04-11T09:01:23.052Z</time></trkpt><trkpt lat="43.47399" lon="11.4223841"><ele>520.0</ele><time>2026-04-11T09:01:24.052Z</time></trkpt><trkpt lat="43.4738899" lon="11.4223699"><ele>520.0</ele><time>2026-04-11T09:01:25.053Z</time></trkpt><trkpt lat="43.4737888" lon="11.422352"><ele>520.0</ele><time>2026-04-11T09:01:26.052Z</time></trkpt><trkpt lat="43.4736839" lon="11.4223264"><ele>520.0</ele><time>2026-04-11T09:01:27.052Z</time></trkpt><trkpt lat="43.4735804" lon="11.4222919"><ele>520.0</ele><time>2026-04-11T09:01:28.052Z</time></trkpt><trkpt lat="43.473486" lon="11.4222558"><ele>519.6</ele><time>2026-04-11T09:01:29.053Z</time></trkpt><trkpt lat="43.4733963" lon="11.4222207"><ele>519.2</ele><time>2026-04-11T09:01:30.052Z</time></trkpt><trkpt lat="43.4733087" lon="11.4221833"><ele>518.8</ele><time>2026-04-11T09:01:31.053Z</time></trkpt><trkpt lat="43.4732221" lon="11.4221386"><ele>518.4</ele><time>2026-04-11T09:01:32.052Z</time></trkpt><trkpt lat="43.4731387" lon="11.4220854"><ele>518.0</ele><time>2026-04-11T09:01:33.053Z</time></trkpt><trkpt lat="43.4730583" lon="11.4220199"><ele>517.75</ele><time>2026-04-11T09:01:34.053Z</time></trkpt><trkpt lat="43.4729786" lon="11.4219377"><ele>517.5</ele><time>2026-04-11T09:01:35.052Z</time></trkpt><trkpt lat="43.4728963" lon="11.4218352"><ele>517.25</ele><time>2026-04-11T09:01:36.052Z</time></trkpt><trkpt lat="43.4728092" lon="11.4217156"><ele>517.0</ele><time>2026-04-11T09:01:37.052Z</time></trkpt><trkpt lat="43.4727169" lon="11.4215943"><ele>517.0</ele><time>2026-04-11T09:01:38.053Z</time></trkpt><trkpt lat="43.472625" lon="11.4214871"><ele>517.0</ele><time>2026-04-11T09:01:39.052Z</time></trkpt><trkpt lat="43.472541" lon="11.4214082"><ele>517.0</ele><time>2026-04-11T09:01:40.053Z</time></trkpt><trkpt lat="43.4724511" lon="11.4213419"><ele>517.0</ele><time>2026-04-11T09:01:41.053Z</time></trkpt><trkpt lat="43.4723561" lon="11.4212847"><ele>517.0</ele><time>2026-04-11T09:01:42.053Z</time></trkpt><trkpt lat="43.4722515" lon="11.4212306"><ele>517.25</ele><time>2026-04-11T09:01:43.053Z</time></trkpt><trkpt lat="43.4721336" lon="11.4211736"><ele>517.5</ele><time>2026-04-11T09:01:44.053Z</time></trkpt><trkpt lat="43.4720098" lon="11.4211194"><ele>517.75</ele><time>2026-04-11T09:01:45.052Z</time></trkpt><trkpt lat="43.4718933" lon="11.4210599"><ele>518.0</ele><time>2026-04-11T09:01:46.053Z</time></trkpt><trkpt lat="43.4717933" lon="11.4209763"><ele>518.0</ele><time>2026-04-11T09:01:47.053Z</time></trkpt><trkpt lat="43.471696" lon="11.4208601"><ele>518.0</ele><time>2026-04-11T09:01:48.053Z</time></trkpt><trkpt lat="43.4715949" lon="11.4207273"><ele>518.0</ele><time>2026-04-11T09:01:49.053Z</time></trkpt><trkpt lat="43.471488" lon="11.4205714"><ele>518.0</ele><time>2026-04-11T09:01:50.053Z</time></trkpt><trkpt lat="43.4713875" lon="11.4204086"><ele>518.0</ele><time>2026-04-11T09:01:51.053Z</time></trkpt><trkpt lat="43.4712947" lon="11.4202411"><ele>518.0</ele><time>2026-04-11T09:01:52.053Z</time></trkpt><trkpt lat="43.471216" lon="11.4200879"><ele>518.0</ele><time>2026-04-11T09:01:53.052Z</time></trkpt><trkpt lat="43.4711476" lon="11.4199437"><ele>518.0</ele><time>2026-04-11T09:01:54.052Z</time></trkpt><trkpt lat="43.471073" lon="11.4197978"><ele>516.75</ele><time>2026-04-11T09:01:55.053Z</time></trkpt><trkpt lat="43.4709914" lon="11.4196594"><ele>515.5</ele><time>2026-04-11T09:01:56.052Z</time></trkpt><trkpt lat="43.4709052" lon="11.4195262"><ele>514.25</ele><time>2026-04-11T09:01:57.053Z</time></trkpt><trkpt lat="43.4708164" lon="11.4193962"><ele>513.0</ele><time>2026-04-11T09:01:58.052Z</time></trkpt><trkpt lat="43.4707257" lon="11.4192594"><ele>510.66666666666663</ele><time>2026-04-11T09:01:59.053Z</time></trkpt><trkpt lat="43.4706339" lon="11.4190981"><ele>508.3333333333333</ele><time>2026-04-11T09:02:00.052Z</time></trkpt><trkpt lat="43.4705391" lon="11.4189194"><ele>506.0</ele><time>2026-04-11T09:02:01.053Z</time></trkpt><trkpt lat="43.4704491" lon="11.4187492"><ele>505.20000000000005</ele><time>2026-04-11T09:02:02.052Z</time></trkpt><trkpt lat="43.4703759" lon="11.4186166"><ele>504.40000000000003</ele><time>2026-04-11T09:02:03.052Z</time></trkpt><trkpt lat="43.4703201" lon="11.418531"><ele>503.6</ele><time>2026-04-11T09:02:04.052Z</time></trkpt><trkpt lat="43.4702463" lon="11.4184217"><ele>502.8</ele><time>2026-04-11T09:02:06.052Z</time></trkpt><trkpt lat="43.4702021" lon="11.4183484"><ele>502.0</ele><time>2026-04-11T09:02:08.052Z</time></trkpt><trkpt lat="43.4701759" lon="11.4184351"><ele>502.0</ele><time>2026-04-11T09:03:18.054Z</time></trkpt><trkpt lat="43.4701562" lon="11.4185563"><ele>502.00000000000006</ele><time>2026-04-11T09:03:20.053Z</time></trkpt><trkpt lat="43.4701153" lon="11.4187073"><ele>502.00000000000006</ele><time>2026-04-11T09:03:22.054Z</time></trkpt><trkpt lat="43.4700324" lon="11.4188312"><ele>502.0</ele><time>2026-04-11T09:03:24.053Z</time></trkpt><trkpt lat="43.4699897" lon="11.4188994"><ele>502.0</ele><time>2026-04-11T09:03:25.054Z</time></trkpt><trkpt lat="43.4699389" lon="11.418982"><ele>502.2857142857142</ele><time>2026-04-11T09:03:26.054Z</time></trkpt><trkpt lat="43.4698861" lon="11.4190552"><ele>502.57142857142856</ele><time>2026-04-11T09:03:27.054Z</time></trkpt><trkpt lat="43.4698369" lon="11.4191152"><ele>502.85714285714283</ele><time>2026-04-11T09:03:28.054Z</time></trkpt><trkpt lat="43.4697888" lon="11.4191748"><ele>503.1428571428571</ele><time>2026-04-11T09:03:29.053Z</time></trkpt><trkpt lat="43.469747" lon="11.4192399"><ele>503.42857142857144</ele><time>2026-04-11T09:03:30.053Z</time></trkpt><trkpt lat="43.469705" lon="11.4193253"><ele>503.7142857142857</ele><time>2026-04-11T09:03:31.054Z</time></trkpt><trkpt lat="43.4696769" lon="11.4194219"><ele>504.0</ele><time>2026-04-11T09:03:32.055Z</time></trkpt><trkpt lat="43.469665" lon="11.4195273"><ele>504.0</ele><time>2026-04-11T09:03:33.055Z</time></trkpt><trkpt lat="43.4696688" lon="11.41964"><ele>504.0</ele><time>2026-04-11T09:03:34.054Z</time></trkpt><trkpt lat="43.4696912" lon="11.4197602"><ele>504.0</ele><time>2026-04-11T09:03:35.054Z</time></trkpt><trkpt lat="43.4697348" lon="11.4198899"><ele>504.0</ele><time>2026-04-11T09:03:36.054Z</time></trkpt><trkpt lat="43.4698023" lon="11.4200213"><ele>504.0</ele><time>2026-04-11T09:03:37.054Z</time></trkpt><trkpt lat="43.4698799" lon="11.4201643"><ele>503.25</ele><time>2026-04-11T09:03:38.054Z</time></trkpt><trkpt lat="43.4699574" lon="11.4203093"><ele>502.5</ele><time>2026-04-11T09:03:39.055Z</time></trkpt><trkpt lat="43.4700212" lon="11.4204429"><ele>501.75</ele><time>2026-04-11T09:03:40.055Z</time></trkpt><trkpt lat="43.4700793" lon="11.420569"><ele>501.0</ele><time>2026-04-11T09:03:41.054Z</time></trkpt><trkpt lat="43.4701323" lon="11.420683"><ele>498.8</ele><time>2026-04-11T09:03:42.054Z</time></trkpt><trkpt lat="43.4701838" lon="11.4207869"><ele>496.6</ele><time>2026-04-11T09:03:43.055Z</time></trkpt><trkpt lat="43.4702353" lon="11.4208861"><ele>494.4</ele><time>2026-04-11T09:03:44.054Z</time></trkpt><trkpt lat="43.4702821" lon="11.4209861"><ele>492.2</ele><time>2026-04-11T09:03:45.054Z</time></trkpt><trkpt lat="43.4703321" lon="11.4211166"><ele>490.0</ele><time>2026-04-11T09:03:46.054Z</time></trkpt><trkpt lat="43.470362" lon="11.4212505"><ele>490.75</ele><time>2026-04-11T09:03:47.055Z</time></trkpt><trkpt lat="43.4703428" lon="11.4213844"><ele>491.5</ele><time>2026-04-11T09:03:48.054Z</time></trkpt><trkpt lat="43.4702747" lon="11.421503"><ele>492.25</ele><time>2026-04-11T09:03:49.055Z</time></trkpt><trkpt lat="43.4701707" lon="11.4215888"><ele>493.0</ele><time>2026-04-11T09:03:50.054Z</time></trkpt><trkpt lat="43.4700489" lon="11.4216591"><ele>493.0</ele><time>2026-04-11T09:03:51.055Z</time></trkpt><trkpt lat="43.4699294" lon="11.4217286"><ele>493.0</ele><time>2026-04-11T09:03:52.054Z</time></trkpt><trkpt lat="43.4698227" lon="11.4217948"><ele>493.0</ele><time>2026-04-11T09:03:53.054Z</time></trkpt><trkpt lat="43.4697258" lon="11.4218599"><ele>493.0</ele><time>2026-04-11T09:03:54.054Z</time></trkpt><trkpt lat="43.4696266" lon="11.4219338"><ele>492.25</ele><time>2026-04-11T09:03:55.054Z</time></trkpt><trkpt lat="43.4695227" lon="11.4220055"><ele>491.5</ele><time>2026-04-11T09:03:56.055Z</time></trkpt><trkpt lat="43.469413" lon="11.4220771"><ele>490.75</ele><time>2026-04-11T09:03:57.054Z</time></trkpt><trkpt lat="43.4693066" lon="11.4221483"><ele>490.0</ele><time>2026-04-11T09:03:58.055Z</time></trkpt><trkpt lat="43.4692076" lon="11.4222136"><ele>490.0</ele><time>2026-04-11T09:03:59.055Z</time></trkpt><trkpt lat="43.4691093" lon="11.4222812"><ele>490.0</ele><time>2026-04-11T09:04:00.054Z</time></trkpt><trkpt lat="43.4690112" lon="11.4223524"><ele>490.0</ele><time>2026-04-11T09:04:01.054Z</time></trkpt><trkpt lat="43.4689187" lon="11.422423"><ele>490.0</ele><time>2026-04-11T09:04:02.054Z</time></trkpt><trkpt lat="43.4688281" lon="11.4224925"><ele>490.0</ele><time>2026-04-11T09:04:03.055Z</time></trkpt><trkpt lat="43.4687379" lon="11.4225588"><ele>486.5</ele><time>2026-04-11T09:04:04.055Z</time></trkpt><trkpt lat="43.468643" lon="11.4226322"><ele>483.0</ele><time>2026-04-11T09:04:05.055Z</time></trkpt><trkpt lat="43.468542" lon="11.4227137"><ele>479.5</ele><time>2026-04-11T09:04:06.054Z</time></trkpt><trkpt lat="43.4684334" lon="11.422798"><ele>476.0</ele><time>2026-04-11T09:04:07.055Z</time></trkpt><trkpt lat="43.4683314" lon="11.4228733"><ele>476.0</ele><time>2026-04-11T09:04:08.054Z</time></trkpt><trkpt lat="43.468235" lon="11.4229372"><ele>476.0</ele><time>2026-04-11T09:04:09.054Z</time></trkpt><trkpt lat="43.4681423" lon="11.4229961"><ele>476.0</ele><time>2026-04-11T09:04:10.054Z</time></trkpt><trkpt lat="43.4680459" lon="11.4230531"><ele>476.0</ele><time>2026-04-11T09:04:11.054Z</time></trkpt><trkpt lat="43.4679415" lon="11.4230977"><ele>476.0</ele><time>2026-04-11T09:04:12.055Z</time></trkpt><trkpt lat="43.4678344" lon="11.423129"><ele>476.6</ele><time>2026-04-11T09:04:13.055Z</time></trkpt><trkpt lat="43.467738" lon="11.4231368"><ele>477.20000000000005</ele><time>2026-04-11T09:04:14.055Z</time></trkpt><trkpt lat="43.4676678" lon="11.4231685"><ele>477.79999999999995</ele><time>2026-04-11T09:04:15.055Z</time></trkpt><trkpt lat="43.4676037" lon="11.4233121"><ele>478.4</ele><time>2026-04-11T09:04:17.054Z</time></trkpt><trkpt lat="43.4676039" lon="11.423437"><ele>479.0</ele><time>2026-04-11T09:04:18.055Z</time></trkpt><trkpt lat="43.4676356" lon="11.4235737"><ele>479.0</ele><time>2026-04-11T09:04:19.054Z</time></trkpt><trkpt lat="43.4677031" lon="11.4236903"><ele>479.0</ele><time>2026-04-11T09:04:20.054Z</time></trkpt><trkpt lat="43.4678186" lon="11.4237753"><ele>479.0</ele><time>2026-04-11T09:04:21.054Z</time></trkpt><trkpt lat="43.4679546" lon="11.4238592"><ele>479.0</ele><time>2026-04-11T09:04:22.055Z</time></trkpt><trkpt lat="43.468085" lon="11.4239627"><ele>476.5</ele><time>2026-04-11T09:04:23.055Z</time></trkpt><trkpt lat="43.4682146" lon="11.4240724"><ele>474.0</ele><time>2026-04-11T09:04:24.054Z</time></trkpt><trkpt lat="43.4683406" lon="11.4241798"><ele>471.5</ele><time>2026-04-11T09:04:25.055Z</time></trkpt><trkpt lat="43.4684577" lon="11.4242766"><ele>469.0</ele><time>2026-04-11T09:04:26.054Z</time></trkpt><trkpt lat="43.4685647" lon="11.4243542"><ele>469.0</ele><time>2026-04-11T09:04:27.054Z</time></trkpt><trkpt lat="43.4686838" lon="11.4243926"><ele>469.0</ele><time>2026-04-11T09:04:28.055Z</time></trkpt><trkpt lat="43.4688179" lon="11.424412"><ele>469.0</ele><time>2026-04-11T09:04:29.055Z</time></trkpt><trkpt lat="43.4689644" lon="11.4244279"><ele>469.0</ele><time>2026-04-11T09:04:30.055Z</time></trkpt><trkpt lat="43.4691173" lon="11.4244467"><ele>468.5</ele><time>2026-04-11T09:04:31.055Z</time></trkpt><trkpt lat="43.4692684" lon="11.4244605"><ele>468.0</ele><time>2026-04-11T09:04:32.054Z</time></trkpt><trkpt lat="43.4694127" lon="11.4244819"><ele>467.5</ele><time>2026-04-11T09:04:33.054Z</time></trkpt><trkpt lat="43.4695456" lon="11.4245264"><ele>467.0</ele><time>2026-04-11T09:04:34.054Z</time></trkpt><trkpt lat="43.4696623" lon="11.4245954"><ele>465.25</ele><time>2026-04-11T09:04:35.055Z</time></trkpt><trkpt lat="43.4697704" lon="11.4246892"><ele>463.5</ele><time>2026-04-11T09:04:36.055Z</time></trkpt><trkpt lat="43.4698565" lon="11.4247977"><ele>461.75</ele><time>2026-04-11T09:04:37.056Z</time></trkpt><trkpt lat="43.4699054" lon="11.4249242"><ele>460.0</ele><time>2026-04-11T09:04:38.055Z</time></trkpt><trkpt lat="43.4699225" lon="11.425083"><ele>460.0</ele><time>2026-04-11T09:04:39.056Z</time></trkpt><trkpt lat="43.4699192" lon="11.4252598"><ele>460.0</ele><time>2026-04-11T09:04:40.056Z</time></trkpt><trkpt lat="43.4699235" lon="11.4254518"><ele>460.0</ele><time>2026-04-11T09:04:41.056Z</time></trkpt><trkpt lat="43.4699322" lon="11.4256481"><ele>460.0</ele><time>2026-04-11T09:04:42.056Z</time></trkpt><trkpt lat="43.46994" lon="11.4258559"><ele>457.0</ele><time>2026-04-11T09:04:43.055Z</time></trkpt><trkpt lat="43.4699422" lon="11.4260623"><ele>454.0</ele><time>2026-04-11T09:04:44.056Z</time></trkpt><trkpt lat="43.4699316" lon="11.4262618"><ele>451.0</ele><time>2026-04-11T09:04:45.056Z</time></trkpt><trkpt lat="43.469915" lon="11.4264472"><ele>448.0</ele><time>2026-04-11T09:04:46.056Z</time></trkpt><trkpt lat="43.4698879" lon="11.426629"><ele>446.0</ele><time>2026-04-11T09:04:47.056Z</time></trkpt><trkpt lat="43.4698583" lon="11.426823"><ele>444.0</ele><time>2026-04-11T09:04:48.056Z</time></trkpt><trkpt lat="43.4698235" lon="11.4270262"><ele>442.0</ele><time>2026-04-11T09:04:49.056Z</time></trkpt><trkpt lat="43.4697808" lon="11.4272294"><ele>440.0</ele><time>2026-04-11T09:04:50.056Z</time></trkpt><trkpt lat="43.4697142" lon="11.4274299"><ele>437.3333333333333</ele><time>2026-04-11T09:04:51.056Z</time></trkpt><trkpt lat="43.4696194" lon="11.427616"><ele>434.66666666666663</ele><time>2026-04-11T09:04:52.056Z</time></trkpt><trkpt lat="43.4695085" lon="11.4277812"><ele>432.0</ele><time>2026-04-11T09:04:53.055Z</time></trkpt><trkpt lat="43.4693874" lon="11.4279475"><ele>428.33333333333337</ele><time>2026-04-11T09:04:54.055Z</time></trkpt><trkpt lat="43.4692736" lon="11.4281207"><ele>424.6666666666667</ele><time>2026-04-11T09:04:55.056Z</time></trkpt><trkpt lat="43.4691646" lon="11.4283025"><ele>421.0</ele><time>2026-04-11T09:04:56.056Z</time></trkpt><trkpt lat="43.4690582" lon="11.4284756"><ele>421.0</ele><time>2026-04-11T09:04:57.056Z</time></trkpt><trkpt lat="43.4689543" lon="11.4286432"><ele>421.0</ele><time>2026-04-11T09:04:58.055Z</time></trkpt><trkpt lat="43.4688508" lon="11.4288086"><ele>421.0</ele><time>2026-04-11T09:04:59.055Z</time></trkpt><trkpt lat="43.4687507" lon="11.4289715"><ele>417.75</ele><time>2026-04-11T09:05:00.056Z</time></trkpt><trkpt lat="43.4686513" lon="11.4291333"><ele>414.5</ele><time>2026-04-11T09:05:01.056Z</time></trkpt><trkpt lat="43.4685531" lon="11.4292862"><ele>411.25</ele><time>2026-04-11T09:05:02.056Z</time></trkpt><trkpt lat="43.4684549" lon="11.4294367"><ele>408.0</ele><time>2026-04-11T09:05:03.055Z</time></trkpt><trkpt lat="43.4683577" lon="11.4295735"><ele>406.75</ele><time>2026-04-11T09:05:04.055Z</time></trkpt><trkpt lat="43.4682563" lon="11.4296881"><ele>405.5</ele><time>2026-04-11T09:05:05.055Z</time></trkpt><trkpt lat="43.46813" lon="11.4297794"><ele>404.25</ele><time>2026-04-11T09:05:06.055Z</time></trkpt><trkpt lat="43.4679874" lon="11.4298749"><ele>403.0</ele><time>2026-04-11T09:05:07.056Z</time></trkpt><trkpt lat="43.4678519" lon="11.4299601"><ele>401.75</ele><time>2026-04-11T09:05:08.055Z</time></trkpt><trkpt lat="43.4677116" lon="11.4300442"><ele>400.5</ele><time>2026-04-11T09:05:09.055Z</time></trkpt><trkpt lat="43.4675707" lon="11.4301336"><ele>399.25</ele><time>2026-04-11T09:05:10.056Z</time></trkpt><trkpt lat="43.4674492" lon="11.4302134"><ele>398.0</ele><time>2026-04-11T09:05:11.056Z</time></trkpt><trkpt lat="43.4673483" lon="11.430268"><ele>398.0</ele><time>2026-04-11T09:05:12.055Z</time></trkpt><trkpt lat="43.4672577" lon="11.4303141"><ele>398.0</ele><time>2026-04-11T09:05:13.056Z</time></trkpt><trkpt lat="43.4671643" lon="11.4303678"><ele>398.0</ele><time>2026-04-11T09:05:14.055Z</time></trkpt><trkpt lat="43.4670739" lon="11.4304299"><ele>398.0</ele><time>2026-04-11T09:05:15.056Z</time></trkpt><trkpt lat="43.4669846" lon="11.4304897"><ele>398.0</ele><time>2026-04-11T09:05:16.056Z</time></trkpt><trkpt lat="43.4668882" lon="11.4305528"><ele>396.0</ele><time>2026-04-11T09:05:17.056Z</time></trkpt><trkpt lat="43.4667898" lon="11.4306127"><ele>394.0</ele><time>2026-04-11T09:05:18.055Z</time></trkpt><trkpt lat="43.4667062" lon="11.4306613"><ele>392.0</ele><time>2026-04-11T09:05:19.056Z</time></trkpt><trkpt lat="43.4666432" lon="11.4307031"><ele>390.0</ele><time>2026-04-11T09:05:20.056Z</time></trkpt><trkpt lat="43.4665727" lon="11.4307981"><ele>388.0</ele><time>2026-04-11T09:05:22.055Z</time></trkpt><trkpt lat="43.4665733" lon="11.4309431"><ele>388.0</ele><time>2026-04-11T09:05:24.055Z</time></trkpt><trkpt lat="43.4666259" lon="11.43108"><ele>388.0</ele><time>2026-04-11T09:05:25.056Z</time></trkpt><trkpt lat="43.4667117" lon="11.4312076"><ele>388.0</ele><time>2026-04-11T09:05:26.055Z</time></trkpt><trkpt lat="43.4667992" lon="11.4312995"><ele>388.0</ele><time>2026-04-11T09:05:27.055Z</time></trkpt><trkpt lat="43.466912" lon="11.4313795"><ele>385.0</ele><time>2026-04-11T09:05:28.056Z</time></trkpt><trkpt lat="43.4670434" lon="11.4314281"><ele>382.0</ele><time>2026-04-11T09:05:29.055Z</time></trkpt><trkpt lat="43.4671766" lon="11.4314545"><ele>379.0</ele><time>2026-04-11T09:05:30.056Z</time></trkpt><trkpt lat="43.4673128" lon="11.4314822"><ele>376.0</ele><time>2026-04-11T09:05:31.055Z</time></trkpt><trkpt lat="43.4674393" lon="11.4315439"><ele>376.0</ele><time>2026-04-11T09:05:32.056Z</time></trkpt><trkpt lat="43.4675573" lon="11.431615"><ele>376.0</ele><time>2026-04-11T09:05:33.056Z</time></trkpt><trkpt lat="43.4676822" lon="11.4316879"><ele>376.0</ele><time>2026-04-11T09:05:34.055Z</time></trkpt><trkpt lat="43.4678082" lon="11.431776"><ele>376.0</ele><time>2026-04-11T09:05:35.056Z</time></trkpt><trkpt lat="43.4679126" lon="11.4318822"><ele>375.75</ele><time>2026-04-11T09:05:36.055Z</time></trkpt><trkpt lat="43.4679968" lon="11.4320134"><ele>375.5</ele><time>2026-04-11T09:05:37.056Z</time></trkpt><trkpt lat="43.46808" lon="11.4321357"><ele>375.25</ele><time>2026-04-11T09:05:38.056Z</time></trkpt><trkpt lat="43.4681572" lon="11.432257"><ele>375.0</ele><time>2026-04-11T09:05:39.056Z</time></trkpt><trkpt lat="43.4682494" lon="11.4323903"><ele>372.8</ele><time>2026-04-11T09:05:40.056Z</time></trkpt><trkpt lat="43.4683292" lon="11.4325026"><ele>370.6</ele><time>2026-04-11T09:05:41.057Z</time></trkpt><trkpt lat="43.4683956" lon="11.4326021"><ele>368.4</ele><time>2026-04-11T09:05:42.056Z</time></trkpt><trkpt lat="43.4684492" lon="11.4326951"><ele>366.2</ele><time>2026-04-11T09:05:43.057Z</time></trkpt><trkpt lat="43.4684834" lon="11.4328044"><ele>364.0</ele><time>2026-04-11T09:05:44.057Z</time></trkpt><trkpt lat="43.4685062" lon="11.4329239"><ele>363.0</ele><time>2026-04-11T09:05:45.057Z</time></trkpt><trkpt lat="43.4685271" lon="11.4330502"><ele>362.0</ele><time>2026-04-11T09:05:46.056Z</time></trkpt><trkpt lat="43.4685469" lon="11.4331377"><ele>361.0</ele><time>2026-04-11T09:05:47.057Z</time></trkpt><trkpt lat="43.4685239" lon="11.433242"><ele>360.0</ele><time>2026-04-11T09:05:49.056Z</time></trkpt><trkpt lat="43.468459" lon="11.4333141"><ele>359.0</ele><time>2026-04-11T09:05:51.056Z</time></trkpt><trkpt lat="43.4683405" lon="11.4333475"><ele>358.0</ele><time>2026-04-11T09:05:53.056Z</time></trkpt><trkpt lat="43.4682463" lon="11.4333866"><ele>358.0</ele><time>2026-04-11T09:05:54.056Z</time></trkpt><trkpt lat="43.4681538" lon="11.4334492"><ele>358.0</ele><time>2026-04-11T09:05:55.056Z</time></trkpt><trkpt lat="43.4680631" lon="11.4335234"><ele>358.0</ele><time>2026-04-11T09:05:56.057Z</time></trkpt><trkpt lat="43.4680031" lon="11.4335881"><ele>358.0</ele><time>2026-04-11T09:05:57.056Z</time></trkpt><trkpt lat="43.4679408" lon="11.4336508"><ele>358.0</ele><time>2026-04-11T09:05:58.056Z</time></trkpt><trkpt lat="43.4678784" lon="11.4337161"><ele>358.0</ele><time>2026-04-11T09:05:59.056Z</time></trkpt><trkpt lat="43.4678112" lon="11.4337786"><ele>357.3333333333333</ele><time>2026-04-11T09:06:00.056Z</time></trkpt><trkpt lat="43.4677477" lon="11.4338417"><ele>356.66666666666663</ele><time>2026-04-11T09:06:01.056Z</time></trkpt><trkpt lat="43.4676928" lon="11.433885"><ele>356.0</ele><time>2026-04-11T09:06:04.056Z</time></trkpt><trkpt lat="43.4676295" lon="11.4339728"><ele>355.3333333333333</ele><time>2026-04-11T09:06:16.057Z</time></trkpt><trkpt lat="43.4675584" lon="11.4340427"><ele>354.6666666666667</ele><time>2026-04-11T09:06:18.057Z</time></trkpt><trkpt lat="43.4674482" lon="11.4341133"><ele>354.0</ele><time>2026-04-11T09:06:20.056Z</time></trkpt><trkpt lat="43.4673837" lon="11.4341497"><ele>354.0</ele><time>2026-04-11T09:06:21.057Z</time></trkpt><trkpt lat="43.4673172" lon="11.4341859"><ele>354.0</ele><time>2026-04-11T09:06:22.056Z</time></trkpt><trkpt lat="43.4672319" lon="11.4342218"><ele>354.0</ele><time>2026-04-11T09:06:23.057Z</time></trkpt><trkpt lat="43.4671398" lon="11.4342597"><ele>354.0</ele><time>2026-04-11T09:06:24.056Z</time></trkpt><trkpt lat="43.4670384" lon="11.43429"><ele>354.0</ele><time>2026-04-11T09:06:25.056Z</time></trkpt><trkpt lat="43.4669256" lon="11.4343127"><ele>353.25</ele><time>2026-04-11T09:06:26.057Z</time></trkpt><trkpt lat="43.4668136" lon="11.4343292"><ele>352.5</ele><time>2026-04-11T09:06:27.056Z</time></trkpt><trkpt lat="43.466703" lon="11.4343452"><ele>351.75</ele><time>2026-04-11T09:06:28.056Z</time></trkpt><trkpt lat="43.4665891" lon="11.4343558"><ele>351.0</ele><time>2026-04-11T09:06:29.057Z</time></trkpt><trkpt lat="43.4664719" lon="11.4343563"><ele>351.0</ele><time>2026-04-11T09:06:30.056Z</time></trkpt><trkpt lat="43.4663438" lon="11.4343352"><ele>351.0</ele><time>2026-04-11T09:06:31.057Z</time></trkpt><trkpt lat="43.4662312" lon="11.4343246"><ele>351.0</ele><time>2026-04-11T09:06:32.056Z</time></trkpt><trkpt lat="43.4661208" lon="11.4343088"><ele>351.0</ele><time>2026-04-11T09:06:33.056Z</time></trkpt><trkpt lat="43.4660154" lon="11.4342812"><ele>350.25</ele><time>2026-04-11T09:06:34.056Z</time></trkpt><trkpt lat="43.4659167" lon="11.4342463"><ele>349.5</ele><time>2026-04-11T09:06:35.056Z</time></trkpt><trkpt lat="43.4658069" lon="11.4342094"><ele>348.75</ele><time>2026-04-11T09:06:36.057Z</time></trkpt><trkpt lat="43.4656958" lon="11.4341624"><ele>348.0</ele><time>2026-04-11T09:06:37.057Z</time></trkpt><trkpt lat="43.4655781" lon="11.4341082"><ele>348.0</ele><time>2026-04-11T09:06:38.056Z</time></trkpt><trkpt lat="43.4654705" lon="11.4340307"><ele>348.0</ele><time>2026-04-11T09:06:39.057Z</time></trkpt><trkpt lat="43.4653787" lon="11.4339272"><ele>348.0</ele><time>2026-04-11T09:06:40.057Z</time></trkpt><trkpt lat="43.4652987" lon="11.4338053"><ele>348.0</ele><time>2026-04-11T09:06:41.058Z</time></trkpt><trkpt lat="43.4652178" lon="11.4336669"><ele>348.0</ele><time>2026-04-11T09:06:42.058Z</time></trkpt><trkpt lat="43.4651343" lon="11.4335201"><ele>348.0</ele><time>2026-04-11T09:06:43.057Z</time></trkpt><trkpt lat="43.4650512" lon="11.4333805"><ele>348.0</ele><time>2026-04-11T09:06:44.057Z</time></trkpt><trkpt lat="43.4649689" lon="11.4332632"><ele>348.0</ele><time>2026-04-11T09:06:45.057Z</time></trkpt><trkpt lat="43.4648797" lon="11.4331652"><ele>348.0</ele><time>2026-04-11T09:06:46.057Z</time></trkpt><trkpt lat="43.4647776" lon="11.4330835"><ele>348.0</ele><time>2026-04-11T09:06:47.057Z</time></trkpt><trkpt lat="43.4646638" lon="11.4330114"><ele>348.0</ele><time>2026-04-11T09:06:48.057Z</time></trkpt><trkpt lat="43.4645541" lon="11.4329367"><ele>348.0</ele><time>2026-04-11T09:06:49.057Z</time></trkpt><trkpt lat="43.464448" lon="11.4328542"><ele>348.25</ele><time>2026-04-11T09:06:50.058Z</time></trkpt><trkpt lat="43.4643564" lon="11.4327667"><ele>348.5</ele><time>2026-04-11T09:06:51.058Z</time></trkpt><trkpt lat="43.4642778" lon="11.432665"><ele>348.75</ele><time>2026-04-11T09:06:52.057Z</time></trkpt><trkpt lat="43.4642045" lon="11.4325417"><ele>349.0</ele><time>2026-04-11T09:06:53.058Z</time></trkpt><trkpt lat="43.4641339" lon="11.4323962"><ele>349.0</ele><time>2026-04-11T09:06:54.058Z</time></trkpt><trkpt lat="43.4640605" lon="11.43223"><ele>349.0</ele><time>2026-04-11T09:06:55.057Z</time></trkpt><trkpt lat="43.4639928" lon="11.4320474"><ele>349.0</ele><time>2026-04-11T09:06:56.057Z</time></trkpt><trkpt lat="43.4639267" lon="11.4318565"><ele>349.0</ele><time>2026-04-11T09:06:57.057Z</time></trkpt><trkpt lat="43.4638599" lon="11.4316686"><ele>348.5</ele><time>2026-04-11T09:06:58.058Z</time></trkpt><trkpt lat="43.463791" lon="11.4314855"><ele>348.0</ele><time>2026-04-11T09:06:59.057Z</time></trkpt><trkpt lat="43.4637231" lon="11.431309"><ele>347.5</ele><time>2026-04-11T09:07:00.058Z</time></trkpt><trkpt lat="43.4636542" lon="11.4311372"><ele>347.0</ele><time>2026-04-11T09:07:01.058Z</time></trkpt><trkpt lat="43.4635865" lon="11.4309669"><ele>347.0</ele><time>2026-04-11T09:07:02.057Z</time></trkpt><trkpt lat="43.4635088" lon="11.4307951"><ele>347.0</ele><time>2026-04-11T09:07:03.058Z</time></trkpt><trkpt lat="43.4634211" lon="11.4306407"><ele>347.0</ele><time>2026-04-11T09:07:04.058Z</time></trkpt><trkpt lat="43.463326" lon="11.4305012"><ele>347.0</ele><time>2026-04-11T09:07:05.058Z</time></trkpt><trkpt lat="43.4632289" lon="11.4303665"><ele>346.8</ele><time>2026-04-11T09:07:06.058Z</time></trkpt><trkpt lat="43.4631402" lon="11.4302367"><ele>346.6</ele><time>2026-04-11T09:07:07.057Z</time></trkpt><trkpt lat="43.463071" lon="11.4301138"><ele>346.40000000000003</ele><time>2026-04-11T09:07:08.057Z</time></trkpt><trkpt lat="43.4630177" lon="11.4300101"><ele>346.20000000000005</ele><time>2026-04-11T09:07:09.057Z</time></trkpt><trkpt lat="43.4629726" lon="11.4299192"><ele>346.0</ele><time>2026-04-11T09:07:10.058Z</time></trkpt><trkpt lat="43.4629266" lon="11.4298332"><ele>346.0</ele><time>2026-04-11T09:07:11.058Z</time></trkpt><trkpt lat="43.4628602" lon="11.4297421"><ele>346.0</ele><time>2026-04-11T09:07:12.057Z</time></trkpt><trkpt lat="43.4627684" lon="11.4296277"><ele>346.0</ele><time>2026-04-11T09:07:13.057Z</time></trkpt><trkpt lat="43.4626595" lon="11.429477"><ele>346.0</ele><time>2026-04-11T09:07:14.058Z</time></trkpt><trkpt lat="43.462524" lon="11.4292894"><ele>346.0</ele><time>2026-04-11T09:07:15.057Z</time></trkpt><trkpt lat="43.4623943" lon="11.4291206"><ele>346.0</ele><time>2026-04-11T09:07:16.057Z</time></trkpt><trkpt lat="43.4622707" lon="11.4289605"><ele>346.0</ele><time>2026-04-11T09:07:17.058Z</time></trkpt><trkpt lat="43.4621508" lon="11.4288138"><ele>344.66666666666663</ele><time>2026-04-11T09:07:18.057Z</time></trkpt><trkpt lat="43.4620326" lon="11.4286718"><ele>343.3333333333333</ele><time>2026-04-11T09:07:19.058Z</time></trkpt><trkpt lat="43.4619153" lon="11.4285288"><ele>342.0</ele><time>2026-04-11T09:07:20.057Z</time></trkpt><trkpt lat="43.4617972" lon="11.4283884"><ele>342.0</ele><time>2026-04-11T09:07:21.058Z</time></trkpt><trkpt lat="43.4616746" lon="11.4282469"><ele>342.0</ele><time>2026-04-11T09:07:22.057Z</time></trkpt><trkpt lat="43.4615457" lon="11.428104"><ele>342.0</ele><time>2026-04-11T09:07:23.058Z</time></trkpt><trkpt lat="43.4614091" lon="11.4279571"><ele>341.3333333333333</ele><time>2026-04-11T09:07:24.058Z</time></trkpt><trkpt lat="43.461267" lon="11.427811"><ele>340.66666666666663</ele><time>2026-04-11T09:07:25.058Z</time></trkpt><trkpt lat="43.4611276" lon="11.4276674"><ele>340.0</ele><time>2026-04-11T09:07:26.057Z</time></trkpt><trkpt lat="43.4609973" lon="11.4275325"><ele>340.0</ele><time>2026-04-11T09:07:27.058Z</time></trkpt><trkpt lat="43.4608726" lon="11.4274037"><ele>340.0</ele><time>2026-04-11T09:07:28.057Z</time></trkpt><trkpt lat="43.4607469" lon="11.4272741"><ele>340.0</ele><time>2026-04-11T09:07:29.057Z</time></trkpt><trkpt lat="43.4606157" lon="11.427154"><ele>341.0</ele><time>2026-04-11T09:07:30.057Z</time></trkpt><trkpt lat="43.460476" lon="11.4270537"><ele>342.0</ele><time>2026-04-11T09:07:31.058Z</time></trkpt><trkpt lat="43.4603203" lon="11.4269741"><ele>343.0</ele><time>2026-04-11T09:07:32.057Z</time></trkpt><trkpt lat="43.4601498" lon="11.4269086"><ele>343.0</ele><time>2026-04-11T09:07:33.057Z</time></trkpt><trkpt lat="43.4599682" lon="11.4268417"><ele>343.0</ele><time>2026-04-11T09:07:34.058Z</time></trkpt><trkpt lat="43.4597808" lon="11.4267663"><ele>343.0</ele><time>2026-04-11T09:07:35.057Z</time></trkpt><trkpt lat="43.4595938" lon="11.4266855"><ele>341.66666666666663</ele><time>2026-04-11T09:07:36.057Z</time></trkpt><trkpt lat="43.4594074" lon="11.4266052"><ele>340.3333333333333</ele><time>2026-04-11T09:07:37.058Z</time></trkpt><trkpt lat="43.4592263" lon="11.4265256"><ele>339.0</ele><time>2026-04-11T09:07:38.058Z</time></trkpt><trkpt lat="43.4590445" lon="11.4264441"><ele>339.0</ele><time>2026-04-11T09:07:39.058Z</time></trkpt><trkpt lat="43.4588563" lon="11.4263628"><ele>339.0</ele><time>2026-04-11T09:07:40.057Z</time></trkpt><trkpt lat="43.4586671" lon="11.426281"><ele>339.0</ele><time>2026-04-11T09:07:41.057Z</time></trkpt><trkpt lat="43.4584788" lon="11.4262001"><ele>338.0</ele><time>2026-04-11T09:07:42.057Z</time></trkpt><trkpt lat="43.458296" lon="11.4261208"><ele>337.0</ele><time>2026-04-11T09:07:43.057Z</time></trkpt><trkpt lat="43.4581159" lon="11.426041"><ele>336.0</ele><time>2026-04-11T09:07:44.058Z</time></trkpt><trkpt lat="43.4579363" lon="11.4259605"><ele>336.0</ele><time>2026-04-11T09:07:45.057Z</time></trkpt><trkpt lat="43.4577558" lon="11.4258803"><ele>336.0</ele><time>2026-04-11T09:07:46.058Z</time></trkpt><trkpt lat="43.4575751" lon="11.4257986"><ele>336.0</ele><time>2026-04-11T09:07:47.058Z</time></trkpt><trkpt lat="43.4573982" lon="11.425721"><ele>336.0</ele><time>2026-04-11T09:07:48.058Z</time></trkpt><trkpt lat="43.4572274" lon="11.4256486"><ele>336.0</ele><time>2026-04-11T09:07:49.058Z</time></trkpt><trkpt lat="43.4570641" lon="11.4255847"><ele>336.0</ele><time>2026-04-11T09:07:50.059Z</time></trkpt><trkpt lat="43.4569048" lon="11.4255343"><ele>338.0</ele><time>2026-04-11T09:07:51.058Z</time></trkpt><trkpt lat="43.4567501" lon="11.425496"><ele>340.0</ele><time>2026-04-11T09:07:52.059Z</time></trkpt><trkpt lat="43.4566017" lon="11.4254674"><ele>342.0</ele><time>2026-04-11T09:07:53.059Z</time></trkpt><trkpt lat="43.4564587" lon="11.4254542"><ele>340.75</ele><time>2026-04-11T09:07:54.059Z</time></trkpt><trkpt lat="43.4563238" lon="11.4254559"><ele>339.5</ele><time>2026-04-11T09:07:55.059Z</time></trkpt><trkpt lat="43.4562008" lon="11.4254496"><ele>338.25</ele><time>2026-04-11T09:07:56.059Z</time></trkpt><trkpt lat="43.4560916" lon="11.4254018"><ele>337.0</ele><time>2026-04-11T09:07:57.058Z</time></trkpt><trkpt lat="43.455989" lon="11.4252939"><ele>337.0</ele><time>2026-04-11T09:07:58.058Z</time></trkpt><trkpt lat="43.4558744" lon="11.4251488"><ele>337.0</ele><time>2026-04-11T09:07:59.059Z</time></trkpt><trkpt lat="43.4557581" lon="11.4250115"><ele>337.0</ele><time>2026-04-11T09:08:00.059Z</time></trkpt><trkpt lat="43.455643" lon="11.4248857"><ele>337.0</ele><time>2026-04-11T09:08:01.058Z</time></trkpt><trkpt lat="43.4555338" lon="11.4247712"><ele>337.0</ele><time>2026-04-11T09:08:02.058Z</time></trkpt><trkpt lat="43.4554361" lon="11.42467"><ele>337.0</ele><time>2026-04-11T09:08:03.058Z</time></trkpt><trkpt lat="43.4553449" lon="11.4245772"><ele>337.0</ele><time>2026-04-11T09:08:04.059Z</time></trkpt><trkpt lat="43.455252" lon="11.424485"><ele>336.20000000000005</ele><time>2026-04-11T09:08:05.059Z</time></trkpt><trkpt lat="43.4551678" lon="11.4243943"><ele>335.4</ele><time>2026-04-11T09:08:06.059Z</time></trkpt><trkpt lat="43.4550903" lon="11.424309"><ele>334.6</ele><time>2026-04-11T09:08:07.058Z</time></trkpt><trkpt lat="43.4550176" lon="11.4242335"><ele>333.79999999999995</ele><time>2026-04-11T09:08:08.058Z</time></trkpt><trkpt lat="43.4549519" lon="11.4241646"><ele>333.0</ele><time>2026-04-11T09:08:09.058Z</time></trkpt><trkpt lat="43.4548873" lon="11.4240959"><ele>333.0</ele><time>2026-04-11T09:08:10.058Z</time></trkpt><trkpt lat="43.4548233" lon="11.4240288"><ele>333.0</ele><time>2026-04-11T09:08:11.059Z</time></trkpt><trkpt lat="43.4547676" lon="11.4239731"><ele>333.0</ele><time>2026-04-11T09:08:12.059Z</time></trkpt><trkpt lat="43.4547014" lon="11.4239183"><ele>333.0</ele><time>2026-04-11T09:08:14.059Z</time></trkpt><trkpt lat="43.4546304" lon="11.4240229"><ele>333.0</ele><time>2026-04-11T09:08:17.058Z</time></trkpt><trkpt lat="43.454561" lon="11.4241615"><ele>332.8333333333333</ele><time>2026-04-11T09:08:19.058Z</time></trkpt><trkpt lat="43.4545121" lon="11.4242448"><ele>332.6666666666667</ele><time>2026-04-11T09:08:20.058Z</time></trkpt><trkpt lat="43.4544619" lon="11.4243261"><ele>332.5</ele><time>2026-04-11T09:08:21.058Z</time></trkpt><trkpt lat="43.4544113" lon="11.4244081"><ele>332.33333333333337</ele><time>2026-04-11T09:08:22.058Z</time></trkpt><trkpt lat="43.4543452" lon="11.4245331"><ele>332.1666666666667</ele><time>2026-04-11T09:08:24.059Z</time></trkpt><trkpt lat="43.4542902" lon="11.4246442"><ele>332.0</ele><time>2026-04-11T09:08:26.059Z</time></trkpt><trkpt lat="43.4542424" lon="11.4247366"><ele>332.0</ele><time>2026-04-11T09:08:28.058Z</time></trkpt><trkpt lat="43.4541977" lon="11.4248206"><ele>332.0</ele><time>2026-04-11T09:08:30.059Z</time></trkpt><trkpt lat="43.454137" lon="11.4249065"><ele>332.0</ele><time>2026-04-11T09:08:33.059Z</time></trkpt><trkpt lat="43.4540646" lon="11.4250262"><ele>332.0</ele><time>2026-04-11T09:08:57.06Z</time></trkpt><trkpt lat="43.4540108" lon="11.4251129"><ele>332.0</ele><time>2026-04-11T09:08:58.06Z</time></trkpt><trkpt lat="43.4539389" lon="11.4252197"><ele>332.0</ele><time>2026-04-11T09:08:59.059Z</time></trkpt><trkpt lat="43.4538558" lon="11.4253436"><ele>332.0</ele><time>2026-04-11T09:09:00.059Z</time></trkpt><trkpt lat="43.453768" lon="11.4254687"><ele>332.0</ele><time>2026-04-11T09:09:01.059Z</time></trkpt><trkpt lat="43.4536724" lon="11.4256016"><ele>332.0</ele><time>2026-04-11T09:09:02.06Z</time></trkpt><trkpt lat="43.4535699" lon="11.4257424"><ele>333.25</ele><time>2026-04-11T09:09:03.06Z</time></trkpt><trkpt lat="43.4534659" lon="11.4258839"><ele>334.5</ele><time>2026-04-11T09:09:04.059Z</time></trkpt><trkpt lat="43.4533631" lon="11.4260284"><ele>335.75</ele><time>2026-04-11T09:09:05.06Z</time></trkpt><trkpt lat="43.4532645" lon="11.4261709"><ele>337.0</ele><time>2026-04-11T09:09:06.06Z</time></trkpt><trkpt lat="43.4531689" lon="11.4263119"><ele>337.0</ele><time>2026-04-11T09:09:07.06Z</time></trkpt><trkpt lat="43.4530753" lon="11.4264466"><ele>337.0</ele><time>2026-04-11T09:09:08.059Z</time></trkpt><trkpt lat="43.452979" lon="11.4265804"><ele>337.0</ele><time>2026-04-11T09:09:09.06Z</time></trkpt><trkpt lat="43.4528882" lon="11.4267046"><ele>337.0</ele><time>2026-04-11T09:09:10.06Z</time></trkpt><trkpt lat="43.4528007" lon="11.426823"><ele>338.8</ele><time>2026-04-11T09:09:11.059Z</time></trkpt><trkpt lat="43.4527215" lon="11.4269358"><ele>340.6</ele><time>2026-04-11T09:09:12.06Z</time></trkpt><trkpt lat="43.4526492" lon="11.4270408"><ele>342.40000000000003</ele><time>2026-04-11T09:09:13.06Z</time></trkpt><trkpt lat="43.4525808" lon="11.4271437"><ele>344.20000000000005</ele><time>2026-04-11T09:09:14.06Z</time></trkpt><trkpt lat="43.4525113" lon="11.4272466"><ele>346.0</ele><time>2026-04-11T09:09:15.06Z</time></trkpt><trkpt lat="43.4524383" lon="11.4273481"><ele>346.0</ele><time>2026-04-11T09:09:16.059Z</time></trkpt><trkpt lat="43.4523572" lon="11.4274442"><ele>346.0</ele><time>2026-04-11T09:09:17.059Z</time></trkpt><trkpt lat="43.4522579" lon="11.4275266"><ele>346.0</ele><time>2026-04-11T09:09:18.059Z</time></trkpt><trkpt lat="43.4521405" lon="11.4275879"><ele>346.0</ele><time>2026-04-11T09:09:19.059Z</time></trkpt><trkpt lat="43.4520099" lon="11.4276408"><ele>349.66666666666663</ele><time>2026-04-11T09:09:20.059Z</time></trkpt><trkpt lat="43.4518688" lon="11.4276954"><ele>353.3333333333333</ele><time>2026-04-11T09:09:21.059Z</time></trkpt><trkpt lat="43.451724" lon="11.4277646"><ele>357.0</ele><time>2026-04-11T09:09:22.059Z</time></trkpt><trkpt lat="43.451576" lon="11.4278419"><ele>357.0</ele><time>2026-04-11T09:09:23.059Z</time></trkpt><trkpt lat="43.4514351" lon="11.4279238"><ele>357.0</ele><time>2026-04-11T09:09:24.059Z</time></trkpt><trkpt lat="43.4513035" lon="11.4279925"><ele>357.0</ele><time>2026-04-11T09:09:25.06Z</time></trkpt><trkpt lat="43.4511785" lon="11.42806"><ele>357.0</ele><time>2026-04-11T09:09:26.06Z</time></trkpt><trkpt lat="43.4510589" lon="11.4281475"><ele>359.40000000000003</ele><time>2026-04-11T09:09:27.059Z</time></trkpt><trkpt lat="43.4509629" lon="11.4282763"><ele>361.8</ele><time>2026-04-11T09:09:28.06Z</time></trkpt><trkpt lat="43.4509037" lon="11.4283947"><ele>364.2</ele><time>2026-04-11T09:09:29.06Z</time></trkpt><trkpt lat="43.4508749" lon="11.4284893"><ele>366.6</ele><time>2026-04-11T09:09:30.059Z</time></trkpt><trkpt lat="43.4508646" lon="11.4285964"><ele>369.0</ele><time>2026-04-11T09:09:32.059Z</time></trkpt><trkpt lat="43.4509223" lon="11.4286799"><ele>369.0</ele><time>2026-04-11T09:10:57.061Z</time></trkpt><trkpt lat="43.4509382" lon="11.4287714"><ele>369.0</ele><time>2026-04-11T09:10:58.061Z</time></trkpt><trkpt lat="43.4509673" lon="11.428912"><ele>369.0</ele><time>2026-04-11T09:10:59.061Z</time></trkpt><trkpt lat="43.4510076" lon="11.4290903"><ele>369.0</ele><time>2026-04-11T09:11:00.061Z</time></trkpt><trkpt lat="43.4510375" lon="11.4292598"><ele>369.0</ele><time>2026-04-11T09:11:01.062Z</time></trkpt><trkpt lat="43.4510577" lon="11.4294252"><ele>369.2</ele><time>2026-04-11T09:11:02.062Z</time></trkpt><trkpt lat="43.4510548" lon="11.4295669"><ele>369.4</ele><time>2026-04-11T09:11:03.061Z</time></trkpt><trkpt lat="43.4510147" lon="11.4296822"><ele>369.6</ele><time>2026-04-11T09:11:04.061Z</time></trkpt><trkpt lat="43.4509422" lon="11.4298035"><ele>369.8</ele><time>2026-04-11T09:11:05.061Z</time></trkpt><trkpt lat="43.4508565" lon="11.4299398"><ele>370.0</ele><time>2026-04-11T09:11:06.061Z</time></trkpt><trkpt lat="43.45077" lon="11.4301034"><ele>370.25</ele><time>2026-04-11T09:11:07.061Z</time></trkpt><trkpt lat="43.4507158" lon="11.43029"><ele>370.5</ele><time>2026-04-11T09:11:08.061Z</time></trkpt><trkpt lat="43.4507027" lon="11.4304815"><ele>370.75</ele><time>2026-04-11T09:11:09.062Z</time></trkpt><trkpt lat="43.4507241" lon="11.4306841"><ele>371.0</ele><time>2026-04-11T09:11:10.061Z</time></trkpt><trkpt lat="43.4507576" lon="11.4308669"><ele>371.75</ele><time>2026-04-11T09:11:11.062Z</time></trkpt><trkpt lat="43.4507934" lon="11.4310324"><ele>372.5</ele><time>2026-04-11T09:11:12.062Z</time></trkpt><trkpt lat="43.4508204" lon="11.4311894"><ele>373.25</ele><time>2026-04-11T09:11:13.061Z</time></trkpt><trkpt lat="43.4508134" lon="11.4313429"><ele>374.0</ele><time>2026-04-11T09:11:14.062Z</time></trkpt><trkpt lat="43.4507751" lon="11.4314937"><ele>374.33333333333337</ele><time>2026-04-11T09:11:15.062Z</time></trkpt><trkpt lat="43.4506913" lon="11.4316486"><ele>374.6666666666667</ele><time>2026-04-11T09:11:16.062Z</time></trkpt><trkpt lat="43.45058" lon="11.4318112"><ele>375.0</ele><time>2026-04-11T09:11:17.062Z</time></trkpt><trkpt lat="43.4504693" lon="11.4319801"><ele>380.0</ele><time>2026-04-11T09:11:18.062Z</time></trkpt><trkpt lat="43.4503873" lon="11.4321535"><ele>385.0</ele><time>2026-04-11T09:11:19.062Z</time></trkpt><trkpt lat="43.450347" lon="11.4323355"><ele>390.0</ele><time>2026-04-11T09:11:20.061Z</time></trkpt><trkpt lat="43.4503189" lon="11.4325514"><ele>395.0</ele><time>2026-04-11T09:11:21.061Z</time></trkpt><trkpt lat="43.4503046" lon="11.4328013"><ele>396.0</ele><time>2026-04-11T09:11:22.062Z</time></trkpt><trkpt lat="43.4502959" lon="11.4330723"><ele>397.0</ele><time>2026-04-11T09:11:23.061Z</time></trkpt><trkpt lat="43.4502802" lon="11.4333311"><ele>398.0</ele><time>2026-04-11T09:11:24.062Z</time></trkpt><trkpt lat="43.4502753" lon="11.4335503"><ele>398.0</ele><time>2026-04-11T09:11:25.061Z</time></trkpt><trkpt lat="43.450283" lon="11.4337556"><ele>398.0</ele><time>2026-04-11T09:11:26.061Z</time></trkpt><trkpt lat="43.4503226" lon="11.433943"><ele>398.0</ele><time>2026-04-11T09:11:27.062Z</time></trkpt><trkpt lat="43.4503842" lon="11.4341222"><ele>398.0</ele><time>2026-04-11T09:11:28.061Z</time></trkpt><trkpt lat="43.4504512" lon="11.4342934"><ele>397.4</ele><time>2026-04-11T09:11:29.061Z</time></trkpt><trkpt lat="43.4505075" lon="11.4344433"><ele>396.79999999999995</ele><time>2026-04-11T09:11:30.061Z</time></trkpt><trkpt lat="43.4505277" lon="11.4345489"><ele>396.2</ele><time>2026-04-11T09:11:31.062Z</time></trkpt><trkpt lat="43.4505078" lon="11.4346448"><ele>395.6</ele><time>2026-04-11T09:11:32.061Z</time></trkpt><trkpt lat="43.4504313" lon="11.4347212"><ele>395.0</ele><time>2026-04-11T09:11:33.061Z</time></trkpt><trkpt lat="43.4503237" lon="11.4347957"><ele>395.0</ele><time>2026-04-11T09:11:34.061Z</time></trkpt><trkpt lat="43.4501856" lon="11.4349016"><ele>395.0</ele><time>2026-04-11T09:11:35.061Z</time></trkpt><trkpt lat="43.450051" lon="11.4350457"><ele>395.0</ele><time>2026-04-11T09:11:36.061Z</time></trkpt><trkpt lat="43.4499247" lon="11.4352143"><ele>395.0</ele><time>2026-04-11T09:11:37.062Z</time></trkpt><trkpt lat="43.4498109" lon="11.4354031"><ele>395.0</ele><time>2026-04-11T09:11:38.062Z</time></trkpt><trkpt lat="43.4497131" lon="11.4355881"><ele>395.0</ele><time>2026-04-11T09:11:39.062Z</time></trkpt><trkpt lat="43.4496229" lon="11.4357549"><ele>396.5</ele><time>2026-04-11T09:11:40.061Z</time></trkpt><trkpt lat="43.4495358" lon="11.4358934"><ele>398.0</ele><time>2026-04-11T09:11:41.062Z</time></trkpt><trkpt lat="43.4494413" lon="11.4359971"><ele>399.5</ele><time>2026-04-11T09:11:42.061Z</time></trkpt><trkpt lat="43.4493346" lon="11.43606"><ele>401.0</ele><time>2026-04-11T09:11:43.062Z</time></trkpt><trkpt lat="43.4492127" lon="11.4360796"><ele>401.0</ele><time>2026-04-11T09:11:44.061Z</time></trkpt><trkpt lat="43.4490669" lon="11.4360531"><ele>401.0</ele><time>2026-04-11T09:11:45.061Z</time></trkpt><trkpt lat="43.4489098" lon="11.4360073"><ele>401.0</ele><time>2026-04-11T09:11:46.061Z</time></trkpt><trkpt lat="43.4487534" lon="11.4359661"><ele>403.25</ele><time>2026-04-11T09:11:47.061Z</time></trkpt><trkpt lat="43.4486016" lon="11.4359253"><ele>405.5</ele><time>2026-04-11T09:11:48.062Z</time></trkpt><trkpt lat="43.4484855" lon="11.4358867"><ele>407.75</ele><time>2026-04-11T09:11:49.062Z</time></trkpt><trkpt lat="43.4483989" lon="11.4358431"><ele>410.0</ele><time>2026-04-11T09:11:50.062Z</time></trkpt><trkpt lat="43.4483355" lon="11.4357619"><ele>410.0</ele><time>2026-04-11T09:11:51.062Z</time></trkpt><trkpt lat="43.4483017" lon="11.4356469"><ele>410.0</ele><time>2026-04-11T09:11:52.062Z</time></trkpt><trkpt lat="43.4483273" lon="11.4355213"><ele>410.0</ele><time>2026-04-11T09:11:53.061Z</time></trkpt><trkpt lat="43.4483931" lon="11.4354105"><ele>410.0</ele><time>2026-04-11T09:11:54.062Z</time></trkpt><trkpt lat="43.4485238" lon="11.4352748"><ele>409.3333333333333</ele><time>2026-04-11T09:11:55.061Z</time></trkpt><trkpt lat="43.4486847" lon="11.4351103"><ele>408.66666666666663</ele><time>2026-04-11T09:11:56.061Z</time></trkpt><trkpt lat="43.4488258" lon="11.4349316"><ele>408.0</ele><time>2026-04-11T09:11:57.061Z</time></trkpt><trkpt lat="43.4489393" lon="11.4347314"><ele>409.33333333333337</ele><time>2026-04-11T09:11:58.062Z</time></trkpt><trkpt lat="43.4490349" lon="11.4345087"><ele>410.6666666666667</ele><time>2026-04-11T09:11:59.063Z</time></trkpt><trkpt lat="43.4491015" lon="11.4343274"><ele>412.0</ele><time>2026-04-11T09:12:00.062Z</time></trkpt><trkpt lat="43.4491505" lon="11.4341722"><ele>412.0</ele><time>2026-04-11T09:12:01.062Z</time></trkpt><trkpt lat="43.4491631" lon="11.434036"><ele>412.0</ele><time>2026-04-11T09:12:02.062Z</time></trkpt><trkpt lat="43.4491299" lon="11.4338977"><ele>412.0</ele><time>2026-04-11T09:12:03.063Z</time></trkpt><trkpt lat="43.4490632" lon="11.4337782"><ele>412.0</ele><time>2026-04-11T09:12:04.062Z</time></trkpt><trkpt lat="43.4489594" lon="11.4337246"><ele>412.0</ele><time>2026-04-11T09:12:05.062Z</time></trkpt><trkpt lat="43.4488433" lon="11.4337049"><ele>415.25</ele><time>2026-04-11T09:12:06.062Z</time></trkpt><trkpt lat="43.4487301" lon="11.4337491"><ele>418.5</ele><time>2026-04-11T09:12:07.063Z</time></trkpt><trkpt lat="43.4486188" lon="11.433897"><ele>421.75</ele><time>2026-04-11T09:12:08.063Z</time></trkpt><trkpt lat="43.4485131" lon="11.4340773"><ele>425.0</ele><time>2026-04-11T09:12:09.063Z</time></trkpt><trkpt lat="43.4483959" lon="11.4342558"><ele>425.0</ele><time>2026-04-11T09:12:10.063Z</time></trkpt><trkpt lat="43.4482593" lon="11.4343793"><ele>425.0</ele><time>2026-04-11T09:12:11.062Z</time></trkpt><trkpt lat="43.4480983" lon="11.4344472"><ele>425.0</ele><time>2026-04-11T09:12:12.062Z</time></trkpt><trkpt lat="43.4479172" lon="11.4344887"><ele>429.5</ele><time>2026-04-11T09:12:13.063Z</time></trkpt><trkpt lat="43.4477413" lon="11.4345296"><ele>434.0</ele><time>2026-04-11T09:12:14.063Z</time></trkpt><trkpt lat="43.447395" lon="11.4346306"><ele>435.3333333333333</ele><time>2026-04-11T09:12:16.062Z</time></trkpt><trkpt lat="43.4472233" lon="11.4346805"><ele>436.66666666666663</ele><time>2026-04-11T09:12:17.063Z</time></trkpt><trkpt lat="43.4470627" lon="11.4347315"><ele>438.0</ele><time>2026-04-11T09:12:18.063Z</time></trkpt><trkpt lat="43.446926" lon="11.4347835"><ele>438.0</ele><time>2026-04-11T09:12:19.063Z</time></trkpt><trkpt lat="43.4468044" lon="11.4348617"><ele>438.0</ele><time>2026-04-11T09:12:20.062Z</time></trkpt><trkpt lat="43.4466912" lon="11.4349816"><ele>438.0</ele><time>2026-04-11T09:12:21.062Z</time></trkpt><trkpt lat="43.4465815" lon="11.4351461"><ele>438.0</ele><time>2026-04-11T09:12:22.063Z</time></trkpt><trkpt lat="43.4464755" lon="11.4353466"><ele>437.0</ele><time>2026-04-11T09:12:23.062Z</time></trkpt><trkpt lat="43.4463712" lon="11.4355521"><ele>436.0</ele><time>2026-04-11T09:12:24.063Z</time></trkpt><trkpt lat="43.4462637" lon="11.435761"><ele>435.0</ele><time>2026-04-11T09:12:25.063Z</time></trkpt><trkpt lat="43.4461464" lon="11.4359661"><ele>438.66666666666663</ele><time>2026-04-11T09:12:26.063Z</time></trkpt><trkpt lat="43.4460274" lon="11.4361714"><ele>442.3333333333333</ele><time>2026-04-11T09:12:27.063Z</time></trkpt><trkpt lat="43.4459089" lon="11.4363753"><ele>446.0</ele><time>2026-04-11T09:12:28.063Z</time></trkpt><trkpt lat="43.445795" lon="11.4365663"><ele>446.3333333333333</ele><time>2026-04-11T09:12:29.063Z</time></trkpt><trkpt lat="43.4456904" lon="11.4367436"><ele>446.66666666666663</ele><time>2026-04-11T09:12:30.062Z</time></trkpt><trkpt lat="43.4455987" lon="11.4369073"><ele>447.0</ele><time>2026-04-11T09:12:31.062Z</time></trkpt><trkpt lat="43.445513" lon="11.4370614"><ele>446.0</ele><time>2026-04-11T09:12:32.063Z</time></trkpt><trkpt lat="43.445417" lon="11.4372327"><ele>445.0</ele><time>2026-04-11T09:12:33.063Z</time></trkpt><trkpt lat="43.4453092" lon="11.4374068"><ele>444.0</ele><time>2026-04-11T09:12:34.063Z</time></trkpt><trkpt lat="43.4451812" lon="11.4375641"><ele>444.0</ele><time>2026-04-11T09:12:35.062Z</time></trkpt><trkpt lat="43.4450407" lon="11.4376996"><ele>444.0</ele><time>2026-04-11T09:12:36.062Z</time></trkpt><trkpt lat="43.4449044" lon="11.4378075"><ele>444.0</ele><time>2026-04-11T09:12:37.062Z</time></trkpt><trkpt lat="43.4447765" lon="11.4378862"><ele>444.0</ele><time>2026-04-11T09:12:38.062Z</time></trkpt><trkpt lat="43.4446429" lon="11.4379481"><ele>444.0</ele><time>2026-04-11T09:12:39.062Z</time></trkpt><trkpt lat="43.4444979" lon="11.4379952"><ele>444.0</ele><time>2026-04-11T09:12:40.062Z</time></trkpt><trkpt lat="43.4443498" lon="11.438045"><ele>444.0</ele><time>2026-04-11T09:12:41.062Z</time></trkpt><trkpt lat="43.4442058" lon="11.4381014"><ele>446.25</ele><time>2026-04-11T09:12:42.062Z</time></trkpt><trkpt lat="43.4440654" lon="11.4381561"><ele>448.5</ele><time>2026-04-11T09:12:43.063Z</time></trkpt><trkpt lat="43.4439383" lon="11.4382013"><ele>450.75</ele><time>2026-04-11T09:12:44.062Z</time></trkpt><trkpt lat="43.4438274" lon="11.4382401"><ele>453.0</ele><time>2026-04-11T09:12:45.062Z</time></trkpt><trkpt lat="43.4437316" lon="11.4382752"><ele>453.0</ele><time>2026-04-11T09:12:46.063Z</time></trkpt><trkpt lat="43.443647" lon="11.4383364"><ele>452.99999999999994</ele><time>2026-04-11T09:12:47.062Z</time></trkpt><trkpt lat="43.4435684" lon="11.4384298"><ele>452.99999999999994</ele><time>2026-04-11T09:12:48.062Z</time></trkpt><trkpt lat="43.4434961" lon="11.4385519"><ele>453.0</ele><time>2026-04-11T09:12:49.063Z</time></trkpt><trkpt lat="43.4434328" lon="11.4386603"><ele>453.0</ele><time>2026-04-11T09:12:50.063Z</time></trkpt><trkpt lat="43.4433776" lon="11.4387486"><ele>453.79999999999995</ele><time>2026-04-11T09:12:51.062Z</time></trkpt><trkpt lat="43.4433393" lon="11.4388361"><ele>454.59999999999997</ele><time>2026-04-11T09:12:52.062Z</time></trkpt><trkpt lat="43.4433222" lon="11.4389459"><ele>455.40000000000003</ele><time>2026-04-11T09:12:53.063Z</time></trkpt><trkpt lat="43.4433426" lon="11.4390753"><ele>456.20000000000005</ele><time>2026-04-11T09:12:54.062Z</time></trkpt><trkpt lat="43.443399" lon="11.4392273"><ele>457.0</ele><time>2026-04-11T09:12:55.062Z</time></trkpt><trkpt lat="43.443481" lon="11.4393901"><ele>457.0</ele><time>2026-04-11T09:12:56.063Z</time></trkpt><trkpt lat="43.4435635" lon="11.4395663"><ele>457.0</ele><time>2026-04-11T09:12:57.063Z</time></trkpt><trkpt lat="43.4436174" lon="11.4397481"><ele>457.0</ele><time>2026-04-11T09:12:58.062Z</time></trkpt><trkpt lat="43.4436386" lon="11.4399351"><ele>457.0</ele><time>2026-04-11T09:12:59.063Z</time></trkpt><trkpt lat="43.4436233" lon="11.4401271"><ele>457.33333333333337</ele><time>2026-04-11T09:13:00.063Z</time></trkpt><trkpt lat="43.4435744" lon="11.4403299"><ele>457.66666666666663</ele><time>2026-04-11T09:13:01.063Z</time></trkpt><trkpt lat="43.4434882" lon="11.4405266"><ele>458.0</ele><time>2026-04-11T09:13:02.063Z</time></trkpt><trkpt lat="43.4433681" lon="11.4407078"><ele>458.0</ele><time>2026-04-11T09:13:03.063Z</time></trkpt><trkpt lat="43.4432285" lon="11.4408722"><ele>458.0</ele><time>2026-04-11T09:13:04.063Z</time></trkpt><trkpt lat="43.4430895" lon="11.4410242"><ele>458.0</ele><time>2026-04-11T09:13:05.062Z</time></trkpt><trkpt lat="43.4429562" lon="11.4411694"><ele>455.5</ele><time>2026-04-11T09:13:06.063Z</time></trkpt><trkpt lat="43.4428414" lon="11.4413164"><ele>453.0</ele><time>2026-04-11T09:13:07.064Z</time></trkpt><trkpt lat="43.4427596" lon="11.4414848"><ele>450.5</ele><time>2026-04-11T09:13:08.063Z</time></trkpt><trkpt lat="43.4427047" lon="11.4416629"><ele>448.0</ele><time>2026-04-11T09:13:09.064Z</time></trkpt><trkpt lat="43.4426773" lon="11.4418385"><ele>448.0</ele><time>2026-04-11T09:13:10.063Z</time></trkpt><trkpt lat="43.4426746" lon="11.4420069"><ele>448.0</ele><time>2026-04-11T09:13:11.063Z</time></trkpt><trkpt lat="43.4426981" lon="11.4421895"><ele>448.0</ele><time>2026-04-11T09:13:12.064Z</time></trkpt><trkpt lat="43.4427468" lon="11.4424019"><ele>448.0</ele><time>2026-04-11T09:13:13.064Z</time></trkpt><trkpt lat="43.442795" lon="11.4426287"><ele>448.33333333333337</ele><time>2026-04-11T09:13:14.064Z</time></trkpt><trkpt lat="43.4428314" lon="11.4428555"><ele>448.66666666666663</ele><time>2026-04-11T09:13:15.063Z</time></trkpt><trkpt lat="43.4428438" lon="11.4430632"><ele>449.0</ele><time>2026-04-11T09:13:16.063Z</time></trkpt><trkpt lat="43.4428195" lon="11.4432695"><ele>449.0</ele><time>2026-04-11T09:13:17.063Z</time></trkpt><trkpt lat="43.4427694" lon="11.4434788"><ele>449.0</ele><time>2026-04-11T09:13:18.064Z</time></trkpt><trkpt lat="43.4426989" lon="11.4437022"><ele>449.0</ele><time>2026-04-11T09:13:19.064Z</time></trkpt><trkpt lat="43.4426327" lon="11.4439176"><ele>449.0</ele><time>2026-04-11T09:13:20.064Z</time></trkpt><trkpt lat="43.4425584" lon="11.4441194"><ele>449.0</ele><time>2026-04-11T09:13:21.063Z</time></trkpt><trkpt lat="43.4424594" lon="11.4442875"><ele>449.0</ele><time>2026-04-11T09:13:22.063Z</time></trkpt><trkpt lat="43.4423332" lon="11.4444386"><ele>449.0</ele><time>2026-04-11T09:13:23.064Z</time></trkpt><trkpt lat="43.4421952" lon="11.4445816"><ele>449.0</ele><time>2026-04-11T09:13:24.064Z</time></trkpt><trkpt lat="43.4420595" lon="11.4447376"><ele>449.0</ele><time>2026-04-11T09:13:25.064Z</time></trkpt><trkpt lat="43.4419306" lon="11.4448836"><ele>450.5</ele><time>2026-04-11T09:13:26.063Z</time></trkpt><trkpt lat="43.4418157" lon="11.4450317"><ele>452.0</ele><time>2026-04-11T09:13:27.063Z</time></trkpt><trkpt lat="43.4417178" lon="11.4451851"><ele>453.5</ele><time>2026-04-11T09:13:28.063Z</time></trkpt><trkpt lat="43.4416486" lon="11.4453515"><ele>455.0</ele><time>2026-04-11T09:13:29.063Z</time></trkpt><trkpt lat="43.4416113" lon="11.4455391"><ele>456.3333333333333</ele><time>2026-04-11T09:13:30.064Z</time></trkpt><trkpt lat="43.4416066" lon="11.445743"><ele>457.66666666666663</ele><time>2026-04-11T09:13:31.064Z</time></trkpt><trkpt lat="43.4416373" lon="11.4459596"><ele>459.0</ele><time>2026-04-11T09:13:32.064Z</time></trkpt><trkpt lat="43.4416957" lon="11.446169"><ele>458.75</ele><time>2026-04-11T09:13:33.064Z</time></trkpt><trkpt lat="43.4417635" lon="11.4463607"><ele>458.5</ele><time>2026-04-11T09:13:34.064Z</time></trkpt><trkpt lat="43.4418545" lon="11.4465167"><ele>458.25</ele><time>2026-04-11T09:13:35.063Z</time></trkpt><trkpt lat="43.4419616" lon="11.4466397"><ele>458.0</ele><time>2026-04-11T09:13:36.064Z</time></trkpt><trkpt lat="43.4420712" lon="11.4467615"><ele>460.0</ele><time>2026-04-11T09:13:37.064Z</time></trkpt><trkpt lat="43.4421915" lon="11.4468973"><ele>462.0</ele><time>2026-04-11T09:13:38.064Z</time></trkpt><trkpt lat="43.4423222" lon="11.4470268"><ele>464.0</ele><time>2026-04-11T09:13:39.064Z</time></trkpt><trkpt lat="43.4424455" lon="11.447163"><ele>466.5</ele><time>2026-04-11T09:13:40.064Z</time></trkpt><trkpt lat="43.4425415" lon="11.4472942"><ele>469.0</ele><time>2026-04-11T09:13:41.063Z</time></trkpt><trkpt lat="43.4426132" lon="11.4474307"><ele>471.5</ele><time>2026-04-11T09:13:42.063Z</time></trkpt><trkpt lat="43.4426694" lon="11.4475701"><ele>474.0</ele><time>2026-04-11T09:13:43.064Z</time></trkpt><trkpt lat="43.4426835" lon="11.4477119"><ele>474.0</ele><time>2026-04-11T09:13:44.063Z</time></trkpt><trkpt lat="43.4426644" lon="11.4478519"><ele>474.0</ele><time>2026-04-11T09:13:45.064Z</time></trkpt><trkpt lat="43.4426168" lon="11.4479946"><ele>474.0</ele><time>2026-04-11T09:13:46.064Z</time></trkpt><trkpt lat="43.4425284" lon="11.4481486"><ele>474.0</ele><time>2026-04-11T09:13:47.064Z</time></trkpt><trkpt lat="43.4424249" lon="11.4483203"><ele>475.66666666666663</ele><time>2026-04-11T09:13:48.063Z</time></trkpt><trkpt lat="43.4423267" lon="11.4485014"><ele>477.3333333333333</ele><time>2026-04-11T09:13:49.064Z</time></trkpt><trkpt lat="43.4422349" lon="11.4486755"><ele>479.0</ele><time>2026-04-11T09:13:50.064Z</time></trkpt><trkpt lat="43.442159" lon="11.4488289"><ele>479.0</ele><time>2026-04-11T09:13:51.063Z</time></trkpt><trkpt lat="43.4421134" lon="11.4489636"><ele>479.0</ele><time>2026-04-11T09:13:52.063Z</time></trkpt><trkpt lat="43.4421014" lon="11.4490851"><ele>479.0</ele><time>2026-04-11T09:13:53.064Z</time></trkpt><trkpt lat="43.4421135" lon="11.4492135"><ele>479.0</ele><time>2026-04-11T09:13:54.063Z</time></trkpt><trkpt lat="43.4421509" lon="11.4493529"><ele>479.0</ele><time>2026-04-11T09:13:55.063Z</time></trkpt><trkpt lat="43.4422064" lon="11.449495"><ele>479.0</ele><time>2026-04-11T09:13:56.064Z</time></trkpt><trkpt lat="43.4422708" lon="11.4496409"><ele>479.0</ele><time>2026-04-11T09:13:57.063Z</time></trkpt><trkpt lat="43.4423383" lon="11.4497959"><ele>479.0</ele><time>2026-04-11T09:13:58.064Z</time></trkpt><trkpt lat="43.4424064" lon="11.4499582"><ele>479.0</ele><time>2026-04-11T09:13:59.063Z</time></trkpt><trkpt lat="43.4424718" lon="11.4501302"><ele>479.0</ele><time>2026-04-11T09:14:00.064Z</time></trkpt><trkpt lat="43.4425352" lon="11.4503067"><ele>479.0</ele><time>2026-04-11T09:14:01.063Z</time></trkpt><trkpt lat="43.442603" lon="11.4504899"><ele>479.0</ele><time>2026-04-11T09:14:02.063Z</time></trkpt><trkpt lat="43.442674" lon="11.4506776"><ele>479.0</ele><time>2026-04-11T09:14:03.063Z</time></trkpt><trkpt lat="43.4427411" lon="11.4508569"><ele>479.5</ele><time>2026-04-11T09:14:04.064Z</time></trkpt><trkpt lat="43.4427981" lon="11.4510159"><ele>480.0</ele><time>2026-04-11T09:14:05.064Z</time></trkpt><trkpt lat="43.442842" lon="11.4511599"><ele>480.5</ele><time>2026-04-11T09:14:06.063Z</time></trkpt><trkpt lat="43.4428623" lon="11.4513038"><ele>481.0</ele><time>2026-04-11T09:14:07.064Z</time></trkpt><trkpt lat="43.4428532" lon="11.451462"><ele>483.0</ele><time>2026-04-11T09:14:08.064Z</time></trkpt><trkpt lat="43.4428144" lon="11.4516213"><ele>485.0</ele><time>2026-04-11T09:14:09.064Z</time></trkpt><trkpt lat="43.4427304" lon="11.4517798"><ele>487.0</ele><time>2026-04-11T09:14:10.064Z</time></trkpt><trkpt lat="43.4426282" lon="11.4519314"><ele>489.0</ele><time>2026-04-11T09:14:11.065Z</time></trkpt><trkpt lat="43.4425214" lon="11.4520888"><ele>491.5</ele><time>2026-04-11T09:14:12.064Z</time></trkpt><trkpt lat="43.442418" lon="11.4522577"><ele>494.0</ele><time>2026-04-11T09:14:13.064Z</time></trkpt><trkpt lat="43.4423364" lon="11.4524081"><ele>496.5</ele><time>2026-04-11T09:14:14.064Z</time></trkpt><trkpt lat="43.4422719" lon="11.4525408"><ele>499.0</ele><time>2026-04-11T09:14:15.065Z</time></trkpt><trkpt lat="43.4422292" lon="11.4526784"><ele>499.0</ele><time>2026-04-11T09:14:16.065Z</time></trkpt><trkpt lat="43.4422189" lon="11.4528293"><ele>499.0</ele><time>2026-04-11T09:14:17.064Z</time></trkpt><trkpt lat="43.4422392" lon="11.4530135"><ele>499.0</ele><time>2026-04-11T09:14:18.065Z</time></trkpt><trkpt lat="43.4422649" lon="11.4532032"><ele>499.0</ele><time>2026-04-11T09:14:19.065Z</time></trkpt><trkpt lat="43.442284" lon="11.4533641"><ele>499.4</ele><time>2026-04-11T09:14:20.064Z</time></trkpt><trkpt lat="43.4423003" lon="11.4535073"><ele>499.79999999999995</ele><time>2026-04-11T09:14:21.064Z</time></trkpt><trkpt lat="43.4423114" lon="11.4536434"><ele>500.20000000000005</ele><time>2026-04-11T09:14:22.064Z</time></trkpt><trkpt lat="43.4423145" lon="11.4537589"><ele>500.6</ele><time>2026-04-11T09:14:23.065Z</time></trkpt><trkpt lat="43.4423012" lon="11.4538696"><ele>501.0</ele><time>2026-04-11T09:14:24.064Z</time></trkpt><trkpt lat="43.4422781" lon="11.4539748"><ele>501.4</ele><time>2026-04-11T09:14:25.064Z</time></trkpt><trkpt lat="43.4422359" lon="11.4540625"><ele>501.8</ele><time>2026-04-11T09:14:26.064Z</time></trkpt><trkpt lat="43.4421715" lon="11.4541306"><ele>502.19999999999993</ele><time>2026-04-11T09:14:27.064Z</time></trkpt><trkpt lat="43.4420915" lon="11.4541921"><ele>502.59999999999997</ele><time>2026-04-11T09:14:28.065Z</time></trkpt><trkpt lat="43.4419818" lon="11.4542424"><ele>503.0</ele><time>2026-04-11T09:14:29.064Z</time></trkpt><trkpt lat="43.4418631" lon="11.4543091"><ele>502.0</ele><time>2026-04-11T09:14:30.065Z</time></trkpt><trkpt lat="43.4417444" lon="11.4543948"><ele>501.0</ele><time>2026-04-11T09:14:31.065Z</time></trkpt><trkpt lat="43.4416294" lon="11.4544861"><ele>500.0</ele><time>2026-04-11T09:14:32.064Z</time></trkpt><trkpt lat="43.4415215" lon="11.4545643"><ele>499.0</ele><time>2026-04-11T09:14:33.064Z</time></trkpt><trkpt lat="43.4414226" lon="11.4546155"><ele>500.0</ele><time>2026-04-11T09:14:34.065Z</time></trkpt><trkpt lat="43.4413221" lon="11.4546318"><ele>501.0</ele><time>2026-04-11T09:14:35.065Z</time></trkpt><trkpt lat="43.441228" lon="11.4546076"><ele>502.0</ele><time>2026-04-11T09:14:36.065Z</time></trkpt><trkpt lat="43.4411226" lon="11.454552"><ele>503.0</ele><time>2026-04-11T09:14:37.065Z</time></trkpt><trkpt lat="43.4410169" lon="11.4544572"><ele>504.0</ele><time>2026-04-11T09:14:38.064Z</time></trkpt><trkpt lat="43.4409053" lon="11.454353"><ele>504.0</ele><time>2026-04-11T09:14:39.064Z</time></trkpt><trkpt lat="43.4408019" lon="11.454261"><ele>504.0</ele><time>2026-04-11T09:14:40.064Z</time></trkpt><trkpt lat="43.4407045" lon="11.454176"><ele>504.0</ele><time>2026-04-11T09:14:41.064Z</time></trkpt><trkpt lat="43.4406192" lon="11.4540981"><ele>504.0</ele><time>2026-04-11T09:14:42.064Z</time></trkpt><trkpt lat="43.4405395" lon="11.4540224"><ele>504.0</ele><time>2026-04-11T09:14:43.064Z</time></trkpt><trkpt lat="43.4403865" lon="11.4538738"><ele>503.79999999999995</ele><time>2026-04-11T09:14:45.064Z</time></trkpt><trkpt lat="43.4403092" lon="11.4538046"><ele>503.59999999999997</ele><time>2026-04-11T09:14:46.064Z</time></trkpt><trkpt lat="43.4402251" lon="11.4537303"><ele>503.4</ele><time>2026-04-11T09:14:47.064Z</time></trkpt><trkpt lat="43.4401386" lon="11.4536523"><ele>503.2</ele><time>2026-04-11T09:14:48.064Z</time></trkpt><trkpt lat="43.4400488" lon="11.4535718"><ele>503.0</ele><time>2026-04-11T09:14:49.064Z</time></trkpt><trkpt lat="43.4399582" lon="11.4534905"><ele>502.4</ele><time>2026-04-11T09:14:50.064Z</time></trkpt><trkpt lat="43.4398696" lon="11.4534099"><ele>501.79999999999995</ele><time>2026-04-11T09:14:51.064Z</time></trkpt><trkpt lat="43.4397872" lon="11.453326"><ele>501.2</ele><time>2026-04-11T09:14:52.064Z</time></trkpt><trkpt lat="43.4397096" lon="11.4532405"><ele>500.6</ele><time>2026-04-11T09:14:53.065Z</time></trkpt><trkpt lat="43.4396316" lon="11.4531327"><ele>500.0</ele><time>2026-04-11T09:14:54.065Z</time></trkpt><trkpt lat="43.4395491" lon="11.4530104"><ele>499.25</ele><time>2026-04-11T09:14:55.064Z</time></trkpt><trkpt lat="43.4394634" lon="11.452874"><ele>498.5</ele><time>2026-04-11T09:14:56.064Z</time></trkpt><trkpt lat="43.439376" lon="11.4527179"><ele>497.75</ele><time>2026-04-11T09:14:57.064Z</time></trkpt><trkpt lat="43.4392887" lon="11.4525543"><ele>497.0</ele><time>2026-04-11T09:14:58.064Z</time></trkpt><trkpt lat="43.439203" lon="11.4523759"><ele>497.0</ele><time>2026-04-11T09:14:59.064Z</time></trkpt><trkpt lat="43.4391236" lon="11.4521864"><ele>497.0</ele><time>2026-04-11T09:15:00.064Z</time></trkpt><trkpt lat="43.4390479" lon="11.4519992"><ele>497.0</ele><time>2026-04-11T09:15:01.065Z</time></trkpt><trkpt lat="43.4389767" lon="11.4518228"><ele>496.0</ele><time>2026-04-11T09:15:02.064Z</time></trkpt><trkpt lat="43.4389114" lon="11.4516616"><ele>495.0</ele><time>2026-04-11T09:15:03.065Z</time></trkpt><trkpt lat="43.4388481" lon="11.4515091"><ele>494.0</ele><time>2026-04-11T09:15:04.065Z</time></trkpt><trkpt lat="43.4387877" lon="11.4513606"><ele>493.0</ele><time>2026-04-11T09:15:05.064Z</time></trkpt><trkpt lat="43.4387417" lon="11.4512199"><ele>492.0</ele><time>2026-04-11T09:15:06.064Z</time></trkpt><trkpt lat="43.4387214" lon="11.4510844"><ele>490.99999999999994</ele><time>2026-04-11T09:15:07.064Z</time></trkpt><trkpt lat="43.4387278" lon="11.4509486"><ele>489.99999999999994</ele><time>2026-04-11T09:15:08.064Z</time></trkpt><trkpt lat="43.438757" lon="11.4508018"><ele>489.0</ele><time>2026-04-11T09:15:09.065Z</time></trkpt><trkpt lat="43.4387816" lon="11.4506641"><ele>488.0</ele><time>2026-04-11T09:15:10.065Z</time></trkpt><trkpt lat="43.4387841" lon="11.4505311"><ele>487.0</ele><time>2026-04-11T09:15:11.065Z</time></trkpt><trkpt lat="43.4387531" lon="11.450415"><ele>485.99999999999994</ele><time>2026-04-11T09:15:12.066Z</time></trkpt><trkpt lat="43.4386962" lon="11.4503205"><ele>484.99999999999994</ele><time>2026-04-11T09:15:13.065Z</time></trkpt><trkpt lat="43.4386037" lon="11.4502428"><ele>484.0</ele><time>2026-04-11T09:15:14.065Z</time></trkpt><trkpt lat="43.4384875" lon="11.4501623"><ele>483.0</ele><time>2026-04-11T09:15:15.066Z</time></trkpt><trkpt lat="43.4383611" lon="11.450057"><ele>483.0</ele><time>2026-04-11T09:15:16.066Z</time></trkpt><trkpt lat="43.4382367" lon="11.4499052"><ele>483.0</ele><time>2026-04-11T09:15:17.066Z</time></trkpt><trkpt lat="43.438117" lon="11.4497246"><ele>483.0</ele><time>2026-04-11T09:15:18.066Z</time></trkpt><trkpt lat="43.4379416" lon="11.4494061"><ele>482.5</ele><time>2026-04-11T09:15:20.066Z</time></trkpt><trkpt lat="43.4378813" lon="11.4492448"><ele>482.0</ele><time>2026-04-11T09:15:21.065Z</time></trkpt><trkpt lat="43.4378465" lon="11.4490758"><ele>481.5</ele><time>2026-04-11T09:15:22.066Z</time></trkpt><trkpt lat="43.4378309" lon="11.4488921"><ele>481.0</ele><time>2026-04-11T09:15:23.066Z</time></trkpt><trkpt lat="43.4378187" lon="11.4486983"><ele>481.0</ele><time>2026-04-11T09:15:24.066Z</time></trkpt><trkpt lat="43.4378079" lon="11.4484964"><ele>481.0</ele><time>2026-04-11T09:15:25.066Z</time></trkpt><trkpt lat="43.4378048" lon="11.4483012"><ele>481.0</ele><time>2026-04-11T09:15:26.066Z</time></trkpt><trkpt lat="43.4378143" lon="11.4481153"><ele>481.0</ele><time>2026-04-11T09:15:27.066Z</time></trkpt><trkpt lat="43.4378408" lon="11.44795"><ele>481.0</ele><time>2026-04-11T09:15:28.066Z</time></trkpt><trkpt lat="43.4378745" lon="11.4478008"><ele>481.0</ele><time>2026-04-11T09:15:29.066Z</time></trkpt><trkpt lat="43.437919" lon="11.4476831"><ele>481.0</ele><time>2026-04-11T09:15:30.065Z</time></trkpt><trkpt lat="43.4379807" lon="11.4476078"><ele>481.0</ele><time>2026-04-11T09:15:31.066Z</time></trkpt><trkpt lat="43.4380691" lon="11.4475614"><ele>481.0</ele><time>2026-04-11T09:15:32.066Z</time></trkpt><trkpt lat="43.4381818" lon="11.447534"><ele>478.25</ele><time>2026-04-11T09:15:33.066Z</time></trkpt><trkpt lat="43.4383059" lon="11.4474777"><ele>475.5</ele><time>2026-04-11T09:15:34.066Z</time></trkpt><trkpt lat="43.4384364" lon="11.4474047"><ele>472.75</ele><time>2026-04-11T09:15:35.065Z</time></trkpt><trkpt lat="43.4385493" lon="11.4473126"><ele>470.0</ele><time>2026-04-11T09:15:36.065Z</time></trkpt><trkpt lat="43.4386337" lon="11.4472022"><ele>471.0</ele><time>2026-04-11T09:15:37.066Z</time></trkpt><trkpt lat="43.4387111" lon="11.4470766"><ele>472.0</ele><time>2026-04-11T09:15:38.066Z</time></trkpt><trkpt lat="43.438758" lon="11.4469341"><ele>473.0</ele><time>2026-04-11T09:15:39.065Z</time></trkpt><trkpt lat="43.4387547" lon="11.4467254"><ele>474.0</ele><time>2026-04-11T09:15:40.065Z</time></trkpt><trkpt lat="43.4387517" lon="11.4464925"><ele>472.25</ele><time>2026-04-11T09:15:41.065Z</time></trkpt><trkpt lat="43.4387611" lon="11.4462738"><ele>470.5</ele><time>2026-04-11T09:15:42.066Z</time></trkpt><trkpt lat="43.438779" lon="11.44608"><ele>468.75</ele><time>2026-04-11T09:15:43.066Z</time></trkpt><trkpt lat="43.4387865" lon="11.4459007"><ele>467.0</ele><time>2026-04-11T09:15:44.065Z</time></trkpt><trkpt lat="43.4387713" lon="11.4457325"><ele>467.0</ele><time>2026-04-11T09:15:45.066Z</time></trkpt><trkpt lat="43.4387319" lon="11.4455634"><ele>467.0</ele><time>2026-04-11T09:15:46.066Z</time></trkpt><trkpt lat="43.4386624" lon="11.4453949"><ele>467.0</ele><time>2026-04-11T09:15:47.066Z</time></trkpt><trkpt lat="43.4385682" lon="11.4452412"><ele>467.0</ele><time>2026-04-11T09:15:48.065Z</time></trkpt><trkpt lat="43.4384443" lon="11.4450948"><ele>464.5</ele><time>2026-04-11T09:15:49.066Z</time></trkpt><trkpt lat="43.4383193" lon="11.4449526"><ele>462.0</ele><time>2026-04-11T09:15:50.065Z</time></trkpt><trkpt lat="43.4382153" lon="11.4448127"><ele>459.5</ele><time>2026-04-11T09:15:51.065Z</time></trkpt><trkpt lat="43.4381428" lon="11.4446588"><ele>457.0</ele><time>2026-04-11T09:15:52.066Z</time></trkpt><trkpt lat="43.4381092" lon="11.4444859"><ele>453.5</ele><time>2026-04-11T09:15:53.065Z</time></trkpt><trkpt lat="43.438099" lon="11.4443017"><ele>450.0</ele><time>2026-04-11T09:15:54.066Z</time></trkpt><trkpt lat="43.4380741" lon="11.4441185"><ele>446.5</ele><time>2026-04-11T09:15:55.066Z</time></trkpt><trkpt lat="43.4380209" lon="11.4439432"><ele>443.0</ele><time>2026-04-11T09:15:56.065Z</time></trkpt><trkpt lat="43.4379384" lon="11.4437823"><ele>443.0</ele><time>2026-04-11T09:15:57.066Z</time></trkpt><trkpt lat="43.4378459" lon="11.4436492"><ele>443.0</ele><time>2026-04-11T09:15:58.065Z</time></trkpt><trkpt lat="43.4377541" lon="11.44355"><ele>443.0</ele><time>2026-04-11T09:15:59.065Z</time></trkpt><trkpt lat="43.4376623" lon="11.4434812"><ele>443.0</ele><time>2026-04-11T09:16:00.066Z</time></trkpt><trkpt lat="43.4375383" lon="11.4434523"><ele>443.0</ele><time>2026-04-11T09:16:01.066Z</time></trkpt><trkpt lat="43.4373879" lon="11.4434453"><ele>443.0</ele><time>2026-04-11T09:16:02.066Z</time></trkpt><trkpt lat="43.4372218" lon="11.4434406"><ele>443.0</ele><time>2026-04-11T09:16:03.065Z</time></trkpt><trkpt lat="43.4370558" lon="11.4434319"><ele>441.75</ele><time>2026-04-11T09:16:04.065Z</time></trkpt><trkpt lat="43.4369023" lon="11.4434301"><ele>440.5</ele><time>2026-04-11T09:16:05.065Z</time></trkpt><trkpt lat="43.4367633" lon="11.4434523"><ele>439.25</ele><time>2026-04-11T09:16:06.065Z</time></trkpt><trkpt lat="43.4366338" lon="11.4435087"><ele>438.0</ele><time>2026-04-11T09:16:07.065Z</time></trkpt><trkpt lat="43.4365157" lon="11.4435908"><ele>438.0</ele><time>2026-04-11T09:16:08.067Z</time></trkpt><trkpt lat="43.4363982" lon="11.4436569"><ele>437.99999999999994</ele><time>2026-04-11T09:16:09.066Z</time></trkpt><trkpt lat="43.4362865" lon="11.4436915"><ele>437.99999999999994</ele><time>2026-04-11T09:16:10.066Z</time></trkpt><trkpt lat="43.4361836" lon="11.4436844"><ele>438.0</ele><time>2026-04-11T09:16:11.066Z</time></trkpt><trkpt lat="43.4360952" lon="11.4436191"><ele>438.0</ele><time>2026-04-11T09:16:12.066Z</time></trkpt><trkpt lat="43.4360186" lon="11.4435036"><ele>435.25</ele><time>2026-04-11T09:16:13.066Z</time></trkpt><trkpt lat="43.435957" lon="11.4433711"><ele>432.5</ele><time>2026-04-11T09:16:14.066Z</time></trkpt><trkpt lat="43.435913" lon="11.4431911"><ele>429.75</ele><time>2026-04-11T09:16:15.066Z</time></trkpt><trkpt lat="43.4358625" lon="11.4429894"><ele>427.0</ele><time>2026-04-11T09:16:16.066Z</time></trkpt><trkpt lat="43.4358191" lon="11.4427958"><ele>426.25</ele><time>2026-04-11T09:16:17.066Z</time></trkpt><trkpt lat="43.4357996" lon="11.44261"><ele>425.5</ele><time>2026-04-11T09:16:18.067Z</time></trkpt><trkpt lat="43.4358227" lon="11.4424344"><ele>424.75</ele><time>2026-04-11T09:16:19.067Z</time></trkpt><trkpt lat="43.4358745" lon="11.4422357"><ele>424.0</ele><time>2026-04-11T09:16:20.066Z</time></trkpt><trkpt lat="43.4359185" lon="11.442028"><ele>423.25</ele><time>2026-04-11T09:16:21.066Z</time></trkpt><trkpt lat="43.4359515" lon="11.4418321"><ele>422.5</ele><time>2026-04-11T09:16:22.067Z</time></trkpt><trkpt lat="43.435972" lon="11.4416564"><ele>421.75</ele><time>2026-04-11T09:16:23.066Z</time></trkpt><trkpt lat="43.4359888" lon="11.4414973"><ele>421.0</ele><time>2026-04-11T09:16:24.067Z</time></trkpt><trkpt lat="43.4360036" lon="11.4413433"><ele>421.4</ele><time>2026-04-11T09:16:25.066Z</time></trkpt><trkpt lat="43.4360042" lon="11.4412157"><ele>421.8</ele><time>2026-04-11T09:16:26.066Z</time></trkpt><trkpt lat="43.4359897" lon="11.4410874"><ele>422.2</ele><time>2026-04-11T09:16:27.066Z</time></trkpt><trkpt lat="43.4359477" lon="11.4409763"><ele>422.59999999999997</ele><time>2026-04-11T09:16:28.066Z</time></trkpt><trkpt lat="43.4358798" lon="11.440895"><ele>423.0</ele><time>2026-04-11T09:16:29.066Z</time></trkpt><trkpt lat="43.435798" lon="11.4408489"><ele>423.0</ele><time>2026-04-11T09:16:30.067Z</time></trkpt><trkpt lat="43.4356757" lon="11.4408607"><ele>423.0</ele><time>2026-04-11T09:16:31.067Z</time></trkpt><trkpt lat="43.4355444" lon="11.4409138"><ele>423.0</ele><time>2026-04-11T09:16:32.066Z</time></trkpt><trkpt lat="43.4354081" lon="11.4409854"><ele>423.0</ele><time>2026-04-11T09:16:33.066Z</time></trkpt><trkpt lat="43.4352568" lon="11.4410561"><ele>422.0</ele><time>2026-04-11T09:16:34.067Z</time></trkpt><trkpt lat="43.43509" lon="11.4411224"><ele>421.0</ele><time>2026-04-11T09:16:35.067Z</time></trkpt><trkpt lat="43.4349179" lon="11.4411796"><ele>420.0</ele><time>2026-04-11T09:16:36.067Z</time></trkpt><trkpt lat="43.4347578" lon="11.4412374"><ele>419.33333333333337</ele><time>2026-04-11T09:16:37.067Z</time></trkpt><trkpt lat="43.4345941" lon="11.4412962"><ele>418.6666666666667</ele><time>2026-04-11T09:16:38.066Z</time></trkpt><trkpt lat="43.4344257" lon="11.4413639"><ele>418.0</ele><time>2026-04-11T09:16:39.067Z</time></trkpt><trkpt lat="43.4342629" lon="11.4414288"><ele>415.79999999999995</ele><time>2026-04-11T09:16:40.067Z</time></trkpt><trkpt lat="43.434114" lon="11.4414908"><ele>413.6</ele><time>2026-04-11T09:16:41.067Z</time></trkpt><trkpt lat="43.434004" lon="11.4415277"><ele>411.4</ele><time>2026-04-11T09:16:42.067Z</time></trkpt><trkpt lat="43.4339187" lon="11.4415175"><ele>409.20000000000005</ele><time>2026-04-11T09:16:43.067Z</time></trkpt><trkpt lat="43.433841" lon="11.4414712"><ele>407.0</ele><time>2026-04-11T09:16:44.066Z</time></trkpt><trkpt lat="43.4337662" lon="11.4413625"><ele>406.0</ele><time>2026-04-11T09:16:45.066Z</time></trkpt><trkpt lat="43.4337317" lon="11.4411933"><ele>405.0</ele><time>2026-04-11T09:16:46.067Z</time></trkpt><trkpt lat="43.4337159" lon="11.4410096"><ele>404.0</ele><time>2026-04-11T09:16:47.067Z</time></trkpt><trkpt lat="43.4337069" lon="11.4408232"><ele>403.0</ele><time>2026-04-11T09:16:48.067Z</time></trkpt><trkpt lat="43.43368" lon="11.4406635"><ele>403.0</ele><time>2026-04-11T09:16:49.067Z</time></trkpt><trkpt lat="43.4336278" lon="11.4405611"><ele>403.0</ele><time>2026-04-11T09:16:50.066Z</time></trkpt><trkpt lat="43.4335508" lon="11.4404838"><ele>403.0</ele><time>2026-04-11T09:16:51.066Z</time></trkpt><trkpt lat="43.4334549" lon="11.4404582"><ele>403.0</ele><time>2026-04-11T09:16:52.067Z</time></trkpt><trkpt lat="43.4333448" lon="11.4404797"><ele>403.0</ele><time>2026-04-11T09:16:53.066Z</time></trkpt><trkpt lat="43.4332261" lon="11.4405407"><ele>403.0</ele><time>2026-04-11T09:16:54.067Z</time></trkpt><trkpt lat="43.4330779" lon="11.4406292"><ele>403.0</ele><time>2026-04-11T09:16:55.066Z</time></trkpt><trkpt lat="43.4329074" lon="11.4407281"><ele>403.0</ele><time>2026-04-11T09:16:56.066Z</time></trkpt><trkpt lat="43.4327415" lon="11.4408086"><ele>401.0</ele><time>2026-04-11T09:16:57.066Z</time></trkpt><trkpt lat="43.4326022" lon="11.4408618"><ele>399.0</ele><time>2026-04-11T09:16:58.066Z</time></trkpt><trkpt lat="43.4324758" lon="11.4408754"><ele>397.0</ele><time>2026-04-11T09:16:59.066Z</time></trkpt><trkpt lat="43.4323711" lon="11.4408174"><ele>395.0</ele><time>2026-04-11T09:17:00.067Z</time></trkpt><trkpt lat="43.4322798" lon="11.440708"><ele>395.0</ele><time>2026-04-11T09:17:01.066Z</time></trkpt><trkpt lat="43.4322238" lon="11.4405687"><ele>395.0</ele><time>2026-04-11T09:17:02.067Z</time></trkpt><trkpt lat="43.4321992" lon="11.4403935"><ele>395.0</ele><time>2026-04-11T09:17:03.067Z</time></trkpt><trkpt lat="43.4321898" lon="11.4402027"><ele>395.0</ele><time>2026-04-11T09:17:04.067Z</time></trkpt><trkpt lat="43.4321673" lon="11.4400734"><ele>397.75</ele><time>2026-04-11T09:17:05.067Z</time></trkpt><trkpt lat="43.4320766" lon="11.4400354"><ele>400.5</ele><time>2026-04-11T09:17:07.066Z</time></trkpt><trkpt lat="43.4319842" lon="11.4401306"><ele>403.25</ele><time>2026-04-11T09:17:09.067Z</time></trkpt><trkpt lat="43.43193" lon="11.4402814"><ele>406.0</ele><time>2026-04-11T09:17:10.066Z</time></trkpt><trkpt lat="43.4318527" lon="11.4404218"><ele>399.6666666666667</ele><time>2026-04-11T09:17:11.066Z</time></trkpt><trkpt lat="43.4317595" lon="11.4405707"><ele>393.33333333333337</ele><time>2026-04-11T09:17:12.066Z</time></trkpt><trkpt lat="43.4316254" lon="11.4407124"><ele>387.0</ele><time>2026-04-11T09:17:13.067Z</time></trkpt><trkpt lat="43.431487" lon="11.4408209"><ele>387.0</ele><time>2026-04-11T09:17:14.067Z</time></trkpt><trkpt lat="43.4313305" lon="11.4409071"><ele>387.0</ele><time>2026-04-11T09:17:15.067Z</time></trkpt><trkpt lat="43.4311574" lon="11.4409545"><ele>387.0</ele><time>2026-04-11T09:17:16.067Z</time></trkpt><trkpt lat="43.4309714" lon="11.4409972"><ele>387.33333333333337</ele><time>2026-04-11T09:17:17.068Z</time></trkpt><trkpt lat="43.4307903" lon="11.4410315"><ele>387.6666666666667</ele><time>2026-04-11T09:17:18.067Z</time></trkpt><trkpt lat="43.4306199" lon="11.4410587"><ele>388.0</ele><time>2026-04-11T09:17:19.068Z</time></trkpt><trkpt lat="43.4304605" lon="11.4410677"><ele>386.0</ele><time>2026-04-11T09:17:20.067Z</time></trkpt><trkpt lat="43.4303121" lon="11.4410594"><ele>384.0</ele><time>2026-04-11T09:17:21.068Z</time></trkpt><trkpt lat="43.4301664" lon="11.4410237"><ele>382.0</ele><time>2026-04-11T09:17:22.067Z</time></trkpt><trkpt lat="43.4300147" lon="11.4409654"><ele>382.0</ele><time>2026-04-11T09:17:23.067Z</time></trkpt><trkpt lat="43.4298612" lon="11.4409137"><ele>382.0</ele><time>2026-04-11T09:17:24.068Z</time></trkpt><trkpt lat="43.4297114" lon="11.4408832"><ele>382.0</ele><time>2026-04-11T09:17:25.067Z</time></trkpt><trkpt lat="43.4295698" lon="11.4408916"><ele>379.25</ele><time>2026-04-11T09:17:26.067Z</time></trkpt><trkpt lat="43.4294292" lon="11.4409118"><ele>376.5</ele><time>2026-04-11T09:17:27.068Z</time></trkpt><trkpt lat="43.4292941" lon="11.440923"><ele>373.75</ele><time>2026-04-11T09:17:28.068Z</time></trkpt><trkpt lat="43.4291559" lon="11.4409108"><ele>371.0</ele><time>2026-04-11T09:17:29.068Z</time></trkpt><trkpt lat="43.429013" lon="11.4408602"><ele>371.0</ele><time>2026-04-11T09:17:30.067Z</time></trkpt><trkpt lat="43.4288562" lon="11.4407746"><ele>371.0</ele><time>2026-04-11T09:17:31.068Z</time></trkpt><trkpt lat="43.4286992" lon="11.4406893"><ele>371.0</ele><time>2026-04-11T09:17:32.068Z</time></trkpt><trkpt lat="43.4285665" lon="11.4406219"><ele>369.0</ele><time>2026-04-11T09:17:33.068Z</time></trkpt><trkpt lat="43.4284468" lon="11.4405566"><ele>367.0</ele><time>2026-04-11T09:17:34.067Z</time></trkpt><trkpt lat="43.4283536" lon="11.440449"><ele>365.0</ele><time>2026-04-11T09:17:35.067Z</time></trkpt><trkpt lat="43.4282785" lon="11.4402951"><ele>363.0</ele><time>2026-04-11T09:17:36.067Z</time></trkpt><trkpt lat="43.4282271" lon="11.4401121"><ele>363.0</ele><time>2026-04-11T09:17:37.068Z</time></trkpt><trkpt lat="43.4281754" lon="11.4399375"><ele>363.0</ele><time>2026-04-11T09:17:38.068Z</time></trkpt><trkpt lat="43.4281142" lon="11.4397764"><ele>363.0</ele><time>2026-04-11T09:17:39.068Z</time></trkpt><trkpt lat="43.4280205" lon="11.4396419"><ele>363.0</ele><time>2026-04-11T09:17:40.068Z</time></trkpt><trkpt lat="43.4278788" lon="11.4395272"><ele>360.0</ele><time>2026-04-11T09:17:41.068Z</time></trkpt><trkpt lat="43.4277138" lon="11.4394041"><ele>357.0</ele><time>2026-04-11T09:17:42.068Z</time></trkpt><trkpt lat="43.4275588" lon="11.4392747"><ele>354.0</ele><time>2026-04-11T09:17:43.067Z</time></trkpt><trkpt lat="43.4274221" lon="11.4391511"><ele>354.0</ele><time>2026-04-11T09:17:44.068Z</time></trkpt><trkpt lat="43.4273024" lon="11.4390322"><ele>354.0</ele><time>2026-04-11T09:17:45.068Z</time></trkpt><trkpt lat="43.4271914" lon="11.4389076"><ele>354.0</ele><time>2026-04-11T09:17:46.067Z</time></trkpt><trkpt lat="43.4270885" lon="11.4387589"><ele>354.0</ele><time>2026-04-11T09:17:47.067Z</time></trkpt><trkpt lat="43.4269999" lon="11.4385789"><ele>352.5</ele><time>2026-04-11T09:17:48.068Z</time></trkpt><trkpt lat="43.4269203" lon="11.4383937"><ele>351.0</ele><time>2026-04-11T09:17:49.068Z</time></trkpt><trkpt lat="43.4268356" lon="11.4382312"><ele>349.5</ele><time>2026-04-11T09:17:50.067Z</time></trkpt><trkpt lat="43.4267345" lon="11.4381042"><ele>348.0</ele><time>2026-04-11T09:17:51.068Z</time></trkpt><trkpt lat="43.4266049" lon="11.4380102"><ele>349.0</ele><time>2026-04-11T09:17:52.068Z</time></trkpt><trkpt lat="43.4264633" lon="11.4379149"><ele>350.0</ele><time>2026-04-11T09:17:53.067Z</time></trkpt><trkpt lat="43.426318" lon="11.4378244"><ele>351.0</ele><time>2026-04-11T09:17:54.068Z</time></trkpt><trkpt lat="43.4261826" lon="11.4377491"><ele>348.75</ele><time>2026-04-11T09:17:55.067Z</time></trkpt><trkpt lat="43.4260505" lon="11.4376844"><ele>346.5</ele><time>2026-04-11T09:17:56.068Z</time></trkpt><trkpt lat="43.4259223" lon="11.437624"><ele>344.25</ele><time>2026-04-11T09:17:57.068Z</time></trkpt><trkpt lat="43.4258193" lon="11.4375322"><ele>342.0</ele><time>2026-04-11T09:17:58.068Z</time></trkpt><trkpt lat="43.4257312" lon="11.437425"><ele>342.0</ele><time>2026-04-11T09:17:59.067Z</time></trkpt><trkpt lat="43.4256797" lon="11.437279"><ele>342.0</ele><time>2026-04-11T09:18:00.067Z</time></trkpt><trkpt lat="43.4256826" lon="11.4370852"><ele>342.0</ele><time>2026-04-11T09:18:01.068Z</time></trkpt><trkpt lat="43.4257199" lon="11.4368591"><ele>342.0</ele><time>2026-04-11T09:18:02.068Z</time></trkpt><trkpt lat="43.4257902" lon="11.4366114"><ele>341.6666666666667</ele><time>2026-04-11T09:18:03.068Z</time></trkpt><trkpt lat="43.4258714" lon="11.4363506"><ele>341.33333333333337</ele><time>2026-04-11T09:18:04.067Z</time></trkpt><trkpt lat="43.4259444" lon="11.4360952"><ele>341.0</ele><time>2026-04-11T09:18:05.067Z</time></trkpt><trkpt lat="43.4260049" lon="11.4358416"><ele>340.6666666666667</ele><time>2026-04-11T09:18:06.068Z</time></trkpt><trkpt lat="43.426035" lon="11.4356192"><ele>340.3333333333333</ele><time>2026-04-11T09:18:07.067Z</time></trkpt><trkpt lat="43.4260355" lon="11.435408"><ele>340.0</ele><time>2026-04-11T09:18:08.067Z</time></trkpt><trkpt lat="43.426019" lon="11.4351976"><ele>340.0</ele><time>2026-04-11T09:18:09.067Z</time></trkpt><trkpt lat="43.4259611" lon="11.435008"><ele>340.0</ele><time>2026-04-11T09:18:10.068Z</time></trkpt><trkpt lat="43.4258601" lon="11.4348312"><ele>340.0</ele><time>2026-04-11T09:18:11.068Z</time></trkpt><trkpt lat="43.4257374" lon="11.4346506"><ele>339.3333333333333</ele><time>2026-04-11T09:18:12.067Z</time></trkpt><trkpt lat="43.4256183" lon="11.4344732"><ele>338.6666666666667</ele><time>2026-04-11T09:18:13.068Z</time></trkpt><trkpt lat="43.425514" lon="11.4343096"><ele>338.0</ele><time>2026-04-11T09:18:14.068Z</time></trkpt><trkpt lat="43.4254235" lon="11.4341513"><ele>338.0</ele><time>2026-04-11T09:18:15.068Z</time></trkpt><trkpt lat="43.4253424" lon="11.433982"><ele>338.0</ele><time>2026-04-11T09:18:16.067Z</time></trkpt><trkpt lat="43.4252844" lon="11.4337884"><ele>338.0</ele><time>2026-04-11T09:18:17.068Z</time></trkpt><trkpt lat="43.4252538" lon="11.4335912"><ele>338.0</ele><time>2026-04-11T09:18:18.069Z</time></trkpt><trkpt lat="43.4252435" lon="11.4334183"><ele>337.75</ele><time>2026-04-11T09:18:19.069Z</time></trkpt><trkpt lat="43.425255" lon="11.4332648"><ele>337.5</ele><time>2026-04-11T09:18:20.069Z</time></trkpt><trkpt lat="43.42529" lon="11.4330897"><ele>337.25</ele><time>2026-04-11T09:18:21.068Z</time></trkpt><trkpt lat="43.4253556" lon="11.4328968"><ele>337.0</ele><time>2026-04-11T09:18:22.069Z</time></trkpt><trkpt lat="43.425405" lon="11.4327007"><ele>337.6</ele><time>2026-04-11T09:18:23.068Z</time></trkpt><trkpt lat="43.4254161" lon="11.4325222"><ele>338.20000000000005</ele><time>2026-04-11T09:18:24.069Z</time></trkpt><trkpt lat="43.4254021" lon="11.4323597"><ele>338.8</ele><time>2026-04-11T09:18:25.069Z</time></trkpt><trkpt lat="43.4253898" lon="11.432236"><ele>339.4</ele><time>2026-04-11T09:18:26.069Z</time></trkpt><trkpt lat="43.4253821" lon="11.4321038"><ele>340.0</ele><time>2026-04-11T09:18:28.068Z</time></trkpt><trkpt lat="43.4253226" lon="11.4320589"><ele>340.0</ele><time>2026-04-11T09:18:33.068Z</time></trkpt><trkpt lat="43.4252375" lon="11.4321665"><ele>340.0</ele><time>2026-04-11T09:18:35.069Z</time></trkpt><trkpt lat="43.4251438" lon="11.4322134"><ele>340.0</ele><time>2026-04-11T09:18:36.068Z</time></trkpt><trkpt lat="43.4250347" lon="11.4322607"><ele>340.0</ele><time>2026-04-11T09:18:37.069Z</time></trkpt><trkpt lat="43.424948" lon="11.4323282"><ele>340.0</ele><time>2026-04-11T09:18:38.068Z</time></trkpt><trkpt lat="43.4248971" lon="11.432483"><ele>340.0</ele><time>2026-04-11T09:18:39.069Z</time></trkpt><trkpt lat="43.4248438" lon="11.4326688"><ele>340.0</ele><time>2026-04-11T09:18:40.068Z</time></trkpt><trkpt lat="43.4247796" lon="11.4328599"><ele>340.0</ele><time>2026-04-11T09:18:41.069Z</time></trkpt><trkpt lat="43.4247046" lon="11.4330667"><ele>348.0</ele><time>2026-04-11T09:18:42.069Z</time></trkpt><trkpt lat="43.424616" lon="11.4333004"><ele>356.0</ele><time>2026-04-11T09:18:43.069Z</time></trkpt><trkpt lat="43.4245274" lon="11.4335329"><ele>364.0</ele><time>2026-04-11T09:18:44.069Z</time></trkpt><trkpt lat="43.424455" lon="11.4337425"><ele>359.66666666666663</ele><time>2026-04-11T09:18:45.069Z</time></trkpt><trkpt lat="43.4243985" lon="11.4339514"><ele>355.3333333333333</ele><time>2026-04-11T09:18:46.069Z</time></trkpt><trkpt lat="43.4243553" lon="11.4341675"><ele>351.0</ele><time>2026-04-11T09:18:47.069Z</time></trkpt><trkpt lat="43.4243327" lon="11.4343651"><ele>351.0</ele><time>2026-04-11T09:18:48.069Z</time></trkpt><trkpt lat="43.4243325" lon="11.4345424"><ele>351.0</ele><time>2026-04-11T09:18:49.069Z</time></trkpt><trkpt lat="43.4243552" lon="11.4346958"><ele>351.0</ele><time>2026-04-11T09:18:50.069Z</time></trkpt><trkpt lat="43.4243974" lon="11.4348401"><ele>351.0</ele><time>2026-04-11T09:18:51.069Z</time></trkpt><trkpt lat="43.4244624" lon="11.4349777"><ele>350.5</ele><time>2026-04-11T09:18:52.068Z</time></trkpt><trkpt lat="43.4245509" lon="11.4351097"><ele>350.0</ele><time>2026-04-11T09:18:53.069Z</time></trkpt><trkpt lat="43.4246755" lon="11.4352073"><ele>349.5</ele><time>2026-04-11T09:18:54.069Z</time></trkpt><trkpt lat="43.4248296" lon="11.4353037"><ele>349.0</ele><time>2026-04-11T09:18:55.068Z</time></trkpt><trkpt lat="43.42499" lon="11.4354036"><ele>349.75</ele><time>2026-04-11T09:18:56.068Z</time></trkpt><trkpt lat="43.4251401" lon="11.4354985"><ele>350.5</ele><time>2026-04-11T09:18:57.069Z</time></trkpt><trkpt lat="43.425262" lon="11.4355908"><ele>351.25</ele><time>2026-04-11T09:18:58.068Z</time></trkpt><trkpt lat="43.425344" lon="11.4356916"><ele>352.0</ele><time>2026-04-11T09:18:59.069Z</time></trkpt><trkpt lat="43.4253786" lon="11.4358051"><ele>352.0</ele><time>2026-04-11T09:19:00.069Z</time></trkpt><trkpt lat="43.4253557" lon="11.4359313"><ele>352.0</ele><time>2026-04-11T09:19:01.069Z</time></trkpt><trkpt lat="43.4252838" lon="11.4360398"><ele>352.0</ele><time>2026-04-11T09:19:02.068Z</time></trkpt><trkpt lat="43.4251812" lon="11.4361519"><ele>352.0</ele><time>2026-04-11T09:19:03.068Z</time></trkpt><trkpt lat="43.4250789" lon="11.4363084"><ele>353.0</ele><time>2026-04-11T09:19:04.068Z</time></trkpt><trkpt lat="43.4249937" lon="11.4365189"><ele>354.0</ele><time>2026-04-11T09:19:05.068Z</time></trkpt><trkpt lat="43.4249387" lon="11.4367729"><ele>355.0</ele><time>2026-04-11T09:19:06.069Z</time></trkpt><trkpt lat="43.4249023" lon="11.4370431"><ele>355.0</ele><time>2026-04-11T09:19:07.069Z</time></trkpt><trkpt lat="43.4248942" lon="11.4373159"><ele>355.0</ele><time>2026-04-11T09:19:08.069Z</time></trkpt><trkpt lat="43.4249033" lon="11.4375912"><ele>355.0</ele><time>2026-04-11T09:19:09.069Z</time></trkpt><trkpt lat="43.4249334" lon="11.4378741"><ele>358.0</ele><time>2026-04-11T09:19:10.069Z</time></trkpt><trkpt lat="43.4249925" lon="11.4381717"><ele>361.0</ele><time>2026-04-11T09:19:11.068Z</time></trkpt><trkpt lat="43.4250654" lon="11.438468"><ele>361.0</ele><time>2026-04-11T09:19:12.068Z</time></trkpt><trkpt lat="43.4251345" lon="11.4387409"><ele>361.0</ele><time>2026-04-11T09:19:13.069Z</time></trkpt><trkpt lat="43.4251875" lon="11.438968"><ele>361.0</ele><time>2026-04-11T09:19:14.069Z</time></trkpt><trkpt lat="43.4252389" lon="11.4391517"><ele>359.5</ele><time>2026-04-11T09:19:15.069Z</time></trkpt><trkpt lat="43.4252845" lon="11.439289"><ele>358.0</ele><time>2026-04-11T09:19:16.068Z</time></trkpt><trkpt lat="43.4253637" lon="11.4393798"><ele>356.5</ele><time>2026-04-11T09:19:17.069Z</time></trkpt><trkpt lat="43.4254661" lon="11.4394475"><ele>355.0</ele><time>2026-04-11T09:19:18.069Z</time></trkpt><trkpt lat="43.4255915" lon="11.4394568"><ele>355.0</ele><time>2026-04-11T09:19:19.069Z</time></trkpt><trkpt lat="43.4257174" lon="11.4394375"><ele>355.0</ele><time>2026-04-11T09:19:20.069Z</time></trkpt><trkpt lat="43.4258445" lon="11.439419"><ele>355.0</ele><time>2026-04-11T09:19:21.07Z</time></trkpt><trkpt lat="43.4259617" lon="11.4394583"><ele>355.0</ele><time>2026-04-11T09:19:22.07Z</time></trkpt><trkpt lat="43.4260678" lon="11.4395725"><ele>357.0</ele><time>2026-04-11T09:19:23.069Z</time></trkpt><trkpt lat="43.4261402" lon="11.439733"><ele>359.0</ele><time>2026-04-11T09:19:24.069Z</time></trkpt><trkpt lat="43.426174" lon="11.4399488"><ele>361.0</ele><time>2026-04-11T09:19:25.07Z</time></trkpt><trkpt lat="43.4261779" lon="11.4401898"><ele>361.0</ele><time>2026-04-11T09:19:26.07Z</time></trkpt><trkpt lat="43.4261762" lon="11.4404496"><ele>361.0</ele><time>2026-04-11T09:19:27.07Z</time></trkpt><trkpt lat="43.4261771" lon="11.440715"><ele>361.0</ele><time>2026-04-11T09:19:28.069Z</time></trkpt><trkpt lat="43.4261815" lon="11.440964"><ele>361.75</ele><time>2026-04-11T09:19:29.07Z</time></trkpt><trkpt lat="43.4261834" lon="11.4411665"><ele>362.5</ele><time>2026-04-11T09:19:30.069Z</time></trkpt><trkpt lat="43.4261723" lon="11.4413335"><ele>363.25</ele><time>2026-04-11T09:19:31.07Z</time></trkpt><trkpt lat="43.4261329" lon="11.4414698"><ele>364.0</ele><time>2026-04-11T09:19:32.069Z</time></trkpt><trkpt lat="43.4260568" lon="11.4415682"><ele>364.0</ele><time>2026-04-11T09:19:33.069Z</time></trkpt><trkpt lat="43.4259357" lon="11.4416576"><ele>364.0</ele><time>2026-04-11T09:19:34.069Z</time></trkpt><trkpt lat="43.4257446" lon="11.4417155"><ele>364.0</ele><time>2026-04-11T09:19:35.07Z</time></trkpt><trkpt lat="43.425539" lon="11.441781"><ele>366.66666666666663</ele><time>2026-04-11T09:19:36.069Z</time></trkpt><trkpt lat="43.4253522" lon="11.4418573"><ele>369.3333333333333</ele><time>2026-04-11T09:19:37.07Z</time></trkpt><trkpt lat="43.4252118" lon="11.4419674"><ele>372.0</ele><time>2026-04-11T09:19:38.07Z</time></trkpt><trkpt lat="43.4250871" lon="11.4420998"><ele>371.0</ele><time>2026-04-11T09:19:39.07Z</time></trkpt><trkpt lat="43.4249918" lon="11.4422883"><ele>370.0</ele><time>2026-04-11T09:19:40.07Z</time></trkpt><trkpt lat="43.4248995" lon="11.4425061"><ele>369.0</ele><time>2026-04-11T09:19:41.069Z</time></trkpt><trkpt lat="43.4248157" lon="11.4427667"><ele>368.6666666666667</ele><time>2026-04-11T09:19:42.07Z</time></trkpt><trkpt lat="43.424777" lon="11.4430416"><ele>368.33333333333337</ele><time>2026-04-11T09:19:43.069Z</time></trkpt><trkpt lat="43.4247613" lon="11.4433035"><ele>368.0</ele><time>2026-04-11T09:19:44.07Z</time></trkpt><trkpt lat="43.4247643" lon="11.4435482"><ele>368.0</ele><time>2026-04-11T09:19:45.07Z</time></trkpt><trkpt lat="43.4247661" lon="11.4437626"><ele>368.0</ele><time>2026-04-11T09:19:46.07Z</time></trkpt><trkpt lat="43.4247362" lon="11.4439466"><ele>368.0</ele><time>2026-04-11T09:19:47.069Z</time></trkpt><trkpt lat="43.4246738" lon="11.4441045"><ele>368.0</ele><time>2026-04-11T09:19:48.069Z</time></trkpt><trkpt lat="43.4245752" lon="11.4442405"><ele>372.0</ele><time>2026-04-11T09:19:49.07Z</time></trkpt><trkpt lat="43.4244467" lon="11.4443859"><ele>376.0</ele><time>2026-04-11T09:19:50.069Z</time></trkpt><trkpt lat="43.4243265" lon="11.4445615"><ele>380.0</ele><time>2026-04-11T09:19:51.07Z</time></trkpt><trkpt lat="43.4242172" lon="11.4447782"><ele>380.0</ele><time>2026-04-11T09:19:52.07Z</time></trkpt><trkpt lat="43.4241173" lon="11.4450097"><ele>380.0</ele><time>2026-04-11T09:19:53.07Z</time></trkpt><trkpt lat="43.4240297" lon="11.4452391"><ele>380.0</ele><time>2026-04-11T09:19:54.07Z</time></trkpt><trkpt lat="43.4239504" lon="11.4454372"><ele>380.0</ele><time>2026-04-11T09:19:55.069Z</time></trkpt><trkpt lat="43.4238864" lon="11.4455997"><ele>380.0</ele><time>2026-04-11T09:19:56.07Z</time></trkpt><trkpt lat="43.4238393" lon="11.4457377"><ele>380.0</ele><time>2026-04-11T09:19:57.07Z</time></trkpt><trkpt lat="43.4238069" lon="11.4458662"><ele>380.0</ele><time>2026-04-11T09:19:58.069Z</time></trkpt><trkpt lat="43.4238139" lon="11.4459903"><ele>380.0</ele><time>2026-04-11T09:19:59.07Z</time></trkpt><trkpt lat="43.4238554" lon="11.4460984"><ele>380.0</ele><time>2026-04-11T09:20:00.07Z</time></trkpt><trkpt lat="43.4239349" lon="11.446184"><ele>380.0</ele><time>2026-04-11T09:20:01.069Z</time></trkpt><trkpt lat="43.424033" lon="11.4462809"><ele>380.0</ele><time>2026-04-11T09:20:02.069Z</time></trkpt><trkpt lat="43.4241618" lon="11.4463256"><ele>380.0</ele><time>2026-04-11T09:20:03.07Z</time></trkpt><trkpt lat="43.4242963" lon="11.4464034"><ele>382.5</ele><time>2026-04-11T09:20:04.069Z</time></trkpt><trkpt lat="43.4244017" lon="11.4465174"><ele>385.0</ele><time>2026-04-11T09:20:05.069Z</time></trkpt><trkpt lat="43.4244717" lon="11.4466778"><ele>387.5</ele><time>2026-04-11T09:20:06.07Z</time></trkpt><trkpt lat="43.4245291" lon="11.4468352"><ele>390.0</ele><time>2026-04-11T09:20:07.069Z</time></trkpt><trkpt lat="43.4245373" lon="11.447018"><ele>391.0</ele><time>2026-04-11T09:20:08.07Z</time></trkpt><trkpt lat="43.42452" lon="11.4472131"><ele>392.0</ele><time>2026-04-11T09:20:09.07Z</time></trkpt><trkpt lat="43.4244706" lon="11.4473993"><ele>393.0</ele><time>2026-04-11T09:20:10.069Z</time></trkpt><trkpt lat="43.4243834" lon="11.4475554"><ele>394.0</ele><time>2026-04-11T09:20:11.07Z</time></trkpt><trkpt lat="43.424245" lon="11.4476953"><ele>394.0</ele><time>2026-04-11T09:20:12.069Z</time></trkpt><trkpt lat="43.4241016" lon="11.4478076"><ele>394.0</ele><time>2026-04-11T09:20:13.069Z</time></trkpt><trkpt lat="43.4239728" lon="11.4479164"><ele>394.0</ele><time>2026-04-11T09:20:14.07Z</time></trkpt><trkpt lat="43.4238713" lon="11.4480317"><ele>394.0</ele><time>2026-04-11T09:20:15.069Z</time></trkpt><trkpt lat="43.4238044" lon="11.4481793"><ele>393.5</ele><time>2026-04-11T09:20:16.07Z</time></trkpt><trkpt lat="43.423772" lon="11.4483498"><ele>393.0</ele><time>2026-04-11T09:20:17.069Z</time></trkpt><trkpt lat="43.4237986" lon="11.4485453"><ele>392.5</ele><time>2026-04-11T09:20:18.069Z</time></trkpt><trkpt lat="43.4238538" lon="11.4487295"><ele>392.0</ele><time>2026-04-11T09:20:19.069Z</time></trkpt><trkpt lat="43.4239223" lon="11.4489254"><ele>392.0</ele><time>2026-04-11T09:20:20.07Z</time></trkpt><trkpt lat="43.4239809" lon="11.4491253"><ele>392.0</ele><time>2026-04-11T09:20:21.07Z</time></trkpt><trkpt lat="43.4240075" lon="11.4493233"><ele>392.0</ele><time>2026-04-11T09:20:22.069Z</time></trkpt><trkpt lat="43.423993" lon="11.4495175"><ele>392.0</ele><time>2026-04-11T09:20:23.071Z</time></trkpt><trkpt lat="43.4239452" lon="11.4497108"><ele>389.3333333333333</ele><time>2026-04-11T09:20:24.07Z</time></trkpt><trkpt lat="43.4238632" lon="11.449899"><ele>386.66666666666663</ele><time>2026-04-11T09:20:25.071Z</time></trkpt><trkpt lat="43.4237665" lon="11.4500734"><ele>384.0</ele><time>2026-04-11T09:20:26.071Z</time></trkpt><trkpt lat="43.4236528" lon="11.4502408"><ele>388.33333333333337</ele><time>2026-04-11T09:20:27.07Z</time></trkpt><trkpt lat="43.4235195" lon="11.4504119"><ele>392.6666666666667</ele><time>2026-04-11T09:20:28.071Z</time></trkpt><trkpt lat="43.4233904" lon="11.4505827"><ele>397.0</ele><time>2026-04-11T09:20:29.07Z</time></trkpt><trkpt lat="43.4232539" lon="11.4507441"><ele>397.0</ele><time>2026-04-11T09:20:30.07Z</time></trkpt><trkpt lat="43.423105" lon="11.4508935"><ele>397.0</ele><time>2026-04-11T09:20:31.07Z</time></trkpt><trkpt lat="43.4229468" lon="11.4510328"><ele>397.0</ele><time>2026-04-11T09:20:32.07Z</time></trkpt><trkpt lat="43.4227956" lon="11.4511629"><ele>396.6666666666667</ele><time>2026-04-11T09:20:33.07Z</time></trkpt><trkpt lat="43.4226435" lon="11.4512792"><ele>396.33333333333337</ele><time>2026-04-11T09:20:34.07Z</time></trkpt><trkpt lat="43.422492" lon="11.4513605"><ele>396.0</ele><time>2026-04-11T09:20:35.071Z</time></trkpt><trkpt lat="43.4223281" lon="11.4514085"><ele>396.0</ele><time>2026-04-11T09:20:36.071Z</time></trkpt><trkpt lat="43.4221637" lon="11.4514305"><ele>396.0</ele><time>2026-04-11T09:20:37.07Z</time></trkpt><trkpt lat="43.4219922" lon="11.4514274"><ele>396.0</ele><time>2026-04-11T09:20:38.07Z</time></trkpt><trkpt lat="43.421877" lon="11.4514462"><ele>401.3333333333333</ele><time>2026-04-11T09:20:39.071Z</time></trkpt><trkpt lat="43.4217896" lon="11.4514821"><ele>406.66666666666663</ele><time>2026-04-11T09:20:40.071Z</time></trkpt><trkpt lat="43.4216886" lon="11.451523"><ele>412.0</ele><time>2026-04-11T09:20:41.071Z</time></trkpt><trkpt lat="43.421625" lon="11.4515942"><ele>417.3333333333333</ele><time>2026-04-11T09:20:42.07Z</time></trkpt><trkpt lat="43.4215812" lon="11.451693"><ele>422.66666666666663</ele><time>2026-04-11T09:20:43.071Z</time></trkpt><trkpt lat="43.4215121" lon="11.4517624"><ele>428.0</ele><time>2026-04-11T09:20:44.071Z</time></trkpt><trkpt lat="43.4214365" lon="11.4518688"><ele>428.0</ele><time>2026-04-11T09:20:45.071Z</time></trkpt><trkpt lat="43.4213643" lon="11.4520643"><ele>428.0</ele><time>2026-04-11T09:20:46.071Z</time></trkpt><trkpt lat="43.421287" lon="11.4522781"><ele>428.0</ele><time>2026-04-11T09:20:47.071Z</time></trkpt><trkpt lat="43.4212596" lon="11.4524803"><ele>425.0</ele><time>2026-04-11T09:20:48.07Z</time></trkpt><trkpt lat="43.421278" lon="11.452674"><ele>422.0</ele><time>2026-04-11T09:20:49.071Z</time></trkpt><trkpt lat="43.4213624" lon="11.452934"><ele>419.0</ele><time>2026-04-11T09:20:50.071Z</time></trkpt><trkpt lat="43.4215213" lon="11.4531916"><ele>417.66666666666663</ele><time>2026-04-11T09:20:51.07Z</time></trkpt><trkpt lat="43.4216696" lon="11.4534331"><ele>416.33333333333337</ele><time>2026-04-11T09:20:52.071Z</time></trkpt><trkpt lat="43.4217708" lon="11.4536131"><ele>415.0</ele><time>2026-04-11T09:20:53.071Z</time></trkpt><trkpt lat="43.4217942" lon="11.4537875"><ele>414.5</ele><time>2026-04-11T09:20:54.071Z</time></trkpt><trkpt lat="43.4217583" lon="11.4539602"><ele>414.0</ele><time>2026-04-11T09:20:55.071Z</time></trkpt><trkpt lat="43.4216942" lon="11.454126"><ele>413.5</ele><time>2026-04-11T09:20:56.071Z</time></trkpt><trkpt lat="43.4215839" lon="11.4542599"><ele>413.0</ele><time>2026-04-11T09:20:57.071Z</time></trkpt><trkpt lat="43.4214322" lon="11.454383"><ele>416.0</ele><time>2026-04-11T09:20:58.071Z</time></trkpt><trkpt lat="43.4212592" lon="11.4544901"><ele>419.0</ele><time>2026-04-11T09:20:59.071Z</time></trkpt><trkpt lat="43.4210985" lon="11.4546076"><ele>422.0</ele><time>2026-04-11T09:21:00.071Z</time></trkpt><trkpt lat="43.4209654" lon="11.4547327"><ele>422.0</ele><time>2026-04-11T09:21:01.071Z</time></trkpt><trkpt lat="43.4208541" lon="11.4548859"><ele>422.0</ele><time>2026-04-11T09:21:02.071Z</time></trkpt><trkpt lat="43.4207621" lon="11.4551007"><ele>422.0</ele><time>2026-04-11T09:21:03.071Z</time></trkpt><trkpt lat="43.4206507" lon="11.4553006"><ele>424.0</ele><time>2026-04-11T09:21:04.071Z</time></trkpt><trkpt lat="43.4205175" lon="11.4554987"><ele>426.0</ele><time>2026-04-11T09:21:05.07Z</time></trkpt><trkpt lat="43.4203841" lon="11.4556899"><ele>428.0</ele><time>2026-04-11T09:21:06.07Z</time></trkpt><trkpt lat="43.4202555" lon="11.4558685"><ele>428.0</ele><time>2026-04-11T09:21:07.071Z</time></trkpt><trkpt lat="43.4201361" lon="11.4560359"><ele>428.0</ele><time>2026-04-11T09:21:08.071Z</time></trkpt><trkpt lat="43.4200271" lon="11.4562075"><ele>428.0</ele><time>2026-04-11T09:21:09.07Z</time></trkpt><trkpt lat="43.4199219" lon="11.4563749"><ele>426.75</ele><time>2026-04-11T09:21:10.07Z</time></trkpt><trkpt lat="43.4198163" lon="11.4565306"><ele>425.5</ele><time>2026-04-11T09:21:11.07Z</time></trkpt><trkpt lat="43.4197062" lon="11.4566735"><ele>424.25</ele><time>2026-04-11T09:21:12.07Z</time></trkpt><trkpt lat="43.4195976" lon="11.4567996"><ele>423.0</ele><time>2026-04-11T09:21:13.07Z</time></trkpt><trkpt lat="43.4194801" lon="11.456893"><ele>426.25</ele><time>2026-04-11T09:21:14.07Z</time></trkpt><trkpt lat="43.4193624" lon="11.4569555"><ele>429.5</ele><time>2026-04-11T09:21:15.07Z</time></trkpt><trkpt lat="43.4192417" lon="11.4569698"><ele>432.75</ele><time>2026-04-11T09:21:16.071Z</time></trkpt><trkpt lat="43.4191276" lon="11.4569864"><ele>436.0</ele><time>2026-04-11T09:21:17.071Z</time></trkpt><trkpt lat="43.4190412" lon="11.4570477"><ele>436.0</ele><time>2026-04-11T09:21:18.071Z</time></trkpt><trkpt lat="43.4189612" lon="11.4571158"><ele>436.0</ele><time>2026-04-11T09:21:19.07Z</time></trkpt><trkpt lat="43.4189027" lon="11.457215"><ele>436.0</ele><time>2026-04-11T09:21:20.07Z</time></trkpt><trkpt lat="43.4188702" lon="11.4573339"><ele>436.0</ele><time>2026-04-11T09:21:21.07Z</time></trkpt><trkpt lat="43.4188535" lon="11.4575061"><ele>436.0</ele><time>2026-04-11T09:21:22.07Z</time></trkpt><trkpt lat="43.4188176" lon="11.4576637"><ele>435.25</ele><time>2026-04-11T09:21:23.071Z</time></trkpt><trkpt lat="43.4187528" lon="11.4578019"><ele>434.5</ele><time>2026-04-11T09:21:24.07Z</time></trkpt><trkpt lat="43.4186436" lon="11.4579107"><ele>433.75</ele><time>2026-04-11T09:21:25.072Z</time></trkpt><trkpt lat="43.418505" lon="11.4580149"><ele>433.0</ele><time>2026-04-11T09:21:26.072Z</time></trkpt><trkpt lat="43.4183605" lon="11.458122"><ele>433.0</ele><time>2026-04-11T09:21:27.072Z</time></trkpt><trkpt lat="43.4182173" lon="11.4582252"><ele>433.0</ele><time>2026-04-11T09:21:28.071Z</time></trkpt><trkpt lat="43.4180921" lon="11.4583133"><ele>433.0</ele><time>2026-04-11T09:21:29.072Z</time></trkpt><trkpt lat="43.4179765" lon="11.4583869"><ele>433.0</ele><time>2026-04-11T09:21:30.071Z</time></trkpt><trkpt lat="43.417868" lon="11.4584338"><ele>434.5</ele><time>2026-04-11T09:21:31.071Z</time></trkpt><trkpt lat="43.4177512" lon="11.458456"><ele>436.0</ele><time>2026-04-11T09:21:32.071Z</time></trkpt><trkpt lat="43.4176351" lon="11.4584284"><ele>437.5</ele><time>2026-04-11T09:21:33.072Z</time></trkpt><trkpt lat="43.4175228" lon="11.458383"><ele>439.0</ele><time>2026-04-11T09:21:34.071Z</time></trkpt><trkpt lat="43.4174131" lon="11.4583034"><ele>439.0</ele><time>2026-04-11T09:21:35.072Z</time></trkpt><trkpt lat="43.4173116" lon="11.4582128"><ele>439.0</ele><time>2026-04-11T09:21:36.071Z</time></trkpt><trkpt lat="43.417213" lon="11.4581173"><ele>439.0</ele><time>2026-04-11T09:21:37.071Z</time></trkpt><trkpt lat="43.4171071" lon="11.4580684"><ele>439.0</ele><time>2026-04-11T09:21:38.072Z</time></trkpt><trkpt lat="43.4169887" lon="11.4580355"><ele>439.5</ele><time>2026-04-11T09:21:39.072Z</time></trkpt><trkpt lat="43.4168482" lon="11.4580043"><ele>440.0</ele><time>2026-04-11T09:21:40.072Z</time></trkpt><trkpt lat="43.416708" lon="11.4579729"><ele>440.5</ele><time>2026-04-11T09:21:41.072Z</time></trkpt><trkpt lat="43.4165791" lon="11.4579484"><ele>441.0</ele><time>2026-04-11T09:21:42.071Z</time></trkpt><trkpt lat="43.4164651" lon="11.4579477"><ele>441.0</ele><time>2026-04-11T09:21:43.072Z</time></trkpt><trkpt lat="43.416372" lon="11.4579899"><ele>441.0</ele><time>2026-04-11T09:21:44.071Z</time></trkpt><trkpt lat="43.4162792" lon="11.4580753"><ele>441.0</ele><time>2026-04-11T09:21:45.071Z</time></trkpt><trkpt lat="43.4161936" lon="11.4581587"><ele>441.0</ele><time>2026-04-11T09:21:46.071Z</time></trkpt><trkpt lat="43.4161171" lon="11.4582425"><ele>441.0</ele><time>2026-04-11T09:21:47.071Z</time></trkpt><trkpt lat="43.416048" lon="11.4583239"><ele>442.0</ele><time>2026-04-11T09:21:48.071Z</time></trkpt><trkpt lat="43.4159827" lon="11.4584205"><ele>443.0</ele><time>2026-04-11T09:21:49.072Z</time></trkpt><trkpt lat="43.4159236" lon="11.4585398"><ele>444.0</ele><time>2026-04-11T09:21:50.071Z</time></trkpt><trkpt lat="43.4158809" lon="11.4586733"><ele>445.0</ele><time>2026-04-11T09:21:51.071Z</time></trkpt><trkpt lat="43.4158535" lon="11.4588151"><ele>446.0</ele><time>2026-04-11T09:21:52.071Z</time></trkpt><trkpt lat="43.4158385" lon="11.4589467"><ele>450.0</ele><time>2026-04-11T09:21:53.071Z</time></trkpt><trkpt lat="43.4158282" lon="11.4590615"><ele>450.0</ele><time>2026-04-11T09:21:54.072Z</time></trkpt><trkpt lat="43.4158264" lon="11.4591536"><ele>450.0</ele><time>2026-04-11T09:21:55.071Z</time></trkpt><trkpt lat="43.4158369" lon="11.4593158"><ele>450.0</ele><time>2026-04-11T09:21:57.071Z</time></trkpt><trkpt lat="43.4158621" lon="11.4594379"><ele>450.0</ele><time>2026-04-11T09:21:59.072Z</time></trkpt></trkseg><trkseg><trkpt lat="43.4159784" lon="11.4587445"><ele>446.66666666666663</ele><time>2026-04-11T10:10:26.164Z</time></trkpt><trkpt lat="43.4159189" lon="11.4587916"><ele>447.3333333333333</ele><time>2026-04-11T10:10:30.19Z</time></trkpt><trkpt lat="43.4158893" lon="11.4588808"><ele>448.0</ele><time>2026-04-11T10:10:32.214Z</time></trkpt><trkpt lat="43.4158688" lon="11.4590354"><ele>448.66666666666663</ele><time>2026-04-11T10:10:33.126Z</time></trkpt><trkpt lat="43.4158601" lon="11.459135"><ele>449.3333333333333</ele><time>2026-04-11T10:10:34.127Z</time></trkpt><trkpt lat="43.4158645" lon="11.4592469"><ele>450.0</ele><time>2026-04-11T10:10:36.126Z</time></trkpt><trkpt lat="43.4158804" lon="11.4593543"><ele>450.0</ele><time>2026-04-11T10:10:38.127Z</time></trkpt><trkpt lat="43.4158924" lon="11.4594741"><ele>450.0</ele><time>2026-04-11T10:10:40.126Z</time></trkpt><trkpt lat="43.4159035" lon="11.4596222"><ele>450.0</ele><time>2026-04-11T10:10:42.126Z</time></trkpt><trkpt lat="43.4159093" lon="11.4598121"><ele>450.0</ele><time>2026-04-11T10:10:44.127Z</time></trkpt><trkpt lat="43.4159109" lon="11.4599395"><ele>450.0</ele><time>2026-04-11T10:10:45.127Z</time></trkpt><trkpt lat="43.4159116" lon="11.4600566"><ele>451.1666666666667</ele><time>2026-04-11T10:10:46.126Z</time></trkpt><trkpt lat="43.4159107" lon="11.4601665"><ele>452.33333333333337</ele><time>2026-04-11T10:10:47.126Z</time></trkpt><trkpt lat="43.4159068" lon="11.4602723"><ele>453.5</ele><time>2026-04-11T10:10:48.126Z</time></trkpt><trkpt lat="43.4159077" lon="11.4603699"><ele>454.6666666666667</ele><time>2026-04-11T10:10:49.126Z</time></trkpt><trkpt lat="43.4159104" lon="11.4604702"><ele>455.83333333333337</ele><time>2026-04-11T10:10:50.126Z</time></trkpt><trkpt lat="43.4159162" lon="11.4605651"><ele>457.0</ele><time>2026-04-11T10:10:51.127Z</time></trkpt><trkpt lat="43.4159451" lon="11.4607054"><ele>459.8</ele><time>2026-04-11T10:10:53.127Z</time></trkpt><trkpt lat="43.4160026" lon="11.4608256"><ele>462.6</ele><time>2026-04-11T10:10:55.126Z</time></trkpt><trkpt lat="43.4160688" lon="11.4609594"><ele>465.40000000000003</ele><time>2026-04-11T10:10:57.127Z</time></trkpt><trkpt lat="43.4160963" lon="11.4610429"><ele>468.20000000000005</ele><time>2026-04-11T10:10:58.127Z</time></trkpt><trkpt lat="43.4161159" lon="11.4611876"><ele>471.0</ele><time>2026-04-11T10:11:00.127Z</time></trkpt><trkpt lat="43.4160843" lon="11.4613084"><ele>471.0</ele><time>2026-04-11T10:11:02.126Z</time></trkpt><trkpt lat="43.4160436" lon="11.4613939"><ele>471.0</ele><time>2026-04-11T10:11:14.128Z</time></trkpt><trkpt lat="43.4159455" lon="11.4614327"><ele>471.0</ele><time>2026-04-11T10:11:16.128Z</time></trkpt><trkpt lat="43.4158791" lon="11.4613807"><ele>471.0</ele><time>2026-04-11T10:11:18.127Z</time></trkpt><trkpt lat="43.4158166" lon="11.4612987"><ele>471.0</ele><time>2026-04-11T10:11:19.128Z</time></trkpt><trkpt lat="43.4157299" lon="11.4612494"><ele>471.0</ele><time>2026-04-11T10:11:20.128Z</time></trkpt><trkpt lat="43.4156995" lon="11.4611279"><ele>471.0</ele><time>2026-04-11T10:11:21.127Z</time></trkpt><trkpt lat="43.4156789" lon="11.4610025"><ele>471.0</ele><time>2026-04-11T10:11:22.127Z</time></trkpt><trkpt lat="43.415604" lon="11.4608908"><ele>471.0</ele><time>2026-04-11T10:11:23.127Z</time></trkpt><trkpt lat="43.4155537" lon="11.4608155"><ele>471.0</ele><time>2026-04-11T10:11:24.128Z</time></trkpt><trkpt lat="43.4154663" lon="11.4607108"><ele>471.0</ele><time>2026-04-11T10:11:26.127Z</time></trkpt><trkpt lat="43.4153991" lon="11.4606443"><ele>472.8</ele><time>2026-04-11T10:11:28.128Z</time></trkpt><trkpt lat="43.4152616" lon="11.4606811"><ele>474.6</ele><time>2026-04-11T10:11:33.128Z</time></trkpt><trkpt lat="43.4153035" lon="11.4607484"><ele>476.4</ele><time>2026-04-11T10:11:35.127Z</time></trkpt><trkpt lat="43.4153876" lon="11.4607278"><ele>478.2</ele><time>2026-04-11T10:11:36.127Z</time></trkpt><trkpt lat="43.4154394" lon="11.4608549"><ele>480.0</ele><time>2026-04-11T10:11:38.128Z</time></trkpt><trkpt lat="43.415461" lon="11.4609394"><ele>480.0</ele><time>2026-04-11T10:11:39.127Z</time></trkpt><trkpt lat="43.4154678" lon="11.4610291"><ele>480.0</ele><time>2026-04-11T10:11:40.127Z</time></trkpt><trkpt lat="43.4154619" lon="11.4611244"><ele>480.0</ele><time>2026-04-11T10:11:41.127Z</time></trkpt><trkpt lat="43.4154438" lon="11.4612115"><ele>480.0</ele><time>2026-04-11T10:11:42.128Z</time></trkpt><trkpt lat="43.4154099" lon="11.4613649"><ele>480.0</ele><time>2026-04-11T10:11:44.127Z</time></trkpt><trkpt lat="43.4154011" lon="11.4615131"><ele>480.0</ele><time>2026-04-11T10:11:46.127Z</time></trkpt><trkpt lat="43.4154041" lon="11.461617"><ele>481.6666666666667</ele><time>2026-04-11T10:11:47.127Z</time></trkpt><trkpt lat="43.4153801" lon="11.4617443"><ele>483.33333333333337</ele><time>2026-04-11T10:11:49.128Z</time></trkpt><trkpt lat="43.4152978" lon="11.4617065"><ele>485.0</ele><time>2026-04-11T10:11:51.128Z</time></trkpt><trkpt lat="43.4152507" lon="11.461637"><ele>486.6666666666667</ele><time>2026-04-11T10:11:54.127Z</time></trkpt><trkpt lat="43.415239" lon="11.4614837"><ele>488.33333333333337</ele><time>2026-04-11T10:11:56.127Z</time></trkpt><trkpt lat="43.4151916" lon="11.4613885"><ele>490.0</ele><time>2026-04-11T10:11:58.127Z</time></trkpt><trkpt lat="43.4151292" lon="11.4613597"><ele>490.00000000000006</ele><time>2026-04-11T10:12:00.127Z</time></trkpt><trkpt lat="43.4150706" lon="11.4613972"><ele>490.0</ele><time>2026-04-11T10:12:02.127Z</time></trkpt><trkpt lat="43.4150361" lon="11.4614941"><ele>490.0</ele><time>2026-04-11T10:12:04.128Z</time></trkpt><trkpt lat="43.4150117" lon="11.461625"><ele>490.0</ele><time>2026-04-11T10:12:06.127Z</time></trkpt><trkpt lat="43.4149692" lon="11.4617932"><ele>490.00000000000006</ele><time>2026-04-11T10:12:08.127Z</time></trkpt><trkpt lat="43.4149324" lon="11.4618816"><ele>490.0</ele><time>2026-04-11T10:12:09.127Z</time></trkpt><trkpt lat="43.4148856" lon="11.461968"><ele>490.00000000000006</ele><time>2026-04-11T10:12:10.127Z</time></trkpt><trkpt lat="43.4148359" lon="11.4620495"><ele>490.0</ele><time>2026-04-11T10:12:11.128Z</time></trkpt><trkpt lat="43.4147885" lon="11.4621272"><ele>490.0</ele><time>2026-04-11T10:12:12.128Z</time></trkpt><trkpt lat="43.4147366" lon="11.4622439"><ele>490.0</ele><time>2026-04-11T10:12:14.127Z</time></trkpt><trkpt lat="43.4147135" lon="11.4623499"><ele>490.00000000000006</ele><time>2026-04-11T10:12:16.128Z</time></trkpt><trkpt lat="43.4146946" lon="11.4624532"><ele>490.0</ele><time>2026-04-11T10:12:18.129Z</time></trkpt><trkpt lat="43.4146733" lon="11.4625454"><ele>493.33333333333337</ele><time>2026-04-11T10:12:20.128Z</time></trkpt><trkpt lat="43.414634" lon="11.4626754"><ele>496.6666666666667</ele><time>2026-04-11T10:12:22.128Z</time></trkpt><trkpt lat="43.4146125" lon="11.4627584"><ele>500.0</ele><time>2026-04-11T10:12:23.128Z</time></trkpt><trkpt lat="43.4145929" lon="11.4629356"><ele>503.33333333333337</ele><time>2026-04-11T10:12:25.128Z</time></trkpt><trkpt lat="43.4145943" lon="11.4630324"><ele>506.6666666666667</ele><time>2026-04-11T10:12:26.129Z</time></trkpt><trkpt lat="43.4146027" lon="11.4631194"><ele>510.0</ele><time>2026-04-11T10:12:27.128Z</time></trkpt><trkpt lat="43.4146086" lon="11.4632068"><ele>512.3333333333334</ele><time>2026-04-11T10:12:28.129Z</time></trkpt><trkpt lat="43.4146156" lon="11.4632964"><ele>514.6666666666666</ele><time>2026-04-11T10:12:29.128Z</time></trkpt><trkpt lat="43.4146216" lon="11.463388"><ele>517.0</ele><time>2026-04-11T10:12:30.128Z</time></trkpt><trkpt lat="43.414625" lon="11.4634814"><ele>519.3333333333333</ele><time>2026-04-11T10:12:31.129Z</time></trkpt><trkpt lat="43.4146234" lon="11.4635689"><ele>521.6666666666666</ele><time>2026-04-11T10:12:32.129Z</time></trkpt><trkpt lat="43.4146083" lon="11.4636573"><ele>524.0</ele><time>2026-04-11T10:12:33.129Z</time></trkpt><trkpt lat="43.4145726" lon="11.463817"><ele>524.0</ele><time>2026-04-11T10:12:35.128Z</time></trkpt><trkpt lat="43.414538" lon="11.4639521"><ele>524.0</ele><time>2026-04-11T10:12:37.129Z</time></trkpt><trkpt lat="43.4144971" lon="11.4640301"><ele>524.0</ele><time>2026-04-11T10:12:38.129Z</time></trkpt><trkpt lat="43.4143988" lon="11.4641329"><ele>524.0</ele><time>2026-04-11T10:12:40.129Z</time></trkpt><trkpt lat="43.414336" lon="11.4641854"><ele>524.0</ele><time>2026-04-11T10:12:41.129Z</time></trkpt><trkpt lat="43.4142648" lon="11.4642492"><ele>524.0</ele><time>2026-04-11T10:12:42.129Z</time></trkpt><trkpt lat="43.4142039" lon="11.4643081"><ele>524.0</ele><time>2026-04-11T10:12:43.128Z</time></trkpt><trkpt lat="43.4141447" lon="11.4643703"><ele>524.0</ele><time>2026-04-11T10:12:44.129Z</time></trkpt><trkpt lat="43.4140884" lon="11.4644163"><ele>524.0</ele><time>2026-04-11T10:12:45.128Z</time></trkpt><trkpt lat="43.4140281" lon="11.4644572"><ele>524.0</ele><time>2026-04-11T10:12:46.129Z</time></trkpt><trkpt lat="43.413964" lon="11.4644925"><ele>524.0</ele><time>2026-04-11T10:12:47.129Z</time></trkpt><trkpt lat="43.413883" lon="11.4645331"><ele>524.0</ele><time>2026-04-11T10:12:48.129Z</time></trkpt><trkpt lat="43.4138153" lon="11.4645555"><ele>525.1666666666666</ele><time>2026-04-11T10:12:49.128Z</time></trkpt><trkpt lat="43.413746" lon="11.4645778"><ele>526.3333333333333</ele><time>2026-04-11T10:12:50.129Z</time></trkpt><trkpt lat="43.4136609" lon="11.4645861"><ele>527.5</ele><time>2026-04-11T10:12:51.128Z</time></trkpt><trkpt lat="43.4135642" lon="11.4645956"><ele>528.6666666666666</ele><time>2026-04-11T10:12:52.128Z</time></trkpt><trkpt lat="43.4134795" lon="11.4645974"><ele>529.8333333333334</ele><time>2026-04-11T10:12:53.129Z</time></trkpt><trkpt lat="43.413398" lon="11.4645877"><ele>531.0</ele><time>2026-04-11T10:12:54.128Z</time></trkpt><trkpt lat="43.4133221" lon="11.4645666"><ele>531.0</ele><time>2026-04-11T10:12:55.129Z</time></trkpt><trkpt lat="43.4132474" lon="11.4645299"><ele>531.0</ele><time>2026-04-11T10:12:56.128Z</time></trkpt><trkpt lat="43.4131832" lon="11.4644909"><ele>531.0</ele><time>2026-04-11T10:12:57.128Z</time></trkpt><trkpt lat="43.4131063" lon="11.4644411"><ele>531.0</ele><time>2026-04-11T10:12:58.129Z</time></trkpt><trkpt lat="43.4130367" lon="11.4643984"><ele>531.0</ele><time>2026-04-11T10:12:59.128Z</time></trkpt><trkpt lat="43.412971" lon="11.4643626"><ele>531.0</ele><time>2026-04-11T10:13:00.129Z</time></trkpt><trkpt lat="43.412905" lon="11.4643458"><ele>531.0</ele><time>2026-04-11T10:13:01.128Z</time></trkpt><trkpt lat="43.4128361" lon="11.464343"><ele>528.5714285714286</ele><time>2026-04-11T10:13:02.128Z</time></trkpt><trkpt lat="43.4127651" lon="11.4643428"><ele>526.1428571428572</ele><time>2026-04-11T10:13:03.129Z</time></trkpt><trkpt lat="43.412686" lon="11.4643381"><ele>523.7142857142858</ele><time>2026-04-11T10:13:04.128Z</time></trkpt><trkpt lat="43.4126146" lon="11.4643304"><ele>521.2857142857143</ele><time>2026-04-11T10:13:05.129Z</time></trkpt><trkpt lat="43.41255" lon="11.4643248"><ele>518.8571428571429</ele><time>2026-04-11T10:13:06.129Z</time></trkpt><trkpt lat="43.4124843" lon="11.464338"><ele>516.4285714285714</ele><time>2026-04-11T10:13:07.129Z</time></trkpt><trkpt lat="43.4124226" lon="11.4643607"><ele>514.0</ele><time>2026-04-11T10:13:08.128Z</time></trkpt><trkpt lat="43.4123057" lon="11.4644347"><ele>514.0</ele><time>2026-04-11T10:13:10.129Z</time></trkpt><trkpt lat="43.4122337" lon="11.4644835"><ele>514.0</ele><time>2026-04-11T10:13:11.128Z</time></trkpt><trkpt lat="43.4121591" lon="11.4645365"><ele>514.0</ele><time>2026-04-11T10:13:12.128Z</time></trkpt><trkpt lat="43.4120733" lon="11.4645946"><ele>514.0</ele><time>2026-04-11T10:13:13.128Z</time></trkpt><trkpt lat="43.4119935" lon="11.4646506"><ele>514.0</ele><time>2026-04-11T10:13:14.129Z</time></trkpt><trkpt lat="43.4119146" lon="11.4647003"><ele>514.0</ele><time>2026-04-11T10:13:15.128Z</time></trkpt><trkpt lat="43.4118382" lon="11.4647482"><ele>512.1666666666667</ele><time>2026-04-11T10:13:16.13Z</time></trkpt><trkpt lat="43.4117649" lon="11.4647897"><ele>510.33333333333337</ele><time>2026-04-11T10:13:17.129Z</time></trkpt><trkpt lat="43.4116932" lon="11.4648178"><ele>508.5</ele><time>2026-04-11T10:13:18.129Z</time></trkpt><trkpt lat="43.4116247" lon="11.4648198"><ele>506.66666666666663</ele><time>2026-04-11T10:13:19.129Z</time></trkpt><trkpt lat="43.4115522" lon="11.4648016"><ele>504.8333333333333</ele><time>2026-04-11T10:13:20.128Z</time></trkpt><trkpt lat="43.4114761" lon="11.4647607"><ele>503.0</ele><time>2026-04-11T10:13:21.128Z</time></trkpt><trkpt lat="43.4113939" lon="11.4647005"><ele>501.8333333333333</ele><time>2026-04-11T10:13:22.13Z</time></trkpt><trkpt lat="43.4113125" lon="11.4646424"><ele>500.66666666666663</ele><time>2026-04-11T10:13:23.13Z</time></trkpt><trkpt lat="43.411239" lon="11.4645875"><ele>499.5</ele><time>2026-04-11T10:13:24.13Z</time></trkpt><trkpt lat="43.4111648" lon="11.4645248"><ele>498.33333333333337</ele><time>2026-04-11T10:13:25.13Z</time></trkpt><trkpt lat="43.4111021" lon="11.4644714"><ele>497.1666666666667</ele><time>2026-04-11T10:13:26.13Z</time></trkpt><trkpt lat="43.4110422" lon="11.464432"><ele>496.0</ele><time>2026-04-11T10:13:27.13Z</time></trkpt><trkpt lat="43.4109785" lon="11.4644091"><ele>495.6666666666667</ele><time>2026-04-11T10:13:28.129Z</time></trkpt><trkpt lat="43.4108567" lon="11.4644238"><ele>495.33333333333337</ele><time>2026-04-11T10:13:30.129Z</time></trkpt><trkpt lat="43.4107863" lon="11.4644383"><ele>495.0</ele><time>2026-04-11T10:13:31.13Z</time></trkpt><trkpt lat="43.4107183" lon="11.4644513"><ele>494.66666666666663</ele><time>2026-04-11T10:13:32.13Z</time></trkpt><trkpt lat="43.4106537" lon="11.4644583"><ele>494.3333333333333</ele><time>2026-04-11T10:13:33.13Z</time></trkpt><trkpt lat="43.4105502" lon="11.464458"><ele>494.0</ele><time>2026-04-11T10:13:35.129Z</time></trkpt><trkpt lat="43.4104682" lon="11.4644477"><ele>494.0</ele><time>2026-04-11T10:13:37.13Z</time></trkpt><trkpt lat="43.410403" lon="11.4644364"><ele>494.0</ele><time>2026-04-11T10:13:39.13Z</time></trkpt><trkpt lat="43.4103364" lon="11.4644303"><ele>494.0</ele><time>2026-04-11T10:13:42.13Z</time></trkpt><trkpt lat="43.4103901" lon="11.4645044"><ele>494.0</ele><time>2026-04-11T10:14:23.13Z</time></trkpt><trkpt lat="43.4104568" lon="11.4644948"><ele>494.0</ele><time>2026-04-11T10:14:25.131Z</time></trkpt><trkpt lat="43.410528" lon="11.4644192"><ele>494.0</ele><time>2026-04-11T10:14:28.13Z</time></trkpt><trkpt lat="43.4105663" lon="11.4643434"><ele>494.0</ele><time>2026-04-11T10:14:31.13Z</time></trkpt><trkpt lat="43.4106734" lon="11.464351"><ele>493.99999999999994</ele><time>2026-04-11T10:17:46.133Z</time></trkpt><trkpt lat="43.4107401" lon="11.4643606"><ele>494.0</ele><time>2026-04-11T10:17:47.134Z</time></trkpt><trkpt lat="43.4108233" lon="11.4643416"><ele>494.0</ele><time>2026-04-11T10:17:49.134Z</time></trkpt><trkpt lat="43.4109047" lon="11.4643153"><ele>494.0</ele><time>2026-04-11T10:17:51.134Z</time></trkpt><trkpt lat="43.4109814" lon="11.4642939"><ele>493.99999999999994</ele><time>2026-04-11T10:17:54.134Z</time></trkpt><trkpt lat="43.41091" lon="11.4643342"><ele>494.0</ele><time>2026-04-11T10:18:09.133Z</time></trkpt><trkpt lat="43.4108077" lon="11.4643423"><ele>493.99999999999994</ele><time>2026-04-11T10:18:11.134Z</time></trkpt><trkpt lat="43.4107331" lon="11.4643522"><ele>494.0</ele><time>2026-04-11T10:18:12.133Z</time></trkpt><trkpt lat="43.4106599" lon="11.4643598"><ele>494.0</ele><time>2026-04-11T10:18:13.134Z</time></trkpt><trkpt lat="43.4105518" lon="11.4643664"><ele>494.0</ele><time>2026-04-11T10:18:15.133Z</time></trkpt><trkpt lat="43.4104902" lon="11.4644015"><ele>493.99999999999994</ele><time>2026-04-11T10:18:17.133Z</time></trkpt><trkpt lat="43.4104281" lon="11.4644533"><ele>494.0</ele><time>2026-04-11T10:18:19.133Z</time></trkpt><trkpt lat="43.4103205" lon="11.4644778"><ele>493.6</ele><time>2026-04-11T10:18:21.134Z</time></trkpt><trkpt lat="43.4102318" lon="11.46448"><ele>493.2</ele><time>2026-04-11T10:18:22.133Z</time></trkpt><trkpt lat="43.4101289" lon="11.4644798"><ele>492.80000000000007</ele><time>2026-04-11T10:18:23.133Z</time></trkpt><trkpt lat="43.4100201" lon="11.464479"><ele>492.40000000000003</ele><time>2026-04-11T10:18:24.134Z</time></trkpt><trkpt lat="43.4098997" lon="11.4644831"><ele>492.0</ele><time>2026-04-11T10:18:25.134Z</time></trkpt><trkpt lat="43.4097694" lon="11.4644865"><ele>492.25</ele><time>2026-04-11T10:18:26.134Z</time></trkpt><trkpt lat="43.4096365" lon="11.4644884"><ele>492.5</ele><time>2026-04-11T10:18:27.134Z</time></trkpt><trkpt lat="43.4095145" lon="11.4644908"><ele>492.75</ele><time>2026-04-11T10:18:28.133Z</time></trkpt><trkpt lat="43.4094046" lon="11.4644946"><ele>493.0</ele><time>2026-04-11T10:18:29.134Z</time></trkpt><trkpt lat="43.4093012" lon="11.4645"><ele>493.0</ele><time>2026-04-11T10:18:30.134Z</time></trkpt><trkpt lat="43.4092024" lon="11.464507"><ele>492.99999999999994</ele><time>2026-04-11T10:18:31.133Z</time></trkpt><trkpt lat="43.4091062" lon="11.4645165"><ele>492.99999999999994</ele><time>2026-04-11T10:18:32.134Z</time></trkpt><trkpt lat="43.4090149" lon="11.4645309"><ele>493.0</ele><time>2026-04-11T10:18:33.134Z</time></trkpt><trkpt lat="43.4089315" lon="11.4645449"><ele>493.0</ele><time>2026-04-11T10:18:34.134Z</time></trkpt><trkpt lat="43.4088509" lon="11.464557"><ele>492.2</ele><time>2026-04-11T10:18:35.134Z</time></trkpt><trkpt lat="43.4087672" lon="11.4645667"><ele>491.4</ele><time>2026-04-11T10:18:36.134Z</time></trkpt><trkpt lat="43.4086782" lon="11.4645698"><ele>490.59999999999997</ele><time>2026-04-11T10:18:37.134Z</time></trkpt><trkpt lat="43.4085835" lon="11.4645675"><ele>489.79999999999995</ele><time>2026-04-11T10:18:38.133Z</time></trkpt><trkpt lat="43.4084927" lon="11.4645603"><ele>489.0</ele><time>2026-04-11T10:18:39.134Z</time></trkpt><trkpt lat="43.4083993" lon="11.4645486"><ele>489.0</ele><time>2026-04-11T10:18:40.133Z</time></trkpt><trkpt lat="43.4082997" lon="11.4645415"><ele>489.0</ele><time>2026-04-11T10:18:41.134Z</time></trkpt><trkpt lat="43.4081845" lon="11.4645386"><ele>489.0</ele><time>2026-04-11T10:18:42.133Z</time></trkpt><trkpt lat="43.4080631" lon="11.4645382"><ele>489.0</ele><time>2026-04-11T10:18:43.134Z</time></trkpt><trkpt lat="43.4079403" lon="11.4645441"><ele>486.5</ele><time>2026-04-11T10:18:44.134Z</time></trkpt><trkpt lat="43.4078217" lon="11.464548"><ele>484.0</ele><time>2026-04-11T10:18:45.135Z</time></trkpt><trkpt lat="43.4077027" lon="11.4645558"><ele>481.5</ele><time>2026-04-11T10:18:46.135Z</time></trkpt><trkpt lat="43.4075868" lon="11.4645659"><ele>479.0</ele><time>2026-04-11T10:18:47.134Z</time></trkpt><trkpt lat="43.4074777" lon="11.4645824"><ele>479.0</ele><time>2026-04-11T10:18:48.135Z</time></trkpt><trkpt lat="43.4073715" lon="11.4646027"><ele>479.0</ele><time>2026-04-11T10:18:49.134Z</time></trkpt><trkpt lat="43.407265" lon="11.4646215"><ele>479.0</ele><time>2026-04-11T10:18:50.134Z</time></trkpt><trkpt lat="43.4071587" lon="11.4646363"><ele>479.0</ele><time>2026-04-11T10:18:51.134Z</time></trkpt><trkpt lat="43.4070507" lon="11.4646444"><ele>479.0</ele><time>2026-04-11T10:18:52.134Z</time></trkpt><trkpt lat="43.4069426" lon="11.4646383"><ele>478.79999999999995</ele><time>2026-04-11T10:18:53.135Z</time></trkpt><trkpt lat="43.4068387" lon="11.4646197"><ele>478.59999999999997</ele><time>2026-04-11T10:18:54.135Z</time></trkpt><trkpt lat="43.4067423" lon="11.4645877"><ele>478.4</ele><time>2026-04-11T10:18:55.134Z</time></trkpt><trkpt lat="43.40665" lon="11.46455"><ele>478.2</ele><time>2026-04-11T10:18:56.135Z</time></trkpt><trkpt lat="43.4065658" lon="11.4645098"><ele>478.0</ele><time>2026-04-11T10:18:57.134Z</time></trkpt><trkpt lat="43.4064769" lon="11.464476"><ele>477.2</ele><time>2026-04-11T10:18:58.135Z</time></trkpt><trkpt lat="43.4063843" lon="11.4644445"><ele>476.4</ele><time>2026-04-11T10:18:59.135Z</time></trkpt><trkpt lat="43.4062862" lon="11.4644118"><ele>475.59999999999997</ele><time>2026-04-11T10:19:00.135Z</time></trkpt><trkpt lat="43.4061865" lon="11.4643734"><ele>474.79999999999995</ele><time>2026-04-11T10:19:01.134Z</time></trkpt><trkpt lat="43.4060867" lon="11.4643293"><ele>474.0</ele><time>2026-04-11T10:19:02.134Z</time></trkpt><trkpt lat="43.4059872" lon="11.4642745"><ele>472.79999999999995</ele><time>2026-04-11T10:19:03.135Z</time></trkpt><trkpt lat="43.4058944" lon="11.4642097"><ele>471.59999999999997</ele><time>2026-04-11T10:19:04.135Z</time></trkpt><trkpt lat="43.4058095" lon="11.4641399"><ele>470.4</ele><time>2026-04-11T10:19:05.135Z</time></trkpt><trkpt lat="43.4057289" lon="11.4640697"><ele>469.2</ele><time>2026-04-11T10:19:06.135Z</time></trkpt><trkpt lat="43.4056495" lon="11.4639954"><ele>468.0</ele><time>2026-04-11T10:19:07.134Z</time></trkpt><trkpt lat="43.4055694" lon="11.46392"><ele>465.0</ele><time>2026-04-11T10:19:08.135Z</time></trkpt><trkpt lat="43.4054862" lon="11.4638435"><ele>461.99999999999994</ele><time>2026-04-11T10:19:09.134Z</time></trkpt><trkpt lat="43.4054053" lon="11.4637652"><ele>458.99999999999994</ele><time>2026-04-11T10:19:10.135Z</time></trkpt><trkpt lat="43.4053269" lon="11.4636805"><ele>456.0</ele><time>2026-04-11T10:19:11.134Z</time></trkpt><trkpt lat="43.405251" lon="11.4635865"><ele>453.0</ele><time>2026-04-11T10:19:12.135Z</time></trkpt><trkpt lat="43.4051721" lon="11.4634836"><ele>453.0</ele><time>2026-04-11T10:19:13.134Z</time></trkpt><trkpt lat="43.4050929" lon="11.4633771"><ele>453.0</ele><time>2026-04-11T10:19:14.134Z</time></trkpt><trkpt lat="43.4050106" lon="11.4632611"><ele>453.0</ele><time>2026-04-11T10:19:15.135Z</time></trkpt><trkpt lat="43.4049326" lon="11.463145"><ele>453.0</ele><time>2026-04-11T10:19:16.135Z</time></trkpt><trkpt lat="43.4048625" lon="11.4630301"><ele>452.59999999999997</ele><time>2026-04-11T10:19:17.135Z</time></trkpt><trkpt lat="43.4047997" lon="11.4629195"><ele>452.19999999999993</ele><time>2026-04-11T10:19:18.134Z</time></trkpt><trkpt lat="43.404749" lon="11.4628002"><ele>451.8</ele><time>2026-04-11T10:19:19.135Z</time></trkpt><trkpt lat="43.4047117" lon="11.4626747"><ele>451.4</ele><time>2026-04-11T10:19:20.134Z</time></trkpt><trkpt lat="43.4046806" lon="11.4625346"><ele>451.0</ele><time>2026-04-11T10:19:21.135Z</time></trkpt><trkpt lat="43.4046586" lon="11.4623809"><ele>451.0</ele><time>2026-04-11T10:19:22.134Z</time></trkpt><trkpt lat="43.4046379" lon="11.4622263"><ele>451.0</ele><time>2026-04-11T10:19:23.135Z</time></trkpt><trkpt lat="43.4046168" lon="11.4620654"><ele>451.0</ele><time>2026-04-11T10:19:24.135Z</time></trkpt><trkpt lat="43.4045907" lon="11.4618999"><ele>451.0</ele><time>2026-04-11T10:19:25.134Z</time></trkpt><trkpt lat="43.404565" lon="11.4617325"><ele>452.0</ele><time>2026-04-11T10:19:26.134Z</time></trkpt><trkpt lat="43.4045338" lon="11.4615939"><ele>453.0</ele><time>2026-04-11T10:19:27.135Z</time></trkpt><trkpt lat="43.4044873" lon="11.4614656"><ele>454.0</ele><time>2026-04-11T10:19:28.135Z</time></trkpt><trkpt lat="43.4044271" lon="11.4613385"><ele>455.0</ele><time>2026-04-11T10:19:29.135Z</time></trkpt><trkpt lat="43.4043595" lon="11.4612049"><ele>456.0</ele><time>2026-04-11T10:19:30.135Z</time></trkpt><trkpt lat="43.4042883" lon="11.4610656"><ele>456.4</ele><time>2026-04-11T10:19:31.134Z</time></trkpt><trkpt lat="43.4042213" lon="11.4609264"><ele>456.8</ele><time>2026-04-11T10:19:32.134Z</time></trkpt><trkpt lat="43.4041703" lon="11.4608011"><ele>457.19999999999993</ele><time>2026-04-11T10:19:33.134Z</time></trkpt><trkpt lat="43.4041247" lon="11.4606914"><ele>457.59999999999997</ele><time>2026-04-11T10:19:34.134Z</time></trkpt><trkpt lat="43.4040901" lon="11.460589"><ele>458.0</ele><time>2026-04-11T10:19:35.135Z</time></trkpt><trkpt lat="43.4040676" lon="11.4604825"><ele>457.66666666666663</ele><time>2026-04-11T10:19:36.134Z</time></trkpt><trkpt lat="43.4040608" lon="11.4603824"><ele>457.3333333333333</ele><time>2026-04-11T10:19:37.134Z</time></trkpt><trkpt lat="43.4040704" lon="11.4602716"><ele>457.0</ele><time>2026-04-11T10:19:38.135Z</time></trkpt><trkpt lat="43.4040853" lon="11.4601477"><ele>456.66666666666663</ele><time>2026-04-11T10:19:39.134Z</time></trkpt><trkpt lat="43.4041056" lon="11.4600247"><ele>456.3333333333333</ele><time>2026-04-11T10:19:40.136Z</time></trkpt><trkpt lat="43.4041306" lon="11.4598951"><ele>456.0</ele><time>2026-04-11T10:19:41.134Z</time></trkpt><trkpt lat="43.4041599" lon="11.4597605"><ele>456.0</ele><time>2026-04-11T10:19:42.135Z</time></trkpt><trkpt lat="43.4041921" lon="11.4596257"><ele>456.0</ele><time>2026-04-11T10:19:43.135Z</time></trkpt><trkpt lat="43.4042331" lon="11.4594933"><ele>456.0</ele><time>2026-04-11T10:19:44.135Z</time></trkpt><trkpt lat="43.404289" lon="11.4593639"><ele>456.0</ele><time>2026-04-11T10:19:45.135Z</time></trkpt><trkpt lat="43.4043606" lon="11.4592427"><ele>456.0</ele><time>2026-04-11T10:19:46.135Z</time></trkpt><trkpt lat="43.4044378" lon="11.4591288"><ele>455.8</ele><time>2026-04-11T10:19:47.135Z</time></trkpt><trkpt lat="43.4045171" lon="11.4590199"><ele>455.6</ele><time>2026-04-11T10:19:48.136Z</time></trkpt><trkpt lat="43.4045937" lon="11.4589238"><ele>455.4</ele><time>2026-04-11T10:19:49.135Z</time></trkpt><trkpt lat="43.4046667" lon="11.4588363"><ele>455.2</ele><time>2026-04-11T10:19:50.135Z</time></trkpt><trkpt lat="43.4047299" lon="11.4587554"><ele>455.0</ele><time>2026-04-11T10:19:51.136Z</time></trkpt><trkpt lat="43.4047785" lon="11.4586768"><ele>454.42857142857144</ele><time>2026-04-11T10:19:52.135Z</time></trkpt><trkpt lat="43.4048161" lon="11.4585883"><ele>453.8571428571429</ele><time>2026-04-11T10:19:53.135Z</time></trkpt><trkpt lat="43.4048413" lon="11.45849"><ele>453.2857142857143</ele><time>2026-04-11T10:19:54.135Z</time></trkpt><trkpt lat="43.4048571" lon="11.4583877"><ele>452.7142857142857</ele><time>2026-04-11T10:19:55.136Z</time></trkpt><trkpt lat="43.4048721" lon="11.4582909"><ele>452.14285714285717</ele><time>2026-04-11T10:19:56.135Z</time></trkpt><trkpt lat="43.4048921" lon="11.4582012"><ele>451.57142857142856</ele><time>2026-04-11T10:19:57.135Z</time></trkpt><trkpt lat="43.4049231" lon="11.4581252"><ele>451.0</ele><time>2026-04-11T10:19:58.136Z</time></trkpt><trkpt lat="43.4050133" lon="11.4580047"><ele>449.6666666666667</ele><time>2026-04-11T10:20:00.136Z</time></trkpt><trkpt lat="43.40507" lon="11.457851"><ele>448.33333333333337</ele><time>2026-04-11T10:20:02.136Z</time></trkpt><trkpt lat="43.40507" lon="11.4577538"><ele>447.0</ele><time>2026-04-11T10:20:03.136Z</time></trkpt><trkpt lat="43.4050586" lon="11.4576514"><ele>445.66666666666663</ele><time>2026-04-11T10:20:04.135Z</time></trkpt><trkpt lat="43.4050448" lon="11.4575541"><ele>444.3333333333333</ele><time>2026-04-11T10:20:05.136Z</time></trkpt><trkpt lat="43.40503" lon="11.457457"><ele>443.0</ele><time>2026-04-11T10:20:06.136Z</time></trkpt><trkpt lat="43.4050185" lon="11.4573642"><ele>443.0</ele><time>2026-04-11T10:20:07.136Z</time></trkpt><trkpt lat="43.4050088" lon="11.4572741"><ele>443.0</ele><time>2026-04-11T10:20:08.135Z</time></trkpt><trkpt lat="43.4049966" lon="11.4571776"><ele>443.0</ele><time>2026-04-11T10:20:09.136Z</time></trkpt><trkpt lat="43.404981" lon="11.4570806"><ele>443.0</ele><time>2026-04-11T10:20:10.136Z</time></trkpt><trkpt lat="43.404958" lon="11.4569837"><ele>443.0</ele><time>2026-04-11T10:20:11.136Z</time></trkpt><trkpt lat="43.4049318" lon="11.456893"><ele>443.0</ele><time>2026-04-11T10:20:12.135Z</time></trkpt><trkpt lat="43.4049037" lon="11.4568061"><ele>443.0</ele><time>2026-04-11T10:20:13.135Z</time></trkpt><trkpt lat="43.4048708" lon="11.4567261"><ele>441.8333333333333</ele><time>2026-04-11T10:20:14.136Z</time></trkpt><trkpt lat="43.4048364" lon="11.4566512"><ele>440.66666666666663</ele><time>2026-04-11T10:20:15.135Z</time></trkpt><trkpt lat="43.4047872" lon="11.4565138"><ele>439.5</ele><time>2026-04-11T10:20:17.136Z</time></trkpt><trkpt lat="43.4048078" lon="11.4564022"><ele>438.33333333333337</ele><time>2026-04-11T10:20:19.135Z</time></trkpt><trkpt lat="43.4049029" lon="11.4563473"><ele>437.1666666666667</ele><time>2026-04-11T10:20:21.136Z</time></trkpt><trkpt lat="43.4049845" lon="11.4563425"><ele>436.0</ele><time>2026-04-11T10:20:22.136Z</time></trkpt><trkpt lat="43.4050804" lon="11.4563543"><ele>436.00000000000006</ele><time>2026-04-11T10:20:23.136Z</time></trkpt><trkpt lat="43.4051754" lon="11.4563724"><ele>436.0</ele><time>2026-04-11T10:20:24.136Z</time></trkpt><trkpt lat="43.4052695" lon="11.4563914"><ele>436.0</ele><time>2026-04-11T10:20:25.136Z</time></trkpt><trkpt lat="43.4053566" lon="11.4564032"><ele>436.0</ele><time>2026-04-11T10:20:26.136Z</time></trkpt><trkpt lat="43.4054396" lon="11.4564096"><ele>436.00000000000006</ele><time>2026-04-11T10:20:27.135Z</time></trkpt><trkpt lat="43.4055158" lon="11.4564158"><ele>436.0</ele><time>2026-04-11T10:20:28.136Z</time></trkpt><trkpt lat="43.4055887" lon="11.4564173"><ele>434.7142857142857</ele><time>2026-04-11T10:20:29.135Z</time></trkpt><trkpt lat="43.405656" lon="11.4564029"><ele>433.42857142857144</ele><time>2026-04-11T10:20:30.135Z</time></trkpt><trkpt lat="43.4057169" lon="11.4563636"><ele>432.1428571428571</ele><time>2026-04-11T10:20:31.136Z</time></trkpt><trkpt lat="43.405773" lon="11.45631"><ele>430.8571428571429</ele><time>2026-04-11T10:20:32.136Z</time></trkpt><trkpt lat="43.4058207" lon="11.4562524"><ele>429.57142857142856</ele><time>2026-04-11T10:20:33.135Z</time></trkpt><trkpt lat="43.4058676" lon="11.4561901"><ele>428.2857142857143</ele><time>2026-04-11T10:20:34.136Z</time></trkpt><trkpt lat="43.4059132" lon="11.4561175"><ele>427.0</ele><time>2026-04-11T10:20:35.135Z</time></trkpt><trkpt lat="43.4059661" lon="11.4560264"><ele>426.8</ele><time>2026-04-11T10:20:36.136Z</time></trkpt><trkpt lat="43.4060133" lon="11.4559223"><ele>426.6</ele><time>2026-04-11T10:20:37.136Z</time></trkpt><trkpt lat="43.4060515" lon="11.4558063"><ele>426.40000000000003</ele><time>2026-04-11T10:20:38.136Z</time></trkpt><trkpt lat="43.4060741" lon="11.4556812"><ele>426.20000000000005</ele><time>2026-04-11T10:20:39.136Z</time></trkpt><trkpt lat="43.4060864" lon="11.4555503"><ele>426.0</ele><time>2026-04-11T10:20:40.136Z</time></trkpt><trkpt lat="43.4060939" lon="11.4554146"><ele>425.20000000000005</ele><time>2026-04-11T10:20:41.136Z</time></trkpt><trkpt lat="43.4061076" lon="11.4552785"><ele>424.40000000000003</ele><time>2026-04-11T10:20:42.135Z</time></trkpt><trkpt lat="43.4061319" lon="11.4551472"><ele>423.6</ele><time>2026-04-11T10:20:43.135Z</time></trkpt><trkpt lat="43.4061657" lon="11.4550124"><ele>422.8</ele><time>2026-04-11T10:20:44.136Z</time></trkpt><trkpt lat="43.406198" lon="11.4548882"><ele>422.0</ele><time>2026-04-11T10:20:45.136Z</time></trkpt><trkpt lat="43.406231" lon="11.4547764"><ele>422.0</ele><time>2026-04-11T10:20:46.136Z</time></trkpt><trkpt lat="43.406273" lon="11.4546764"><ele>422.0</ele><time>2026-04-11T10:20:47.136Z</time></trkpt><trkpt lat="43.4063222" lon="11.454579"><ele>422.0</ele><time>2026-04-11T10:20:48.135Z</time></trkpt><trkpt lat="43.4063886" lon="11.4544847"><ele>422.0</ele><time>2026-04-11T10:20:49.136Z</time></trkpt><trkpt lat="43.4064545" lon="11.4543837"><ele>422.0</ele><time>2026-04-11T10:20:50.136Z</time></trkpt><trkpt lat="43.4065058" lon="11.4542708"><ele>420.0</ele><time>2026-04-11T10:20:51.136Z</time></trkpt><trkpt lat="43.4065405" lon="11.4541393"><ele>418.0</ele><time>2026-04-11T10:20:52.136Z</time></trkpt><trkpt lat="43.4065657" lon="11.454011"><ele>416.0</ele><time>2026-04-11T10:20:53.136Z</time></trkpt><trkpt lat="43.406583" lon="11.4538813"><ele>414.0</ele><time>2026-04-11T10:20:54.136Z</time></trkpt><trkpt lat="43.4065933" lon="11.4537505"><ele>412.0</ele><time>2026-04-11T10:20:55.136Z</time></trkpt><trkpt lat="43.4065811" lon="11.4536274"><ele>412.0</ele><time>2026-04-11T10:20:56.136Z</time></trkpt><trkpt lat="43.4065474" lon="11.4535057"><ele>412.0</ele><time>2026-04-11T10:20:57.136Z</time></trkpt><trkpt lat="43.4065027" lon="11.4533886"><ele>412.0</ele><time>2026-04-11T10:20:58.136Z</time></trkpt><trkpt lat="43.4064586" lon="11.4532504"><ele>412.0</ele><time>2026-04-11T10:20:59.136Z</time></trkpt><trkpt lat="43.4064346" lon="11.453097"><ele>412.0</ele><time>2026-04-11T10:21:00.136Z</time></trkpt><trkpt lat="43.4064394" lon="11.4529491"><ele>411.40000000000003</ele><time>2026-04-11T10:21:01.137Z</time></trkpt><trkpt lat="43.4064611" lon="11.4528305"><ele>410.8</ele><time>2026-04-11T10:21:02.137Z</time></trkpt><trkpt lat="43.4064946" lon="11.4526945"><ele>410.2</ele><time>2026-04-11T10:21:03.137Z</time></trkpt><trkpt lat="43.4065234" lon="11.4525466"><ele>409.6</ele><time>2026-04-11T10:21:04.136Z</time></trkpt><trkpt lat="43.4065409" lon="11.4523954"><ele>409.0</ele><time>2026-04-11T10:21:05.137Z</time></trkpt><trkpt lat="43.4065455" lon="11.4522374"><ele>407.79999999999995</ele><time>2026-04-11T10:21:06.136Z</time></trkpt><trkpt lat="43.4065376" lon="11.4520901"><ele>406.59999999999997</ele><time>2026-04-11T10:21:07.137Z</time></trkpt><trkpt lat="43.4065156" lon="11.4519465"><ele>405.4</ele><time>2026-04-11T10:21:08.136Z</time></trkpt><trkpt lat="43.4064818" lon="11.4518273"><ele>404.2</ele><time>2026-04-11T10:21:09.137Z</time></trkpt><trkpt lat="43.4064383" lon="11.4517252"><ele>403.0</ele><time>2026-04-11T10:21:10.137Z</time></trkpt><trkpt lat="43.4063861" lon="11.4516207"><ele>403.0</ele><time>2026-04-11T10:21:11.137Z</time></trkpt><trkpt lat="43.4063302" lon="11.4515134"><ele>403.0</ele><time>2026-04-11T10:21:12.137Z</time></trkpt><trkpt lat="43.4062716" lon="11.4514056"><ele>403.0</ele><time>2026-04-11T10:21:13.137Z</time></trkpt><trkpt lat="43.4062109" lon="11.4512986"><ele>403.0</ele><time>2026-04-11T10:21:14.137Z</time></trkpt><trkpt lat="43.406152" lon="11.4511964"><ele>403.0</ele><time>2026-04-11T10:21:15.137Z</time></trkpt><trkpt lat="43.4060957" lon="11.4510971"><ele>404.59999999999997</ele><time>2026-04-11T10:21:16.136Z</time></trkpt><trkpt lat="43.4060419" lon="11.4509971"><ele>406.2</ele><time>2026-04-11T10:21:17.136Z</time></trkpt><trkpt lat="43.4059925" lon="11.4508886"><ele>407.8</ele><time>2026-04-11T10:21:18.136Z</time></trkpt><trkpt lat="43.4059541" lon="11.4507719"><ele>409.4</ele><time>2026-04-11T10:21:19.137Z</time></trkpt><trkpt lat="43.4059223" lon="11.4506468"><ele>411.0</ele><time>2026-04-11T10:21:20.136Z</time></trkpt><trkpt lat="43.405892" lon="11.4505156"><ele>410.4</ele><time>2026-04-11T10:21:21.136Z</time></trkpt><trkpt lat="43.4058607" lon="11.4503853"><ele>409.8</ele><time>2026-04-11T10:21:22.137Z</time></trkpt><trkpt lat="43.4058238" lon="11.450258"><ele>409.2</ele><time>2026-04-11T10:21:23.137Z</time></trkpt><trkpt lat="43.40578" lon="11.4501373"><ele>408.59999999999997</ele><time>2026-04-11T10:21:24.136Z</time></trkpt><trkpt lat="43.4057294" lon="11.4500134"><ele>408.0</ele><time>2026-04-11T10:21:25.137Z</time></trkpt><trkpt lat="43.4056727" lon="11.4498844"><ele>408.0</ele><time>2026-04-11T10:21:26.137Z</time></trkpt><trkpt lat="43.4056082" lon="11.4497472"><ele>408.0</ele><time>2026-04-11T10:21:27.136Z</time></trkpt><trkpt lat="43.4055436" lon="11.4496191"><ele>408.0</ele><time>2026-04-11T10:21:28.137Z</time></trkpt><trkpt lat="43.4054756" lon="11.4495011"><ele>408.0</ele><time>2026-04-11T10:21:29.137Z</time></trkpt><trkpt lat="43.4054065" lon="11.4493957"><ele>408.0</ele><time>2026-04-11T10:21:30.136Z</time></trkpt><trkpt lat="43.405327" lon="11.4492951"><ele>406.59999999999997</ele><time>2026-04-11T10:21:31.136Z</time></trkpt><trkpt lat="43.4052556" lon="11.449194"><ele>405.2</ele><time>2026-04-11T10:21:32.136Z</time></trkpt><trkpt lat="43.4051907" lon="11.4490941"><ele>403.8</ele><time>2026-04-11T10:21:33.136Z</time></trkpt><trkpt lat="43.4051313" lon="11.4490003"><ele>402.4</ele><time>2026-04-11T10:21:34.137Z</time></trkpt><trkpt lat="43.4050755" lon="11.4489089"><ele>401.0</ele><time>2026-04-11T10:21:35.136Z</time></trkpt><trkpt lat="43.405024" lon="11.4488203"><ele>400.66666666666663</ele><time>2026-04-11T10:21:36.137Z</time></trkpt><trkpt lat="43.4049767" lon="11.4487384"><ele>400.3333333333333</ele><time>2026-04-11T10:21:37.137Z</time></trkpt><trkpt lat="43.4049275" lon="11.4486651"><ele>400.0</ele><time>2026-04-11T10:21:38.136Z</time></trkpt><trkpt lat="43.4048705" lon="11.4485898"><ele>399.66666666666663</ele><time>2026-04-11T10:21:39.136Z</time></trkpt><trkpt lat="43.4047978" lon="11.4485056"><ele>399.3333333333333</ele><time>2026-04-11T10:21:40.137Z</time></trkpt><trkpt lat="43.4047076" lon="11.4484142"><ele>399.0</ele><time>2026-04-11T10:21:41.137Z</time></trkpt><trkpt lat="43.4045851" lon="11.4483131"><ele>398.66666666666663</ele><time>2026-04-11T10:21:42.136Z</time></trkpt><trkpt lat="43.404439" lon="11.4482073"><ele>398.3333333333333</ele><time>2026-04-11T10:21:43.136Z</time></trkpt><trkpt lat="43.4042817" lon="11.4480963"><ele>398.0</ele><time>2026-04-11T10:21:44.137Z</time></trkpt><trkpt lat="43.4041235" lon="11.4479863"><ele>398.3333333333333</ele><time>2026-04-11T10:21:45.136Z</time></trkpt><trkpt lat="43.4039671" lon="11.4478796"><ele>398.66666666666663</ele><time>2026-04-11T10:21:46.136Z</time></trkpt><trkpt lat="43.4038091" lon="11.4477893"><ele>399.0</ele><time>2026-04-11T10:21:47.137Z</time></trkpt><trkpt lat="43.4036508" lon="11.4477179"><ele>399.0</ele><time>2026-04-11T10:21:48.137Z</time></trkpt><trkpt lat="43.4034929" lon="11.4476579"><ele>399.0</ele><time>2026-04-11T10:21:49.137Z</time></trkpt><trkpt lat="43.4033318" lon="11.4475871"><ele>399.0</ele><time>2026-04-11T10:21:50.138Z</time></trkpt><trkpt lat="43.4031764" lon="11.4475044"><ele>399.0</ele><time>2026-04-11T10:21:51.136Z</time></trkpt><trkpt lat="43.4030332" lon="11.4474212"><ele>399.0</ele><time>2026-04-11T10:21:52.136Z</time></trkpt><trkpt lat="43.402899" lon="11.4473432"><ele>399.0</ele><time>2026-04-11T10:21:53.136Z</time></trkpt><trkpt lat="43.4027656" lon="11.4472665"><ele>399.0</ele><time>2026-04-11T10:21:54.137Z</time></trkpt><trkpt lat="43.4026313" lon="11.4471833"><ele>399.0</ele><time>2026-04-11T10:21:55.137Z</time></trkpt><trkpt lat="43.4024942" lon="11.4470976"><ele>399.0</ele><time>2026-04-11T10:21:56.137Z</time></trkpt><trkpt lat="43.4023535" lon="11.4470114"><ele>399.0</ele><time>2026-04-11T10:21:57.137Z</time></trkpt><trkpt lat="43.4022147" lon="11.4469236"><ele>396.25</ele><time>2026-04-11T10:21:58.138Z</time></trkpt><trkpt lat="43.4020794" lon="11.4468366"><ele>393.5</ele><time>2026-04-11T10:21:59.137Z</time></trkpt><trkpt lat="43.4019515" lon="11.4467332"><ele>390.75</ele><time>2026-04-11T10:22:00.137Z</time></trkpt><trkpt lat="43.4018328" lon="11.4466166"><ele>388.0</ele><time>2026-04-11T10:22:01.138Z</time></trkpt><trkpt lat="43.4017204" lon="11.4464882"><ele>388.0</ele><time>2026-04-11T10:22:02.137Z</time></trkpt><trkpt lat="43.4016171" lon="11.446358"><ele>388.0</ele><time>2026-04-11T10:22:03.137Z</time></trkpt><trkpt lat="43.4015114" lon="11.4462192"><ele>388.0</ele><time>2026-04-11T10:22:04.138Z</time></trkpt><trkpt lat="43.4014042" lon="11.4460736"><ele>388.0</ele><time>2026-04-11T10:22:05.138Z</time></trkpt><trkpt lat="43.4012995" lon="11.4459199"><ele>386.33333333333337</ele><time>2026-04-11T10:22:06.138Z</time></trkpt><trkpt lat="43.4012001" lon="11.4457588"><ele>384.6666666666667</ele><time>2026-04-11T10:22:07.137Z</time></trkpt><trkpt lat="43.4011036" lon="11.4455914"><ele>383.0</ele><time>2026-04-11T10:22:08.138Z</time></trkpt><trkpt lat="43.4010061" lon="11.4454213"><ele>382.6666666666667</ele><time>2026-04-11T10:22:09.137Z</time></trkpt><trkpt lat="43.4009056" lon="11.4452571"><ele>382.3333333333333</ele><time>2026-04-11T10:22:10.138Z</time></trkpt><trkpt lat="43.4008013" lon="11.4450985"><ele>382.0</ele><time>2026-04-11T10:22:11.138Z</time></trkpt><trkpt lat="43.4006901" lon="11.4449462"><ele>382.0</ele><time>2026-04-11T10:22:12.138Z</time></trkpt><trkpt lat="43.4005724" lon="11.4447911"><ele>382.0</ele><time>2026-04-11T10:22:13.138Z</time></trkpt><trkpt lat="43.4004487" lon="11.4446294"><ele>382.0</ele><time>2026-04-11T10:22:14.137Z</time></trkpt><trkpt lat="43.4003219" lon="11.4444644"><ele>380.3333333333333</ele><time>2026-04-11T10:22:15.138Z</time></trkpt><trkpt lat="43.4001968" lon="11.4443021"><ele>378.6666666666667</ele><time>2026-04-11T10:22:16.138Z</time></trkpt><trkpt lat="43.400077" lon="11.4441442"><ele>377.0</ele><time>2026-04-11T10:22:17.138Z</time></trkpt><trkpt lat="43.3999628" lon="11.4439906"><ele>377.0</ele><time>2026-04-11T10:22:18.137Z</time></trkpt><trkpt lat="43.3998561" lon="11.4438515"><ele>377.0</ele><time>2026-04-11T10:22:19.138Z</time></trkpt><trkpt lat="43.3997502" lon="11.4437296"><ele>377.0</ele><time>2026-04-11T10:22:20.137Z</time></trkpt><trkpt lat="43.3996361" lon="11.4436361"><ele>377.0</ele><time>2026-04-11T10:22:21.137Z</time></trkpt><trkpt lat="43.3995121" lon="11.4435743"><ele>376.75</ele><time>2026-04-11T10:22:22.138Z</time></trkpt><trkpt lat="43.399382" lon="11.4435311"><ele>376.5</ele><time>2026-04-11T10:22:23.137Z</time></trkpt><trkpt lat="43.3992634" lon="11.4434871"><ele>376.25</ele><time>2026-04-11T10:22:24.138Z</time></trkpt><trkpt lat="43.3991619" lon="11.4434478"><ele>376.0</ele><time>2026-04-11T10:22:25.138Z</time></trkpt><trkpt lat="43.3990629" lon="11.4434176"><ele>376.0</ele><time>2026-04-11T10:22:26.138Z</time></trkpt><trkpt lat="43.3989701" lon="11.4434076"><ele>376.0</ele><time>2026-04-11T10:22:27.137Z</time></trkpt><trkpt lat="43.398875" lon="11.4434152"><ele>376.0</ele><time>2026-04-11T10:22:28.138Z</time></trkpt><trkpt lat="43.3987814" lon="11.4434391"><ele>376.0</ele><time>2026-04-11T10:22:29.138Z</time></trkpt><trkpt lat="43.3986798" lon="11.4434645"><ele>376.0</ele><time>2026-04-11T10:22:30.137Z</time></trkpt><trkpt lat="43.3985739" lon="11.4434923"><ele>376.0</ele><time>2026-04-11T10:22:31.138Z</time></trkpt><trkpt lat="43.3984618" lon="11.4435224"><ele>376.0</ele><time>2026-04-11T10:22:32.138Z</time></trkpt><trkpt lat="43.3983457" lon="11.4435497"><ele>376.0</ele><time>2026-04-11T10:22:33.138Z</time></trkpt><trkpt lat="43.3982361" lon="11.443576"><ele>376.0</ele><time>2026-04-11T10:22:34.137Z</time></trkpt><trkpt lat="43.3981416" lon="11.4435968"><ele>376.0</ele><time>2026-04-11T10:22:35.137Z</time></trkpt><trkpt lat="43.3980563" lon="11.4436156"><ele>375.4</ele><time>2026-04-11T10:22:36.138Z</time></trkpt><trkpt lat="43.3979736" lon="11.4436328"><ele>374.8</ele><time>2026-04-11T10:22:37.137Z</time></trkpt><trkpt lat="43.3978896" lon="11.443644"><ele>374.2</ele><time>2026-04-11T10:22:38.138Z</time></trkpt><trkpt lat="43.3977988" lon="11.4436384"><ele>373.59999999999997</ele><time>2026-04-11T10:22:39.138Z</time></trkpt><trkpt lat="43.397692" lon="11.4435977"><ele>373.0</ele><time>2026-04-11T10:22:40.138Z</time></trkpt><trkpt lat="43.3975655" lon="11.4435327"><ele>373.0</ele><time>2026-04-11T10:22:41.138Z</time></trkpt><trkpt lat="43.3974208" lon="11.4434659"><ele>373.0</ele><time>2026-04-11T10:22:42.137Z</time></trkpt><trkpt lat="43.3972623" lon="11.4434008"><ele>373.0</ele><time>2026-04-11T10:22:43.137Z</time></trkpt><trkpt lat="43.397093" lon="11.4433393"><ele>372.3333333333333</ele><time>2026-04-11T10:22:44.138Z</time></trkpt><trkpt lat="43.3969161" lon="11.4432722"><ele>371.6666666666667</ele><time>2026-04-11T10:22:45.138Z</time></trkpt><trkpt lat="43.3967358" lon="11.4432027"><ele>371.0</ele><time>2026-04-11T10:22:46.137Z</time></trkpt><trkpt lat="43.3965501" lon="11.4431289"><ele>371.0</ele><time>2026-04-11T10:22:47.138Z</time></trkpt><trkpt lat="43.3963605" lon="11.4430501"><ele>371.0</ele><time>2026-04-11T10:22:48.137Z</time></trkpt><trkpt lat="43.396171" lon="11.4429689"><ele>371.0</ele><time>2026-04-11T10:22:49.137Z</time></trkpt><trkpt lat="43.395996" lon="11.4429005"><ele>369.6666666666667</ele><time>2026-04-11T10:22:50.138Z</time></trkpt><trkpt lat="43.3958314" lon="11.4428377"><ele>368.3333333333333</ele><time>2026-04-11T10:22:51.137Z</time></trkpt><trkpt lat="43.3956669" lon="11.4427742"><ele>367.0</ele><time>2026-04-11T10:22:52.138Z</time></trkpt><trkpt lat="43.3955095" lon="11.4427134"><ele>367.3333333333333</ele><time>2026-04-11T10:22:53.137Z</time></trkpt><trkpt lat="43.3953543" lon="11.4426621"><ele>367.6666666666667</ele><time>2026-04-11T10:22:54.137Z</time></trkpt><trkpt lat="43.3951829" lon="11.4426433"><ele>368.0</ele><time>2026-04-11T10:22:55.137Z</time></trkpt><trkpt lat="43.3949948" lon="11.442652"><ele>368.0</ele><time>2026-04-11T10:22:56.138Z</time></trkpt><trkpt lat="43.394805" lon="11.4426784"><ele>368.0</ele><time>2026-04-11T10:22:57.138Z</time></trkpt><trkpt lat="43.3946109" lon="11.442733"><ele>368.0</ele><time>2026-04-11T10:22:58.138Z</time></trkpt><trkpt lat="43.3944277" lon="11.4427311"><ele>368.0</ele><time>2026-04-11T10:22:59.138Z</time></trkpt><trkpt lat="43.3942428" lon="11.442712"><ele>368.0</ele><time>2026-04-11T10:23:00.137Z</time></trkpt><trkpt lat="43.3940541" lon="11.4426888"><ele>368.0</ele><time>2026-04-11T10:23:01.138Z</time></trkpt><trkpt lat="43.3938694" lon="11.4426674"><ele>368.0</ele><time>2026-04-11T10:23:02.138Z</time></trkpt><trkpt lat="43.393695" lon="11.4426479"><ele>368.0</ele><time>2026-04-11T10:23:03.139Z</time></trkpt><trkpt lat="43.3935317" lon="11.4426096"><ele>368.0</ele><time>2026-04-11T10:23:04.139Z</time></trkpt><trkpt lat="43.3933657" lon="11.4425518"><ele>368.0</ele><time>2026-04-11T10:23:05.139Z</time></trkpt><trkpt lat="43.3932019" lon="11.4424705"><ele>368.0</ele><time>2026-04-11T10:23:06.139Z</time></trkpt><trkpt lat="43.3930451" lon="11.4423782"><ele>368.0</ele><time>2026-04-11T10:23:07.139Z</time></trkpt><trkpt lat="43.3928783" lon="11.4423421"><ele>368.33333333333337</ele><time>2026-04-11T10:23:08.139Z</time></trkpt><trkpt lat="43.3927142" lon="11.4423488"><ele>368.6666666666667</ele><time>2026-04-11T10:23:09.138Z</time></trkpt><trkpt lat="43.3925444" lon="11.442397"><ele>369.0</ele><time>2026-04-11T10:23:10.139Z</time></trkpt><trkpt lat="43.3923725" lon="11.4424723"><ele>369.0</ele><time>2026-04-11T10:23:11.139Z</time></trkpt><trkpt lat="43.3922043" lon="11.4425551"><ele>369.0</ele><time>2026-04-11T10:23:12.139Z</time></trkpt><trkpt lat="43.3920224" lon="11.4426703"><ele>369.0</ele><time>2026-04-11T10:23:13.138Z</time></trkpt><trkpt lat="43.3918665" lon="11.4427755"><ele>368.75</ele><time>2026-04-11T10:23:14.139Z</time></trkpt><trkpt lat="43.3917153" lon="11.4428784"><ele>368.5</ele><time>2026-04-11T10:23:15.139Z</time></trkpt><trkpt lat="43.391595" lon="11.4429107"><ele>368.25</ele><time>2026-04-11T10:23:16.138Z</time></trkpt><trkpt lat="43.391453" lon="11.4429197"><ele>368.0</ele><time>2026-04-11T10:23:17.139Z</time></trkpt><trkpt lat="43.3912916" lon="11.4429064"><ele>368.0</ele><time>2026-04-11T10:23:18.138Z</time></trkpt><trkpt lat="43.3911045" lon="11.4429167"><ele>368.0</ele><time>2026-04-11T10:23:19.139Z</time></trkpt><trkpt lat="43.3909197" lon="11.4429579"><ele>368.0</ele><time>2026-04-11T10:23:20.139Z</time></trkpt><trkpt lat="43.3907501" lon="11.4429847"><ele>368.0</ele><time>2026-04-11T10:23:21.139Z</time></trkpt><trkpt lat="43.3905902" lon="11.443014"><ele>368.0</ele><time>2026-04-11T10:23:22.138Z</time></trkpt><trkpt lat="43.390439" lon="11.4430154"><ele>368.0</ele><time>2026-04-11T10:23:23.139Z</time></trkpt><trkpt lat="43.3902925" lon="11.442996"><ele>367.25</ele><time>2026-04-11T10:23:24.139Z</time></trkpt><trkpt lat="43.3901512" lon="11.4429672"><ele>366.5</ele><time>2026-04-11T10:23:25.138Z</time></trkpt><trkpt lat="43.3900112" lon="11.4429405"><ele>365.75</ele><time>2026-04-11T10:23:26.139Z</time></trkpt><trkpt lat="43.3898848" lon="11.4429145"><ele>365.0</ele><time>2026-04-11T10:23:27.139Z</time></trkpt><trkpt lat="43.38978" lon="11.4428596"><ele>365.0</ele><time>2026-04-11T10:23:28.139Z</time></trkpt><trkpt lat="43.3896991" lon="11.4427634"><ele>365.0</ele><time>2026-04-11T10:23:29.138Z</time></trkpt><trkpt lat="43.3896277" lon="11.4425804"><ele>365.0</ele><time>2026-04-11T10:23:30.139Z</time></trkpt><trkpt lat="43.3895678" lon="11.4423773"><ele>365.0</ele><time>2026-04-11T10:23:31.139Z</time></trkpt><trkpt lat="43.3895002" lon="11.4422032"><ele>362.33333333333337</ele><time>2026-04-11T10:23:32.139Z</time></trkpt><trkpt lat="43.3894075" lon="11.4420249"><ele>359.6666666666667</ele><time>2026-04-11T10:23:33.138Z</time></trkpt><trkpt lat="43.3893004" lon="11.4418609"><ele>357.0</ele><time>2026-04-11T10:23:34.138Z</time></trkpt><trkpt lat="43.389188" lon="11.4417087"><ele>357.0</ele><time>2026-04-11T10:23:35.138Z</time></trkpt><trkpt lat="43.3890849" lon="11.4415586"><ele>357.0</ele><time>2026-04-11T10:23:36.138Z</time></trkpt><trkpt lat="43.3889793" lon="11.4414002"><ele>357.0</ele><time>2026-04-11T10:23:37.139Z</time></trkpt><trkpt lat="43.3888721" lon="11.4412349"><ele>356.0</ele><time>2026-04-11T10:23:38.139Z</time></trkpt><trkpt lat="43.3887592" lon="11.4410762"><ele>355.0</ele><time>2026-04-11T10:23:39.138Z</time></trkpt><trkpt lat="43.388645" lon="11.4409208"><ele>354.0</ele><time>2026-04-11T10:23:40.139Z</time></trkpt><trkpt lat="43.3885226" lon="11.4407852"><ele>354.0</ele><time>2026-04-11T10:23:41.138Z</time></trkpt><trkpt lat="43.3883968" lon="11.440637"><ele>354.0</ele><time>2026-04-11T10:23:42.138Z</time></trkpt><trkpt lat="43.3882811" lon="11.4404875"><ele>354.0</ele><time>2026-04-11T10:23:43.138Z</time></trkpt><trkpt lat="43.3881583" lon="11.4403346"><ele>351.3333333333333</ele><time>2026-04-11T10:23:44.138Z</time></trkpt><trkpt lat="43.388047" lon="11.4401685"><ele>348.66666666666663</ele><time>2026-04-11T10:23:45.138Z</time></trkpt><trkpt lat="43.3879379" lon="11.4400052"><ele>346.0</ele><time>2026-04-11T10:23:46.139Z</time></trkpt><trkpt lat="43.3878347" lon="11.4398332"><ele>346.0</ele><time>2026-04-11T10:23:47.138Z</time></trkpt><trkpt lat="43.3877399" lon="11.4396511"><ele>346.0</ele><time>2026-04-11T10:23:48.138Z</time></trkpt><trkpt lat="43.3876475" lon="11.4394642"><ele>346.0</ele><time>2026-04-11T10:23:49.139Z</time></trkpt><trkpt lat="43.3875526" lon="11.4392866"><ele>344.66666666666663</ele><time>2026-04-11T10:23:50.139Z</time></trkpt><trkpt lat="43.3874562" lon="11.4391186"><ele>343.3333333333333</ele><time>2026-04-11T10:23:51.138Z</time></trkpt><trkpt lat="43.387356" lon="11.4389577"><ele>342.0</ele><time>2026-04-11T10:23:52.14Z</time></trkpt><trkpt lat="43.3872527" lon="11.4388155"><ele>342.25</ele><time>2026-04-11T10:23:53.138Z</time></trkpt><trkpt lat="43.3871598" lon="11.4386669"><ele>342.5</ele><time>2026-04-11T10:23:54.138Z</time></trkpt><trkpt lat="43.3870749" lon="11.4385117"><ele>342.75</ele><time>2026-04-11T10:23:55.139Z</time></trkpt><trkpt lat="43.3870114" lon="11.4383386"><ele>343.0</ele><time>2026-04-11T10:23:56.139Z</time></trkpt><trkpt lat="43.38696" lon="11.4381296"><ele>343.3333333333333</ele><time>2026-04-11T10:23:57.138Z</time></trkpt><trkpt lat="43.3869141" lon="11.437904"><ele>343.6666666666667</ele><time>2026-04-11T10:23:58.141Z</time></trkpt><trkpt lat="43.3868654" lon="11.4376814"><ele>344.0</ele><time>2026-04-11T10:23:59.139Z</time></trkpt><trkpt lat="43.3868124" lon="11.4374889"><ele>344.0</ele><time>2026-04-11T10:24:00.141Z</time></trkpt><trkpt lat="43.3867553" lon="11.437302"><ele>344.0</ele><time>2026-04-11T10:24:01.138Z</time></trkpt><trkpt lat="43.3866983" lon="11.4371482"><ele>344.0</ele><time>2026-04-11T10:24:02.139Z</time></trkpt><trkpt lat="43.3866239" lon="11.4370138"><ele>344.0</ele><time>2026-04-11T10:24:03.138Z</time></trkpt><trkpt lat="43.3865311" lon="11.4368897"><ele>342.33333333333337</ele><time>2026-04-11T10:24:04.14Z</time></trkpt><trkpt lat="43.3864102" lon="11.4367756"><ele>340.6666666666667</ele><time>2026-04-11T10:24:05.138Z</time></trkpt><trkpt lat="43.386287" lon="11.4366479"><ele>339.0</ele><time>2026-04-11T10:24:06.138Z</time></trkpt><trkpt lat="43.3861733" lon="11.4365137"><ele>339.0</ele><time>2026-04-11T10:24:07.139Z</time></trkpt><trkpt lat="43.3860698" lon="11.4363663"><ele>339.0</ele><time>2026-04-11T10:24:08.139Z</time></trkpt><trkpt lat="43.3859632" lon="11.4362523"><ele>339.0</ele><time>2026-04-11T10:24:09.14Z</time></trkpt><trkpt lat="43.3858779" lon="11.4361293"><ele>339.0</ele><time>2026-04-11T10:24:10.14Z</time></trkpt><trkpt lat="43.3857933" lon="11.4360017"><ele>338.25</ele><time>2026-04-11T10:24:11.139Z</time></trkpt><trkpt lat="43.3857011" lon="11.4358876"><ele>337.5</ele><time>2026-04-11T10:24:12.139Z</time></trkpt><trkpt lat="43.385601" lon="11.4357891"><ele>336.75</ele><time>2026-04-11T10:24:13.139Z</time></trkpt><trkpt lat="43.3854783" lon="11.4356748"><ele>336.0</ele><time>2026-04-11T10:24:14.14Z</time></trkpt><trkpt lat="43.3853457" lon="11.4355641"><ele>333.6666666666667</ele><time>2026-04-11T10:24:15.139Z</time></trkpt><trkpt lat="43.3852191" lon="11.4354437"><ele>331.33333333333337</ele><time>2026-04-11T10:24:16.14Z</time></trkpt><trkpt lat="43.3850895" lon="11.4353272"><ele>329.0</ele><time>2026-04-11T10:24:17.139Z</time></trkpt><trkpt lat="43.3849468" lon="11.4352308"><ele>329.0</ele><time>2026-04-11T10:24:18.14Z</time></trkpt><trkpt lat="43.3847905" lon="11.4351622"><ele>329.0</ele><time>2026-04-11T10:24:19.14Z</time></trkpt><trkpt lat="43.3846248" lon="11.4351164"><ele>329.0</ele><time>2026-04-11T10:24:20.139Z</time></trkpt><trkpt lat="43.3844554" lon="11.4350895"><ele>327.6666666666667</ele><time>2026-04-11T10:24:21.139Z</time></trkpt><trkpt lat="43.3842952" lon="11.4350579"><ele>326.3333333333333</ele><time>2026-04-11T10:24:22.14Z</time></trkpt><trkpt lat="43.384135" lon="11.4350225"><ele>325.0</ele><time>2026-04-11T10:24:23.139Z</time></trkpt><trkpt lat="43.3839732" lon="11.4349816"><ele>324.66666666666663</ele><time>2026-04-11T10:24:24.139Z</time></trkpt><trkpt lat="43.3838098" lon="11.4349361"><ele>324.3333333333333</ele><time>2026-04-11T10:24:25.139Z</time></trkpt><trkpt lat="43.3836274" lon="11.4349205"><ele>324.0</ele><time>2026-04-11T10:24:26.14Z</time></trkpt><trkpt lat="43.3834641" lon="11.4348638"><ele>324.0</ele><time>2026-04-11T10:24:27.139Z</time></trkpt><trkpt lat="43.3833184" lon="11.43478"><ele>324.0</ele><time>2026-04-11T10:24:28.139Z</time></trkpt><trkpt lat="43.3831817" lon="11.434668"><ele>324.0</ele><time>2026-04-11T10:24:29.139Z</time></trkpt><trkpt lat="43.3830559" lon="11.4345416"><ele>324.75</ele><time>2026-04-11T10:24:30.139Z</time></trkpt><trkpt lat="43.3829338" lon="11.4344105"><ele>325.5</ele><time>2026-04-11T10:24:31.14Z</time></trkpt><trkpt lat="43.3828165" lon="11.4342936"><ele>326.25</ele><time>2026-04-11T10:24:32.139Z</time></trkpt><trkpt lat="43.382698" lon="11.4342016"><ele>327.0</ele><time>2026-04-11T10:24:33.139Z</time></trkpt><trkpt lat="43.3825688" lon="11.4341351"><ele>327.0</ele><time>2026-04-11T10:24:34.139Z</time></trkpt><trkpt lat="43.3824265" lon="11.4340965"><ele>327.0</ele><time>2026-04-11T10:24:35.14Z</time></trkpt><trkpt lat="43.3822821" lon="11.4340748"><ele>327.0</ele><time>2026-04-11T10:24:36.14Z</time></trkpt><trkpt lat="43.3821424" lon="11.434055"><ele>327.0</ele><time>2026-04-11T10:24:37.14Z</time></trkpt><trkpt lat="43.3820056" lon="11.4340442"><ele>326.5</ele><time>2026-04-11T10:24:38.139Z</time></trkpt><trkpt lat="43.3818792" lon="11.434024"><ele>326.0</ele><time>2026-04-11T10:24:39.14Z</time></trkpt><trkpt lat="43.3817666" lon="11.4340033"><ele>325.5</ele><time>2026-04-11T10:24:40.139Z</time></trkpt><trkpt lat="43.3816572" lon="11.4339775"><ele>325.0</ele><time>2026-04-11T10:24:41.139Z</time></trkpt><trkpt lat="43.3815502" lon="11.4339301"><ele>325.0</ele><time>2026-04-11T10:24:42.139Z</time></trkpt><trkpt lat="43.3814337" lon="11.4338599"><ele>325.0</ele><time>2026-04-11T10:24:43.139Z</time></trkpt><trkpt lat="43.3813026" lon="11.433775"><ele>325.0</ele><time>2026-04-11T10:24:44.139Z</time></trkpt><trkpt lat="43.3811705" lon="11.4336817"><ele>325.0</ele><time>2026-04-11T10:24:45.139Z</time></trkpt><trkpt lat="43.3810418" lon="11.4335853"><ele>323.0</ele><time>2026-04-11T10:24:46.14Z</time></trkpt><trkpt lat="43.3809224" lon="11.4334716"><ele>321.0</ele><time>2026-04-11T10:24:47.14Z</time></trkpt><trkpt lat="43.3808206" lon="11.4333255"><ele>319.0</ele><time>2026-04-11T10:24:48.14Z</time></trkpt><trkpt lat="43.3807333" lon="11.4331694"><ele>317.0</ele><time>2026-04-11T10:24:49.14Z</time></trkpt><trkpt lat="43.3806642" lon="11.4329976"><ele>317.2</ele><time>2026-04-11T10:24:50.14Z</time></trkpt><trkpt lat="43.3806006" lon="11.4328571"><ele>317.4</ele><time>2026-04-11T10:24:51.139Z</time></trkpt><trkpt lat="43.3805152" lon="11.4327752"><ele>317.6</ele><time>2026-04-11T10:24:52.14Z</time></trkpt><trkpt lat="43.3804174" lon="11.4327341"><ele>317.8</ele><time>2026-04-11T10:24:53.14Z</time></trkpt><trkpt lat="43.3803061" lon="11.4327253"><ele>318.0</ele><time>2026-04-11T10:24:54.14Z</time></trkpt><trkpt lat="43.380188" lon="11.4327108"><ele>318.75</ele><time>2026-04-11T10:24:55.139Z</time></trkpt><trkpt lat="43.3800549" lon="11.4326888"><ele>319.5</ele><time>2026-04-11T10:24:56.139Z</time></trkpt><trkpt lat="43.3799309" lon="11.4326766"><ele>320.25</ele><time>2026-04-11T10:24:57.14Z</time></trkpt><trkpt lat="43.3798146" lon="11.4326543"><ele>321.0</ele><time>2026-04-11T10:24:58.14Z</time></trkpt><trkpt lat="43.3797224" lon="11.4326152"><ele>320.5</ele><time>2026-04-11T10:24:59.14Z</time></trkpt><trkpt lat="43.3796378" lon="11.432574"><ele>320.0</ele><time>2026-04-11T10:25:00.139Z</time></trkpt><trkpt lat="43.3795617" lon="11.4325314"><ele>319.5</ele><time>2026-04-11T10:25:01.14Z</time></trkpt><trkpt lat="43.3794972" lon="11.4324891"><ele>319.0</ele><time>2026-04-11T10:25:02.139Z</time></trkpt><trkpt lat="43.3793927" lon="11.4324305"><ele>318.5</ele><time>2026-04-11T10:25:04.14Z</time></trkpt><trkpt lat="43.3793231" lon="11.4323927"><ele>318.0</ele><time>2026-04-11T10:25:06.14Z</time></trkpt><trkpt lat="43.3792571" lon="11.4323509"><ele>318.0</ele><time>2026-04-11T10:25:08.139Z</time></trkpt><trkpt lat="43.3791979" lon="11.4323197"><ele>318.0</ele><time>2026-04-11T10:25:11.14Z</time></trkpt><trkpt lat="43.3791098" lon="11.4322765"><ele>318.0</ele><time>2026-04-11T10:25:25.141Z</time></trkpt><trkpt lat="43.379009" lon="11.4322358"><ele>318.0</ele><time>2026-04-11T10:25:26.14Z</time></trkpt><trkpt lat="43.3788946" lon="11.4321874"><ele>318.0</ele><time>2026-04-11T10:25:27.141Z</time></trkpt><trkpt lat="43.3787848" lon="11.4321377"><ele>317.75</ele><time>2026-04-11T10:25:28.14Z</time></trkpt><trkpt lat="43.3786682" lon="11.4320803"><ele>317.5</ele><time>2026-04-11T10:25:29.14Z</time></trkpt><trkpt lat="43.3785458" lon="11.4320157"><ele>317.25</ele><time>2026-04-11T10:25:30.14Z</time></trkpt><trkpt lat="43.3784251" lon="11.4319493"><ele>317.0</ele><time>2026-04-11T10:25:31.14Z</time></trkpt><trkpt lat="43.3783087" lon="11.4318856"><ele>317.0</ele><time>2026-04-11T10:25:32.14Z</time></trkpt><trkpt lat="43.3781908" lon="11.4318241"><ele>317.0</ele><time>2026-04-11T10:25:33.14Z</time></trkpt><trkpt lat="43.3780688" lon="11.431761"><ele>317.0</ele><time>2026-04-11T10:25:34.141Z</time></trkpt><trkpt lat="43.3779412" lon="11.431694"><ele>317.0</ele><time>2026-04-11T10:25:35.141Z</time></trkpt><trkpt lat="43.3778041" lon="11.4316231"><ele>317.5</ele><time>2026-04-11T10:25:36.141Z</time></trkpt><trkpt lat="43.3776648" lon="11.43155"><ele>318.0</ele><time>2026-04-11T10:25:37.14Z</time></trkpt><trkpt lat="43.3775253" lon="11.4314797"><ele>318.5</ele><time>2026-04-11T10:25:38.141Z</time></trkpt><trkpt lat="43.3773842" lon="11.4314152"><ele>319.0</ele><time>2026-04-11T10:25:39.14Z</time></trkpt><trkpt lat="43.3772363" lon="11.4313621"><ele>318.0</ele><time>2026-04-11T10:25:40.14Z</time></trkpt><trkpt lat="43.3770811" lon="11.4313287"><ele>317.0</ele><time>2026-04-11T10:25:41.141Z</time></trkpt><trkpt lat="43.3769219" lon="11.431312"><ele>316.0</ele><time>2026-04-11T10:25:42.141Z</time></trkpt><trkpt lat="43.3767695" lon="11.4313004"><ele>315.25</ele><time>2026-04-11T10:25:43.141Z</time></trkpt><trkpt lat="43.3766271" lon="11.4312877"><ele>314.5</ele><time>2026-04-11T10:25:44.14Z</time></trkpt><trkpt lat="43.3764937" lon="11.4312772"><ele>313.75</ele><time>2026-04-11T10:25:45.14Z</time></trkpt><trkpt lat="43.3763638" lon="11.4312675"><ele>313.0</ele><time>2026-04-11T10:25:46.141Z</time></trkpt><trkpt lat="43.3762353" lon="11.4312549"><ele>313.0</ele><time>2026-04-11T10:25:47.14Z</time></trkpt><trkpt lat="43.3761067" lon="11.431239"><ele>313.0</ele><time>2026-04-11T10:25:48.141Z</time></trkpt><trkpt lat="43.3759757" lon="11.4312153"><ele>313.0</ele><time>2026-04-11T10:25:49.141Z</time></trkpt><trkpt lat="43.3758375" lon="11.431183"><ele>313.0</ele><time>2026-04-11T10:25:50.14Z</time></trkpt><trkpt lat="43.375693" lon="11.4311289"><ele>313.0</ele><time>2026-04-11T10:25:51.14Z</time></trkpt><trkpt lat="43.3755471" lon="11.4310457"><ele>313.0</ele><time>2026-04-11T10:25:52.141Z</time></trkpt><trkpt lat="43.3754025" lon="11.4309296"><ele>313.0</ele><time>2026-04-11T10:25:53.14Z</time></trkpt><trkpt lat="43.3752516" lon="11.4307809"><ele>310.0</ele><time>2026-04-11T10:25:54.14Z</time></trkpt><trkpt lat="43.3750848" lon="11.4306407"><ele>307.0</ele><time>2026-04-11T10:25:55.141Z</time></trkpt><trkpt lat="43.3749121" lon="11.4305247"><ele>304.0</ele><time>2026-04-11T10:25:56.141Z</time></trkpt><trkpt lat="43.3747292" lon="11.4304362"><ele>304.3333333333333</ele><time>2026-04-11T10:25:57.14Z</time></trkpt><trkpt lat="43.3745481" lon="11.4303757"><ele>304.6666666666667</ele><time>2026-04-11T10:25:58.14Z</time></trkpt><trkpt lat="43.3743784" lon="11.430326"><ele>305.0</ele><time>2026-04-11T10:25:59.141Z</time></trkpt><trkpt lat="43.374217" lon="11.4302768"><ele>305.0</ele><time>2026-04-11T10:26:00.141Z</time></trkpt><trkpt lat="43.3740627" lon="11.4302301"><ele>305.0</ele><time>2026-04-11T10:26:01.14Z</time></trkpt><trkpt lat="43.3739103" lon="11.4301741"><ele>305.0</ele><time>2026-04-11T10:26:02.14Z</time></trkpt><trkpt lat="43.3737553" lon="11.4301133"><ele>304.6666666666667</ele><time>2026-04-11T10:26:03.141Z</time></trkpt><trkpt lat="43.373597" lon="11.4300437"><ele>304.3333333333333</ele><time>2026-04-11T10:26:04.14Z</time></trkpt><trkpt lat="43.3734311" lon="11.4299584"><ele>304.0</ele><time>2026-04-11T10:26:05.141Z</time></trkpt><trkpt lat="43.3732573" lon="11.429858"><ele>304.0</ele><time>2026-04-11T10:26:06.141Z</time></trkpt><trkpt lat="43.3730797" lon="11.4297452"><ele>304.0</ele><time>2026-04-11T10:26:07.141Z</time></trkpt><trkpt lat="43.3729011" lon="11.429636"><ele>304.0</ele><time>2026-04-11T10:26:08.141Z</time></trkpt><trkpt lat="43.3727295" lon="11.429533"><ele>301.66666666666663</ele><time>2026-04-11T10:26:09.141Z</time></trkpt><trkpt lat="43.3725615" lon="11.4294406"><ele>299.3333333333333</ele><time>2026-04-11T10:26:10.14Z</time></trkpt><trkpt lat="43.3724" lon="11.429347"><ele>297.0</ele><time>2026-04-11T10:26:11.14Z</time></trkpt><trkpt lat="43.3722435" lon="11.4292568"><ele>295.6666666666667</ele><time>2026-04-11T10:26:12.14Z</time></trkpt><trkpt lat="43.3720817" lon="11.4291674"><ele>294.33333333333337</ele><time>2026-04-11T10:26:13.14Z</time></trkpt><trkpt lat="43.3719152" lon="11.4290787"><ele>293.0</ele><time>2026-04-11T10:26:14.14Z</time></trkpt><trkpt lat="43.3717465" lon="11.4289873"><ele>293.0</ele><time>2026-04-11T10:26:15.141Z</time></trkpt><trkpt lat="43.3715771" lon="11.4289426"><ele>293.0</ele><time>2026-04-11T10:26:16.14Z</time></trkpt><trkpt lat="43.3714259" lon="11.428891"><ele>293.0</ele><time>2026-04-11T10:26:17.142Z</time></trkpt><trkpt lat="43.3712788" lon="11.4288368"><ele>293.33333333333337</ele><time>2026-04-11T10:26:18.142Z</time></trkpt><trkpt lat="43.371122" lon="11.4287924"><ele>293.6666666666667</ele><time>2026-04-11T10:26:19.141Z</time></trkpt><trkpt lat="43.3709581" lon="11.4287488"><ele>294.0</ele><time>2026-04-11T10:26:20.141Z</time></trkpt><trkpt lat="43.370782" lon="11.428717"><ele>294.0</ele><time>2026-04-11T10:26:21.142Z</time></trkpt><trkpt lat="43.3705801" lon="11.4286709"><ele>294.0</ele><time>2026-04-11T10:26:22.141Z</time></trkpt><trkpt lat="43.3703913" lon="11.4286402"><ele>294.0</ele><time>2026-04-11T10:26:23.142Z</time></trkpt><trkpt lat="43.3702052" lon="11.4286165"><ele>291.6666666666667</ele><time>2026-04-11T10:26:24.142Z</time></trkpt><trkpt lat="43.3700195" lon="11.4285913"><ele>289.33333333333337</ele><time>2026-04-11T10:26:25.142Z</time></trkpt><trkpt lat="43.3698319" lon="11.4285712"><ele>287.0</ele><time>2026-04-11T10:26:26.141Z</time></trkpt><trkpt lat="43.3696431" lon="11.4285447"><ele>285.33333333333337</ele><time>2026-04-11T10:26:27.141Z</time></trkpt><trkpt lat="43.3694523" lon="11.4285272"><ele>283.6666666666667</ele><time>2026-04-11T10:26:28.141Z</time></trkpt><trkpt lat="43.3692682" lon="11.4285168"><ele>282.0</ele><time>2026-04-11T10:26:29.141Z</time></trkpt><trkpt lat="43.3691002" lon="11.4285093"><ele>282.0</ele><time>2026-04-11T10:26:30.141Z</time></trkpt><trkpt lat="43.3689398" lon="11.4285033"><ele>282.0</ele><time>2026-04-11T10:26:31.142Z</time></trkpt><trkpt lat="43.3687795" lon="11.4284876"><ele>282.0</ele><time>2026-04-11T10:26:32.142Z</time></trkpt><trkpt lat="43.3686159" lon="11.4284549"><ele>282.6666666666667</ele><time>2026-04-11T10:26:33.142Z</time></trkpt><trkpt lat="43.3684637" lon="11.428382"><ele>283.33333333333337</ele><time>2026-04-11T10:26:34.142Z</time></trkpt><trkpt lat="43.3683265" lon="11.4282659"><ele>284.0</ele><time>2026-04-11T10:26:35.142Z</time></trkpt><trkpt lat="43.3682038" lon="11.4281172"><ele>283.6666666666667</ele><time>2026-04-11T10:26:36.142Z</time></trkpt><trkpt lat="43.3681074" lon="11.4279415"><ele>283.3333333333333</ele><time>2026-04-11T10:26:37.141Z</time></trkpt><trkpt lat="43.368034" lon="11.4277379"><ele>283.0</ele><time>2026-04-11T10:26:38.141Z</time></trkpt><trkpt lat="43.3679792" lon="11.4275254"><ele>283.0</ele><time>2026-04-11T10:26:39.142Z</time></trkpt><trkpt lat="43.3679417" lon="11.4273018"><ele>283.0</ele><time>2026-04-11T10:26:40.141Z</time></trkpt><trkpt lat="43.3678832" lon="11.4271057"><ele>283.0</ele><time>2026-04-11T10:26:41.142Z</time></trkpt><trkpt lat="43.3678024" lon="11.4269425"><ele>283.25</ele><time>2026-04-11T10:26:42.142Z</time></trkpt><trkpt lat="43.3676927" lon="11.4268389"><ele>283.5</ele><time>2026-04-11T10:26:43.142Z</time></trkpt><trkpt lat="43.3675662" lon="11.4267604"><ele>283.75</ele><time>2026-04-11T10:26:44.142Z</time></trkpt><trkpt lat="43.3674265" lon="11.4267065"><ele>284.0</ele><time>2026-04-11T10:26:45.141Z</time></trkpt><trkpt lat="43.367277" lon="11.4266567"><ele>285.6666666666667</ele><time>2026-04-11T10:26:46.142Z</time></trkpt><trkpt lat="43.3671092" lon="11.4266071"><ele>287.3333333333333</ele><time>2026-04-11T10:26:47.142Z</time></trkpt><trkpt lat="43.3669316" lon="11.4265482"><ele>289.0</ele><time>2026-04-11T10:26:48.141Z</time></trkpt><trkpt lat="43.3667623" lon="11.4264813"><ele>289.0</ele><time>2026-04-11T10:26:49.142Z</time></trkpt><trkpt lat="43.3666101" lon="11.4264175"><ele>289.0</ele><time>2026-04-11T10:26:50.142Z</time></trkpt><trkpt lat="43.3664582" lon="11.4263876"><ele>289.0</ele><time>2026-04-11T10:26:51.141Z</time></trkpt><trkpt lat="43.3663009" lon="11.4264002"><ele>288.5</ele><time>2026-04-11T10:26:52.141Z</time></trkpt><trkpt lat="43.3661459" lon="11.4264376"><ele>288.0</ele><time>2026-04-11T10:26:53.141Z</time></trkpt><trkpt lat="43.3659911" lon="11.4264708"><ele>287.5</ele><time>2026-04-11T10:26:54.141Z</time></trkpt><trkpt lat="43.3658602" lon="11.4264632"><ele>287.0</ele><time>2026-04-11T10:26:55.142Z</time></trkpt><trkpt lat="43.3657396" lon="11.4264107"><ele>287.75</ele><time>2026-04-11T10:26:56.142Z</time></trkpt><trkpt lat="43.36565" lon="11.4262576"><ele>288.5</ele><time>2026-04-11T10:26:57.142Z</time></trkpt><trkpt lat="43.3655765" lon="11.4261004"><ele>289.25</ele><time>2026-04-11T10:26:58.141Z</time></trkpt><trkpt lat="43.365472" lon="11.4259285"><ele>290.0</ele><time>2026-04-11T10:26:59.141Z</time></trkpt><trkpt lat="43.3653652" lon="11.425754"><ele>287.33333333333337</ele><time>2026-04-11T10:27:00.142Z</time></trkpt><trkpt lat="43.3652504" lon="11.4255795"><ele>284.6666666666667</ele><time>2026-04-11T10:27:01.141Z</time></trkpt><trkpt lat="43.3651449" lon="11.4254151"><ele>282.0</ele><time>2026-04-11T10:27:02.143Z</time></trkpt><trkpt lat="43.3650521" lon="11.4252415"><ele>281.75</ele><time>2026-04-11T10:27:03.141Z</time></trkpt><trkpt lat="43.3649573" lon="11.4250904"><ele>281.5</ele><time>2026-04-11T10:27:04.141Z</time></trkpt><trkpt lat="43.3648734" lon="11.4249312"><ele>281.25</ele><time>2026-04-11T10:27:05.142Z</time></trkpt><trkpt lat="43.3647851" lon="11.4247747"><ele>281.0</ele><time>2026-04-11T10:27:06.142Z</time></trkpt><trkpt lat="43.3647064" lon="11.4246089"><ele>280.25</ele><time>2026-04-11T10:27:07.142Z</time></trkpt><trkpt lat="43.3646319" lon="11.4244397"><ele>279.5</ele><time>2026-04-11T10:27:08.141Z</time></trkpt><trkpt lat="43.3645719" lon="11.4242619"><ele>278.75</ele><time>2026-04-11T10:27:09.143Z</time></trkpt><trkpt lat="43.3645315" lon="11.4240584"><ele>278.0</ele><time>2026-04-11T10:27:10.142Z</time></trkpt><trkpt lat="43.3645093" lon="11.4238476"><ele>275.6666666666667</ele><time>2026-04-11T10:27:11.142Z</time></trkpt><trkpt lat="43.3644924" lon="11.4236174"><ele>273.3333333333333</ele><time>2026-04-11T10:27:12.142Z</time></trkpt><trkpt lat="43.3644843" lon="11.4233788"><ele>271.0</ele><time>2026-04-11T10:27:13.142Z</time></trkpt><trkpt lat="43.3644739" lon="11.4231398"><ele>268.66666666666663</ele><time>2026-04-11T10:27:14.141Z</time></trkpt><trkpt lat="43.3644682" lon="11.4228846"><ele>266.3333333333333</ele><time>2026-04-11T10:27:15.141Z</time></trkpt><trkpt lat="43.3644563" lon="11.4226227"><ele>264.0</ele><time>2026-04-11T10:27:16.142Z</time></trkpt><trkpt lat="43.36444" lon="11.4223641"><ele>261.6666666666667</ele><time>2026-04-11T10:27:17.141Z</time></trkpt><trkpt lat="43.3644273" lon="11.4221159"><ele>259.33333333333337</ele><time>2026-04-11T10:27:18.141Z</time></trkpt><trkpt lat="43.3644142" lon="11.4218925"><ele>257.0</ele><time>2026-04-11T10:27:19.142Z</time></trkpt><trkpt lat="43.3644043" lon="11.4216912"><ele>257.0</ele><time>2026-04-11T10:27:20.142Z</time></trkpt><trkpt lat="43.3643835" lon="11.4214923"><ele>257.0</ele><time>2026-04-11T10:27:21.141Z</time></trkpt><trkpt lat="43.364347" lon="11.4212953"><ele>257.0</ele><time>2026-04-11T10:27:22.142Z</time></trkpt><trkpt lat="43.3642932" lon="11.4210734"><ele>256.6666666666667</ele><time>2026-04-11T10:27:23.143Z</time></trkpt><trkpt lat="43.3642283" lon="11.4208641"><ele>256.3333333333333</ele><time>2026-04-11T10:27:24.142Z</time></trkpt><trkpt lat="43.3641645" lon="11.420675"><ele>256.0</ele><time>2026-04-11T10:27:25.142Z</time></trkpt><trkpt lat="43.3641171" lon="11.420487"><ele>255.5</ele><time>2026-04-11T10:27:26.143Z</time></trkpt><trkpt lat="43.3640851" lon="11.4202811"><ele>255.0</ele><time>2026-04-11T10:27:27.143Z</time></trkpt><trkpt lat="43.3640426" lon="11.4201154"><ele>254.5</ele><time>2026-04-11T10:27:28.143Z</time></trkpt><trkpt lat="43.3640171" lon="11.419913"><ele>254.0</ele><time>2026-04-11T10:27:29.143Z</time></trkpt><trkpt lat="43.3639981" lon="11.419713"><ele>253.0</ele><time>2026-04-11T10:27:30.143Z</time></trkpt><trkpt lat="43.3639848" lon="11.4195292"><ele>252.0</ele><time>2026-04-11T10:27:31.143Z</time></trkpt><trkpt lat="43.3639782" lon="11.4193549"><ele>251.0</ele><time>2026-04-11T10:27:32.143Z</time></trkpt><trkpt lat="43.3639744" lon="11.4191816"><ele>250.0</ele><time>2026-04-11T10:27:33.142Z</time></trkpt><trkpt lat="43.363974" lon="11.4190303"><ele>249.99999999999997</ele><time>2026-04-11T10:27:34.143Z</time></trkpt><trkpt lat="43.3639735" lon="11.4188876"><ele>250.0</ele><time>2026-04-11T10:27:35.143Z</time></trkpt><trkpt lat="43.3639466" lon="11.418769"><ele>250.0</ele><time>2026-04-11T10:27:36.143Z</time></trkpt><trkpt lat="43.3638897" lon="11.4186895"><ele>250.0</ele><time>2026-04-11T10:27:37.142Z</time></trkpt><trkpt lat="43.3638223" lon="11.4186396"><ele>249.99999999999997</ele><time>2026-04-11T10:27:38.142Z</time></trkpt><trkpt lat="43.363758" lon="11.418613"><ele>250.0</ele><time>2026-04-11T10:27:39.142Z</time></trkpt><trkpt lat="43.3636832" lon="11.4185666"><ele>247.5</ele><time>2026-04-11T10:27:41.142Z</time></trkpt><trkpt lat="43.3635855" lon="11.418519"><ele>245.0</ele><time>2026-04-11T10:27:43.142Z</time></trkpt><trkpt lat="43.3634654" lon="11.4185045"><ele>242.5</ele><time>2026-04-11T10:27:44.142Z</time></trkpt><trkpt lat="43.363313" lon="11.4184911"><ele>240.0</ele><time>2026-04-11T10:27:45.142Z</time></trkpt><trkpt lat="43.3631504" lon="11.4184808"><ele>239.0</ele><time>2026-04-11T10:27:46.143Z</time></trkpt><trkpt lat="43.3629718" lon="11.4184755"><ele>238.0</ele><time>2026-04-11T10:27:47.142Z</time></trkpt><trkpt lat="43.3627991" lon="11.4184385"><ele>237.0</ele><time>2026-04-11T10:27:48.142Z</time></trkpt><trkpt lat="43.3626351" lon="11.4183798"><ele>237.0</ele><time>2026-04-11T10:27:49.143Z</time></trkpt><trkpt lat="43.3624924" lon="11.4183183"><ele>237.0</ele><time>2026-04-11T10:27:50.143Z</time></trkpt><trkpt lat="43.3623567" lon="11.4182846"><ele>237.0</ele><time>2026-04-11T10:27:51.142Z</time></trkpt><trkpt lat="43.3622171" lon="11.4182996"><ele>237.0</ele><time>2026-04-11T10:27:52.142Z</time></trkpt><trkpt lat="43.3620951" lon="11.4183716"><ele>237.25</ele><time>2026-04-11T10:27:53.142Z</time></trkpt><trkpt lat="43.3619841" lon="11.4184735"><ele>237.5</ele><time>2026-04-11T10:27:54.142Z</time></trkpt><trkpt lat="43.3619096" lon="11.4185786"><ele>237.75</ele><time>2026-04-11T10:27:55.143Z</time></trkpt><trkpt lat="43.3618259" lon="11.4187483"><ele>238.0</ele><time>2026-04-11T10:27:56.143Z</time></trkpt><trkpt lat="43.3617359" lon="11.418923"><ele>238.0</ele><time>2026-04-11T10:27:57.143Z</time></trkpt><trkpt lat="43.361648" lon="11.4190718"><ele>238.0</ele><time>2026-04-11T10:27:58.142Z</time></trkpt><trkpt lat="43.3615446" lon="11.4191907"><ele>238.0</ele><time>2026-04-11T10:27:59.142Z</time></trkpt><trkpt lat="43.3613879" lon="11.419275"><ele>238.0</ele><time>2026-04-11T10:28:00.142Z</time></trkpt><trkpt lat="43.36121" lon="11.4193184"><ele>236.0</ele><time>2026-04-11T10:28:01.143Z</time></trkpt><trkpt lat="43.3610291" lon="11.4193658"><ele>234.0</ele><time>2026-04-11T10:28:02.142Z</time></trkpt><trkpt lat="43.3608536" lon="11.4194081"><ele>232.0</ele><time>2026-04-11T10:28:03.143Z</time></trkpt><trkpt lat="43.3606832" lon="11.4194597"><ele>231.33333333333331</ele><time>2026-04-11T10:28:04.143Z</time></trkpt><trkpt lat="43.3605129" lon="11.4195182"><ele>230.66666666666669</ele><time>2026-04-11T10:28:05.143Z</time></trkpt><trkpt lat="43.3603416" lon="11.4195778"><ele>230.0</ele><time>2026-04-11T10:28:06.143Z</time></trkpt><trkpt lat="43.36017" lon="11.4196367"><ele>230.66666666666669</ele><time>2026-04-11T10:28:07.142Z</time></trkpt><trkpt lat="43.3599965" lon="11.4196966"><ele>231.33333333333331</ele><time>2026-04-11T10:28:08.143Z</time></trkpt><trkpt lat="43.3598229" lon="11.4197576"><ele>232.0</ele><time>2026-04-11T10:28:09.143Z</time></trkpt><trkpt lat="43.3596494" lon="11.4198224"><ele>230.66666666666666</ele><time>2026-04-11T10:28:10.142Z</time></trkpt><trkpt lat="43.3594851" lon="11.4198879"><ele>229.33333333333331</ele><time>2026-04-11T10:28:11.144Z</time></trkpt><trkpt lat="43.3593411" lon="11.4199413"><ele>228.0</ele><time>2026-04-11T10:28:12.142Z</time></trkpt><trkpt lat="43.3592075" lon="11.4199836"><ele>228.0</ele><time>2026-04-11T10:28:13.142Z</time></trkpt><trkpt lat="43.3590891" lon="11.4199905"><ele>228.0</ele><time>2026-04-11T10:28:14.143Z</time></trkpt><trkpt lat="43.3589674" lon="11.4199724"><ele>228.0</ele><time>2026-04-11T10:28:15.143Z</time></trkpt><trkpt lat="43.3588615" lon="11.4198629"><ele>228.0</ele><time>2026-04-11T10:28:16.142Z</time></trkpt><trkpt lat="43.3587564" lon="11.4197117"><ele>226.0</ele><time>2026-04-11T10:28:17.143Z</time></trkpt><trkpt lat="43.3586501" lon="11.4195182"><ele>224.0</ele><time>2026-04-11T10:28:18.142Z</time></trkpt><trkpt lat="43.358541" lon="11.4193129"><ele>222.0</ele><time>2026-04-11T10:28:19.142Z</time></trkpt><trkpt lat="43.3584182" lon="11.419111"><ele>222.0</ele><time>2026-04-11T10:28:20.142Z</time></trkpt><trkpt lat="43.358306" lon="11.4189275"><ele>222.0</ele><time>2026-04-11T10:28:21.143Z</time></trkpt><trkpt lat="43.3582013" lon="11.4187613"><ele>222.0</ele><time>2026-04-11T10:28:22.142Z</time></trkpt><trkpt lat="43.3580986" lon="11.4185878"><ele>221.0</ele><time>2026-04-11T10:28:23.143Z</time></trkpt><trkpt lat="43.3579945" lon="11.4184141"><ele>220.0</ele><time>2026-04-11T10:28:24.142Z</time></trkpt><trkpt lat="43.3578848" lon="11.4182386"><ele>219.0</ele><time>2026-04-11T10:28:25.142Z</time></trkpt><trkpt lat="43.3577731" lon="11.4180679"><ele>219.33333333333331</ele><time>2026-04-11T10:28:26.143Z</time></trkpt><trkpt lat="43.3576601" lon="11.4178932"><ele>219.66666666666666</ele><time>2026-04-11T10:28:27.142Z</time></trkpt><trkpt lat="43.3575507" lon="11.4177192"><ele>220.0</ele><time>2026-04-11T10:28:28.144Z</time></trkpt><trkpt lat="43.3574441" lon="11.4175542"><ele>220.0</ele><time>2026-04-11T10:28:29.144Z</time></trkpt><trkpt lat="43.3573458" lon="11.4173934"><ele>220.0</ele><time>2026-04-11T10:28:30.143Z</time></trkpt><trkpt lat="43.3572521" lon="11.4172532"><ele>220.0</ele><time>2026-04-11T10:28:31.144Z</time></trkpt><trkpt lat="43.3571655" lon="11.4171204"><ele>220.0</ele><time>2026-04-11T10:28:32.144Z</time></trkpt><trkpt lat="43.3570846" lon="11.4170026"><ele>219.75</ele><time>2026-04-11T10:28:33.144Z</time></trkpt><trkpt lat="43.3570054" lon="11.4168743"><ele>219.5</ele><time>2026-04-11T10:28:34.144Z</time></trkpt><trkpt lat="43.3569214" lon="11.4167462"><ele>219.25</ele><time>2026-04-11T10:28:35.144Z</time></trkpt><trkpt lat="43.3568289" lon="11.4166027"><ele>219.0</ele><time>2026-04-11T10:28:36.143Z</time></trkpt><trkpt lat="43.356726" lon="11.4164735"><ele>219.0</ele><time>2026-04-11T10:28:37.144Z</time></trkpt><trkpt lat="43.3566399" lon="11.4163203"><ele>219.0</ele><time>2026-04-11T10:28:38.143Z</time></trkpt><trkpt lat="43.3565579" lon="11.4161822"><ele>219.0</ele><time>2026-04-11T10:28:39.143Z</time></trkpt><trkpt lat="43.3564857" lon="11.4160613"><ele>219.0</ele><time>2026-04-11T10:28:40.144Z</time></trkpt><trkpt lat="43.3564179" lon="11.4159648"><ele>219.75</ele><time>2026-04-11T10:28:41.144Z</time></trkpt><trkpt lat="43.3563347" lon="11.4158974"><ele>220.5</ele><time>2026-04-11T10:28:42.144Z</time></trkpt><trkpt lat="43.3562239" lon="11.4158739"><ele>221.25</ele><time>2026-04-11T10:28:43.143Z</time></trkpt><trkpt lat="43.3560977" lon="11.4158965"><ele>222.0</ele><time>2026-04-11T10:28:44.143Z</time></trkpt><trkpt lat="43.3559662" lon="11.4159427"><ele>222.0</ele><time>2026-04-11T10:28:45.144Z</time></trkpt><trkpt lat="43.3558271" lon="11.4160297"><ele>222.0</ele><time>2026-04-11T10:28:46.143Z</time></trkpt><trkpt lat="43.3556901" lon="11.4161417"><ele>222.0</ele><time>2026-04-11T10:28:47.144Z</time></trkpt><trkpt lat="43.3555582" lon="11.4162579"><ele>221.5</ele><time>2026-04-11T10:28:48.143Z</time></trkpt><trkpt lat="43.3554144" lon="11.4163514"><ele>221.0</ele><time>2026-04-11T10:28:49.143Z</time></trkpt><trkpt lat="43.3552844" lon="11.4163602"><ele>220.5</ele><time>2026-04-11T10:28:50.144Z</time></trkpt><trkpt lat="43.3551483" lon="11.4162962"><ele>220.0</ele><time>2026-04-11T10:28:51.144Z</time></trkpt><trkpt lat="43.3550016" lon="11.4162343"><ele>221.66666666666666</ele><time>2026-04-11T10:28:52.143Z</time></trkpt><trkpt lat="43.3548279" lon="11.4162113"><ele>223.33333333333331</ele><time>2026-04-11T10:28:53.143Z</time></trkpt><trkpt lat="43.3546268" lon="11.416203"><ele>225.0</ele><time>2026-04-11T10:28:54.143Z</time></trkpt><trkpt lat="43.3544406" lon="11.4161846"><ele>225.0</ele><time>2026-04-11T10:28:55.143Z</time></trkpt><trkpt lat="43.354263" lon="11.4161704"><ele>225.0</ele><time>2026-04-11T10:28:56.144Z</time></trkpt><trkpt lat="43.354084" lon="11.4161482"><ele>225.0</ele><time>2026-04-11T10:28:57.144Z</time></trkpt><trkpt lat="43.353907" lon="11.4161322"><ele>224.33333333333331</ele><time>2026-04-11T10:28:58.143Z</time></trkpt><trkpt lat="43.3537428" lon="11.4161136"><ele>223.66666666666666</ele><time>2026-04-11T10:28:59.143Z</time></trkpt><trkpt lat="43.3535861" lon="11.416084"><ele>223.0</ele><time>2026-04-11T10:29:00.144Z</time></trkpt><trkpt lat="43.353436" lon="11.4160543"><ele>223.0</ele><time>2026-04-11T10:29:01.143Z</time></trkpt><trkpt lat="43.3532865" lon="11.4160155"><ele>223.0</ele><time>2026-04-11T10:29:02.143Z</time></trkpt><trkpt lat="43.3531362" lon="11.4159648"><ele>223.0</ele><time>2026-04-11T10:29:03.144Z</time></trkpt><trkpt lat="43.3529801" lon="11.4159196"><ele>223.0</ele><time>2026-04-11T10:29:04.143Z</time></trkpt><trkpt lat="43.3528236" lon="11.4158587"><ele>223.0</ele><time>2026-04-11T10:29:05.144Z</time></trkpt><trkpt lat="43.3526695" lon="11.4158168"><ele>223.0</ele><time>2026-04-11T10:29:06.143Z</time></trkpt><trkpt lat="43.3525169" lon="11.4157906"><ele>223.0</ele><time>2026-04-11T10:29:07.143Z</time></trkpt><trkpt lat="43.352384" lon="11.4157491"><ele>223.0</ele><time>2026-04-11T10:29:08.144Z</time></trkpt><trkpt lat="43.3522614" lon="11.4157191"><ele>223.0</ele><time>2026-04-11T10:29:09.144Z</time></trkpt><trkpt lat="43.3521584" lon="11.4156865"><ele>223.0</ele><time>2026-04-11T10:29:10.143Z</time></trkpt><trkpt lat="43.3520684" lon="11.4156403"><ele>222.25</ele><time>2026-04-11T10:29:11.143Z</time></trkpt><trkpt lat="43.3519745" lon="11.4156049"><ele>221.5</ele><time>2026-04-11T10:29:12.144Z</time></trkpt><trkpt lat="43.35187" lon="11.4155753"><ele>220.75</ele><time>2026-04-11T10:29:13.143Z</time></trkpt><trkpt lat="43.3517579" lon="11.4155354"><ele>220.0</ele><time>2026-04-11T10:29:14.143Z</time></trkpt><trkpt lat="43.3516247" lon="11.4154963"><ele>220.0</ele><time>2026-04-11T10:29:15.143Z</time></trkpt><trkpt lat="43.3514747" lon="11.4154643"><ele>220.0</ele><time>2026-04-11T10:29:16.143Z</time></trkpt><trkpt lat="43.3513208" lon="11.415426"><ele>220.0</ele><time>2026-04-11T10:29:17.143Z</time></trkpt><trkpt lat="43.3511658" lon="11.4153789"><ele>220.0</ele><time>2026-04-11T10:29:18.144Z</time></trkpt><trkpt lat="43.3510089" lon="11.415334"><ele>220.0</ele><time>2026-04-11T10:29:19.144Z</time></trkpt><trkpt lat="43.3508542" lon="11.4152886"><ele>220.0</ele><time>2026-04-11T10:29:20.143Z</time></trkpt><trkpt lat="43.3506978" lon="11.4152539"><ele>220.0</ele><time>2026-04-11T10:29:21.144Z</time></trkpt><trkpt lat="43.3505505" lon="11.415213"><ele>220.0</ele><time>2026-04-11T10:29:22.143Z</time></trkpt><trkpt lat="43.3504096" lon="11.4151684"><ele>220.0</ele><time>2026-04-11T10:29:23.143Z</time></trkpt><trkpt lat="43.3502494" lon="11.4151246"><ele>220.5</ele><time>2026-04-11T10:29:24.143Z</time></trkpt><trkpt lat="43.3501063" lon="11.4150721"><ele>221.0</ele><time>2026-04-11T10:29:25.144Z</time></trkpt><trkpt lat="43.3499916" lon="11.4149699"><ele>221.5</ele><time>2026-04-11T10:29:26.143Z</time></trkpt><trkpt lat="43.3498831" lon="11.4148139"><ele>222.0</ele><time>2026-04-11T10:29:27.143Z</time></trkpt><trkpt lat="43.3498053" lon="11.4146056"><ele>222.0</ele><time>2026-04-11T10:29:28.143Z</time></trkpt><trkpt lat="43.3497176" lon="11.4143926"><ele>222.0</ele><time>2026-04-11T10:29:29.143Z</time></trkpt><trkpt lat="43.3496248" lon="11.4141843"><ele>222.0</ele><time>2026-04-11T10:29:30.144Z</time></trkpt><trkpt lat="43.3495234" lon="11.4139721"><ele>223.66666666666669</ele><time>2026-04-11T10:29:31.143Z</time></trkpt><trkpt lat="43.3494225" lon="11.4137426"><ele>225.33333333333334</ele><time>2026-04-11T10:29:32.144Z</time></trkpt><trkpt lat="43.3493275" lon="11.4135038"><ele>227.0</ele><time>2026-04-11T10:29:33.145Z</time></trkpt><trkpt lat="43.3492378" lon="11.4132629"><ele>227.0</ele><time>2026-04-11T10:29:34.145Z</time></trkpt><trkpt lat="43.3491233" lon="11.4130634"><ele>227.0</ele><time>2026-04-11T10:29:35.144Z</time></trkpt><trkpt lat="43.3490047" lon="11.4128885"><ele>227.0</ele><time>2026-04-11T10:29:36.145Z</time></trkpt><trkpt lat="43.3489016" lon="11.412729"><ele>228.66666666666669</ele><time>2026-04-11T10:29:37.144Z</time></trkpt><trkpt lat="43.3487873" lon="11.4125431"><ele>230.33333333333331</ele><time>2026-04-11T10:29:38.144Z</time></trkpt><trkpt lat="43.3486891" lon="11.4123329"><ele>232.0</ele><time>2026-04-11T10:29:39.144Z</time></trkpt><trkpt lat="43.348602" lon="11.4120973"><ele>232.0</ele><time>2026-04-11T10:29:40.144Z</time></trkpt><trkpt lat="43.3485302" lon="11.4118374"><ele>232.0</ele><time>2026-04-11T10:29:41.145Z</time></trkpt><trkpt lat="43.3484955" lon="11.4115737"><ele>232.0</ele><time>2026-04-11T10:29:42.144Z</time></trkpt><trkpt lat="43.3484672" lon="11.4113044"><ele>234.0</ele><time>2026-04-11T10:29:43.145Z</time></trkpt><trkpt lat="43.3484637" lon="11.4110344"><ele>236.0</ele><time>2026-04-11T10:29:44.145Z</time></trkpt><trkpt lat="43.348453" lon="11.4107731"><ele>238.0</ele><time>2026-04-11T10:29:45.145Z</time></trkpt><trkpt lat="43.3484092" lon="11.4105194"><ele>238.66666666666666</ele><time>2026-04-11T10:29:46.144Z</time></trkpt><trkpt lat="43.3483523" lon="11.4102751"><ele>239.33333333333331</ele><time>2026-04-11T10:29:47.144Z</time></trkpt><trkpt lat="43.348281" lon="11.4100318"><ele>240.0</ele><time>2026-04-11T10:29:48.145Z</time></trkpt><trkpt lat="43.3482132" lon="11.4097864"><ele>240.0</ele><time>2026-04-11T10:29:49.144Z</time></trkpt><trkpt lat="43.3481521" lon="11.409538"><ele>240.0</ele><time>2026-04-11T10:29:50.144Z</time></trkpt><trkpt lat="43.3480927" lon="11.4093134"><ele>240.0</ele><time>2026-04-11T10:29:51.144Z</time></trkpt><trkpt lat="43.3480449" lon="11.409094"><ele>247.0</ele><time>2026-04-11T10:29:52.145Z</time></trkpt><trkpt lat="43.3480116" lon="11.4088704"><ele>254.0</ele><time>2026-04-11T10:29:53.144Z</time></trkpt><trkpt lat="43.3479922" lon="11.4086456"><ele>261.0</ele><time>2026-04-11T10:29:54.144Z</time></trkpt><trkpt lat="43.3479772" lon="11.4084105"><ele>262.0</ele><time>2026-04-11T10:29:55.144Z</time></trkpt><trkpt lat="43.3479854" lon="11.4081825"><ele>263.0</ele><time>2026-04-11T10:29:56.144Z</time></trkpt><trkpt lat="43.3479973" lon="11.4079407"><ele>264.0</ele><time>2026-04-11T10:29:57.145Z</time></trkpt><trkpt lat="43.3480059" lon="11.407687"><ele>266.0</ele><time>2026-04-11T10:29:58.145Z</time></trkpt><trkpt lat="43.3480199" lon="11.4074352"><ele>268.0</ele><time>2026-04-11T10:29:59.145Z</time></trkpt><trkpt lat="43.3480274" lon="11.4071743"><ele>270.0</ele><time>2026-04-11T10:30:00.144Z</time></trkpt><trkpt lat="43.3480491" lon="11.406932"><ele>265.3333333333333</ele><time>2026-04-11T10:30:01.144Z</time></trkpt><trkpt lat="43.3480706" lon="11.4066827"><ele>260.66666666666663</ele><time>2026-04-11T10:30:02.144Z</time></trkpt><trkpt lat="43.3481202" lon="11.4064503"><ele>256.0</ele><time>2026-04-11T10:30:03.145Z</time></trkpt><trkpt lat="43.3481834" lon="11.4062281"><ele>256.0</ele><time>2026-04-11T10:30:04.144Z</time></trkpt><trkpt lat="43.3482634" lon="11.4060037"><ele>256.0</ele><time>2026-04-11T10:30:05.144Z</time></trkpt><trkpt lat="43.3483329" lon="11.4057729"><ele>256.0</ele><time>2026-04-11T10:30:06.145Z</time></trkpt><trkpt lat="43.3483969" lon="11.4055218"><ele>259.66666666666663</ele><time>2026-04-11T10:30:07.145Z</time></trkpt><trkpt lat="43.348439" lon="11.4052676"><ele>263.3333333333333</ele><time>2026-04-11T10:30:08.145Z</time></trkpt><trkpt lat="43.3484543" lon="11.405014"><ele>267.0</ele><time>2026-04-11T10:30:09.144Z</time></trkpt><trkpt lat="43.3484596" lon="11.4047945"><ele>267.5</ele><time>2026-04-11T10:30:10.144Z</time></trkpt><trkpt lat="43.348479" lon="11.4045868"><ele>268.0</ele><time>2026-04-11T10:30:11.145Z</time></trkpt><trkpt lat="43.348535" lon="11.4044104"><ele>268.5</ele><time>2026-04-11T10:30:12.145Z</time></trkpt><trkpt lat="43.3486332" lon="11.4042686"><ele>269.0</ele><time>2026-04-11T10:30:13.144Z</time></trkpt><trkpt lat="43.3487447" lon="11.404108"><ele>269.0</ele><time>2026-04-11T10:30:14.145Z</time></trkpt><trkpt lat="43.348856" lon="11.4039591"><ele>269.0</ele><time>2026-04-11T10:30:15.144Z</time></trkpt><trkpt lat="43.3489554" lon="11.4038064"><ele>269.0</ele><time>2026-04-11T10:30:16.144Z</time></trkpt><trkpt lat="43.3490469" lon="11.4036429"><ele>270.0</ele><time>2026-04-11T10:30:17.145Z</time></trkpt><trkpt lat="43.3491156" lon="11.4034593"><ele>271.0</ele><time>2026-04-11T10:30:18.145Z</time></trkpt><trkpt lat="43.3491593" lon="11.4032758"><ele>272.0</ele><time>2026-04-11T10:30:19.145Z</time></trkpt><trkpt lat="43.3491597" lon="11.4030436"><ele>274.33333333333337</ele><time>2026-04-11T10:30:20.144Z</time></trkpt><trkpt lat="43.3491614" lon="11.4028245"><ele>276.6666666666667</ele><time>2026-04-11T10:30:21.145Z</time></trkpt><trkpt lat="43.3491709" lon="11.4025837"><ele>279.0</ele><time>2026-04-11T10:30:22.144Z</time></trkpt><trkpt lat="43.349188" lon="11.402341"><ele>281.6666666666667</ele><time>2026-04-11T10:30:23.144Z</time></trkpt><trkpt lat="43.3492201" lon="11.4021293"><ele>284.33333333333337</ele><time>2026-04-11T10:30:24.145Z</time></trkpt><trkpt lat="43.3492628" lon="11.4019219"><ele>287.0</ele><time>2026-04-11T10:30:25.144Z</time></trkpt><trkpt lat="43.3493192" lon="11.4017494"><ele>287.0</ele><time>2026-04-11T10:30:26.144Z</time></trkpt><trkpt lat="43.3493989" lon="11.401607"><ele>287.0</ele><time>2026-04-11T10:30:27.145Z</time></trkpt><trkpt lat="43.3494901" lon="11.4015191"><ele>287.0</ele><time>2026-04-11T10:30:28.145Z</time></trkpt><trkpt lat="43.3496093" lon="11.4014841"><ele>287.0</ele><time>2026-04-11T10:30:29.144Z</time></trkpt><trkpt lat="43.3497528" lon="11.401512"><ele>285.75</ele><time>2026-04-11T10:30:30.144Z</time></trkpt><trkpt lat="43.3498878" lon="11.4015882"><ele>284.5</ele><time>2026-04-11T10:30:31.145Z</time></trkpt><trkpt lat="43.3500078" lon="11.4016618"><ele>283.25</ele><time>2026-04-11T10:30:32.145Z</time></trkpt><trkpt lat="43.3501052" lon="11.4016975"><ele>282.0</ele><time>2026-04-11T10:30:33.145Z</time></trkpt><trkpt lat="43.3501954" lon="11.4016701"><ele>282.0</ele><time>2026-04-11T10:30:34.145Z</time></trkpt><trkpt lat="43.3502489" lon="11.401609"><ele>282.0</ele><time>2026-04-11T10:30:35.144Z</time></trkpt><trkpt lat="43.3502696" lon="11.4014425"><ele>282.0</ele><time>2026-04-11T10:30:36.145Z</time></trkpt><trkpt lat="43.3502617" lon="11.4012635"><ele>282.0</ele><time>2026-04-11T10:30:37.145Z</time></trkpt><trkpt lat="43.3501888" lon="11.4011099"><ele>285.3333333333333</ele><time>2026-04-11T10:30:38.146Z</time></trkpt><trkpt lat="43.3500836" lon="11.4009555"><ele>288.66666666666663</ele><time>2026-04-11T10:30:39.146Z</time></trkpt><trkpt lat="43.3499553" lon="11.4008264"><ele>292.0</ele><time>2026-04-11T10:30:40.145Z</time></trkpt><trkpt lat="43.3498371" lon="11.4007109"><ele>292.0</ele><time>2026-04-11T10:30:41.145Z</time></trkpt><trkpt lat="43.3497162" lon="11.4006071"><ele>292.0</ele><time>2026-04-11T10:30:42.146Z</time></trkpt><trkpt lat="43.3495922" lon="11.4005692"><ele>292.0</ele><time>2026-04-11T10:30:43.146Z</time></trkpt><trkpt lat="43.3494506" lon="11.4005953"><ele>292.0</ele><time>2026-04-11T10:30:44.145Z</time></trkpt><trkpt lat="43.3493068" lon="11.400659"><ele>292.66666666666663</ele><time>2026-04-11T10:30:45.145Z</time></trkpt><trkpt lat="43.3491637" lon="11.400765"><ele>293.3333333333333</ele><time>2026-04-11T10:30:46.145Z</time></trkpt><trkpt lat="43.3490213" lon="11.400873"><ele>294.0</ele><time>2026-04-11T10:30:47.145Z</time></trkpt><trkpt lat="43.3489024" lon="11.4009661"><ele>295.2</ele><time>2026-04-11T10:30:48.146Z</time></trkpt><trkpt lat="43.3488006" lon="11.4010412"><ele>296.4</ele><time>2026-04-11T10:30:49.146Z</time></trkpt><trkpt lat="43.3487103" lon="11.4010856"><ele>297.6</ele><time>2026-04-11T10:30:50.145Z</time></trkpt><trkpt lat="43.3486141" lon="11.4010901"><ele>298.8</ele><time>2026-04-11T10:30:51.146Z</time></trkpt><trkpt lat="43.3485168" lon="11.4010453"><ele>300.0</ele><time>2026-04-11T10:30:52.145Z</time></trkpt><trkpt lat="43.348423" lon="11.4009482"><ele>300.0</ele><time>2026-04-11T10:30:53.145Z</time></trkpt><trkpt lat="43.3483222" lon="11.4008144"><ele>300.0</ele><time>2026-04-11T10:30:54.146Z</time></trkpt><trkpt lat="43.3482148" lon="11.4006615"><ele>300.0</ele><time>2026-04-11T10:30:55.145Z</time></trkpt><trkpt lat="43.3480989" lon="11.4005111"><ele>302.3333333333333</ele><time>2026-04-11T10:30:56.145Z</time></trkpt><trkpt lat="43.3479601" lon="11.4003678"><ele>304.66666666666663</ele><time>2026-04-11T10:30:57.146Z</time></trkpt><trkpt lat="43.3478141" lon="11.400262"><ele>307.0</ele><time>2026-04-11T10:30:58.146Z</time></trkpt><trkpt lat="43.3476778" lon="11.4001997"><ele>307.0</ele><time>2026-04-11T10:30:59.146Z</time></trkpt><trkpt lat="43.3475535" lon="11.4001311"><ele>307.0</ele><time>2026-04-11T10:31:00.146Z</time></trkpt><trkpt lat="43.3474548" lon="11.4000458"><ele>307.0</ele><time>2026-04-11T10:31:01.145Z</time></trkpt><trkpt lat="43.3473875" lon="11.3999296"><ele>307.0</ele><time>2026-04-11T10:31:02.146Z</time></trkpt><trkpt lat="43.3473502" lon="11.3997873"><ele>307.2</ele><time>2026-04-11T10:31:03.146Z</time></trkpt><trkpt lat="43.347341" lon="11.3996455"><ele>307.4</ele><time>2026-04-11T10:31:04.146Z</time></trkpt><trkpt lat="43.347382" lon="11.3995259"><ele>307.6</ele><time>2026-04-11T10:31:05.146Z</time></trkpt><trkpt lat="43.3474405" lon="11.3994216"><ele>307.8</ele><time>2026-04-11T10:31:06.146Z</time></trkpt><trkpt lat="43.3475471" lon="11.399322"><ele>308.0</ele><time>2026-04-11T10:31:07.145Z</time></trkpt><trkpt lat="43.3476816" lon="11.3992199"><ele>308.0</ele><time>2026-04-11T10:31:08.145Z</time></trkpt><trkpt lat="43.3478304" lon="11.3991296"><ele>308.0</ele><time>2026-04-11T10:31:09.146Z</time></trkpt><trkpt lat="43.3479834" lon="11.3990574"><ele>308.0</ele><time>2026-04-11T10:31:10.146Z</time></trkpt><trkpt lat="43.3481253" lon="11.3990041"><ele>308.4</ele><time>2026-04-11T10:31:11.146Z</time></trkpt><trkpt lat="43.3482525" lon="11.3989743"><ele>308.8</ele><time>2026-04-11T10:31:12.145Z</time></trkpt><trkpt lat="43.3483533" lon="11.3989634"><ele>309.2</ele><time>2026-04-11T10:31:13.146Z</time></trkpt><trkpt lat="43.3484208" lon="11.3989658"><ele>309.6</ele><time>2026-04-11T10:31:14.145Z</time></trkpt><trkpt lat="43.3484666" lon="11.3988787"><ele>310.0</ele><time>2026-04-11T10:31:17.145Z</time></trkpt><trkpt lat="43.3483946" lon="11.3987183"><ele>309.16666666666663</ele><time>2026-04-11T10:31:19.146Z</time></trkpt><trkpt lat="43.3483272" lon="11.398602"><ele>308.3333333333333</ele><time>2026-04-11T10:31:20.145Z</time></trkpt><trkpt lat="43.3482604" lon="11.3985021"><ele>307.5</ele><time>2026-04-11T10:31:21.146Z</time></trkpt><trkpt lat="43.3481994" lon="11.3984495"><ele>306.6666666666667</ele><time>2026-04-11T10:31:22.145Z</time></trkpt><trkpt lat="43.3481287" lon="11.3984379"><ele>305.83333333333337</ele><time>2026-04-11T10:31:23.146Z</time></trkpt><trkpt lat="43.348038" lon="11.3984648"><ele>305.0</ele><time>2026-04-11T10:31:24.146Z</time></trkpt><trkpt lat="43.3479324" lon="11.3985216"><ele>303.5</ele><time>2026-04-11T10:31:25.146Z</time></trkpt><trkpt lat="43.34782" lon="11.3985838"><ele>302.0</ele><time>2026-04-11T10:31:26.146Z</time></trkpt><trkpt lat="43.347688" lon="11.3986438"><ele>300.5</ele><time>2026-04-11T10:31:27.146Z</time></trkpt><trkpt lat="43.3475431" lon="11.3986794"><ele>299.0</ele><time>2026-04-11T10:31:28.146Z</time></trkpt><trkpt lat="43.3473933" lon="11.3986981"><ele>299.0</ele><time>2026-04-11T10:31:29.145Z</time></trkpt><trkpt lat="43.3472493" lon="11.3987191"><ele>299.0</ele><time>2026-04-11T10:31:30.145Z</time></trkpt><trkpt lat="43.3471156" lon="11.398741"><ele>299.0</ele><time>2026-04-11T10:31:31.146Z</time></trkpt><trkpt lat="43.3469916" lon="11.398769"><ele>299.0</ele><time>2026-04-11T10:31:32.146Z</time></trkpt><trkpt lat="43.3468808" lon="11.3988137"><ele>299.75</ele><time>2026-04-11T10:31:33.145Z</time></trkpt><trkpt lat="43.3467856" lon="11.3988955"><ele>300.5</ele><time>2026-04-11T10:31:34.145Z</time></trkpt><trkpt lat="43.346696" lon="11.3990092"><ele>301.25</ele><time>2026-04-11T10:31:35.146Z</time></trkpt><trkpt lat="43.3466089" lon="11.3991471"><ele>302.0</ele><time>2026-04-11T10:31:36.146Z</time></trkpt><trkpt lat="43.346521" lon="11.3992978"><ele>302.0</ele><time>2026-04-11T10:31:37.145Z</time></trkpt><trkpt lat="43.3464348" lon="11.3994566"><ele>302.0</ele><time>2026-04-11T10:31:38.145Z</time></trkpt><trkpt lat="43.3463556" lon="11.3996016"><ele>302.0</ele><time>2026-04-11T10:31:39.146Z</time></trkpt><trkpt lat="43.3462947" lon="11.3997086"><ele>302.0</ele><time>2026-04-11T10:31:40.146Z</time></trkpt><trkpt lat="43.3462427" lon="11.3997872"><ele>301.5</ele><time>2026-04-11T10:31:41.145Z</time></trkpt><trkpt lat="43.3461917" lon="11.3998622"><ele>301.0</ele><time>2026-04-11T10:31:42.146Z</time></trkpt><trkpt lat="43.3461405" lon="11.3999402"><ele>300.5</ele><time>2026-04-11T10:31:43.146Z</time></trkpt><trkpt lat="43.3460873" lon="11.4000247"><ele>300.0</ele><time>2026-04-11T10:31:44.147Z</time></trkpt><trkpt lat="43.3460346" lon="11.400114"><ele>299.5</ele><time>2026-04-11T10:31:45.147Z</time></trkpt><trkpt lat="43.3459801" lon="11.4002039"><ele>299.0</ele><time>2026-04-11T10:31:46.147Z</time></trkpt><trkpt lat="43.3459162" lon="11.4002992"><ele>299.0</ele><time>2026-04-11T10:31:47.146Z</time></trkpt><trkpt lat="43.3458456" lon="11.4004043"><ele>299.0</ele><time>2026-04-11T10:31:48.147Z</time></trkpt><trkpt lat="43.3457708" lon="11.4005165"><ele>299.0</ele><time>2026-04-11T10:31:49.147Z</time></trkpt><trkpt lat="43.3456973" lon="11.4006261"><ele>299.0</ele><time>2026-04-11T10:31:50.147Z</time></trkpt><trkpt lat="43.3456259" lon="11.4007331"><ele>299.0</ele><time>2026-04-11T10:31:51.146Z</time></trkpt><trkpt lat="43.3455642" lon="11.4008276"><ele>299.0</ele><time>2026-04-11T10:31:52.147Z</time></trkpt><trkpt lat="43.3455073" lon="11.4009154"><ele>299.0</ele><time>2026-04-11T10:31:53.146Z</time></trkpt><trkpt lat="43.3454626" lon="11.400989"><ele>299.0</ele><time>2026-04-11T10:31:54.146Z</time></trkpt><trkpt lat="43.3454082" lon="11.4010611"><ele>299.0</ele><time>2026-04-11T10:31:55.147Z</time></trkpt><trkpt lat="43.3453374" lon="11.4011259"><ele>299.0</ele><time>2026-04-11T10:31:56.146Z</time></trkpt><trkpt lat="43.3452508" lon="11.4011785"><ele>299.0</ele><time>2026-04-11T10:31:57.147Z</time></trkpt><trkpt lat="43.3451535" lon="11.4012217"><ele>299.0</ele><time>2026-04-11T10:31:58.146Z</time></trkpt><trkpt lat="43.3450549" lon="11.4012545"><ele>299.0</ele><time>2026-04-11T10:31:59.146Z</time></trkpt><trkpt lat="43.3449528" lon="11.4012911"><ele>299.0</ele><time>2026-04-11T10:32:00.147Z</time></trkpt><trkpt lat="43.3448465" lon="11.4013276"><ele>299.0</ele><time>2026-04-11T10:32:01.147Z</time></trkpt><trkpt lat="43.3447485" lon="11.4013528"><ele>299.0</ele><time>2026-04-11T10:32:02.147Z</time></trkpt><trkpt lat="43.3446507" lon="11.4013686"><ele>297.8</ele><time>2026-04-11T10:32:03.146Z</time></trkpt><trkpt lat="43.344546" lon="11.4013726"><ele>296.59999999999997</ele><time>2026-04-11T10:32:04.147Z</time></trkpt><trkpt lat="43.3444353" lon="11.4013712"><ele>295.4</ele><time>2026-04-11T10:32:05.146Z</time></trkpt><trkpt lat="43.3443226" lon="11.4013691"><ele>294.2</ele><time>2026-04-11T10:32:06.146Z</time></trkpt><trkpt lat="43.3442098" lon="11.4013736"><ele>293.0</ele><time>2026-04-11T10:32:07.147Z</time></trkpt><trkpt lat="43.344093" lon="11.4013883"><ele>293.0</ele><time>2026-04-11T10:32:08.147Z</time></trkpt><trkpt lat="43.3439771" lon="11.4014193"><ele>293.0</ele><time>2026-04-11T10:32:09.146Z</time></trkpt><trkpt lat="43.3438711" lon="11.401465"><ele>293.0</ele><time>2026-04-11T10:32:10.146Z</time></trkpt><trkpt lat="43.343758" lon="11.4015298"><ele>293.0</ele><time>2026-04-11T10:32:11.146Z</time></trkpt><trkpt lat="43.3436323" lon="11.4016113"><ele>292.75</ele><time>2026-04-11T10:32:12.146Z</time></trkpt><trkpt lat="43.3435178" lon="11.4016849"><ele>292.5</ele><time>2026-04-11T10:32:13.146Z</time></trkpt><trkpt lat="43.3434134" lon="11.4017593"><ele>292.25</ele><time>2026-04-11T10:32:14.147Z</time></trkpt><trkpt lat="43.3433238" lon="11.4018478"><ele>292.0</ele><time>2026-04-11T10:32:15.147Z</time></trkpt><trkpt lat="43.3432426" lon="11.4019474"><ele>292.0</ele><time>2026-04-11T10:32:16.146Z</time></trkpt><trkpt lat="43.3431769" lon="11.4020601"><ele>292.0</ele><time>2026-04-11T10:32:17.147Z</time></trkpt><trkpt lat="43.3431268" lon="11.4021832"><ele>292.0</ele><time>2026-04-11T10:32:18.147Z</time></trkpt><trkpt lat="43.3430893" lon="11.4023208"><ele>292.0</ele><time>2026-04-11T10:32:19.146Z</time></trkpt><trkpt lat="43.3430728" lon="11.4024853"><ele>292.0</ele><time>2026-04-11T10:32:20.147Z</time></trkpt><trkpt lat="43.343068" lon="11.402653"><ele>291.4</ele><time>2026-04-11T10:32:21.146Z</time></trkpt><trkpt lat="43.3430679" lon="11.4028166"><ele>290.79999999999995</ele><time>2026-04-11T10:32:22.146Z</time></trkpt><trkpt lat="43.3430581" lon="11.4029747"><ele>290.2</ele><time>2026-04-11T10:32:23.146Z</time></trkpt><trkpt lat="43.3430299" lon="11.403118"><ele>289.59999999999997</ele><time>2026-04-11T10:32:24.146Z</time></trkpt><trkpt lat="43.3429778" lon="11.4032393"><ele>289.0</ele><time>2026-04-11T10:32:25.147Z</time></trkpt><trkpt lat="43.342903" lon="11.4033253"><ele>289.0</ele><time>2026-04-11T10:32:26.146Z</time></trkpt><trkpt lat="43.3428155" lon="11.4033679"><ele>289.0</ele><time>2026-04-11T10:32:27.147Z</time></trkpt><trkpt lat="43.3427085" lon="11.4033777"><ele>289.0</ele><time>2026-04-11T10:32:28.147Z</time></trkpt><trkpt lat="43.3425731" lon="11.4033811"><ele>289.0</ele><time>2026-04-11T10:32:29.147Z</time></trkpt><trkpt lat="43.3424447" lon="11.4033915"><ele>289.0</ele><time>2026-04-11T10:32:30.147Z</time></trkpt><trkpt lat="43.3423341" lon="11.4034379"><ele>289.0</ele><time>2026-04-11T10:32:31.146Z</time></trkpt><trkpt lat="43.3422358" lon="11.4035214"><ele>289.0</ele><time>2026-04-11T10:32:32.146Z</time></trkpt><trkpt lat="43.3421239" lon="11.4036453"><ele>289.0</ele><time>2026-04-11T10:32:33.147Z</time></trkpt><trkpt lat="43.3420045" lon="11.4037873"><ele>287.75</ele><time>2026-04-11T10:32:34.147Z</time></trkpt><trkpt lat="43.3418904" lon="11.4039312"><ele>286.5</ele><time>2026-04-11T10:32:35.146Z</time></trkpt><trkpt lat="43.3417947" lon="11.4040535"><ele>285.25</ele><time>2026-04-11T10:32:36.147Z</time></trkpt><trkpt lat="43.3417012" lon="11.4041692"><ele>284.0</ele><time>2026-04-11T10:32:37.147Z</time></trkpt><trkpt lat="43.3416036" lon="11.4042848"><ele>284.0</ele><time>2026-04-11T10:32:38.146Z</time></trkpt><trkpt lat="43.341508" lon="11.404392"><ele>284.0</ele><time>2026-04-11T10:32:39.146Z</time></trkpt><trkpt lat="43.3414166" lon="11.4044964"><ele>284.0</ele><time>2026-04-11T10:32:40.146Z</time></trkpt><trkpt lat="43.3413369" lon="11.4045997"><ele>284.0</ele><time>2026-04-11T10:32:41.147Z</time></trkpt><trkpt lat="43.3412669" lon="11.4047077"><ele>285.2</ele><time>2026-04-11T10:32:42.146Z</time></trkpt><trkpt lat="43.3412028" lon="11.4048259"><ele>286.4</ele><time>2026-04-11T10:32:43.146Z</time></trkpt><trkpt lat="43.3411369" lon="11.4049478"><ele>287.6</ele><time>2026-04-11T10:32:44.147Z</time></trkpt><trkpt lat="43.3410652" lon="11.4050652"><ele>288.8</ele><time>2026-04-11T10:32:45.146Z</time></trkpt><trkpt lat="43.3409876" lon="11.4051763"><ele>290.0</ele><time>2026-04-11T10:32:46.147Z</time></trkpt><trkpt lat="43.3409047" lon="11.4052791"><ele>290.0</ele><time>2026-04-11T10:32:47.147Z</time></trkpt><trkpt lat="43.3408108" lon="11.4053687"><ele>290.0</ele><time>2026-04-11T10:32:48.147Z</time></trkpt><trkpt lat="43.3407069" lon="11.4054423"><ele>290.0</ele><time>2026-04-11T10:32:49.147Z</time></trkpt><trkpt lat="43.3405885" lon="11.405513"><ele>290.0</ele><time>2026-04-11T10:32:50.147Z</time></trkpt><trkpt lat="43.3404709" lon="11.4055799"><ele>290.0</ele><time>2026-04-11T10:32:51.147Z</time></trkpt><trkpt lat="43.340347" lon="11.4056493"><ele>290.0</ele><time>2026-04-11T10:32:52.148Z</time></trkpt><trkpt lat="43.3402145" lon="11.4057216"><ele>290.0</ele><time>2026-04-11T10:32:53.147Z</time></trkpt><trkpt lat="43.3400848" lon="11.4057956"><ele>290.0</ele><time>2026-04-11T10:32:54.147Z</time></trkpt><trkpt lat="43.3399689" lon="11.4058666"><ele>290.0</ele><time>2026-04-11T10:32:55.147Z</time></trkpt><trkpt lat="43.3398702" lon="11.4059277"><ele>290.0</ele><time>2026-04-11T10:32:56.148Z</time></trkpt><trkpt lat="43.339783" lon="11.4059814"><ele>290.0</ele><time>2026-04-11T10:32:57.147Z</time></trkpt><trkpt lat="43.3397032" lon="11.4060385"><ele>290.0</ele><time>2026-04-11T10:32:58.147Z</time></trkpt><trkpt lat="43.3396445" lon="11.4060911"><ele>290.0</ele><time>2026-04-11T10:32:59.147Z</time></trkpt><trkpt lat="43.3395937" lon="11.406151"><ele>290.0</ele><time>2026-04-11T10:33:00.147Z</time></trkpt><trkpt lat="43.3395519" lon="11.4062284"><ele>289.4</ele><time>2026-04-11T10:33:01.147Z</time></trkpt><trkpt lat="43.3395182" lon="11.4063279"><ele>288.8</ele><time>2026-04-11T10:33:02.147Z</time></trkpt><trkpt lat="43.339484" lon="11.4064396"><ele>288.2</ele><time>2026-04-11T10:33:03.148Z</time></trkpt><trkpt lat="43.3394391" lon="11.4065541"><ele>287.6</ele><time>2026-04-11T10:33:04.147Z</time></trkpt><trkpt lat="43.3393808" lon="11.4066661"><ele>287.0</ele><time>2026-04-11T10:33:05.148Z</time></trkpt><trkpt lat="43.3393018" lon="11.4067804"><ele>287.0</ele><time>2026-04-11T10:33:06.148Z</time></trkpt><trkpt lat="43.3392012" lon="11.4068974"><ele>287.0</ele><time>2026-04-11T10:33:07.148Z</time></trkpt><trkpt lat="43.3390899" lon="11.4070185"><ele>287.0</ele><time>2026-04-11T10:33:08.147Z</time></trkpt><trkpt lat="43.3389739" lon="11.4071511"><ele>287.0</ele><time>2026-04-11T10:33:09.147Z</time></trkpt><trkpt lat="43.3388586" lon="11.4072916"><ele>287.5</ele><time>2026-04-11T10:33:10.147Z</time></trkpt><trkpt lat="43.3387458" lon="11.4074279"><ele>288.0</ele><time>2026-04-11T10:33:11.147Z</time></trkpt><trkpt lat="43.3386328" lon="11.4075545"><ele>288.5</ele><time>2026-04-11T10:33:12.147Z</time></trkpt><trkpt lat="43.3385275" lon="11.4076536"><ele>289.0</ele><time>2026-04-11T10:33:13.148Z</time></trkpt><trkpt lat="43.3384273" lon="11.4077328"><ele>289.0</ele><time>2026-04-11T10:33:14.148Z</time></trkpt><trkpt lat="43.3383371" lon="11.4077909"><ele>289.0</ele><time>2026-04-11T10:33:15.148Z</time></trkpt><trkpt lat="43.3382582" lon="11.407833"><ele>289.0</ele><time>2026-04-11T10:33:16.147Z</time></trkpt><trkpt lat="43.3381779" lon="11.4078627"><ele>289.0</ele><time>2026-04-11T10:33:17.147Z</time></trkpt><trkpt lat="43.3380954" lon="11.4078702"><ele>289.0</ele><time>2026-04-11T10:33:18.148Z</time></trkpt><trkpt lat="43.3380252" lon="11.4078316"><ele>289.0</ele><time>2026-04-11T10:33:19.148Z</time></trkpt><trkpt lat="43.3379523" lon="11.4077689"><ele>289.5</ele><time>2026-04-11T10:33:20.148Z</time></trkpt><trkpt lat="43.3378688" lon="11.4076749"><ele>290.0</ele><time>2026-04-11T10:33:21.147Z</time></trkpt><trkpt lat="43.3377668" lon="11.4075596"><ele>290.5</ele><time>2026-04-11T10:33:22.148Z</time></trkpt><trkpt lat="43.337643" lon="11.4074327"><ele>291.0</ele><time>2026-04-11T10:33:23.148Z</time></trkpt><trkpt lat="43.3375118" lon="11.4072946"><ele>291.0</ele><time>2026-04-11T10:33:24.148Z</time></trkpt><trkpt lat="43.3373893" lon="11.4071742"><ele>291.0</ele><time>2026-04-11T10:33:25.148Z</time></trkpt><trkpt lat="43.3372913" lon="11.4070764"><ele>291.0</ele><time>2026-04-11T10:33:26.148Z</time></trkpt><trkpt lat="43.3371934" lon="11.406996"><ele>291.0</ele><time>2026-04-11T10:33:27.147Z</time></trkpt><trkpt lat="43.3370774" lon="11.4069226"><ele>291.3333333333333</ele><time>2026-04-11T10:33:28.147Z</time></trkpt><trkpt lat="43.3369344" lon="11.4068611"><ele>291.66666666666663</ele><time>2026-04-11T10:33:29.148Z</time></trkpt><trkpt lat="43.3367884" lon="11.4068025"><ele>292.0</ele><time>2026-04-11T10:33:30.147Z</time></trkpt><trkpt lat="43.3366469" lon="11.4067417"><ele>292.0</ele><time>2026-04-11T10:33:31.147Z</time></trkpt><trkpt lat="43.3365204" lon="11.4066873"><ele>292.0</ele><time>2026-04-11T10:33:32.148Z</time></trkpt><trkpt lat="43.3364089" lon="11.4066469"><ele>292.0</ele><time>2026-04-11T10:33:33.147Z</time></trkpt><trkpt lat="43.3363075" lon="11.4066281"><ele>292.0</ele><time>2026-04-11T10:33:34.148Z</time></trkpt><trkpt lat="43.33622" lon="11.4066321"><ele>292.0</ele><time>2026-04-11T10:33:35.147Z</time></trkpt><trkpt lat="43.3361366" lon="11.4066557"><ele>293.75</ele><time>2026-04-11T10:33:36.148Z</time></trkpt><trkpt lat="43.336055" lon="11.4067028"><ele>295.5</ele><time>2026-04-11T10:33:37.147Z</time></trkpt><trkpt lat="43.3359553" lon="11.4067789"><ele>297.25</ele><time>2026-04-11T10:33:38.148Z</time></trkpt><trkpt lat="43.335845" lon="11.4068972"><ele>299.0</ele><time>2026-04-11T10:33:39.147Z</time></trkpt><trkpt lat="43.3357426" lon="11.4070305"><ele>298.5</ele><time>2026-04-11T10:33:40.148Z</time></trkpt><trkpt lat="43.3356204" lon="11.4071833"><ele>298.0</ele><time>2026-04-11T10:33:41.148Z</time></trkpt><trkpt lat="43.3355054" lon="11.4073163"><ele>297.5</ele><time>2026-04-11T10:33:42.148Z</time></trkpt><trkpt lat="43.3354066" lon="11.4074032"><ele>297.0</ele><time>2026-04-11T10:33:43.148Z</time></trkpt><trkpt lat="43.3353128" lon="11.4074525"><ele>297.0</ele><time>2026-04-11T10:33:44.147Z</time></trkpt><trkpt lat="43.3352066" lon="11.4074625"><ele>297.0</ele><time>2026-04-11T10:33:45.148Z</time></trkpt><trkpt lat="43.3350831" lon="11.4074729"><ele>297.0</ele><time>2026-04-11T10:33:46.147Z</time></trkpt><trkpt lat="43.3349429" lon="11.4074934"><ele>297.0</ele><time>2026-04-11T10:33:47.147Z</time></trkpt><trkpt lat="43.3348117" lon="11.4075163"><ele>295.6</ele><time>2026-04-11T10:33:48.147Z</time></trkpt><trkpt lat="43.3347104" lon="11.4075166"><ele>294.2</ele><time>2026-04-11T10:33:49.148Z</time></trkpt><trkpt lat="43.3346179" lon="11.4075016"><ele>292.8</ele><time>2026-04-11T10:33:50.148Z</time></trkpt><trkpt lat="43.334525" lon="11.407489"><ele>291.4</ele><time>2026-04-11T10:33:51.147Z</time></trkpt><trkpt lat="43.3344452" lon="11.4074886"><ele>290.0</ele><time>2026-04-11T10:33:52.147Z</time></trkpt><trkpt lat="43.3343384" lon="11.4074788"><ele>290.0</ele><time>2026-04-11T10:33:54.148Z</time></trkpt><trkpt lat="43.3342605" lon="11.40739"><ele>290.0</ele><time>2026-04-11T10:33:56.149Z</time></trkpt><trkpt lat="43.3342352" lon="11.4073092"><ele>290.0</ele><time>2026-04-11T10:33:57.149Z</time></trkpt><trkpt lat="43.3342253" lon="11.407195"><ele>290.0</ele><time>2026-04-11T10:33:58.148Z</time></trkpt><trkpt lat="43.3342235" lon="11.4070437"><ele>290.0</ele><time>2026-04-11T10:33:59.148Z</time></trkpt><trkpt lat="43.3342158" lon="11.40687"><ele>289.75</ele><time>2026-04-11T10:34:00.148Z</time></trkpt><trkpt lat="43.334198" lon="11.4066939"><ele>289.5</ele><time>2026-04-11T10:34:01.148Z</time></trkpt><trkpt lat="43.3341728" lon="11.4065196"><ele>289.25</ele><time>2026-04-11T10:34:02.148Z</time></trkpt><trkpt lat="43.3341469" lon="11.4063505"><ele>289.0</ele><time>2026-04-11T10:34:03.149Z</time></trkpt><trkpt lat="43.3341231" lon="11.4061996"><ele>288.4</ele><time>2026-04-11T10:34:04.149Z</time></trkpt><trkpt lat="43.3341052" lon="11.4060677"><ele>287.79999999999995</ele><time>2026-04-11T10:34:05.149Z</time></trkpt><trkpt lat="43.334092" lon="11.4059543"><ele>287.20000000000005</ele><time>2026-04-11T10:34:06.148Z</time></trkpt><trkpt lat="43.3340866" lon="11.4058468"><ele>286.6</ele><time>2026-04-11T10:34:07.148Z</time></trkpt><trkpt lat="43.3340921" lon="11.4057274"><ele>286.0</ele><time>2026-04-11T10:34:08.148Z</time></trkpt><trkpt lat="43.3341097" lon="11.4055873"><ele>285.0</ele><time>2026-04-11T10:34:09.149Z</time></trkpt><trkpt lat="43.33413" lon="11.405416"><ele>284.0</ele><time>2026-04-11T10:34:10.148Z</time></trkpt><trkpt lat="43.3341519" lon="11.4052293"><ele>283.0</ele><time>2026-04-11T10:34:11.149Z</time></trkpt><trkpt lat="43.3341675" lon="11.4050417"><ele>282.0</ele><time>2026-04-11T10:34:12.148Z</time></trkpt><trkpt lat="43.3341788" lon="11.4048821"><ele>282.0</ele><time>2026-04-11T10:34:13.149Z</time></trkpt><trkpt lat="43.3341896" lon="11.4047347"><ele>282.0</ele><time>2026-04-11T10:34:14.148Z</time></trkpt><trkpt lat="43.3342021" lon="11.4045912"><ele>282.0</ele><time>2026-04-11T10:34:15.149Z</time></trkpt><trkpt lat="43.3342177" lon="11.4044586"><ele>282.0</ele><time>2026-04-11T10:34:16.148Z</time></trkpt><trkpt lat="43.334231" lon="11.4043386"><ele>282.0</ele><time>2026-04-11T10:34:17.149Z</time></trkpt><trkpt lat="43.3342384" lon="11.4042307"><ele>282.0</ele><time>2026-04-11T10:34:18.148Z</time></trkpt><trkpt lat="43.3342359" lon="11.4041392"><ele>282.0</ele><time>2026-04-11T10:34:19.148Z</time></trkpt><trkpt lat="43.334186" lon="11.4040271"><ele>282.0</ele><time>2026-04-11T10:34:21.149Z</time></trkpt><trkpt lat="43.334078" lon="11.4040041"><ele>282.0</ele><time>2026-04-11T10:34:23.149Z</time></trkpt><trkpt lat="43.3340081" lon="11.4040332"><ele>282.0</ele><time>2026-04-11T10:34:24.149Z</time></trkpt><trkpt lat="43.3339258" lon="11.4040805"><ele>282.0</ele><time>2026-04-11T10:34:25.148Z</time></trkpt><trkpt lat="43.3338061" lon="11.4041541"><ele>281.3333333333333</ele><time>2026-04-11T10:34:26.149Z</time></trkpt><trkpt lat="43.3336579" lon="11.4042358"><ele>280.66666666666663</ele><time>2026-04-11T10:34:27.149Z</time></trkpt><trkpt lat="43.3334999" lon="11.4043128"><ele>280.0</ele><time>2026-04-11T10:34:28.149Z</time></trkpt><trkpt lat="43.3333399" lon="11.4043889"><ele>280.0</ele><time>2026-04-11T10:34:29.149Z</time></trkpt><trkpt lat="43.3331838" lon="11.4044707"><ele>280.0</ele><time>2026-04-11T10:34:30.149Z</time></trkpt><trkpt lat="43.3330348" lon="11.4045493"><ele>280.0</ele><time>2026-04-11T10:34:31.148Z</time></trkpt><trkpt lat="43.332894" lon="11.4046213"><ele>279.25</ele><time>2026-04-11T10:34:32.148Z</time></trkpt><trkpt lat="43.3327516" lon="11.4046924"><ele>278.5</ele><time>2026-04-11T10:34:33.149Z</time></trkpt><trkpt lat="43.3326116" lon="11.4047703"><ele>277.75</ele><time>2026-04-11T10:34:34.149Z</time></trkpt><trkpt lat="43.3324795" lon="11.4048458"><ele>277.0</ele><time>2026-04-11T10:34:35.149Z</time></trkpt><trkpt lat="43.3323557" lon="11.4049123"><ele>277.0</ele><time>2026-04-11T10:34:36.148Z</time></trkpt><trkpt lat="43.3322332" lon="11.4049779"><ele>277.0</ele><time>2026-04-11T10:34:37.148Z</time></trkpt><trkpt lat="43.3321117" lon="11.4050439"><ele>277.0</ele><time>2026-04-11T10:34:38.149Z</time></trkpt><trkpt lat="43.3319911" lon="11.4051103"><ele>277.0</ele><time>2026-04-11T10:34:39.149Z</time></trkpt><trkpt lat="43.3318736" lon="11.4051712"><ele>277.25</ele><time>2026-04-11T10:34:40.148Z</time></trkpt><trkpt lat="43.3317532" lon="11.4052231"><ele>277.5</ele><time>2026-04-11T10:34:41.149Z</time></trkpt><trkpt lat="43.3316116" lon="11.4052674"><ele>277.75</ele><time>2026-04-11T10:34:42.149Z</time></trkpt><trkpt lat="43.3314468" lon="11.4052953"><ele>278.0</ele><time>2026-04-11T10:34:43.149Z</time></trkpt><trkpt lat="43.3312816" lon="11.4053315"><ele>276.0</ele><time>2026-04-11T10:34:44.148Z</time></trkpt><trkpt lat="43.3311071" lon="11.4053648"><ele>274.0</ele><time>2026-04-11T10:34:45.148Z</time></trkpt><trkpt lat="43.3309545" lon="11.4054018"><ele>272.0</ele><time>2026-04-11T10:34:46.148Z</time></trkpt><trkpt lat="43.330815" lon="11.4054446"><ele>272.0</ele><time>2026-04-11T10:34:47.148Z</time></trkpt><trkpt lat="43.3306968" lon="11.4054859"><ele>272.0</ele><time>2026-04-11T10:34:48.148Z</time></trkpt><trkpt lat="43.3305882" lon="11.4055253"><ele>272.0</ele><time>2026-04-11T10:34:49.148Z</time></trkpt><trkpt lat="43.3304745" lon="11.4055666"><ele>272.0</ele><time>2026-04-11T10:34:50.149Z</time></trkpt><trkpt lat="43.3303554" lon="11.4056134"><ele>270.0</ele><time>2026-04-11T10:34:51.149Z</time></trkpt><trkpt lat="43.330232" lon="11.4056725"><ele>268.0</ele><time>2026-04-11T10:34:52.148Z</time></trkpt><trkpt lat="43.3301033" lon="11.4057394"><ele>266.0</ele><time>2026-04-11T10:34:53.148Z</time></trkpt><trkpt lat="43.329979" lon="11.405812"><ele>264.0</ele><time>2026-04-11T10:34:54.149Z</time></trkpt><trkpt lat="43.3298585" lon="11.4058908"><ele>264.0</ele><time>2026-04-11T10:34:55.149Z</time></trkpt><trkpt lat="43.3297432" lon="11.4059754"><ele>264.0</ele><time>2026-04-11T10:34:56.148Z</time></trkpt><trkpt lat="43.3296341" lon="11.4060648"><ele>264.0</ele><time>2026-04-11T10:34:57.15Z</time></trkpt><trkpt lat="43.3295329" lon="11.4061589"><ele>264.0</ele><time>2026-04-11T10:34:58.15Z</time></trkpt><trkpt lat="43.3294317" lon="11.4062654"><ele>262.5</ele><time>2026-04-11T10:34:59.149Z</time></trkpt><trkpt lat="43.3293343" lon="11.406384"><ele>261.0</ele><time>2026-04-11T10:35:00.15Z</time></trkpt><trkpt lat="43.3292366" lon="11.4065143"><ele>259.5</ele><time>2026-04-11T10:35:01.15Z</time></trkpt><trkpt lat="43.3291393" lon="11.4066463"><ele>258.0</ele><time>2026-04-11T10:35:02.149Z</time></trkpt><trkpt lat="43.3290371" lon="11.4067785"><ele>258.0</ele><time>2026-04-11T10:35:03.149Z</time></trkpt><trkpt lat="43.3289344" lon="11.4069075"><ele>258.0</ele><time>2026-04-11T10:35:04.15Z</time></trkpt><trkpt lat="43.3288311" lon="11.4070297"><ele>258.0</ele><time>2026-04-11T10:35:05.149Z</time></trkpt><trkpt lat="43.3287315" lon="11.4071438"><ele>258.0</ele><time>2026-04-11T10:35:06.149Z</time></trkpt><trkpt lat="43.3286289" lon="11.4072633"><ele>256.3333333333333</ele><time>2026-04-11T10:35:07.15Z</time></trkpt><trkpt lat="43.328521" lon="11.4073952"><ele>254.66666666666666</ele><time>2026-04-11T10:35:08.149Z</time></trkpt><trkpt lat="43.3284078" lon="11.4075358"><ele>253.0</ele><time>2026-04-11T10:35:09.15Z</time></trkpt><trkpt lat="43.3282867" lon="11.4076818"><ele>253.0</ele><time>2026-04-11T10:35:10.15Z</time></trkpt><trkpt lat="43.3281605" lon="11.40783"><ele>253.0</ele><time>2026-04-11T10:35:11.149Z</time></trkpt><trkpt lat="43.3280368" lon="11.4079769"><ele>253.0</ele><time>2026-04-11T10:35:12.15Z</time></trkpt><trkpt lat="43.3279253" lon="11.4081174"><ele>253.0</ele><time>2026-04-11T10:35:13.149Z</time></trkpt><trkpt lat="43.3278217" lon="11.408243"><ele>253.0</ele><time>2026-04-11T10:35:14.149Z</time></trkpt><trkpt lat="43.3277223" lon="11.4083603"><ele>253.0</ele><time>2026-04-11T10:35:15.15Z</time></trkpt><trkpt lat="43.3276238" lon="11.4084729"><ele>253.0</ele><time>2026-04-11T10:35:16.15Z</time></trkpt><trkpt lat="43.3275197" lon="11.4085914"><ele>253.0</ele><time>2026-04-11T10:35:17.15Z</time></trkpt><trkpt lat="43.3274084" lon="11.4087172"><ele>253.0</ele><time>2026-04-11T10:35:18.15Z</time></trkpt><trkpt lat="43.3272912" lon="11.4088501"><ele>253.0</ele><time>2026-04-11T10:35:19.149Z</time></trkpt><trkpt lat="43.3271773" lon="11.4089825"><ele>253.0</ele><time>2026-04-11T10:35:20.15Z</time></trkpt><trkpt lat="43.3270751" lon="11.4091041"><ele>251.60000000000002</ele><time>2026-04-11T10:35:21.149Z</time></trkpt><trkpt lat="43.3269864" lon="11.4092179"><ele>250.20000000000002</ele><time>2026-04-11T10:35:22.149Z</time></trkpt><trkpt lat="43.3269138" lon="11.4093335"><ele>248.8</ele><time>2026-04-11T10:35:23.149Z</time></trkpt><trkpt lat="43.3268537" lon="11.4094498"><ele>247.4</ele><time>2026-04-11T10:35:24.15Z</time></trkpt><trkpt lat="43.3267911" lon="11.4095636"><ele>246.0</ele><time>2026-04-11T10:35:25.15Z</time></trkpt><trkpt lat="43.3267243" lon="11.4096705"><ele>245.4</ele><time>2026-04-11T10:35:26.15Z</time></trkpt><trkpt lat="43.326648" lon="11.409766"><ele>244.8</ele><time>2026-04-11T10:35:27.149Z</time></trkpt><trkpt lat="43.3265661" lon="11.4098516"><ele>244.20000000000002</ele><time>2026-04-11T10:35:28.149Z</time></trkpt><trkpt lat="43.3264762" lon="11.4099403"><ele>243.60000000000002</ele><time>2026-04-11T10:35:29.15Z</time></trkpt><trkpt lat="43.3263862" lon="11.4100306"><ele>243.0</ele><time>2026-04-11T10:35:30.149Z</time></trkpt><trkpt lat="43.3263" lon="11.4101219"><ele>243.0</ele><time>2026-04-11T10:35:31.149Z</time></trkpt><trkpt lat="43.3262247" lon="11.4102106"><ele>243.0</ele><time>2026-04-11T10:35:32.15Z</time></trkpt><trkpt lat="43.3261596" lon="11.4102892"><ele>243.0</ele><time>2026-04-11T10:35:33.15Z</time></trkpt><trkpt lat="43.326102" lon="11.4103543"><ele>243.0</ele><time>2026-04-11T10:35:34.149Z</time></trkpt><trkpt lat="43.325998" lon="11.4103755"><ele>243.0</ele><time>2026-04-11T10:35:36.15Z</time></trkpt><trkpt lat="43.3259424" lon="11.4103281"><ele>243.0</ele><time>2026-04-11T10:35:37.149Z</time></trkpt><trkpt lat="43.3258798" lon="11.4102621"><ele>243.0</ele><time>2026-04-11T10:35:38.149Z</time></trkpt><trkpt lat="43.3258384" lon="11.4101136"><ele>243.0</ele><time>2026-04-11T10:35:39.15Z</time></trkpt><trkpt lat="43.3258067" lon="11.4099344"><ele>243.0</ele><time>2026-04-11T10:35:40.149Z</time></trkpt><trkpt lat="43.3257947" lon="11.4097594"><ele>243.0</ele><time>2026-04-11T10:35:41.149Z</time></trkpt><trkpt lat="43.325804" lon="11.4095986"><ele>241.0</ele><time>2026-04-11T10:35:42.149Z</time></trkpt><trkpt lat="43.3258248" lon="11.4094136"><ele>239.0</ele><time>2026-04-11T10:35:43.15Z</time></trkpt><trkpt lat="43.3258361" lon="11.4092258"><ele>237.0</ele><time>2026-04-11T10:35:44.15Z</time></trkpt><trkpt lat="43.325837" lon="11.4090325"><ele>235.0</ele><time>2026-04-11T10:35:45.15Z</time></trkpt><trkpt lat="43.3258243" lon="11.4088264"><ele>234.0</ele><time>2026-04-11T10:35:46.149Z</time></trkpt><trkpt lat="43.3258061" lon="11.4086423"><ele>233.0</ele><time>2026-04-11T10:35:47.15Z</time></trkpt><trkpt lat="43.3257805" lon="11.4084683"><ele>232.0</ele><time>2026-04-11T10:35:48.149Z</time></trkpt><trkpt lat="43.3257575" lon="11.4083075"><ele>231.0</ele><time>2026-04-11T10:35:49.149Z</time></trkpt><trkpt lat="43.3257419" lon="11.4081539"><ele>229.66666666666669</ele><time>2026-04-11T10:35:50.15Z</time></trkpt><trkpt lat="43.3257262" lon="11.4079822"><ele>228.33333333333334</ele><time>2026-04-11T10:35:51.149Z</time></trkpt><trkpt lat="43.325703" lon="11.4077674"><ele>227.0</ele><time>2026-04-11T10:35:52.149Z</time></trkpt><trkpt lat="43.3256793" lon="11.4075097"><ele>227.0</ele><time>2026-04-11T10:35:53.15Z</time></trkpt><trkpt lat="43.3256536" lon="11.4072386"><ele>227.0</ele><time>2026-04-11T10:35:54.149Z</time></trkpt><trkpt lat="43.3256202" lon="11.4069796"><ele>227.0</ele><time>2026-04-11T10:35:55.149Z</time></trkpt><trkpt lat="43.3255739" lon="11.4067453"><ele>225.66666666666669</ele><time>2026-04-11T10:35:56.15Z</time></trkpt><trkpt lat="43.325505" lon="11.406534"><ele>224.33333333333331</ele><time>2026-04-11T10:35:57.15Z</time></trkpt><trkpt lat="43.3254111" lon="11.4063341"><ele>223.0</ele><time>2026-04-11T10:35:58.15Z</time></trkpt><trkpt lat="43.3253036" lon="11.4061318"><ele>221.0</ele><time>2026-04-11T10:35:59.15Z</time></trkpt><trkpt lat="43.3252068" lon="11.4059319"><ele>219.0</ele><time>2026-04-11T10:36:00.149Z</time></trkpt><trkpt lat="43.3251315" lon="11.4057313"><ele>217.0</ele><time>2026-04-11T10:36:01.15Z</time></trkpt><trkpt lat="43.3250743" lon="11.4055308"><ele>216.33333333333331</ele><time>2026-04-11T10:36:02.15Z</time></trkpt><trkpt lat="43.3250253" lon="11.4053192"><ele>215.66666666666669</ele><time>2026-04-11T10:36:03.151Z</time></trkpt><trkpt lat="43.3249857" lon="11.4051033"><ele>215.0</ele><time>2026-04-11T10:36:04.151Z</time></trkpt><trkpt lat="43.3249546" lon="11.4048605"><ele>214.66666666666669</ele><time>2026-04-11T10:36:05.15Z</time></trkpt><trkpt lat="43.3249382" lon="11.4045954"><ele>214.33333333333331</ele><time>2026-04-11T10:36:06.15Z</time></trkpt><trkpt lat="43.3249324" lon="11.4043539"><ele>214.0</ele><time>2026-04-11T10:36:07.15Z</time></trkpt><trkpt lat="43.324928" lon="11.4041414"><ele>214.0</ele><time>2026-04-11T10:36:08.151Z</time></trkpt><trkpt lat="43.3249291" lon="11.4039636"><ele>214.0</ele><time>2026-04-11T10:36:09.151Z</time></trkpt><trkpt lat="43.3249329" lon="11.4037743"><ele>214.0</ele><time>2026-04-11T10:36:10.151Z</time></trkpt><trkpt lat="43.3249478" lon="11.4035575"><ele>214.0</ele><time>2026-04-11T10:36:11.15Z</time></trkpt><trkpt lat="43.3249754" lon="11.4033024"><ele>213.33333333333331</ele><time>2026-04-11T10:36:12.15Z</time></trkpt><trkpt lat="43.3250083" lon="11.4030229"><ele>212.66666666666669</ele><time>2026-04-11T10:36:13.151Z</time></trkpt><trkpt lat="43.3250446" lon="11.4027283"><ele>212.0</ele><time>2026-04-11T10:36:14.151Z</time></trkpt><trkpt lat="43.3250741" lon="11.4024556"><ele>213.33333333333334</ele><time>2026-04-11T10:36:15.151Z</time></trkpt><trkpt lat="43.3250965" lon="11.4021924"><ele>214.66666666666669</ele><time>2026-04-11T10:36:16.151Z</time></trkpt><trkpt lat="43.3251131" lon="11.4019429"><ele>216.0</ele><time>2026-04-11T10:36:17.151Z</time></trkpt><trkpt lat="43.3251225" lon="11.401708"><ele>218.5</ele><time>2026-04-11T10:36:18.15Z</time></trkpt><trkpt lat="43.3251266" lon="11.4014961"><ele>221.0</ele><time>2026-04-11T10:36:19.15Z</time></trkpt><trkpt lat="43.3251134" lon="11.4013326"><ele>223.5</ele><time>2026-04-11T10:36:20.151Z</time></trkpt><trkpt lat="43.3250989" lon="11.4011629"><ele>226.0</ele><time>2026-04-11T10:36:21.15Z</time></trkpt><trkpt lat="43.3250839" lon="11.4010134"><ele>227.0</ele><time>2026-04-11T10:36:22.151Z</time></trkpt><trkpt lat="43.3250866" lon="11.4008752"><ele>228.00000000000003</ele><time>2026-04-11T10:36:23.15Z</time></trkpt><trkpt lat="43.3250944" lon="11.4007421"><ele>229.00000000000003</ele><time>2026-04-11T10:36:24.151Z</time></trkpt><trkpt lat="43.3251154" lon="11.4006013"><ele>230.0</ele><time>2026-04-11T10:36:25.15Z</time></trkpt><trkpt lat="43.3251449" lon="11.4004399"><ele>231.0</ele><time>2026-04-11T10:36:26.151Z</time></trkpt><trkpt lat="43.3251668" lon="11.4002496"><ele>232.66666666666669</ele><time>2026-04-11T10:36:27.151Z</time></trkpt><trkpt lat="43.3251731" lon="11.4000522"><ele>234.33333333333334</ele><time>2026-04-11T10:36:28.151Z</time></trkpt><trkpt lat="43.3251705" lon="11.3998362"><ele>236.0</ele><time>2026-04-11T10:36:29.151Z</time></trkpt><trkpt lat="43.3251558" lon="11.3996159"><ele>237.66666666666669</ele><time>2026-04-11T10:36:30.151Z</time></trkpt><trkpt lat="43.3251362" lon="11.3993914"><ele>239.33333333333331</ele><time>2026-04-11T10:36:31.15Z</time></trkpt><trkpt lat="43.3251163" lon="11.3991727"><ele>241.0</ele><time>2026-04-11T10:36:32.15Z</time></trkpt><trkpt lat="43.3250979" lon="11.3989563"><ele>242.5</ele><time>2026-04-11T10:36:33.15Z</time></trkpt><trkpt lat="43.3250865" lon="11.3987521"><ele>244.0</ele><time>2026-04-11T10:36:34.15Z</time></trkpt><trkpt lat="43.3250746" lon="11.3985455"><ele>245.5</ele><time>2026-04-11T10:36:35.151Z</time></trkpt><trkpt lat="43.3250654" lon="11.3983519"><ele>247.0</ele><time>2026-04-11T10:36:36.151Z</time></trkpt><trkpt lat="43.3250587" lon="11.3981769"><ele>247.0</ele><time>2026-04-11T10:36:37.151Z</time></trkpt><trkpt lat="43.3250533" lon="11.3980178"><ele>247.0</ele><time>2026-04-11T10:36:38.15Z</time></trkpt><trkpt lat="43.3250717" lon="11.3978782"><ele>247.0</ele><time>2026-04-11T10:36:39.151Z</time></trkpt><trkpt lat="43.3251062" lon="11.3977413"><ele>247.0</ele><time>2026-04-11T10:36:40.15Z</time></trkpt><trkpt lat="43.3251624" lon="11.3975848"><ele>247.0</ele><time>2026-04-11T10:36:41.151Z</time></trkpt><trkpt lat="43.325231" lon="11.397415"><ele>247.0</ele><time>2026-04-11T10:36:42.151Z</time></trkpt><trkpt lat="43.3253038" lon="11.3972169"><ele>247.0</ele><time>2026-04-11T10:36:43.151Z</time></trkpt><trkpt lat="43.3253825" lon="11.3970008"><ele>247.0</ele><time>2026-04-11T10:36:44.151Z</time></trkpt><trkpt lat="43.3254451" lon="11.396785"><ele>247.0</ele><time>2026-04-11T10:36:45.151Z</time></trkpt><trkpt lat="43.3255169" lon="11.3965826"><ele>247.0</ele><time>2026-04-11T10:36:46.15Z</time></trkpt><trkpt lat="43.3255683" lon="11.3963888"><ele>247.75</ele><time>2026-04-11T10:36:47.151Z</time></trkpt><trkpt lat="43.3256157" lon="11.396212"><ele>248.5</ele><time>2026-04-11T10:36:48.15Z</time></trkpt><trkpt lat="43.3256481" lon="11.3960189"><ele>249.25</ele><time>2026-04-11T10:36:49.15Z</time></trkpt><trkpt lat="43.325679" lon="11.3958129"><ele>250.0</ele><time>2026-04-11T10:36:50.15Z</time></trkpt><trkpt lat="43.3256638" lon="11.3955788"><ele>250.66666666666666</ele><time>2026-04-11T10:36:51.151Z</time></trkpt><trkpt lat="43.3256711" lon="11.3953344"><ele>251.33333333333331</ele><time>2026-04-11T10:36:52.15Z</time></trkpt><trkpt lat="43.3256726" lon="11.3950897"><ele>252.0</ele><time>2026-04-11T10:36:53.15Z</time></trkpt><trkpt lat="43.3256671" lon="11.3948403"><ele>253.66666666666669</ele><time>2026-04-11T10:36:54.151Z</time></trkpt><trkpt lat="43.3256652" lon="11.3946099"><ele>255.33333333333334</ele><time>2026-04-11T10:36:55.15Z</time></trkpt><trkpt lat="43.3256289" lon="11.3943807"><ele>257.0</ele><time>2026-04-11T10:36:56.151Z</time></trkpt><trkpt lat="43.3255642" lon="11.3941439"><ele>256.33333333333337</ele><time>2026-04-11T10:36:57.151Z</time></trkpt><trkpt lat="43.325488" lon="11.3938938"><ele>255.66666666666669</ele><time>2026-04-11T10:36:58.15Z</time></trkpt><trkpt lat="43.325403" lon="11.3936277"><ele>255.0</ele><time>2026-04-11T10:36:59.151Z</time></trkpt><trkpt lat="43.3253217" lon="11.3933621"><ele>256.6666666666667</ele><time>2026-04-11T10:37:00.15Z</time></trkpt><trkpt lat="43.3252491" lon="11.3931255"><ele>258.33333333333337</ele><time>2026-04-11T10:37:01.15Z</time></trkpt><trkpt lat="43.3251765" lon="11.3929119"><ele>260.0</ele><time>2026-04-11T10:37:02.152Z</time></trkpt><trkpt lat="43.3251185" lon="11.3927375"><ele>260.8</ele><time>2026-04-11T10:37:03.151Z</time></trkpt><trkpt lat="43.3250566" lon="11.3926271"><ele>261.6</ele><time>2026-04-11T10:37:04.151Z</time></trkpt><trkpt lat="43.3249956" lon="11.3925601"><ele>262.4</ele><time>2026-04-11T10:37:05.151Z</time></trkpt><trkpt lat="43.3249049" lon="11.392558"><ele>263.2</ele><time>2026-04-11T10:37:06.151Z</time></trkpt><trkpt lat="43.3247901" lon="11.3925867"><ele>264.0</ele><time>2026-04-11T10:37:07.151Z</time></trkpt><trkpt lat="43.3246548" lon="11.3926215"><ele>264.25</ele><time>2026-04-11T10:37:08.151Z</time></trkpt><trkpt lat="43.3245162" lon="11.3926338"><ele>264.5</ele><time>2026-04-11T10:37:09.152Z</time></trkpt><trkpt lat="43.3243737" lon="11.3926084"><ele>264.75</ele><time>2026-04-11T10:37:10.152Z</time></trkpt><trkpt lat="43.3242309" lon="11.3925204"><ele>265.0</ele><time>2026-04-11T10:37:11.152Z</time></trkpt><trkpt lat="43.3240878" lon="11.3924384"><ele>265.0</ele><time>2026-04-11T10:37:12.152Z</time></trkpt><trkpt lat="43.3239511" lon="11.3923839"><ele>265.0</ele><time>2026-04-11T10:37:13.152Z</time></trkpt><trkpt lat="43.323807" lon="11.3923631"><ele>265.0</ele><time>2026-04-11T10:37:14.152Z</time></trkpt><trkpt lat="43.3236642" lon="11.3923235"><ele>265.0</ele><time>2026-04-11T10:37:15.151Z</time></trkpt><trkpt lat="43.3235216" lon="11.392287"><ele>264.75</ele><time>2026-04-11T10:37:16.152Z</time></trkpt><trkpt lat="43.3233792" lon="11.3922499"><ele>264.5</ele><time>2026-04-11T10:37:17.152Z</time></trkpt><trkpt lat="43.3232309" lon="11.3922252"><ele>264.25</ele><time>2026-04-11T10:37:18.152Z</time></trkpt><trkpt lat="43.3230847" lon="11.3921802"><ele>264.0</ele><time>2026-04-11T10:37:19.151Z</time></trkpt><trkpt lat="43.3229397" lon="11.3921522"><ele>261.6666666666667</ele><time>2026-04-11T10:37:20.152Z</time></trkpt><trkpt lat="43.3227919" lon="11.3920982"><ele>259.33333333333337</ele><time>2026-04-11T10:37:21.152Z</time></trkpt><trkpt lat="43.3226445" lon="11.3920592"><ele>257.0</ele><time>2026-04-11T10:37:22.151Z</time></trkpt><trkpt lat="43.3224943" lon="11.3920145"><ele>257.0</ele><time>2026-04-11T10:37:23.152Z</time></trkpt><trkpt lat="43.3223564" lon="11.39196"><ele>257.0</ele><time>2026-04-11T10:37:24.152Z</time></trkpt><trkpt lat="43.3222075" lon="11.3919308"><ele>257.0</ele><time>2026-04-11T10:37:25.152Z</time></trkpt><trkpt lat="43.322056" lon="11.3918907"><ele>257.0</ele><time>2026-04-11T10:37:26.151Z</time></trkpt><trkpt lat="43.3219052" lon="11.3918557"><ele>256.0</ele><time>2026-04-11T10:37:27.151Z</time></trkpt><trkpt lat="43.3217624" lon="11.3918081"><ele>255.0</ele><time>2026-04-11T10:37:28.151Z</time></trkpt><trkpt lat="43.3216185" lon="11.3917582"><ele>254.0</ele><time>2026-04-11T10:37:29.152Z</time></trkpt><trkpt lat="43.321488" lon="11.3916956"><ele>253.0</ele><time>2026-04-11T10:37:30.152Z</time></trkpt><trkpt lat="43.321358" lon="11.3916167"><ele>252.0</ele><time>2026-04-11T10:37:31.151Z</time></trkpt><trkpt lat="43.3212246" lon="11.3915282"><ele>251.0</ele><time>2026-04-11T10:37:32.152Z</time></trkpt><trkpt lat="43.3210956" lon="11.3914255"><ele>250.0</ele><time>2026-04-11T10:37:33.151Z</time></trkpt><trkpt lat="43.3209701" lon="11.3913158"><ele>249.0</ele><time>2026-04-11T10:37:34.152Z</time></trkpt><trkpt lat="43.3208412" lon="11.3912147"><ele>249.0</ele><time>2026-04-11T10:37:35.152Z</time></trkpt><trkpt lat="43.3207163" lon="11.3911255"><ele>249.0</ele><time>2026-04-11T10:37:36.152Z</time></trkpt><trkpt lat="43.3205948" lon="11.3910525"><ele>249.0</ele><time>2026-04-11T10:37:37.151Z</time></trkpt><trkpt lat="43.3204756" lon="11.3909869"><ele>249.0</ele><time>2026-04-11T10:37:38.152Z</time></trkpt><trkpt lat="43.320363" lon="11.3909423"><ele>249.0</ele><time>2026-04-11T10:37:39.152Z</time></trkpt><trkpt lat="43.3202602" lon="11.3909244"><ele>248.99999999999997</ele><time>2026-04-11T10:37:40.152Z</time></trkpt><trkpt lat="43.3201781" lon="11.3909075"><ele>248.99999999999997</ele><time>2026-04-11T10:37:41.152Z</time></trkpt><trkpt lat="43.3201005" lon="11.3908499"><ele>249.0</ele><time>2026-04-11T10:37:42.151Z</time></trkpt><trkpt lat="43.3200473" lon="11.3907509"><ele>249.0</ele><time>2026-04-11T10:37:43.151Z</time></trkpt><trkpt lat="43.3200208" lon="11.3906151"><ele>248.5</ele><time>2026-04-11T10:37:44.151Z</time></trkpt><trkpt lat="43.3200106" lon="11.3904412"><ele>248.0</ele><time>2026-04-11T10:37:45.152Z</time></trkpt><trkpt lat="43.3199973" lon="11.3902438"><ele>247.5</ele><time>2026-04-11T10:37:46.152Z</time></trkpt><trkpt lat="43.3199756" lon="11.3900386"><ele>247.0</ele><time>2026-04-11T10:37:47.151Z</time></trkpt><trkpt lat="43.3199405" lon="11.3898265"><ele>245.66666666666666</ele><time>2026-04-11T10:37:48.152Z</time></trkpt><trkpt lat="43.3198969" lon="11.3896176"><ele>244.33333333333331</ele><time>2026-04-11T10:37:49.152Z</time></trkpt><trkpt lat="43.3198452" lon="11.3894163"><ele>243.0</ele><time>2026-04-11T10:37:50.151Z</time></trkpt><trkpt lat="43.3197908" lon="11.3892224"><ele>243.0</ele><time>2026-04-11T10:37:51.152Z</time></trkpt><trkpt lat="43.3197343" lon="11.3890257"><ele>243.0</ele><time>2026-04-11T10:37:52.151Z</time></trkpt><trkpt lat="43.3196829" lon="11.3888207"><ele>243.0</ele><time>2026-04-11T10:37:53.152Z</time></trkpt><trkpt lat="43.3196393" lon="11.3886063"><ele>238.33333333333331</ele><time>2026-04-11T10:37:54.152Z</time></trkpt><trkpt lat="43.3195999" lon="11.3883905"><ele>233.66666666666666</ele><time>2026-04-11T10:37:55.152Z</time></trkpt><trkpt lat="43.3195626" lon="11.3881836"><ele>229.0</ele><time>2026-04-11T10:37:56.151Z</time></trkpt><trkpt lat="43.319527" lon="11.3879868"><ele>229.0</ele><time>2026-04-11T10:37:57.152Z</time></trkpt><trkpt lat="43.3194955" lon="11.3878037"><ele>228.99999999999997</ele><time>2026-04-11T10:37:58.152Z</time></trkpt><trkpt lat="43.3194665" lon="11.3876456"><ele>228.99999999999997</ele><time>2026-04-11T10:37:59.152Z</time></trkpt><trkpt lat="43.3194342" lon="11.3875183"><ele>229.0</ele><time>2026-04-11T10:38:00.151Z</time></trkpt><trkpt lat="43.3193754" lon="11.3874276"><ele>229.0</ele><time>2026-04-11T10:38:01.152Z</time></trkpt><trkpt lat="43.3192832" lon="11.3873587"><ele>229.0</ele><time>2026-04-11T10:38:02.152Z</time></trkpt><trkpt lat="43.3191666" lon="11.3873267"><ele>228.99999999999997</ele><time>2026-04-11T10:38:03.151Z</time></trkpt><trkpt lat="43.3190589" lon="11.3872722"><ele>228.99999999999997</ele><time>2026-04-11T10:38:04.152Z</time></trkpt><trkpt lat="43.3189974" lon="11.3871635"><ele>229.0</ele><time>2026-04-11T10:38:05.151Z</time></trkpt><trkpt lat="43.3189881" lon="11.3870077"><ele>229.0</ele><time>2026-04-11T10:38:06.151Z</time></trkpt><trkpt lat="43.3190168" lon="11.3868571"><ele>228.5</ele><time>2026-04-11T10:38:07.151Z</time></trkpt><trkpt lat="43.3190768" lon="11.3866782"><ele>228.0</ele><time>2026-04-11T10:38:08.152Z</time></trkpt><trkpt lat="43.3191538" lon="11.386542"><ele>227.5</ele><time>2026-04-11T10:38:09.151Z</time></trkpt><trkpt lat="43.3192474" lon="11.38644"><ele>227.0</ele><time>2026-04-11T10:38:10.151Z</time></trkpt><trkpt lat="43.3193639" lon="11.3863705"><ele>226.0</ele><time>2026-04-11T10:38:11.151Z</time></trkpt><trkpt lat="43.3194918" lon="11.3863048"><ele>225.0</ele><time>2026-04-11T10:38:12.152Z</time></trkpt><trkpt lat="43.3196356" lon="11.3862402"><ele>224.0</ele><time>2026-04-11T10:38:13.152Z</time></trkpt><trkpt lat="43.319775" lon="11.3861746"><ele>223.0</ele><time>2026-04-11T10:38:14.153Z</time></trkpt><trkpt lat="43.3199066" lon="11.3861115"><ele>222.75</ele><time>2026-04-11T10:38:15.153Z</time></trkpt><trkpt lat="43.3200215" lon="11.3860376"><ele>222.5</ele><time>2026-04-11T10:38:16.153Z</time></trkpt><trkpt lat="43.3201128" lon="11.3859381"><ele>222.25</ele><time>2026-04-11T10:38:17.152Z</time></trkpt><trkpt lat="43.3201771" lon="11.3858155"><ele>222.0</ele><time>2026-04-11T10:38:18.152Z</time></trkpt><trkpt lat="43.3202149" lon="11.3856675"><ele>220.75</ele><time>2026-04-11T10:38:19.152Z</time></trkpt><trkpt lat="43.3202197" lon="11.3855027"><ele>219.5</ele><time>2026-04-11T10:38:20.152Z</time></trkpt><trkpt lat="43.3201941" lon="11.3853158"><ele>218.25</ele><time>2026-04-11T10:38:21.153Z</time></trkpt><trkpt lat="43.3201743" lon="11.3851327"><ele>217.0</ele><time>2026-04-11T10:38:22.152Z</time></trkpt><trkpt lat="43.3201873" lon="11.3849638"><ele>217.0</ele><time>2026-04-11T10:38:23.152Z</time></trkpt><trkpt lat="43.3202323" lon="11.3848053"><ele>217.0</ele><time>2026-04-11T10:38:24.152Z</time></trkpt><trkpt lat="43.3202943" lon="11.3846677"><ele>217.0</ele><time>2026-04-11T10:38:25.153Z</time></trkpt><trkpt lat="43.3203785" lon="11.3845525"><ele>217.0</ele><time>2026-04-11T10:38:26.153Z</time></trkpt><trkpt lat="43.320476" lon="11.3844345"><ele>215.25</ele><time>2026-04-11T10:38:27.153Z</time></trkpt><trkpt lat="43.3205845" lon="11.3843142"><ele>213.5</ele><time>2026-04-11T10:38:28.152Z</time></trkpt><trkpt lat="43.3206937" lon="11.3842078"><ele>211.75</ele><time>2026-04-11T10:38:29.153Z</time></trkpt><trkpt lat="43.3207776" lon="11.3840951"><ele>210.0</ele><time>2026-04-11T10:38:30.152Z</time></trkpt><trkpt lat="43.3208217" lon="11.3839683"><ele>208.0</ele><time>2026-04-11T10:38:31.152Z</time></trkpt><trkpt lat="43.3208251" lon="11.3838263"><ele>206.0</ele><time>2026-04-11T10:38:32.152Z</time></trkpt><trkpt lat="43.3208023" lon="11.3836872"><ele>204.0</ele><time>2026-04-11T10:38:33.152Z</time></trkpt><trkpt lat="43.3207434" lon="11.3835305"><ele>202.0</ele><time>2026-04-11T10:38:34.153Z</time></trkpt><trkpt lat="43.3206816" lon="11.3833688"><ele>202.0</ele><time>2026-04-11T10:38:35.153Z</time></trkpt><trkpt lat="43.3206328" lon="11.3831995"><ele>202.0</ele><time>2026-04-11T10:38:36.153Z</time></trkpt><trkpt lat="43.3206017" lon="11.3830256"><ele>202.0</ele><time>2026-04-11T10:38:37.153Z</time></trkpt><trkpt lat="43.3205867" lon="11.3828582"><ele>202.0</ele><time>2026-04-11T10:38:38.153Z</time></trkpt><trkpt lat="43.3205748" lon="11.3827063"><ele>201.39999999999998</ele><time>2026-04-11T10:38:39.153Z</time></trkpt><trkpt lat="43.3205587" lon="11.3825658"><ele>200.79999999999998</ele><time>2026-04-11T10:38:40.152Z</time></trkpt><trkpt lat="43.3205369" lon="11.3824369"><ele>200.2</ele><time>2026-04-11T10:38:41.152Z</time></trkpt><trkpt lat="43.3205155" lon="11.38231"><ele>199.6</ele><time>2026-04-11T10:38:42.153Z</time></trkpt><trkpt lat="43.3204918" lon="11.3821776"><ele>199.0</ele><time>2026-04-11T10:38:43.152Z</time></trkpt><trkpt lat="43.3204711" lon="11.3820321"><ele>198.75</ele><time>2026-04-11T10:38:44.152Z</time></trkpt><trkpt lat="43.3204493" lon="11.3818688"><ele>198.5</ele><time>2026-04-11T10:38:45.153Z</time></trkpt><trkpt lat="43.3204204" lon="11.3816895"><ele>198.25</ele><time>2026-04-11T10:38:46.152Z</time></trkpt><trkpt lat="43.3203883" lon="11.3814897"><ele>198.0</ele><time>2026-04-11T10:38:47.153Z</time></trkpt><trkpt lat="43.3203523" lon="11.3812716"><ele>197.66666666666669</ele><time>2026-04-11T10:38:48.153Z</time></trkpt><trkpt lat="43.3203151" lon="11.3810354"><ele>197.33333333333334</ele><time>2026-04-11T10:38:49.152Z</time></trkpt><trkpt lat="43.3202981" lon="11.3808027"><ele>197.0</ele><time>2026-04-11T10:38:50.152Z</time></trkpt><trkpt lat="43.3203095" lon="11.3805603"><ele>197.0</ele><time>2026-04-11T10:38:51.152Z</time></trkpt><trkpt lat="43.3203531" lon="11.3803238"><ele>197.0</ele><time>2026-04-11T10:38:52.152Z</time></trkpt><trkpt lat="43.3203976" lon="11.3801099"><ele>197.0</ele><time>2026-04-11T10:38:53.153Z</time></trkpt><trkpt lat="43.3204371" lon="11.3799023"><ele>197.0</ele><time>2026-04-11T10:38:54.153Z</time></trkpt><trkpt lat="43.3204678" lon="11.3796974"><ele>197.0</ele><time>2026-04-11T10:38:55.153Z</time></trkpt><trkpt lat="43.320495" lon="11.3794941"><ele>197.0</ele><time>2026-04-11T10:38:56.152Z</time></trkpt><trkpt lat="43.3205275" lon="11.3792899"><ele>197.5</ele><time>2026-04-11T10:38:57.153Z</time></trkpt><trkpt lat="43.3205547" lon="11.3790993"><ele>198.0</ele><time>2026-04-11T10:38:58.153Z</time></trkpt><trkpt lat="43.3205786" lon="11.378909"><ele>198.5</ele><time>2026-04-11T10:38:59.153Z</time></trkpt><trkpt lat="43.3205966" lon="11.3787134"><ele>199.0</ele><time>2026-04-11T10:39:00.152Z</time></trkpt><trkpt lat="43.3206132" lon="11.3785082"><ele>201.33333333333331</ele><time>2026-04-11T10:39:01.153Z</time></trkpt><trkpt lat="43.3206148" lon="11.3782847"><ele>203.66666666666669</ele><time>2026-04-11T10:39:02.152Z</time></trkpt><trkpt lat="43.320593" lon="11.3780552"><ele>206.0</ele><time>2026-04-11T10:39:03.152Z</time></trkpt><trkpt lat="43.3205581" lon="11.3778216"><ele>208.66666666666669</ele><time>2026-04-11T10:39:04.153Z</time></trkpt><trkpt lat="43.3205218" lon="11.3775922"><ele>211.33333333333331</ele><time>2026-04-11T10:39:05.153Z</time></trkpt><trkpt lat="43.3204863" lon="11.3773611"><ele>214.0</ele><time>2026-04-11T10:39:06.153Z</time></trkpt><trkpt lat="43.3204564" lon="11.3771379"><ele>217.33333333333331</ele><time>2026-04-11T10:39:07.153Z</time></trkpt><trkpt lat="43.3204322" lon="11.3769136"><ele>220.66666666666669</ele><time>2026-04-11T10:39:08.153Z</time></trkpt><trkpt lat="43.3204179" lon="11.3766894"><ele>224.0</ele><time>2026-04-11T10:39:09.152Z</time></trkpt><trkpt lat="43.3204164" lon="11.3764727"><ele>223.25</ele><time>2026-04-11T10:39:10.153Z</time></trkpt><trkpt lat="43.3204353" lon="11.3762441"><ele>222.5</ele><time>2026-04-11T10:39:11.152Z</time></trkpt><trkpt lat="43.3204685" lon="11.3760446"><ele>221.75</ele><time>2026-04-11T10:39:12.153Z</time></trkpt><trkpt lat="43.3204951" lon="11.375871"><ele>221.0</ele><time>2026-04-11T10:39:13.153Z</time></trkpt><trkpt lat="43.320495" lon="11.3757115"><ele>221.0</ele><time>2026-04-11T10:39:14.153Z</time></trkpt><trkpt lat="43.3204827" lon="11.3755554"><ele>221.0</ele><time>2026-04-11T10:39:15.153Z</time></trkpt><trkpt lat="43.320453" lon="11.3754063"><ele>221.0</ele><time>2026-04-11T10:39:16.153Z</time></trkpt><trkpt lat="43.320379" lon="11.3752624"><ele>221.0</ele><time>2026-04-11T10:39:17.153Z</time></trkpt><trkpt lat="43.32029" lon="11.3751316"><ele>221.0</ele><time>2026-04-11T10:39:18.153Z</time></trkpt><trkpt lat="43.3202118" lon="11.375002"><ele>221.00000000000003</ele><time>2026-04-11T10:39:19.153Z</time></trkpt><trkpt lat="43.3201781" lon="11.3748592"><ele>221.00000000000003</ele><time>2026-04-11T10:39:20.154Z</time></trkpt><trkpt lat="43.3201977" lon="11.3747532"><ele>221.0</ele><time>2026-04-11T10:39:21.154Z</time></trkpt><trkpt lat="43.3202394" lon="11.3746253"><ele>221.0</ele><time>2026-04-11T10:39:22.154Z</time></trkpt><trkpt lat="43.3202873" lon="11.3744644"><ele>221.0</ele><time>2026-04-11T10:39:23.153Z</time></trkpt><trkpt lat="43.3203373" lon="11.3742678"><ele>221.0</ele><time>2026-04-11T10:39:24.154Z</time></trkpt><trkpt lat="43.3204" lon="11.3740366"><ele>221.0</ele><time>2026-04-11T10:39:25.153Z</time></trkpt><trkpt lat="43.3204762" lon="11.3738028"><ele>223.0</ele><time>2026-04-11T10:39:26.153Z</time></trkpt><trkpt lat="43.3205528" lon="11.373584"><ele>225.0</ele><time>2026-04-11T10:39:27.153Z</time></trkpt><trkpt lat="43.3206441" lon="11.3733855"><ele>227.0</ele><time>2026-04-11T10:39:28.153Z</time></trkpt><trkpt lat="43.3207357" lon="11.3732033"><ele>227.39999999999998</ele><time>2026-04-11T10:39:29.153Z</time></trkpt><trkpt lat="43.3208095" lon="11.3730731"><ele>227.79999999999998</ele><time>2026-04-11T10:39:30.153Z</time></trkpt><trkpt lat="43.3208795" lon="11.3729668"><ele>228.2</ele><time>2026-04-11T10:39:31.154Z</time></trkpt><trkpt lat="43.3209392" lon="11.3728746"><ele>228.6</ele><time>2026-04-11T10:39:32.154Z</time></trkpt><trkpt lat="43.3209949" lon="11.3727804"><ele>229.0</ele><time>2026-04-11T10:39:33.153Z</time></trkpt><trkpt lat="43.3210414" lon="11.3726762"><ele>230.79999999999998</ele><time>2026-04-11T10:39:34.154Z</time></trkpt><trkpt lat="43.3210709" lon="11.3725639"><ele>232.59999999999997</ele><time>2026-04-11T10:39:35.154Z</time></trkpt><trkpt lat="43.3210887" lon="11.3724256"><ele>234.4</ele><time>2026-04-11T10:39:36.153Z</time></trkpt><trkpt lat="43.3211086" lon="11.3722747"><ele>236.2</ele><time>2026-04-11T10:39:37.154Z</time></trkpt><trkpt lat="43.3211324" lon="11.3721137"><ele>238.0</ele><time>2026-04-11T10:39:38.154Z</time></trkpt><trkpt lat="43.3211614" lon="11.3719411"><ele>240.25</ele><time>2026-04-11T10:39:39.153Z</time></trkpt><trkpt lat="43.3211895" lon="11.3717614"><ele>242.5</ele><time>2026-04-11T10:39:40.154Z</time></trkpt><trkpt lat="43.3212097" lon="11.3715855"><ele>244.75</ele><time>2026-04-11T10:39:41.153Z</time></trkpt><trkpt lat="43.3212248" lon="11.3714089"><ele>247.0</ele><time>2026-04-11T10:39:42.154Z</time></trkpt><trkpt lat="43.3212409" lon="11.3712114"><ele>248.66666666666666</ele><time>2026-04-11T10:39:43.153Z</time></trkpt><trkpt lat="43.3212643" lon="11.3710058"><ele>250.33333333333331</ele><time>2026-04-11T10:39:44.154Z</time></trkpt><trkpt lat="43.3213088" lon="11.3708001"><ele>252.0</ele><time>2026-04-11T10:39:45.154Z</time></trkpt><trkpt lat="43.3213797" lon="11.3706022"><ele>252.0</ele><time>2026-04-11T10:39:46.153Z</time></trkpt><trkpt lat="43.3214699" lon="11.370413"><ele>252.0</ele><time>2026-04-11T10:39:47.154Z</time></trkpt><trkpt lat="43.3215692" lon="11.3702218"><ele>252.0</ele><time>2026-04-11T10:39:48.153Z</time></trkpt><trkpt lat="43.3216743" lon="11.370037"><ele>252.0</ele><time>2026-04-11T10:39:49.153Z</time></trkpt><trkpt lat="43.3217702" lon="11.3698636"><ele>252.0</ele><time>2026-04-11T10:39:50.153Z</time></trkpt><trkpt lat="43.3218524" lon="11.369704"><ele>252.0</ele><time>2026-04-11T10:39:51.153Z</time></trkpt><trkpt lat="43.3219242" lon="11.3695667"><ele>252.0</ele><time>2026-04-11T10:39:52.154Z</time></trkpt><trkpt lat="43.3219853" lon="11.3694548"><ele>253.5</ele><time>2026-04-11T10:39:53.153Z</time></trkpt><trkpt lat="43.3220367" lon="11.3693599"><ele>255.0</ele><time>2026-04-11T10:39:54.154Z</time></trkpt><trkpt lat="43.3220741" lon="11.3692825"><ele>256.5</ele><time>2026-04-11T10:39:55.153Z</time></trkpt><trkpt lat="43.3220556" lon="11.3691315"><ele>258.0</ele><time>2026-04-11T10:39:57.153Z</time></trkpt><trkpt lat="43.32201" lon="11.3690521"><ele>259.5</ele><time>2026-04-11T10:39:58.154Z</time></trkpt><trkpt lat="43.3219248" lon="11.3690575"><ele>261.0</ele><time>2026-04-11T10:39:59.154Z</time></trkpt><trkpt lat="43.3218387" lon="11.3690936"><ele>261.0</ele><time>2026-04-11T10:40:00.153Z</time></trkpt><trkpt lat="43.3217394" lon="11.3692147"><ele>261.0</ele><time>2026-04-11T10:40:01.153Z</time></trkpt><trkpt lat="43.3216308" lon="11.3693283"><ele>261.0</ele><time>2026-04-11T10:40:02.154Z</time></trkpt><trkpt lat="43.3215323" lon="11.3693937"><ele>261.0</ele><time>2026-04-11T10:40:03.154Z</time></trkpt><trkpt lat="43.3214225" lon="11.3693958"><ele>261.5</ele><time>2026-04-11T10:40:04.154Z</time></trkpt><trkpt lat="43.3213212" lon="11.3693363"><ele>262.0</ele><time>2026-04-11T10:40:05.154Z</time></trkpt><trkpt lat="43.3212316" lon="11.3692416"><ele>262.5</ele><time>2026-04-11T10:40:06.153Z</time></trkpt><trkpt lat="43.3211305" lon="11.3691079"><ele>263.0</ele><time>2026-04-11T10:40:07.153Z</time></trkpt><trkpt lat="43.3210239" lon="11.368985"><ele>263.0</ele><time>2026-04-11T10:40:08.153Z</time></trkpt><trkpt lat="43.32095" lon="11.3688895"><ele>263.0</ele><time>2026-04-11T10:40:09.154Z</time></trkpt><trkpt lat="43.320919" lon="11.3688094"><ele>263.0</ele><time>2026-04-11T10:40:10.153Z</time></trkpt><trkpt lat="43.3209155" lon="11.3687161"><ele>263.0</ele><time>2026-04-11T10:40:11.153Z</time></trkpt><trkpt lat="43.3209336" lon="11.3686124"><ele>263.0</ele><time>2026-04-11T10:40:12.154Z</time></trkpt><trkpt lat="43.3209734" lon="11.3684896"><ele>263.0</ele><time>2026-04-11T10:40:13.153Z</time></trkpt><trkpt lat="43.3210229" lon="11.3683407"><ele>263.0</ele><time>2026-04-11T10:40:14.153Z</time></trkpt><trkpt lat="43.3210637" lon="11.3681607"><ele>263.0</ele><time>2026-04-11T10:40:15.154Z</time></trkpt><trkpt lat="43.3210808" lon="11.3679678"><ele>263.0</ele><time>2026-04-11T10:40:16.153Z</time></trkpt><trkpt lat="43.321084" lon="11.3677761"><ele>263.0</ele><time>2026-04-11T10:40:17.154Z</time></trkpt><trkpt lat="43.3210845" lon="11.3675796"><ele>264.33333333333337</ele><time>2026-04-11T10:40:18.153Z</time></trkpt><trkpt lat="43.3210957" lon="11.3673766"><ele>265.6666666666667</ele><time>2026-04-11T10:40:19.154Z</time></trkpt><trkpt lat="43.3211121" lon="11.3671788"><ele>267.0</ele><time>2026-04-11T10:40:20.154Z</time></trkpt><trkpt lat="43.3211263" lon="11.3669613"><ele>268.0</ele><time>2026-04-11T10:40:21.153Z</time></trkpt><trkpt lat="43.3211319" lon="11.3667561"><ele>269.0</ele><time>2026-04-11T10:40:22.153Z</time></trkpt><trkpt lat="43.3211289" lon="11.3665734"><ele>270.0</ele><time>2026-04-11T10:40:23.153Z</time></trkpt><trkpt lat="43.3211198" lon="11.3664175"><ele>271.0</ele><time>2026-04-11T10:40:24.154Z</time></trkpt><trkpt lat="43.3211008" lon="11.3662851"><ele>271.0</ele><time>2026-04-11T10:40:25.154Z</time></trkpt><trkpt lat="43.321077" lon="11.3661698"><ele>271.0</ele><time>2026-04-11T10:40:26.154Z</time></trkpt><trkpt lat="43.3210526" lon="11.3660692"><ele>271.0</ele><time>2026-04-11T10:40:27.155Z</time></trkpt><trkpt lat="43.321034" lon="11.3659591"><ele>271.0</ele><time>2026-04-11T10:40:28.154Z</time></trkpt><trkpt lat="43.3210078" lon="11.3658368"><ele>271.0</ele><time>2026-04-11T10:40:29.154Z</time></trkpt><trkpt lat="43.3209711" lon="11.3656963"><ele>271.0</ele><time>2026-04-11T10:40:30.155Z</time></trkpt><trkpt lat="43.3209241" lon="11.3655432"><ele>271.25</ele><time>2026-04-11T10:40:31.155Z</time></trkpt><trkpt lat="43.3208623" lon="11.3653785"><ele>271.5</ele><time>2026-04-11T10:40:32.154Z</time></trkpt><trkpt lat="43.3207916" lon="11.3652028"><ele>271.75</ele><time>2026-04-11T10:40:33.155Z</time></trkpt><trkpt lat="43.3207144" lon="11.3650171"><ele>272.0</ele><time>2026-04-11T10:40:34.154Z</time></trkpt><trkpt lat="43.3206337" lon="11.3648315"><ele>272.5</ele><time>2026-04-11T10:40:35.155Z</time></trkpt><trkpt lat="43.3205518" lon="11.3646612"><ele>273.0</ele><time>2026-04-11T10:40:36.155Z</time></trkpt><trkpt lat="43.3204685" lon="11.3645044"><ele>273.5</ele><time>2026-04-11T10:40:37.154Z</time></trkpt><trkpt lat="43.3203852" lon="11.3643644"><ele>274.0</ele><time>2026-04-11T10:40:38.154Z</time></trkpt><trkpt lat="43.3203024" lon="11.364234"><ele>274.0</ele><time>2026-04-11T10:40:39.154Z</time></trkpt><trkpt lat="43.3202211" lon="11.364098"><ele>274.0</ele><time>2026-04-11T10:40:40.155Z</time></trkpt><trkpt lat="43.3201391" lon="11.3639629"><ele>274.0</ele><time>2026-04-11T10:40:41.154Z</time></trkpt><trkpt lat="43.320054" lon="11.3638296"><ele>274.0</ele><time>2026-04-11T10:40:42.155Z</time></trkpt><trkpt lat="43.3199671" lon="11.3636957"><ele>274.75</ele><time>2026-04-11T10:40:43.154Z</time></trkpt><trkpt lat="43.3198772" lon="11.3635653"><ele>275.5</ele><time>2026-04-11T10:40:44.154Z</time></trkpt><trkpt lat="43.3197878" lon="11.3634439"><ele>276.25</ele><time>2026-04-11T10:40:45.154Z</time></trkpt><trkpt lat="43.3196978" lon="11.3633346"><ele>277.0</ele><time>2026-04-11T10:40:46.154Z</time></trkpt><trkpt lat="43.3196128" lon="11.3632342"><ele>277.0</ele><time>2026-04-11T10:40:47.154Z</time></trkpt><trkpt lat="43.3195372" lon="11.3631341"><ele>277.0</ele><time>2026-04-11T10:40:48.154Z</time></trkpt><trkpt lat="43.3194669" lon="11.3630256"><ele>277.0</ele><time>2026-04-11T10:40:49.154Z</time></trkpt><trkpt lat="43.3194154" lon="11.3628984"><ele>277.0</ele><time>2026-04-11T10:40:50.154Z</time></trkpt><trkpt lat="43.3193763" lon="11.3627623"><ele>277.0</ele><time>2026-04-11T10:40:51.155Z</time></trkpt><trkpt lat="43.3193459" lon="11.3626216"><ele>275.8333333333333</ele><time>2026-04-11T10:40:52.154Z</time></trkpt><trkpt lat="43.3193067" lon="11.362488"><ele>274.66666666666663</ele><time>2026-04-11T10:40:53.154Z</time></trkpt><trkpt lat="43.319253" lon="11.3623847"><ele>273.5</ele><time>2026-04-11T10:40:54.155Z</time></trkpt><trkpt lat="43.3191941" lon="11.3622994"><ele>272.3333333333333</ele><time>2026-04-11T10:40:55.155Z</time></trkpt><trkpt lat="43.3191372" lon="11.3622188"><ele>271.1666666666667</ele><time>2026-04-11T10:40:56.155Z</time></trkpt><trkpt lat="43.3190862" lon="11.3621393"><ele>270.0</ele><time>2026-04-11T10:40:57.154Z</time></trkpt><trkpt lat="43.3190376" lon="11.3620612"><ele>269.3333333333333</ele><time>2026-04-11T10:40:58.155Z</time></trkpt><trkpt lat="43.3189881" lon="11.3619846"><ele>268.6666666666667</ele><time>2026-04-11T10:40:59.154Z</time></trkpt><trkpt lat="43.3189353" lon="11.3619027"><ele>268.0</ele><time>2026-04-11T10:41:00.154Z</time></trkpt><trkpt lat="43.3188776" lon="11.3618154"><ele>267.33333333333337</ele><time>2026-04-11T10:41:01.154Z</time></trkpt><trkpt lat="43.3188153" lon="11.3617165"><ele>266.6666666666667</ele><time>2026-04-11T10:41:02.154Z</time></trkpt><trkpt lat="43.3187476" lon="11.3615973"><ele>266.0</ele><time>2026-04-11T10:41:03.155Z</time></trkpt><trkpt lat="43.3186821" lon="11.3614473"><ele>264.0</ele><time>2026-04-11T10:41:04.155Z</time></trkpt><trkpt lat="43.3186204" lon="11.3612795"><ele>262.0</ele><time>2026-04-11T10:41:05.155Z</time></trkpt><trkpt lat="43.3185664" lon="11.3611016"><ele>260.0</ele><time>2026-04-11T10:41:06.154Z</time></trkpt><trkpt lat="43.318514" lon="11.3609246"><ele>258.0</ele><time>2026-04-11T10:41:07.155Z</time></trkpt><trkpt lat="43.31845" lon="11.3607661"><ele>258.0</ele><time>2026-04-11T10:41:08.155Z</time></trkpt><trkpt lat="43.318386" lon="11.3606281"><ele>258.0</ele><time>2026-04-11T10:41:09.154Z</time></trkpt><trkpt lat="43.3183204" lon="11.3604946"><ele>258.0</ele><time>2026-04-11T10:41:10.155Z</time></trkpt><trkpt lat="43.3182588" lon="11.3603571"><ele>258.0</ele><time>2026-04-11T10:41:11.154Z</time></trkpt><trkpt lat="43.3182002" lon="11.3602226"><ele>256.25</ele><time>2026-04-11T10:41:12.154Z</time></trkpt><trkpt lat="43.3181391" lon="11.3600867"><ele>254.5</ele><time>2026-04-11T10:41:13.155Z</time></trkpt><trkpt lat="43.3180696" lon="11.3599575"><ele>252.75</ele><time>2026-04-11T10:41:14.155Z</time></trkpt><trkpt lat="43.3179922" lon="11.3598315"><ele>251.0</ele><time>2026-04-11T10:41:15.155Z</time></trkpt><trkpt lat="43.317913" lon="11.3597009"><ele>248.5</ele><time>2026-04-11T10:41:16.154Z</time></trkpt><trkpt lat="43.3178443" lon="11.3595595"><ele>246.0</ele><time>2026-04-11T10:41:17.155Z</time></trkpt><trkpt lat="43.317792" lon="11.3594134"><ele>243.5</ele><time>2026-04-11T10:41:18.155Z</time></trkpt><trkpt lat="43.3177601" lon="11.3592609"><ele>241.0</ele><time>2026-04-11T10:41:19.155Z</time></trkpt><trkpt lat="43.3177411" lon="11.3591133"><ele>241.0</ele><time>2026-04-11T10:41:20.154Z</time></trkpt><trkpt lat="43.3177246" lon="11.3589704"><ele>241.00000000000003</ele><time>2026-04-11T10:41:21.155Z</time></trkpt><trkpt lat="43.3176965" lon="11.3588246"><ele>241.00000000000003</ele><time>2026-04-11T10:41:22.155Z</time></trkpt><trkpt lat="43.317657" lon="11.3586884"><ele>241.0</ele><time>2026-04-11T10:41:23.155Z</time></trkpt><trkpt lat="43.3175993" lon="11.3585545"><ele>241.0</ele><time>2026-04-11T10:41:24.155Z</time></trkpt><trkpt lat="43.3175155" lon="11.3584337"><ele>240.0</ele><time>2026-04-11T10:41:25.155Z</time></trkpt><trkpt lat="43.3174069" lon="11.3583382"><ele>239.0</ele><time>2026-04-11T10:41:26.155Z</time></trkpt><trkpt lat="43.3172894" lon="11.3582805"><ele>238.0</ele><time>2026-04-11T10:41:27.155Z</time></trkpt><trkpt lat="43.3171653" lon="11.358263"><ele>237.0</ele><time>2026-04-11T10:41:28.155Z</time></trkpt><trkpt lat="43.3170359" lon="11.3582733"><ele>235.25</ele><time>2026-04-11T10:41:29.155Z</time></trkpt><trkpt lat="43.3169146" lon="11.3582887"><ele>233.5</ele><time>2026-04-11T10:41:30.155Z</time></trkpt><trkpt lat="43.3168024" lon="11.3582858"><ele>231.75</ele><time>2026-04-11T10:41:31.155Z</time></trkpt><trkpt lat="43.3166993" lon="11.3582453"><ele>230.0</ele><time>2026-04-11T10:41:32.155Z</time></trkpt><trkpt lat="43.3166043" lon="11.3581647"><ele>230.0</ele><time>2026-04-11T10:41:33.156Z</time></trkpt><trkpt lat="43.3165175" lon="11.3580512"><ele>230.0</ele><time>2026-04-11T10:41:34.156Z</time></trkpt><trkpt lat="43.3164585" lon="11.3579165"><ele>230.0</ele><time>2026-04-11T10:41:35.155Z</time></trkpt><trkpt lat="43.3164013" lon="11.3577792"><ele>230.0</ele><time>2026-04-11T10:41:36.156Z</time></trkpt><trkpt lat="43.3163381" lon="11.3576564"><ele>229.25</ele><time>2026-04-11T10:41:37.156Z</time></trkpt><trkpt lat="43.3162671" lon="11.3575373"><ele>228.5</ele><time>2026-04-11T10:41:38.155Z</time></trkpt><trkpt lat="43.3161933" lon="11.357417"><ele>227.75</ele><time>2026-04-11T10:41:39.156Z</time></trkpt><trkpt lat="43.3161255" lon="11.3572921"><ele>227.0</ele><time>2026-04-11T10:41:40.155Z</time></trkpt><trkpt lat="43.3160727" lon="11.3571472"><ele>226.8</ele><time>2026-04-11T10:41:41.156Z</time></trkpt><trkpt lat="43.3160468" lon="11.3569873"><ele>226.6</ele><time>2026-04-11T10:41:42.155Z</time></trkpt><trkpt lat="43.3160387" lon="11.3568274"><ele>226.40000000000003</ele><time>2026-04-11T10:41:43.156Z</time></trkpt><trkpt lat="43.3160363" lon="11.3566836"><ele>226.20000000000002</ele><time>2026-04-11T10:41:44.156Z</time></trkpt><trkpt lat="43.3160358" lon="11.3565659"><ele>226.0</ele><time>2026-04-11T10:41:45.155Z</time></trkpt><trkpt lat="43.3160318" lon="11.3564699"><ele>226.0</ele><time>2026-04-11T10:41:46.155Z</time></trkpt><trkpt lat="43.3160348" lon="11.3563474"><ele>225.0</ele><time>2026-04-11T10:41:48.155Z</time></trkpt><trkpt lat="43.3160174" lon="11.3562524"><ele>225.0</ele><time>2026-04-11T10:41:57.155Z</time></trkpt><trkpt lat="43.3160246" lon="11.3561488"><ele>225.0</ele><time>2026-04-11T10:42:01.156Z</time></trkpt><trkpt lat="43.3161031" lon="11.3561094"><ele>225.0</ele><time>2026-04-11T10:43:09.157Z</time></trkpt></trkseg><trkseg><trkpt lat="43.3161042" lon="11.3560333"><ele>225.0</ele><time>2026-04-11T11:33:39.256Z</time></trkpt><trkpt lat="43.3161076" lon="11.3559448"><ele>225.0</ele><time>2026-04-11T11:33:41.308Z</time></trkpt><trkpt lat="43.3161961" lon="11.3559065"><ele>225.0</ele><time>2026-04-11T11:33:44.288Z</time></trkpt><trkpt lat="43.3162533" lon="11.3558616"><ele>225.0</ele><time>2026-04-11T11:34:05.214Z</time></trkpt><trkpt lat="43.3162651" lon="11.3557363"><ele>225.0</ele><time>2026-04-11T11:34:46.214Z</time></trkpt><trkpt lat="43.3163118" lon="11.3556272"><ele>225.0</ele><time>2026-04-11T11:34:48.214Z</time></trkpt><trkpt lat="43.3163655" lon="11.355554"><ele>225.33333333333334</ele><time>2026-04-11T11:34:49.214Z</time></trkpt><trkpt lat="43.316409" lon="11.3554636"><ele>225.66666666666669</ele><time>2026-04-11T11:34:50.214Z</time></trkpt><trkpt lat="43.3164041" lon="11.3553681"><ele>226.0</ele><time>2026-04-11T11:34:51.214Z</time></trkpt><trkpt lat="43.3163658" lon="11.3552934"><ele>226.33333333333334</ele><time>2026-04-11T11:34:52.215Z</time></trkpt><trkpt lat="43.3163004" lon="11.355235"><ele>226.66666666666669</ele><time>2026-04-11T11:34:53.214Z</time></trkpt><trkpt lat="43.3162142" lon="11.3552271"><ele>227.0</ele><time>2026-04-11T11:34:54.215Z</time></trkpt><trkpt lat="43.3161387" lon="11.3552578"><ele>227.0</ele><time>2026-04-11T11:34:55.215Z</time></trkpt><trkpt lat="43.3160805" lon="11.3553284"><ele>227.0</ele><time>2026-04-11T11:34:56.215Z</time></trkpt><trkpt lat="43.3160456" lon="11.355429"><ele>227.0</ele><time>2026-04-11T11:34:57.215Z</time></trkpt><trkpt lat="43.3160379" lon="11.3555701"><ele>227.0</ele><time>2026-04-11T11:34:58.215Z</time></trkpt><trkpt lat="43.3160353" lon="11.355713"><ele>227.0</ele><time>2026-04-11T11:34:59.215Z</time></trkpt><trkpt lat="43.3160169" lon="11.355849"><ele>226.66666666666669</ele><time>2026-04-11T11:35:00.214Z</time></trkpt><trkpt lat="43.3159781" lon="11.3559493"><ele>226.33333333333334</ele><time>2026-04-11T11:35:01.214Z</time></trkpt><trkpt lat="43.3159239" lon="11.3560237"><ele>226.0</ele><time>2026-04-11T11:35:02.214Z</time></trkpt><trkpt lat="43.3158595" lon="11.3560479"><ele>225.66666666666669</ele><time>2026-04-11T11:35:03.214Z</time></trkpt><trkpt lat="43.3157916" lon="11.3560238"><ele>225.33333333333334</ele><time>2026-04-11T11:35:04.214Z</time></trkpt><trkpt lat="43.3157146" lon="11.3559829"><ele>225.0</ele><time>2026-04-11T11:35:05.214Z</time></trkpt><trkpt lat="43.315613" lon="11.3559084"><ele>226.0</ele><time>2026-04-11T11:35:06.215Z</time></trkpt><trkpt lat="43.3154823" lon="11.3558404"><ele>227.0</ele><time>2026-04-11T11:35:07.214Z</time></trkpt><trkpt lat="43.3153538" lon="11.3557985"><ele>228.0</ele><time>2026-04-11T11:35:08.214Z</time></trkpt><trkpt lat="43.3152458" lon="11.3557877"><ele>229.0</ele><time>2026-04-11T11:35:09.214Z</time></trkpt><trkpt lat="43.315149" lon="11.3558096"><ele>229.0</ele><time>2026-04-11T11:35:10.215Z</time></trkpt><trkpt lat="43.315061" lon="11.3558713"><ele>228.99999999999997</ele><time>2026-04-11T11:35:11.215Z</time></trkpt><trkpt lat="43.3149765" lon="11.3559709"><ele>228.99999999999997</ele><time>2026-04-11T11:35:12.214Z</time></trkpt><trkpt lat="43.3148973" lon="11.3560701"><ele>229.0</ele><time>2026-04-11T11:35:13.214Z</time></trkpt><trkpt lat="43.3148228" lon="11.3561524"><ele>229.0</ele><time>2026-04-11T11:35:14.215Z</time></trkpt><trkpt lat="43.3147469" lon="11.356225"><ele>229.79999999999998</ele><time>2026-04-11T11:35:15.215Z</time></trkpt><trkpt lat="43.3146655" lon="11.3562965"><ele>230.59999999999997</ele><time>2026-04-11T11:35:16.215Z</time></trkpt><trkpt lat="43.3145791" lon="11.3563746"><ele>231.4</ele><time>2026-04-11T11:35:17.214Z</time></trkpt><trkpt lat="43.3145101" lon="11.3564265"><ele>232.2</ele><time>2026-04-11T11:35:18.214Z</time></trkpt><trkpt lat="43.3144177" lon="11.3563644"><ele>233.0</ele><time>2026-04-11T11:35:20.215Z</time></trkpt><trkpt lat="43.3143977" lon="11.3562627"><ele>235.5</ele><time>2026-04-11T11:35:21.214Z</time></trkpt><trkpt lat="43.314403" lon="11.3561569"><ele>238.0</ele><time>2026-04-11T11:35:22.215Z</time></trkpt><trkpt lat="43.3144325" lon="11.3560488"><ele>240.5</ele><time>2026-04-11T11:35:23.215Z</time></trkpt><trkpt lat="43.314489" lon="11.3558835"><ele>243.0</ele><time>2026-04-11T11:35:24.214Z</time></trkpt><trkpt lat="43.3145626" lon="11.3556905"><ele>246.66666666666669</ele><time>2026-04-11T11:35:25.215Z</time></trkpt><trkpt lat="43.3146208" lon="11.3554717"><ele>250.33333333333334</ele><time>2026-04-11T11:35:26.214Z</time></trkpt><trkpt lat="43.3146577" lon="11.3552544"><ele>254.0</ele><time>2026-04-11T11:35:27.215Z</time></trkpt><trkpt lat="43.3146764" lon="11.3550516"><ele>254.0</ele><time>2026-04-11T11:35:28.214Z</time></trkpt><trkpt lat="43.3146824" lon="11.3548646"><ele>253.99999999999997</ele><time>2026-04-11T11:35:29.214Z</time></trkpt><trkpt lat="43.3146708" lon="11.3546955"><ele>253.99999999999997</ele><time>2026-04-11T11:35:30.215Z</time></trkpt><trkpt lat="43.3146475" lon="11.3545598"><ele>254.0</ele><time>2026-04-11T11:35:31.215Z</time></trkpt><trkpt lat="43.3146171" lon="11.3544535"><ele>254.0</ele><time>2026-04-11T11:35:32.214Z</time></trkpt><trkpt lat="43.3145701" lon="11.3543612"><ele>255.25</ele><time>2026-04-11T11:35:33.215Z</time></trkpt><trkpt lat="43.3144955" lon="11.3542629"><ele>256.5</ele><time>2026-04-11T11:35:34.214Z</time></trkpt><trkpt lat="43.314412" lon="11.3541575"><ele>257.75</ele><time>2026-04-11T11:35:35.214Z</time></trkpt><trkpt lat="43.3143295" lon="11.3540441"><ele>259.0</ele><time>2026-04-11T11:35:36.215Z</time></trkpt><trkpt lat="43.3142575" lon="11.3539027"><ele>258.0</ele><time>2026-04-11T11:35:37.214Z</time></trkpt><trkpt lat="43.314202" lon="11.3537531"><ele>257.0</ele><time>2026-04-11T11:35:38.214Z</time></trkpt><trkpt lat="43.3141539" lon="11.3536178"><ele>256.0</ele><time>2026-04-11T11:35:39.217Z</time></trkpt><trkpt lat="43.3140847" lon="11.3535046"><ele>255.0</ele><time>2026-04-11T11:35:40.215Z</time></trkpt><trkpt lat="43.3139876" lon="11.3534014"><ele>259.6666666666667</ele><time>2026-04-11T11:35:41.215Z</time></trkpt><trkpt lat="43.3138638" lon="11.3532817"><ele>264.33333333333337</ele><time>2026-04-11T11:35:42.214Z</time></trkpt><trkpt lat="43.3137296" lon="11.3531515"><ele>269.0</ele><time>2026-04-11T11:35:43.214Z</time></trkpt><trkpt lat="43.3136178" lon="11.3530133"><ele>269.0</ele><time>2026-04-11T11:35:44.214Z</time></trkpt><trkpt lat="43.3135075" lon="11.3528712"><ele>269.0</ele><time>2026-04-11T11:35:45.214Z</time></trkpt><trkpt lat="43.3134024" lon="11.3527241"><ele>269.0</ele><time>2026-04-11T11:35:46.215Z</time></trkpt><trkpt lat="43.3133063" lon="11.3525691"><ele>269.0</ele><time>2026-04-11T11:35:47.215Z</time></trkpt><trkpt lat="43.31322" lon="11.3524132"><ele>269.0</ele><time>2026-04-11T11:35:48.214Z</time></trkpt><trkpt lat="43.3131493" lon="11.3522684"><ele>269.0</ele><time>2026-04-11T11:35:49.215Z</time></trkpt><trkpt lat="43.3130988" lon="11.35215"><ele>269.0</ele><time>2026-04-11T11:35:50.215Z</time></trkpt><trkpt lat="43.3130573" lon="11.3520523"><ele>269.0</ele><time>2026-04-11T11:35:51.214Z</time></trkpt><trkpt lat="43.3130074" lon="11.3519476"><ele>269.0</ele><time>2026-04-11T11:35:52.215Z</time></trkpt><trkpt lat="43.3129518" lon="11.3518297"><ele>270.75</ele><time>2026-04-11T11:35:53.214Z</time></trkpt><trkpt lat="43.3129001" lon="11.3516832"><ele>272.5</ele><time>2026-04-11T11:35:54.215Z</time></trkpt><trkpt lat="43.3128627" lon="11.3515185"><ele>274.25</ele><time>2026-04-11T11:35:55.215Z</time></trkpt><trkpt lat="43.312833" lon="11.3513515"><ele>276.0</ele><time>2026-04-11T11:35:56.216Z</time></trkpt><trkpt lat="43.3128019" lon="11.3512075"><ele>277.0</ele><time>2026-04-11T11:35:57.216Z</time></trkpt><trkpt lat="43.3127744" lon="11.3510803"><ele>278.0</ele><time>2026-04-11T11:35:58.215Z</time></trkpt><trkpt lat="43.3127483" lon="11.3509539"><ele>279.0</ele><time>2026-04-11T11:35:59.215Z</time></trkpt><trkpt lat="43.3127232" lon="11.3508216"><ele>280.0</ele><time>2026-04-11T11:36:00.215Z</time></trkpt><trkpt lat="43.3126916" lon="11.3506807"><ele>281.0</ele><time>2026-04-11T11:36:01.215Z</time></trkpt><trkpt lat="43.3126559" lon="11.3505433"><ele>280.6</ele><time>2026-04-11T11:36:02.216Z</time></trkpt><trkpt lat="43.3126091" lon="11.3503956"><ele>280.20000000000005</ele><time>2026-04-11T11:36:03.215Z</time></trkpt><trkpt lat="43.3125611" lon="11.350258"><ele>279.79999999999995</ele><time>2026-04-11T11:36:04.216Z</time></trkpt><trkpt lat="43.3125188" lon="11.3501306"><ele>279.4</ele><time>2026-04-11T11:36:05.216Z</time></trkpt><trkpt lat="43.3124827" lon="11.3500144"><ele>279.0</ele><time>2026-04-11T11:36:06.215Z</time></trkpt><trkpt lat="43.3124611" lon="11.349917"><ele>279.0</ele><time>2026-04-11T11:36:07.216Z</time></trkpt><trkpt lat="43.3124794" lon="11.3497648"><ele>279.0</ele><time>2026-04-11T11:36:09.216Z</time></trkpt><trkpt lat="43.3125272" lon="11.3496202"><ele>279.0</ele><time>2026-04-11T11:36:11.215Z</time></trkpt><trkpt lat="43.3125955" lon="11.349457"><ele>279.0</ele><time>2026-04-11T11:36:13.216Z</time></trkpt><trkpt lat="43.3126518" lon="11.3493378"><ele>278.1666666666667</ele><time>2026-04-11T11:36:14.216Z</time></trkpt><trkpt lat="43.3127059" lon="11.3492274"><ele>277.3333333333333</ele><time>2026-04-11T11:36:15.216Z</time></trkpt><trkpt lat="43.3127391" lon="11.3491285"><ele>276.5</ele><time>2026-04-11T11:36:16.215Z</time></trkpt><trkpt lat="43.3127618" lon="11.3490334"><ele>275.66666666666663</ele><time>2026-04-11T11:36:17.216Z</time></trkpt><trkpt lat="43.3127586" lon="11.3489269"><ele>274.8333333333333</ele><time>2026-04-11T11:36:18.216Z</time></trkpt><trkpt lat="43.3127394" lon="11.3488028"><ele>274.0</ele><time>2026-04-11T11:36:19.216Z</time></trkpt><trkpt lat="43.3127079" lon="11.3486688"><ele>273.2</ele><time>2026-04-11T11:36:20.215Z</time></trkpt><trkpt lat="43.3126717" lon="11.348534"><ele>272.4</ele><time>2026-04-11T11:36:21.216Z</time></trkpt><trkpt lat="43.3126189" lon="11.348393"><ele>271.6</ele><time>2026-04-11T11:36:22.216Z</time></trkpt><trkpt lat="43.3125567" lon="11.3482682"><ele>270.8</ele><time>2026-04-11T11:36:23.215Z</time></trkpt><trkpt lat="43.3124879" lon="11.3481621"><ele>270.0</ele><time>2026-04-11T11:36:24.215Z</time></trkpt><trkpt lat="43.312427" lon="11.348085"><ele>270.0</ele><time>2026-04-11T11:36:25.215Z</time></trkpt><trkpt lat="43.3123757" lon="11.3480316"><ele>270.0</ele><time>2026-04-11T11:36:26.216Z</time></trkpt><trkpt lat="43.3123104" lon="11.3480093"><ele>270.0</ele><time>2026-04-11T11:36:29.215Z</time></trkpt><trkpt lat="43.3122452" lon="11.3480578"><ele>270.0</ele><time>2026-04-11T11:36:31.216Z</time></trkpt><trkpt lat="43.312206" lon="11.3481427"><ele>270.0</ele><time>2026-04-11T11:36:32.216Z</time></trkpt><trkpt lat="43.3121576" lon="11.3482576"><ele>270.0</ele><time>2026-04-11T11:36:33.216Z</time></trkpt><trkpt lat="43.3120968" lon="11.3484082"><ele>268.75</ele><time>2026-04-11T11:36:34.215Z</time></trkpt><trkpt lat="43.3120378" lon="11.3485701"><ele>267.5</ele><time>2026-04-11T11:36:35.215Z</time></trkpt><trkpt lat="43.3119897" lon="11.3487651"><ele>266.25</ele><time>2026-04-11T11:36:36.216Z</time></trkpt><trkpt lat="43.311942" lon="11.348959"><ele>265.0</ele><time>2026-04-11T11:36:37.216Z</time></trkpt><trkpt lat="43.3118982" lon="11.3491466"><ele>264.25</ele><time>2026-04-11T11:36:38.216Z</time></trkpt><trkpt lat="43.3118515" lon="11.3493117"><ele>263.5</ele><time>2026-04-11T11:36:39.215Z</time></trkpt><trkpt lat="43.311802" lon="11.3494566"><ele>262.75</ele><time>2026-04-11T11:36:40.216Z</time></trkpt><trkpt lat="43.3117476" lon="11.3495822"><ele>262.0</ele><time>2026-04-11T11:36:41.216Z</time></trkpt><trkpt lat="43.3116756" lon="11.3496944"><ele>262.0</ele><time>2026-04-11T11:36:42.216Z</time></trkpt><trkpt lat="43.3115793" lon="11.3497912"><ele>262.0</ele><time>2026-04-11T11:36:43.215Z</time></trkpt><trkpt lat="43.3114651" lon="11.3498719"><ele>262.0</ele><time>2026-04-11T11:36:44.216Z</time></trkpt><trkpt lat="43.3113489" lon="11.3499359"><ele>262.0</ele><time>2026-04-11T11:36:45.216Z</time></trkpt><trkpt lat="43.3112326" lon="11.3499662"><ele>262.0</ele><time>2026-04-11T11:36:46.216Z</time></trkpt><trkpt lat="43.3111303" lon="11.349986"><ele>262.0</ele><time>2026-04-11T11:36:47.215Z</time></trkpt><trkpt lat="43.311036" lon="11.3500031"><ele>262.0</ele><time>2026-04-11T11:36:48.216Z</time></trkpt><trkpt lat="43.3109526" lon="11.3500212"><ele>262.0</ele><time>2026-04-11T11:36:49.215Z</time></trkpt><trkpt lat="43.310869" lon="11.3500356"><ele>262.0</ele><time>2026-04-11T11:36:50.216Z</time></trkpt><trkpt lat="43.3107873" lon="11.3500549"><ele>262.0</ele><time>2026-04-11T11:36:51.216Z</time></trkpt><trkpt lat="43.3106972" lon="11.3500877"><ele>262.0</ele><time>2026-04-11T11:36:52.216Z</time></trkpt><trkpt lat="43.310598" lon="11.3501324"><ele>262.0</ele><time>2026-04-11T11:36:53.216Z</time></trkpt><trkpt lat="43.310506" lon="11.3502064"><ele>262.0</ele><time>2026-04-11T11:36:54.216Z</time></trkpt><trkpt lat="43.310415" lon="11.350282"><ele>262.0</ele><time>2026-04-11T11:36:55.215Z</time></trkpt><trkpt lat="43.3103213" lon="11.3503555"><ele>262.0</ele><time>2026-04-11T11:36:56.216Z</time></trkpt><trkpt lat="43.3102341" lon="11.3504392"><ele>262.0</ele><time>2026-04-11T11:36:57.215Z</time></trkpt><trkpt lat="43.3101582" lon="11.350537"><ele>262.0</ele><time>2026-04-11T11:36:58.216Z</time></trkpt><trkpt lat="43.3100848" lon="11.3506505"><ele>262.0</ele><time>2026-04-11T11:36:59.215Z</time></trkpt><trkpt lat="43.3100143" lon="11.3507535"><ele>262.0</ele><time>2026-04-11T11:37:00.215Z</time></trkpt><trkpt lat="43.3099556" lon="11.3508456"><ele>261.8333333333333</ele><time>2026-04-11T11:37:01.217Z</time></trkpt><trkpt lat="43.3099056" lon="11.3509248"><ele>261.66666666666663</ele><time>2026-04-11T11:37:02.217Z</time></trkpt><trkpt lat="43.3098585" lon="11.3510083"><ele>261.5</ele><time>2026-04-11T11:37:03.216Z</time></trkpt><trkpt lat="43.3098056" lon="11.3511003"><ele>261.3333333333333</ele><time>2026-04-11T11:37:04.216Z</time></trkpt><trkpt lat="43.3097513" lon="11.3512034"><ele>261.1666666666667</ele><time>2026-04-11T11:37:05.217Z</time></trkpt><trkpt lat="43.3097011" lon="11.3513248"><ele>261.0</ele><time>2026-04-11T11:37:06.217Z</time></trkpt><trkpt lat="43.3096568" lon="11.3514591"><ele>262.0</ele><time>2026-04-11T11:37:07.217Z</time></trkpt><trkpt lat="43.3096154" lon="11.3516045"><ele>263.0</ele><time>2026-04-11T11:37:08.217Z</time></trkpt><trkpt lat="43.3095801" lon="11.3517491"><ele>264.0</ele><time>2026-04-11T11:37:09.216Z</time></trkpt><trkpt lat="43.3095511" lon="11.351904"><ele>265.0</ele><time>2026-04-11T11:37:10.216Z</time></trkpt><trkpt lat="43.309523" lon="11.3520737"><ele>264.75</ele><time>2026-04-11T11:37:11.216Z</time></trkpt><trkpt lat="43.3094925" lon="11.3522451"><ele>264.5</ele><time>2026-04-11T11:37:12.217Z</time></trkpt><trkpt lat="43.3094636" lon="11.352422"><ele>264.25</ele><time>2026-04-11T11:37:13.216Z</time></trkpt><trkpt lat="43.3094346" lon="11.3525966"><ele>264.0</ele><time>2026-04-11T11:37:14.217Z</time></trkpt><trkpt lat="43.3094047" lon="11.3527644"><ele>264.0</ele><time>2026-04-11T11:37:15.216Z</time></trkpt><trkpt lat="43.3093777" lon="11.3529284"><ele>264.0</ele><time>2026-04-11T11:37:16.217Z</time></trkpt><trkpt lat="43.3093525" lon="11.3530882"><ele>264.0</ele><time>2026-04-11T11:37:17.217Z</time></trkpt><trkpt lat="43.3093314" lon="11.3532346"><ele>264.0</ele><time>2026-04-11T11:37:18.217Z</time></trkpt><trkpt lat="43.309314" lon="11.3533545"><ele>264.0</ele><time>2026-04-11T11:37:19.216Z</time></trkpt><trkpt lat="43.3092943" lon="11.3534628"><ele>264.2</ele><time>2026-04-11T11:37:20.217Z</time></trkpt><trkpt lat="43.3092725" lon="11.3535666"><ele>264.4</ele><time>2026-04-11T11:37:21.217Z</time></trkpt><trkpt lat="43.3092559" lon="11.3536823"><ele>264.6</ele><time>2026-04-11T11:37:22.217Z</time></trkpt><trkpt lat="43.3092481" lon="11.3538165"><ele>264.8</ele><time>2026-04-11T11:37:23.217Z</time></trkpt><trkpt lat="43.3092462" lon="11.3539705"><ele>265.0</ele><time>2026-04-11T11:37:24.217Z</time></trkpt><trkpt lat="43.309246" lon="11.3541335"><ele>264.5</ele><time>2026-04-11T11:37:25.217Z</time></trkpt><trkpt lat="43.3092418" lon="11.3543046"><ele>264.0</ele><time>2026-04-11T11:37:26.217Z</time></trkpt><trkpt lat="43.309234" lon="11.3544675"><ele>263.5</ele><time>2026-04-11T11:37:27.217Z</time></trkpt><trkpt lat="43.3092284" lon="11.354619"><ele>263.0</ele><time>2026-04-11T11:37:28.217Z</time></trkpt><trkpt lat="43.309229" lon="11.3547568"><ele>263.0</ele><time>2026-04-11T11:37:29.217Z</time></trkpt><trkpt lat="43.3092372" lon="11.3548837"><ele>263.0</ele><time>2026-04-11T11:37:30.216Z</time></trkpt><trkpt lat="43.309252" lon="11.3550084"><ele>263.0</ele><time>2026-04-11T11:37:31.217Z</time></trkpt><trkpt lat="43.3092667" lon="11.3551328"><ele>263.0</ele><time>2026-04-11T11:37:32.216Z</time></trkpt><trkpt lat="43.3092874" lon="11.3552577"><ele>263.0</ele><time>2026-04-11T11:37:33.217Z</time></trkpt><trkpt lat="43.3093193" lon="11.3553917"><ele>262.5</ele><time>2026-04-11T11:37:34.216Z</time></trkpt><trkpt lat="43.3093497" lon="11.3555428"><ele>262.0</ele><time>2026-04-11T11:37:35.217Z</time></trkpt><trkpt lat="43.3093855" lon="11.3556839"><ele>261.5</ele><time>2026-04-11T11:37:36.217Z</time></trkpt><trkpt lat="43.3094233" lon="11.3558283"><ele>261.0</ele><time>2026-04-11T11:37:37.216Z</time></trkpt><trkpt lat="43.3094666" lon="11.3559821"><ele>261.0</ele><time>2026-04-11T11:37:38.217Z</time></trkpt><trkpt lat="43.309502" lon="11.356143"><ele>261.0</ele><time>2026-04-11T11:37:39.216Z</time></trkpt><trkpt lat="43.3095315" lon="11.3563022"><ele>261.0</ele><time>2026-04-11T11:37:40.216Z</time></trkpt><trkpt lat="43.3095502" lon="11.3564502"><ele>261.0</ele><time>2026-04-11T11:37:41.217Z</time></trkpt><trkpt lat="43.3095489" lon="11.3565997"><ele>259.5</ele><time>2026-04-11T11:37:42.217Z</time></trkpt><trkpt lat="43.3095207" lon="11.3567595"><ele>258.0</ele><time>2026-04-11T11:37:43.216Z</time></trkpt><trkpt lat="43.3094747" lon="11.3569303"><ele>256.5</ele><time>2026-04-11T11:37:44.217Z</time></trkpt><trkpt lat="43.3094242" lon="11.3571034"><ele>255.0</ele><time>2026-04-11T11:37:45.217Z</time></trkpt><trkpt lat="43.3093658" lon="11.3572674"><ele>254.5</ele><time>2026-04-11T11:37:46.216Z</time></trkpt><trkpt lat="43.3093004" lon="11.3574107"><ele>254.0</ele><time>2026-04-11T11:37:47.217Z</time></trkpt><trkpt lat="43.3092168" lon="11.3575222"><ele>253.5</ele><time>2026-04-11T11:37:48.217Z</time></trkpt><trkpt lat="43.3091114" lon="11.3576228"><ele>253.0</ele><time>2026-04-11T11:37:49.216Z</time></trkpt><trkpt lat="43.3089901" lon="11.3577143"><ele>251.5</ele><time>2026-04-11T11:37:50.217Z</time></trkpt><trkpt lat="43.3088627" lon="11.357818"><ele>250.0</ele><time>2026-04-11T11:37:51.217Z</time></trkpt><trkpt lat="43.3087417" lon="11.3579251"><ele>248.5</ele><time>2026-04-11T11:37:52.217Z</time></trkpt><trkpt lat="43.3086298" lon="11.3580288"><ele>247.0</ele><time>2026-04-11T11:37:53.217Z</time></trkpt><trkpt lat="43.3085203" lon="11.3581269"><ele>247.0</ele><time>2026-04-11T11:37:54.217Z</time></trkpt><trkpt lat="43.3084098" lon="11.3582233"><ele>247.0</ele><time>2026-04-11T11:37:55.217Z</time></trkpt><trkpt lat="43.3082997" lon="11.3583139"><ele>247.0</ele><time>2026-04-11T11:37:56.217Z</time></trkpt><trkpt lat="43.3081883" lon="11.3583932"><ele>247.0</ele><time>2026-04-11T11:37:57.216Z</time></trkpt><trkpt lat="43.3080753" lon="11.3584761"><ele>244.75</ele><time>2026-04-11T11:37:58.217Z</time></trkpt><trkpt lat="43.3079583" lon="11.3585756"><ele>242.5</ele><time>2026-04-11T11:37:59.217Z</time></trkpt><trkpt lat="43.3078376" lon="11.3586928"><ele>240.25</ele><time>2026-04-11T11:38:00.216Z</time></trkpt><trkpt lat="43.3077156" lon="11.3588322"><ele>238.0</ele><time>2026-04-11T11:38:01.216Z</time></trkpt><trkpt lat="43.3076011" lon="11.3589763"><ele>238.0</ele><time>2026-04-11T11:38:02.217Z</time></trkpt><trkpt lat="43.3074775" lon="11.3591305"><ele>238.0</ele><time>2026-04-11T11:38:03.216Z</time></trkpt><trkpt lat="43.3073496" lon="11.3592791"><ele>238.0</ele><time>2026-04-11T11:38:04.216Z</time></trkpt><trkpt lat="43.3072221" lon="11.359427"><ele>238.75</ele><time>2026-04-11T11:38:05.216Z</time></trkpt><trkpt lat="43.3071024" lon="11.3595687"><ele>239.5</ele><time>2026-04-11T11:38:06.217Z</time></trkpt><trkpt lat="43.3069924" lon="11.3597033"><ele>240.25</ele><time>2026-04-11T11:38:07.217Z</time></trkpt><trkpt lat="43.3068898" lon="11.3598369"><ele>241.0</ele><time>2026-04-11T11:38:08.217Z</time></trkpt><trkpt lat="43.3067903" lon="11.3599703"><ele>241.0</ele><time>2026-04-11T11:38:09.218Z</time></trkpt><trkpt lat="43.3066948" lon="11.3601027"><ele>241.0</ele><time>2026-04-11T11:38:10.218Z</time></trkpt><trkpt lat="43.3066028" lon="11.3602423"><ele>241.0</ele><time>2026-04-11T11:38:11.218Z</time></trkpt><trkpt lat="43.3065185" lon="11.360392"><ele>241.0</ele><time>2026-04-11T11:38:12.218Z</time></trkpt><trkpt lat="43.3064348" lon="11.3605406"><ele>243.75</ele><time>2026-04-11T11:38:13.217Z</time></trkpt><trkpt lat="43.3063444" lon="11.3606847"><ele>246.5</ele><time>2026-04-11T11:38:14.218Z</time></trkpt><trkpt lat="43.3062411" lon="11.3608249"><ele>249.25</ele><time>2026-04-11T11:38:15.217Z</time></trkpt><trkpt lat="43.3061414" lon="11.3609707"><ele>252.0</ele><time>2026-04-11T11:38:16.218Z</time></trkpt><trkpt lat="43.3060655" lon="11.3611235"><ele>252.0</ele><time>2026-04-11T11:38:17.217Z</time></trkpt><trkpt lat="43.306006" lon="11.3612744"><ele>252.0</ele><time>2026-04-11T11:38:18.218Z</time></trkpt><trkpt lat="43.3059523" lon="11.3614104"><ele>252.0</ele><time>2026-04-11T11:38:19.217Z</time></trkpt><trkpt lat="43.3058943" lon="11.3615271"><ele>252.0</ele><time>2026-04-11T11:38:20.218Z</time></trkpt><trkpt lat="43.30583" lon="11.3616167"><ele>252.0</ele><time>2026-04-11T11:38:21.218Z</time></trkpt><trkpt lat="43.3057531" lon="11.3616844"><ele>250.75</ele><time>2026-04-11T11:38:22.218Z</time></trkpt><trkpt lat="43.3056607" lon="11.3617327"><ele>249.5</ele><time>2026-04-11T11:38:23.217Z</time></trkpt><trkpt lat="43.30554" lon="11.3617552"><ele>248.25</ele><time>2026-04-11T11:38:24.217Z</time></trkpt><trkpt lat="43.3054071" lon="11.3617747"><ele>247.0</ele><time>2026-04-11T11:38:25.218Z</time></trkpt><trkpt lat="43.305263" lon="11.361778"><ele>247.0</ele><time>2026-04-11T11:38:26.218Z</time></trkpt><trkpt lat="43.305129" lon="11.3617874"><ele>247.0</ele><time>2026-04-11T11:38:27.218Z</time></trkpt><trkpt lat="43.305013" lon="11.3618003"><ele>247.0</ele><time>2026-04-11T11:38:28.217Z</time></trkpt><trkpt lat="43.3049129" lon="11.361818"><ele>247.0</ele><time>2026-04-11T11:38:29.218Z</time></trkpt><trkpt lat="43.3048257" lon="11.3618313"><ele>247.0</ele><time>2026-04-11T11:38:30.218Z</time></trkpt><trkpt lat="43.3047397" lon="11.3618461"><ele>245.0</ele><time>2026-04-11T11:38:31.217Z</time></trkpt><trkpt lat="43.3046359" lon="11.3618513"><ele>243.0</ele><time>2026-04-11T11:38:32.217Z</time></trkpt><trkpt lat="43.3045213" lon="11.3618566"><ele>241.0</ele><time>2026-04-11T11:38:33.218Z</time></trkpt><trkpt lat="43.3044041" lon="11.3618743"><ele>239.0</ele><time>2026-04-11T11:38:34.218Z</time></trkpt><trkpt lat="43.3042974" lon="11.3619223"><ele>237.0</ele><time>2026-04-11T11:38:35.218Z</time></trkpt><trkpt lat="43.3041913" lon="11.3620024"><ele>237.0</ele><time>2026-04-11T11:38:36.217Z</time></trkpt><trkpt lat="43.3040835" lon="11.3620903"><ele>237.0</ele><time>2026-04-11T11:38:37.217Z</time></trkpt><trkpt lat="43.3039726" lon="11.3621833"><ele>237.0</ele><time>2026-04-11T11:38:38.217Z</time></trkpt><trkpt lat="43.3038564" lon="11.3622857"><ele>237.0</ele><time>2026-04-11T11:38:39.217Z</time></trkpt><trkpt lat="43.30375" lon="11.3623824"><ele>238.8</ele><time>2026-04-11T11:38:40.218Z</time></trkpt><trkpt lat="43.3036534" lon="11.3624795"><ele>240.6</ele><time>2026-04-11T11:38:41.218Z</time></trkpt><trkpt lat="43.3035673" lon="11.3625757"><ele>242.40000000000003</ele><time>2026-04-11T11:38:42.217Z</time></trkpt><trkpt lat="43.3035005" lon="11.3626645"><ele>244.20000000000002</ele><time>2026-04-11T11:38:43.218Z</time></trkpt><trkpt lat="43.3034523" lon="11.3627493"><ele>246.0</ele><time>2026-04-11T11:38:44.217Z</time></trkpt><trkpt lat="43.3034214" lon="11.3628546"><ele>246.0</ele><time>2026-04-11T11:38:45.218Z</time></trkpt><trkpt lat="43.3034011" lon="11.3629867"><ele>246.00000000000003</ele><time>2026-04-11T11:38:46.218Z</time></trkpt><trkpt lat="43.3033847" lon="11.3631306"><ele>246.00000000000003</ele><time>2026-04-11T11:38:47.217Z</time></trkpt><trkpt lat="43.3033705" lon="11.3632751"><ele>246.0</ele><time>2026-04-11T11:38:48.217Z</time></trkpt><trkpt lat="43.3033594" lon="11.3634278"><ele>246.0</ele><time>2026-04-11T11:38:49.218Z</time></trkpt><trkpt lat="43.3033424" lon="11.3635832"><ele>246.0</ele><time>2026-04-11T11:38:50.218Z</time></trkpt><trkpt lat="43.3033116" lon="11.363726"><ele>246.0</ele><time>2026-04-11T11:38:51.217Z</time></trkpt><trkpt lat="43.3032763" lon="11.363836"><ele>246.0</ele><time>2026-04-11T11:38:52.217Z</time></trkpt><trkpt lat="43.3032339" lon="11.3639049"><ele>246.0</ele><time>2026-04-11T11:38:53.218Z</time></trkpt><trkpt lat="43.3031652" lon="11.3639731"><ele>246.0</ele><time>2026-04-11T11:38:54.218Z</time></trkpt><trkpt lat="43.303083" lon="11.3640214"><ele>246.0</ele><time>2026-04-11T11:38:55.217Z</time></trkpt><trkpt lat="43.302972" lon="11.3640452"><ele>247.4</ele><time>2026-04-11T11:38:56.218Z</time></trkpt><trkpt lat="43.3028385" lon="11.364046"><ele>248.8</ele><time>2026-04-11T11:38:57.217Z</time></trkpt><trkpt lat="43.3027235" lon="11.364028"><ele>250.20000000000002</ele><time>2026-04-11T11:38:58.217Z</time></trkpt><trkpt lat="43.3026368" lon="11.3640154"><ele>251.60000000000002</ele><time>2026-04-11T11:38:59.217Z</time></trkpt><trkpt lat="43.3025442" lon="11.364021"><ele>253.0</ele><time>2026-04-11T11:39:00.217Z</time></trkpt><trkpt lat="43.3024446" lon="11.3640403"><ele>253.0</ele><time>2026-04-11T11:39:01.218Z</time></trkpt><trkpt lat="43.3023308" lon="11.3640988"><ele>253.0</ele><time>2026-04-11T11:39:02.217Z</time></trkpt><trkpt lat="43.3022279" lon="11.3641663"><ele>253.0</ele><time>2026-04-11T11:39:03.217Z</time></trkpt><trkpt lat="43.3021241" lon="11.3642413"><ele>253.0</ele><time>2026-04-11T11:39:04.218Z</time></trkpt><trkpt lat="43.3020233" lon="11.3643235"><ele>250.5</ele><time>2026-04-11T11:39:05.218Z</time></trkpt><trkpt lat="43.3019278" lon="11.3644226"><ele>248.0</ele><time>2026-04-11T11:39:06.218Z</time></trkpt><trkpt lat="43.301855" lon="11.3645452"><ele>245.5</ele><time>2026-04-11T11:39:07.217Z</time></trkpt><trkpt lat="43.3017934" lon="11.3646975"><ele>243.0</ele><time>2026-04-11T11:39:08.218Z</time></trkpt><trkpt lat="43.3017408" lon="11.3648783"><ele>243.0</ele><time>2026-04-11T11:39:09.218Z</time></trkpt><trkpt lat="43.3016948" lon="11.3650606"><ele>243.0</ele><time>2026-04-11T11:39:10.217Z</time></trkpt><trkpt lat="43.3016474" lon="11.3652075"><ele>243.0</ele><time>2026-04-11T11:39:11.218Z</time></trkpt><trkpt lat="43.3015857" lon="11.3653285"><ele>243.0</ele><time>2026-04-11T11:39:12.218Z</time></trkpt><trkpt lat="43.3014873" lon="11.3654143"><ele>242.5</ele><time>2026-04-11T11:39:13.219Z</time></trkpt><trkpt lat="43.3013627" lon="11.3654894"><ele>242.0</ele><time>2026-04-11T11:39:14.219Z</time></trkpt><trkpt lat="43.3012293" lon="11.3655653"><ele>241.5</ele><time>2026-04-11T11:39:15.219Z</time></trkpt><trkpt lat="43.3010963" lon="11.3656421"><ele>241.0</ele><time>2026-04-11T11:39:16.218Z</time></trkpt><trkpt lat="43.3009658" lon="11.365709"><ele>241.0</ele><time>2026-04-11T11:39:17.218Z</time></trkpt><trkpt lat="43.3008478" lon="11.3657693"><ele>241.0</ele><time>2026-04-11T11:39:18.218Z</time></trkpt><trkpt lat="43.3007406" lon="11.3658154"><ele>241.0</ele><time>2026-04-11T11:39:19.218Z</time></trkpt><trkpt lat="43.3006346" lon="11.3658352"><ele>241.0</ele><time>2026-04-11T11:39:20.219Z</time></trkpt><trkpt lat="43.3005234" lon="11.3658253"><ele>241.75</ele><time>2026-04-11T11:39:21.218Z</time></trkpt><trkpt lat="43.300403" lon="11.365801"><ele>242.5</ele><time>2026-04-11T11:39:22.218Z</time></trkpt><trkpt lat="43.3002846" lon="11.3657876"><ele>243.25</ele><time>2026-04-11T11:39:23.219Z</time></trkpt><trkpt lat="43.3001755" lon="11.3657912"><ele>244.0</ele><time>2026-04-11T11:39:24.218Z</time></trkpt><trkpt lat="43.3000699" lon="11.3658098"><ele>244.0</ele><time>2026-04-11T11:39:25.219Z</time></trkpt><trkpt lat="43.2999701" lon="11.3658652"><ele>244.0</ele><time>2026-04-11T11:39:26.219Z</time></trkpt><trkpt lat="43.2998729" lon="11.3659625"><ele>244.0</ele><time>2026-04-11T11:39:27.219Z</time></trkpt><trkpt lat="43.2997773" lon="11.3660765"><ele>244.0</ele><time>2026-04-11T11:39:28.219Z</time></trkpt><trkpt lat="43.2996913" lon="11.3661845"><ele>242.25</ele><time>2026-04-11T11:39:29.218Z</time></trkpt><trkpt lat="43.2996091" lon="11.3662997"><ele>240.5</ele><time>2026-04-11T11:39:30.219Z</time></trkpt><trkpt lat="43.2995318" lon="11.3664104"><ele>238.75</ele><time>2026-04-11T11:39:31.218Z</time></trkpt><trkpt lat="43.2994513" lon="11.366523"><ele>237.0</ele><time>2026-04-11T11:39:32.219Z</time></trkpt><trkpt lat="43.2993722" lon="11.3666247"><ele>237.0</ele><time>2026-04-11T11:39:33.219Z</time></trkpt><trkpt lat="43.299294" lon="11.3667288"><ele>237.0</ele><time>2026-04-11T11:39:34.218Z</time></trkpt><trkpt lat="43.2992223" lon="11.3668243"><ele>237.0</ele><time>2026-04-11T11:39:35.218Z</time></trkpt><trkpt lat="43.2991433" lon="11.3669456"><ele>237.0</ele><time>2026-04-11T11:39:36.219Z</time></trkpt><trkpt lat="43.2990664" lon="11.3670838"><ele>237.66666666666669</ele><time>2026-04-11T11:39:37.219Z</time></trkpt><trkpt lat="43.298996" lon="11.3672418"><ele>238.33333333333334</ele><time>2026-04-11T11:39:38.218Z</time></trkpt><trkpt lat="43.2989296" lon="11.367428"><ele>239.0</ele><time>2026-04-11T11:39:39.218Z</time></trkpt><trkpt lat="43.2988547" lon="11.367643"><ele>238.0</ele><time>2026-04-11T11:39:40.219Z</time></trkpt><trkpt lat="43.298778" lon="11.3678526"><ele>237.0</ele><time>2026-04-11T11:39:41.218Z</time></trkpt><trkpt lat="43.2987066" lon="11.3680264"><ele>236.0</ele><time>2026-04-11T11:39:42.219Z</time></trkpt><trkpt lat="43.2986363" lon="11.368174"><ele>235.0</ele><time>2026-04-11T11:39:43.219Z</time></trkpt><trkpt lat="43.2985642" lon="11.3683019"><ele>235.0</ele><time>2026-04-11T11:39:44.219Z</time></trkpt><trkpt lat="43.29849" lon="11.3684056"><ele>235.0</ele><time>2026-04-11T11:39:45.218Z</time></trkpt><trkpt lat="43.2984054" lon="11.3684828"><ele>235.0</ele><time>2026-04-11T11:39:46.219Z</time></trkpt><trkpt lat="43.29831" lon="11.3685303"><ele>235.0</ele><time>2026-04-11T11:39:47.219Z</time></trkpt><trkpt lat="43.2982026" lon="11.3685558"><ele>235.0</ele><time>2026-04-11T11:39:48.219Z</time></trkpt><trkpt lat="43.2980919" lon="11.368571"><ele>235.6</ele><time>2026-04-11T11:39:49.219Z</time></trkpt><trkpt lat="43.2979896" lon="11.3685772"><ele>236.2</ele><time>2026-04-11T11:39:50.218Z</time></trkpt><trkpt lat="43.2978806" lon="11.3685619"><ele>236.8</ele><time>2026-04-11T11:39:51.218Z</time></trkpt><trkpt lat="43.2977717" lon="11.36852"><ele>237.4</ele><time>2026-04-11T11:39:52.218Z</time></trkpt><trkpt lat="43.2976575" lon="11.3684562"><ele>238.0</ele><time>2026-04-11T11:39:53.219Z</time></trkpt><trkpt lat="43.2975429" lon="11.3683903"><ele>238.0</ele><time>2026-04-11T11:39:54.218Z</time></trkpt><trkpt lat="43.2974246" lon="11.3683125"><ele>238.0</ele><time>2026-04-11T11:39:55.219Z</time></trkpt><trkpt lat="43.2973051" lon="11.3682383"><ele>238.0</ele><time>2026-04-11T11:39:56.218Z</time></trkpt><trkpt lat="43.2971844" lon="11.3681717"><ele>238.0</ele><time>2026-04-11T11:39:57.218Z</time></trkpt><trkpt lat="43.297061" lon="11.3681152"><ele>237.25</ele><time>2026-04-11T11:39:58.219Z</time></trkpt><trkpt lat="43.2969387" lon="11.3680712"><ele>236.5</ele><time>2026-04-11T11:39:59.218Z</time></trkpt><trkpt lat="43.2968174" lon="11.3680352"><ele>235.75</ele><time>2026-04-11T11:40:00.219Z</time></trkpt><trkpt lat="43.2966934" lon="11.3680087"><ele>235.0</ele><time>2026-04-11T11:40:01.218Z</time></trkpt><trkpt lat="43.2965674" lon="11.367992"><ele>234.75</ele><time>2026-04-11T11:40:02.219Z</time></trkpt><trkpt lat="43.2964372" lon="11.3679983"><ele>234.5</ele><time>2026-04-11T11:40:03.218Z</time></trkpt><trkpt lat="43.2963126" lon="11.3680158"><ele>234.25</ele><time>2026-04-11T11:40:04.218Z</time></trkpt><trkpt lat="43.296199" lon="11.3680482"><ele>234.0</ele><time>2026-04-11T11:40:05.218Z</time></trkpt><trkpt lat="43.2960878" lon="11.3680843"><ele>236.2</ele><time>2026-04-11T11:40:06.219Z</time></trkpt><trkpt lat="43.2959794" lon="11.3681319"><ele>238.39999999999998</ele><time>2026-04-11T11:40:07.219Z</time></trkpt><trkpt lat="43.2958789" lon="11.3681929"><ele>240.6</ele><time>2026-04-11T11:40:08.218Z</time></trkpt><trkpt lat="43.2957887" lon="11.3682578"><ele>242.8</ele><time>2026-04-11T11:40:09.22Z</time></trkpt><trkpt lat="43.2957054" lon="11.3683054"><ele>245.0</ele><time>2026-04-11T11:40:10.219Z</time></trkpt><trkpt lat="43.2956248" lon="11.3683294"><ele>243.6</ele><time>2026-04-11T11:40:11.218Z</time></trkpt><trkpt lat="43.2955504" lon="11.368343"><ele>242.2</ele><time>2026-04-11T11:40:12.218Z</time></trkpt><trkpt lat="43.2954645" lon="11.3683485"><ele>240.8</ele><time>2026-04-11T11:40:13.219Z</time></trkpt><trkpt lat="43.2953655" lon="11.36836"><ele>239.4</ele><time>2026-04-11T11:40:14.219Z</time></trkpt><trkpt lat="43.2952631" lon="11.3683872"><ele>238.0</ele><time>2026-04-11T11:40:15.218Z</time></trkpt><trkpt lat="43.2951646" lon="11.3684271"><ele>238.0</ele><time>2026-04-11T11:40:16.219Z</time></trkpt><trkpt lat="43.2950791" lon="11.3684881"><ele>238.0</ele><time>2026-04-11T11:40:17.219Z</time></trkpt><trkpt lat="43.2950001" lon="11.3685653"><ele>238.0</ele><time>2026-04-11T11:40:18.22Z</time></trkpt><trkpt lat="43.2949214" lon="11.3686853"><ele>238.0</ele><time>2026-04-11T11:40:19.219Z</time></trkpt><trkpt lat="43.2948481" lon="11.368832"><ele>238.0</ele><time>2026-04-11T11:40:20.219Z</time></trkpt><trkpt lat="43.2947925" lon="11.3689936"><ele>236.0</ele><time>2026-04-11T11:40:21.219Z</time></trkpt><trkpt lat="43.2947176" lon="11.3691315"><ele>234.0</ele><time>2026-04-11T11:40:22.22Z</time></trkpt><trkpt lat="43.2946111" lon="11.3692527"><ele>232.0</ele><time>2026-04-11T11:40:23.22Z</time></trkpt><trkpt lat="43.2944808" lon="11.3693516"><ele>230.0</ele><time>2026-04-11T11:40:24.22Z</time></trkpt><trkpt lat="43.2943322" lon="11.3694328"><ele>230.0</ele><time>2026-04-11T11:40:25.219Z</time></trkpt><trkpt lat="43.2941765" lon="11.3695205"><ele>230.0</ele><time>2026-04-11T11:40:26.219Z</time></trkpt><trkpt lat="43.2940223" lon="11.3696167"><ele>230.0</ele><time>2026-04-11T11:40:27.22Z</time></trkpt><trkpt lat="43.2938751" lon="11.3697137"><ele>228.33333333333334</ele><time>2026-04-11T11:40:28.22Z</time></trkpt><trkpt lat="43.2937329" lon="11.3698077"><ele>226.66666666666669</ele><time>2026-04-11T11:40:29.22Z</time></trkpt><trkpt lat="43.2935923" lon="11.3698933"><ele>225.0</ele><time>2026-04-11T11:40:30.219Z</time></trkpt><trkpt lat="43.2934525" lon="11.3699662"><ele>225.0</ele><time>2026-04-11T11:40:31.219Z</time></trkpt><trkpt lat="43.293314" lon="11.3700152"><ele>225.0</ele><time>2026-04-11T11:40:32.22Z</time></trkpt><trkpt lat="43.2931716" lon="11.3700501"><ele>225.0</ele><time>2026-04-11T11:40:33.22Z</time></trkpt><trkpt lat="43.2930234" lon="11.3700863"><ele>225.0</ele><time>2026-04-11T11:40:34.219Z</time></trkpt><trkpt lat="43.2928702" lon="11.370111"><ele>224.0</ele><time>2026-04-11T11:40:35.22Z</time></trkpt><trkpt lat="43.2927101" lon="11.3701207"><ele>223.0</ele><time>2026-04-11T11:40:36.219Z</time></trkpt><trkpt lat="43.2925458" lon="11.3701052"><ele>222.0</ele><time>2026-04-11T11:40:37.22Z</time></trkpt><trkpt lat="43.2923882" lon="11.3700782"><ele>222.25</ele><time>2026-04-11T11:40:38.22Z</time></trkpt><trkpt lat="43.2922428" lon="11.3700585"><ele>222.5</ele><time>2026-04-11T11:40:39.219Z</time></trkpt><trkpt lat="43.2921082" lon="11.3700512"><ele>222.75</ele><time>2026-04-11T11:40:40.22Z</time></trkpt><trkpt lat="43.2919778" lon="11.3700641"><ele>223.0</ele><time>2026-04-11T11:40:41.219Z</time></trkpt><trkpt lat="43.2918423" lon="11.3700877"><ele>223.0</ele><time>2026-04-11T11:40:42.22Z</time></trkpt><trkpt lat="43.2917024" lon="11.3701236"><ele>223.0</ele><time>2026-04-11T11:40:43.22Z</time></trkpt><trkpt lat="43.291564" lon="11.3701783"><ele>223.0</ele><time>2026-04-11T11:40:44.219Z</time></trkpt><trkpt lat="43.2914374" lon="11.3702475"><ele>223.0</ele><time>2026-04-11T11:40:45.219Z</time></trkpt><trkpt lat="43.2913301" lon="11.3703264"><ele>223.4</ele><time>2026-04-11T11:40:46.219Z</time></trkpt><trkpt lat="43.2912419" lon="11.3704122"><ele>223.8</ele><time>2026-04-11T11:40:47.22Z</time></trkpt><trkpt lat="43.2911572" lon="11.3704946"><ele>224.2</ele><time>2026-04-11T11:40:48.22Z</time></trkpt><trkpt lat="43.2910633" lon="11.3705638"><ele>224.6</ele><time>2026-04-11T11:40:49.22Z</time></trkpt><trkpt lat="43.2909548" lon="11.3706186"><ele>225.0</ele><time>2026-04-11T11:40:50.22Z</time></trkpt><trkpt lat="43.2908402" lon="11.370662"><ele>225.0</ele><time>2026-04-11T11:40:51.219Z</time></trkpt><trkpt lat="43.2907242" lon="11.3706938"><ele>225.0</ele><time>2026-04-11T11:40:52.22Z</time></trkpt><trkpt lat="43.2906155" lon="11.3707336"><ele>225.0</ele><time>2026-04-11T11:40:53.219Z</time></trkpt><trkpt lat="43.2905218" lon="11.3708003"><ele>225.0</ele><time>2026-04-11T11:40:54.22Z</time></trkpt><trkpt lat="43.2904343" lon="11.3708942"><ele>225.0</ele><time>2026-04-11T11:40:55.219Z</time></trkpt><trkpt lat="43.2903732" lon="11.3710255"><ele>225.0</ele><time>2026-04-11T11:40:56.219Z</time></trkpt><trkpt lat="43.2903327" lon="11.3711669"><ele>225.0</ele><time>2026-04-11T11:40:57.22Z</time></trkpt><trkpt lat="43.2902925" lon="11.3712984"><ele>225.0</ele><time>2026-04-11T11:40:58.219Z</time></trkpt><trkpt lat="43.2902305" lon="11.3714136"><ele>225.0</ele><time>2026-04-11T11:40:59.219Z</time></trkpt><trkpt lat="43.2901462" lon="11.3714949"><ele>225.0</ele><time>2026-04-11T11:41:00.219Z</time></trkpt><trkpt lat="43.2900561" lon="11.3715513"><ele>225.0</ele><time>2026-04-11T11:41:01.219Z</time></trkpt><trkpt lat="43.2899773" lon="11.3715841"><ele>225.0</ele><time>2026-04-11T11:41:02.219Z</time></trkpt><trkpt lat="43.2899047" lon="11.3717162"><ele>225.0</ele><time>2026-04-11T11:41:04.219Z</time></trkpt><trkpt lat="43.2898913" lon="11.3718336"><ele>225.0</ele><time>2026-04-11T11:41:05.219Z</time></trkpt><trkpt lat="43.2898949" lon="11.3719615"><ele>225.0</ele><time>2026-04-11T11:41:06.219Z</time></trkpt><trkpt lat="43.289892" lon="11.3720618"><ele>225.0</ele><time>2026-04-11T11:41:07.22Z</time></trkpt><trkpt lat="43.2898261" lon="11.3721778"><ele>225.0</ele><time>2026-04-11T11:41:09.219Z</time></trkpt><trkpt lat="43.2897696" lon="11.3722248"><ele>225.0</ele><time>2026-04-11T11:41:10.22Z</time></trkpt><trkpt lat="43.2896764" lon="11.3722632"><ele>225.0</ele><time>2026-04-11T11:41:11.219Z</time></trkpt><trkpt lat="43.2895735" lon="11.3723089"><ele>225.0</ele><time>2026-04-11T11:41:12.22Z</time></trkpt><trkpt lat="43.2894673" lon="11.372358"><ele>223.66666666666666</ele><time>2026-04-11T11:41:13.22Z</time></trkpt><trkpt lat="43.289369" lon="11.3724005"><ele>222.33333333333331</ele><time>2026-04-11T11:41:14.219Z</time></trkpt><trkpt lat="43.2892846" lon="11.3724367"><ele>221.0</ele><time>2026-04-11T11:41:15.219Z</time></trkpt><trkpt lat="43.2892179" lon="11.3724715"><ele>219.66666666666666</ele><time>2026-04-11T11:41:16.219Z</time></trkpt><trkpt lat="43.289162" lon="11.3725154"><ele>218.33333333333331</ele><time>2026-04-11T11:41:17.219Z</time></trkpt><trkpt lat="43.2891189" lon="11.3725802"><ele>217.0</ele><time>2026-04-11T11:41:18.22Z</time></trkpt><trkpt lat="43.2890942" lon="11.3726767"><ele>217.0</ele><time>2026-04-11T11:41:19.22Z</time></trkpt><trkpt lat="43.2890795" lon="11.3727863"><ele>217.0</ele><time>2026-04-11T11:41:20.219Z</time></trkpt><trkpt lat="43.2890879" lon="11.3729354"><ele>217.0</ele><time>2026-04-11T11:41:21.22Z</time></trkpt><trkpt lat="43.2890983" lon="11.373091"><ele>217.0</ele><time>2026-04-11T11:41:22.221Z</time></trkpt><trkpt lat="43.2891015" lon="11.3732399"><ele>217.0</ele><time>2026-04-11T11:41:23.22Z</time></trkpt><trkpt lat="43.289096" lon="11.373388"><ele>215.6</ele><time>2026-04-11T11:41:24.221Z</time></trkpt><trkpt lat="43.2890892" lon="11.3735349"><ele>214.2</ele><time>2026-04-11T11:41:25.221Z</time></trkpt><trkpt lat="43.2890853" lon="11.3736774"><ele>212.8</ele><time>2026-04-11T11:41:26.22Z</time></trkpt><trkpt lat="43.2890856" lon="11.3738149"><ele>211.4</ele><time>2026-04-11T11:41:27.22Z</time></trkpt><trkpt lat="43.2890894" lon="11.3739557"><ele>210.0</ele><time>2026-04-11T11:41:28.221Z</time></trkpt><trkpt lat="43.2890958" lon="11.3741045"><ele>208.0</ele><time>2026-04-11T11:41:29.221Z</time></trkpt><trkpt lat="43.2891045" lon="11.374265"><ele>206.0</ele><time>2026-04-11T11:41:30.221Z</time></trkpt><trkpt lat="43.289115" lon="11.3744357"><ele>204.0</ele><time>2026-04-11T11:41:31.221Z</time></trkpt><trkpt lat="43.2891242" lon="11.3746122"><ele>202.0</ele><time>2026-04-11T11:41:32.221Z</time></trkpt><trkpt lat="43.2891307" lon="11.3747945"><ele>200.0</ele><time>2026-04-11T11:41:33.22Z</time></trkpt><trkpt lat="43.2891372" lon="11.374972"><ele>198.0</ele><time>2026-04-11T11:41:34.22Z</time></trkpt><trkpt lat="43.2891425" lon="11.3751501"><ele>196.0</ele><time>2026-04-11T11:41:35.221Z</time></trkpt><trkpt lat="43.2891479" lon="11.3753277"><ele>194.0</ele><time>2026-04-11T11:41:36.221Z</time></trkpt><trkpt lat="43.289155" lon="11.3755018"><ele>192.0</ele><time>2026-04-11T11:41:37.221Z</time></trkpt><trkpt lat="43.2891623" lon="11.3756738"><ele>190.0</ele><time>2026-04-11T11:41:38.22Z</time></trkpt><trkpt lat="43.289168" lon="11.3758374"><ele>188.0</ele><time>2026-04-11T11:41:39.221Z</time></trkpt><trkpt lat="43.2891705" lon="11.3759977"><ele>186.0</ele><time>2026-04-11T11:41:40.221Z</time></trkpt><trkpt lat="43.2891703" lon="11.3761515"><ele>186.0</ele><time>2026-04-11T11:41:41.22Z</time></trkpt><trkpt lat="43.2891724" lon="11.3763058"><ele>186.0</ele><time>2026-04-11T11:41:42.221Z</time></trkpt><trkpt lat="43.289179" lon="11.3764589"><ele>186.0</ele><time>2026-04-11T11:41:43.22Z</time></trkpt><trkpt lat="43.2891888" lon="11.3766128"><ele>186.0</ele><time>2026-04-11T11:41:44.22Z</time></trkpt><trkpt lat="43.2892015" lon="11.3767707"><ele>185.75</ele><time>2026-04-11T11:41:45.221Z</time></trkpt><trkpt lat="43.2892162" lon="11.3769304"><ele>185.5</ele><time>2026-04-11T11:41:46.22Z</time></trkpt><trkpt lat="43.2892309" lon="11.3770917"><ele>185.25</ele><time>2026-04-11T11:41:47.221Z</time></trkpt><trkpt lat="43.289245" lon="11.3772507"><ele>185.0</ele><time>2026-04-11T11:41:48.22Z</time></trkpt><trkpt lat="43.2892564" lon="11.3774015"><ele>185.0</ele><time>2026-04-11T11:41:49.221Z</time></trkpt><trkpt lat="43.2892637" lon="11.3775382"><ele>185.0</ele><time>2026-04-11T11:41:50.22Z</time></trkpt><trkpt lat="43.2892665" lon="11.3776598"><ele>185.0</ele><time>2026-04-11T11:41:51.221Z</time></trkpt><trkpt lat="43.2892592" lon="11.3777631"><ele>185.0</ele><time>2026-04-11T11:41:52.22Z</time></trkpt><trkpt lat="43.2891899" lon="11.3778886"><ele>185.0</ele><time>2026-04-11T11:41:54.221Z</time></trkpt><trkpt lat="43.2891311" lon="11.377938"><ele>185.0</ele><time>2026-04-11T11:41:55.22Z</time></trkpt><trkpt lat="43.2890598" lon="11.3779633"><ele>185.0</ele><time>2026-04-11T11:41:56.221Z</time></trkpt><trkpt lat="43.2889735" lon="11.3780038"><ele>185.0</ele><time>2026-04-11T11:41:57.22Z</time></trkpt><trkpt lat="43.2888865" lon="11.3780518"><ele>185.0</ele><time>2026-04-11T11:41:58.221Z</time></trkpt><trkpt lat="43.288793" lon="11.3781069"><ele>185.0</ele><time>2026-04-11T11:41:59.22Z</time></trkpt><trkpt lat="43.2886968" lon="11.3781651"><ele>185.0</ele><time>2026-04-11T11:42:00.22Z</time></trkpt><trkpt lat="43.2886095" lon="11.3782183"><ele>187.6</ele><time>2026-04-11T11:42:01.221Z</time></trkpt><trkpt lat="43.2885255" lon="11.378273"><ele>190.2</ele><time>2026-04-11T11:42:02.221Z</time></trkpt><trkpt lat="43.2884363" lon="11.3783354"><ele>192.8</ele><time>2026-04-11T11:42:03.22Z</time></trkpt><trkpt lat="43.2883461" lon="11.3784018"><ele>195.4</ele><time>2026-04-11T11:42:04.221Z</time></trkpt><trkpt lat="43.2882609" lon="11.3784882"><ele>198.0</ele><time>2026-04-11T11:42:05.22Z</time></trkpt><trkpt lat="43.2881798" lon="11.3785966"><ele>198.0</ele><time>2026-04-11T11:42:06.22Z</time></trkpt><trkpt lat="43.2881061" lon="11.3787112"><ele>198.0</ele><time>2026-04-11T11:42:07.22Z</time></trkpt><trkpt lat="43.2880493" lon="11.3788057"><ele>198.0</ele><time>2026-04-11T11:42:08.22Z</time></trkpt><trkpt lat="43.2880116" lon="11.3788776"><ele>198.0</ele><time>2026-04-11T11:42:09.22Z</time></trkpt><trkpt lat="43.2879887" lon="11.3789998"><ele>198.0</ele><time>2026-04-11T11:42:11.221Z</time></trkpt><trkpt lat="43.2879874" lon="11.3790908"><ele>198.0</ele><time>2026-04-11T11:42:12.221Z</time></trkpt><trkpt lat="43.2880001" lon="11.3792156"><ele>198.0</ele><time>2026-04-11T11:42:13.22Z</time></trkpt><trkpt lat="43.2880105" lon="11.3793276"><ele>198.0</ele><time>2026-04-11T11:42:14.22Z</time></trkpt><trkpt lat="43.2880089" lon="11.3794307"><ele>198.0</ele><time>2026-04-11T11:42:15.221Z</time></trkpt><trkpt lat="43.2879958" lon="11.3795195"><ele>198.0</ele><time>2026-04-11T11:42:17.22Z</time></trkpt><trkpt lat="43.287931" lon="11.3795775"><ele>198.0</ele><time>2026-04-11T11:42:19.221Z</time></trkpt><trkpt lat="43.2878627" lon="11.3796341"><ele>198.0</ele><time>2026-04-11T11:42:20.22Z</time></trkpt><trkpt lat="43.2877641" lon="11.3796869"><ele>198.0</ele><time>2026-04-11T11:42:21.22Z</time></trkpt><trkpt lat="43.2876396" lon="11.3797474"><ele>198.0</ele><time>2026-04-11T11:42:22.221Z</time></trkpt><trkpt lat="43.2874971" lon="11.3798184"><ele>198.0</ele><time>2026-04-11T11:42:23.221Z</time></trkpt><trkpt lat="43.287346" lon="11.3799003"><ele>198.0</ele><time>2026-04-11T11:42:24.22Z</time></trkpt><trkpt lat="43.2872031" lon="11.3799592"><ele>197.0</ele><time>2026-04-11T11:42:25.22Z</time></trkpt><trkpt lat="43.2870631" lon="11.3799861"><ele>196.0</ele><time>2026-04-11T11:42:26.22Z</time></trkpt><trkpt lat="43.2869175" lon="11.3799801"><ele>195.0</ele><time>2026-04-11T11:42:27.221Z</time></trkpt><trkpt lat="43.2867485" lon="11.3799349"><ele>195.0</ele><time>2026-04-11T11:42:28.222Z</time></trkpt><trkpt lat="43.2865822" lon="11.3798737"><ele>195.0</ele><time>2026-04-11T11:42:29.221Z</time></trkpt><trkpt lat="43.2864219" lon="11.3798007"><ele>195.0</ele><time>2026-04-11T11:42:30.221Z</time></trkpt><trkpt lat="43.2862602" lon="11.3797127"><ele>195.66666666666669</ele><time>2026-04-11T11:42:31.221Z</time></trkpt><trkpt lat="43.2860909" lon="11.3795972"><ele>196.33333333333334</ele><time>2026-04-11T11:42:32.222Z</time></trkpt><trkpt lat="43.2859177" lon="11.3794551"><ele>197.0</ele><time>2026-04-11T11:42:33.221Z</time></trkpt><trkpt lat="43.2857457" lon="11.3793053"><ele>196.0</ele><time>2026-04-11T11:42:34.222Z</time></trkpt><trkpt lat="43.2855908" lon="11.3791805"><ele>195.0</ele><time>2026-04-11T11:42:35.222Z</time></trkpt><trkpt lat="43.2854442" lon="11.3790818"><ele>194.0</ele><time>2026-04-11T11:42:36.222Z</time></trkpt><trkpt lat="43.2853005" lon="11.379009"><ele>194.0</ele><time>2026-04-11T11:42:37.221Z</time></trkpt><trkpt lat="43.2851577" lon="11.3789614"><ele>194.0</ele><time>2026-04-11T11:42:38.222Z</time></trkpt><trkpt lat="43.2850118" lon="11.3789417"><ele>194.0</ele><time>2026-04-11T11:42:39.221Z</time></trkpt><trkpt lat="43.2848673" lon="11.3789391"><ele>194.0</ele><time>2026-04-11T11:42:40.222Z</time></trkpt><trkpt lat="43.2847267" lon="11.3789401"><ele>193.75</ele><time>2026-04-11T11:42:41.222Z</time></trkpt><trkpt lat="43.2845876" lon="11.3789317"><ele>193.5</ele><time>2026-04-11T11:42:42.222Z</time></trkpt><trkpt lat="43.2844495" lon="11.3789117"><ele>193.25</ele><time>2026-04-11T11:42:43.222Z</time></trkpt><trkpt lat="43.2843141" lon="11.3788806"><ele>193.0</ele><time>2026-04-11T11:42:44.221Z</time></trkpt><trkpt lat="43.2841796" lon="11.3788318"><ele>191.5</ele><time>2026-04-11T11:42:45.222Z</time></trkpt><trkpt lat="43.2840569" lon="11.3787319"><ele>190.0</ele><time>2026-04-11T11:42:46.222Z</time></trkpt><trkpt lat="43.2839459" lon="11.3785817"><ele>188.5</ele><time>2026-04-11T11:42:47.221Z</time></trkpt><trkpt lat="43.2838735" lon="11.3784035"><ele>187.0</ele><time>2026-04-11T11:42:48.222Z</time></trkpt><trkpt lat="43.2838024" lon="11.3782259"><ele>185.5</ele><time>2026-04-11T11:42:49.221Z</time></trkpt><trkpt lat="43.2837369" lon="11.3780625"><ele>184.0</ele><time>2026-04-11T11:42:50.222Z</time></trkpt><trkpt lat="43.2836556" lon="11.3779226"><ele>182.5</ele><time>2026-04-11T11:42:51.222Z</time></trkpt><trkpt lat="43.2835405" lon="11.3778173"><ele>181.0</ele><time>2026-04-11T11:42:52.221Z</time></trkpt><trkpt lat="43.2834048" lon="11.3777413"><ele>180.33333333333334</ele><time>2026-04-11T11:42:53.222Z</time></trkpt><trkpt lat="43.2832555" lon="11.377701"><ele>179.66666666666666</ele><time>2026-04-11T11:42:54.222Z</time></trkpt><trkpt lat="43.2830958" lon="11.3776925"><ele>179.0</ele><time>2026-04-11T11:42:55.222Z</time></trkpt><trkpt lat="43.2829395" lon="11.3777296"><ele>178.66666666666666</ele><time>2026-04-11T11:42:56.221Z</time></trkpt><trkpt lat="43.2827862" lon="11.3778061"><ele>178.33333333333334</ele><time>2026-04-11T11:42:57.222Z</time></trkpt><trkpt lat="43.2826327" lon="11.3778822"><ele>178.0</ele><time>2026-04-11T11:42:58.221Z</time></trkpt><trkpt lat="43.2824845" lon="11.3779327"><ele>178.0</ele><time>2026-04-11T11:42:59.221Z</time></trkpt><trkpt lat="43.2823549" lon="11.3779359"><ele>178.0</ele><time>2026-04-11T11:43:00.221Z</time></trkpt><trkpt lat="43.2822463" lon="11.3778882"><ele>178.0</ele><time>2026-04-11T11:43:01.222Z</time></trkpt><trkpt lat="43.2821497" lon="11.3778004"><ele>178.0</ele><time>2026-04-11T11:43:02.221Z</time></trkpt><trkpt lat="43.2820635" lon="11.3776589"><ele>177.75</ele><time>2026-04-11T11:43:03.222Z</time></trkpt><trkpt lat="43.2819938" lon="11.3774876"><ele>177.5</ele><time>2026-04-11T11:43:04.222Z</time></trkpt><trkpt lat="43.2819383" lon="11.3773053"><ele>177.25</ele><time>2026-04-11T11:43:05.222Z</time></trkpt><trkpt lat="43.281898" lon="11.3771238"><ele>177.0</ele><time>2026-04-11T11:43:06.222Z</time></trkpt><trkpt lat="43.2818704" lon="11.3769605"><ele>177.0</ele><time>2026-04-11T11:43:07.222Z</time></trkpt><trkpt lat="43.281849" lon="11.3768276"><ele>177.0</ele><time>2026-04-11T11:43:08.221Z</time></trkpt><trkpt lat="43.2818352" lon="11.3767245"><ele>177.0</ele><time>2026-04-11T11:43:09.222Z</time></trkpt><trkpt lat="43.2818432" lon="11.3766357"><ele>177.0</ele><time>2026-04-11T11:43:10.222Z</time></trkpt><trkpt lat="43.2818811" lon="11.3765266"><ele>177.0</ele><time>2026-04-11T11:43:11.222Z</time></trkpt><trkpt lat="43.2819373" lon="11.3764066"><ele>177.0</ele><time>2026-04-11T11:43:12.222Z</time></trkpt><trkpt lat="43.2819751" lon="11.3762758"><ele>177.0</ele><time>2026-04-11T11:43:13.222Z</time></trkpt><trkpt lat="43.281967" lon="11.3761463"><ele>177.0</ele><time>2026-04-11T11:43:14.222Z</time></trkpt><trkpt lat="43.2819178" lon="11.3760421"><ele>177.0</ele><time>2026-04-11T11:43:15.221Z</time></trkpt><trkpt lat="43.281845" lon="11.3759492"><ele>177.0</ele><time>2026-04-11T11:43:16.222Z</time></trkpt><trkpt lat="43.2817411" lon="11.3758757"><ele>177.0</ele><time>2026-04-11T11:43:17.221Z</time></trkpt><trkpt lat="43.2816393" lon="11.375784"><ele>177.0</ele><time>2026-04-11T11:43:18.221Z</time></trkpt><trkpt lat="43.2815614" lon="11.3756374"><ele>177.0</ele><time>2026-04-11T11:43:19.221Z</time></trkpt><trkpt lat="43.2815186" lon="11.3754478"><ele>177.0</ele><time>2026-04-11T11:43:20.221Z</time></trkpt><trkpt lat="43.2814825" lon="11.3752512"><ele>177.0</ele><time>2026-04-11T11:43:21.222Z</time></trkpt><trkpt lat="43.2814885" lon="11.3750316"><ele>178.66666666666666</ele><time>2026-04-11T11:43:22.221Z</time></trkpt><trkpt lat="43.281515" lon="11.3748069"><ele>180.33333333333331</ele><time>2026-04-11T11:43:23.222Z</time></trkpt><trkpt lat="43.2815705" lon="11.3745808"><ele>182.0</ele><time>2026-04-11T11:43:24.222Z</time></trkpt><trkpt lat="43.2816501" lon="11.3743545"><ele>184.33333333333331</ele><time>2026-04-11T11:43:25.221Z</time></trkpt><trkpt lat="43.2817468" lon="11.3741379"><ele>186.66666666666666</ele><time>2026-04-11T11:43:26.221Z</time></trkpt><trkpt lat="43.2818585" lon="11.373939"><ele>189.0</ele><time>2026-04-11T11:43:27.222Z</time></trkpt><trkpt lat="43.2819751" lon="11.3737479"><ele>190.33333333333331</ele><time>2026-04-11T11:43:28.221Z</time></trkpt><trkpt lat="43.2820952" lon="11.3735527"><ele>191.66666666666666</ele><time>2026-04-11T11:43:29.221Z</time></trkpt><trkpt lat="43.2821923" lon="11.3733441"><ele>193.0</ele><time>2026-04-11T11:43:30.221Z</time></trkpt><trkpt lat="43.2822618" lon="11.3731183"><ele>193.66666666666666</ele><time>2026-04-11T11:43:31.223Z</time></trkpt><trkpt lat="43.2823121" lon="11.3728772"><ele>194.33333333333331</ele><time>2026-04-11T11:43:32.223Z</time></trkpt><trkpt lat="43.2823268" lon="11.3726156"><ele>195.0</ele><time>2026-04-11T11:43:33.223Z</time></trkpt><trkpt lat="43.282342" lon="11.3723459"><ele>196.33333333333331</ele><time>2026-04-11T11:43:34.222Z</time></trkpt><trkpt lat="43.2823531" lon="11.372086"><ele>197.66666666666666</ele><time>2026-04-11T11:43:35.223Z</time></trkpt><trkpt lat="43.2823768" lon="11.3718167"><ele>199.0</ele><time>2026-04-11T11:43:36.222Z</time></trkpt><trkpt lat="43.2824035" lon="11.3715527"><ele>199.66666666666666</ele><time>2026-04-11T11:43:37.222Z</time></trkpt><trkpt lat="43.282429" lon="11.3712876"><ele>200.33333333333331</ele><time>2026-04-11T11:43:38.223Z</time></trkpt><trkpt lat="43.2824517" lon="11.3710253"><ele>201.0</ele><time>2026-04-11T11:43:39.223Z</time></trkpt><trkpt lat="43.2824821" lon="11.3707692"><ele>202.33333333333331</ele><time>2026-04-11T11:43:40.223Z</time></trkpt><trkpt lat="43.2825283" lon="11.3705179"><ele>203.66666666666666</ele><time>2026-04-11T11:43:41.223Z</time></trkpt><trkpt lat="43.2825893" lon="11.3702672"><ele>205.0</ele><time>2026-04-11T11:43:42.223Z</time></trkpt><trkpt lat="43.2826715" lon="11.3700252"><ele>205.0</ele><time>2026-04-11T11:43:43.223Z</time></trkpt><trkpt lat="43.2827719" lon="11.3697926"><ele>205.0</ele><time>2026-04-11T11:43:44.223Z</time></trkpt><trkpt lat="43.2828812" lon="11.3695629"><ele>205.0</ele><time>2026-04-11T11:43:45.223Z</time></trkpt><trkpt lat="43.2829959" lon="11.3693404"><ele>205.66666666666666</ele><time>2026-04-11T11:43:46.222Z</time></trkpt><trkpt lat="43.2831076" lon="11.3691253"><ele>206.33333333333331</ele><time>2026-04-11T11:43:47.222Z</time></trkpt><trkpt lat="43.2832142" lon="11.3689098"><ele>207.0</ele><time>2026-04-11T11:43:48.223Z</time></trkpt><trkpt lat="43.2833157" lon="11.3686913"><ele>207.33333333333331</ele><time>2026-04-11T11:43:49.222Z</time></trkpt><trkpt lat="43.2834074" lon="11.3684664"><ele>207.66666666666666</ele><time>2026-04-11T11:43:50.223Z</time></trkpt><trkpt lat="43.2834774" lon="11.3682393"><ele>208.0</ele><time>2026-04-11T11:43:51.222Z</time></trkpt><trkpt lat="43.283531" lon="11.3679969"><ele>208.0</ele><time>2026-04-11T11:43:52.222Z</time></trkpt><trkpt lat="43.2835492" lon="11.3677355"><ele>208.0</ele><time>2026-04-11T11:43:53.223Z</time></trkpt><trkpt lat="43.2835352" lon="11.367458"><ele>208.0</ele><time>2026-04-11T11:43:54.222Z</time></trkpt><trkpt lat="43.2834984" lon="11.3671804"><ele>209.0</ele><time>2026-04-11T11:43:55.223Z</time></trkpt><trkpt lat="43.2834381" lon="11.3669065"><ele>210.0</ele><time>2026-04-11T11:43:56.223Z</time></trkpt><trkpt lat="43.2833369" lon="11.366671"><ele>211.0</ele><time>2026-04-11T11:43:57.222Z</time></trkpt><trkpt lat="43.2832154" lon="11.3664656"><ele>212.33333333333331</ele><time>2026-04-11T11:43:58.223Z</time></trkpt><trkpt lat="43.2830924" lon="11.366264"><ele>213.66666666666669</ele><time>2026-04-11T11:43:59.222Z</time></trkpt><trkpt lat="43.2829544" lon="11.3660679"><ele>215.0</ele><time>2026-04-11T11:44:00.222Z</time></trkpt><trkpt lat="43.282797" lon="11.3658962"><ele>215.0</ele><time>2026-04-11T11:44:01.222Z</time></trkpt><trkpt lat="43.2826202" lon="11.3657333"><ele>215.0</ele><time>2026-04-11T11:44:02.222Z</time></trkpt><trkpt lat="43.2824703" lon="11.3655967"><ele>215.0</ele><time>2026-04-11T11:44:03.222Z</time></trkpt><trkpt lat="43.2823426" lon="11.3654539"><ele>215.0</ele><time>2026-04-11T11:44:04.223Z</time></trkpt><trkpt lat="43.2822427" lon="11.3652718"><ele>215.0</ele><time>2026-04-11T11:44:05.222Z</time></trkpt><trkpt lat="43.2821812" lon="11.3650498"><ele>215.0</ele><time>2026-04-11T11:44:06.223Z</time></trkpt><trkpt lat="43.2821614" lon="11.3648131"><ele>213.66666666666669</ele><time>2026-04-11T11:44:07.222Z</time></trkpt><trkpt lat="43.2821795" lon="11.3645763"><ele>212.33333333333331</ele><time>2026-04-11T11:44:08.223Z</time></trkpt><trkpt lat="43.2822149" lon="11.3643318"><ele>211.0</ele><time>2026-04-11T11:44:09.223Z</time></trkpt><trkpt lat="43.2822542" lon="11.3641037"><ele>214.0</ele><time>2026-04-11T11:44:10.223Z</time></trkpt><trkpt lat="43.2823031" lon="11.3638815"><ele>217.0</ele><time>2026-04-11T11:44:11.222Z</time></trkpt><trkpt lat="43.2823794" lon="11.3636657"><ele>220.0</ele><time>2026-04-11T11:44:12.222Z</time></trkpt><trkpt lat="43.2824772" lon="11.3634591"><ele>220.0</ele><time>2026-04-11T11:44:13.223Z</time></trkpt><trkpt lat="43.2825816" lon="11.3632529"><ele>220.0</ele><time>2026-04-11T11:44:14.222Z</time></trkpt><trkpt lat="43.2826857" lon="11.3630478"><ele>220.0</ele><time>2026-04-11T11:44:15.223Z</time></trkpt><trkpt lat="43.282793" lon="11.3628406"><ele>222.0</ele><time>2026-04-11T11:44:16.223Z</time></trkpt><trkpt lat="43.2829026" lon="11.3626308"><ele>224.0</ele><time>2026-04-11T11:44:17.223Z</time></trkpt><trkpt lat="43.2830136" lon="11.3624084"><ele>226.0</ele><time>2026-04-11T11:44:18.223Z</time></trkpt><trkpt lat="43.2831171" lon="11.3621762"><ele>226.0</ele><time>2026-04-11T11:44:19.223Z</time></trkpt><trkpt lat="43.2832062" lon="11.3619282"><ele>226.0</ele><time>2026-04-11T11:44:20.222Z</time></trkpt><trkpt lat="43.2832909" lon="11.3616812"><ele>226.0</ele><time>2026-04-11T11:44:21.223Z</time></trkpt><trkpt lat="43.2833626" lon="11.3614173"><ele>225.0</ele><time>2026-04-11T11:44:22.222Z</time></trkpt><trkpt lat="43.28341" lon="11.3611407"><ele>224.0</ele><time>2026-04-11T11:44:23.222Z</time></trkpt><trkpt lat="43.2834493" lon="11.3608744"><ele>223.0</ele><time>2026-04-11T11:44:24.223Z</time></trkpt><trkpt lat="43.2834806" lon="11.3606023"><ele>221.0</ele><time>2026-04-11T11:44:25.223Z</time></trkpt><trkpt lat="43.2835346" lon="11.3603276"><ele>219.0</ele><time>2026-04-11T11:44:26.223Z</time></trkpt><trkpt lat="43.2836225" lon="11.3600527"><ele>217.0</ele><time>2026-04-11T11:44:27.222Z</time></trkpt><trkpt lat="43.2837121" lon="11.3597698"><ele>216.0</ele><time>2026-04-11T11:44:28.222Z</time></trkpt><trkpt lat="43.2838133" lon="11.3594697"><ele>215.0</ele><time>2026-04-11T11:44:29.223Z</time></trkpt><trkpt lat="43.2838998" lon="11.3591738"><ele>218.66666666666669</ele><time>2026-04-11T11:44:30.223Z</time></trkpt><trkpt lat="43.28398" lon="11.3588879"><ele>222.33333333333331</ele><time>2026-04-11T11:44:31.222Z</time></trkpt><trkpt lat="43.284063" lon="11.3586126"><ele>226.0</ele><time>2026-04-11T11:44:32.223Z</time></trkpt><trkpt lat="43.2841417" lon="11.3583388"><ele>226.66666666666666</ele><time>2026-04-11T11:44:33.223Z</time></trkpt><trkpt lat="43.2842126" lon="11.3580605"><ele>227.33333333333331</ele><time>2026-04-11T11:44:34.223Z</time></trkpt><trkpt lat="43.2842667" lon="11.3577825"><ele>228.0</ele><time>2026-04-11T11:44:35.223Z</time></trkpt><trkpt lat="43.284314" lon="11.3575129"><ele>228.0</ele><time>2026-04-11T11:44:36.222Z</time></trkpt><trkpt lat="43.2843638" lon="11.3572454"><ele>228.0</ele><time>2026-04-11T11:44:37.224Z</time></trkpt><trkpt lat="43.2844306" lon="11.3569792"><ele>228.0</ele><time>2026-04-11T11:44:38.223Z</time></trkpt><trkpt lat="43.2845117" lon="11.3567145"><ele>227.66666666666669</ele><time>2026-04-11T11:44:39.224Z</time></trkpt><trkpt lat="43.2846025" lon="11.3564547"><ele>227.33333333333334</ele><time>2026-04-11T11:44:40.224Z</time></trkpt><trkpt lat="43.2846883" lon="11.356197"><ele>227.0</ele><time>2026-04-11T11:44:41.224Z</time></trkpt><trkpt lat="43.2847774" lon="11.3559426"><ele>230.0</ele><time>2026-04-11T11:44:42.223Z</time></trkpt><trkpt lat="43.284868" lon="11.3557039"><ele>233.0</ele><time>2026-04-11T11:44:43.223Z</time></trkpt><trkpt lat="43.2849454" lon="11.3554868"><ele>236.0</ele><time>2026-04-11T11:44:44.223Z</time></trkpt><trkpt lat="43.2850138" lon="11.3552884"><ele>236.0</ele><time>2026-04-11T11:44:45.223Z</time></trkpt><trkpt lat="43.285075" lon="11.3551041"><ele>236.0</ele><time>2026-04-11T11:44:46.224Z</time></trkpt><trkpt lat="43.2851215" lon="11.3549242"><ele>236.0</ele><time>2026-04-11T11:44:47.224Z</time></trkpt><trkpt lat="43.285134" lon="11.3547425"><ele>236.0</ele><time>2026-04-11T11:44:48.223Z</time></trkpt><trkpt lat="43.2851076" lon="11.3545764"><ele>236.5</ele><time>2026-04-11T11:44:49.223Z</time></trkpt><trkpt lat="43.2850562" lon="11.3544082"><ele>237.0</ele><time>2026-04-11T11:44:50.224Z</time></trkpt><trkpt lat="43.2849962" lon="11.3542635"><ele>237.5</ele><time>2026-04-11T11:44:51.224Z</time></trkpt><trkpt lat="43.2849128" lon="11.3541278"><ele>238.0</ele><time>2026-04-11T11:44:52.224Z</time></trkpt><trkpt lat="43.2848186" lon="11.3540047"><ele>237.5</ele><time>2026-04-11T11:44:53.223Z</time></trkpt><trkpt lat="43.2847248" lon="11.3538903"><ele>237.0</ele><time>2026-04-11T11:44:54.224Z</time></trkpt><trkpt lat="43.2846419" lon="11.3537778"><ele>236.5</ele><time>2026-04-11T11:44:55.223Z</time></trkpt><trkpt lat="43.2845785" lon="11.3536526"><ele>236.0</ele><time>2026-04-11T11:44:56.223Z</time></trkpt><trkpt lat="43.2845307" lon="11.3535328"><ele>236.0</ele><time>2026-04-11T11:44:57.224Z</time></trkpt><trkpt lat="43.2844988" lon="11.3534395"><ele>236.00000000000003</ele><time>2026-04-11T11:44:58.224Z</time></trkpt><trkpt lat="43.2844475" lon="11.3533601"><ele>236.00000000000003</ele><time>2026-04-11T11:45:00.224Z</time></trkpt><trkpt lat="43.2843674" lon="11.3533659"><ele>236.0</ele><time>2026-04-11T11:45:02.223Z</time></trkpt><trkpt lat="43.2842295" lon="11.3534208"><ele>236.0</ele><time>2026-04-11T11:45:04.223Z</time></trkpt><trkpt lat="43.284123" lon="11.3534969"><ele>236.0</ele><time>2026-04-11T11:45:05.224Z</time></trkpt><trkpt lat="43.2840108" lon="11.3535829"><ele>236.0</ele><time>2026-04-11T11:45:06.223Z</time></trkpt><trkpt lat="43.2838903" lon="11.3536391"><ele>236.0</ele><time>2026-04-11T11:45:07.223Z</time></trkpt><trkpt lat="43.2837516" lon="11.3536885"><ele>236.0</ele><time>2026-04-11T11:45:08.224Z</time></trkpt><trkpt lat="43.2835934" lon="11.3537169"><ele>236.66666666666669</ele><time>2026-04-11T11:45:09.223Z</time></trkpt><trkpt lat="43.2834294" lon="11.3537312"><ele>237.33333333333331</ele><time>2026-04-11T11:45:10.224Z</time></trkpt><trkpt lat="43.2832591" lon="11.3537246"><ele>238.0</ele><time>2026-04-11T11:45:11.223Z</time></trkpt><trkpt lat="43.2830921" lon="11.3536962"><ele>238.0</ele><time>2026-04-11T11:45:12.223Z</time></trkpt><trkpt lat="43.2829218" lon="11.3536474"><ele>238.0</ele><time>2026-04-11T11:45:13.224Z</time></trkpt><trkpt lat="43.2827439" lon="11.3536001"><ele>238.0</ele><time>2026-04-11T11:45:14.224Z</time></trkpt><trkpt lat="43.2825625" lon="11.353561"><ele>238.0</ele><time>2026-04-11T11:45:15.224Z</time></trkpt><trkpt lat="43.2823896" lon="11.3535251"><ele>238.0</ele><time>2026-04-11T11:45:16.223Z</time></trkpt><trkpt lat="43.2822249" lon="11.3534859"><ele>238.0</ele><time>2026-04-11T11:45:17.224Z</time></trkpt><trkpt lat="43.2820577" lon="11.3534512"><ele>238.0</ele><time>2026-04-11T11:45:18.224Z</time></trkpt><trkpt lat="43.2818999" lon="11.3534167"><ele>238.0</ele><time>2026-04-11T11:45:19.223Z</time></trkpt><trkpt lat="43.2817539" lon="11.3533815"><ele>238.0</ele><time>2026-04-11T11:45:20.223Z</time></trkpt><trkpt lat="43.2816086" lon="11.3533534"><ele>238.0</ele><time>2026-04-11T11:45:21.224Z</time></trkpt><trkpt lat="43.2814713" lon="11.3533163"><ele>238.0</ele><time>2026-04-11T11:45:22.224Z</time></trkpt><trkpt lat="43.2813289" lon="11.3532745"><ele>238.0</ele><time>2026-04-11T11:45:23.223Z</time></trkpt><trkpt lat="43.2811834" lon="11.3532239"><ele>238.0</ele><time>2026-04-11T11:45:24.224Z</time></trkpt><trkpt lat="43.2810341" lon="11.3531724"><ele>238.0</ele><time>2026-04-11T11:45:25.223Z</time></trkpt><trkpt lat="43.2808842" lon="11.3531218"><ele>238.0</ele><time>2026-04-11T11:45:26.223Z</time></trkpt><trkpt lat="43.2807365" lon="11.353071"><ele>238.0</ele><time>2026-04-11T11:45:27.224Z</time></trkpt><trkpt lat="43.2805908" lon="11.3530164"><ele>235.33333333333331</ele><time>2026-04-11T11:45:28.224Z</time></trkpt><trkpt lat="43.2804427" lon="11.3529636"><ele>232.66666666666669</ele><time>2026-04-11T11:45:29.224Z</time></trkpt><trkpt lat="43.2802896" lon="11.3529122"><ele>230.0</ele><time>2026-04-11T11:45:30.224Z</time></trkpt><trkpt lat="43.2801333" lon="11.3528635"><ele>230.0</ele><time>2026-04-11T11:45:31.223Z</time></trkpt><trkpt lat="43.2799797" lon="11.3528128"><ele>230.0</ele><time>2026-04-11T11:45:32.223Z</time></trkpt><trkpt lat="43.279824" lon="11.3527685"><ele>230.0</ele><time>2026-04-11T11:45:33.225Z</time></trkpt><trkpt lat="43.2796667" lon="11.3527363"><ele>229.0</ele><time>2026-04-11T11:45:34.224Z</time></trkpt><trkpt lat="43.2795072" lon="11.352711"><ele>228.0</ele><time>2026-04-11T11:45:35.224Z</time></trkpt><trkpt lat="43.2793501" lon="11.3526887"><ele>227.0</ele><time>2026-04-11T11:45:36.224Z</time></trkpt><trkpt lat="43.2791977" lon="11.3526733"><ele>227.0</ele><time>2026-04-11T11:45:37.223Z</time></trkpt><trkpt lat="43.2790563" lon="11.3526626"><ele>227.0</ele><time>2026-04-11T11:45:38.223Z</time></trkpt><trkpt lat="43.2789062" lon="11.3526485"><ele>227.0</ele><time>2026-04-11T11:45:39.224Z</time></trkpt><trkpt lat="43.2787517" lon="11.3526656"><ele>227.0</ele><time>2026-04-11T11:45:40.224Z</time></trkpt><trkpt lat="43.2785897" lon="11.3527213"><ele>227.0</ele><time>2026-04-11T11:45:41.223Z</time></trkpt><trkpt lat="43.2784248" lon="11.3528259"><ele>227.0</ele><time>2026-04-11T11:45:42.224Z</time></trkpt><trkpt lat="43.2782684" lon="11.3529711"><ele>227.0</ele><time>2026-04-11T11:45:43.225Z</time></trkpt><trkpt lat="43.2780997" lon="11.3531086"><ele>228.33333333333334</ele><time>2026-04-11T11:45:44.224Z</time></trkpt><trkpt lat="43.2779167" lon="11.3532285"><ele>229.66666666666669</ele><time>2026-04-11T11:45:45.224Z</time></trkpt><trkpt lat="43.2777323" lon="11.353343"><ele>231.0</ele><time>2026-04-11T11:45:46.224Z</time></trkpt><trkpt lat="43.2775515" lon="11.3534337"><ele>231.0</ele><time>2026-04-11T11:45:47.224Z</time></trkpt><trkpt lat="43.2773737" lon="11.3535383"><ele>231.0</ele><time>2026-04-11T11:45:48.224Z</time></trkpt><trkpt lat="43.2771912" lon="11.3536347"><ele>231.0</ele><time>2026-04-11T11:45:49.225Z</time></trkpt><trkpt lat="43.276999" lon="11.3537123"><ele>231.33333333333331</ele><time>2026-04-11T11:45:50.224Z</time></trkpt><trkpt lat="43.2767952" lon="11.3537641"><ele>231.66666666666666</ele><time>2026-04-11T11:45:51.225Z</time></trkpt><trkpt lat="43.2765856" lon="11.3537969"><ele>232.0</ele><time>2026-04-11T11:45:52.225Z</time></trkpt><trkpt lat="43.2763809" lon="11.3538239"><ele>230.33333333333331</ele><time>2026-04-11T11:45:53.224Z</time></trkpt><trkpt lat="43.2761842" lon="11.3538635"><ele>228.66666666666669</ele><time>2026-04-11T11:45:54.224Z</time></trkpt><trkpt lat="43.2759927" lon="11.3539051"><ele>227.0</ele><time>2026-04-11T11:45:55.224Z</time></trkpt><trkpt lat="43.2758008" lon="11.3539456"><ele>225.66666666666669</ele><time>2026-04-11T11:45:56.224Z</time></trkpt><trkpt lat="43.2756094" lon="11.353981"><ele>224.33333333333331</ele><time>2026-04-11T11:45:57.225Z</time></trkpt><trkpt lat="43.2754197" lon="11.3540141"><ele>223.0</ele><time>2026-04-11T11:45:58.224Z</time></trkpt><trkpt lat="43.2752305" lon="11.354051"><ele>222.66666666666666</ele><time>2026-04-11T11:45:59.224Z</time></trkpt><trkpt lat="43.2750448" lon="11.3540915"><ele>222.33333333333331</ele><time>2026-04-11T11:46:00.225Z</time></trkpt><trkpt lat="43.2748572" lon="11.3541418"><ele>222.0</ele><time>2026-04-11T11:46:01.224Z</time></trkpt><trkpt lat="43.2746759" lon="11.3542201"><ele>223.0</ele><time>2026-04-11T11:46:02.225Z</time></trkpt><trkpt lat="43.2745197" lon="11.3543407"><ele>224.0</ele><time>2026-04-11T11:46:03.225Z</time></trkpt><trkpt lat="43.2743853" lon="11.3545068"><ele>225.0</ele><time>2026-04-11T11:46:04.224Z</time></trkpt><trkpt lat="43.2742672" lon="11.3546985"><ele>224.0</ele><time>2026-04-11T11:46:05.225Z</time></trkpt><trkpt lat="43.2741455" lon="11.3549157"><ele>223.0</ele><time>2026-04-11T11:46:06.225Z</time></trkpt><trkpt lat="43.2740052" lon="11.3551224"><ele>222.0</ele><time>2026-04-11T11:46:07.225Z</time></trkpt><trkpt lat="43.2738466" lon="11.3553092"><ele>222.33333333333331</ele><time>2026-04-11T11:46:08.224Z</time></trkpt><trkpt lat="43.2736721" lon="11.3554818"><ele>222.66666666666666</ele><time>2026-04-11T11:46:09.225Z</time></trkpt><trkpt lat="43.2734974" lon="11.3556573"><ele>223.0</ele><time>2026-04-11T11:46:10.225Z</time></trkpt><trkpt lat="43.2733239" lon="11.3558523"><ele>223.0</ele><time>2026-04-11T11:46:11.225Z</time></trkpt><trkpt lat="43.2731549" lon="11.3560523"><ele>223.0</ele><time>2026-04-11T11:46:12.224Z</time></trkpt><trkpt lat="43.2729914" lon="11.356242"><ele>223.0</ele><time>2026-04-11T11:46:13.225Z</time></trkpt><trkpt lat="43.272823" lon="11.3564287"><ele>224.33333333333331</ele><time>2026-04-11T11:46:14.224Z</time></trkpt><trkpt lat="43.2726511" lon="11.3566078"><ele>225.66666666666669</ele><time>2026-04-11T11:46:15.225Z</time></trkpt><trkpt lat="43.2724891" lon="11.3567849"><ele>227.0</ele><time>2026-04-11T11:46:16.225Z</time></trkpt><trkpt lat="43.2723364" lon="11.3569596"><ele>225.66666666666669</ele><time>2026-04-11T11:46:17.225Z</time></trkpt><trkpt lat="43.2722023" lon="11.3571235"><ele>224.33333333333331</ele><time>2026-04-11T11:46:18.225Z</time></trkpt><trkpt lat="43.2720706" lon="11.3572705"><ele>223.0</ele><time>2026-04-11T11:46:19.225Z</time></trkpt><trkpt lat="43.2719689" lon="11.3573856"><ele>222.99999999999997</ele><time>2026-04-11T11:46:20.225Z</time></trkpt><trkpt lat="43.2719122" lon="11.3574508"><ele>223.0</ele><time>2026-04-11T11:46:21.225Z</time></trkpt><trkpt lat="43.2718319" lon="11.3574698"><ele>223.0</ele><time>2026-04-11T11:46:23.225Z</time></trkpt><trkpt lat="43.2717751" lon="11.3574251"><ele>223.0</ele><time>2026-04-11T11:46:24.225Z</time></trkpt><trkpt lat="43.2716887" lon="11.3573411"><ele>222.99999999999997</ele><time>2026-04-11T11:46:25.225Z</time></trkpt><trkpt lat="43.2716032" lon="11.3572286"><ele>223.0</ele><time>2026-04-11T11:46:26.225Z</time></trkpt><trkpt lat="43.2715147" lon="11.3571266"><ele>222.83333333333331</ele><time>2026-04-11T11:46:27.224Z</time></trkpt><trkpt lat="43.2714312" lon="11.3570431"><ele>222.66666666666666</ele><time>2026-04-11T11:46:28.224Z</time></trkpt><trkpt lat="43.2713569" lon="11.3569704"><ele>222.5</ele><time>2026-04-11T11:46:29.225Z</time></trkpt><trkpt lat="43.2712898" lon="11.3569052"><ele>222.33333333333331</ele><time>2026-04-11T11:46:30.225Z</time></trkpt><trkpt lat="43.2712278" lon="11.356839"><ele>222.16666666666666</ele><time>2026-04-11T11:46:31.225Z</time></trkpt><trkpt lat="43.2711673" lon="11.3567699"><ele>222.0</ele><time>2026-04-11T11:46:32.225Z</time></trkpt><trkpt lat="43.2711038" lon="11.3566989"><ele>222.0</ele><time>2026-04-11T11:46:33.224Z</time></trkpt><trkpt lat="43.2710294" lon="11.3566282"><ele>222.0</ele><time>2026-04-11T11:46:34.224Z</time></trkpt><trkpt lat="43.2709524" lon="11.356551"><ele>222.0</ele><time>2026-04-11T11:46:35.225Z</time></trkpt><trkpt lat="43.2708772" lon="11.3564678"><ele>222.0</ele><time>2026-04-11T11:46:36.225Z</time></trkpt><trkpt lat="43.2708018" lon="11.3563871"><ele>222.0</ele><time>2026-04-11T11:46:37.224Z</time></trkpt><trkpt lat="43.2707288" lon="11.3563067"><ele>220.33333333333334</ele><time>2026-04-11T11:46:38.225Z</time></trkpt><trkpt lat="43.2706566" lon="11.3562268"><ele>218.66666666666669</ele><time>2026-04-11T11:46:39.225Z</time></trkpt><trkpt lat="43.2705861" lon="11.356151"><ele>217.0</ele><time>2026-04-11T11:46:40.224Z</time></trkpt><trkpt lat="43.2705175" lon="11.3560783"><ele>215.33333333333334</ele><time>2026-04-11T11:46:41.225Z</time></trkpt><trkpt lat="43.2704517" lon="11.3560145"><ele>213.66666666666669</ele><time>2026-04-11T11:46:42.225Z</time></trkpt><trkpt lat="43.2703838" lon="11.3559689"><ele>212.0</ele><time>2026-04-11T11:46:43.225Z</time></trkpt><trkpt lat="43.2703053" lon="11.3559414"><ele>211.6</ele><time>2026-04-11T11:46:44.225Z</time></trkpt><trkpt lat="43.2702075" lon="11.3559264"><ele>211.2</ele><time>2026-04-11T11:46:45.225Z</time></trkpt><trkpt lat="43.2701027" lon="11.3559269"><ele>210.8</ele><time>2026-04-11T11:46:46.224Z</time></trkpt><trkpt lat="43.2699953" lon="11.3559378"><ele>210.4</ele><time>2026-04-11T11:46:47.224Z</time></trkpt><trkpt lat="43.2698882" lon="11.3559606"><ele>210.0</ele><time>2026-04-11T11:46:48.226Z</time></trkpt><trkpt lat="43.269784" lon="11.3559862"><ele>207.6</ele><time>2026-04-11T11:46:49.226Z</time></trkpt><trkpt lat="43.2696789" lon="11.3560413"><ele>205.2</ele><time>2026-04-11T11:46:50.226Z</time></trkpt><trkpt lat="43.269575" lon="11.3560844"><ele>202.8</ele><time>2026-04-11T11:46:51.226Z</time></trkpt><trkpt lat="43.269479" lon="11.3561436"><ele>200.4</ele><time>2026-04-11T11:46:52.225Z</time></trkpt><trkpt lat="43.2693865" lon="11.356223"><ele>198.0</ele><time>2026-04-11T11:46:53.226Z</time></trkpt><trkpt lat="43.2692981" lon="11.3563216"><ele>199.0</ele><time>2026-04-11T11:46:54.226Z</time></trkpt><trkpt lat="43.2692168" lon="11.3564314"><ele>200.0</ele><time>2026-04-11T11:46:55.225Z</time></trkpt><trkpt lat="43.2691413" lon="11.356552"><ele>201.0</ele><time>2026-04-11T11:46:56.226Z</time></trkpt><trkpt lat="43.2690752" lon="11.3566812"><ele>202.0</ele><time>2026-04-11T11:46:57.225Z</time></trkpt><trkpt lat="43.2690235" lon="11.3568192"><ele>202.0</ele><time>2026-04-11T11:46:58.225Z</time></trkpt><trkpt lat="43.2689813" lon="11.3569659"><ele>202.0</ele><time>2026-04-11T11:46:59.225Z</time></trkpt><trkpt lat="43.2689535" lon="11.3571119"><ele>202.0</ele><time>2026-04-11T11:47:00.226Z</time></trkpt><trkpt lat="43.2689339" lon="11.3572591"><ele>202.0</ele><time>2026-04-11T11:47:01.225Z</time></trkpt><trkpt lat="43.2689227" lon="11.3574142"><ele>202.0</ele><time>2026-04-11T11:47:02.226Z</time></trkpt><trkpt lat="43.2689198" lon="11.3575812"><ele>198.75</ele><time>2026-04-11T11:47:03.225Z</time></trkpt><trkpt lat="43.2689218" lon="11.3577589"><ele>195.5</ele><time>2026-04-11T11:47:04.226Z</time></trkpt><trkpt lat="43.2689236" lon="11.3579345"><ele>192.25</ele><time>2026-04-11T11:47:05.225Z</time></trkpt><trkpt lat="43.2689229" lon="11.3581059"><ele>189.0</ele><time>2026-04-11T11:47:06.226Z</time></trkpt><trkpt lat="43.2689182" lon="11.3582767"><ele>189.0</ele><time>2026-04-11T11:47:07.225Z</time></trkpt><trkpt lat="43.2689059" lon="11.3584458"><ele>189.0</ele><time>2026-04-11T11:47:08.226Z</time></trkpt><trkpt lat="43.2688778" lon="11.3586092"><ele>189.0</ele><time>2026-04-11T11:47:09.225Z</time></trkpt><trkpt lat="43.2688331" lon="11.3587639"><ele>189.0</ele><time>2026-04-11T11:47:10.226Z</time></trkpt><trkpt lat="43.2687771" lon="11.3589048"><ele>189.25</ele><time>2026-04-11T11:47:11.225Z</time></trkpt><trkpt lat="43.2687094" lon="11.3590305"><ele>189.5</ele><time>2026-04-11T11:47:12.225Z</time></trkpt><trkpt lat="43.268629" lon="11.3591419"><ele>189.75</ele><time>2026-04-11T11:47:13.226Z</time></trkpt><trkpt lat="43.2685383" lon="11.3592396"><ele>190.0</ele><time>2026-04-11T11:47:14.226Z</time></trkpt><trkpt lat="43.268434" lon="11.3593265"><ele>190.0</ele><time>2026-04-11T11:47:15.225Z</time></trkpt><trkpt lat="43.2683231" lon="11.3593916"><ele>190.0</ele><time>2026-04-11T11:47:16.225Z</time></trkpt><trkpt lat="43.2682052" lon="11.3594385"><ele>190.0</ele><time>2026-04-11T11:47:17.226Z</time></trkpt><trkpt lat="43.2680798" lon="11.3594714"><ele>190.0</ele><time>2026-04-11T11:47:18.226Z</time></trkpt><trkpt lat="43.267954" lon="11.359478"><ele>189.0</ele><time>2026-04-11T11:47:19.225Z</time></trkpt><trkpt lat="43.2678292" lon="11.3594546"><ele>188.0</ele><time>2026-04-11T11:47:20.226Z</time></trkpt><trkpt lat="43.2677007" lon="11.3594015"><ele>187.0</ele><time>2026-04-11T11:47:21.226Z</time></trkpt><trkpt lat="43.2675688" lon="11.3593352"><ele>186.0</ele><time>2026-04-11T11:47:22.226Z</time></trkpt><trkpt lat="43.26743" lon="11.3592653"><ele>186.0</ele><time>2026-04-11T11:47:23.226Z</time></trkpt><trkpt lat="43.2672867" lon="11.3591989"><ele>186.0</ele><time>2026-04-11T11:47:24.226Z</time></trkpt><trkpt lat="43.2671412" lon="11.3591357"><ele>186.0</ele><time>2026-04-11T11:47:25.225Z</time></trkpt><trkpt lat="43.2670017" lon="11.3590748"><ele>185.75</ele><time>2026-04-11T11:47:26.226Z</time></trkpt><trkpt lat="43.2668716" lon="11.3590199"><ele>185.5</ele><time>2026-04-11T11:47:27.226Z</time></trkpt><trkpt lat="43.2667474" lon="11.3589651"><ele>185.25</ele><time>2026-04-11T11:47:28.226Z</time></trkpt><trkpt lat="43.2666249" lon="11.3589064"><ele>185.0</ele><time>2026-04-11T11:47:29.225Z</time></trkpt><trkpt lat="43.2665004" lon="11.3588426"><ele>185.0</ele><time>2026-04-11T11:47:30.225Z</time></trkpt><trkpt lat="43.2663748" lon="11.3587822"><ele>185.0</ele><time>2026-04-11T11:47:31.225Z</time></trkpt><trkpt lat="43.2662437" lon="11.3587292"><ele>185.0</ele><time>2026-04-11T11:47:32.226Z</time></trkpt><trkpt lat="43.2661014" lon="11.3586745"><ele>185.0</ele><time>2026-04-11T11:47:33.226Z</time></trkpt><trkpt lat="43.2659559" lon="11.3586147"><ele>185.0</ele><time>2026-04-11T11:47:34.226Z</time></trkpt><trkpt lat="43.2658094" lon="11.3585486"><ele>185.0</ele><time>2026-04-11T11:47:35.225Z</time></trkpt><trkpt lat="43.2656702" lon="11.3584883"><ele>185.0</ele><time>2026-04-11T11:47:36.226Z</time></trkpt><trkpt lat="43.2655393" lon="11.3584321"><ele>185.0</ele><time>2026-04-11T11:47:37.226Z</time></trkpt><trkpt lat="43.2654123" lon="11.3583746"><ele>184.75</ele><time>2026-04-11T11:47:38.226Z</time></trkpt><trkpt lat="43.2652909" lon="11.3583204"><ele>184.5</ele><time>2026-04-11T11:47:39.225Z</time></trkpt><trkpt lat="43.2651706" lon="11.3582693"><ele>184.25</ele><time>2026-04-11T11:47:40.226Z</time></trkpt><trkpt lat="43.2650566" lon="11.3582188"><ele>184.0</ele><time>2026-04-11T11:47:41.225Z</time></trkpt><trkpt lat="43.2649492" lon="11.3581817"><ele>184.0</ele><time>2026-04-11T11:47:42.225Z</time></trkpt><trkpt lat="43.2648521" lon="11.3581731"><ele>184.0</ele><time>2026-04-11T11:47:43.225Z</time></trkpt><trkpt lat="43.2647569" lon="11.358198"><ele>184.0</ele><time>2026-04-11T11:47:44.226Z</time></trkpt><trkpt lat="43.2646738" lon="11.3582584"><ele>184.0</ele><time>2026-04-11T11:47:45.225Z</time></trkpt><trkpt lat="43.2645916" lon="11.3583414"><ele>184.0</ele><time>2026-04-11T11:47:46.226Z</time></trkpt><trkpt lat="43.2645234" lon="11.3584481"><ele>184.0</ele><time>2026-04-11T11:47:47.226Z</time></trkpt><trkpt lat="43.2644596" lon="11.3585799"><ele>184.0</ele><time>2026-04-11T11:47:48.226Z</time></trkpt><trkpt lat="43.2643945" lon="11.3587254"><ele>184.0</ele><time>2026-04-11T11:47:49.225Z</time></trkpt><trkpt lat="43.2643145" lon="11.3588856"><ele>184.0</ele><time>2026-04-11T11:47:50.226Z</time></trkpt><trkpt lat="43.2642328" lon="11.3590319"><ele>184.0</ele><time>2026-04-11T11:47:51.225Z</time></trkpt><trkpt lat="43.2641454" lon="11.359159"><ele>184.0</ele><time>2026-04-11T11:47:52.225Z</time></trkpt><trkpt lat="43.2640469" lon="11.35927"><ele>184.0</ele><time>2026-04-11T11:47:53.227Z</time></trkpt><trkpt lat="43.2639358" lon="11.3593668"><ele>184.0</ele><time>2026-04-11T11:47:54.226Z</time></trkpt><trkpt lat="43.2638044" lon="11.3594547"><ele>183.66666666666669</ele><time>2026-04-11T11:47:55.226Z</time></trkpt><trkpt lat="43.2636648" lon="11.3595399"><ele>183.33333333333334</ele><time>2026-04-11T11:47:56.227Z</time></trkpt><trkpt lat="43.2635221" lon="11.3596394"><ele>183.0</ele><time>2026-04-11T11:47:57.226Z</time></trkpt><trkpt lat="43.2633806" lon="11.3597531"><ele>182.66666666666666</ele><time>2026-04-11T11:47:58.226Z</time></trkpt><trkpt lat="43.2632434" lon="11.3598806"><ele>182.33333333333331</ele><time>2026-04-11T11:47:59.227Z</time></trkpt><trkpt lat="43.2631104" lon="11.3600197"><ele>182.0</ele><time>2026-04-11T11:48:00.227Z</time></trkpt><trkpt lat="43.2629831" lon="11.3601585"><ele>182.25</ele><time>2026-04-11T11:48:01.226Z</time></trkpt><trkpt lat="43.2628667" lon="11.36029"><ele>182.5</ele><time>2026-04-11T11:48:02.226Z</time></trkpt><trkpt lat="43.2627555" lon="11.3604183"><ele>182.75</ele><time>2026-04-11T11:48:03.226Z</time></trkpt><trkpt lat="43.262643" lon="11.3605511"><ele>183.0</ele><time>2026-04-11T11:48:04.227Z</time></trkpt><trkpt lat="43.2625288" lon="11.3606886"><ele>183.0</ele><time>2026-04-11T11:48:05.226Z</time></trkpt><trkpt lat="43.2624166" lon="11.360833"><ele>183.0</ele><time>2026-04-11T11:48:06.227Z</time></trkpt><trkpt lat="43.2623081" lon="11.3609768"><ele>183.0</ele><time>2026-04-11T11:48:07.227Z</time></trkpt><trkpt lat="43.2621987" lon="11.3611204"><ele>182.75</ele><time>2026-04-11T11:48:08.226Z</time></trkpt><trkpt lat="43.2620883" lon="11.3612571"><ele>182.5</ele><time>2026-04-11T11:48:09.227Z</time></trkpt><trkpt lat="43.2619787" lon="11.3613782"><ele>182.25</ele><time>2026-04-11T11:48:10.227Z</time></trkpt><trkpt lat="43.2618671" lon="11.3614844"><ele>182.0</ele><time>2026-04-11T11:48:11.227Z</time></trkpt><trkpt lat="43.2617448" lon="11.3615841"><ele>182.0</ele><time>2026-04-11T11:48:12.226Z</time></trkpt><trkpt lat="43.2616126" lon="11.361679"><ele>182.0</ele><time>2026-04-11T11:48:13.227Z</time></trkpt><trkpt lat="43.2614773" lon="11.361763"><ele>182.0</ele><time>2026-04-11T11:48:14.226Z</time></trkpt><trkpt lat="43.2613402" lon="11.3618358"><ele>182.0</ele><time>2026-04-11T11:48:15.227Z</time></trkpt><trkpt lat="43.2612041" lon="11.361901"><ele>182.0</ele><time>2026-04-11T11:48:16.227Z</time></trkpt><trkpt lat="43.2610725" lon="11.3619534"><ele>182.0</ele><time>2026-04-11T11:48:17.227Z</time></trkpt><trkpt lat="43.2609438" lon="11.3619911"><ele>182.0</ele><time>2026-04-11T11:48:18.226Z</time></trkpt><trkpt lat="43.2608194" lon="11.36201"><ele>182.0</ele><time>2026-04-11T11:48:19.227Z</time></trkpt><trkpt lat="43.2607009" lon="11.362013"><ele>182.75</ele><time>2026-04-11T11:48:20.226Z</time></trkpt><trkpt lat="43.2605817" lon="11.3620063"><ele>183.5</ele><time>2026-04-11T11:48:21.226Z</time></trkpt><trkpt lat="43.2604688" lon="11.3619919"><ele>184.25</ele><time>2026-04-11T11:48:22.227Z</time></trkpt><trkpt lat="43.2603483" lon="11.3619654"><ele>185.0</ele><time>2026-04-11T11:48:23.227Z</time></trkpt><trkpt lat="43.2602133" lon="11.361931"><ele>185.0</ele><time>2026-04-11T11:48:24.226Z</time></trkpt><trkpt lat="43.2600744" lon="11.3618856"><ele>185.0</ele><time>2026-04-11T11:48:25.227Z</time></trkpt><trkpt lat="43.2599333" lon="11.3618317"><ele>185.0</ele><time>2026-04-11T11:48:26.227Z</time></trkpt><trkpt lat="43.2597952" lon="11.361771"><ele>185.0</ele><time>2026-04-11T11:48:27.226Z</time></trkpt><trkpt lat="43.2596602" lon="11.3617076"><ele>187.66666666666666</ele><time>2026-04-11T11:48:28.226Z</time></trkpt><trkpt lat="43.2595231" lon="11.3616409"><ele>190.33333333333331</ele><time>2026-04-11T11:48:29.226Z</time></trkpt><trkpt lat="43.2593789" lon="11.361568"><ele>193.0</ele><time>2026-04-11T11:48:30.226Z</time></trkpt><trkpt lat="43.2592284" lon="11.3614868"><ele>193.0</ele><time>2026-04-11T11:48:31.227Z</time></trkpt><trkpt lat="43.2590833" lon="11.3614041"><ele>193.0</ele><time>2026-04-11T11:48:32.226Z</time></trkpt><trkpt lat="43.2589384" lon="11.3613162"><ele>193.0</ele><time>2026-04-11T11:48:33.227Z</time></trkpt><trkpt lat="43.2587986" lon="11.3612201"><ele>193.66666666666666</ele><time>2026-04-11T11:48:34.227Z</time></trkpt><trkpt lat="43.2586653" lon="11.3611065"><ele>194.33333333333331</ele><time>2026-04-11T11:48:35.227Z</time></trkpt><trkpt lat="43.2585355" lon="11.3609818"><ele>195.0</ele><time>2026-04-11T11:48:36.226Z</time></trkpt><trkpt lat="43.2584053" lon="11.3608513"><ele>195.0</ele><time>2026-04-11T11:48:37.227Z</time></trkpt><trkpt lat="43.2582731" lon="11.3607225"><ele>195.0</ele><time>2026-04-11T11:48:38.227Z</time></trkpt><trkpt lat="43.2581454" lon="11.3605966"><ele>195.0</ele><time>2026-04-11T11:48:39.226Z</time></trkpt><trkpt lat="43.2580277" lon="11.3604862"><ele>195.0</ele><time>2026-04-11T11:48:40.226Z</time></trkpt><trkpt lat="43.2579155" lon="11.3604038"><ele>195.0</ele><time>2026-04-11T11:48:41.227Z</time></trkpt><trkpt lat="43.2577924" lon="11.360333"><ele>195.0</ele><time>2026-04-11T11:48:42.226Z</time></trkpt><trkpt lat="43.2576613" lon="11.3602731"><ele>195.0</ele><time>2026-04-11T11:48:43.227Z</time></trkpt><trkpt lat="43.2575239" lon="11.3602178"><ele>195.0</ele><time>2026-04-11T11:48:44.226Z</time></trkpt><trkpt lat="43.2573884" lon="11.3601634"><ele>195.0</ele><time>2026-04-11T11:48:45.227Z</time></trkpt><trkpt lat="43.2572615" lon="11.3601146"><ele>195.0</ele><time>2026-04-11T11:48:46.226Z</time></trkpt><trkpt lat="43.2571407" lon="11.3600793"><ele>195.0</ele><time>2026-04-11T11:48:47.226Z</time></trkpt><trkpt lat="43.2570213" lon="11.3600587"><ele>196.0</ele><time>2026-04-11T11:48:48.227Z</time></trkpt><trkpt lat="43.2568913" lon="11.3600571"><ele>197.0</ele><time>2026-04-11T11:48:49.227Z</time></trkpt><trkpt lat="43.2567476" lon="11.3600711"><ele>198.0</ele><time>2026-04-11T11:48:50.226Z</time></trkpt><trkpt lat="43.2565963" lon="11.3600918"><ele>199.0</ele><time>2026-04-11T11:48:51.226Z</time></trkpt><trkpt lat="43.2564435" lon="11.3601203"><ele>200.0</ele><time>2026-04-11T11:48:52.226Z</time></trkpt><trkpt lat="43.2563049" lon="11.3601525"><ele>201.0</ele><time>2026-04-11T11:48:53.227Z</time></trkpt><trkpt lat="43.2561815" lon="11.3601919"><ele>202.0</ele><time>2026-04-11T11:48:54.226Z</time></trkpt><trkpt lat="43.2560639" lon="11.3602421"><ele>203.0</ele><time>2026-04-11T11:48:55.227Z</time></trkpt><trkpt lat="43.2559477" lon="11.3603174"><ele>203.0</ele><time>2026-04-11T11:48:56.227Z</time></trkpt><trkpt lat="43.2558228" lon="11.3604199"><ele>203.0</ele><time>2026-04-11T11:48:57.227Z</time></trkpt><trkpt lat="43.2556931" lon="11.3605288"><ele>203.0</ele><time>2026-04-11T11:48:58.227Z</time></trkpt><trkpt lat="43.2555568" lon="11.3606339"><ele>205.75</ele><time>2026-04-11T11:48:59.228Z</time></trkpt><trkpt lat="43.2554162" lon="11.3607357"><ele>208.5</ele><time>2026-04-11T11:49:00.228Z</time></trkpt><trkpt lat="43.2552968" lon="11.3608325"><ele>211.25</ele><time>2026-04-11T11:49:01.228Z</time></trkpt><trkpt lat="43.2551929" lon="11.3609395"><ele>214.0</ele><time>2026-04-11T11:49:02.228Z</time></trkpt><trkpt lat="43.2550982" lon="11.3610617"><ele>214.0</ele><time>2026-04-11T11:49:03.227Z</time></trkpt><trkpt lat="43.2550097" lon="11.3612095"><ele>214.0</ele><time>2026-04-11T11:49:04.227Z</time></trkpt><trkpt lat="43.2549261" lon="11.3613716"><ele>214.0</ele><time>2026-04-11T11:49:05.228Z</time></trkpt><trkpt lat="43.2548464" lon="11.3615412"><ele>214.0</ele><time>2026-04-11T11:49:06.227Z</time></trkpt><trkpt lat="43.2547756" lon="11.3617022"><ele>216.75</ele><time>2026-04-11T11:49:07.228Z</time></trkpt><trkpt lat="43.2547127" lon="11.3618421"><ele>219.5</ele><time>2026-04-11T11:49:08.228Z</time></trkpt><trkpt lat="43.2546456" lon="11.3619644"><ele>222.25</ele><time>2026-04-11T11:49:09.227Z</time></trkpt><trkpt lat="43.2545632" lon="11.3620748"><ele>225.0</ele><time>2026-04-11T11:49:10.228Z</time></trkpt><trkpt lat="43.2544647" lon="11.3621734"><ele>223.75</ele><time>2026-04-11T11:49:11.227Z</time></trkpt><trkpt lat="43.2543634" lon="11.3622526"><ele>222.5</ele><time>2026-04-11T11:49:12.228Z</time></trkpt><trkpt lat="43.2542596" lon="11.362317"><ele>221.25</ele><time>2026-04-11T11:49:13.227Z</time></trkpt><trkpt lat="43.2541485" lon="11.3623716"><ele>220.0</ele><time>2026-04-11T11:49:14.227Z</time></trkpt><trkpt lat="43.2540196" lon="11.3624121"><ele>221.66666666666666</ele><time>2026-04-11T11:49:15.227Z</time></trkpt><trkpt lat="43.2538695" lon="11.3624356"><ele>223.33333333333331</ele><time>2026-04-11T11:49:16.228Z</time></trkpt><trkpt lat="43.2537089" lon="11.3624418"><ele>225.0</ele><time>2026-04-11T11:49:17.228Z</time></trkpt><trkpt lat="43.2535498" lon="11.3624527"><ele>225.0</ele><time>2026-04-11T11:49:18.227Z</time></trkpt><trkpt lat="43.2533875" lon="11.3624792"><ele>225.0</ele><time>2026-04-11T11:49:19.227Z</time></trkpt><trkpt lat="43.2532308" lon="11.3625257"><ele>225.0</ele><time>2026-04-11T11:49:20.228Z</time></trkpt><trkpt lat="43.2530729" lon="11.3625929"><ele>226.0</ele><time>2026-04-11T11:49:21.227Z</time></trkpt><trkpt lat="43.2529224" lon="11.36267"><ele>227.0</ele><time>2026-04-11T11:49:22.228Z</time></trkpt><trkpt lat="43.252781" lon="11.3627482"><ele>228.0</ele><time>2026-04-11T11:49:23.227Z</time></trkpt><trkpt lat="43.252654" lon="11.3628258"><ele>228.0</ele><time>2026-04-11T11:49:24.228Z</time></trkpt><trkpt lat="43.2525387" lon="11.3628971"><ele>228.0</ele><time>2026-04-11T11:49:25.227Z</time></trkpt><trkpt lat="43.2524392" lon="11.3629697"><ele>228.0</ele><time>2026-04-11T11:49:26.228Z</time></trkpt><trkpt lat="43.2523547" lon="11.3630525"><ele>228.0</ele><time>2026-04-11T11:49:27.228Z</time></trkpt><trkpt lat="43.2522836" lon="11.3631389"><ele>228.0</ele><time>2026-04-11T11:49:28.228Z</time></trkpt><trkpt lat="43.252206" lon="11.3632281"><ele>229.25</ele><time>2026-04-11T11:49:29.228Z</time></trkpt><trkpt lat="43.25212" lon="11.3633209"><ele>230.5</ele><time>2026-04-11T11:49:30.228Z</time></trkpt><trkpt lat="43.252032" lon="11.3634191"><ele>231.75</ele><time>2026-04-11T11:49:31.228Z</time></trkpt><trkpt lat="43.2519412" lon="11.3635141"><ele>233.0</ele><time>2026-04-11T11:49:32.227Z</time></trkpt><trkpt lat="43.2518418" lon="11.3635949"><ele>233.0</ele><time>2026-04-11T11:49:33.228Z</time></trkpt><trkpt lat="43.2517236" lon="11.3636517"><ele>233.0</ele><time>2026-04-11T11:49:34.228Z</time></trkpt><trkpt lat="43.2515956" lon="11.363683"><ele>233.0</ele><time>2026-04-11T11:49:35.227Z</time></trkpt><trkpt lat="43.2514577" lon="11.363678"><ele>233.0</ele><time>2026-04-11T11:49:36.227Z</time></trkpt><trkpt lat="43.2513152" lon="11.3636395"><ele>230.33333333333334</ele><time>2026-04-11T11:49:37.228Z</time></trkpt><trkpt lat="43.251171" lon="11.3635746"><ele>227.66666666666669</ele><time>2026-04-11T11:49:38.227Z</time></trkpt><trkpt lat="43.2510224" lon="11.3634982"><ele>225.0</ele><time>2026-04-11T11:49:39.227Z</time></trkpt><trkpt lat="43.2508729" lon="11.3634225"><ele>225.0</ele><time>2026-04-11T11:49:40.227Z</time></trkpt><trkpt lat="43.2507222" lon="11.3633538"><ele>225.0</ele><time>2026-04-11T11:49:41.228Z</time></trkpt><trkpt lat="43.2505695" lon="11.3632971"><ele>225.0</ele><time>2026-04-11T11:49:42.228Z</time></trkpt><trkpt lat="43.250412" lon="11.3632523"><ele>224.33333333333331</ele><time>2026-04-11T11:49:43.227Z</time></trkpt><trkpt lat="43.2502547" lon="11.3632171"><ele>223.66666666666666</ele><time>2026-04-11T11:49:44.228Z</time></trkpt><trkpt lat="43.2501045" lon="11.3631806"><ele>223.0</ele><time>2026-04-11T11:49:45.228Z</time></trkpt><trkpt lat="43.2499592" lon="11.3631422"><ele>223.0</ele><time>2026-04-11T11:49:46.228Z</time></trkpt><trkpt lat="43.2498149" lon="11.3631004"><ele>223.0</ele><time>2026-04-11T11:49:47.227Z</time></trkpt><trkpt lat="43.2496696" lon="11.3630646"><ele>223.0</ele><time>2026-04-11T11:49:48.228Z</time></trkpt><trkpt lat="43.2495339" lon="11.3630533"><ele>223.0</ele><time>2026-04-11T11:49:49.228Z</time></trkpt><trkpt lat="43.2494072" lon="11.3630741"><ele>224.25</ele><time>2026-04-11T11:49:50.227Z</time></trkpt><trkpt lat="43.2492846" lon="11.363133"><ele>225.5</ele><time>2026-04-11T11:49:51.228Z</time></trkpt><trkpt lat="43.2491653" lon="11.3632228"><ele>226.75</ele><time>2026-04-11T11:49:52.227Z</time></trkpt><trkpt lat="43.2490491" lon="11.363335"><ele>228.0</ele><time>2026-04-11T11:49:53.228Z</time></trkpt><trkpt lat="43.248946" lon="11.3634615"><ele>228.0</ele><time>2026-04-11T11:49:54.227Z</time></trkpt><trkpt lat="43.2488478" lon="11.3636045"><ele>228.0</ele><time>2026-04-11T11:49:55.227Z</time></trkpt><trkpt lat="43.2487533" lon="11.3637559"><ele>228.0</ele><time>2026-04-11T11:49:56.227Z</time></trkpt><trkpt lat="43.2486517" lon="11.3639184"><ele>228.0</ele><time>2026-04-11T11:49:57.227Z</time></trkpt><trkpt lat="43.2485415" lon="11.3640802"><ele>227.75</ele><time>2026-04-11T11:49:58.227Z</time></trkpt><trkpt lat="43.2484308" lon="11.364231"><ele>227.5</ele><time>2026-04-11T11:49:59.227Z</time></trkpt><trkpt lat="43.2483424" lon="11.3643618"><ele>227.25</ele><time>2026-04-11T11:50:00.228Z</time></trkpt><trkpt lat="43.2482821" lon="11.3644711"><ele>227.0</ele><time>2026-04-11T11:50:01.227Z</time></trkpt><trkpt lat="43.2482521" lon="11.3645797"><ele>226.5</ele><time>2026-04-11T11:50:02.227Z</time></trkpt><trkpt lat="43.2482365" lon="11.3647141"><ele>226.0</ele><time>2026-04-11T11:50:03.227Z</time></trkpt><trkpt lat="43.2482356" lon="11.3648744"><ele>225.5</ele><time>2026-04-11T11:50:04.229Z</time></trkpt><trkpt lat="43.2482426" lon="11.3650493"><ele>225.0</ele><time>2026-04-11T11:50:05.228Z</time></trkpt><trkpt lat="43.2482445" lon="11.365212"><ele>225.0</ele><time>2026-04-11T11:50:06.229Z</time></trkpt><trkpt lat="43.2482286" lon="11.3653587"><ele>225.0</ele><time>2026-04-11T11:50:07.229Z</time></trkpt><trkpt lat="43.2481892" lon="11.3654884"><ele>225.0</ele><time>2026-04-11T11:50:08.228Z</time></trkpt><trkpt lat="43.2481274" lon="11.3656123"><ele>225.0</ele><time>2026-04-11T11:50:09.228Z</time></trkpt><trkpt lat="43.248049" lon="11.3657292"><ele>225.0</ele><time>2026-04-11T11:50:10.228Z</time></trkpt><trkpt lat="43.2479606" lon="11.3658423"><ele>224.5</ele><time>2026-04-11T11:50:11.228Z</time></trkpt><trkpt lat="43.2478704" lon="11.3659461"><ele>224.0</ele><time>2026-04-11T11:50:12.228Z</time></trkpt><trkpt lat="43.2477708" lon="11.3660333"><ele>223.5</ele><time>2026-04-11T11:50:13.229Z</time></trkpt><trkpt lat="43.2476619" lon="11.3660941"><ele>223.0</ele><time>2026-04-11T11:50:14.229Z</time></trkpt><trkpt lat="43.2475422" lon="11.3661281"><ele>223.0</ele><time>2026-04-11T11:50:15.229Z</time></trkpt><trkpt lat="43.2473988" lon="11.3661427"><ele>223.0</ele><time>2026-04-11T11:50:16.229Z</time></trkpt><trkpt lat="43.2472499" lon="11.3661556"><ele>223.0</ele><time>2026-04-11T11:50:17.229Z</time></trkpt><trkpt lat="43.2470949" lon="11.3661867"><ele>222.33333333333331</ele><time>2026-04-11T11:50:18.228Z</time></trkpt><trkpt lat="43.2469418" lon="11.3662375"><ele>221.66666666666669</ele><time>2026-04-11T11:50:19.228Z</time></trkpt><trkpt lat="43.2467923" lon="11.3662934"><ele>221.0</ele><time>2026-04-11T11:50:20.229Z</time></trkpt><trkpt lat="43.2466433" lon="11.366351"><ele>221.5</ele><time>2026-04-11T11:50:21.228Z</time></trkpt><trkpt lat="43.246501" lon="11.3664126"><ele>222.0</ele><time>2026-04-11T11:50:22.229Z</time></trkpt><trkpt lat="43.2463704" lon="11.3664846"><ele>222.5</ele><time>2026-04-11T11:50:23.229Z</time></trkpt><trkpt lat="43.2462532" lon="11.366567"><ele>223.0</ele><time>2026-04-11T11:50:24.228Z</time></trkpt><trkpt lat="43.2461497" lon="11.3666575"><ele>223.25</ele><time>2026-04-11T11:50:25.228Z</time></trkpt><trkpt lat="43.2460531" lon="11.3667617"><ele>223.5</ele><time>2026-04-11T11:50:26.228Z</time></trkpt><trkpt lat="43.2459538" lon="11.3668789"><ele>223.75</ele><time>2026-04-11T11:50:27.228Z</time></trkpt><trkpt lat="43.2458494" lon="11.3670051"><ele>224.0</ele><time>2026-04-11T11:50:28.228Z</time></trkpt><trkpt lat="43.2457445" lon="11.3671228"><ele>223.25</ele><time>2026-04-11T11:50:29.228Z</time></trkpt><trkpt lat="43.2456323" lon="11.3672299"><ele>222.5</ele><time>2026-04-11T11:50:30.229Z</time></trkpt><trkpt lat="43.2455078" lon="11.3673303"><ele>221.75</ele><time>2026-04-11T11:50:31.228Z</time></trkpt><trkpt lat="43.2453705" lon="11.3674125"><ele>221.0</ele><time>2026-04-11T11:50:32.229Z</time></trkpt><trkpt lat="43.2452225" lon="11.367477"><ele>220.66666666666669</ele><time>2026-04-11T11:50:33.229Z</time></trkpt><trkpt lat="43.2450717" lon="11.3675264"><ele>220.33333333333331</ele><time>2026-04-11T11:50:34.229Z</time></trkpt><trkpt lat="43.2449154" lon="11.3675662"><ele>220.0</ele><time>2026-04-11T11:50:35.228Z</time></trkpt><trkpt lat="43.2447563" lon="11.367606"><ele>221.0</ele><time>2026-04-11T11:50:36.229Z</time></trkpt><trkpt lat="43.2445945" lon="11.3676505"><ele>222.0</ele><time>2026-04-11T11:50:37.228Z</time></trkpt><trkpt lat="43.2444342" lon="11.3676986"><ele>223.0</ele><time>2026-04-11T11:50:38.229Z</time></trkpt><trkpt lat="43.2442767" lon="11.3677459"><ele>223.0</ele><time>2026-04-11T11:50:39.229Z</time></trkpt><trkpt lat="43.2441265" lon="11.3677946"><ele>223.0</ele><time>2026-04-11T11:50:40.229Z</time></trkpt><trkpt lat="43.2439861" lon="11.3678436"><ele>223.0</ele><time>2026-04-11T11:50:41.229Z</time></trkpt><trkpt lat="43.2438531" lon="11.3678899"><ele>223.0</ele><time>2026-04-11T11:50:42.229Z</time></trkpt><trkpt lat="43.2437284" lon="11.3679297"><ele>222.75</ele><time>2026-04-11T11:50:43.228Z</time></trkpt><trkpt lat="43.243609" lon="11.3679627"><ele>222.5</ele><time>2026-04-11T11:50:44.229Z</time></trkpt><trkpt lat="43.243487" lon="11.3679916"><ele>222.25</ele><time>2026-04-11T11:50:45.228Z</time></trkpt><trkpt lat="43.2433604" lon="11.3680151"><ele>222.0</ele><time>2026-04-11T11:50:46.228Z</time></trkpt><trkpt lat="43.2432326" lon="11.3680381"><ele>222.0</ele><time>2026-04-11T11:50:47.229Z</time></trkpt><trkpt lat="43.2431047" lon="11.3680671"><ele>222.0</ele><time>2026-04-11T11:50:48.229Z</time></trkpt><trkpt lat="43.242979" lon="11.3681073"><ele>222.0</ele><time>2026-04-11T11:50:49.228Z</time></trkpt><trkpt lat="43.2428599" lon="11.3681589"><ele>222.0</ele><time>2026-04-11T11:50:50.228Z</time></trkpt><trkpt lat="43.2427502" lon="11.3682273"><ele>222.0</ele><time>2026-04-11T11:50:51.229Z</time></trkpt><trkpt lat="43.2426491" lon="11.3683077"><ele>222.0</ele><time>2026-04-11T11:50:52.228Z</time></trkpt><trkpt lat="43.2425519" lon="11.3683981"><ele>222.0</ele><time>2026-04-11T11:50:53.229Z</time></trkpt><trkpt lat="43.2424563" lon="11.3685018"><ele>222.0</ele><time>2026-04-11T11:50:54.228Z</time></trkpt><trkpt lat="43.242362" lon="11.3686207"><ele>222.25</ele><time>2026-04-11T11:50:55.228Z</time></trkpt><trkpt lat="43.2422648" lon="11.3687483"><ele>222.5</ele><time>2026-04-11T11:50:56.229Z</time></trkpt><trkpt lat="43.2421654" lon="11.3688844"><ele>222.75</ele><time>2026-04-11T11:50:57.229Z</time></trkpt><trkpt lat="43.2420658" lon="11.369027"><ele>223.0</ele><time>2026-04-11T11:50:58.229Z</time></trkpt><trkpt lat="43.241962" lon="11.3691799"><ele>222.0</ele><time>2026-04-11T11:50:59.229Z</time></trkpt><trkpt lat="43.2418537" lon="11.3693334"><ele>221.0</ele><time>2026-04-11T11:51:00.228Z</time></trkpt><trkpt lat="43.2417399" lon="11.3694786"><ele>220.0</ele><time>2026-04-11T11:51:01.229Z</time></trkpt><trkpt lat="43.2416199" lon="11.3696212"><ele>219.0</ele><time>2026-04-11T11:51:02.228Z</time></trkpt><trkpt lat="43.2414967" lon="11.3697608"><ele>218.0</ele><time>2026-04-11T11:51:03.229Z</time></trkpt><trkpt lat="43.241372" lon="11.3698949"><ele>217.0</ele><time>2026-04-11T11:51:04.228Z</time></trkpt><trkpt lat="43.2412435" lon="11.3700264"><ele>216.33333333333331</ele><time>2026-04-11T11:51:05.228Z</time></trkpt><trkpt lat="43.241111" lon="11.3701534"><ele>215.66666666666669</ele><time>2026-04-11T11:51:06.229Z</time></trkpt><trkpt lat="43.240977" lon="11.3702743"><ele>215.0</ele><time>2026-04-11T11:51:07.228Z</time></trkpt><trkpt lat="43.240846" lon="11.3703896"><ele>215.0</ele><time>2026-04-11T11:51:08.229Z</time></trkpt><trkpt lat="43.2407261" lon="11.3704994"><ele>215.0</ele><time>2026-04-11T11:51:09.229Z</time></trkpt><trkpt lat="43.2406179" lon="11.3706075"><ele>215.0</ele><time>2026-04-11T11:51:10.23Z</time></trkpt><trkpt lat="43.2405227" lon="11.3707229"><ele>215.0</ele><time>2026-04-11T11:51:11.229Z</time></trkpt><trkpt lat="43.2404311" lon="11.3708459"><ele>215.66666666666669</ele><time>2026-04-11T11:51:12.23Z</time></trkpt><trkpt lat="43.2403378" lon="11.3709883"><ele>216.33333333333331</ele><time>2026-04-11T11:51:13.23Z</time></trkpt><trkpt lat="43.2402402" lon="11.3711531"><ele>217.0</ele><time>2026-04-11T11:51:14.23Z</time></trkpt><trkpt lat="43.2401375" lon="11.3713352"><ele>216.0</ele><time>2026-04-11T11:51:15.23Z</time></trkpt><trkpt lat="43.2400338" lon="11.3715272"><ele>215.0</ele><time>2026-04-11T11:51:16.23Z</time></trkpt><trkpt lat="43.2399354" lon="11.3717187"><ele>214.0</ele><time>2026-04-11T11:51:17.229Z</time></trkpt><trkpt lat="43.2398463" lon="11.3719017"><ele>213.75</ele><time>2026-04-11T11:51:18.229Z</time></trkpt><trkpt lat="43.2397678" lon="11.3720753"><ele>213.5</ele><time>2026-04-11T11:51:19.23Z</time></trkpt><trkpt lat="43.2396981" lon="11.3722346"><ele>213.25</ele><time>2026-04-11T11:51:20.23Z</time></trkpt><trkpt lat="43.2396363" lon="11.3723755"><ele>213.0</ele><time>2026-04-11T11:51:21.229Z</time></trkpt><trkpt lat="43.2395804" lon="11.3724985"><ele>213.0</ele><time>2026-04-11T11:51:22.23Z</time></trkpt><trkpt lat="43.2395268" lon="11.3726017"><ele>213.0</ele><time>2026-04-11T11:51:23.23Z</time></trkpt><trkpt lat="43.2394672" lon="11.3726809"><ele>213.0</ele><time>2026-04-11T11:51:24.23Z</time></trkpt><trkpt lat="43.2393927" lon="11.372731"><ele>213.0</ele><time>2026-04-11T11:51:25.229Z</time></trkpt><trkpt lat="43.2392912" lon="11.3727564"><ele>213.0</ele><time>2026-04-11T11:51:26.23Z</time></trkpt><trkpt lat="43.2391651" lon="11.3727597"><ele>213.0</ele><time>2026-04-11T11:51:27.23Z</time></trkpt><trkpt lat="43.2390252" lon="11.3727478"><ele>213.0</ele><time>2026-04-11T11:51:28.23Z</time></trkpt><trkpt lat="43.23889" lon="11.3727321"><ele>213.0</ele><time>2026-04-11T11:51:29.229Z</time></trkpt><trkpt lat="43.2387704" lon="11.3727385"><ele>213.0</ele><time>2026-04-11T11:51:30.229Z</time></trkpt><trkpt lat="43.2386595" lon="11.3727751"><ele>213.0</ele><time>2026-04-11T11:51:31.229Z</time></trkpt><trkpt lat="43.2385519" lon="11.3728295"><ele>213.0</ele><time>2026-04-11T11:51:32.229Z</time></trkpt><trkpt lat="43.2384482" lon="11.3728887"><ele>213.0</ele><time>2026-04-11T11:51:33.229Z</time></trkpt><trkpt lat="43.2383575" lon="11.3729537"><ele>213.0</ele><time>2026-04-11T11:51:34.23Z</time></trkpt><trkpt lat="43.2382845" lon="11.3730215"><ele>213.0</ele><time>2026-04-11T11:51:35.23Z</time></trkpt><trkpt lat="43.2382316" lon="11.3731071"><ele>211.0</ele><time>2026-04-11T11:51:36.229Z</time></trkpt><trkpt lat="43.2382015" lon="11.3732272"><ele>209.0</ele><time>2026-04-11T11:51:37.229Z</time></trkpt><trkpt lat="43.2381891" lon="11.3733763"><ele>207.0</ele><time>2026-04-11T11:51:38.23Z</time></trkpt><trkpt lat="43.2381978" lon="11.3735469"><ele>205.0</ele><time>2026-04-11T11:51:39.231Z</time></trkpt><trkpt lat="43.2382207" lon="11.3737245"><ele>204.75</ele><time>2026-04-11T11:51:40.229Z</time></trkpt><trkpt lat="43.238243" lon="11.3739109"><ele>204.5</ele><time>2026-04-11T11:51:41.23Z</time></trkpt><trkpt lat="43.2382609" lon="11.3740979"><ele>204.25</ele><time>2026-04-11T11:51:42.229Z</time></trkpt><trkpt lat="43.2382779" lon="11.3742817"><ele>204.0</ele><time>2026-04-11T11:51:43.229Z</time></trkpt><trkpt lat="43.2382935" lon="11.3744624"><ele>204.0</ele><time>2026-04-11T11:51:44.229Z</time></trkpt><trkpt lat="43.2383056" lon="11.3746326"><ele>204.0</ele><time>2026-04-11T11:51:45.229Z</time></trkpt><trkpt lat="43.2383087" lon="11.3747914"><ele>204.0</ele><time>2026-04-11T11:51:46.229Z</time></trkpt><trkpt lat="43.2382945" lon="11.3749403"><ele>204.0</ele><time>2026-04-11T11:51:47.229Z</time></trkpt><trkpt lat="43.2382632" lon="11.3750664"><ele>204.0</ele><time>2026-04-11T11:51:48.229Z</time></trkpt><trkpt lat="43.2382139" lon="11.3751638"><ele>204.0</ele><time>2026-04-11T11:51:49.23Z</time></trkpt><trkpt lat="43.2381426" lon="11.3752455"><ele>204.0</ele><time>2026-04-11T11:51:50.229Z</time></trkpt><trkpt lat="43.2380474" lon="11.3753181"><ele>204.0</ele><time>2026-04-11T11:51:51.229Z</time></trkpt><trkpt lat="43.2379346" lon="11.3753982"><ele>204.0</ele><time>2026-04-11T11:51:52.23Z</time></trkpt><trkpt lat="43.237816" lon="11.3754875"><ele>202.75</ele><time>2026-04-11T11:51:53.229Z</time></trkpt><trkpt lat="43.2376986" lon="11.3755877"><ele>201.5</ele><time>2026-04-11T11:51:54.23Z</time></trkpt><trkpt lat="43.2375809" lon="11.3757029"><ele>200.25</ele><time>2026-04-11T11:51:55.229Z</time></trkpt><trkpt lat="43.2374652" lon="11.3758296"><ele>199.0</ele><time>2026-04-11T11:51:56.23Z</time></trkpt><trkpt lat="43.2373511" lon="11.3759569"><ele>198.25</ele><time>2026-04-11T11:51:57.23Z</time></trkpt><trkpt lat="43.2372448" lon="11.3760744"><ele>197.5</ele><time>2026-04-11T11:51:58.23Z</time></trkpt><trkpt lat="43.2371465" lon="11.3761837"><ele>196.75</ele><time>2026-04-11T11:51:59.23Z</time></trkpt><trkpt lat="43.2370543" lon="11.376285"><ele>196.0</ele><time>2026-04-11T11:52:00.229Z</time></trkpt><trkpt lat="43.2369644" lon="11.3763712"><ele>194.8</ele><time>2026-04-11T11:52:01.229Z</time></trkpt><trkpt lat="43.2368699" lon="11.3764247"><ele>193.60000000000002</ele><time>2026-04-11T11:52:02.23Z</time></trkpt><trkpt lat="43.2367646" lon="11.3764494"><ele>192.4</ele><time>2026-04-11T11:52:03.23Z</time></trkpt><trkpt lat="43.2366505" lon="11.3764394"><ele>191.2</ele><time>2026-04-11T11:52:04.229Z</time></trkpt><trkpt lat="43.2365335" lon="11.3764033"><ele>190.0</ele><time>2026-04-11T11:52:05.229Z</time></trkpt><trkpt lat="43.2364197" lon="11.3763446"><ele>189.2</ele><time>2026-04-11T11:52:06.23Z</time></trkpt><trkpt lat="43.2363316" lon="11.3762643"><ele>188.4</ele><time>2026-04-11T11:52:07.23Z</time></trkpt><trkpt lat="43.2362608" lon="11.3761496"><ele>187.60000000000002</ele><time>2026-04-11T11:52:08.23Z</time></trkpt><trkpt lat="43.2362082" lon="11.3760087"><ele>186.8</ele><time>2026-04-11T11:52:09.229Z</time></trkpt><trkpt lat="43.2361711" lon="11.3758552"><ele>186.0</ele><time>2026-04-11T11:52:10.229Z</time></trkpt><trkpt lat="43.236149" lon="11.3756886"><ele>186.0</ele><time>2026-04-11T11:52:11.23Z</time></trkpt><trkpt lat="43.2361447" lon="11.3755293"><ele>186.0</ele><time>2026-04-11T11:52:12.23Z</time></trkpt><trkpt lat="43.2361583" lon="11.3753857"><ele>186.0</ele><time>2026-04-11T11:52:13.23Z</time></trkpt><trkpt lat="43.2361898" lon="11.3752551"><ele>186.0</ele><time>2026-04-11T11:52:14.231Z</time></trkpt><trkpt lat="43.2362377" lon="11.3751258"><ele>186.0</ele><time>2026-04-11T11:52:15.231Z</time></trkpt><trkpt lat="43.2363033" lon="11.3749948"><ele>185.0</ele><time>2026-04-11T11:52:16.23Z</time></trkpt><trkpt lat="43.2363774" lon="11.3748606"><ele>184.0</ele><time>2026-04-11T11:52:17.23Z</time></trkpt><trkpt lat="43.2364481" lon="11.3747171"><ele>183.0</ele><time>2026-04-11T11:52:18.231Z</time></trkpt><trkpt lat="43.2365018" lon="11.3745601"><ele>182.0</ele><time>2026-04-11T11:52:19.23Z</time></trkpt><trkpt lat="43.2365353" lon="11.3743862"><ele>183.0</ele><time>2026-04-11T11:52:20.231Z</time></trkpt><trkpt lat="43.2365621" lon="11.3742164"><ele>184.0</ele><time>2026-04-11T11:52:21.231Z</time></trkpt><trkpt lat="43.2365848" lon="11.374061"><ele>185.0</ele><time>2026-04-11T11:52:22.23Z</time></trkpt><trkpt lat="43.2365919" lon="11.3739208"><ele>186.0</ele><time>2026-04-11T11:52:23.231Z</time></trkpt><trkpt lat="43.2365804" lon="11.3737867"><ele>187.0</ele><time>2026-04-11T11:52:24.23Z</time></trkpt><trkpt lat="43.2365437" lon="11.3736566"><ele>187.0</ele><time>2026-04-11T11:52:25.23Z</time></trkpt><trkpt lat="43.2364879" lon="11.3735367"><ele>187.0</ele><time>2026-04-11T11:52:26.23Z</time></trkpt><trkpt lat="43.236416" lon="11.3734413"><ele>187.0</ele><time>2026-04-11T11:52:27.23Z</time></trkpt><trkpt lat="43.2363286" lon="11.3733782"><ele>187.0</ele><time>2026-04-11T11:52:28.231Z</time></trkpt><trkpt lat="43.2362197" lon="11.3733467"><ele>187.0</ele><time>2026-04-11T11:52:29.23Z</time></trkpt><trkpt lat="43.2360979" lon="11.3733398"><ele>185.75</ele><time>2026-04-11T11:52:30.23Z</time></trkpt><trkpt lat="43.2359656" lon="11.3733619"><ele>184.5</ele><time>2026-04-11T11:52:31.23Z</time></trkpt><trkpt lat="43.2358199" lon="11.3734013"><ele>183.25</ele><time>2026-04-11T11:52:32.231Z</time></trkpt><trkpt lat="43.2356647" lon="11.3734343"><ele>182.0</ele><time>2026-04-11T11:52:33.23Z</time></trkpt><trkpt lat="43.235503" lon="11.3734564"><ele>180.33333333333331</ele><time>2026-04-11T11:52:34.23Z</time></trkpt><trkpt lat="43.2353352" lon="11.373472"><ele>178.66666666666666</ele><time>2026-04-11T11:52:35.231Z</time></trkpt><trkpt lat="43.2351618" lon="11.3734882"><ele>177.0</ele><time>2026-04-11T11:52:36.231Z</time></trkpt><trkpt lat="43.2349805" lon="11.3735085"><ele>177.33333333333334</ele><time>2026-04-11T11:52:37.23Z</time></trkpt><trkpt lat="43.2347965" lon="11.3735298"><ele>177.66666666666669</ele><time>2026-04-11T11:52:38.231Z</time></trkpt><trkpt lat="43.2346134" lon="11.3735482"><ele>178.0</ele><time>2026-04-11T11:52:39.23Z</time></trkpt><trkpt lat="43.2344356" lon="11.3735641"><ele>178.0</ele><time>2026-04-11T11:52:40.231Z</time></trkpt><trkpt lat="43.2342734" lon="11.3735759"><ele>178.0</ele><time>2026-04-11T11:52:41.231Z</time></trkpt><trkpt lat="43.2341254" lon="11.3735892"><ele>178.0</ele><time>2026-04-11T11:52:42.231Z</time></trkpt><trkpt lat="43.2339926" lon="11.3736004"><ele>178.0</ele><time>2026-04-11T11:52:43.231Z</time></trkpt><trkpt lat="43.2338713" lon="11.3736095"><ele>178.25</ele><time>2026-04-11T11:52:44.231Z</time></trkpt><trkpt lat="43.2337533" lon="11.3736272"><ele>178.5</ele><time>2026-04-11T11:52:45.23Z</time></trkpt><trkpt lat="43.2336245" lon="11.3736795"><ele>178.75</ele><time>2026-04-11T11:52:46.23Z</time></trkpt><trkpt lat="43.2334783" lon="11.37377"><ele>179.0</ele><time>2026-04-11T11:52:47.231Z</time></trkpt><trkpt lat="43.2333194" lon="11.3738897"><ele>179.0</ele><time>2026-04-11T11:52:48.231Z</time></trkpt><trkpt lat="43.2331476" lon="11.3740196"><ele>179.0</ele><time>2026-04-11T11:52:49.231Z</time></trkpt><trkpt lat="43.2329785" lon="11.3741444"><ele>179.0</ele><time>2026-04-11T11:52:50.23Z</time></trkpt><trkpt lat="43.2328027" lon="11.3742725"><ele>179.0</ele><time>2026-04-11T11:52:51.23Z</time></trkpt><trkpt lat="43.2326205" lon="11.3744045"><ele>179.0</ele><time>2026-04-11T11:52:52.231Z</time></trkpt><trkpt lat="43.2324348" lon="11.3745381"><ele>179.0</ele><time>2026-04-11T11:52:53.23Z</time></trkpt><trkpt lat="43.2322529" lon="11.3746674"><ele>179.0</ele><time>2026-04-11T11:52:54.231Z</time></trkpt><trkpt lat="43.2320795" lon="11.3747856"><ele>179.0</ele><time>2026-04-11T11:52:55.231Z</time></trkpt><trkpt lat="43.2319108" lon="11.3749008"><ele>179.0</ele><time>2026-04-11T11:52:56.23Z</time></trkpt><trkpt lat="43.2317487" lon="11.3750157"><ele>179.0</ele><time>2026-04-11T11:52:57.231Z</time></trkpt><trkpt lat="43.2315949" lon="11.3751286"><ele>179.0</ele><time>2026-04-11T11:52:58.231Z</time></trkpt><trkpt lat="43.2314546" lon="11.3752651"><ele>179.0</ele><time>2026-04-11T11:52:59.23Z</time></trkpt><trkpt lat="43.2313042" lon="11.3753829"><ele>179.0</ele><time>2026-04-11T11:53:00.23Z</time></trkpt><trkpt lat="43.2311541" lon="11.3754914"><ele>179.0</ele><time>2026-04-11T11:53:01.231Z</time></trkpt><trkpt lat="43.2310083" lon="11.3755961"><ele>179.0</ele><time>2026-04-11T11:53:02.231Z</time></trkpt><trkpt lat="43.2308667" lon="11.3756978"><ele>179.0</ele><time>2026-04-11T11:53:03.23Z</time></trkpt><trkpt lat="43.2307279" lon="11.3757922"><ele>179.0</ele><time>2026-04-11T11:53:04.23Z</time></trkpt><trkpt lat="43.2305881" lon="11.375893"><ele>179.0</ele><time>2026-04-11T11:53:05.231Z</time></trkpt><trkpt lat="43.2304582" lon="11.375993"><ele>179.25</ele><time>2026-04-11T11:53:06.231Z</time></trkpt><trkpt lat="43.2303303" lon="11.3760853"><ele>179.5</ele><time>2026-04-11T11:53:07.23Z</time></trkpt><trkpt lat="43.2302058" lon="11.3761789"><ele>179.75</ele><time>2026-04-11T11:53:08.23Z</time></trkpt><trkpt lat="43.2300812" lon="11.376269"><ele>180.0</ele><time>2026-04-11T11:53:09.231Z</time></trkpt><trkpt lat="43.2299559" lon="11.3763661"><ele>180.0</ele><time>2026-04-11T11:53:10.23Z</time></trkpt><trkpt lat="43.2298385" lon="11.3764597"><ele>180.0</ele><time>2026-04-11T11:53:11.231Z</time></trkpt><trkpt lat="43.2297298" lon="11.376544"><ele>180.0</ele><time>2026-04-11T11:53:12.231Z</time></trkpt><trkpt lat="43.2296292" lon="11.3766307"><ele>180.0</ele><time>2026-04-11T11:53:13.23Z</time></trkpt><trkpt lat="43.2295402" lon="11.3767093"><ele>181.2</ele><time>2026-04-11T11:53:14.23Z</time></trkpt><trkpt lat="43.229451" lon="11.376787"><ele>182.4</ele><time>2026-04-11T11:53:15.231Z</time></trkpt><trkpt lat="43.2293628" lon="11.3768656"><ele>183.60000000000002</ele><time>2026-04-11T11:53:16.231Z</time></trkpt><trkpt lat="43.2292699" lon="11.3769472"><ele>184.8</ele><time>2026-04-11T11:53:17.231Z</time></trkpt><trkpt lat="43.2291682" lon="11.3770217"><ele>186.0</ele><time>2026-04-11T11:53:18.23Z</time></trkpt><trkpt lat="43.2290598" lon="11.3770968"><ele>187.0</ele><time>2026-04-11T11:53:19.231Z</time></trkpt><trkpt lat="43.2289339" lon="11.3771629"><ele>188.0</ele><time>2026-04-11T11:53:20.231Z</time></trkpt><trkpt lat="43.2287975" lon="11.3772275"><ele>189.0</ele><time>2026-04-11T11:53:21.232Z</time></trkpt><trkpt lat="43.2286521" lon="11.3772762"><ele>190.0</ele><time>2026-04-11T11:53:22.232Z</time></trkpt><trkpt lat="43.228509" lon="11.377314"><ele>186.0</ele><time>2026-04-11T11:53:23.232Z</time></trkpt><trkpt lat="43.2283581" lon="11.3773317"><ele>182.0</ele><time>2026-04-11T11:53:24.231Z</time></trkpt><trkpt lat="43.2281922" lon="11.3773442"><ele>178.0</ele><time>2026-04-11T11:53:25.232Z</time></trkpt><trkpt lat="43.228023" lon="11.377351"><ele>178.0</ele><time>2026-04-11T11:53:26.232Z</time></trkpt><trkpt lat="43.2278696" lon="11.3773641"><ele>178.0</ele><time>2026-04-11T11:53:27.231Z</time></trkpt><trkpt lat="43.2277164" lon="11.377376"><ele>178.0</ele><time>2026-04-11T11:53:28.232Z</time></trkpt><trkpt lat="43.2275769" lon="11.3773627"><ele>178.0</ele><time>2026-04-11T11:53:29.231Z</time></trkpt><trkpt lat="43.2274288" lon="11.3773415"><ele>177.75</ele><time>2026-04-11T11:53:30.231Z</time></trkpt><trkpt lat="43.2272831" lon="11.3773032"><ele>177.5</ele><time>2026-04-11T11:53:31.232Z</time></trkpt><trkpt lat="43.2271388" lon="11.3772581"><ele>177.25</ele><time>2026-04-11T11:53:32.231Z</time></trkpt><trkpt lat="43.2269981" lon="11.3771768"><ele>177.0</ele><time>2026-04-11T11:53:33.231Z</time></trkpt><trkpt lat="43.2268533" lon="11.3770748"><ele>177.0</ele><time>2026-04-11T11:53:34.231Z</time></trkpt><trkpt lat="43.2267075" lon="11.3769631"><ele>177.0</ele><time>2026-04-11T11:53:35.231Z</time></trkpt><trkpt lat="43.2265772" lon="11.3768202"><ele>177.0</ele><time>2026-04-11T11:53:36.232Z</time></trkpt><trkpt lat="43.2264588" lon="11.3766904"><ele>177.0</ele><time>2026-04-11T11:53:37.232Z</time></trkpt><trkpt lat="43.2263544" lon="11.3765567"><ele>177.0</ele><time>2026-04-11T11:53:38.231Z</time></trkpt><trkpt lat="43.2262658" lon="11.3764057"><ele>177.0</ele><time>2026-04-11T11:53:39.231Z</time></trkpt><trkpt lat="43.2261848" lon="11.37625"><ele>177.0</ele><time>2026-04-11T11:53:40.232Z</time></trkpt><trkpt lat="43.2261342" lon="11.3760573"><ele>177.33333333333334</ele><time>2026-04-11T11:53:41.232Z</time></trkpt><trkpt lat="43.2260884" lon="11.3758462"><ele>177.66666666666669</ele><time>2026-04-11T11:53:42.231Z</time></trkpt><trkpt lat="43.2260511" lon="11.3756415"><ele>178.0</ele><time>2026-04-11T11:53:43.231Z</time></trkpt><trkpt lat="43.2260284" lon="11.3754444"><ele>178.0</ele><time>2026-04-11T11:53:44.231Z</time></trkpt><trkpt lat="43.2260266" lon="11.375255"><ele>178.0</ele><time>2026-04-11T11:53:45.231Z</time></trkpt><trkpt lat="43.2260457" lon="11.3750504"><ele>178.0</ele><time>2026-04-11T11:53:46.232Z</time></trkpt><trkpt lat="43.2260822" lon="11.3748273"><ele>177.66666666666669</ele><time>2026-04-11T11:53:47.232Z</time></trkpt><trkpt lat="43.2261193" lon="11.374582"><ele>177.33333333333334</ele><time>2026-04-11T11:53:48.232Z</time></trkpt><trkpt lat="43.2261502" lon="11.374327"><ele>177.0</ele><time>2026-04-11T11:53:49.232Z</time></trkpt><trkpt lat="43.2261611" lon="11.3740914"><ele>177.0</ele><time>2026-04-11T11:53:50.231Z</time></trkpt><trkpt lat="43.2261607" lon="11.3738765"><ele>177.0</ele><time>2026-04-11T11:53:51.232Z</time></trkpt><trkpt lat="43.2261445" lon="11.373681"><ele>177.0</ele><time>2026-04-11T11:53:52.231Z</time></trkpt><trkpt lat="43.2261058" lon="11.3734875"><ele>177.0</ele><time>2026-04-11T11:53:53.232Z</time></trkpt><trkpt lat="43.2260449" lon="11.3732887"><ele>177.33333333333334</ele><time>2026-04-11T11:53:54.231Z</time></trkpt><trkpt lat="43.2259693" lon="11.3730771"><ele>177.66666666666669</ele><time>2026-04-11T11:53:55.231Z</time></trkpt><trkpt lat="43.2259006" lon="11.3728655"><ele>178.0</ele><time>2026-04-11T11:53:56.232Z</time></trkpt><trkpt lat="43.2258438" lon="11.3726783"><ele>178.5</ele><time>2026-04-11T11:53:57.231Z</time></trkpt><trkpt lat="43.2257996" lon="11.3725295"><ele>179.0</ele><time>2026-04-11T11:53:58.232Z</time></trkpt><trkpt lat="43.2257588" lon="11.3724126"><ele>179.5</ele><time>2026-04-11T11:53:59.232Z</time></trkpt><trkpt lat="43.2257179" lon="11.3723172"><ele>180.0</ele><time>2026-04-11T11:54:00.231Z</time></trkpt><trkpt lat="43.2256791" lon="11.3722398"><ele>180.5</ele><time>2026-04-11T11:54:01.232Z</time></trkpt><trkpt lat="43.2256238" lon="11.3721785"><ele>181.0</ele><time>2026-04-11T11:54:02.232Z</time></trkpt><trkpt lat="43.2255521" lon="11.3721497"><ele>181.0</ele><time>2026-04-11T11:54:03.232Z</time></trkpt><trkpt lat="43.225468" lon="11.3721811"><ele>181.0</ele><time>2026-04-11T11:54:04.231Z</time></trkpt><trkpt lat="43.2253636" lon="11.3722647"><ele>181.0</ele><time>2026-04-11T11:54:05.232Z</time></trkpt><trkpt lat="43.2252998" lon="11.3723755"><ele>181.0</ele><time>2026-04-11T11:54:06.231Z</time></trkpt><trkpt lat="43.225254" lon="11.3724844"><ele>181.0</ele><time>2026-04-11T11:54:07.232Z</time></trkpt><trkpt lat="43.2252197" lon="11.3726065"><ele>180.75</ele><time>2026-04-11T11:54:08.232Z</time></trkpt><trkpt lat="43.225185" lon="11.3727458"><ele>180.5</ele><time>2026-04-11T11:54:09.231Z</time></trkpt><trkpt lat="43.2251314" lon="11.3729107"><ele>180.25</ele><time>2026-04-11T11:54:10.231Z</time></trkpt><trkpt lat="43.2250682" lon="11.3730607"><ele>180.0</ele><time>2026-04-11T11:54:11.231Z</time></trkpt><trkpt lat="43.224996" lon="11.3732117"><ele>180.0</ele><time>2026-04-11T11:54:12.231Z</time></trkpt><trkpt lat="43.2249193" lon="11.3733402"><ele>180.0</ele><time>2026-04-11T11:54:13.232Z</time></trkpt><trkpt lat="43.2248277" lon="11.3734393"><ele>180.0</ele><time>2026-04-11T11:54:14.232Z</time></trkpt><trkpt lat="43.2247327" lon="11.3735104"><ele>180.0</ele><time>2026-04-11T11:54:15.231Z</time></trkpt><trkpt lat="43.2246286" lon="11.3735558"><ele>182.0</ele><time>2026-04-11T11:54:16.231Z</time></trkpt><trkpt lat="43.224514" lon="11.3735674"><ele>184.0</ele><time>2026-04-11T11:54:17.232Z</time></trkpt><trkpt lat="43.2243925" lon="11.3735709"><ele>186.0</ele><time>2026-04-11T11:54:18.231Z</time></trkpt><trkpt lat="43.2242726" lon="11.3735674"><ele>188.0</ele><time>2026-04-11T11:54:19.232Z</time></trkpt><trkpt lat="43.2241626" lon="11.3735322"><ele>188.0</ele><time>2026-04-11T11:54:20.232Z</time></trkpt><trkpt lat="43.2240616" lon="11.3734808"><ele>188.0</ele><time>2026-04-11T11:54:21.232Z</time></trkpt><trkpt lat="43.2239752" lon="11.3734195"><ele>188.0</ele><time>2026-04-11T11:54:22.232Z</time></trkpt><trkpt lat="43.2238947" lon="11.3733349"><ele>188.0</ele><time>2026-04-11T11:54:23.232Z</time></trkpt><trkpt lat="43.2238111" lon="11.3732449"><ele>188.0</ele><time>2026-04-11T11:54:24.233Z</time></trkpt><trkpt lat="43.2237401" lon="11.3731394"><ele>191.60000000000002</ele><time>2026-04-11T11:54:25.232Z</time></trkpt><trkpt lat="43.2236782" lon="11.3730223"><ele>195.20000000000002</ele><time>2026-04-11T11:54:26.232Z</time></trkpt><trkpt lat="43.2236396" lon="11.3728932"><ele>198.8</ele><time>2026-04-11T11:54:27.233Z</time></trkpt><trkpt lat="43.2236013" lon="11.3727551"><ele>202.4</ele><time>2026-04-11T11:54:28.232Z</time></trkpt><trkpt lat="43.2235813" lon="11.372621"><ele>206.0</ele><time>2026-04-11T11:54:29.233Z</time></trkpt><trkpt lat="43.2235778" lon="11.3724837"><ele>206.0</ele><time>2026-04-11T11:54:30.233Z</time></trkpt><trkpt lat="43.2235953" lon="11.3723375"><ele>206.0</ele><time>2026-04-11T11:54:31.232Z</time></trkpt><trkpt lat="43.2236235" lon="11.3721865"><ele>206.0</ele><time>2026-04-11T11:54:32.233Z</time></trkpt><trkpt lat="43.2236449" lon="11.3720343"><ele>206.0</ele><time>2026-04-11T11:54:33.232Z</time></trkpt><trkpt lat="43.2236515" lon="11.3718866"><ele>206.0</ele><time>2026-04-11T11:54:34.233Z</time></trkpt><trkpt lat="43.2236436" lon="11.3717463"><ele>206.0</ele><time>2026-04-11T11:54:35.233Z</time></trkpt><trkpt lat="43.2236177" lon="11.3716114"><ele>206.0</ele><time>2026-04-11T11:54:36.233Z</time></trkpt><trkpt lat="43.2235656" lon="11.3714855"><ele>206.0</ele><time>2026-04-11T11:54:37.232Z</time></trkpt><trkpt lat="43.2234976" lon="11.3713733"><ele>206.0</ele><time>2026-04-11T11:54:38.233Z</time></trkpt><trkpt lat="43.2234203" lon="11.3712816"><ele>206.0</ele><time>2026-04-11T11:54:39.232Z</time></trkpt><trkpt lat="43.2233435" lon="11.3712144"><ele>205.20000000000002</ele><time>2026-04-11T11:54:40.232Z</time></trkpt><trkpt lat="43.2232673" lon="11.3711604"><ele>204.4</ele><time>2026-04-11T11:54:41.232Z</time></trkpt><trkpt lat="43.2231993" lon="11.3711395"><ele>203.6</ele><time>2026-04-11T11:54:42.233Z</time></trkpt><trkpt lat="43.223067" lon="11.3711716"><ele>202.8</ele><time>2026-04-11T11:54:44.232Z</time></trkpt><trkpt lat="43.2229833" lon="11.3712211"><ele>202.0</ele><time>2026-04-11T11:54:45.233Z</time></trkpt><trkpt lat="43.2228967" lon="11.371307"><ele>203.5</ele><time>2026-04-11T11:54:46.233Z</time></trkpt><trkpt lat="43.2228165" lon="11.3714269"><ele>205.0</ele><time>2026-04-11T11:54:47.232Z</time></trkpt><trkpt lat="43.2227445" lon="11.3715719"><ele>206.5</ele><time>2026-04-11T11:54:48.233Z</time></trkpt><trkpt lat="43.2226731" lon="11.371726"><ele>208.0</ele><time>2026-04-11T11:54:49.233Z</time></trkpt><trkpt lat="43.2226015" lon="11.3718751"><ele>208.0</ele><time>2026-04-11T11:54:50.233Z</time></trkpt><trkpt lat="43.2225289" lon="11.3720166"><ele>208.0</ele><time>2026-04-11T11:54:51.232Z</time></trkpt><trkpt lat="43.2224435" lon="11.3721566"><ele>208.0</ele><time>2026-04-11T11:54:52.233Z</time></trkpt><trkpt lat="43.2223404" lon="11.3722947"><ele>208.0</ele><time>2026-04-11T11:54:53.232Z</time></trkpt><trkpt lat="43.2222253" lon="11.372426"><ele>211.25</ele><time>2026-04-11T11:54:54.232Z</time></trkpt><trkpt lat="43.2221091" lon="11.3725397"><ele>214.5</ele><time>2026-04-11T11:54:55.233Z</time></trkpt><trkpt lat="43.2219875" lon="11.3726321"><ele>217.75</ele><time>2026-04-11T11:54:56.232Z</time></trkpt><trkpt lat="43.221861" lon="11.3726935"><ele>221.0</ele><time>2026-04-11T11:54:57.232Z</time></trkpt><trkpt lat="43.2217214" lon="11.3727334"><ele>221.0</ele><time>2026-04-11T11:54:58.233Z</time></trkpt><trkpt lat="43.2215802" lon="11.3727527"><ele>221.0</ele><time>2026-04-11T11:54:59.232Z</time></trkpt><trkpt lat="43.2214391" lon="11.3727724"><ele>221.0</ele><time>2026-04-11T11:55:00.232Z</time></trkpt><trkpt lat="43.2212944" lon="11.3727946"><ele>221.0</ele><time>2026-04-11T11:55:01.232Z</time></trkpt><trkpt lat="43.2211438" lon="11.3728198"><ele>223.0</ele><time>2026-04-11T11:55:02.233Z</time></trkpt><trkpt lat="43.2209919" lon="11.3728466"><ele>225.0</ele><time>2026-04-11T11:55:03.232Z</time></trkpt><trkpt lat="43.2208333" lon="11.3728785"><ele>227.0</ele><time>2026-04-11T11:55:04.232Z</time></trkpt><trkpt lat="43.2206731" lon="11.3729087"><ele>229.66666666666669</ele><time>2026-04-11T11:55:05.232Z</time></trkpt><trkpt lat="43.2205076" lon="11.3729386"><ele>232.33333333333331</ele><time>2026-04-11T11:55:06.233Z</time></trkpt><trkpt lat="43.2203412" lon="11.3729734"><ele>235.0</ele><time>2026-04-11T11:55:07.232Z</time></trkpt><trkpt lat="43.2201825" lon="11.3730109"><ele>233.66666666666666</ele><time>2026-04-11T11:55:08.232Z</time></trkpt><trkpt lat="43.2200247" lon="11.3730465"><ele>232.33333333333331</ele><time>2026-04-11T11:55:09.233Z</time></trkpt><trkpt lat="43.2198752" lon="11.3730799"><ele>231.0</ele><time>2026-04-11T11:55:10.232Z</time></trkpt><trkpt lat="43.219729" lon="11.3731037"><ele>234.25</ele><time>2026-04-11T11:55:11.233Z</time></trkpt><trkpt lat="43.2195887" lon="11.3731179"><ele>237.5</ele><time>2026-04-11T11:55:12.233Z</time></trkpt><trkpt lat="43.2194495" lon="11.3731231"><ele>240.75</ele><time>2026-04-11T11:55:13.233Z</time></trkpt><trkpt lat="43.2193184" lon="11.3731131"><ele>244.0</ele><time>2026-04-11T11:55:14.233Z</time></trkpt><trkpt lat="43.2191919" lon="11.3730843"><ele>244.0</ele><time>2026-04-11T11:55:15.233Z</time></trkpt><trkpt lat="43.2190596" lon="11.3730535"><ele>244.0</ele><time>2026-04-11T11:55:16.233Z</time></trkpt><trkpt lat="43.2189531" lon="11.3730227"><ele>244.0</ele><time>2026-04-11T11:55:17.232Z</time></trkpt><trkpt lat="43.2188466" lon="11.3729899"><ele>244.0</ele><time>2026-04-11T11:55:18.232Z</time></trkpt><trkpt lat="43.2187259" lon="11.3729458"><ele>246.66666666666666</ele><time>2026-04-11T11:55:19.233Z</time></trkpt><trkpt lat="43.2185865" lon="11.3728808"><ele>249.33333333333331</ele><time>2026-04-11T11:55:20.232Z</time></trkpt><trkpt lat="43.2184208" lon="11.3727879"><ele>252.0</ele><time>2026-04-11T11:55:21.234Z</time></trkpt><trkpt lat="43.2182588" lon="11.3727108"><ele>248.66666666666669</ele><time>2026-04-11T11:55:22.233Z</time></trkpt><trkpt lat="43.2181032" lon="11.3726248"><ele>245.33333333333334</ele><time>2026-04-11T11:55:23.233Z</time></trkpt><trkpt lat="43.2179605" lon="11.3725468"><ele>242.0</ele><time>2026-04-11T11:55:24.233Z</time></trkpt><trkpt lat="43.2178359" lon="11.3724793"><ele>242.0</ele><time>2026-04-11T11:55:25.233Z</time></trkpt><trkpt lat="43.2177185" lon="11.3724176"><ele>242.0</ele><time>2026-04-11T11:55:26.233Z</time></trkpt><trkpt lat="43.2176179" lon="11.3723571"><ele>242.0</ele><time>2026-04-11T11:55:27.232Z</time></trkpt><trkpt lat="43.2175349" lon="11.3723055"><ele>242.0</ele><time>2026-04-11T11:55:28.233Z</time></trkpt><trkpt lat="43.2174742" lon="11.3722686"><ele>242.0</ele><time>2026-04-11T11:55:29.234Z</time></trkpt><trkpt lat="43.2173815" lon="11.3722161"><ele>241.2</ele><time>2026-04-11T11:55:31.234Z</time></trkpt><trkpt lat="43.2172897" lon="11.3721791"><ele>240.39999999999998</ele><time>2026-04-11T11:55:33.233Z</time></trkpt><trkpt lat="43.2172192" lon="11.3721323"><ele>239.60000000000002</ele><time>2026-04-11T11:55:35.233Z</time></trkpt><trkpt lat="43.2171635" lon="11.3720832"><ele>238.8</ele><time>2026-04-11T11:56:07.234Z</time></trkpt><trkpt lat="43.2170373" lon="11.3720318"><ele>238.0</ele><time>2026-04-11T11:56:09.233Z</time></trkpt><trkpt lat="43.2169291" lon="11.3719763"><ele>238.0</ele><time>2026-04-11T11:56:10.233Z</time></trkpt><trkpt lat="43.2168107" lon="11.3719111"><ele>238.0</ele><time>2026-04-11T11:56:11.233Z</time></trkpt><trkpt lat="43.2166952" lon="11.3718484"><ele>238.0</ele><time>2026-04-11T11:56:12.233Z</time></trkpt><trkpt lat="43.2165786" lon="11.3717876"><ele>238.0</ele><time>2026-04-11T11:56:13.233Z</time></trkpt><trkpt lat="43.2164636" lon="11.3717283"><ele>239.2</ele><time>2026-04-11T11:56:14.233Z</time></trkpt><trkpt lat="43.2163556" lon="11.3716723"><ele>240.4</ele><time>2026-04-11T11:56:15.234Z</time></trkpt><trkpt lat="43.2162585" lon="11.3716231"><ele>241.59999999999997</ele><time>2026-04-11T11:56:16.234Z</time></trkpt><trkpt lat="43.2161674" lon="11.3715758"><ele>242.79999999999998</ele><time>2026-04-11T11:56:17.233Z</time></trkpt><trkpt lat="43.2160741" lon="11.3715346"><ele>244.0</ele><time>2026-04-11T11:56:18.233Z</time></trkpt><trkpt lat="43.2159828" lon="11.3714908"><ele>244.0</ele><time>2026-04-11T11:56:19.234Z</time></trkpt><trkpt lat="43.215893" lon="11.37144"><ele>243.99999999999997</ele><time>2026-04-11T11:56:20.233Z</time></trkpt><trkpt lat="43.2158072" lon="11.3713854"><ele>243.99999999999997</ele><time>2026-04-11T11:56:21.233Z</time></trkpt><trkpt lat="43.2157243" lon="11.3713186"><ele>244.0</ele><time>2026-04-11T11:56:22.234Z</time></trkpt><trkpt lat="43.2156513" lon="11.371228"><ele>244.0</ele><time>2026-04-11T11:56:23.234Z</time></trkpt><trkpt lat="43.2155747" lon="11.371133"><ele>243.0</ele><time>2026-04-11T11:56:24.234Z</time></trkpt><trkpt lat="43.2154889" lon="11.3710277"><ele>242.0</ele><time>2026-04-11T11:56:25.233Z</time></trkpt><trkpt lat="43.215396" lon="11.3709252"><ele>241.0</ele><time>2026-04-11T11:56:26.234Z</time></trkpt><trkpt lat="43.2152901" lon="11.370832"><ele>240.0</ele><time>2026-04-11T11:56:27.233Z</time></trkpt><trkpt lat="43.2151674" lon="11.3707561"><ele>240.0</ele><time>2026-04-11T11:56:28.233Z</time></trkpt><trkpt lat="43.2150347" lon="11.3706994"><ele>240.0</ele><time>2026-04-11T11:56:29.234Z</time></trkpt><trkpt lat="43.2149007" lon="11.370656"><ele>240.0</ele><time>2026-04-11T11:56:30.234Z</time></trkpt><trkpt lat="43.2147682" lon="11.3706393"><ele>240.0</ele><time>2026-04-11T11:56:31.234Z</time></trkpt><trkpt lat="43.2146408" lon="11.3706561"><ele>237.0</ele><time>2026-04-11T11:56:32.234Z</time></trkpt><trkpt lat="43.2145134" lon="11.3707203"><ele>234.0</ele><time>2026-04-11T11:56:33.233Z</time></trkpt><trkpt lat="43.2143847" lon="11.37082"><ele>231.0</ele><time>2026-04-11T11:56:34.235Z</time></trkpt><trkpt lat="43.2142486" lon="11.3709187"><ele>228.0</ele><time>2026-04-11T11:56:35.235Z</time></trkpt><trkpt lat="43.2141064" lon="11.3710226"><ele>226.0</ele><time>2026-04-11T11:56:36.234Z</time></trkpt><trkpt lat="43.2139556" lon="11.3711292"><ele>224.0</ele><time>2026-04-11T11:56:37.235Z</time></trkpt><trkpt lat="43.2138096" lon="11.3712345"><ele>222.0</ele><time>2026-04-11T11:56:38.235Z</time></trkpt><trkpt lat="43.2136774" lon="11.3713279"><ele>222.0</ele><time>2026-04-11T11:56:39.235Z</time></trkpt><trkpt lat="43.2135644" lon="11.3713974"><ele>222.0</ele><time>2026-04-11T11:56:40.235Z</time></trkpt><trkpt lat="43.213464" lon="11.3714369"><ele>222.0</ele><time>2026-04-11T11:56:41.235Z</time></trkpt><trkpt lat="43.2133643" lon="11.3714271"><ele>222.0</ele><time>2026-04-11T11:56:42.234Z</time></trkpt><trkpt lat="43.2132786" lon="11.3713625"><ele>222.0</ele><time>2026-04-11T11:56:43.235Z</time></trkpt><trkpt lat="43.2131953" lon="11.3712268"><ele>222.0</ele><time>2026-04-11T11:56:44.235Z</time></trkpt><trkpt lat="43.2131227" lon="11.3710624"><ele>222.0</ele><time>2026-04-11T11:56:45.235Z</time></trkpt><trkpt lat="43.2130673" lon="11.3709393"><ele>222.0</ele><time>2026-04-11T11:56:46.235Z</time></trkpt><trkpt lat="43.2130178" lon="11.3708204"><ele>222.0</ele><time>2026-04-11T11:56:47.235Z</time></trkpt><trkpt lat="43.2129692" lon="11.3707079"><ele>222.0</ele><time>2026-04-11T11:56:48.234Z</time></trkpt><trkpt lat="43.2129137" lon="11.3705867"><ele>223.25</ele><time>2026-04-11T11:56:49.235Z</time></trkpt><trkpt lat="43.2128529" lon="11.370452"><ele>224.5</ele><time>2026-04-11T11:56:50.235Z</time></trkpt><trkpt lat="43.2127878" lon="11.3703128"><ele>225.75</ele><time>2026-04-11T11:56:51.235Z</time></trkpt><trkpt lat="43.2127213" lon="11.3701754"><ele>227.0</ele><time>2026-04-11T11:56:52.235Z</time></trkpt><trkpt lat="43.2126477" lon="11.370034"><ele>227.0</ele><time>2026-04-11T11:56:53.235Z</time></trkpt><trkpt lat="43.2125643" lon="11.3698794"><ele>227.0</ele><time>2026-04-11T11:56:54.235Z</time></trkpt><trkpt lat="43.2124692" lon="11.3697206"><ele>227.0</ele><time>2026-04-11T11:56:55.235Z</time></trkpt><trkpt lat="43.2123721" lon="11.3695664"><ele>227.0</ele><time>2026-04-11T11:56:56.234Z</time></trkpt><trkpt lat="43.2122759" lon="11.369425"><ele>228.39999999999998</ele><time>2026-04-11T11:56:57.234Z</time></trkpt><trkpt lat="43.212185" lon="11.3692984"><ele>229.79999999999998</ele><time>2026-04-11T11:56:58.234Z</time></trkpt><trkpt lat="43.2121022" lon="11.3691853"><ele>231.2</ele><time>2026-04-11T11:56:59.235Z</time></trkpt><trkpt lat="43.2120234" lon="11.3690894"><ele>232.6</ele><time>2026-04-11T11:57:00.234Z</time></trkpt><trkpt lat="43.2119443" lon="11.3690107"><ele>234.0</ele><time>2026-04-11T11:57:01.234Z</time></trkpt><trkpt lat="43.2118552" lon="11.3689467"><ele>234.0</ele><time>2026-04-11T11:57:02.235Z</time></trkpt><trkpt lat="43.2117517" lon="11.368888"><ele>234.0</ele><time>2026-04-11T11:57:03.234Z</time></trkpt><trkpt lat="43.211636" lon="11.3688218"><ele>234.0</ele><time>2026-04-11T11:57:04.234Z</time></trkpt><trkpt lat="43.2115103" lon="11.3687535"><ele>234.0</ele><time>2026-04-11T11:57:05.234Z</time></trkpt><trkpt lat="43.2113798" lon="11.3686916"><ele>233.66666666666669</ele><time>2026-04-11T11:57:06.234Z</time></trkpt><trkpt lat="43.2112392" lon="11.3686432"><ele>233.33333333333334</ele><time>2026-04-11T11:57:07.234Z</time></trkpt><trkpt lat="43.2110908" lon="11.3686013"><ele>233.0</ele><time>2026-04-11T11:57:08.235Z</time></trkpt><trkpt lat="43.2109352" lon="11.3685601"><ele>233.0</ele><time>2026-04-11T11:57:09.235Z</time></trkpt><trkpt lat="43.2107791" lon="11.3685161"><ele>233.0</ele><time>2026-04-11T11:57:10.235Z</time></trkpt><trkpt lat="43.2106223" lon="11.3684671"><ele>233.0</ele><time>2026-04-11T11:57:11.234Z</time></trkpt><trkpt lat="43.2104641" lon="11.3684163"><ele>232.5</ele><time>2026-04-11T11:57:12.235Z</time></trkpt><trkpt lat="43.210312" lon="11.3683659"><ele>232.0</ele><time>2026-04-11T11:57:13.235Z</time></trkpt><trkpt lat="43.2101732" lon="11.3683171"><ele>231.5</ele><time>2026-04-11T11:57:14.235Z</time></trkpt><trkpt lat="43.2100483" lon="11.3682713"><ele>231.0</ele><time>2026-04-11T11:57:15.234Z</time></trkpt><trkpt lat="43.2099375" lon="11.3682328"><ele>231.0</ele><time>2026-04-11T11:57:16.234Z</time></trkpt><trkpt lat="43.2098441" lon="11.3682059"><ele>231.0</ele><time>2026-04-11T11:57:17.235Z</time></trkpt><trkpt lat="43.2097622" lon="11.3681967"><ele>231.0</ele><time>2026-04-11T11:57:18.234Z</time></trkpt><trkpt lat="43.2096834" lon="11.3682096"><ele>231.0</ele><time>2026-04-11T11:57:19.234Z</time></trkpt><trkpt lat="43.2096017" lon="11.368251"><ele>231.0</ele><time>2026-04-11T11:57:20.235Z</time></trkpt><trkpt lat="43.2095204" lon="11.3683284"><ele>231.0</ele><time>2026-04-11T11:57:21.234Z</time></trkpt><trkpt lat="43.2094496" lon="11.3684378"><ele>233.0</ele><time>2026-04-11T11:57:22.235Z</time></trkpt><trkpt lat="43.2093757" lon="11.3685829"><ele>235.0</ele><time>2026-04-11T11:57:23.235Z</time></trkpt><trkpt lat="43.2092857" lon="11.3687486"><ele>237.0</ele><time>2026-04-11T11:57:24.234Z</time></trkpt><trkpt lat="43.2091851" lon="11.3689226"><ele>239.0</ele><time>2026-04-11T11:57:25.235Z</time></trkpt><trkpt lat="43.2090678" lon="11.3691039"><ele>247.33333333333334</ele><time>2026-04-11T11:57:26.235Z</time></trkpt><trkpt lat="43.2089449" lon="11.3692818"><ele>255.66666666666669</ele><time>2026-04-11T11:57:27.235Z</time></trkpt><trkpt lat="43.2088209" lon="11.3694537"><ele>264.0</ele><time>2026-04-11T11:57:28.235Z</time></trkpt><trkpt lat="43.2086975" lon="11.369623"><ele>260.3333333333333</ele><time>2026-04-11T11:57:29.234Z</time></trkpt><trkpt lat="43.2085717" lon="11.3697985"><ele>256.66666666666663</ele><time>2026-04-11T11:57:30.235Z</time></trkpt><trkpt lat="43.2084489" lon="11.3699792"><ele>253.0</ele><time>2026-04-11T11:57:31.234Z</time></trkpt><trkpt lat="43.2083213" lon="11.3701604"><ele>253.0</ele><time>2026-04-11T11:57:32.235Z</time></trkpt><trkpt lat="43.208196" lon="11.3703403"><ele>253.0</ele><time>2026-04-11T11:57:33.235Z</time></trkpt><trkpt lat="43.2080721" lon="11.3705143"><ele>253.0</ele><time>2026-04-11T11:57:34.235Z</time></trkpt><trkpt lat="43.2079449" lon="11.3706901"><ele>258.66666666666663</ele><time>2026-04-11T11:57:35.236Z</time></trkpt><trkpt lat="43.2078259" lon="11.3708544"><ele>264.3333333333333</ele><time>2026-04-11T11:57:36.235Z</time></trkpt><trkpt lat="43.2077206" lon="11.3710248"><ele>270.0</ele><time>2026-04-11T11:57:37.235Z</time></trkpt><trkpt lat="43.2076182" lon="11.3711887"><ele>270.0</ele><time>2026-04-11T11:57:38.234Z</time></trkpt><trkpt lat="43.2075117" lon="11.3713346"><ele>270.0</ele><time>2026-04-11T11:57:39.236Z</time></trkpt><trkpt lat="43.2074191" lon="11.3714677"><ele>270.0</ele><time>2026-04-11T11:57:40.235Z</time></trkpt><trkpt lat="43.207333" lon="11.3715929"><ele>270.0</ele><time>2026-04-11T11:57:41.235Z</time></trkpt><trkpt lat="43.2072402" lon="11.3717151"><ele>270.25</ele><time>2026-04-11T11:57:42.235Z</time></trkpt><trkpt lat="43.2071646" lon="11.3718537"><ele>270.5</ele><time>2026-04-11T11:57:43.235Z</time></trkpt><trkpt lat="43.2070856" lon="11.3720044"><ele>270.75</ele><time>2026-04-11T11:57:44.235Z</time></trkpt><trkpt lat="43.2070105" lon="11.37217"><ele>271.0</ele><time>2026-04-11T11:57:45.235Z</time></trkpt><trkpt lat="43.2069323" lon="11.3723224"><ele>271.0</ele><time>2026-04-11T11:57:46.235Z</time></trkpt><trkpt lat="43.2068493" lon="11.3724609"><ele>271.0</ele><time>2026-04-11T11:57:47.236Z</time></trkpt><trkpt lat="43.2067608" lon="11.3725939"><ele>271.0</ele><time>2026-04-11T11:57:48.235Z</time></trkpt><trkpt lat="43.2066626" lon="11.3727113"><ele>271.0</ele><time>2026-04-11T11:57:49.236Z</time></trkpt><trkpt lat="43.2065603" lon="11.3728304"><ele>270.0</ele><time>2026-04-11T11:57:50.235Z</time></trkpt><trkpt lat="43.2064504" lon="11.3729266"><ele>269.0</ele><time>2026-04-11T11:57:51.235Z</time></trkpt><trkpt lat="43.2063294" lon="11.3730191"><ele>268.0</ele><time>2026-04-11T11:57:52.235Z</time></trkpt><trkpt lat="43.2062001" lon="11.3731121"><ele>267.0</ele><time>2026-04-11T11:57:53.236Z</time></trkpt><trkpt lat="43.2060644" lon="11.3731992"><ele>267.0</ele><time>2026-04-11T11:57:54.236Z</time></trkpt><trkpt lat="43.2059252" lon="11.3732929"><ele>267.0</ele><time>2026-04-11T11:57:55.235Z</time></trkpt><trkpt lat="43.2057947" lon="11.3733867"><ele>267.0</ele><time>2026-04-11T11:57:56.235Z</time></trkpt><trkpt lat="43.2056705" lon="11.3734879"><ele>267.0</ele><time>2026-04-11T11:57:57.235Z</time></trkpt><trkpt lat="43.205559" lon="11.3735941"><ele>267.2</ele><time>2026-04-11T11:57:58.236Z</time></trkpt><trkpt lat="43.2054616" lon="11.3736862"><ele>267.4</ele><time>2026-04-11T11:57:59.235Z</time></trkpt><trkpt lat="43.2053661" lon="11.373773"><ele>267.6</ele><time>2026-04-11T11:58:00.236Z</time></trkpt><trkpt lat="43.2052715" lon="11.3738395"><ele>267.8</ele><time>2026-04-11T11:58:01.235Z</time></trkpt><trkpt lat="43.2051848" lon="11.3738665"><ele>268.0</ele><time>2026-04-11T11:58:02.235Z</time></trkpt><trkpt lat="43.2050761" lon="11.3738606"><ele>268.0</ele><time>2026-04-11T11:58:03.236Z</time></trkpt><trkpt lat="43.2049497" lon="11.3738277"><ele>268.0</ele><time>2026-04-11T11:58:04.235Z</time></trkpt><trkpt lat="43.2048063" lon="11.3738004"><ele>268.0</ele><time>2026-04-11T11:58:05.235Z</time></trkpt><trkpt lat="43.204661" lon="11.3737972"><ele>268.0</ele><time>2026-04-11T11:58:06.235Z</time></trkpt><trkpt lat="43.2045113" lon="11.373827"><ele>265.5</ele><time>2026-04-11T11:58:07.235Z</time></trkpt><trkpt lat="43.204362" lon="11.373879"><ele>263.0</ele><time>2026-04-11T11:58:08.236Z</time></trkpt><trkpt lat="43.2042172" lon="11.3739345"><ele>260.5</ele><time>2026-04-11T11:58:09.236Z</time></trkpt><trkpt lat="43.2040829" lon="11.373976"><ele>258.0</ele><time>2026-04-11T11:58:10.236Z</time></trkpt><trkpt lat="43.2039487" lon="11.374012"><ele>258.0</ele><time>2026-04-11T11:58:11.235Z</time></trkpt><trkpt lat="43.2038184" lon="11.3740501"><ele>258.0</ele><time>2026-04-11T11:58:12.235Z</time></trkpt><trkpt lat="43.2036823" lon="11.3741085"><ele>258.0</ele><time>2026-04-11T11:58:13.236Z</time></trkpt><trkpt lat="43.2035685" lon="11.3741991"><ele>258.0</ele><time>2026-04-11T11:58:14.236Z</time></trkpt><trkpt lat="43.2034594" lon="11.3743187"><ele>258.0</ele><time>2026-04-11T11:58:15.235Z</time></trkpt><trkpt lat="43.203347" lon="11.3744502"><ele>258.0</ele><time>2026-04-11T11:58:16.235Z</time></trkpt><trkpt lat="43.2032315" lon="11.3745473"><ele>258.0</ele><time>2026-04-11T11:58:17.236Z</time></trkpt><trkpt lat="43.2030918" lon="11.3746292"><ele>258.0</ele><time>2026-04-11T11:58:18.236Z</time></trkpt><trkpt lat="43.2029529" lon="11.3746675"><ele>256.0</ele><time>2026-04-11T11:58:19.235Z</time></trkpt><trkpt lat="43.2027989" lon="11.3747068"><ele>254.0</ele><time>2026-04-11T11:58:20.235Z</time></trkpt><trkpt lat="43.2026295" lon="11.3747474"><ele>252.0</ele><time>2026-04-11T11:58:21.236Z</time></trkpt><trkpt lat="43.2024639" lon="11.374784"><ele>256.6666666666667</ele><time>2026-04-11T11:58:22.235Z</time></trkpt><trkpt lat="43.202289" lon="11.3748213"><ele>261.33333333333337</ele><time>2026-04-11T11:58:23.235Z</time></trkpt><trkpt lat="43.2021235" lon="11.3748565"><ele>266.0</ele><time>2026-04-11T11:58:24.235Z</time></trkpt><trkpt lat="43.2019666" lon="11.3748908"><ele>266.0</ele><time>2026-04-11T11:58:25.236Z</time></trkpt><trkpt lat="43.2018218" lon="11.3749355"><ele>266.0</ele><time>2026-04-11T11:58:26.235Z</time></trkpt><trkpt lat="43.2016895" lon="11.3750022"><ele>266.0</ele><time>2026-04-11T11:58:27.235Z</time></trkpt><trkpt lat="43.2015657" lon="11.3750908"><ele>266.0</ele><time>2026-04-11T11:58:28.236Z</time></trkpt><trkpt lat="43.2014416" lon="11.3751861"><ele>267.0</ele><time>2026-04-11T11:58:29.236Z</time></trkpt><trkpt lat="43.2013286" lon="11.3752716"><ele>268.0</ele><time>2026-04-11T11:58:30.236Z</time></trkpt><trkpt lat="43.2012437" lon="11.375342"><ele>269.0</ele><time>2026-04-11T11:58:31.235Z</time></trkpt><trkpt lat="43.2011587" lon="11.3753973"><ele>270.0</ele><time>2026-04-11T11:58:32.236Z</time></trkpt><trkpt lat="43.2010889" lon="11.3754336"><ele>271.0</ele><time>2026-04-11T11:58:33.235Z</time></trkpt><trkpt lat="43.2009769" lon="11.3754535"><ele>271.0</ele><time>2026-04-11T11:58:35.236Z</time></trkpt><trkpt lat="43.2008985" lon="11.3753975"><ele>271.0</ele><time>2026-04-11T11:58:38.235Z</time></trkpt><trkpt lat="43.2008387" lon="11.3753563"><ele>271.0</ele><time>2026-04-11T11:58:40.236Z</time></trkpt><trkpt lat="43.200727" lon="11.375303"><ele>271.0</ele><time>2026-04-11T11:58:42.236Z</time></trkpt><trkpt lat="43.2006442" lon="11.375248"><ele>271.0</ele><time>2026-04-11T11:58:43.236Z</time></trkpt><trkpt lat="43.2005594" lon="11.3751845"><ele>268.85714285714283</ele><time>2026-04-11T11:58:44.236Z</time></trkpt><trkpt lat="43.2004855" lon="11.3751294"><ele>266.7142857142857</ele><time>2026-04-11T11:58:45.237Z</time></trkpt><trkpt lat="43.2004212" lon="11.3750867"><ele>264.57142857142856</ele><time>2026-04-11T11:58:46.237Z</time></trkpt><trkpt lat="43.2003603" lon="11.3750474"><ele>262.42857142857144</ele><time>2026-04-11T11:58:47.236Z</time></trkpt><trkpt lat="43.2002958" lon="11.3750099"><ele>260.2857142857143</ele><time>2026-04-11T11:58:48.236Z</time></trkpt><trkpt lat="43.2002309" lon="11.3749748"><ele>258.1428571428571</ele><time>2026-04-11T11:58:49.236Z</time></trkpt><trkpt lat="43.2001629" lon="11.374953"><ele>256.0</ele><time>2026-04-11T11:58:50.237Z</time></trkpt><trkpt lat="43.2000466" lon="11.3749849"><ele>256.0</ele><time>2026-04-11T11:58:52.237Z</time></trkpt><trkpt lat="43.1999935" lon="11.3750697"><ele>256.0</ele><time>2026-04-11T11:58:53.237Z</time></trkpt><trkpt lat="43.1999462" lon="11.3751785"><ele>256.0</ele><time>2026-04-11T11:58:54.236Z</time></trkpt><trkpt lat="43.1999031" lon="11.3753074"><ele>256.0</ele><time>2026-04-11T11:58:55.236Z</time></trkpt><trkpt lat="43.199853" lon="11.3754386"><ele>256.0</ele><time>2026-04-11T11:58:56.236Z</time></trkpt><trkpt lat="43.1997921" lon="11.3755666"><ele>253.0</ele><time>2026-04-11T11:58:57.237Z</time></trkpt><trkpt lat="43.199708" lon="11.3756949"><ele>250.0</ele><time>2026-04-11T11:58:58.236Z</time></trkpt><trkpt lat="43.199613" lon="11.3758012"><ele>247.0</ele><time>2026-04-11T11:58:59.237Z</time></trkpt><trkpt lat="43.1995141" lon="11.3759041"><ele>244.0</ele><time>2026-04-11T11:59:00.236Z</time></trkpt><trkpt lat="43.19942" lon="11.3760074"><ele>244.0</ele><time>2026-04-11T11:59:01.237Z</time></trkpt><trkpt lat="43.1993201" lon="11.3761098"><ele>244.0</ele><time>2026-04-11T11:59:02.236Z</time></trkpt><trkpt lat="43.1992112" lon="11.3761979"><ele>244.0</ele><time>2026-04-11T11:59:03.237Z</time></trkpt><trkpt lat="43.1990857" lon="11.3762586"><ele>244.0</ele><time>2026-04-11T11:59:04.236Z</time></trkpt><trkpt lat="43.1989512" lon="11.3762849"><ele>243.0</ele><time>2026-04-11T11:59:05.237Z</time></trkpt><trkpt lat="43.1988169" lon="11.3762923"><ele>242.0</ele><time>2026-04-11T11:59:06.237Z</time></trkpt><trkpt lat="43.1986834" lon="11.3763047"><ele>241.0</ele><time>2026-04-11T11:59:07.236Z</time></trkpt><trkpt lat="43.1985516" lon="11.3763332"><ele>240.0</ele><time>2026-04-11T11:59:08.236Z</time></trkpt><trkpt lat="43.1984188" lon="11.3763823"><ele>240.0</ele><time>2026-04-11T11:59:09.237Z</time></trkpt><trkpt lat="43.1983047" lon="11.3764627"><ele>240.0</ele><time>2026-04-11T11:59:10.237Z</time></trkpt><trkpt lat="43.1982052" lon="11.3765608"><ele>240.0</ele><time>2026-04-11T11:59:11.236Z</time></trkpt><trkpt lat="43.1981145" lon="11.3766729"><ele>240.0</ele><time>2026-04-11T11:59:12.236Z</time></trkpt><trkpt lat="43.1980231" lon="11.3767963"><ele>240.0</ele><time>2026-04-11T11:59:13.236Z</time></trkpt><trkpt lat="43.1979233" lon="11.3769171"><ele>240.0</ele><time>2026-04-11T11:59:14.237Z</time></trkpt><trkpt lat="43.1978089" lon="11.377026"><ele>240.0</ele><time>2026-04-11T11:59:15.236Z</time></trkpt><trkpt lat="43.1976809" lon="11.3771225"><ele>240.0</ele><time>2026-04-11T11:59:16.236Z</time></trkpt><trkpt lat="43.1975398" lon="11.3772138"><ele>240.0</ele><time>2026-04-11T11:59:17.236Z</time></trkpt><trkpt lat="43.1973907" lon="11.3773099"><ele>240.0</ele><time>2026-04-11T11:59:18.236Z</time></trkpt><trkpt lat="43.1972433" lon="11.3774049"><ele>240.0</ele><time>2026-04-11T11:59:19.237Z</time></trkpt><trkpt lat="43.1971043" lon="11.3774928"><ele>238.0</ele><time>2026-04-11T11:59:20.237Z</time></trkpt><trkpt lat="43.1969842" lon="11.3775691"><ele>236.0</ele><time>2026-04-11T11:59:21.236Z</time></trkpt><trkpt lat="43.1968734" lon="11.377642"><ele>234.0</ele><time>2026-04-11T11:59:22.236Z</time></trkpt><trkpt lat="43.196764" lon="11.3777187"><ele>232.0</ele><time>2026-04-11T11:59:23.236Z</time></trkpt><trkpt lat="43.1966485" lon="11.3778041"><ele>232.0</ele><time>2026-04-11T11:59:24.236Z</time></trkpt><trkpt lat="43.1965262" lon="11.3778959"><ele>232.0</ele><time>2026-04-11T11:59:25.236Z</time></trkpt><trkpt lat="43.1963951" lon="11.3779934"><ele>232.0</ele><time>2026-04-11T11:59:26.236Z</time></trkpt><trkpt lat="43.1962601" lon="11.3780849"><ele>232.0</ele><time>2026-04-11T11:59:27.237Z</time></trkpt><trkpt lat="43.1961251" lon="11.3781677"><ele>232.5</ele><time>2026-04-11T11:59:28.237Z</time></trkpt><trkpt lat="43.1959911" lon="11.3782462"><ele>233.0</ele><time>2026-04-11T11:59:29.236Z</time></trkpt><trkpt lat="43.195858" lon="11.3783196"><ele>233.5</ele><time>2026-04-11T11:59:30.236Z</time></trkpt><trkpt lat="43.1957229" lon="11.3783869"><ele>234.0</ele><time>2026-04-11T11:59:31.236Z</time></trkpt><trkpt lat="43.1955939" lon="11.3784424"><ele>233.2</ele><time>2026-04-11T11:59:32.237Z</time></trkpt><trkpt lat="43.1954773" lon="11.378491"><ele>232.39999999999998</ele><time>2026-04-11T11:59:33.237Z</time></trkpt><trkpt lat="43.1953852" lon="11.3785245"><ele>231.6</ele><time>2026-04-11T11:59:34.237Z</time></trkpt><trkpt lat="43.195304" lon="11.3785699"><ele>230.8</ele><time>2026-04-11T11:59:35.237Z</time></trkpt><trkpt lat="43.1952237" lon="11.3786395"><ele>230.0</ele><time>2026-04-11T11:59:36.237Z</time></trkpt><trkpt lat="43.1951333" lon="11.3787335"><ele>230.75</ele><time>2026-04-11T11:59:37.237Z</time></trkpt><trkpt lat="43.195037" lon="11.3788597"><ele>231.5</ele><time>2026-04-11T11:59:38.237Z</time></trkpt><trkpt lat="43.1949437" lon="11.3789973"><ele>232.25</ele><time>2026-04-11T11:59:39.237Z</time></trkpt><trkpt lat="43.1948534" lon="11.3791419"><ele>233.0</ele><time>2026-04-11T11:59:40.236Z</time></trkpt><trkpt lat="43.1947733" lon="11.3792872"><ele>231.5</ele><time>2026-04-11T11:59:41.237Z</time></trkpt><trkpt lat="43.19471" lon="11.3794214"><ele>230.0</ele><time>2026-04-11T11:59:42.236Z</time></trkpt><trkpt lat="43.1946626" lon="11.3795532"><ele>228.5</ele><time>2026-04-11T11:59:43.237Z</time></trkpt><trkpt lat="43.194615" lon="11.3797148"><ele>227.0</ele><time>2026-04-11T11:59:44.237Z</time></trkpt><trkpt lat="43.1945704" lon="11.3799056"><ele>227.0</ele><time>2026-04-11T11:59:45.236Z</time></trkpt><trkpt lat="43.194536" lon="11.3801243"><ele>227.0</ele><time>2026-04-11T11:59:46.237Z</time></trkpt><trkpt lat="43.1945122" lon="11.380356"><ele>227.0</ele><time>2026-04-11T11:59:47.237Z</time></trkpt><trkpt lat="43.1944989" lon="11.3805822"><ele>227.25</ele><time>2026-04-11T11:59:48.238Z</time></trkpt><trkpt lat="43.1944861" lon="11.3807892"><ele>227.5</ele><time>2026-04-11T11:59:49.238Z</time></trkpt><trkpt lat="43.194466" lon="11.3809617"><ele>227.75</ele><time>2026-04-11T11:59:50.237Z</time></trkpt><trkpt lat="43.1944307" lon="11.3811131"><ele>228.0</ele><time>2026-04-11T11:59:51.237Z</time></trkpt><trkpt lat="43.1943807" lon="11.3812721"><ele>228.0</ele><time>2026-04-11T11:59:52.238Z</time></trkpt><trkpt lat="43.194317" lon="11.3814513"><ele>228.0</ele><time>2026-04-11T11:59:53.237Z</time></trkpt><trkpt lat="43.1942425" lon="11.3816465"><ele>228.0</ele><time>2026-04-11T11:59:54.237Z</time></trkpt><trkpt lat="43.1941712" lon="11.3818466"><ele>228.0</ele><time>2026-04-11T11:59:55.238Z</time></trkpt><trkpt lat="43.1940956" lon="11.3820561"><ele>228.0</ele><time>2026-04-11T11:59:56.238Z</time></trkpt><trkpt lat="43.1940199" lon="11.3822688"><ele>228.0</ele><time>2026-04-11T11:59:57.237Z</time></trkpt><trkpt lat="43.1939469" lon="11.3824762"><ele>227.5</ele><time>2026-04-11T11:59:58.238Z</time></trkpt><trkpt lat="43.1938774" lon="11.3826712"><ele>227.0</ele><time>2026-04-11T11:59:59.237Z</time></trkpt><trkpt lat="43.193813" lon="11.3828506"><ele>226.5</ele><time>2026-04-11T12:00:00.238Z</time></trkpt><trkpt lat="43.1937549" lon="11.3830118"><ele>226.0</ele><time>2026-04-11T12:00:01.238Z</time></trkpt><trkpt lat="43.1936995" lon="11.3831552"><ele>226.0</ele><time>2026-04-11T12:00:02.238Z</time></trkpt><trkpt lat="43.1936431" lon="11.3832837"><ele>226.00000000000003</ele><time>2026-04-11T12:00:03.238Z</time></trkpt><trkpt lat="43.193577" lon="11.3833963"><ele>226.00000000000003</ele><time>2026-04-11T12:00:04.238Z</time></trkpt><trkpt lat="43.1934969" lon="11.3834933"><ele>226.0</ele><time>2026-04-11T12:00:05.237Z</time></trkpt><trkpt lat="43.1934006" lon="11.3835624"><ele>226.0</ele><time>2026-04-11T12:00:06.238Z</time></trkpt><trkpt lat="43.1932808" lon="11.3836126"><ele>225.5</ele><time>2026-04-11T12:00:07.237Z</time></trkpt><trkpt lat="43.1931463" lon="11.3836603"><ele>225.0</ele><time>2026-04-11T12:00:08.238Z</time></trkpt><trkpt lat="43.1929989" lon="11.3837194"><ele>224.5</ele><time>2026-04-11T12:00:09.237Z</time></trkpt><trkpt lat="43.1928502" lon="11.3837841"><ele>224.0</ele><time>2026-04-11T12:00:10.238Z</time></trkpt><trkpt lat="43.1927044" lon="11.3838544"><ele>224.0</ele><time>2026-04-11T12:00:11.237Z</time></trkpt><trkpt lat="43.1925678" lon="11.3839194"><ele>224.0</ele><time>2026-04-11T12:00:12.237Z</time></trkpt><trkpt lat="43.1924372" lon="11.383969"><ele>224.0</ele><time>2026-04-11T12:00:13.238Z</time></trkpt><trkpt lat="43.1923073" lon="11.3840007"><ele>224.0</ele><time>2026-04-11T12:00:14.237Z</time></trkpt><trkpt lat="43.1921801" lon="11.384008"><ele>224.2</ele><time>2026-04-11T12:00:15.238Z</time></trkpt><trkpt lat="43.1920613" lon="11.3839894"><ele>224.39999999999998</ele><time>2026-04-11T12:00:16.238Z</time></trkpt><trkpt lat="43.1919491" lon="11.3839653"><ele>224.6</ele><time>2026-04-11T12:00:17.238Z</time></trkpt><trkpt lat="43.1918518" lon="11.3839567"><ele>224.8</ele><time>2026-04-11T12:00:18.238Z</time></trkpt><trkpt lat="43.1917673" lon="11.3839756"><ele>225.0</ele><time>2026-04-11T12:00:19.238Z</time></trkpt><trkpt lat="43.1916631" lon="11.3840435"><ele>225.0</ele><time>2026-04-11T12:00:20.237Z</time></trkpt><trkpt lat="43.1915651" lon="11.3841537"><ele>225.0</ele><time>2026-04-11T12:00:21.237Z</time></trkpt><trkpt lat="43.1914647" lon="11.3842893"><ele>225.0</ele><time>2026-04-11T12:00:22.238Z</time></trkpt><trkpt lat="43.1913689" lon="11.3844499"><ele>225.0</ele><time>2026-04-11T12:00:23.238Z</time></trkpt><trkpt lat="43.1912793" lon="11.3846006"><ele>226.0</ele><time>2026-04-11T12:00:24.237Z</time></trkpt><trkpt lat="43.1911761" lon="11.3847631"><ele>227.0</ele><time>2026-04-11T12:00:25.238Z</time></trkpt><trkpt lat="43.1910635" lon="11.3849242"><ele>228.0</ele><time>2026-04-11T12:00:26.237Z</time></trkpt><trkpt lat="43.1909461" lon="11.3850707"><ele>228.0</ele><time>2026-04-11T12:00:27.238Z</time></trkpt><trkpt lat="43.1908293" lon="11.3851838"><ele>228.0</ele><time>2026-04-11T12:00:28.238Z</time></trkpt><trkpt lat="43.1907058" lon="11.385288"><ele>228.0</ele><time>2026-04-11T12:00:29.238Z</time></trkpt><trkpt lat="43.1905791" lon="11.3853857"><ele>228.0</ele><time>2026-04-11T12:00:30.237Z</time></trkpt><trkpt lat="43.1904504" lon="11.385471"><ele>226.5</ele><time>2026-04-11T12:00:31.238Z</time></trkpt><trkpt lat="43.1903199" lon="11.3855453"><ele>225.0</ele><time>2026-04-11T12:00:32.237Z</time></trkpt><trkpt lat="43.1901863" lon="11.3856048"><ele>223.5</ele><time>2026-04-11T12:00:33.238Z</time></trkpt><trkpt lat="43.190034" lon="11.3856551"><ele>222.0</ele><time>2026-04-11T12:00:34.237Z</time></trkpt><trkpt lat="43.1898659" lon="11.385684"><ele>221.0</ele><time>2026-04-11T12:00:35.238Z</time></trkpt><trkpt lat="43.1896912" lon="11.3857124"><ele>220.0</ele><time>2026-04-11T12:00:36.238Z</time></trkpt><trkpt lat="43.1895109" lon="11.385748"><ele>219.0</ele><time>2026-04-11T12:00:37.238Z</time></trkpt><trkpt lat="43.1893433" lon="11.3857894"><ele>219.0</ele><time>2026-04-11T12:00:38.238Z</time></trkpt><trkpt lat="43.189185" lon="11.3858411"><ele>219.0</ele><time>2026-04-11T12:00:39.238Z</time></trkpt><trkpt lat="43.1890273" lon="11.3858869"><ele>219.0</ele><time>2026-04-11T12:00:40.238Z</time></trkpt><trkpt lat="43.1888809" lon="11.3859319"><ele>220.75</ele><time>2026-04-11T12:00:41.237Z</time></trkpt><trkpt lat="43.1887402" lon="11.3859706"><ele>222.5</ele><time>2026-04-11T12:00:42.237Z</time></trkpt><trkpt lat="43.1886098" lon="11.3859875"><ele>224.25</ele><time>2026-04-11T12:00:43.238Z</time></trkpt><trkpt lat="43.188489" lon="11.3859591"><ele>226.0</ele><time>2026-04-11T12:00:44.237Z</time></trkpt><trkpt lat="43.1883691" lon="11.3858863"><ele>226.0</ele><time>2026-04-11T12:00:45.238Z</time></trkpt><trkpt lat="43.1882584" lon="11.3857874"><ele>226.0</ele><time>2026-04-11T12:00:46.238Z</time></trkpt><trkpt lat="43.1881405" lon="11.3856684"><ele>226.0</ele><time>2026-04-11T12:00:47.237Z</time></trkpt><trkpt lat="43.1880326" lon="11.3855552"><ele>226.0</ele><time>2026-04-11T12:00:48.238Z</time></trkpt><trkpt lat="43.1879149" lon="11.3854564"><ele>229.5</ele><time>2026-04-11T12:00:49.238Z</time></trkpt><trkpt lat="43.1877896" lon="11.3853914"><ele>233.0</ele><time>2026-04-11T12:00:50.238Z</time></trkpt><trkpt lat="43.1876736" lon="11.3853405"><ele>236.5</ele><time>2026-04-11T12:00:51.237Z</time></trkpt><trkpt lat="43.1875645" lon="11.3852958"><ele>240.0</ele><time>2026-04-11T12:00:52.238Z</time></trkpt><trkpt lat="43.187457" lon="11.385256"><ele>242.0</ele><time>2026-04-11T12:00:53.239Z</time></trkpt><trkpt lat="43.1873409" lon="11.3852246"><ele>244.0</ele><time>2026-04-11T12:00:54.238Z</time></trkpt><trkpt lat="43.1872144" lon="11.3852149"><ele>246.0</ele><time>2026-04-11T12:00:55.238Z</time></trkpt><trkpt lat="43.1870768" lon="11.3852276"><ele>248.0</ele><time>2026-04-11T12:00:56.239Z</time></trkpt><trkpt lat="43.1869244" lon="11.3852571"><ele>248.0</ele><time>2026-04-11T12:00:57.239Z</time></trkpt><trkpt lat="43.1867558" lon="11.3853006"><ele>248.0</ele><time>2026-04-11T12:00:58.238Z</time></trkpt><trkpt lat="43.1865755" lon="11.3853467"><ele>248.0</ele><time>2026-04-11T12:00:59.238Z</time></trkpt><trkpt lat="43.1863939" lon="11.3853887"><ele>250.66666666666669</ele><time>2026-04-11T12:01:00.239Z</time></trkpt><trkpt lat="43.1862135" lon="11.3854145"><ele>253.33333333333331</ele><time>2026-04-11T12:01:01.238Z</time></trkpt><trkpt lat="43.1860576" lon="11.385423"><ele>256.0</ele><time>2026-04-11T12:01:02.239Z</time></trkpt><trkpt lat="43.1859266" lon="11.3854228"><ele>255.99999999999997</ele><time>2026-04-11T12:01:03.238Z</time></trkpt><trkpt lat="43.1858229" lon="11.3854178"><ele>256.0</ele><time>2026-04-11T12:01:04.239Z</time></trkpt><trkpt lat="43.1857334" lon="11.3854206"><ele>256.0</ele><time>2026-04-11T12:01:05.239Z</time></trkpt><trkpt lat="43.1856594" lon="11.3854264"><ele>256.0</ele><time>2026-04-11T12:01:06.238Z</time></trkpt><trkpt lat="43.1855829" lon="11.3854349"><ele>255.99999999999997</ele><time>2026-04-11T12:01:07.238Z</time></trkpt><trkpt lat="43.1855021" lon="11.3854328"><ele>256.0</ele><time>2026-04-11T12:01:08.239Z</time></trkpt><trkpt lat="43.1854234" lon="11.3853978"><ele>258.2</ele><time>2026-04-11T12:01:09.239Z</time></trkpt><trkpt lat="43.1853341" lon="11.3853282"><ele>260.40000000000003</ele><time>2026-04-11T12:01:10.239Z</time></trkpt><trkpt lat="43.1852461" lon="11.3852372"><ele>262.6</ele><time>2026-04-11T12:01:11.238Z</time></trkpt><trkpt lat="43.1851652" lon="11.3851362"><ele>264.8</ele><time>2026-04-11T12:01:12.239Z</time></trkpt><trkpt lat="43.1850942" lon="11.3850378"><ele>267.0</ele><time>2026-04-11T12:01:13.238Z</time></trkpt><trkpt lat="43.1850272" lon="11.384939"><ele>267.0</ele><time>2026-04-11T12:01:14.239Z</time></trkpt><trkpt lat="43.1849641" lon="11.3848419"><ele>267.0</ele><time>2026-04-11T12:01:15.238Z</time></trkpt><trkpt lat="43.184908" lon="11.3847492"><ele>267.0</ele><time>2026-04-11T12:01:16.238Z</time></trkpt><trkpt lat="43.1848534" lon="11.3846618"><ele>267.0</ele><time>2026-04-11T12:01:17.238Z</time></trkpt><trkpt lat="43.1847955" lon="11.3845723"><ele>267.0</ele><time>2026-04-11T12:01:18.239Z</time></trkpt><trkpt lat="43.1847307" lon="11.3844811"><ele>267.0</ele><time>2026-04-11T12:01:19.238Z</time></trkpt><trkpt lat="43.1846614" lon="11.3843945"><ele>268.6</ele><time>2026-04-11T12:01:20.238Z</time></trkpt><trkpt lat="43.1845862" lon="11.3843121"><ele>270.2</ele><time>2026-04-11T12:01:21.238Z</time></trkpt><trkpt lat="43.1845023" lon="11.3842235"><ele>271.8</ele><time>2026-04-11T12:01:22.238Z</time></trkpt><trkpt lat="43.1844168" lon="11.3841381"><ele>273.4</ele><time>2026-04-11T12:01:23.238Z</time></trkpt><trkpt lat="43.1843315" lon="11.3840612"><ele>275.0</ele><time>2026-04-11T12:01:24.238Z</time></trkpt><trkpt lat="43.1842477" lon="11.3839918"><ele>275.0</ele><time>2026-04-11T12:01:25.238Z</time></trkpt><trkpt lat="43.1841639" lon="11.3839275"><ele>275.0</ele><time>2026-04-11T12:01:26.238Z</time></trkpt><trkpt lat="43.184074" lon="11.3838736"><ele>275.0</ele><time>2026-04-11T12:01:27.238Z</time></trkpt><trkpt lat="43.1839739" lon="11.3838264"><ele>275.0</ele><time>2026-04-11T12:01:28.238Z</time></trkpt><trkpt lat="43.1838582" lon="11.3837834"><ele>275.0</ele><time>2026-04-11T12:01:29.238Z</time></trkpt><trkpt lat="43.1837294" lon="11.38374"><ele>274.8</ele><time>2026-04-11T12:01:30.239Z</time></trkpt><trkpt lat="43.1836025" lon="11.3836963"><ele>274.6</ele><time>2026-04-11T12:01:31.238Z</time></trkpt><trkpt lat="43.1834935" lon="11.3836609"><ele>274.4</ele><time>2026-04-11T12:01:32.238Z</time></trkpt><trkpt lat="43.1833973" lon="11.3836266"><ele>274.2</ele><time>2026-04-11T12:01:33.239Z</time></trkpt><trkpt lat="43.1833041" lon="11.3835906"><ele>274.0</ele><time>2026-04-11T12:01:34.239Z</time></trkpt><trkpt lat="43.1831966" lon="11.3835452"><ele>273.25</ele><time>2026-04-11T12:01:35.239Z</time></trkpt><trkpt lat="43.1830755" lon="11.383494"><ele>272.5</ele><time>2026-04-11T12:01:36.239Z</time></trkpt><trkpt lat="43.1829407" lon="11.3834387"><ele>271.75</ele><time>2026-04-11T12:01:37.239Z</time></trkpt><trkpt lat="43.1828003" lon="11.3833777"><ele>271.0</ele><time>2026-04-11T12:01:38.24Z</time></trkpt><trkpt lat="43.1826566" lon="11.3833092"><ele>271.0</ele><time>2026-04-11T12:01:39.239Z</time></trkpt><trkpt lat="43.1825132" lon="11.3832405"><ele>271.0</ele><time>2026-04-11T12:01:40.239Z</time></trkpt><trkpt lat="43.1823647" lon="11.3831741"><ele>271.0</ele><time>2026-04-11T12:01:41.238Z</time></trkpt><trkpt lat="43.1822179" lon="11.3831206"><ele>270.3333333333333</ele><time>2026-04-11T12:01:42.238Z</time></trkpt><trkpt lat="43.1820727" lon="11.3830796"><ele>269.6666666666667</ele><time>2026-04-11T12:01:43.238Z</time></trkpt><trkpt lat="43.1819231" lon="11.3830467"><ele>269.0</ele><time>2026-04-11T12:01:44.238Z</time></trkpt><trkpt lat="43.1817715" lon="11.3830148"><ele>268.25</ele><time>2026-04-11T12:01:45.238Z</time></trkpt><trkpt lat="43.1816241" lon="11.3829848"><ele>267.5</ele><time>2026-04-11T12:01:46.239Z</time></trkpt><trkpt lat="43.1814922" lon="11.3829561"><ele>266.75</ele><time>2026-04-11T12:01:47.238Z</time></trkpt><trkpt lat="43.1813764" lon="11.3829302"><ele>266.0</ele><time>2026-04-11T12:01:48.238Z</time></trkpt><trkpt lat="43.1812703" lon="11.3828994"><ele>266.0</ele><time>2026-04-11T12:01:49.239Z</time></trkpt><trkpt lat="43.1811716" lon="11.3828656"><ele>266.0</ele><time>2026-04-11T12:01:50.238Z</time></trkpt><trkpt lat="43.1810827" lon="11.3828241"><ele>266.0</ele><time>2026-04-11T12:01:51.238Z</time></trkpt><trkpt lat="43.1810088" lon="11.382777"><ele>266.0</ele><time>2026-04-11T12:01:52.239Z</time></trkpt><trkpt lat="43.1809537" lon="11.3827351"><ele>266.0</ele><time>2026-04-11T12:01:53.238Z</time></trkpt><trkpt lat="43.1808773" lon="11.3826862"><ele>266.0</ele><time>2026-04-11T12:01:55.239Z</time></trkpt><trkpt lat="43.1808141" lon="11.3826598"><ele>266.0</ele><time>2026-04-11T12:02:01.239Z</time></trkpt><trkpt lat="43.1806825" lon="11.382751"><ele>266.0</ele><time>2026-04-11T12:02:03.24Z</time></trkpt><trkpt lat="43.1805901" lon="11.3828687"><ele>266.0</ele><time>2026-04-11T12:02:04.239Z</time></trkpt><trkpt lat="43.1804857" lon="11.38299"><ele>266.0</ele><time>2026-04-11T12:02:05.239Z</time></trkpt><trkpt lat="43.1803658" lon="11.3831122"><ele>266.0</ele><time>2026-04-11T12:02:06.239Z</time></trkpt><trkpt lat="43.1802346" lon="11.3832399"><ele>266.0</ele><time>2026-04-11T12:02:07.239Z</time></trkpt><trkpt lat="43.1800956" lon="11.3833663"><ele>266.0</ele><time>2026-04-11T12:02:08.24Z</time></trkpt><trkpt lat="43.1799393" lon="11.3834749"><ele>265.0</ele><time>2026-04-11T12:02:09.239Z</time></trkpt><trkpt lat="43.1797656" lon="11.383569"><ele>264.0</ele><time>2026-04-11T12:02:10.24Z</time></trkpt><trkpt lat="43.1795891" lon="11.3836501"><ele>263.0</ele><time>2026-04-11T12:02:11.239Z</time></trkpt><trkpt lat="43.1794163" lon="11.3837298"><ele>263.0</ele><time>2026-04-11T12:02:12.24Z</time></trkpt><trkpt lat="43.1792476" lon="11.3838112"><ele>263.0</ele><time>2026-04-11T12:02:13.239Z</time></trkpt><trkpt lat="43.1790839" lon="11.3838976"><ele>263.0</ele><time>2026-04-11T12:02:14.24Z</time></trkpt><trkpt lat="43.1789351" lon="11.3839878"><ele>265.0</ele><time>2026-04-11T12:02:15.239Z</time></trkpt><trkpt lat="43.1787933" lon="11.3840833"><ele>267.0</ele><time>2026-04-11T12:02:16.239Z</time></trkpt><trkpt lat="43.1786579" lon="11.3842041"><ele>269.0</ele><time>2026-04-11T12:02:17.239Z</time></trkpt><trkpt lat="43.1785336" lon="11.3843627"><ele>269.0</ele><time>2026-04-11T12:02:18.239Z</time></trkpt><trkpt lat="43.1784048" lon="11.3845504"><ele>269.0</ele><time>2026-04-11T12:02:19.24Z</time></trkpt><trkpt lat="43.17828" lon="11.3847337"><ele>269.0</ele><time>2026-04-11T12:02:20.239Z</time></trkpt><trkpt lat="43.1781587" lon="11.38489"><ele>269.0</ele><time>2026-04-11T12:02:21.24Z</time></trkpt><trkpt lat="43.1780325" lon="11.3850113"><ele>269.0</ele><time>2026-04-11T12:02:22.24Z</time></trkpt><trkpt lat="43.1778929" lon="11.3851137"><ele>269.0</ele><time>2026-04-11T12:02:23.24Z</time></trkpt><trkpt lat="43.1777489" lon="11.3852138"><ele>269.0</ele><time>2026-04-11T12:02:24.239Z</time></trkpt><trkpt lat="43.1776039" lon="11.3853214"><ele>269.0</ele><time>2026-04-11T12:02:25.239Z</time></trkpt><trkpt lat="43.1774651" lon="11.3854381"><ele>269.0</ele><time>2026-04-11T12:02:26.24Z</time></trkpt><trkpt lat="43.1773434" lon="11.3855826"><ele>270.6666666666667</ele><time>2026-04-11T12:02:27.239Z</time></trkpt><trkpt lat="43.1772376" lon="11.385748"><ele>272.3333333333333</ele><time>2026-04-11T12:02:28.24Z</time></trkpt><trkpt lat="43.1771545" lon="11.3859436"><ele>274.0</ele><time>2026-04-11T12:02:29.239Z</time></trkpt><trkpt lat="43.177076" lon="11.3861585"><ele>273.3333333333333</ele><time>2026-04-11T12:02:30.239Z</time></trkpt><trkpt lat="43.1769963" lon="11.3863787"><ele>272.6666666666667</ele><time>2026-04-11T12:02:31.24Z</time></trkpt><trkpt lat="43.176911" lon="11.386604"><ele>272.0</ele><time>2026-04-11T12:02:32.24Z</time></trkpt><trkpt lat="43.1768204" lon="11.3868231"><ele>272.0</ele><time>2026-04-11T12:02:33.239Z</time></trkpt><trkpt lat="43.1767305" lon="11.3870359"><ele>272.0</ele><time>2026-04-11T12:02:34.24Z</time></trkpt><trkpt lat="43.1766457" lon="11.3872421"><ele>272.0</ele><time>2026-04-11T12:02:35.239Z</time></trkpt><trkpt lat="43.1765657" lon="11.3874434"><ele>274.0</ele><time>2026-04-11T12:02:36.239Z</time></trkpt><trkpt lat="43.1764881" lon="11.3876332"><ele>276.0</ele><time>2026-04-11T12:02:37.24Z</time></trkpt><trkpt lat="43.1764039" lon="11.3878156"><ele>278.0</ele><time>2026-04-11T12:02:38.24Z</time></trkpt><trkpt lat="43.1763011" lon="11.3879907"><ele>276.6666666666667</ele><time>2026-04-11T12:02:39.239Z</time></trkpt><trkpt lat="43.1761737" lon="11.3881513"><ele>275.3333333333333</ele><time>2026-04-11T12:02:40.24Z</time></trkpt><trkpt lat="43.176026" lon="11.3882907"><ele>274.0</ele><time>2026-04-11T12:02:41.24Z</time></trkpt><trkpt lat="43.175879" lon="11.3884111"><ele>274.0</ele><time>2026-04-11T12:02:42.239Z</time></trkpt><trkpt lat="43.1757204" lon="11.3885115"><ele>274.0</ele><time>2026-04-11T12:02:43.24Z</time></trkpt><trkpt lat="43.1755355" lon="11.3885847"><ele>274.0</ele><time>2026-04-11T12:02:44.24Z</time></trkpt><trkpt lat="43.1753439" lon="11.3886632"><ele>273.66666666666663</ele><time>2026-04-11T12:02:45.24Z</time></trkpt><trkpt lat="43.1751295" lon="11.3887389"><ele>273.3333333333333</ele><time>2026-04-11T12:02:46.239Z</time></trkpt><trkpt lat="43.1749402" lon="11.3888115"><ele>273.0</ele><time>2026-04-11T12:02:47.24Z</time></trkpt><trkpt lat="43.1747455" lon="11.3888918"><ele>275.0</ele><time>2026-04-11T12:02:48.24Z</time></trkpt><trkpt lat="43.1745573" lon="11.3889548"><ele>277.0</ele><time>2026-04-11T12:02:49.239Z</time></trkpt><trkpt lat="43.1744043" lon="11.388996"><ele>279.0</ele><time>2026-04-11T12:02:50.239Z</time></trkpt><trkpt lat="43.1742513" lon="11.3890655"><ele>279.0</ele><time>2026-04-11T12:02:51.239Z</time></trkpt><trkpt lat="43.1740945" lon="11.3891504"><ele>279.0</ele><time>2026-04-11T12:02:52.24Z</time></trkpt><trkpt lat="43.173951" lon="11.3892753"><ele>279.0</ele><time>2026-04-11T12:02:53.239Z</time></trkpt><trkpt lat="43.1738143" lon="11.3894257"><ele>280.75</ele><time>2026-04-11T12:02:54.24Z</time></trkpt><trkpt lat="43.1737028" lon="11.389602"><ele>282.5</ele><time>2026-04-11T12:02:55.239Z</time></trkpt><trkpt lat="43.1736193" lon="11.3897589"><ele>284.25</ele><time>2026-04-11T12:02:56.24Z</time></trkpt><trkpt lat="43.1735392" lon="11.3898997"><ele>286.0</ele><time>2026-04-11T12:02:57.239Z</time></trkpt><trkpt lat="43.1734639" lon="11.3900246"><ele>286.0</ele><time>2026-04-11T12:02:58.239Z</time></trkpt><trkpt lat="43.1733996" lon="11.390146"><ele>286.0</ele><time>2026-04-11T12:02:59.239Z</time></trkpt><trkpt lat="43.1733199" lon="11.3902632"><ele>286.0</ele><time>2026-04-11T12:03:00.24Z</time></trkpt><trkpt lat="43.1732483" lon="11.3903783"><ele>286.0</ele><time>2026-04-11T12:03:01.239Z</time></trkpt><trkpt lat="43.1731744" lon="11.3904782"><ele>286.0</ele><time>2026-04-11T12:03:02.24Z</time></trkpt><trkpt lat="43.1730898" lon="11.3905766"><ele>289.0</ele><time>2026-04-11T12:03:03.24Z</time></trkpt><trkpt lat="43.1730077" lon="11.3906612"><ele>292.0</ele><time>2026-04-11T12:03:04.241Z</time></trkpt><trkpt lat="43.1729108" lon="11.3907403"><ele>295.0</ele><time>2026-04-11T12:03:05.241Z</time></trkpt><trkpt lat="43.1728042" lon="11.3908096"><ele>298.0</ele><time>2026-04-11T12:03:06.241Z</time></trkpt><trkpt lat="43.1726834" lon="11.3908589"><ele>298.0</ele><time>2026-04-11T12:03:07.241Z</time></trkpt><trkpt lat="43.1725735" lon="11.3909013"><ele>298.0</ele><time>2026-04-11T12:03:08.24Z</time></trkpt><trkpt lat="43.1724578" lon="11.3909538"><ele>298.0</ele><time>2026-04-11T12:03:09.241Z</time></trkpt><trkpt lat="43.1723485" lon="11.391011"><ele>298.0</ele><time>2026-04-11T12:03:10.24Z</time></trkpt><trkpt lat="43.1722455" lon="11.3910669"><ele>299.4</ele><time>2026-04-11T12:03:11.241Z</time></trkpt><trkpt lat="43.1721423" lon="11.3911177"><ele>300.8</ele><time>2026-04-11T12:03:12.241Z</time></trkpt><trkpt lat="43.1720511" lon="11.3911585"><ele>302.2</ele><time>2026-04-11T12:03:13.241Z</time></trkpt><trkpt lat="43.171968" lon="11.3911975"><ele>303.6</ele><time>2026-04-11T12:03:14.24Z</time></trkpt><trkpt lat="43.1718954" lon="11.3912396"><ele>305.0</ele><time>2026-04-11T12:03:15.24Z</time></trkpt><trkpt lat="43.1718177" lon="11.3912651"><ele>305.0</ele><time>2026-04-11T12:03:16.241Z</time></trkpt><trkpt lat="43.171739" lon="11.3912855"><ele>305.0</ele><time>2026-04-11T12:03:17.241Z</time></trkpt><trkpt lat="43.1716719" lon="11.3913032"><ele>305.0</ele><time>2026-04-11T12:03:18.24Z</time></trkpt><trkpt lat="43.171571" lon="11.3913194"><ele>305.0</ele><time>2026-04-11T12:03:20.24Z</time></trkpt><trkpt lat="43.1714754" lon="11.3913183"><ele>305.0</ele><time>2026-04-11T12:03:22.24Z</time></trkpt><trkpt lat="43.1713614" lon="11.3913206"><ele>304.4</ele><time>2026-04-11T12:03:24.24Z</time></trkpt><trkpt lat="43.1712372" lon="11.3912846"><ele>303.8</ele><time>2026-04-11T12:03:26.241Z</time></trkpt><trkpt lat="43.1711602" lon="11.3912643"><ele>303.2</ele><time>2026-04-11T12:03:27.24Z</time></trkpt><trkpt lat="43.1710775" lon="11.3912287"><ele>302.6</ele><time>2026-04-11T12:03:28.24Z</time></trkpt><trkpt lat="43.1709857" lon="11.391175"><ele>302.0</ele><time>2026-04-11T12:03:29.241Z</time></trkpt><trkpt lat="43.1708883" lon="11.3911178"><ele>302.0</ele><time>2026-04-11T12:03:30.24Z</time></trkpt><trkpt lat="43.1707914" lon="11.3910617"><ele>302.0</ele><time>2026-04-11T12:03:31.241Z</time></trkpt><trkpt lat="43.1707052" lon="11.3910166"><ele>302.0</ele><time>2026-04-11T12:03:32.24Z</time></trkpt><trkpt lat="43.1706192" lon="11.3909669"><ele>302.0</ele><time>2026-04-11T12:03:33.241Z</time></trkpt><trkpt lat="43.1705241" lon="11.3909146"><ele>302.0</ele><time>2026-04-11T12:03:34.24Z</time></trkpt><trkpt lat="43.170445" lon="11.3908557"><ele>302.0</ele><time>2026-04-11T12:03:35.241Z</time></trkpt><trkpt lat="43.1703685" lon="11.3908017"><ele>302.0</ele><time>2026-04-11T12:03:36.241Z</time></trkpt><trkpt lat="43.1702849" lon="11.3907435"><ele>302.0</ele><time>2026-04-11T12:03:37.24Z</time></trkpt><trkpt lat="43.1701897" lon="11.3906708"><ele>302.0</ele><time>2026-04-11T12:03:38.24Z</time></trkpt><trkpt lat="43.1700931" lon="11.3905909"><ele>302.0</ele><time>2026-04-11T12:03:39.241Z</time></trkpt><trkpt lat="43.1700007" lon="11.3905136"><ele>301.75</ele><time>2026-04-11T12:03:40.241Z</time></trkpt><trkpt lat="43.1699051" lon="11.3904285"><ele>301.5</ele><time>2026-04-11T12:03:41.24Z</time></trkpt><trkpt lat="43.1698086" lon="11.3903504"><ele>301.25</ele><time>2026-04-11T12:03:42.241Z</time></trkpt><trkpt lat="43.1697011" lon="11.3902643"><ele>301.0</ele><time>2026-04-11T12:03:43.241Z</time></trkpt><trkpt lat="43.169589" lon="11.3901814"><ele>298.25</ele><time>2026-04-11T12:03:44.241Z</time></trkpt><trkpt lat="43.1694716" lon="11.3901096"><ele>295.5</ele><time>2026-04-11T12:03:45.24Z</time></trkpt><trkpt lat="43.1693541" lon="11.3900526"><ele>292.75</ele><time>2026-04-11T12:03:46.24Z</time></trkpt><trkpt lat="43.1692405" lon="11.39001"><ele>290.0</ele><time>2026-04-11T12:03:47.24Z</time></trkpt><trkpt lat="43.169128" lon="11.3899872"><ele>287.25</ele><time>2026-04-11T12:03:48.24Z</time></trkpt><trkpt lat="43.1690154" lon="11.3899743"><ele>284.5</ele><time>2026-04-11T12:03:49.24Z</time></trkpt><trkpt lat="43.1688993" lon="11.3899651"><ele>281.75</ele><time>2026-04-11T12:03:50.241Z</time></trkpt><trkpt lat="43.1687824" lon="11.3899619"><ele>279.0</ele><time>2026-04-11T12:03:51.24Z</time></trkpt><trkpt lat="43.1686621" lon="11.3899541"><ele>279.0</ele><time>2026-04-11T12:03:52.241Z</time></trkpt><trkpt lat="43.1685349" lon="11.389944"><ele>279.0</ele><time>2026-04-11T12:03:53.241Z</time></trkpt><trkpt lat="43.1684081" lon="11.3899313"><ele>279.0</ele><time>2026-04-11T12:03:54.241Z</time></trkpt><trkpt lat="43.1682872" lon="11.3899192"><ele>279.0</ele><time>2026-04-11T12:03:55.24Z</time></trkpt><trkpt lat="43.1681777" lon="11.389909"><ele>277.8</ele><time>2026-04-11T12:03:56.241Z</time></trkpt><trkpt lat="43.1680821" lon="11.3899016"><ele>276.59999999999997</ele><time>2026-04-11T12:03:57.24Z</time></trkpt><trkpt lat="43.167989" lon="11.3898961"><ele>275.4</ele><time>2026-04-11T12:03:58.24Z</time></trkpt><trkpt lat="43.1678918" lon="11.3898943"><ele>274.2</ele><time>2026-04-11T12:03:59.24Z</time></trkpt><trkpt lat="43.1677758" lon="11.3898919"><ele>273.0</ele><time>2026-04-11T12:04:00.241Z</time></trkpt><trkpt lat="43.1676381" lon="11.3898828"><ele>273.0</ele><time>2026-04-11T12:04:01.24Z</time></trkpt><trkpt lat="43.1674919" lon="11.3898712"><ele>273.0</ele><time>2026-04-11T12:04:02.24Z</time></trkpt><trkpt lat="43.1673508" lon="11.3898514"><ele>273.0</ele><time>2026-04-11T12:04:03.24Z</time></trkpt><trkpt lat="43.167225" lon="11.3898405"><ele>273.0</ele><time>2026-04-11T12:04:04.241Z</time></trkpt><trkpt lat="43.1671037" lon="11.3898347"><ele>273.25</ele><time>2026-04-11T12:04:05.241Z</time></trkpt><trkpt lat="43.1669918" lon="11.389837"><ele>273.5</ele><time>2026-04-11T12:04:06.24Z</time></trkpt><trkpt lat="43.1668904" lon="11.3898562"><ele>273.75</ele><time>2026-04-11T12:04:07.241Z</time></trkpt><trkpt lat="43.1667775" lon="11.3899065"><ele>274.0</ele><time>2026-04-11T12:04:08.241Z</time></trkpt><trkpt lat="43.1666646" lon="11.3899837"><ele>274.0</ele><time>2026-04-11T12:04:09.242Z</time></trkpt><trkpt lat="43.1665498" lon="11.3900867"><ele>274.0</ele><time>2026-04-11T12:04:10.241Z</time></trkpt><trkpt lat="43.1664495" lon="11.3901998"><ele>274.0</ele><time>2026-04-11T12:04:11.242Z</time></trkpt><trkpt lat="43.1663689" lon="11.3903249"><ele>274.0</ele><time>2026-04-11T12:04:12.242Z</time></trkpt><trkpt lat="43.1663081" lon="11.3904453"><ele>273.4</ele><time>2026-04-11T12:04:13.241Z</time></trkpt><trkpt lat="43.1662528" lon="11.3905512"><ele>272.79999999999995</ele><time>2026-04-11T12:04:14.241Z</time></trkpt><trkpt lat="43.1661954" lon="11.390623"><ele>272.20000000000005</ele><time>2026-04-11T12:04:15.242Z</time></trkpt><trkpt lat="43.1661222" lon="11.3906797"><ele>271.6</ele><time>2026-04-11T12:04:16.241Z</time></trkpt><trkpt lat="43.1660315" lon="11.3907349"><ele>271.0</ele><time>2026-04-11T12:04:17.242Z</time></trkpt><trkpt lat="43.1659231" lon="11.3907937"><ele>271.0</ele><time>2026-04-11T12:04:18.242Z</time></trkpt><trkpt lat="43.1657929" lon="11.3908555"><ele>271.0</ele><time>2026-04-11T12:04:19.242Z</time></trkpt><trkpt lat="43.1656428" lon="11.3909122"><ele>271.0</ele><time>2026-04-11T12:04:20.241Z</time></trkpt><trkpt lat="43.1654743" lon="11.3909556"><ele>272.0</ele><time>2026-04-11T12:04:21.242Z</time></trkpt><trkpt lat="43.1653041" lon="11.3909915"><ele>273.0</ele><time>2026-04-11T12:04:22.241Z</time></trkpt><trkpt lat="43.165141" lon="11.3910234"><ele>274.0</ele><time>2026-04-11T12:04:23.241Z</time></trkpt><trkpt lat="43.1649921" lon="11.3910575"><ele>274.25</ele><time>2026-04-11T12:04:24.241Z</time></trkpt><trkpt lat="43.1648536" lon="11.3910912"><ele>274.5</ele><time>2026-04-11T12:04:25.242Z</time></trkpt><trkpt lat="43.164718" lon="11.3911233"><ele>274.75</ele><time>2026-04-11T12:04:26.241Z</time></trkpt><trkpt lat="43.164577" lon="11.3911542"><ele>275.0</ele><time>2026-04-11T12:04:27.242Z</time></trkpt><trkpt lat="43.1644226" lon="11.3911903"><ele>275.0</ele><time>2026-04-11T12:04:28.241Z</time></trkpt><trkpt lat="43.1642625" lon="11.391226"><ele>275.0</ele><time>2026-04-11T12:04:29.241Z</time></trkpt><trkpt lat="43.164098" lon="11.3912665"><ele>275.0</ele><time>2026-04-11T12:04:30.242Z</time></trkpt><trkpt lat="43.1639328" lon="11.3913112"><ele>275.6666666666667</ele><time>2026-04-11T12:04:31.242Z</time></trkpt><trkpt lat="43.1637707" lon="11.3913574"><ele>276.3333333333333</ele><time>2026-04-11T12:04:32.242Z</time></trkpt><trkpt lat="43.1636085" lon="11.3914017"><ele>277.0</ele><time>2026-04-11T12:04:33.242Z</time></trkpt><trkpt lat="43.163445" lon="11.3914439"><ele>277.0</ele><time>2026-04-11T12:04:34.241Z</time></trkpt><trkpt lat="43.163283" lon="11.3914845"><ele>277.0</ele><time>2026-04-11T12:04:35.242Z</time></trkpt><trkpt lat="43.1631217" lon="11.3915242"><ele>277.0</ele><time>2026-04-11T12:04:36.242Z</time></trkpt><trkpt lat="43.1629632" lon="11.3915616"><ele>278.66666666666663</ele><time>2026-04-11T12:04:37.242Z</time></trkpt><trkpt lat="43.1628056" lon="11.3915956"><ele>280.3333333333333</ele><time>2026-04-11T12:04:38.241Z</time></trkpt><trkpt lat="43.1626518" lon="11.3916256"><ele>282.0</ele><time>2026-04-11T12:04:39.242Z</time></trkpt><trkpt lat="43.1625051" lon="11.3916503"><ele>282.0</ele><time>2026-04-11T12:04:40.241Z</time></trkpt><trkpt lat="43.1623698" lon="11.3916639"><ele>282.0</ele><time>2026-04-11T12:04:41.241Z</time></trkpt><trkpt lat="43.1622529" lon="11.3916678"><ele>282.0</ele><time>2026-04-11T12:04:42.241Z</time></trkpt><trkpt lat="43.1621539" lon="11.3916713"><ele>282.0</ele><time>2026-04-11T12:04:43.241Z</time></trkpt><trkpt lat="43.1620675" lon="11.3916836"><ele>282.0</ele><time>2026-04-11T12:04:44.242Z</time></trkpt><trkpt lat="43.1619818" lon="11.3917085"><ele>282.0</ele><time>2026-04-11T12:04:45.241Z</time></trkpt><trkpt lat="43.1618908" lon="11.3917558"><ele>282.0</ele><time>2026-04-11T12:04:46.241Z</time></trkpt><trkpt lat="43.1617995" lon="11.3918286"><ele>282.0</ele><time>2026-04-11T12:04:47.241Z</time></trkpt><trkpt lat="43.1617123" lon="11.3919353"><ele>282.0</ele><time>2026-04-11T12:04:48.241Z</time></trkpt><trkpt lat="43.1616507" lon="11.3920846"><ele>282.0</ele><time>2026-04-11T12:04:49.241Z</time></trkpt><trkpt lat="43.161607" lon="11.3922738"><ele>282.0</ele><time>2026-04-11T12:04:50.241Z</time></trkpt><trkpt lat="43.1615662" lon="11.392485"><ele>282.0</ele><time>2026-04-11T12:04:51.241Z</time></trkpt><trkpt lat="43.1615135" lon="11.3926969"><ele>282.0</ele><time>2026-04-11T12:04:52.241Z</time></trkpt><trkpt lat="43.1614439" lon="11.3928803"><ele>281.0</ele><time>2026-04-11T12:04:53.241Z</time></trkpt><trkpt lat="43.161346" lon="11.3930353"><ele>280.0</ele><time>2026-04-11T12:04:54.241Z</time></trkpt><trkpt lat="43.1612206" lon="11.3931653"><ele>279.0</ele><time>2026-04-11T12:04:55.241Z</time></trkpt><trkpt lat="43.1610657" lon="11.393247"><ele>279.0</ele><time>2026-04-11T12:04:56.241Z</time></trkpt><trkpt lat="43.1609005" lon="11.3933092"><ele>279.0</ele><time>2026-04-11T12:04:57.242Z</time></trkpt><trkpt lat="43.1607305" lon="11.3933669"><ele>279.0</ele><time>2026-04-11T12:04:58.241Z</time></trkpt><trkpt lat="43.1605568" lon="11.3934235"><ele>278.3333333333333</ele><time>2026-04-11T12:04:59.241Z</time></trkpt><trkpt lat="43.1603952" lon="11.3934786"><ele>277.66666666666663</ele><time>2026-04-11T12:05:00.241Z</time></trkpt><trkpt lat="43.1602428" lon="11.3935354"><ele>277.0</ele><time>2026-04-11T12:05:01.241Z</time></trkpt><trkpt lat="43.1600918" lon="11.3936013"><ele>277.0</ele><time>2026-04-11T12:05:02.241Z</time></trkpt><trkpt lat="43.1599389" lon="11.3936697"><ele>277.0</ele><time>2026-04-11T12:05:03.242Z</time></trkpt><trkpt lat="43.1597868" lon="11.3937342"><ele>277.0</ele><time>2026-04-11T12:05:04.242Z</time></trkpt><trkpt lat="43.1596358" lon="11.3938106"><ele>276.66666666666663</ele><time>2026-04-11T12:05:05.242Z</time></trkpt><trkpt lat="43.159484" lon="11.3939178"><ele>276.3333333333333</ele><time>2026-04-11T12:05:06.241Z</time></trkpt><trkpt lat="43.1593361" lon="11.3940567"><ele>276.0</ele><time>2026-04-11T12:05:07.242Z</time></trkpt><trkpt lat="43.1591997" lon="11.3942116"><ele>276.0</ele><time>2026-04-11T12:05:08.241Z</time></trkpt><trkpt lat="43.15908" lon="11.3943747"><ele>276.0</ele><time>2026-04-11T12:05:09.241Z</time></trkpt><trkpt lat="43.1589714" lon="11.394546"><ele>276.0</ele><time>2026-04-11T12:05:10.242Z</time></trkpt><trkpt lat="43.1588733" lon="11.3947277"><ele>277.0</ele><time>2026-04-11T12:05:11.243Z</time></trkpt><trkpt lat="43.1587871" lon="11.3949221"><ele>278.0</ele><time>2026-04-11T12:05:12.242Z</time></trkpt><trkpt lat="43.1587172" lon="11.3951315"><ele>279.0</ele><time>2026-04-11T12:05:13.243Z</time></trkpt><trkpt lat="43.1586684" lon="11.3953615"><ele>279.0</ele><time>2026-04-11T12:05:14.242Z</time></trkpt><trkpt lat="43.1586447" lon="11.3956139"><ele>279.0</ele><time>2026-04-11T12:05:15.243Z</time></trkpt><trkpt lat="43.1586449" lon="11.3958964"><ele>279.0</ele><time>2026-04-11T12:05:16.242Z</time></trkpt><trkpt lat="43.1586912" lon="11.3961854"><ele>279.3333333333333</ele><time>2026-04-11T12:05:17.243Z</time></trkpt><trkpt lat="43.1587256" lon="11.3965126"><ele>279.66666666666663</ele><time>2026-04-11T12:05:18.242Z</time></trkpt><trkpt lat="43.158714" lon="11.3967886"><ele>280.0</ele><time>2026-04-11T12:05:19.243Z</time></trkpt><trkpt lat="43.1587081" lon="11.3970568"><ele>280.0</ele><time>2026-04-11T12:05:20.243Z</time></trkpt><trkpt lat="43.1587048" lon="11.3973173"><ele>280.0</ele><time>2026-04-11T12:05:21.243Z</time></trkpt><trkpt lat="43.1587056" lon="11.3975634"><ele>280.0</ele><time>2026-04-11T12:05:22.243Z</time></trkpt><trkpt lat="43.1587204" lon="11.3978014"><ele>280.66666666666663</ele><time>2026-04-11T12:05:23.243Z</time></trkpt><trkpt lat="43.1587476" lon="11.3980299"><ele>281.3333333333333</ele><time>2026-04-11T12:05:24.243Z</time></trkpt><trkpt lat="43.1587868" lon="11.3982432"><ele>282.0</ele><time>2026-04-11T12:05:25.242Z</time></trkpt><trkpt lat="43.158838" lon="11.3984493"><ele>282.0</ele><time>2026-04-11T12:05:26.243Z</time></trkpt><trkpt lat="43.1588871" lon="11.398643"><ele>282.0</ele><time>2026-04-11T12:05:27.243Z</time></trkpt><trkpt lat="43.1589534" lon="11.3988326"><ele>282.0</ele><time>2026-04-11T12:05:28.243Z</time></trkpt><trkpt lat="43.1589862" lon="11.3990429"><ele>282.5</ele><time>2026-04-11T12:05:29.243Z</time></trkpt><trkpt lat="43.1589886" lon="11.39924"><ele>283.0</ele><time>2026-04-11T12:05:30.242Z</time></trkpt><trkpt lat="43.1589668" lon="11.3994271"><ele>283.5</ele><time>2026-04-11T12:05:31.242Z</time></trkpt><trkpt lat="43.1588916" lon="11.3995795"><ele>284.0</ele><time>2026-04-11T12:05:32.242Z</time></trkpt><trkpt lat="43.1588199" lon="11.3996354"><ele>284.0</ele><time>2026-04-11T12:05:33.242Z</time></trkpt><trkpt lat="43.1587537" lon="11.3996919"><ele>284.0</ele><time>2026-04-11T12:05:34.243Z</time></trkpt><trkpt lat="43.1586282" lon="11.3997149"><ele>284.0</ele><time>2026-04-11T12:05:35.242Z</time></trkpt><trkpt lat="43.1584801" lon="11.3996694"><ele>284.0</ele><time>2026-04-11T12:05:36.243Z</time></trkpt><trkpt lat="43.1583505" lon="11.3996324"><ele>284.0</ele><time>2026-04-11T12:05:37.243Z</time></trkpt><trkpt lat="43.1582042" lon="11.3996258"><ele>284.0</ele><time>2026-04-11T12:05:38.242Z</time></trkpt><trkpt lat="43.1580682" lon="11.399666"><ele>284.0</ele><time>2026-04-11T12:05:39.243Z</time></trkpt><trkpt lat="43.1579228" lon="11.3997575"><ele>284.0</ele><time>2026-04-11T12:05:40.242Z</time></trkpt><trkpt lat="43.1577941" lon="11.3998789"><ele>285.5</ele><time>2026-04-11T12:05:41.242Z</time></trkpt><trkpt lat="43.1576696" lon="11.4000171"><ele>287.0</ele><time>2026-04-11T12:05:42.242Z</time></trkpt><trkpt lat="43.1575524" lon="11.4001199"><ele>288.5</ele><time>2026-04-11T12:05:43.243Z</time></trkpt><trkpt lat="43.1574365" lon="11.4001932"><ele>290.0</ele><time>2026-04-11T12:05:44.243Z</time></trkpt><trkpt lat="43.1573219" lon="11.4002298"><ele>291.0</ele><time>2026-04-11T12:05:45.242Z</time></trkpt><trkpt lat="43.1571739" lon="11.4002326"><ele>292.0</ele><time>2026-04-11T12:05:46.242Z</time></trkpt><trkpt lat="43.1570206" lon="11.4002245"><ele>293.0</ele><time>2026-04-11T12:05:47.242Z</time></trkpt><trkpt lat="43.1568837" lon="11.4001748"><ele>294.0</ele><time>2026-04-11T12:05:48.243Z</time></trkpt><trkpt lat="43.1567719" lon="11.400084"><ele>294.0</ele><time>2026-04-11T12:05:49.242Z</time></trkpt><trkpt lat="43.1566668" lon="11.4000205"><ele>294.0</ele><time>2026-04-11T12:05:50.243Z</time></trkpt><trkpt lat="43.1565674" lon="11.3999948"><ele>294.0</ele><time>2026-04-11T12:05:51.242Z</time></trkpt><trkpt lat="43.1564758" lon="11.4000118"><ele>294.0</ele><time>2026-04-11T12:05:52.242Z</time></trkpt><trkpt lat="43.1563673" lon="11.400064"><ele>294.0</ele><time>2026-04-11T12:05:53.243Z</time></trkpt><trkpt lat="43.156286" lon="11.4001522"><ele>297.25</ele><time>2026-04-11T12:05:54.243Z</time></trkpt><trkpt lat="43.1562607" lon="11.4003037"><ele>300.5</ele><time>2026-04-11T12:05:55.242Z</time></trkpt><trkpt lat="43.1562855" lon="11.4004967"><ele>303.75</ele><time>2026-04-11T12:05:56.242Z</time></trkpt><trkpt lat="43.1563139" lon="11.4006742"><ele>307.0</ele><time>2026-04-11T12:05:57.242Z</time></trkpt><trkpt lat="43.1563797" lon="11.4008604"><ele>307.3333333333333</ele><time>2026-04-11T12:05:58.242Z</time></trkpt><trkpt lat="43.1564928" lon="11.4010634"><ele>307.6666666666667</ele><time>2026-04-11T12:05:59.243Z</time></trkpt><trkpt lat="43.1565993" lon="11.4012607"><ele>308.0</ele><time>2026-04-11T12:06:00.242Z</time></trkpt><trkpt lat="43.1566814" lon="11.4014367"><ele>302.25</ele><time>2026-04-11T12:06:01.242Z</time></trkpt><trkpt lat="43.1567458" lon="11.4015997"><ele>296.5</ele><time>2026-04-11T12:06:02.242Z</time></trkpt><trkpt lat="43.1567671" lon="11.4017718"><ele>290.75</ele><time>2026-04-11T12:06:03.243Z</time></trkpt><trkpt lat="43.1567544" lon="11.401981"><ele>285.0</ele><time>2026-04-11T12:06:04.243Z</time></trkpt><trkpt lat="43.1567106" lon="11.4022378"><ele>284.0</ele><time>2026-04-11T12:06:05.243Z</time></trkpt><trkpt lat="43.156655" lon="11.4025264"><ele>283.0</ele><time>2026-04-11T12:06:06.242Z</time></trkpt><trkpt lat="43.1565861" lon="11.4028593"><ele>290.5</ele><time>2026-04-11T12:06:07.243Z</time></trkpt><trkpt lat="43.1565239" lon="11.4032091"><ele>298.0</ele><time>2026-04-11T12:06:08.242Z</time></trkpt><trkpt lat="43.1564763" lon="11.4035451"><ele>296.0</ele><time>2026-04-11T12:06:09.242Z</time></trkpt><trkpt lat="43.1564471" lon="11.4038518"><ele>294.0</ele><time>2026-04-11T12:06:10.242Z</time></trkpt><trkpt lat="43.1564234" lon="11.4041187"><ele>292.0</ele><time>2026-04-11T12:06:11.243Z</time></trkpt><trkpt lat="43.1563891" lon="11.4043449"><ele>292.0</ele><time>2026-04-11T12:06:12.243Z</time></trkpt><trkpt lat="43.1563277" lon="11.4045456"><ele>292.0</ele><time>2026-04-11T12:06:13.243Z</time></trkpt><trkpt lat="43.1562241" lon="11.4047007"><ele>292.0</ele><time>2026-04-11T12:06:14.242Z</time></trkpt><trkpt lat="43.156088" lon="11.4048372"><ele>289.66666666666663</ele><time>2026-04-11T12:06:15.242Z</time></trkpt><trkpt lat="43.1559256" lon="11.4049363"><ele>287.3333333333333</ele><time>2026-04-11T12:06:16.244Z</time></trkpt><trkpt lat="43.1557337" lon="11.404992"><ele>285.0</ele><time>2026-04-11T12:06:17.243Z</time></trkpt><trkpt lat="43.1555144" lon="11.4050106"><ele>285.0</ele><time>2026-04-11T12:06:18.243Z</time></trkpt><trkpt lat="43.1552793" lon="11.405034"><ele>285.0</ele><time>2026-04-11T12:06:19.243Z</time></trkpt><trkpt lat="43.1550549" lon="11.4050687"><ele>288.0</ele><time>2026-04-11T12:06:20.243Z</time></trkpt><trkpt lat="43.1548311" lon="11.4051384"><ele>291.0</ele><time>2026-04-11T12:06:21.244Z</time></trkpt><trkpt lat="43.1546252" lon="11.4052314"><ele>294.0</ele><time>2026-04-11T12:06:22.243Z</time></trkpt><trkpt lat="43.1544294" lon="11.4053359"><ele>294.0</ele><time>2026-04-11T12:06:23.243Z</time></trkpt><trkpt lat="43.1542545" lon="11.4054532"><ele>294.0</ele><time>2026-04-11T12:06:24.244Z</time></trkpt><trkpt lat="43.1540926" lon="11.4055818"><ele>294.0</ele><time>2026-04-11T12:06:25.244Z</time></trkpt><trkpt lat="43.1539366" lon="11.4056997"><ele>291.3333333333333</ele><time>2026-04-11T12:06:26.243Z</time></trkpt><trkpt lat="43.1537564" lon="11.4057426"><ele>288.66666666666663</ele><time>2026-04-11T12:06:27.243Z</time></trkpt><trkpt lat="43.153557" lon="11.4057268"><ele>286.0</ele><time>2026-04-11T12:06:28.244Z</time></trkpt><trkpt lat="43.1533776" lon="11.405741"><ele>289.3333333333333</ele><time>2026-04-11T12:06:29.244Z</time></trkpt><trkpt lat="43.1531926" lon="11.4057952"><ele>292.6666666666667</ele><time>2026-04-11T12:06:30.243Z</time></trkpt><trkpt lat="43.1530177" lon="11.4059348"><ele>296.0</ele><time>2026-04-11T12:06:31.244Z</time></trkpt><trkpt lat="43.1528761" lon="11.40613"><ele>296.0</ele><time>2026-04-11T12:06:32.243Z</time></trkpt><trkpt lat="43.1527245" lon="11.4062966"><ele>296.0</ele><time>2026-04-11T12:06:33.243Z</time></trkpt><trkpt lat="43.1525542" lon="11.406452"><ele>296.0</ele><time>2026-04-11T12:06:34.243Z</time></trkpt><trkpt lat="43.1523818" lon="11.4065837"><ele>291.6666666666667</ele><time>2026-04-11T12:06:35.244Z</time></trkpt><trkpt lat="43.1521938" lon="11.4066607"><ele>287.3333333333333</ele><time>2026-04-11T12:06:36.244Z</time></trkpt><trkpt lat="43.1519855" lon="11.4066723"><ele>283.0</ele><time>2026-04-11T12:06:37.243Z</time></trkpt><trkpt lat="43.1517684" lon="11.4066552"><ele>283.0</ele><time>2026-04-11T12:06:38.244Z</time></trkpt><trkpt lat="43.1515663" lon="11.4066487"><ele>283.0</ele><time>2026-04-11T12:06:39.243Z</time></trkpt><trkpt lat="43.1513693" lon="11.406659"><ele>283.0</ele><time>2026-04-11T12:06:40.244Z</time></trkpt><trkpt lat="43.1511998" lon="11.4066987"><ele>282.3333333333333</ele><time>2026-04-11T12:06:41.243Z</time></trkpt><trkpt lat="43.1510283" lon="11.406784"><ele>281.6666666666667</ele><time>2026-04-11T12:06:42.244Z</time></trkpt><trkpt lat="43.150862" lon="11.4068428"><ele>281.0</ele><time>2026-04-11T12:06:43.244Z</time></trkpt><trkpt lat="43.1506909" lon="11.4068397"><ele>281.0</ele><time>2026-04-11T12:06:44.244Z</time></trkpt><trkpt lat="43.1505263" lon="11.406802"><ele>281.0</ele><time>2026-04-11T12:06:45.243Z</time></trkpt><trkpt lat="43.1503511" lon="11.4067614"><ele>281.0</ele><time>2026-04-11T12:06:46.243Z</time></trkpt><trkpt lat="43.1501865" lon="11.4067073"><ele>281.0</ele><time>2026-04-11T12:06:47.243Z</time></trkpt><trkpt lat="43.1500509" lon="11.4066092"><ele>281.0</ele><time>2026-04-11T12:06:48.243Z</time></trkpt><trkpt lat="43.1499486" lon="11.4064852"><ele>281.0</ele><time>2026-04-11T12:06:49.243Z</time></trkpt><trkpt lat="43.1498695" lon="11.4063462"><ele>281.0</ele><time>2026-04-11T12:06:50.244Z</time></trkpt><trkpt lat="43.1497835" lon="11.406243"><ele>282.0</ele><time>2026-04-11T12:06:51.244Z</time></trkpt><trkpt lat="43.1496749" lon="11.4062136"><ele>283.0</ele><time>2026-04-11T12:06:52.244Z</time></trkpt><trkpt lat="43.1495482" lon="11.4062365"><ele>284.0</ele><time>2026-04-11T12:06:53.244Z</time></trkpt><trkpt lat="43.1494141" lon="11.4063366"><ele>285.0</ele><time>2026-04-11T12:06:54.244Z</time></trkpt><trkpt lat="43.1493023" lon="11.4064772"><ele>285.0</ele><time>2026-04-11T12:06:55.244Z</time></trkpt><trkpt lat="43.1492227" lon="11.4066613"><ele>285.0</ele><time>2026-04-11T12:06:56.243Z</time></trkpt><trkpt lat="43.1491255" lon="11.4067815"><ele>285.0</ele><time>2026-04-11T12:06:57.244Z</time></trkpt><trkpt lat="43.1490252" lon="11.4068343"><ele>285.0</ele><time>2026-04-11T12:06:58.243Z</time></trkpt><trkpt lat="43.148878" lon="11.4068432"><ele>286.3333333333333</ele><time>2026-04-11T12:06:59.244Z</time></trkpt><trkpt lat="43.1487097" lon="11.4068539"><ele>287.66666666666663</ele><time>2026-04-11T12:07:00.243Z</time></trkpt><trkpt lat="43.148556" lon="11.4068841"><ele>289.0</ele><time>2026-04-11T12:07:01.243Z</time></trkpt><trkpt lat="43.1484104" lon="11.4069764"><ele>289.0</ele><time>2026-04-11T12:07:02.243Z</time></trkpt><trkpt lat="43.1482992" lon="11.4071435"><ele>289.0</ele><time>2026-04-11T12:07:03.244Z</time></trkpt><trkpt lat="43.1482147" lon="11.4073641"><ele>289.0</ele><time>2026-04-11T12:07:04.244Z</time></trkpt><trkpt lat="43.1481401" lon="11.4075976"><ele>290.0</ele><time>2026-04-11T12:07:05.243Z</time></trkpt><trkpt lat="43.148058" lon="11.4078192"><ele>291.0</ele><time>2026-04-11T12:07:06.244Z</time></trkpt><trkpt lat="43.1479774" lon="11.4080414"><ele>292.0</ele><time>2026-04-11T12:07:07.243Z</time></trkpt><trkpt lat="43.1479142" lon="11.408279"><ele>290.0</ele><time>2026-04-11T12:07:08.244Z</time></trkpt><trkpt lat="43.1478856" lon="11.4085516"><ele>288.0</ele><time>2026-04-11T12:07:09.244Z</time></trkpt><trkpt lat="43.1478791" lon="11.4088435"><ele>286.0</ele><time>2026-04-11T12:07:10.244Z</time></trkpt><trkpt lat="43.1478592" lon="11.4091206"><ele>284.0</ele><time>2026-04-11T12:07:11.244Z</time></trkpt><trkpt lat="43.1478256" lon="11.4093826"><ele>282.0</ele><time>2026-04-11T12:07:12.244Z</time></trkpt><trkpt lat="43.1477809" lon="11.4096384"><ele>280.0</ele><time>2026-04-11T12:07:13.244Z</time></trkpt><trkpt lat="43.1477318" lon="11.4098805"><ele>277.66666666666663</ele><time>2026-04-11T12:07:14.243Z</time></trkpt><trkpt lat="43.1476792" lon="11.4101032"><ele>275.3333333333333</ele><time>2026-04-11T12:07:15.243Z</time></trkpt><trkpt lat="43.1476201" lon="11.4102989"><ele>273.0</ele><time>2026-04-11T12:07:16.244Z</time></trkpt><trkpt lat="43.1475413" lon="11.4104579"><ele>270.6666666666667</ele><time>2026-04-11T12:07:17.244Z</time></trkpt><trkpt lat="43.1474381" lon="11.4105846"><ele>268.33333333333337</ele><time>2026-04-11T12:07:18.244Z</time></trkpt><trkpt lat="43.147275" lon="11.4106873"><ele>266.0</ele><time>2026-04-11T12:07:19.243Z</time></trkpt><trkpt lat="43.1471132" lon="11.4107749"><ele>266.0</ele><time>2026-04-11T12:07:20.244Z</time></trkpt><trkpt lat="43.1469544" lon="11.4108602"><ele>266.0</ele><time>2026-04-11T12:07:21.245Z</time></trkpt><trkpt lat="43.1468238" lon="11.4109597"><ele>266.0</ele><time>2026-04-11T12:07:22.244Z</time></trkpt><trkpt lat="43.1466886" lon="11.4110953"><ele>266.0</ele><time>2026-04-11T12:07:23.245Z</time></trkpt><trkpt lat="43.1465635" lon="11.4112762"><ele>266.0</ele><time>2026-04-11T12:07:24.245Z</time></trkpt><trkpt lat="43.1464616" lon="11.4115014"><ele>266.0</ele><time>2026-04-11T12:07:25.245Z</time></trkpt><trkpt lat="43.1463536" lon="11.4117029"><ele>264.33333333333337</ele><time>2026-04-11T12:07:26.245Z</time></trkpt><trkpt lat="43.1462542" lon="11.41189"><ele>262.6666666666667</ele><time>2026-04-11T12:07:27.244Z</time></trkpt><trkpt lat="43.1461517" lon="11.4120663"><ele>261.0</ele><time>2026-04-11T12:07:28.245Z</time></trkpt><trkpt lat="43.1460665" lon="11.4122396"><ele>258.3333333333333</ele><time>2026-04-11T12:07:29.244Z</time></trkpt><trkpt lat="43.1459963" lon="11.412428"><ele>255.66666666666666</ele><time>2026-04-11T12:07:30.244Z</time></trkpt><trkpt lat="43.1459396" lon="11.4126231"><ele>253.0</ele><time>2026-04-11T12:07:31.245Z</time></trkpt><trkpt lat="43.1458961" lon="11.4128268"><ele>252.66666666666666</ele><time>2026-04-11T12:07:32.244Z</time></trkpt><trkpt lat="43.1458577" lon="11.4130265"><ele>252.33333333333331</ele><time>2026-04-11T12:07:33.245Z</time></trkpt><trkpt lat="43.1458126" lon="11.4132255"><ele>252.0</ele><time>2026-04-11T12:07:34.245Z</time></trkpt><trkpt lat="43.1457465" lon="11.4134152"><ele>250.0</ele><time>2026-04-11T12:07:35.245Z</time></trkpt><trkpt lat="43.1456561" lon="11.4135898"><ele>248.0</ele><time>2026-04-11T12:07:36.244Z</time></trkpt><trkpt lat="43.1455549" lon="11.413732"><ele>246.0</ele><time>2026-04-11T12:07:37.245Z</time></trkpt><trkpt lat="43.1454371" lon="11.4138604"><ele>245.0</ele><time>2026-04-11T12:07:38.244Z</time></trkpt><trkpt lat="43.1453431" lon="11.4139855"><ele>244.0</ele><time>2026-04-11T12:07:39.245Z</time></trkpt><trkpt lat="43.1452645" lon="11.4141098"><ele>243.0</ele><time>2026-04-11T12:07:40.245Z</time></trkpt><trkpt lat="43.1452254" lon="11.4142524"><ele>242.0</ele><time>2026-04-11T12:07:41.244Z</time></trkpt><trkpt lat="43.14521" lon="11.4144253"><ele>242.0</ele><time>2026-04-11T12:07:42.245Z</time></trkpt><trkpt lat="43.1452245" lon="11.4146089"><ele>242.0</ele><time>2026-04-11T12:07:43.245Z</time></trkpt><trkpt lat="43.1452676" lon="11.4147882"><ele>242.0</ele><time>2026-04-11T12:07:44.245Z</time></trkpt><trkpt lat="43.1453431" lon="11.4149573"><ele>242.0</ele><time>2026-04-11T12:07:45.245Z</time></trkpt><trkpt lat="43.145455" lon="11.4151086"><ele>241.0</ele><time>2026-04-11T12:07:46.245Z</time></trkpt><trkpt lat="43.1455858" lon="11.4152544"><ele>240.0</ele><time>2026-04-11T12:07:47.244Z</time></trkpt><trkpt lat="43.1456996" lon="11.415398"><ele>239.0</ele><time>2026-04-11T12:07:48.245Z</time></trkpt><trkpt lat="43.1457754" lon="11.4155585"><ele>239.0</ele><time>2026-04-11T12:07:49.244Z</time></trkpt><trkpt lat="43.1458197" lon="11.4157457"><ele>239.0</ele><time>2026-04-11T12:07:50.245Z</time></trkpt><trkpt lat="43.1458452" lon="11.4159507"><ele>239.0</ele><time>2026-04-11T12:07:51.245Z</time></trkpt><trkpt lat="43.1458414" lon="11.4161578"><ele>239.0</ele><time>2026-04-11T12:07:52.244Z</time></trkpt><trkpt lat="43.1458135" lon="11.4163666"><ele>238.0</ele><time>2026-04-11T12:07:53.244Z</time></trkpt><trkpt lat="43.1457721" lon="11.4165837"><ele>237.0</ele><time>2026-04-11T12:07:54.244Z</time></trkpt><trkpt lat="43.1457373" lon="11.4168018"><ele>236.0</ele><time>2026-04-11T12:07:55.245Z</time></trkpt><trkpt lat="43.1457124" lon="11.4170194"><ele>229.66666666666669</ele><time>2026-04-11T12:07:56.244Z</time></trkpt><trkpt lat="43.1456798" lon="11.4172305"><ele>223.33333333333331</ele><time>2026-04-11T12:07:57.244Z</time></trkpt><trkpt lat="43.1456369" lon="11.417442"><ele>217.0</ele><time>2026-04-11T12:07:58.244Z</time></trkpt><trkpt lat="43.1455653" lon="11.4176458"><ele>217.0</ele><time>2026-04-11T12:07:59.245Z</time></trkpt><trkpt lat="43.1454934" lon="11.4178363"><ele>217.0</ele><time>2026-04-11T12:08:00.244Z</time></trkpt><trkpt lat="43.1454292" lon="11.4180255"><ele>217.0</ele><time>2026-04-11T12:08:01.245Z</time></trkpt><trkpt lat="43.1453822" lon="11.4182096"><ele>216.25</ele><time>2026-04-11T12:08:02.245Z</time></trkpt><trkpt lat="43.1453502" lon="11.4183997"><ele>215.5</ele><time>2026-04-11T12:08:03.245Z</time></trkpt><trkpt lat="43.1453364" lon="11.418595"><ele>214.75</ele><time>2026-04-11T12:08:04.245Z</time></trkpt><trkpt lat="43.1453363" lon="11.4187927"><ele>214.0</ele><time>2026-04-11T12:08:05.245Z</time></trkpt><trkpt lat="43.1453351" lon="11.4189842"><ele>213.75</ele><time>2026-04-11T12:08:06.245Z</time></trkpt><trkpt lat="43.1453291" lon="11.4191709"><ele>213.5</ele><time>2026-04-11T12:08:07.245Z</time></trkpt><trkpt lat="43.1453123" lon="11.4193561"><ele>213.25</ele><time>2026-04-11T12:08:08.245Z</time></trkpt><trkpt lat="43.145285" lon="11.4195378"><ele>213.0</ele><time>2026-04-11T12:08:09.244Z</time></trkpt><trkpt lat="43.1452444" lon="11.4197141"><ele>212.25</ele><time>2026-04-11T12:08:10.244Z</time></trkpt><trkpt lat="43.1451993" lon="11.4198867"><ele>211.5</ele><time>2026-04-11T12:08:11.244Z</time></trkpt><trkpt lat="43.1451567" lon="11.4200583"><ele>210.75</ele><time>2026-04-11T12:08:12.244Z</time></trkpt><trkpt lat="43.1451309" lon="11.4202332"><ele>210.0</ele><time>2026-04-11T12:08:13.244Z</time></trkpt><trkpt lat="43.145129" lon="11.4204094"><ele>209.4</ele><time>2026-04-11T12:08:14.245Z</time></trkpt><trkpt lat="43.1451403" lon="11.4205775"><ele>208.8</ele><time>2026-04-11T12:08:15.245Z</time></trkpt><trkpt lat="43.1451497" lon="11.4207372"><ele>208.2</ele><time>2026-04-11T12:08:16.245Z</time></trkpt><trkpt lat="43.1451531" lon="11.4208844"><ele>207.6</ele><time>2026-04-11T12:08:17.245Z</time></trkpt><trkpt lat="43.1451498" lon="11.421014"><ele>207.0</ele><time>2026-04-11T12:08:18.245Z</time></trkpt><trkpt lat="43.1451481" lon="11.4211292"><ele>207.0</ele><time>2026-04-11T12:08:19.245Z</time></trkpt><trkpt lat="43.1451575" lon="11.4212393"><ele>207.0</ele><time>2026-04-11T12:08:20.245Z</time></trkpt><trkpt lat="43.1451823" lon="11.4213492"><ele>207.0</ele><time>2026-04-11T12:08:21.245Z</time></trkpt><trkpt lat="43.1452218" lon="11.4214636"><ele>207.0</ele><time>2026-04-11T12:08:22.245Z</time></trkpt><trkpt lat="43.1452663" lon="11.4215864"><ele>207.0</ele><time>2026-04-11T12:08:23.245Z</time></trkpt><trkpt lat="43.1453172" lon="11.4217295"><ele>206.75</ele><time>2026-04-11T12:08:24.245Z</time></trkpt><trkpt lat="43.1453725" lon="11.4218874"><ele>206.5</ele><time>2026-04-11T12:08:25.244Z</time></trkpt><trkpt lat="43.1454311" lon="11.4220505"><ele>206.25</ele><time>2026-04-11T12:08:26.245Z</time></trkpt><trkpt lat="43.145489" lon="11.4222106"><ele>206.0</ele><time>2026-04-11T12:08:27.246Z</time></trkpt><trkpt lat="43.1455439" lon="11.4223651"><ele>206.75</ele><time>2026-04-11T12:08:28.246Z</time></trkpt><trkpt lat="43.1455961" lon="11.4225172"><ele>207.5</ele><time>2026-04-11T12:08:29.246Z</time></trkpt><trkpt lat="43.1456477" lon="11.4226703"><ele>208.25</ele><time>2026-04-11T12:08:30.246Z</time></trkpt><trkpt lat="43.1457007" lon="11.4228249"><ele>209.0</ele><time>2026-04-11T12:08:31.245Z</time></trkpt><trkpt lat="43.1457541" lon="11.4229781"><ele>208.5</ele><time>2026-04-11T12:08:32.245Z</time></trkpt><trkpt lat="43.145807" lon="11.423127"><ele>208.0</ele><time>2026-04-11T12:08:33.246Z</time></trkpt><trkpt lat="43.1458574" lon="11.423268"><ele>207.5</ele><time>2026-04-11T12:08:34.245Z</time></trkpt><trkpt lat="43.1459023" lon="11.423407"><ele>207.0</ele><time>2026-04-11T12:08:35.245Z</time></trkpt><trkpt lat="43.1459407" lon="11.4235469"><ele>207.0</ele><time>2026-04-11T12:08:36.246Z</time></trkpt><trkpt lat="43.1459675" lon="11.4236919"><ele>207.0</ele><time>2026-04-11T12:08:37.246Z</time></trkpt><trkpt lat="43.1459836" lon="11.4238367"><ele>207.0</ele><time>2026-04-11T12:08:38.245Z</time></trkpt><trkpt lat="43.1459867" lon="11.4239755"><ele>207.0</ele><time>2026-04-11T12:08:39.246Z</time></trkpt><trkpt lat="43.1459719" lon="11.4241073"><ele>207.0</ele><time>2026-04-11T12:08:40.245Z</time></trkpt><trkpt lat="43.1459386" lon="11.4242355"><ele>206.8</ele><time>2026-04-11T12:08:41.245Z</time></trkpt><trkpt lat="43.1458885" lon="11.4243649"><ele>206.6</ele><time>2026-04-11T12:08:42.245Z</time></trkpt><trkpt lat="43.1458226" lon="11.4244925"><ele>206.4</ele><time>2026-04-11T12:08:43.246Z</time></trkpt><trkpt lat="43.1457532" lon="11.4246166"><ele>206.20000000000002</ele><time>2026-04-11T12:08:44.246Z</time></trkpt><trkpt lat="43.1456858" lon="11.4247243"><ele>206.0</ele><time>2026-04-11T12:08:45.246Z</time></trkpt><trkpt lat="43.1456237" lon="11.4248162"><ele>208.33333333333334</ele><time>2026-04-11T12:08:46.246Z</time></trkpt><trkpt lat="43.1455742" lon="11.4249024"><ele>210.66666666666669</ele><time>2026-04-11T12:08:47.245Z</time></trkpt><trkpt lat="43.1455428" lon="11.4249954"><ele>213.0</ele><time>2026-04-11T12:08:48.246Z</time></trkpt><trkpt lat="43.1455348" lon="11.4251038"><ele>215.33333333333331</ele><time>2026-04-11T12:08:49.245Z</time></trkpt><trkpt lat="43.1455526" lon="11.4252174"><ele>217.66666666666666</ele><time>2026-04-11T12:08:50.245Z</time></trkpt><trkpt lat="43.1456025" lon="11.4253111"><ele>220.0</ele><time>2026-04-11T12:08:51.245Z</time></trkpt><trkpt lat="43.1456823" lon="11.4253828"><ele>218.6</ele><time>2026-04-11T12:08:52.245Z</time></trkpt><trkpt lat="43.1457753" lon="11.425425"><ele>217.2</ele><time>2026-04-11T12:08:53.246Z</time></trkpt><trkpt lat="43.1458715" lon="11.4254502"><ele>215.8</ele><time>2026-04-11T12:08:54.246Z</time></trkpt><trkpt lat="43.1459711" lon="11.4254896"><ele>214.4</ele><time>2026-04-11T12:08:55.245Z</time></trkpt><trkpt lat="43.1460704" lon="11.4255535"><ele>213.0</ele><time>2026-04-11T12:08:56.246Z</time></trkpt><trkpt lat="43.1461755" lon="11.4256475"><ele>213.0</ele><time>2026-04-11T12:08:57.245Z</time></trkpt><trkpt lat="43.1462771" lon="11.4257702"><ele>213.0</ele><time>2026-04-11T12:08:58.245Z</time></trkpt><trkpt lat="43.1463791" lon="11.4259066"><ele>213.0</ele><time>2026-04-11T12:08:59.245Z</time></trkpt><trkpt lat="43.1464959" lon="11.4260442"><ele>213.0</ele><time>2026-04-11T12:09:00.245Z</time></trkpt><trkpt lat="43.1466236" lon="11.4261658"><ele>212.75</ele><time>2026-04-11T12:09:01.245Z</time></trkpt><trkpt lat="43.1467493" lon="11.4262746"><ele>212.5</ele><time>2026-04-11T12:09:02.245Z</time></trkpt><trkpt lat="43.1468675" lon="11.4263675"><ele>212.25</ele><time>2026-04-11T12:09:03.245Z</time></trkpt><trkpt lat="43.1469815" lon="11.4264487"><ele>212.0</ele><time>2026-04-11T12:09:04.245Z</time></trkpt><trkpt lat="43.1470957" lon="11.4265301"><ele>212.0</ele><time>2026-04-11T12:09:05.246Z</time></trkpt><trkpt lat="43.1472095" lon="11.4266241"><ele>212.0</ele><time>2026-04-11T12:09:06.246Z</time></trkpt><trkpt lat="43.1473215" lon="11.426747"><ele>212.0</ele><time>2026-04-11T12:09:07.245Z</time></trkpt><trkpt lat="43.1474248" lon="11.4268908"><ele>212.0</ele><time>2026-04-11T12:09:08.246Z</time></trkpt><trkpt lat="43.1475158" lon="11.4270208"><ele>211.0</ele><time>2026-04-11T12:09:09.246Z</time></trkpt><trkpt lat="43.1476037" lon="11.427123"><ele>210.0</ele><time>2026-04-11T12:09:10.246Z</time></trkpt><trkpt lat="43.1476983" lon="11.4271907"><ele>209.0</ele><time>2026-04-11T12:09:11.245Z</time></trkpt><trkpt lat="43.1478063" lon="11.4272337"><ele>208.0</ele><time>2026-04-11T12:09:12.245Z</time></trkpt><trkpt lat="43.1479337" lon="11.4272652"><ele>208.0</ele><time>2026-04-11T12:09:13.246Z</time></trkpt><trkpt lat="43.1480661" lon="11.4272944"><ele>208.0</ele><time>2026-04-11T12:09:14.245Z</time></trkpt><trkpt lat="43.1481912" lon="11.4273279"><ele>208.0</ele><time>2026-04-11T12:09:15.245Z</time></trkpt><trkpt lat="43.1483132" lon="11.4273738"><ele>208.0</ele><time>2026-04-11T12:09:16.245Z</time></trkpt><trkpt lat="43.1484399" lon="11.4274363"><ele>207.25</ele><time>2026-04-11T12:09:17.245Z</time></trkpt><trkpt lat="43.1485729" lon="11.4275009"><ele>206.5</ele><time>2026-04-11T12:09:18.246Z</time></trkpt><trkpt lat="43.14871" lon="11.4275709"><ele>205.75</ele><time>2026-04-11T12:09:19.245Z</time></trkpt><trkpt lat="43.1488438" lon="11.4276451"><ele>205.0</ele><time>2026-04-11T12:09:20.246Z</time></trkpt><trkpt lat="43.1489693" lon="11.4277151"><ele>204.75</ele><time>2026-04-11T12:09:21.247Z</time></trkpt><trkpt lat="43.1490858" lon="11.4277819"><ele>204.5</ele><time>2026-04-11T12:09:22.246Z</time></trkpt><trkpt lat="43.1491975" lon="11.4278482"><ele>204.25</ele><time>2026-04-11T12:09:23.246Z</time></trkpt><trkpt lat="43.1493047" lon="11.427923"><ele>204.0</ele><time>2026-04-11T12:09:24.245Z</time></trkpt><trkpt lat="43.149406" lon="11.4280153"><ele>201.5</ele><time>2026-04-11T12:09:25.246Z</time></trkpt><trkpt lat="43.1495044" lon="11.4281322"><ele>199.0</ele><time>2026-04-11T12:09:26.246Z</time></trkpt><trkpt lat="43.1495997" lon="11.4282501"><ele>196.5</ele><time>2026-04-11T12:09:27.245Z</time></trkpt><trkpt lat="43.1497049" lon="11.428372"><ele>194.0</ele><time>2026-04-11T12:09:28.246Z</time></trkpt><trkpt lat="43.1498195" lon="11.4284958"><ele>195.0</ele><time>2026-04-11T12:09:29.246Z</time></trkpt><trkpt lat="43.1499337" lon="11.4286122"><ele>196.0</ele><time>2026-04-11T12:09:30.246Z</time></trkpt><trkpt lat="43.1500399" lon="11.4287258"><ele>197.0</ele><time>2026-04-11T12:09:31.247Z</time></trkpt><trkpt lat="43.150135" lon="11.4288533"><ele>198.0</ele><time>2026-04-11T12:09:32.247Z</time></trkpt><trkpt lat="43.1502191" lon="11.4290002"><ele>195.75</ele><time>2026-04-11T12:09:33.246Z</time></trkpt><trkpt lat="43.150298" lon="11.4291619"><ele>193.5</ele><time>2026-04-11T12:09:34.247Z</time></trkpt><trkpt lat="43.150381" lon="11.4293253"><ele>191.25</ele><time>2026-04-11T12:09:35.246Z</time></trkpt><trkpt lat="43.1504691" lon="11.4294662"><ele>189.0</ele><time>2026-04-11T12:09:36.247Z</time></trkpt><trkpt lat="43.1505637" lon="11.4295867"><ele>189.25</ele><time>2026-04-11T12:09:37.247Z</time></trkpt><trkpt lat="43.1506555" lon="11.4296984"><ele>189.5</ele><time>2026-04-11T12:09:38.246Z</time></trkpt><trkpt lat="43.1507472" lon="11.4298004"><ele>189.75</ele><time>2026-04-11T12:09:39.247Z</time></trkpt><trkpt lat="43.1508458" lon="11.4298887"><ele>190.0</ele><time>2026-04-11T12:09:40.246Z</time></trkpt><trkpt lat="43.1509476" lon="11.4299722"><ele>190.0</ele><time>2026-04-11T12:09:41.246Z</time></trkpt><trkpt lat="43.1510462" lon="11.430068"><ele>190.0</ele><time>2026-04-11T12:09:42.246Z</time></trkpt><trkpt lat="43.1511281" lon="11.4301862"><ele>190.0</ele><time>2026-04-11T12:09:43.247Z</time></trkpt><trkpt lat="43.1511853" lon="11.4303208"><ele>190.0</ele><time>2026-04-11T12:09:44.246Z</time></trkpt><trkpt lat="43.1512026" lon="11.4304651"><ele>188.25</ele><time>2026-04-11T12:09:45.246Z</time></trkpt><trkpt lat="43.1511913" lon="11.4306323"><ele>186.5</ele><time>2026-04-11T12:09:46.247Z</time></trkpt><trkpt lat="43.1511657" lon="11.4308234"><ele>184.75</ele><time>2026-04-11T12:09:47.247Z</time></trkpt><trkpt lat="43.1511288" lon="11.4310375"><ele>183.0</ele><time>2026-04-11T12:09:48.246Z</time></trkpt><trkpt lat="43.151099" lon="11.4312458"><ele>181.5</ele><time>2026-04-11T12:09:49.246Z</time></trkpt><trkpt lat="43.1510815" lon="11.4314473"><ele>180.0</ele><time>2026-04-11T12:09:50.247Z</time></trkpt><trkpt lat="43.1510814" lon="11.4316424"><ele>178.5</ele><time>2026-04-11T12:09:51.247Z</time></trkpt><trkpt lat="43.1510974" lon="11.4318336"><ele>177.0</ele><time>2026-04-11T12:09:52.247Z</time></trkpt><trkpt lat="43.1511236" lon="11.43203"><ele>176.25</ele><time>2026-04-11T12:09:53.247Z</time></trkpt><trkpt lat="43.1511409" lon="11.4322202"><ele>175.5</ele><time>2026-04-11T12:09:54.247Z</time></trkpt><trkpt lat="43.1511337" lon="11.4324024"><ele>174.75</ele><time>2026-04-11T12:09:55.246Z</time></trkpt><trkpt lat="43.1511117" lon="11.4325777"><ele>174.0</ele><time>2026-04-11T12:09:56.246Z</time></trkpt><trkpt lat="43.1511112" lon="11.4327355"><ele>174.0</ele><time>2026-04-11T12:09:57.247Z</time></trkpt><trkpt lat="43.1511392" lon="11.4328761"><ele>174.0</ele><time>2026-04-11T12:09:58.247Z</time></trkpt><trkpt lat="43.1511851" lon="11.4330061"><ele>174.0</ele><time>2026-04-11T12:09:59.247Z</time></trkpt><trkpt lat="43.1512586" lon="11.4331253"><ele>174.0</ele><time>2026-04-11T12:10:00.247Z</time></trkpt><trkpt lat="43.1513541" lon="11.433246"><ele>173.0</ele><time>2026-04-11T12:10:01.247Z</time></trkpt><trkpt lat="43.1514675" lon="11.4333643"><ele>172.0</ele><time>2026-04-11T12:10:02.246Z</time></trkpt><trkpt lat="43.1515891" lon="11.4334782"><ele>171.0</ele><time>2026-04-11T12:10:03.247Z</time></trkpt><trkpt lat="43.1517134" lon="11.4335695"><ele>170.0</ele><time>2026-04-11T12:10:04.246Z</time></trkpt><trkpt lat="43.1518379" lon="11.4336254"><ele>172.0</ele><time>2026-04-11T12:10:05.247Z</time></trkpt><trkpt lat="43.1519544" lon="11.4336212"><ele>174.0</ele><time>2026-04-11T12:10:06.247Z</time></trkpt><trkpt lat="43.1520719" lon="11.4335706"><ele>176.0</ele><time>2026-04-11T12:10:07.247Z</time></trkpt><trkpt lat="43.1521761" lon="11.4334866"><ele>178.0</ele><time>2026-04-11T12:10:08.247Z</time></trkpt><trkpt lat="43.1522647" lon="11.4333843"><ele>178.0</ele><time>2026-04-11T12:10:09.247Z</time></trkpt><trkpt lat="43.1523513" lon="11.4332631"><ele>178.0</ele><time>2026-04-11T12:10:10.246Z</time></trkpt><trkpt lat="43.1524386" lon="11.4331381"><ele>178.0</ele><time>2026-04-11T12:10:11.246Z</time></trkpt><trkpt lat="43.152518" lon="11.4330272"><ele>178.0</ele><time>2026-04-11T12:10:12.246Z</time></trkpt><trkpt lat="43.1525892" lon="11.432953"><ele>178.33333333333334</ele><time>2026-04-11T12:10:13.247Z</time></trkpt><trkpt lat="43.1526644" lon="11.4329172"><ele>178.66666666666669</ele><time>2026-04-11T12:10:14.246Z</time></trkpt><trkpt lat="43.1527438" lon="11.432935"><ele>179.0</ele><time>2026-04-11T12:10:15.247Z</time></trkpt><trkpt lat="43.1528131" lon="11.4330191"><ele>179.33333333333334</ele><time>2026-04-11T12:10:16.247Z</time></trkpt><trkpt lat="43.1528518" lon="11.4331435"><ele>179.66666666666666</ele><time>2026-04-11T12:10:17.247Z</time></trkpt><trkpt lat="43.1528475" lon="11.4332557"><ele>180.0</ele><time>2026-04-11T12:10:18.247Z</time></trkpt><trkpt lat="43.1528205" lon="11.4333712"><ele>177.75</ele><time>2026-04-11T12:10:19.247Z</time></trkpt><trkpt lat="43.1527371" lon="11.4334571"><ele>175.5</ele><time>2026-04-11T12:10:20.247Z</time></trkpt><trkpt lat="43.1526392" lon="11.433555"><ele>173.25</ele><time>2026-04-11T12:10:21.247Z</time></trkpt><trkpt lat="43.1525299" lon="11.4336617"><ele>171.0</ele><time>2026-04-11T12:10:22.247Z</time></trkpt><trkpt lat="43.1524084" lon="11.4337962"><ele>170.0</ele><time>2026-04-11T12:10:23.246Z</time></trkpt><trkpt lat="43.1522759" lon="11.4339509"><ele>169.0</ele><time>2026-04-11T12:10:24.246Z</time></trkpt><trkpt lat="43.1521421" lon="11.4341075"><ele>168.0</ele><time>2026-04-11T12:10:25.247Z</time></trkpt><trkpt lat="43.1520185" lon="11.4342502"><ele>168.0</ele><time>2026-04-11T12:10:26.246Z</time></trkpt><trkpt lat="43.1519063" lon="11.4343798"><ele>168.0</ele><time>2026-04-11T12:10:27.247Z</time></trkpt><trkpt lat="43.1518028" lon="11.434504"><ele>168.0</ele><time>2026-04-11T12:10:28.247Z</time></trkpt><trkpt lat="43.1517125" lon="11.4346204"><ele>168.0</ele><time>2026-04-11T12:10:29.248Z</time></trkpt><trkpt lat="43.1516339" lon="11.4347371"><ele>166.0</ele><time>2026-04-11T12:10:30.247Z</time></trkpt><trkpt lat="43.1515721" lon="11.4348661"><ele>164.0</ele><time>2026-04-11T12:10:31.246Z</time></trkpt><trkpt lat="43.1515365" lon="11.4350146"><ele>162.0</ele><time>2026-04-11T12:10:32.247Z</time></trkpt><trkpt lat="43.1515287" lon="11.4351741"><ele>160.0</ele><time>2026-04-11T12:10:33.247Z</time></trkpt><trkpt lat="43.1515473" lon="11.4353468"><ele>159.25</ele><time>2026-04-11T12:10:34.247Z</time></trkpt><trkpt lat="43.1515811" lon="11.4355303"><ele>158.5</ele><time>2026-04-11T12:10:35.246Z</time></trkpt><trkpt lat="43.1516232" lon="11.4357279"><ele>157.75</ele><time>2026-04-11T12:10:36.248Z</time></trkpt><trkpt lat="43.1516635" lon="11.4359411"><ele>157.0</ele><time>2026-04-11T12:10:37.247Z</time></trkpt><trkpt lat="43.1517008" lon="11.436169"><ele>156.33333333333334</ele><time>2026-04-11T12:10:38.248Z</time></trkpt><trkpt lat="43.151736" lon="11.4364017"><ele>155.66666666666666</ele><time>2026-04-11T12:10:39.247Z</time></trkpt><trkpt lat="43.1517727" lon="11.4366339"><ele>155.0</ele><time>2026-04-11T12:10:40.247Z</time></trkpt><trkpt lat="43.1518109" lon="11.4368631"><ele>155.0</ele><time>2026-04-11T12:10:41.248Z</time></trkpt><trkpt lat="43.151847" lon="11.4370845"><ele>155.0</ele><time>2026-04-11T12:10:42.247Z</time></trkpt><trkpt lat="43.151878" lon="11.437293"><ele>155.0</ele><time>2026-04-11T12:10:43.247Z</time></trkpt><trkpt lat="43.1519067" lon="11.4374891"><ele>155.25</ele><time>2026-04-11T12:10:44.248Z</time></trkpt><trkpt lat="43.1519357" lon="11.4376829"><ele>155.5</ele><time>2026-04-11T12:10:45.248Z</time></trkpt><trkpt lat="43.1519665" lon="11.4378729"><ele>155.75</ele><time>2026-04-11T12:10:46.248Z</time></trkpt><trkpt lat="43.1519971" lon="11.4380515"><ele>156.0</ele><time>2026-04-11T12:10:47.248Z</time></trkpt><trkpt lat="43.152021" lon="11.4382119"><ele>157.25</ele><time>2026-04-11T12:10:48.247Z</time></trkpt><trkpt lat="43.1520363" lon="11.4383669"><ele>158.5</ele><time>2026-04-11T12:10:49.248Z</time></trkpt><trkpt lat="43.1520343" lon="11.4385206"><ele>159.75</ele><time>2026-04-11T12:10:50.247Z</time></trkpt><trkpt lat="43.1520096" lon="11.4386684"><ele>161.0</ele><time>2026-04-11T12:10:51.247Z</time></trkpt><trkpt lat="43.1519574" lon="11.4388101"><ele>161.75</ele><time>2026-04-11T12:10:52.247Z</time></trkpt><trkpt lat="43.1518751" lon="11.4389418"><ele>162.5</ele><time>2026-04-11T12:10:53.248Z</time></trkpt><trkpt lat="43.1517742" lon="11.4390677"><ele>163.25</ele><time>2026-04-11T12:10:54.247Z</time></trkpt><trkpt lat="43.1516721" lon="11.4392017"><ele>164.0</ele><time>2026-04-11T12:10:55.248Z</time></trkpt><trkpt lat="43.1515748" lon="11.4393522"><ele>163.5</ele><time>2026-04-11T12:10:56.247Z</time></trkpt><trkpt lat="43.1514856" lon="11.4395056"><ele>163.0</ele><time>2026-04-11T12:10:57.247Z</time></trkpt><trkpt lat="43.151402" lon="11.4396515"><ele>162.5</ele><time>2026-04-11T12:10:58.247Z</time></trkpt><trkpt lat="43.151319" lon="11.4398008"><ele>162.0</ele><time>2026-04-11T12:10:59.247Z</time></trkpt><trkpt lat="43.1512375" lon="11.4399684"><ele>162.0</ele><time>2026-04-11T12:11:00.248Z</time></trkpt><trkpt lat="43.1511609" lon="11.4401513"><ele>162.0</ele><time>2026-04-11T12:11:01.248Z</time></trkpt><trkpt lat="43.1510902" lon="11.4403299"><ele>162.0</ele><time>2026-04-11T12:11:02.248Z</time></trkpt><trkpt lat="43.1510331" lon="11.440484"><ele>162.0</ele><time>2026-04-11T12:11:03.248Z</time></trkpt><trkpt lat="43.1509805" lon="11.4406101"><ele>162.25</ele><time>2026-04-11T12:11:04.247Z</time></trkpt><trkpt lat="43.1509232" lon="11.4407148"><ele>162.5</ele><time>2026-04-11T12:11:05.247Z</time></trkpt><trkpt lat="43.1508505" lon="11.4408129"><ele>162.75</ele><time>2026-04-11T12:11:06.248Z</time></trkpt><trkpt lat="43.1507559" lon="11.440906"><ele>163.0</ele><time>2026-04-11T12:11:07.247Z</time></trkpt><trkpt lat="43.1506284" lon="11.4410186"><ele>163.0</ele><time>2026-04-11T12:11:08.248Z</time></trkpt><trkpt lat="43.1504843" lon="11.4411357"><ele>163.0</ele><time>2026-04-11T12:11:09.247Z</time></trkpt><trkpt lat="43.150326" lon="11.4412427"><ele>163.0</ele><time>2026-04-11T12:11:10.248Z</time></trkpt><trkpt lat="43.1501607" lon="11.4413588"><ele>163.0</ele><time>2026-04-11T12:11:11.247Z</time></trkpt><trkpt lat="43.1499996" lon="11.4414752"><ele>163.0</ele><time>2026-04-11T12:11:12.247Z</time></trkpt><trkpt lat="43.1498501" lon="11.4415919"><ele>163.0</ele><time>2026-04-11T12:11:13.247Z</time></trkpt><trkpt lat="43.1497029" lon="11.4417086"><ele>163.0</ele><time>2026-04-11T12:11:14.248Z</time></trkpt><trkpt lat="43.1495563" lon="11.4418254"><ele>163.0</ele><time>2026-04-11T12:11:15.247Z</time></trkpt><trkpt lat="43.1494123" lon="11.4419393"><ele>163.0</ele><time>2026-04-11T12:11:16.247Z</time></trkpt><trkpt lat="43.1492775" lon="11.4420479"><ele>163.25</ele><time>2026-04-11T12:11:17.247Z</time></trkpt><trkpt lat="43.1491521" lon="11.4421488"><ele>163.5</ele><time>2026-04-11T12:11:18.248Z</time></trkpt><trkpt lat="43.1490343" lon="11.4422441"><ele>163.75</ele><time>2026-04-11T12:11:19.248Z</time></trkpt><trkpt lat="43.1489242" lon="11.4423364"><ele>164.0</ele><time>2026-04-11T12:11:20.248Z</time></trkpt><trkpt lat="43.1488194" lon="11.4424311"><ele>164.0</ele><time>2026-04-11T12:11:21.247Z</time></trkpt><trkpt lat="43.1487182" lon="11.4425404"><ele>164.0</ele><time>2026-04-11T12:11:22.247Z</time></trkpt><trkpt lat="43.1486237" lon="11.4426695"><ele>164.0</ele><time>2026-04-11T12:11:23.247Z</time></trkpt><trkpt lat="43.1485338" lon="11.4428141"><ele>164.0</ele><time>2026-04-11T12:11:24.248Z</time></trkpt><trkpt lat="43.1484451" lon="11.4429582"><ele>163.75</ele><time>2026-04-11T12:11:25.248Z</time></trkpt><trkpt lat="43.1483591" lon="11.4430968"><ele>163.5</ele><time>2026-04-11T12:11:26.247Z</time></trkpt><trkpt lat="43.1482769" lon="11.4432283"><ele>163.25</ele><time>2026-04-11T12:11:27.247Z</time></trkpt><trkpt lat="43.1481958" lon="11.4433514"><ele>163.0</ele><time>2026-04-11T12:11:28.248Z</time></trkpt><trkpt lat="43.1481235" lon="11.4434683"><ele>163.0</ele><time>2026-04-11T12:11:29.247Z</time></trkpt><trkpt lat="43.1480667" lon="11.4435848"><ele>163.0</ele><time>2026-04-11T12:11:30.248Z</time></trkpt><trkpt lat="43.1480326" lon="11.4437049"><ele>163.0</ele><time>2026-04-11T12:11:31.248Z</time></trkpt><trkpt lat="43.1480237" lon="11.4438353"><ele>163.0</ele><time>2026-04-11T12:11:32.247Z</time></trkpt><trkpt lat="43.148044" lon="11.4439825"><ele>163.0</ele><time>2026-04-11T12:11:33.248Z</time></trkpt><trkpt lat="43.1480925" lon="11.4441234"><ele>163.25</ele><time>2026-04-11T12:11:34.248Z</time></trkpt><trkpt lat="43.1481647" lon="11.4442614"><ele>163.5</ele><time>2026-04-11T12:11:35.248Z</time></trkpt><trkpt lat="43.1482249" lon="11.4444005"><ele>163.75</ele><time>2026-04-11T12:11:36.248Z</time></trkpt><trkpt lat="43.1482566" lon="11.4445447"><ele>164.0</ele><time>2026-04-11T12:11:37.248Z</time></trkpt><trkpt lat="43.1482353" lon="11.4446777"><ele>165.39999999999998</ele><time>2026-04-11T12:11:38.248Z</time></trkpt><trkpt lat="43.1481843" lon="11.4447932"><ele>166.8</ele><time>2026-04-11T12:11:39.247Z</time></trkpt><trkpt lat="43.1481153" lon="11.4448843"><ele>168.2</ele><time>2026-04-11T12:11:40.248Z</time></trkpt><trkpt lat="43.1480321" lon="11.4449239"><ele>169.60000000000002</ele><time>2026-04-11T12:11:41.248Z</time></trkpt><trkpt lat="43.1479466" lon="11.4449175"><ele>171.0</ele><time>2026-04-11T12:11:42.249Z</time></trkpt><trkpt lat="43.1478528" lon="11.444881"><ele>171.0</ele><time>2026-04-11T12:11:43.248Z</time></trkpt><trkpt lat="43.1477392" lon="11.4448139"><ele>171.0</ele><time>2026-04-11T12:11:44.249Z</time></trkpt><trkpt lat="43.1476088" lon="11.4447355"><ele>171.0</ele><time>2026-04-11T12:11:45.249Z</time></trkpt><trkpt lat="43.147466" lon="11.4446633"><ele>171.0</ele><time>2026-04-11T12:11:46.249Z</time></trkpt><trkpt lat="43.1473138" lon="11.4446082"><ele>168.0</ele><time>2026-04-11T12:11:47.249Z</time></trkpt><trkpt lat="43.1471476" lon="11.4445627"><ele>165.0</ele><time>2026-04-11T12:11:48.249Z</time></trkpt><trkpt lat="43.1469767" lon="11.4445325"><ele>162.0</ele><time>2026-04-11T12:11:49.249Z</time></trkpt><trkpt lat="43.146812" lon="11.4445253"><ele>162.0</ele><time>2026-04-11T12:11:50.249Z</time></trkpt><trkpt lat="43.1466595" lon="11.4445325"><ele>162.0</ele><time>2026-04-11T12:11:51.248Z</time></trkpt><trkpt lat="43.1465223" lon="11.4445566"><ele>162.0</ele><time>2026-04-11T12:11:52.249Z</time></trkpt><trkpt lat="43.1464041" lon="11.4446004"><ele>162.0</ele><time>2026-04-11T12:11:53.248Z</time></trkpt><trkpt lat="43.146306" lon="11.4446616"><ele>162.0</ele><time>2026-04-11T12:11:54.249Z</time></trkpt><trkpt lat="43.1462346" lon="11.4447382"><ele>162.0</ele><time>2026-04-11T12:11:55.248Z</time></trkpt><trkpt lat="43.1461907" lon="11.4448365"><ele>162.0</ele><time>2026-04-11T12:11:56.249Z</time></trkpt><trkpt lat="43.1461523" lon="11.4449573"><ele>162.0</ele><time>2026-04-11T12:11:57.249Z</time></trkpt><trkpt lat="43.1461181" lon="11.4451069"><ele>162.0</ele><time>2026-04-11T12:11:58.249Z</time></trkpt><trkpt lat="43.1460928" lon="11.4452624"><ele>162.0</ele><time>2026-04-11T12:11:59.248Z</time></trkpt><trkpt lat="43.1460907" lon="11.4454058"><ele>162.0</ele><time>2026-04-11T12:12:00.249Z</time></trkpt><trkpt lat="43.1461165" lon="11.4455497"><ele>162.0</ele><time>2026-04-11T12:12:01.249Z</time></trkpt><trkpt lat="43.1461652" lon="11.4457057"><ele>162.0</ele><time>2026-04-11T12:12:02.249Z</time></trkpt><trkpt lat="43.1462233" lon="11.4458879"><ele>161.75</ele><time>2026-04-11T12:12:03.248Z</time></trkpt><trkpt lat="43.1462791" lon="11.4460833"><ele>161.5</ele><time>2026-04-11T12:12:04.248Z</time></trkpt><trkpt lat="43.1463262" lon="11.4462659"><ele>161.25</ele><time>2026-04-11T12:12:05.249Z</time></trkpt><trkpt lat="43.1463693" lon="11.4464253"><ele>161.0</ele><time>2026-04-11T12:12:06.248Z</time></trkpt><trkpt lat="43.146411" lon="11.4465591"><ele>161.83333333333331</ele><time>2026-04-11T12:12:07.248Z</time></trkpt><trkpt lat="43.1464412" lon="11.4466719"><ele>162.66666666666666</ele><time>2026-04-11T12:12:08.248Z</time></trkpt><trkpt lat="43.1464558" lon="11.4467742"><ele>163.5</ele><time>2026-04-11T12:12:09.248Z</time></trkpt><trkpt lat="43.1464376" lon="11.4468803"><ele>164.33333333333334</ele><time>2026-04-11T12:12:10.249Z</time></trkpt><trkpt lat="43.1463917" lon="11.4469805"><ele>165.16666666666669</ele><time>2026-04-11T12:12:11.248Z</time></trkpt><trkpt lat="43.1463334" lon="11.4470187"><ele>166.0</ele><time>2026-04-11T12:12:12.249Z</time></trkpt><trkpt lat="43.1462573" lon="11.447016"><ele>166.0</ele><time>2026-04-11T12:12:13.249Z</time></trkpt><trkpt lat="43.146163" lon="11.4469855"><ele>166.0</ele><time>2026-04-11T12:12:14.248Z</time></trkpt><trkpt lat="43.1460542" lon="11.4469421"><ele>166.0</ele><time>2026-04-11T12:12:15.249Z</time></trkpt><trkpt lat="43.1459196" lon="11.4468984"><ele>166.0</ele><time>2026-04-11T12:12:16.248Z</time></trkpt><trkpt lat="43.1457721" lon="11.4468785"><ele>165.0</ele><time>2026-04-11T12:12:17.249Z</time></trkpt><trkpt lat="43.1456297" lon="11.4468905"><ele>164.0</ele><time>2026-04-11T12:12:18.248Z</time></trkpt><trkpt lat="43.1455051" lon="11.4469202"><ele>163.0</ele><time>2026-04-11T12:12:19.248Z</time></trkpt><trkpt lat="43.1453935" lon="11.446974"><ele>162.0</ele><time>2026-04-11T12:12:20.248Z</time></trkpt><trkpt lat="43.1452883" lon="11.4470618"><ele>163.5</ele><time>2026-04-11T12:12:21.248Z</time></trkpt><trkpt lat="43.1451898" lon="11.4471802"><ele>165.0</ele><time>2026-04-11T12:12:22.248Z</time></trkpt><trkpt lat="43.145097" lon="11.447309"><ele>166.5</ele><time>2026-04-11T12:12:23.249Z</time></trkpt><trkpt lat="43.1450101" lon="11.447423"><ele>168.0</ele><time>2026-04-11T12:12:24.249Z</time></trkpt><trkpt lat="43.1449381" lon="11.4475138"><ele>168.0</ele><time>2026-04-11T12:12:25.249Z</time></trkpt><trkpt lat="43.1448906" lon="11.4475998"><ele>168.0</ele><time>2026-04-11T12:12:26.248Z</time></trkpt><trkpt lat="43.1448727" lon="11.4476908"><ele>168.0</ele><time>2026-04-11T12:12:27.248Z</time></trkpt><trkpt lat="43.1448793" lon="11.4477953"><ele>168.0</ele><time>2026-04-11T12:12:28.249Z</time></trkpt><trkpt lat="43.1448922" lon="11.4478855"><ele>168.0</ele><time>2026-04-11T12:12:29.249Z</time></trkpt><trkpt lat="43.1448976" lon="11.4479892"><ele>168.0</ele><time>2026-04-11T12:12:31.249Z</time></trkpt><trkpt lat="43.1448904" lon="11.4480921"><ele>168.0</ele><time>2026-04-11T12:12:33.248Z</time></trkpt><trkpt lat="43.1448932" lon="11.4481804"><ele>167.83333333333334</ele><time>2026-04-11T12:12:35.249Z</time></trkpt><trkpt lat="43.1448916" lon="11.4482924"><ele>167.66666666666666</ele><time>2026-04-11T12:12:39.248Z</time></trkpt><trkpt lat="43.1448593" lon="11.4484118"><ele>167.5</ele><time>2026-04-11T12:12:41.248Z</time></trkpt><trkpt lat="43.1448253" lon="11.4484886"><ele>167.33333333333331</ele><time>2026-04-11T12:12:42.248Z</time></trkpt><trkpt lat="43.1447761" lon="11.4485605"><ele>167.16666666666666</ele><time>2026-04-11T12:12:43.249Z</time></trkpt><trkpt lat="43.1447097" lon="11.4486074"><ele>167.0</ele><time>2026-04-11T12:12:44.249Z</time></trkpt><trkpt lat="43.144623" lon="11.448633"><ele>167.0</ele><time>2026-04-11T12:12:45.249Z</time></trkpt><trkpt lat="43.1445177" lon="11.4486419"><ele>167.0</ele><time>2026-04-11T12:12:46.248Z</time></trkpt><trkpt lat="43.1444062" lon="11.4486311"><ele>167.0</ele><time>2026-04-11T12:12:47.249Z</time></trkpt><trkpt lat="43.1442844" lon="11.4485983"><ele>167.0</ele><time>2026-04-11T12:12:48.25Z</time></trkpt><trkpt lat="43.1441616" lon="11.4485456"><ele>167.0</ele><time>2026-04-11T12:12:49.249Z</time></trkpt><trkpt lat="43.144056" lon="11.4484855"><ele>167.0</ele><time>2026-04-11T12:12:50.249Z</time></trkpt><trkpt lat="43.1439541" lon="11.4484255"><ele>167.0</ele><time>2026-04-11T12:12:51.25Z</time></trkpt><trkpt lat="43.1438427" lon="11.4483541"><ele>167.0</ele><time>2026-04-11T12:12:52.25Z</time></trkpt><trkpt lat="43.1437256" lon="11.4482748"><ele>168.25</ele><time>2026-04-11T12:12:53.25Z</time></trkpt><trkpt lat="43.1436064" lon="11.448192"><ele>169.5</ele><time>2026-04-11T12:12:54.249Z</time></trkpt><trkpt lat="43.1434884" lon="11.4481071"><ele>170.75</ele><time>2026-04-11T12:12:55.25Z</time></trkpt><trkpt lat="43.1433723" lon="11.4480212"><ele>172.0</ele><time>2026-04-11T12:12:56.25Z</time></trkpt><trkpt lat="43.1432618" lon="11.4479349"><ele>169.75</ele><time>2026-04-11T12:12:57.25Z</time></trkpt><trkpt lat="43.1431559" lon="11.4478519"><ele>167.5</ele><time>2026-04-11T12:12:58.25Z</time></trkpt><trkpt lat="43.1430522" lon="11.4477793"><ele>165.25</ele><time>2026-04-11T12:12:59.25Z</time></trkpt><trkpt lat="43.142953" lon="11.4477247"><ele>163.0</ele><time>2026-04-11T12:13:00.25Z</time></trkpt><trkpt lat="43.1428486" lon="11.4476879"><ele>163.0</ele><time>2026-04-11T12:13:01.249Z</time></trkpt><trkpt lat="43.1427372" lon="11.4476664"><ele>163.0</ele><time>2026-04-11T12:13:02.249Z</time></trkpt><trkpt lat="43.1426174" lon="11.447662"><ele>163.0</ele><time>2026-04-11T12:13:03.249Z</time></trkpt><trkpt lat="43.1424895" lon="11.4476817"><ele>163.0</ele><time>2026-04-11T12:13:04.25Z</time></trkpt><trkpt lat="43.1423566" lon="11.4477182"><ele>162.8</ele><time>2026-04-11T12:13:05.25Z</time></trkpt><trkpt lat="43.1422343" lon="11.4477602"><ele>162.60000000000002</ele><time>2026-04-11T12:13:06.25Z</time></trkpt><trkpt lat="43.1421294" lon="11.4477967"><ele>162.39999999999998</ele><time>2026-04-11T12:13:07.25Z</time></trkpt><trkpt lat="43.1420403" lon="11.4478278"><ele>162.2</ele><time>2026-04-11T12:13:08.249Z</time></trkpt><trkpt lat="43.1419611" lon="11.447859"><ele>162.0</ele><time>2026-04-11T12:13:09.25Z</time></trkpt><trkpt lat="43.1418865" lon="11.4478912"><ele>162.0</ele><time>2026-04-11T12:13:10.25Z</time></trkpt><trkpt lat="43.1418094" lon="11.4479272"><ele>162.0</ele><time>2026-04-11T12:13:11.249Z</time></trkpt><trkpt lat="43.1417261" lon="11.4479642"><ele>162.0</ele><time>2026-04-11T12:13:12.249Z</time></trkpt><trkpt lat="43.1416303" lon="11.448001"><ele>162.0</ele><time>2026-04-11T12:13:13.249Z</time></trkpt><trkpt lat="43.1415165" lon="11.4480385"><ele>162.0</ele><time>2026-04-11T12:13:14.249Z</time></trkpt><trkpt lat="43.1413823" lon="11.4480736"><ele>164.25</ele><time>2026-04-11T12:13:15.25Z</time></trkpt><trkpt lat="43.1412345" lon="11.4481036"><ele>166.5</ele><time>2026-04-11T12:13:16.25Z</time></trkpt><trkpt lat="43.1410801" lon="11.4481301"><ele>168.75</ele><time>2026-04-11T12:13:17.249Z</time></trkpt><trkpt lat="43.1409435" lon="11.4481552"><ele>171.0</ele><time>2026-04-11T12:13:18.249Z</time></trkpt><trkpt lat="43.1408254" lon="11.4481738"><ele>171.0</ele><time>2026-04-11T12:13:19.249Z</time></trkpt><trkpt lat="43.140724" lon="11.4481881"><ele>171.0</ele><time>2026-04-11T12:13:20.25Z</time></trkpt><trkpt lat="43.1406315" lon="11.448197"><ele>171.0</ele><time>2026-04-11T12:13:21.249Z</time></trkpt><trkpt lat="43.140542" lon="11.4481971"><ele>171.0</ele><time>2026-04-11T12:13:22.25Z</time></trkpt><trkpt lat="43.140445" lon="11.4481802"><ele>171.0</ele><time>2026-04-11T12:13:23.25Z</time></trkpt><trkpt lat="43.1403326" lon="11.4481428"><ele>170.4</ele><time>2026-04-11T12:13:24.249Z</time></trkpt><trkpt lat="43.1402185" lon="11.4480933"><ele>169.8</ele><time>2026-04-11T12:13:25.249Z</time></trkpt><trkpt lat="43.1401106" lon="11.4480368"><ele>169.20000000000002</ele><time>2026-04-11T12:13:26.249Z</time></trkpt><trkpt lat="43.1400117" lon="11.4479821"><ele>168.60000000000002</ele><time>2026-04-11T12:13:27.249Z</time></trkpt><trkpt lat="43.1399258" lon="11.4479261"><ele>168.0</ele><time>2026-04-11T12:13:28.25Z</time></trkpt><trkpt lat="43.1398503" lon="11.4478719"><ele>166.33333333333334</ele><time>2026-04-11T12:13:29.25Z</time></trkpt><trkpt lat="43.1397804" lon="11.4478244"><ele>164.66666666666666</ele><time>2026-04-11T12:13:30.249Z</time></trkpt><trkpt lat="43.1397105" lon="11.4477927"><ele>163.0</ele><time>2026-04-11T12:13:31.249Z</time></trkpt><trkpt lat="43.1396323" lon="11.4477838"><ele>161.33333333333331</ele><time>2026-04-11T12:13:32.249Z</time></trkpt><trkpt lat="43.1395442" lon="11.4478073"><ele>159.66666666666666</ele><time>2026-04-11T12:13:33.25Z</time></trkpt><trkpt lat="43.1394521" lon="11.447867"><ele>158.0</ele><time>2026-04-11T12:13:34.25Z</time></trkpt><trkpt lat="43.1393768" lon="11.447957"><ele>158.5</ele><time>2026-04-11T12:13:35.25Z</time></trkpt><trkpt lat="43.1393293" lon="11.4480718"><ele>159.0</ele><time>2026-04-11T12:13:36.249Z</time></trkpt><trkpt lat="43.1393022" lon="11.4482182"><ele>159.5</ele><time>2026-04-11T12:13:37.25Z</time></trkpt><trkpt lat="43.1392874" lon="11.4483919"><ele>160.0</ele><time>2026-04-11T12:13:38.249Z</time></trkpt><trkpt lat="43.1392799" lon="11.4485821"><ele>160.0</ele><time>2026-04-11T12:13:39.25Z</time></trkpt><trkpt lat="43.1392749" lon="11.4487875"><ele>160.0</ele><time>2026-04-11T12:13:40.25Z</time></trkpt><trkpt lat="43.1392712" lon="11.4489981"><ele>160.0</ele><time>2026-04-11T12:13:41.249Z</time></trkpt><trkpt lat="43.1392715" lon="11.4492187"><ele>160.0</ele><time>2026-04-11T12:13:42.251Z</time></trkpt><trkpt lat="43.1392726" lon="11.4494495"><ele>160.0</ele><time>2026-04-11T12:13:43.249Z</time></trkpt><trkpt lat="43.1392704" lon="11.4496817"><ele>160.0</ele><time>2026-04-11T12:13:44.25Z</time></trkpt><trkpt lat="43.1392704" lon="11.4498941"><ele>160.0</ele><time>2026-04-11T12:13:45.25Z</time></trkpt><trkpt lat="43.1392741" lon="11.4500853"><ele>160.0</ele><time>2026-04-11T12:13:46.25Z</time></trkpt><trkpt lat="43.139283" lon="11.4502618"><ele>160.0</ele><time>2026-04-11T12:13:47.25Z</time></trkpt><trkpt lat="43.1392938" lon="11.4504256"><ele>160.0</ele><time>2026-04-11T12:13:48.249Z</time></trkpt><trkpt lat="43.1393019" lon="11.45058"><ele>160.5</ele><time>2026-04-11T12:13:49.25Z</time></trkpt><trkpt lat="43.1392981" lon="11.450735"><ele>161.0</ele><time>2026-04-11T12:13:50.25Z</time></trkpt><trkpt lat="43.1392743" lon="11.4508924"><ele>161.5</ele><time>2026-04-11T12:13:51.249Z</time></trkpt><trkpt lat="43.1392268" lon="11.4510511"><ele>162.0</ele><time>2026-04-11T12:13:52.251Z</time></trkpt><trkpt lat="43.1391534" lon="11.4512097"><ele>162.5</ele><time>2026-04-11T12:13:53.251Z</time></trkpt><trkpt lat="43.1390678" lon="11.4513594"><ele>163.0</ele><time>2026-04-11T12:13:54.25Z</time></trkpt><trkpt lat="43.138982" lon="11.451512"><ele>163.5</ele><time>2026-04-11T12:13:55.25Z</time></trkpt><trkpt lat="43.1389008" lon="11.4516648"><ele>164.0</ele><time>2026-04-11T12:13:56.25Z</time></trkpt><trkpt lat="43.1388134" lon="11.4518236"><ele>162.33333333333331</ele><time>2026-04-11T12:13:57.25Z</time></trkpt><trkpt lat="43.1387181" lon="11.4519878"><ele>160.66666666666666</ele><time>2026-04-11T12:13:58.251Z</time></trkpt><trkpt lat="43.1386162" lon="11.4521496"><ele>159.0</ele><time>2026-04-11T12:13:59.25Z</time></trkpt><trkpt lat="43.1385193" lon="11.4522919"><ele>159.0</ele><time>2026-04-11T12:14:00.251Z</time></trkpt><trkpt lat="43.1384282" lon="11.4524112"><ele>159.0</ele><time>2026-04-11T12:14:01.251Z</time></trkpt><trkpt lat="43.1383387" lon="11.4525162"><ele>159.0</ele><time>2026-04-11T12:14:02.251Z</time></trkpt><trkpt lat="43.138247" lon="11.452607"><ele>159.0</ele><time>2026-04-11T12:14:03.25Z</time></trkpt><trkpt lat="43.1381439" lon="11.452693"><ele>159.5</ele><time>2026-04-11T12:14:04.25Z</time></trkpt><trkpt lat="43.1380225" lon="11.4527764"><ele>160.0</ele><time>2026-04-11T12:14:05.251Z</time></trkpt><trkpt lat="43.137887" lon="11.452858"><ele>160.5</ele><time>2026-04-11T12:14:06.251Z</time></trkpt><trkpt lat="43.1377465" lon="11.4529443"><ele>161.0</ele><time>2026-04-11T12:14:07.25Z</time></trkpt><trkpt lat="43.1376057" lon="11.4530273"><ele>161.0</ele><time>2026-04-11T12:14:08.25Z</time></trkpt><trkpt lat="43.137476" lon="11.4531005"><ele>161.0</ele><time>2026-04-11T12:14:09.25Z</time></trkpt><trkpt lat="43.1373572" lon="11.4531726"><ele>161.0</ele><time>2026-04-11T12:14:10.25Z</time></trkpt><trkpt lat="43.1372489" lon="11.453256"><ele>161.0</ele><time>2026-04-11T12:14:11.251Z</time></trkpt><trkpt lat="43.1371413" lon="11.4533582"><ele>161.0</ele><time>2026-04-11T12:14:12.25Z</time></trkpt><trkpt lat="43.1370295" lon="11.4534772"><ele>161.0</ele><time>2026-04-11T12:14:13.251Z</time></trkpt><trkpt lat="43.1369167" lon="11.4536012"><ele>161.0</ele><time>2026-04-11T12:14:14.251Z</time></trkpt><trkpt lat="43.1368079" lon="11.4537206"><ele>161.0</ele><time>2026-04-11T12:14:15.251Z</time></trkpt><trkpt lat="43.1367067" lon="11.4538322"><ele>161.0</ele><time>2026-04-11T12:14:16.251Z</time></trkpt><trkpt lat="43.136613" lon="11.4539442"><ele>161.0</ele><time>2026-04-11T12:14:17.25Z</time></trkpt><trkpt lat="43.136526" lon="11.4540643"><ele>161.0</ele><time>2026-04-11T12:14:18.251Z</time></trkpt><trkpt lat="43.1364385" lon="11.4541982"><ele>161.0</ele><time>2026-04-11T12:14:19.251Z</time></trkpt><trkpt lat="43.1363457" lon="11.4543512"><ele>159.33333333333331</ele><time>2026-04-11T12:14:20.251Z</time></trkpt><trkpt lat="43.1362552" lon="11.4545169"><ele>157.66666666666666</ele><time>2026-04-11T12:14:21.25Z</time></trkpt><trkpt lat="43.1361714" lon="11.4546902"><ele>156.0</ele><time>2026-04-11T12:14:22.25Z</time></trkpt><trkpt lat="43.1360928" lon="11.4548657"><ele>156.0</ele><time>2026-04-11T12:14:23.25Z</time></trkpt><trkpt lat="43.1360172" lon="11.4550395"><ele>156.0</ele><time>2026-04-11T12:14:24.251Z</time></trkpt><trkpt lat="43.135942" lon="11.455211"><ele>156.0</ele><time>2026-04-11T12:14:25.251Z</time></trkpt><trkpt lat="43.1358651" lon="11.4553744"><ele>156.0</ele><time>2026-04-11T12:14:26.251Z</time></trkpt><trkpt lat="43.1357864" lon="11.4555244"><ele>155.0</ele><time>2026-04-11T12:14:27.25Z</time></trkpt><trkpt lat="43.1357035" lon="11.4556566"><ele>154.0</ele><time>2026-04-11T12:14:28.251Z</time></trkpt><trkpt lat="43.1356081" lon="11.4557666"><ele>153.0</ele><time>2026-04-11T12:14:29.251Z</time></trkpt><trkpt lat="43.1354976" lon="11.4558662"><ele>152.0</ele><time>2026-04-11T12:14:30.251Z</time></trkpt><trkpt lat="43.1353736" lon="11.4559776"><ele>152.0</ele><time>2026-04-11T12:14:31.25Z</time></trkpt><trkpt lat="43.1352444" lon="11.4561025"><ele>152.0</ele><time>2026-04-11T12:14:32.251Z</time></trkpt><trkpt lat="43.1351148" lon="11.4562323"><ele>152.0</ele><time>2026-04-11T12:14:33.251Z</time></trkpt><trkpt lat="43.1349875" lon="11.4563576"><ele>152.0</ele><time>2026-04-11T12:14:34.251Z</time></trkpt><trkpt lat="43.134865" lon="11.4564772"><ele>152.0</ele><time>2026-04-11T12:14:35.25Z</time></trkpt><trkpt lat="43.1347478" lon="11.4565961"><ele>152.0</ele><time>2026-04-11T12:14:36.25Z</time></trkpt><trkpt lat="43.1346287" lon="11.4567155"><ele>152.0</ele><time>2026-04-11T12:14:37.251Z</time></trkpt><trkpt lat="43.1345067" lon="11.4568364"><ele>152.0</ele><time>2026-04-11T12:14:38.251Z</time></trkpt><trkpt lat="43.1343857" lon="11.4569588"><ele>152.0</ele><time>2026-04-11T12:14:39.25Z</time></trkpt><trkpt lat="43.1342612" lon="11.4570855"><ele>152.0</ele><time>2026-04-11T12:14:40.251Z</time></trkpt><trkpt lat="43.1341323" lon="11.4572183"><ele>151.33333333333331</ele><time>2026-04-11T12:14:41.251Z</time></trkpt><trkpt lat="43.1340028" lon="11.4573501"><ele>150.66666666666666</ele><time>2026-04-11T12:14:42.25Z</time></trkpt><trkpt lat="43.1338719" lon="11.4574789"><ele>150.0</ele><time>2026-04-11T12:14:43.251Z</time></trkpt><trkpt lat="43.1337444" lon="11.4576036"><ele>150.0</ele><time>2026-04-11T12:14:44.251Z</time></trkpt><trkpt lat="43.1336227" lon="11.4577204"><ele>150.0</ele><time>2026-04-11T12:14:45.25Z</time></trkpt><trkpt lat="43.1335058" lon="11.4578254"><ele>150.0</ele><time>2026-04-11T12:14:46.251Z</time></trkpt><trkpt lat="43.1333884" lon="11.4579266"><ele>150.0</ele><time>2026-04-11T12:14:47.251Z</time></trkpt><trkpt lat="43.1332696" lon="11.4580326"><ele>149.25</ele><time>2026-04-11T12:14:48.251Z</time></trkpt><trkpt lat="43.133154" lon="11.4581511"><ele>148.5</ele><time>2026-04-11T12:14:49.251Z</time></trkpt><trkpt lat="43.1330419" lon="11.4582787"><ele>147.75</ele><time>2026-04-11T12:14:50.251Z</time></trkpt><trkpt lat="43.1329347" lon="11.458412"><ele>147.0</ele><time>2026-04-11T12:14:51.251Z</time></trkpt><trkpt lat="43.1328283" lon="11.4585453"><ele>147.0</ele><time>2026-04-11T12:14:52.25Z</time></trkpt><trkpt lat="43.1327291" lon="11.4586717"><ele>147.0</ele><time>2026-04-11T12:14:53.251Z</time></trkpt><trkpt lat="43.1326446" lon="11.4587919"><ele>147.0</ele><time>2026-04-11T12:14:54.25Z</time></trkpt><trkpt lat="43.1325734" lon="11.4589247"><ele>147.0</ele><time>2026-04-11T12:14:55.251Z</time></trkpt><trkpt lat="43.132517" lon="11.4590763"><ele>146.33333333333334</ele><time>2026-04-11T12:14:56.25Z</time></trkpt><trkpt lat="43.1324631" lon="11.4592646"><ele>145.66666666666669</ele><time>2026-04-11T12:14:57.25Z</time></trkpt><trkpt lat="43.1324141" lon="11.4594738"><ele>145.0</ele><time>2026-04-11T12:14:58.252Z</time></trkpt><trkpt lat="43.1323672" lon="11.4596935"><ele>145.0</ele><time>2026-04-11T12:14:59.251Z</time></trkpt><trkpt lat="43.132321" lon="11.4599005"><ele>145.0</ele><time>2026-04-11T12:15:00.252Z</time></trkpt><trkpt lat="43.1322761" lon="11.4601005"><ele>145.0</ele><time>2026-04-11T12:15:01.252Z</time></trkpt><trkpt lat="43.1322351" lon="11.4602905"><ele>145.25</ele><time>2026-04-11T12:15:02.251Z</time></trkpt><trkpt lat="43.1321934" lon="11.460467"><ele>145.5</ele><time>2026-04-11T12:15:03.251Z</time></trkpt><trkpt lat="43.1321515" lon="11.4606303"><ele>145.75</ele><time>2026-04-11T12:15:04.251Z</time></trkpt><trkpt lat="43.1321158" lon="11.4607776"><ele>146.0</ele><time>2026-04-11T12:15:05.251Z</time></trkpt><trkpt lat="43.1320929" lon="11.4609087"><ele>146.0</ele><time>2026-04-11T12:15:06.253Z</time></trkpt><trkpt lat="43.1320875" lon="11.4610381"><ele>146.0</ele><time>2026-04-11T12:15:07.251Z</time></trkpt><trkpt lat="43.1320969" lon="11.4611862"><ele>146.0</ele><time>2026-04-11T12:15:08.251Z</time></trkpt><trkpt lat="43.1321211" lon="11.4613646"><ele>146.0</ele><time>2026-04-11T12:15:09.251Z</time></trkpt><trkpt lat="43.1321478" lon="11.4615387"><ele>146.0</ele><time>2026-04-11T12:15:10.252Z</time></trkpt><trkpt lat="43.1321661" lon="11.4616872"><ele>146.0</ele><time>2026-04-11T12:15:11.253Z</time></trkpt><trkpt lat="43.1321732" lon="11.4617934"><ele>146.0</ele><time>2026-04-11T12:15:12.252Z</time></trkpt><trkpt lat="43.1321649" lon="11.4619186"><ele>146.0</ele><time>2026-04-11T12:15:14.251Z</time></trkpt><trkpt lat="43.1320736" lon="11.461937"><ele>146.0</ele><time>2026-04-11T12:15:18.251Z</time></trkpt><trkpt lat="43.1319896" lon="11.4618187"><ele>146.0</ele><time>2026-04-11T12:15:20.252Z</time></trkpt><trkpt lat="43.1319491" lon="11.4616966"><ele>146.0</ele><time>2026-04-11T12:15:21.252Z</time></trkpt><trkpt lat="43.1319034" lon="11.4616076"><ele>146.0</ele><time>2026-04-11T12:15:22.252Z</time></trkpt><trkpt lat="43.1318483" lon="11.4615654"><ele>146.0</ele><time>2026-04-11T12:15:23.251Z</time></trkpt><trkpt lat="43.1317809" lon="11.4615531"><ele>146.0</ele><time>2026-04-11T12:15:24.251Z</time></trkpt><trkpt lat="43.1316905" lon="11.4615543"><ele>146.0</ele><time>2026-04-11T12:15:25.251Z</time></trkpt><trkpt lat="43.1315976" lon="11.4615501"><ele>145.4</ele><time>2026-04-11T12:15:26.252Z</time></trkpt><trkpt lat="43.1315076" lon="11.4615353"><ele>144.8</ele><time>2026-04-11T12:15:27.252Z</time></trkpt><trkpt lat="43.1314236" lon="11.4615039"><ele>144.20000000000002</ele><time>2026-04-11T12:15:28.251Z</time></trkpt><trkpt lat="43.131344" lon="11.4614455"><ele>143.6</ele><time>2026-04-11T12:15:29.251Z</time></trkpt><trkpt lat="43.1312677" lon="11.4613473"><ele>143.0</ele><time>2026-04-11T12:15:30.251Z</time></trkpt><trkpt lat="43.1311985" lon="11.461213"><ele>143.0</ele><time>2026-04-11T12:15:31.251Z</time></trkpt><trkpt lat="43.1311416" lon="11.4610777"><ele>143.0</ele><time>2026-04-11T12:15:32.252Z</time></trkpt><trkpt lat="43.1310954" lon="11.4609701"><ele>143.0</ele><time>2026-04-11T12:15:33.251Z</time></trkpt><trkpt lat="43.1310543" lon="11.4608948"><ele>143.0</ele><time>2026-04-11T12:15:34.252Z</time></trkpt><trkpt lat="43.1309662" lon="11.4608062"><ele>143.0</ele><time>2026-04-11T12:15:36.251Z</time></trkpt><trkpt lat="43.1308541" lon="11.4607786"><ele>143.0</ele><time>2026-04-11T12:15:38.251Z</time></trkpt><trkpt lat="43.1307754" lon="11.4607816"><ele>143.0</ele><time>2026-04-11T12:15:39.252Z</time></trkpt><trkpt lat="43.1306914" lon="11.4607821"><ele>143.0</ele><time>2026-04-11T12:15:40.251Z</time></trkpt><trkpt lat="43.1306181" lon="11.4607617"><ele>143.0</ele><time>2026-04-11T12:15:41.251Z</time></trkpt><trkpt lat="43.1305557" lon="11.4607141"><ele>143.0</ele><time>2026-04-11T12:15:42.253Z</time></trkpt><trkpt lat="43.1304985" lon="11.4606413"><ele>143.0</ele><time>2026-04-11T12:15:43.251Z</time></trkpt><trkpt lat="43.130447" lon="11.4605468"><ele>143.25</ele><time>2026-04-11T12:15:44.252Z</time></trkpt><trkpt lat="43.1304074" lon="11.4604267"><ele>143.5</ele><time>2026-04-11T12:15:45.252Z</time></trkpt><trkpt lat="43.1303793" lon="11.4602748"><ele>143.75</ele><time>2026-04-11T12:15:46.252Z</time></trkpt><trkpt lat="43.1303533" lon="11.4600927"><ele>144.0</ele><time>2026-04-11T12:15:47.251Z</time></trkpt><trkpt lat="43.1303185" lon="11.4598925"><ele>144.0</ele><time>2026-04-11T12:15:48.252Z</time></trkpt><trkpt lat="43.130275" lon="11.4596828"><ele>144.0</ele><time>2026-04-11T12:15:49.252Z</time></trkpt><trkpt lat="43.1302291" lon="11.4594737"><ele>144.0</ele><time>2026-04-11T12:15:50.251Z</time></trkpt><trkpt lat="43.130187" lon="11.4592764"><ele>144.25</ele><time>2026-04-11T12:15:51.251Z</time></trkpt><trkpt lat="43.1301479" lon="11.4590959"><ele>144.5</ele><time>2026-04-11T12:15:52.252Z</time></trkpt><trkpt lat="43.1301094" lon="11.4589274"><ele>144.75</ele><time>2026-04-11T12:15:53.252Z</time></trkpt><trkpt lat="43.1300719" lon="11.4587775"><ele>145.0</ele><time>2026-04-11T12:15:54.251Z</time></trkpt><trkpt lat="43.1300381" lon="11.458643"><ele>146.0</ele><time>2026-04-11T12:15:55.252Z</time></trkpt><trkpt lat="43.1300114" lon="11.4585274"><ele>147.0</ele><time>2026-04-11T12:15:56.252Z</time></trkpt><trkpt lat="43.1299973" lon="11.4584342"><ele>148.0</ele><time>2026-04-11T12:15:57.251Z</time></trkpt><trkpt lat="43.1300076" lon="11.4582917"><ele>149.0</ele><time>2026-04-11T12:15:59.252Z</time></trkpt><trkpt lat="43.129999" lon="11.4581846"><ele>150.0</ele><time>2026-04-11T12:16:01.252Z</time></trkpt><trkpt lat="43.1299534" lon="11.4580845"><ele>151.0</ele><time>2026-04-11T12:16:02.251Z</time></trkpt><trkpt lat="43.1298675" lon="11.4579375"><ele>154.33333333333334</ele><time>2026-04-11T12:16:03.252Z</time></trkpt><trkpt lat="43.1297676" lon="11.4577752"><ele>157.66666666666666</ele><time>2026-04-11T12:16:04.253Z</time></trkpt><trkpt lat="43.129657" lon="11.4575976"><ele>161.0</ele><time>2026-04-11T12:16:05.253Z</time></trkpt><trkpt lat="43.1295349" lon="11.4573957"><ele>161.0</ele><time>2026-04-11T12:16:06.252Z</time></trkpt><trkpt lat="43.1294093" lon="11.4571779"><ele>161.0</ele><time>2026-04-11T12:16:07.253Z</time></trkpt><trkpt lat="43.1292801" lon="11.4569516"><ele>161.0</ele><time>2026-04-11T12:16:08.252Z</time></trkpt><trkpt lat="43.1291581" lon="11.4567292"><ele>165.0</ele><time>2026-04-11T12:16:09.253Z</time></trkpt><trkpt lat="43.1290519" lon="11.4565383"><ele>169.0</ele><time>2026-04-11T12:16:10.252Z</time></trkpt><trkpt lat="43.1289554" lon="11.4563645"><ele>173.0</ele><time>2026-04-11T12:16:11.253Z</time></trkpt><trkpt lat="43.128864" lon="11.4561991"><ele>173.66666666666666</ele><time>2026-04-11T12:16:12.252Z</time></trkpt><trkpt lat="43.1287743" lon="11.4560346"><ele>174.33333333333334</ele><time>2026-04-11T12:16:13.253Z</time></trkpt><trkpt lat="43.1286818" lon="11.4558664"><ele>175.0</ele><time>2026-04-11T12:16:14.253Z</time></trkpt><trkpt lat="43.1285891" lon="11.4557033"><ele>175.0</ele><time>2026-04-11T12:16:15.253Z</time></trkpt><trkpt lat="43.1284904" lon="11.4555546"><ele>175.0</ele><time>2026-04-11T12:16:16.253Z</time></trkpt><trkpt lat="43.1283784" lon="11.4554334"><ele>175.0</ele><time>2026-04-11T12:16:17.253Z</time></trkpt><trkpt lat="43.1282449" lon="11.4553421"><ele>175.0</ele><time>2026-04-11T12:16:18.253Z</time></trkpt><trkpt lat="43.1280886" lon="11.4552714"><ele>181.0</ele><time>2026-04-11T12:16:19.253Z</time></trkpt><trkpt lat="43.1279102" lon="11.4552152"><ele>187.0</ele><time>2026-04-11T12:16:20.253Z</time></trkpt><trkpt lat="43.1277328" lon="11.4551439"><ele>193.0</ele><time>2026-04-11T12:16:21.252Z</time></trkpt><trkpt lat="43.1275563" lon="11.4550652"><ele>193.0</ele><time>2026-04-11T12:16:22.252Z</time></trkpt><trkpt lat="43.1274005" lon="11.4549895"><ele>193.0</ele><time>2026-04-11T12:16:23.253Z</time></trkpt><trkpt lat="43.1272587" lon="11.454913"><ele>193.0</ele><time>2026-04-11T12:16:24.253Z</time></trkpt><trkpt lat="43.1271271" lon="11.4548223"><ele>196.66666666666666</ele><time>2026-04-11T12:16:25.253Z</time></trkpt><trkpt lat="43.1270128" lon="11.4546919"><ele>200.33333333333331</ele><time>2026-04-11T12:16:26.253Z</time></trkpt><trkpt lat="43.1269112" lon="11.4545237"><ele>204.0</ele><time>2026-04-11T12:16:27.252Z</time></trkpt><trkpt lat="43.1268247" lon="11.4543179"><ele>207.0</ele><time>2026-04-11T12:16:28.253Z</time></trkpt><trkpt lat="43.1267578" lon="11.4540936"><ele>210.0</ele><time>2026-04-11T12:16:29.252Z</time></trkpt><trkpt lat="43.1267182" lon="11.4538599"><ele>213.0</ele><time>2026-04-11T12:16:30.252Z</time></trkpt><trkpt lat="43.1267026" lon="11.4536117"><ele>215.0</ele><time>2026-04-11T12:16:31.252Z</time></trkpt><trkpt lat="43.1266994" lon="11.453351"><ele>217.0</ele><time>2026-04-11T12:16:32.253Z</time></trkpt><trkpt lat="43.1267045" lon="11.4530842"><ele>219.0</ele><time>2026-04-11T12:16:33.252Z</time></trkpt><trkpt lat="43.1267098" lon="11.4528413"><ele>220.0</ele><time>2026-04-11T12:16:34.252Z</time></trkpt><trkpt lat="43.1267213" lon="11.4526163"><ele>221.0</ele><time>2026-04-11T12:16:35.252Z</time></trkpt><trkpt lat="43.1267378" lon="11.4523865"><ele>222.0</ele><time>2026-04-11T12:16:36.252Z</time></trkpt><trkpt lat="43.1267466" lon="11.4521454"><ele>223.0</ele><time>2026-04-11T12:16:37.253Z</time></trkpt><trkpt lat="43.1267393" lon="11.4519006"><ele>224.0</ele><time>2026-04-11T12:16:38.252Z</time></trkpt><trkpt lat="43.1267201" lon="11.4516526"><ele>225.0</ele><time>2026-04-11T12:16:39.253Z</time></trkpt><trkpt lat="43.1266938" lon="11.4513993"><ele>225.0</ele><time>2026-04-11T12:16:40.252Z</time></trkpt><trkpt lat="43.1266524" lon="11.4511417"><ele>225.0</ele><time>2026-04-11T12:16:41.252Z</time></trkpt><trkpt lat="43.1265865" lon="11.4508906"><ele>225.0</ele><time>2026-04-11T12:16:42.253Z</time></trkpt><trkpt lat="43.1265001" lon="11.450646"><ele>227.0</ele><time>2026-04-11T12:16:43.253Z</time></trkpt><trkpt lat="43.1264139" lon="11.4504086"><ele>229.0</ele><time>2026-04-11T12:16:44.253Z</time></trkpt><trkpt lat="43.1263351" lon="11.450178"><ele>231.0</ele><time>2026-04-11T12:16:45.253Z</time></trkpt><trkpt lat="43.1262728" lon="11.4499683"><ele>231.0</ele><time>2026-04-11T12:16:46.253Z</time></trkpt><trkpt lat="43.1262196" lon="11.4497737"><ele>231.0</ele><time>2026-04-11T12:16:47.253Z</time></trkpt><trkpt lat="43.1261647" lon="11.4495925"><ele>231.0</ele><time>2026-04-11T12:16:48.252Z</time></trkpt><trkpt lat="43.1260951" lon="11.4494273"><ele>231.0</ele><time>2026-04-11T12:16:49.253Z</time></trkpt><trkpt lat="43.1260066" lon="11.4492926"><ele>233.0</ele><time>2026-04-11T12:16:50.252Z</time></trkpt><trkpt lat="43.1258912" lon="11.449182"><ele>235.0</ele><time>2026-04-11T12:16:51.252Z</time></trkpt><trkpt lat="43.1257548" lon="11.4491053"><ele>237.0</ele><time>2026-04-11T12:16:52.253Z</time></trkpt><trkpt lat="43.1256044" lon="11.4490546"><ele>239.0</ele><time>2026-04-11T12:16:53.252Z</time></trkpt><trkpt lat="43.1254559" lon="11.4490135"><ele>239.0</ele><time>2026-04-11T12:16:54.253Z</time></trkpt><trkpt lat="43.1253072" lon="11.4489729"><ele>239.0</ele><time>2026-04-11T12:16:55.252Z</time></trkpt><trkpt lat="43.1251625" lon="11.4489321"><ele>239.0</ele><time>2026-04-11T12:16:56.252Z</time></trkpt><trkpt lat="43.1250422" lon="11.4488878"><ele>239.0</ele><time>2026-04-11T12:16:57.253Z</time></trkpt><trkpt lat="43.1249511" lon="11.4488472"><ele>239.16666666666669</ele><time>2026-04-11T12:16:58.252Z</time></trkpt><trkpt lat="43.1248689" lon="11.4488015"><ele>239.33333333333334</ele><time>2026-04-11T12:16:59.253Z</time></trkpt><trkpt lat="43.1247871" lon="11.4487556"><ele>239.5</ele><time>2026-04-11T12:17:00.252Z</time></trkpt><trkpt lat="43.1247048" lon="11.4487245"><ele>239.66666666666669</ele><time>2026-04-11T12:17:01.252Z</time></trkpt><trkpt lat="43.1246277" lon="11.4487301"><ele>239.83333333333334</ele><time>2026-04-11T12:17:02.252Z</time></trkpt><trkpt lat="43.1245502" lon="11.4487693"><ele>240.0</ele><time>2026-04-11T12:17:03.253Z</time></trkpt><trkpt lat="43.124473" lon="11.4488621"><ele>239.25</ele><time>2026-04-11T12:17:04.253Z</time></trkpt><trkpt lat="43.1243968" lon="11.448987"><ele>238.5</ele><time>2026-04-11T12:17:05.253Z</time></trkpt><trkpt lat="43.124326" lon="11.4491223"><ele>237.75</ele><time>2026-04-11T12:17:06.252Z</time></trkpt><trkpt lat="43.1242432" lon="11.4492424"><ele>237.0</ele><time>2026-04-11T12:17:07.252Z</time></trkpt><trkpt lat="43.1241547" lon="11.4493106"><ele>236.25</ele><time>2026-04-11T12:17:08.253Z</time></trkpt><trkpt lat="43.1240548" lon="11.449329"><ele>235.5</ele><time>2026-04-11T12:17:09.253Z</time></trkpt><trkpt lat="43.1239289" lon="11.4492905"><ele>234.75</ele><time>2026-04-11T12:17:10.253Z</time></trkpt><trkpt lat="43.1237953" lon="11.4492435"><ele>234.0</ele><time>2026-04-11T12:17:11.254Z</time></trkpt><trkpt lat="43.1236522" lon="11.4491847"><ele>234.0</ele><time>2026-04-11T12:17:12.254Z</time></trkpt><trkpt lat="43.1235018" lon="11.4491225"><ele>234.0</ele><time>2026-04-11T12:17:13.254Z</time></trkpt><trkpt lat="43.1233465" lon="11.4490618"><ele>234.0</ele><time>2026-04-11T12:17:14.253Z</time></trkpt><trkpt lat="43.1231866" lon="11.4490035"><ele>233.0</ele><time>2026-04-11T12:17:15.254Z</time></trkpt><trkpt lat="43.1230219" lon="11.4489367"><ele>232.0</ele><time>2026-04-11T12:17:16.254Z</time></trkpt><trkpt lat="43.1228663" lon="11.4488719"><ele>231.0</ele><time>2026-04-11T12:17:17.253Z</time></trkpt><trkpt lat="43.1227238" lon="11.4488171"><ele>230.75</ele><time>2026-04-11T12:17:18.253Z</time></trkpt><trkpt lat="43.1225878" lon="11.448762"><ele>230.5</ele><time>2026-04-11T12:17:19.253Z</time></trkpt><trkpt lat="43.1224516" lon="11.4487083"><ele>230.25</ele><time>2026-04-11T12:17:20.254Z</time></trkpt><trkpt lat="43.1223135" lon="11.4486582"><ele>230.0</ele><time>2026-04-11T12:17:21.254Z</time></trkpt><trkpt lat="43.1221719" lon="11.4486088"><ele>228.5</ele><time>2026-04-11T12:17:22.253Z</time></trkpt><trkpt lat="43.1220298" lon="11.4485582"><ele>227.0</ele><time>2026-04-11T12:17:23.254Z</time></trkpt><trkpt lat="43.1218844" lon="11.4485067"><ele>225.5</ele><time>2026-04-11T12:17:24.253Z</time></trkpt><trkpt lat="43.1217389" lon="11.4484538"><ele>224.0</ele><time>2026-04-11T12:17:25.254Z</time></trkpt><trkpt lat="43.1215996" lon="11.4483982"><ele>222.25</ele><time>2026-04-11T12:17:26.253Z</time></trkpt><trkpt lat="43.1214756" lon="11.4483239"><ele>220.5</ele><time>2026-04-11T12:17:27.253Z</time></trkpt><trkpt lat="43.1213707" lon="11.4482092"><ele>218.75</ele><time>2026-04-11T12:17:28.254Z</time></trkpt><trkpt lat="43.1212786" lon="11.4480493"><ele>217.0</ele><time>2026-04-11T12:17:29.253Z</time></trkpt><trkpt lat="43.1212126" lon="11.4478504"><ele>217.0</ele><time>2026-04-11T12:17:30.253Z</time></trkpt><trkpt lat="43.1211611" lon="11.4476535"><ele>217.0</ele><time>2026-04-11T12:17:31.253Z</time></trkpt><trkpt lat="43.1211148" lon="11.4474666"><ele>217.0</ele><time>2026-04-11T12:17:32.253Z</time></trkpt><trkpt lat="43.1210651" lon="11.4472837"><ele>217.0</ele><time>2026-04-11T12:17:33.254Z</time></trkpt><trkpt lat="43.1210112" lon="11.4470954"><ele>216.0</ele><time>2026-04-11T12:17:34.254Z</time></trkpt><trkpt lat="43.120953" lon="11.4469023"><ele>215.0</ele><time>2026-04-11T12:17:35.254Z</time></trkpt><trkpt lat="43.1208941" lon="11.44671"><ele>214.0</ele><time>2026-04-11T12:17:36.253Z</time></trkpt><trkpt lat="43.1208373" lon="11.4465296"><ele>213.0</ele><time>2026-04-11T12:17:37.254Z</time></trkpt><trkpt lat="43.1207837" lon="11.4463658"><ele>212.5</ele><time>2026-04-11T12:17:38.254Z</time></trkpt><trkpt lat="43.1207326" lon="11.4462095"><ele>212.0</ele><time>2026-04-11T12:17:39.254Z</time></trkpt><trkpt lat="43.1206859" lon="11.4460503"><ele>211.5</ele><time>2026-04-11T12:17:40.254Z</time></trkpt><trkpt lat="43.1206553" lon="11.4458763"><ele>211.0</ele><time>2026-04-11T12:17:41.254Z</time></trkpt><trkpt lat="43.1206606" lon="11.4456997"><ele>211.0</ele><time>2026-04-11T12:17:42.254Z</time></trkpt><trkpt lat="43.1207024" lon="11.4455231"><ele>211.0</ele><time>2026-04-11T12:17:43.254Z</time></trkpt><trkpt lat="43.1207652" lon="11.4453528"><ele>211.0</ele><time>2026-04-11T12:17:44.253Z</time></trkpt><trkpt lat="43.120833" lon="11.4451888"><ele>211.0</ele><time>2026-04-11T12:17:45.254Z</time></trkpt><trkpt lat="43.1208795" lon="11.4450363"><ele>211.0</ele><time>2026-04-11T12:17:46.254Z</time></trkpt><trkpt lat="43.1209029" lon="11.4448889"><ele>211.0</ele><time>2026-04-11T12:17:47.253Z</time></trkpt><trkpt lat="43.1208718" lon="11.4447345"><ele>211.0</ele><time>2026-04-11T12:17:48.253Z</time></trkpt><trkpt lat="43.120806" lon="11.4445998"><ele>211.0</ele><time>2026-04-11T12:17:49.253Z</time></trkpt><trkpt lat="43.1207042" lon="11.4444799"><ele>208.66666666666666</ele><time>2026-04-11T12:17:50.254Z</time></trkpt><trkpt lat="43.1205682" lon="11.4443718"><ele>206.33333333333331</ele><time>2026-04-11T12:17:51.253Z</time></trkpt><trkpt lat="43.120412" lon="11.4442775"><ele>204.0</ele><time>2026-04-11T12:17:52.253Z</time></trkpt><trkpt lat="43.1202417" lon="11.4441779"><ele>204.0</ele><time>2026-04-11T12:17:53.254Z</time></trkpt><trkpt lat="43.120072" lon="11.4440751"><ele>204.0</ele><time>2026-04-11T12:17:54.253Z</time></trkpt><trkpt lat="43.1199027" lon="11.4439677"><ele>204.0</ele><time>2026-04-11T12:17:55.253Z</time></trkpt><trkpt lat="43.119743" lon="11.4438621"><ele>199.66666666666666</ele><time>2026-04-11T12:17:56.253Z</time></trkpt><trkpt lat="43.1195847" lon="11.4437569"><ele>195.33333333333331</ele><time>2026-04-11T12:17:57.254Z</time></trkpt><trkpt lat="43.1194191" lon="11.4436559"><ele>191.0</ele><time>2026-04-11T12:17:58.254Z</time></trkpt><trkpt lat="43.1192662" lon="11.4435566"><ele>191.0</ele><time>2026-04-11T12:17:59.254Z</time></trkpt><trkpt lat="43.1191106" lon="11.4434515"><ele>191.0</ele><time>2026-04-11T12:18:00.255Z</time></trkpt><trkpt lat="43.1189635" lon="11.4433183"><ele>191.0</ele><time>2026-04-11T12:18:01.254Z</time></trkpt><trkpt lat="43.118831" lon="11.4431675"><ele>189.66666666666666</ele><time>2026-04-11T12:18:02.254Z</time></trkpt><trkpt lat="43.118723" lon="11.4429974"><ele>188.33333333333334</ele><time>2026-04-11T12:18:03.253Z</time></trkpt><trkpt lat="43.1186179" lon="11.4428382"><ele>187.0</ele><time>2026-04-11T12:18:04.254Z</time></trkpt><trkpt lat="43.1185125" lon="11.4427071"><ele>184.25</ele><time>2026-04-11T12:18:05.253Z</time></trkpt><trkpt lat="43.1184213" lon="11.4426083"><ele>181.5</ele><time>2026-04-11T12:18:06.254Z</time></trkpt><trkpt lat="43.1183266" lon="11.442527"><ele>178.75</ele><time>2026-04-11T12:18:07.253Z</time></trkpt><trkpt lat="43.1182205" lon="11.4424467"><ele>176.0</ele><time>2026-04-11T12:18:08.254Z</time></trkpt><trkpt lat="43.1181102" lon="11.4423691"><ele>176.0</ele><time>2026-04-11T12:18:09.254Z</time></trkpt><trkpt lat="43.1180105" lon="11.4422898"><ele>176.0</ele><time>2026-04-11T12:18:10.254Z</time></trkpt><trkpt lat="43.1179156" lon="11.4422154"><ele>176.0</ele><time>2026-04-11T12:18:11.253Z</time></trkpt><trkpt lat="43.1178259" lon="11.4421466"><ele>176.0</ele><time>2026-04-11T12:18:12.254Z</time></trkpt><trkpt lat="43.1177374" lon="11.4420782"><ele>176.0</ele><time>2026-04-11T12:18:13.254Z</time></trkpt><trkpt lat="43.1176492" lon="11.4420175"><ele>173.8</ele><time>2026-04-11T12:18:14.254Z</time></trkpt><trkpt lat="43.1175644" lon="11.441963"><ele>171.60000000000002</ele><time>2026-04-11T12:18:15.254Z</time></trkpt><trkpt lat="43.1174719" lon="11.4419264"><ele>169.4</ele><time>2026-04-11T12:18:16.255Z</time></trkpt><trkpt lat="43.1173791" lon="11.4419231"><ele>167.2</ele><time>2026-04-11T12:18:17.255Z</time></trkpt><trkpt lat="43.1172802" lon="11.4419507"><ele>165.0</ele><time>2026-04-11T12:18:18.255Z</time></trkpt><trkpt lat="43.1171845" lon="11.4419921"><ele>165.6</ele><time>2026-04-11T12:18:19.255Z</time></trkpt><trkpt lat="43.1170898" lon="11.4420701"><ele>166.2</ele><time>2026-04-11T12:18:20.254Z</time></trkpt><trkpt lat="43.1169976" lon="11.4421469"><ele>166.8</ele><time>2026-04-11T12:18:21.254Z</time></trkpt><trkpt lat="43.1169067" lon="11.4422137"><ele>167.4</ele><time>2026-04-11T12:18:22.254Z</time></trkpt><trkpt lat="43.1168128" lon="11.4422727"><ele>168.0</ele><time>2026-04-11T12:18:23.255Z</time></trkpt><trkpt lat="43.1167139" lon="11.4423068"><ele>168.0</ele><time>2026-04-11T12:18:24.255Z</time></trkpt><trkpt lat="43.1166203" lon="11.4423072"><ele>168.0</ele><time>2026-04-11T12:18:25.255Z</time></trkpt><trkpt lat="43.1165318" lon="11.4422752"><ele>168.0</ele><time>2026-04-11T12:18:26.254Z</time></trkpt><trkpt lat="43.1164523" lon="11.4422078"><ele>168.0</ele><time>2026-04-11T12:18:27.255Z</time></trkpt><trkpt lat="43.1163677" lon="11.4420944"><ele>168.0</ele><time>2026-04-11T12:18:28.255Z</time></trkpt><trkpt lat="43.116287" lon="11.4419614"><ele>165.75</ele><time>2026-04-11T12:18:29.255Z</time></trkpt><trkpt lat="43.1162042" lon="11.441824"><ele>163.5</ele><time>2026-04-11T12:18:30.255Z</time></trkpt><trkpt lat="43.1161169" lon="11.4417017"><ele>161.25</ele><time>2026-04-11T12:18:31.254Z</time></trkpt><trkpt lat="43.1160266" lon="11.4415989"><ele>159.0</ele><time>2026-04-11T12:18:32.254Z</time></trkpt><trkpt lat="43.1159349" lon="11.4415028"><ele>159.0</ele><time>2026-04-11T12:18:33.255Z</time></trkpt><trkpt lat="43.1158468" lon="11.4414117"><ele>159.0</ele><time>2026-04-11T12:18:34.254Z</time></trkpt><trkpt lat="43.1157616" lon="11.4413171"><ele>159.0</ele><time>2026-04-11T12:18:35.255Z</time></trkpt><trkpt lat="43.1156758" lon="11.4412441"><ele>159.0</ele><time>2026-04-11T12:18:36.255Z</time></trkpt><trkpt lat="43.115586" lon="11.4411978"><ele>159.0</ele><time>2026-04-11T12:18:37.255Z</time></trkpt><trkpt lat="43.1154849" lon="11.4411814"><ele>157.25</ele><time>2026-04-11T12:18:38.255Z</time></trkpt><trkpt lat="43.1153703" lon="11.4411974"><ele>155.5</ele><time>2026-04-11T12:18:39.255Z</time></trkpt><trkpt lat="43.1152428" lon="11.441239"><ele>153.75</ele><time>2026-04-11T12:18:40.255Z</time></trkpt><trkpt lat="43.1151128" lon="11.44128"><ele>152.0</ele><time>2026-04-11T12:18:41.255Z</time></trkpt><trkpt lat="43.1149711" lon="11.4413152"><ele>148.33333333333331</ele><time>2026-04-11T12:18:42.255Z</time></trkpt><trkpt lat="43.1148192" lon="11.4413388"><ele>144.66666666666666</ele><time>2026-04-11T12:18:43.255Z</time></trkpt><trkpt lat="43.1146618" lon="11.441351"><ele>141.0</ele><time>2026-04-11T12:18:44.254Z</time></trkpt><trkpt lat="43.1145038" lon="11.4413625"><ele>141.0</ele><time>2026-04-11T12:18:45.254Z</time></trkpt><trkpt lat="43.1143492" lon="11.4413777"><ele>141.0</ele><time>2026-04-11T12:18:46.254Z</time></trkpt><trkpt lat="43.1141875" lon="11.4413918"><ele>141.0</ele><time>2026-04-11T12:18:47.254Z</time></trkpt><trkpt lat="43.1140264" lon="11.441405"><ele>140.0</ele><time>2026-04-11T12:18:48.255Z</time></trkpt><trkpt lat="43.1138655" lon="11.441416"><ele>139.0</ele><time>2026-04-11T12:18:49.255Z</time></trkpt><trkpt lat="43.1137034" lon="11.4414282"><ele>138.0</ele><time>2026-04-11T12:18:50.254Z</time></trkpt><trkpt lat="43.1135349" lon="11.4414433"><ele>138.0</ele><time>2026-04-11T12:18:51.255Z</time></trkpt><trkpt lat="43.113362" lon="11.4414611"><ele>138.0</ele><time>2026-04-11T12:18:52.255Z</time></trkpt><trkpt lat="43.1131951" lon="11.4414766"><ele>138.0</ele><time>2026-04-11T12:18:53.254Z</time></trkpt><trkpt lat="43.11304" lon="11.4414896"><ele>137.75</ele><time>2026-04-11T12:18:54.255Z</time></trkpt><trkpt lat="43.1128925" lon="11.4415029"><ele>137.5</ele><time>2026-04-11T12:18:55.254Z</time></trkpt><trkpt lat="43.1127481" lon="11.4415188"><ele>137.25</ele><time>2026-04-11T12:18:56.255Z</time></trkpt><trkpt lat="43.1126042" lon="11.4415326"><ele>137.0</ele><time>2026-04-11T12:18:57.255Z</time></trkpt><trkpt lat="43.112459" lon="11.4415463"><ele>136.75</ele><time>2026-04-11T12:18:58.254Z</time></trkpt><trkpt lat="43.1123146" lon="11.4415621"><ele>136.5</ele><time>2026-04-11T12:18:59.254Z</time></trkpt><trkpt lat="43.112171" lon="11.441576"><ele>136.25</ele><time>2026-04-11T12:19:00.255Z</time></trkpt><trkpt lat="43.1120269" lon="11.4415882"><ele>136.0</ele><time>2026-04-11T12:19:01.255Z</time></trkpt><trkpt lat="43.11188" lon="11.4415994"><ele>136.0</ele><time>2026-04-11T12:19:02.254Z</time></trkpt><trkpt lat="43.1117337" lon="11.4416092"><ele>136.0</ele><time>2026-04-11T12:19:03.254Z</time></trkpt><trkpt lat="43.1115948" lon="11.4416221"><ele>136.0</ele><time>2026-04-11T12:19:04.255Z</time></trkpt><trkpt lat="43.111466" lon="11.4416421"><ele>136.0</ele><time>2026-04-11T12:19:05.255Z</time></trkpt><trkpt lat="43.1113428" lon="11.4416664"><ele>135.75</ele><time>2026-04-11T12:19:06.255Z</time></trkpt><trkpt lat="43.1112233" lon="11.441694"><ele>135.5</ele><time>2026-04-11T12:19:07.255Z</time></trkpt><trkpt lat="43.1110935" lon="11.441717"><ele>135.25</ele><time>2026-04-11T12:19:08.255Z</time></trkpt><trkpt lat="43.1109515" lon="11.4417335"><ele>135.0</ele><time>2026-04-11T12:19:09.255Z</time></trkpt><trkpt lat="43.110799" lon="11.441742"><ele>134.33333333333334</ele><time>2026-04-11T12:19:10.255Z</time></trkpt><trkpt lat="43.1106418" lon="11.4417438"><ele>133.66666666666669</ele><time>2026-04-11T12:19:11.254Z</time></trkpt><trkpt lat="43.1104875" lon="11.441746"><ele>133.0</ele><time>2026-04-11T12:19:12.255Z</time></trkpt><trkpt lat="43.1103366" lon="11.4417524"><ele>133.0</ele><time>2026-04-11T12:19:13.254Z</time></trkpt><trkpt lat="43.110185" lon="11.4417701"><ele>133.0</ele><time>2026-04-11T12:19:14.254Z</time></trkpt><trkpt lat="43.1100285" lon="11.4418061"><ele>133.0</ele><time>2026-04-11T12:19:15.254Z</time></trkpt><trkpt lat="43.1098673" lon="11.4418623"><ele>133.0</ele><time>2026-04-11T12:19:16.255Z</time></trkpt><trkpt lat="43.1097034" lon="11.441936"><ele>133.0</ele><time>2026-04-11T12:19:17.255Z</time></trkpt><trkpt lat="43.1095386" lon="11.4420178"><ele>133.0</ele><time>2026-04-11T12:19:18.254Z</time></trkpt><trkpt lat="43.1093783" lon="11.4420879"><ele>133.0</ele><time>2026-04-11T12:19:19.255Z</time></trkpt><trkpt lat="43.1092143" lon="11.4421489"><ele>133.0</ele><time>2026-04-11T12:19:20.255Z</time></trkpt><trkpt lat="43.1090459" lon="11.4422006"><ele>133.0</ele><time>2026-04-11T12:19:21.256Z</time></trkpt><trkpt lat="43.1088758" lon="11.4422444"><ele>133.0</ele><time>2026-04-11T12:19:22.256Z</time></trkpt><trkpt lat="43.1087034" lon="11.4422851"><ele>133.0</ele><time>2026-04-11T12:19:23.256Z</time></trkpt><trkpt lat="43.1085283" lon="11.4423226"><ele>133.0</ele><time>2026-04-11T12:19:24.256Z</time></trkpt><trkpt lat="43.1083565" lon="11.4423578"><ele>133.25</ele><time>2026-04-11T12:19:25.255Z</time></trkpt><trkpt lat="43.1081974" lon="11.4423864"><ele>133.5</ele><time>2026-04-11T12:19:26.255Z</time></trkpt><trkpt lat="43.1080502" lon="11.4424117"><ele>133.75</ele><time>2026-04-11T12:19:27.255Z</time></trkpt><trkpt lat="43.1079125" lon="11.4424362"><ele>134.0</ele><time>2026-04-11T12:19:28.256Z</time></trkpt><trkpt lat="43.1077843" lon="11.4424607"><ele>134.0</ele><time>2026-04-11T12:19:29.255Z</time></trkpt><trkpt lat="43.1076651" lon="11.4424814"><ele>134.0</ele><time>2026-04-11T12:19:30.255Z</time></trkpt><trkpt lat="43.1075537" lon="11.4424888"><ele>134.0</ele><time>2026-04-11T12:19:31.255Z</time></trkpt><trkpt lat="43.1074465" lon="11.4424696"><ele>134.0</ele><time>2026-04-11T12:19:32.256Z</time></trkpt><trkpt lat="43.1073368" lon="11.4424057"><ele>133.25</ele><time>2026-04-11T12:19:33.256Z</time></trkpt><trkpt lat="43.1072457" lon="11.442287"><ele>132.5</ele><time>2026-04-11T12:19:34.256Z</time></trkpt><trkpt lat="43.1071606" lon="11.4421433"><ele>131.75</ele><time>2026-04-11T12:19:35.255Z</time></trkpt><trkpt lat="43.1070574" lon="11.4419563"><ele>131.0</ele><time>2026-04-11T12:19:36.255Z</time></trkpt><trkpt lat="43.1069375" lon="11.4417622"><ele>131.0</ele><time>2026-04-11T12:19:37.255Z</time></trkpt><trkpt lat="43.1068125" lon="11.4415786"><ele>131.0</ele><time>2026-04-11T12:19:38.256Z</time></trkpt><trkpt lat="43.1066946" lon="11.4414066"><ele>131.0</ele><time>2026-04-11T12:19:39.255Z</time></trkpt><trkpt lat="43.1065781" lon="11.4412412"><ele>131.0</ele><time>2026-04-11T12:19:40.255Z</time></trkpt><trkpt lat="43.106462" lon="11.4410706"><ele>131.0</ele><time>2026-04-11T12:19:41.256Z</time></trkpt><trkpt lat="43.1063425" lon="11.4408927"><ele>131.0</ele><time>2026-04-11T12:19:42.256Z</time></trkpt><trkpt lat="43.1062268" lon="11.4407249"><ele>131.0</ele><time>2026-04-11T12:19:43.256Z</time></trkpt><trkpt lat="43.1061189" lon="11.4405665"><ele>131.0</ele><time>2026-04-11T12:19:44.256Z</time></trkpt><trkpt lat="43.106015" lon="11.4404176"><ele>131.0</ele><time>2026-04-11T12:19:45.255Z</time></trkpt><trkpt lat="43.1059114" lon="11.4402698"><ele>131.0</ele><time>2026-04-11T12:19:46.256Z</time></trkpt><trkpt lat="43.105806" lon="11.4401242"><ele>131.0</ele><time>2026-04-11T12:19:47.255Z</time></trkpt><trkpt lat="43.1056998" lon="11.4399829"><ele>131.0</ele><time>2026-04-11T12:19:48.255Z</time></trkpt><trkpt lat="43.1055952" lon="11.4398485"><ele>131.0</ele><time>2026-04-11T12:19:49.255Z</time></trkpt><trkpt lat="43.1054909" lon="11.4397158"><ele>130.5</ele><time>2026-04-11T12:19:50.256Z</time></trkpt><trkpt lat="43.105385" lon="11.4395845"><ele>130.0</ele><time>2026-04-11T12:19:51.256Z</time></trkpt><trkpt lat="43.1052816" lon="11.4394535"><ele>129.5</ele><time>2026-04-11T12:19:52.255Z</time></trkpt><trkpt lat="43.1051863" lon="11.4393118"><ele>129.0</ele><time>2026-04-11T12:19:53.256Z</time></trkpt><trkpt lat="43.1050995" lon="11.4391569"><ele>129.0</ele><time>2026-04-11T12:19:54.256Z</time></trkpt><trkpt lat="43.1050205" lon="11.4390033"><ele>129.0</ele><time>2026-04-11T12:19:55.256Z</time></trkpt><trkpt lat="43.1049421" lon="11.4388605"><ele>129.0</ele><time>2026-04-11T12:19:56.256Z</time></trkpt><trkpt lat="43.1048594" lon="11.4387269"><ele>129.0</ele><time>2026-04-11T12:19:57.256Z</time></trkpt><trkpt lat="43.1047706" lon="11.4386031"><ele>129.5</ele><time>2026-04-11T12:19:58.256Z</time></trkpt><trkpt lat="43.1046749" lon="11.4384817"><ele>130.0</ele><time>2026-04-11T12:19:59.255Z</time></trkpt><trkpt lat="43.1045774" lon="11.4383595"><ele>130.5</ele><time>2026-04-11T12:20:00.256Z</time></trkpt><trkpt lat="43.1044831" lon="11.4382349"><ele>131.0</ele><time>2026-04-11T12:20:01.256Z</time></trkpt><trkpt lat="43.1043916" lon="11.4381019"><ele>131.0</ele><time>2026-04-11T12:20:02.256Z</time></trkpt><trkpt lat="43.1042963" lon="11.4379564"><ele>131.0</ele><time>2026-04-11T12:20:03.255Z</time></trkpt><trkpt lat="43.1041929" lon="11.4378029"><ele>131.0</ele><time>2026-04-11T12:20:04.255Z</time></trkpt><trkpt lat="43.1040809" lon="11.4376407"><ele>131.33333333333331</ele><time>2026-04-11T12:20:05.256Z</time></trkpt><trkpt lat="43.1039653" lon="11.4374721"><ele>131.66666666666666</ele><time>2026-04-11T12:20:06.256Z</time></trkpt><trkpt lat="43.1038481" lon="11.4373032"><ele>132.0</ele><time>2026-04-11T12:20:07.255Z</time></trkpt><trkpt lat="43.1037321" lon="11.4371379"><ele>132.5</ele><time>2026-04-11T12:20:08.256Z</time></trkpt><trkpt lat="43.1036231" lon="11.4369846"><ele>133.0</ele><time>2026-04-11T12:20:09.256Z</time></trkpt><trkpt lat="43.1035234" lon="11.4368451"><ele>133.5</ele><time>2026-04-11T12:20:10.256Z</time></trkpt><trkpt lat="43.1034303" lon="11.4367169"><ele>134.0</ele><time>2026-04-11T12:20:11.256Z</time></trkpt><trkpt lat="43.1033368" lon="11.4365877"><ele>134.66666666666666</ele><time>2026-04-11T12:20:12.255Z</time></trkpt><trkpt lat="43.1032387" lon="11.4364466"><ele>135.33333333333334</ele><time>2026-04-11T12:20:13.256Z</time></trkpt><trkpt lat="43.1031338" lon="11.4362969"><ele>136.0</ele><time>2026-04-11T12:20:14.256Z</time></trkpt><trkpt lat="43.1030219" lon="11.4361432"><ele>136.0</ele><time>2026-04-11T12:20:15.256Z</time></trkpt><trkpt lat="43.1029082" lon="11.4359889"><ele>136.0</ele><time>2026-04-11T12:20:16.256Z</time></trkpt><trkpt lat="43.1027977" lon="11.4358357"><ele>136.0</ele><time>2026-04-11T12:20:17.256Z</time></trkpt><trkpt lat="43.1026926" lon="11.4356872"><ele>136.0</ele><time>2026-04-11T12:20:18.256Z</time></trkpt><trkpt lat="43.1025945" lon="11.4355437"><ele>136.0</ele><time>2026-04-11T12:20:19.255Z</time></trkpt><trkpt lat="43.1024977" lon="11.4353993"><ele>136.0</ele><time>2026-04-11T12:20:20.256Z</time></trkpt><trkpt lat="43.102399" lon="11.435251"><ele>136.0</ele><time>2026-04-11T12:20:21.255Z</time></trkpt><trkpt lat="43.1023045" lon="11.4350993"><ele>136.75</ele><time>2026-04-11T12:20:22.256Z</time></trkpt><trkpt lat="43.1022261" lon="11.4349513"><ele>137.5</ele><time>2026-04-11T12:20:23.256Z</time></trkpt><trkpt lat="43.102172" lon="11.4348073"><ele>138.25</ele><time>2026-04-11T12:20:24.256Z</time></trkpt><trkpt lat="43.1021484" lon="11.4346691"><ele>139.0</ele><time>2026-04-11T12:20:25.256Z</time></trkpt><trkpt lat="43.1021595" lon="11.4345367"><ele>140.5</ele><time>2026-04-11T12:20:26.256Z</time></trkpt><trkpt lat="43.1021917" lon="11.4343946"><ele>142.0</ele><time>2026-04-11T12:20:27.257Z</time></trkpt><trkpt lat="43.1022284" lon="11.4342308"><ele>143.5</ele><time>2026-04-11T12:20:28.257Z</time></trkpt><trkpt lat="43.102265" lon="11.4340349"><ele>145.0</ele><time>2026-04-11T12:20:29.257Z</time></trkpt><trkpt lat="43.1022967" lon="11.4338307"><ele>146.25</ele><time>2026-04-11T12:20:30.256Z</time></trkpt><trkpt lat="43.1023173" lon="11.4336582"><ele>147.5</ele><time>2026-04-11T12:20:31.257Z</time></trkpt><trkpt lat="43.1023303" lon="11.4335107"><ele>148.75</ele><time>2026-04-11T12:20:32.257Z</time></trkpt><trkpt lat="43.1023346" lon="11.4333707"><ele>150.0</ele><time>2026-04-11T12:20:33.257Z</time></trkpt><trkpt lat="43.1023255" lon="11.4332107"><ele>150.0</ele><time>2026-04-11T12:20:34.256Z</time></trkpt><trkpt lat="43.1022967" lon="11.4330418"><ele>150.0</ele><time>2026-04-11T12:20:35.256Z</time></trkpt><trkpt lat="43.1022521" lon="11.4328767"><ele>150.0</ele><time>2026-04-11T12:20:36.257Z</time></trkpt><trkpt lat="43.1021948" lon="11.4327388"><ele>150.0</ele><time>2026-04-11T12:20:37.257Z</time></trkpt><trkpt lat="43.102123" lon="11.4326212"><ele>150.4</ele><time>2026-04-11T12:20:38.256Z</time></trkpt><trkpt lat="43.1020343" lon="11.4325271"><ele>150.8</ele><time>2026-04-11T12:20:39.256Z</time></trkpt><trkpt lat="43.1019405" lon="11.4324574"><ele>151.2</ele><time>2026-04-11T12:20:40.256Z</time></trkpt><trkpt lat="43.1018381" lon="11.4324173"><ele>151.6</ele><time>2026-04-11T12:20:41.256Z</time></trkpt><trkpt lat="43.1017181" lon="11.4324094"><ele>152.0</ele><time>2026-04-11T12:20:42.257Z</time></trkpt><trkpt lat="43.1015779" lon="11.432414"><ele>152.0</ele><time>2026-04-11T12:20:43.257Z</time></trkpt><trkpt lat="43.1014141" lon="11.4324143"><ele>152.0</ele><time>2026-04-11T12:20:44.257Z</time></trkpt><trkpt lat="43.1012441" lon="11.4324038"><ele>152.0</ele><time>2026-04-11T12:20:45.257Z</time></trkpt><trkpt lat="43.1010672" lon="11.432388"><ele>152.0</ele><time>2026-04-11T12:20:46.256Z</time></trkpt><trkpt lat="43.100888" lon="11.4323741"><ele>152.0</ele><time>2026-04-11T12:20:47.257Z</time></trkpt><trkpt lat="43.1007084" lon="11.4323626"><ele>152.0</ele><time>2026-04-11T12:20:48.257Z</time></trkpt><trkpt lat="43.1005312" lon="11.4323517"><ele>154.0</ele><time>2026-04-11T12:20:49.257Z</time></trkpt><trkpt lat="43.1003506" lon="11.4323361"><ele>156.0</ele><time>2026-04-11T12:20:50.257Z</time></trkpt><trkpt lat="43.100167" lon="11.4323161"><ele>158.0</ele><time>2026-04-11T12:20:51.257Z</time></trkpt><trkpt lat="43.0999795" lon="11.4322947"><ele>159.0</ele><time>2026-04-11T12:20:52.256Z</time></trkpt><trkpt lat="43.0997932" lon="11.4322758"><ele>160.0</ele><time>2026-04-11T12:20:53.256Z</time></trkpt><trkpt lat="43.0996081" lon="11.4322594"><ele>161.0</ele><time>2026-04-11T12:20:54.257Z</time></trkpt><trkpt lat="43.0994243" lon="11.4322444"><ele>161.0</ele><time>2026-04-11T12:20:55.257Z</time></trkpt><trkpt lat="43.099249" lon="11.4322295"><ele>161.0</ele><time>2026-04-11T12:20:56.256Z</time></trkpt><trkpt lat="43.0991222" lon="11.4322322"><ele>161.0</ele><time>2026-04-11T12:20:57.256Z</time></trkpt><trkpt lat="43.0989879" lon="11.4322199"><ele>161.0</ele><time>2026-04-11T12:20:58.257Z</time></trkpt><trkpt lat="43.0988526" lon="11.4321959"><ele>159.66666666666666</ele><time>2026-04-11T12:20:59.257Z</time></trkpt><trkpt lat="43.0987128" lon="11.4321567"><ele>158.33333333333334</ele><time>2026-04-11T12:21:00.257Z</time></trkpt><trkpt lat="43.0985566" lon="11.4320851"><ele>157.0</ele><time>2026-04-11T12:21:01.256Z</time></trkpt><trkpt lat="43.0984163" lon="11.4319794"><ele>159.0</ele><time>2026-04-11T12:21:02.256Z</time></trkpt><trkpt lat="43.0982757" lon="11.431858"><ele>161.0</ele><time>2026-04-11T12:21:03.257Z</time></trkpt><trkpt lat="43.0981368" lon="11.4317234"><ele>163.0</ele><time>2026-04-11T12:21:04.256Z</time></trkpt><trkpt lat="43.0979894" lon="11.431596"><ele>163.0</ele><time>2026-04-11T12:21:05.257Z</time></trkpt><trkpt lat="43.0978108" lon="11.4314543"><ele>163.0</ele><time>2026-04-11T12:21:06.256Z</time></trkpt><trkpt lat="43.0976373" lon="11.4313041"><ele>163.0</ele><time>2026-04-11T12:21:07.256Z</time></trkpt><trkpt lat="43.0974703" lon="11.4311649"><ele>164.33333333333334</ele><time>2026-04-11T12:21:08.257Z</time></trkpt><trkpt lat="43.0973213" lon="11.4310215"><ele>165.66666666666666</ele><time>2026-04-11T12:21:09.257Z</time></trkpt><trkpt lat="43.0971742" lon="11.430905"><ele>167.0</ele><time>2026-04-11T12:21:10.256Z</time></trkpt><trkpt lat="43.0970556" lon="11.4308025"><ele>167.0</ele><time>2026-04-11T12:21:11.256Z</time></trkpt><trkpt lat="43.0969281" lon="11.4307026"><ele>167.0</ele><time>2026-04-11T12:21:12.256Z</time></trkpt><trkpt lat="43.0968038" lon="11.430604"><ele>167.0</ele><time>2026-04-11T12:21:13.256Z</time></trkpt><trkpt lat="43.0966848" lon="11.4304707"><ele>167.0</ele><time>2026-04-11T12:21:14.257Z</time></trkpt><trkpt lat="43.0965736" lon="11.4303263"><ele>168.33333333333331</ele><time>2026-04-11T12:21:15.256Z</time></trkpt><trkpt lat="43.0964466" lon="11.430172"><ele>169.66666666666666</ele><time>2026-04-11T12:21:16.256Z</time></trkpt><trkpt lat="43.0963248" lon="11.4300151"><ele>171.0</ele><time>2026-04-11T12:21:17.257Z</time></trkpt><trkpt lat="43.0961907" lon="11.4298551"><ele>171.0</ele><time>2026-04-11T12:21:18.257Z</time></trkpt><trkpt lat="43.0960619" lon="11.4297034"><ele>171.0</ele><time>2026-04-11T12:21:19.257Z</time></trkpt><trkpt lat="43.0959337" lon="11.4295756"><ele>171.0</ele><time>2026-04-11T12:21:20.257Z</time></trkpt><trkpt lat="43.0957926" lon="11.4294661"><ele>173.66666666666666</ele><time>2026-04-11T12:21:21.257Z</time></trkpt><trkpt lat="43.0956347" lon="11.4293556"><ele>176.33333333333331</ele><time>2026-04-11T12:21:22.256Z</time></trkpt><trkpt lat="43.0954729" lon="11.4292474"><ele>179.0</ele><time>2026-04-11T12:21:23.256Z</time></trkpt><trkpt lat="43.0952989" lon="11.4291297"><ele>179.0</ele><time>2026-04-11T12:21:24.256Z</time></trkpt><trkpt lat="43.095123" lon="11.4289973"><ele>179.0</ele><time>2026-04-11T12:21:25.256Z</time></trkpt><trkpt lat="43.0949388" lon="11.4288648"><ele>179.0</ele><time>2026-04-11T12:21:26.257Z</time></trkpt><trkpt lat="43.0947752" lon="11.428757"><ele>180.75</ele><time>2026-04-11T12:21:27.257Z</time></trkpt><trkpt lat="43.0946328" lon="11.4286584"><ele>182.5</ele><time>2026-04-11T12:21:28.257Z</time></trkpt><trkpt lat="43.0945115" lon="11.428577"><ele>184.25</ele><time>2026-04-11T12:21:29.257Z</time></trkpt><trkpt lat="43.0943994" lon="11.4284936"><ele>186.0</ele><time>2026-04-11T12:21:30.257Z</time></trkpt><trkpt lat="43.0942908" lon="11.4284084"><ele>186.0</ele><time>2026-04-11T12:21:31.257Z</time></trkpt><trkpt lat="43.0941845" lon="11.428326"><ele>186.0</ele><time>2026-04-11T12:21:32.257Z</time></trkpt><trkpt lat="43.0940832" lon="11.4282455"><ele>186.0</ele><time>2026-04-11T12:21:33.258Z</time></trkpt><trkpt lat="43.0939847" lon="11.4281726"><ele>186.0</ele><time>2026-04-11T12:21:34.258Z</time></trkpt><trkpt lat="43.0938789" lon="11.4280934"><ele>186.5</ele><time>2026-04-11T12:21:35.258Z</time></trkpt><trkpt lat="43.0937623" lon="11.428017"><ele>187.0</ele><time>2026-04-11T12:21:36.257Z</time></trkpt><trkpt lat="43.0936361" lon="11.4279334"><ele>187.5</ele><time>2026-04-11T12:21:37.257Z</time></trkpt><trkpt lat="43.0935077" lon="11.4278421"><ele>188.0</ele><time>2026-04-11T12:21:38.257Z</time></trkpt><trkpt lat="43.09337" lon="11.427743"><ele>190.0</ele><time>2026-04-11T12:21:39.257Z</time></trkpt><trkpt lat="43.0932319" lon="11.4276385"><ele>192.0</ele><time>2026-04-11T12:21:40.257Z</time></trkpt><trkpt lat="43.0930943" lon="11.427534"><ele>194.0</ele><time>2026-04-11T12:21:41.258Z</time></trkpt><trkpt lat="43.0929601" lon="11.4274332"><ele>194.0</ele><time>2026-04-11T12:21:42.258Z</time></trkpt><trkpt lat="43.0928245" lon="11.4273334"><ele>194.0</ele><time>2026-04-11T12:21:43.258Z</time></trkpt><trkpt lat="43.0926867" lon="11.4272277"><ele>194.0</ele><time>2026-04-11T12:21:44.258Z</time></trkpt><trkpt lat="43.0925447" lon="11.427124"><ele>195.5</ele><time>2026-04-11T12:21:45.257Z</time></trkpt><trkpt lat="43.0924136" lon="11.4270284"><ele>197.0</ele><time>2026-04-11T12:21:46.258Z</time></trkpt><trkpt lat="43.0922786" lon="11.4269368"><ele>198.5</ele><time>2026-04-11T12:21:47.257Z</time></trkpt><trkpt lat="43.0921607" lon="11.4268486"><ele>200.0</ele><time>2026-04-11T12:21:48.258Z</time></trkpt><trkpt lat="43.0920409" lon="11.4267616"><ele>200.0</ele><time>2026-04-11T12:21:49.257Z</time></trkpt><trkpt lat="43.0919289" lon="11.4266811"><ele>200.0</ele><time>2026-04-11T12:21:50.258Z</time></trkpt><trkpt lat="43.0918092" lon="11.4265943"><ele>200.0</ele><time>2026-04-11T12:21:51.258Z</time></trkpt><trkpt lat="43.0916842" lon="11.426506"><ele>200.0</ele><time>2026-04-11T12:21:52.257Z</time></trkpt><trkpt lat="43.091571" lon="11.4264169"><ele>199.75</ele><time>2026-04-11T12:21:53.258Z</time></trkpt><trkpt lat="43.0914375" lon="11.4263217"><ele>199.5</ele><time>2026-04-11T12:21:54.257Z</time></trkpt><trkpt lat="43.0913181" lon="11.4262362"><ele>199.25</ele><time>2026-04-11T12:21:55.257Z</time></trkpt><trkpt lat="43.0912031" lon="11.426148"><ele>199.0</ele><time>2026-04-11T12:21:56.257Z</time></trkpt><trkpt lat="43.0910806" lon="11.4260612"><ele>200.0</ele><time>2026-04-11T12:21:57.257Z</time></trkpt><trkpt lat="43.0909594" lon="11.4259844"><ele>201.0</ele><time>2026-04-11T12:21:58.258Z</time></trkpt><trkpt lat="43.0908604" lon="11.4259424"><ele>202.0</ele><time>2026-04-11T12:21:59.257Z</time></trkpt><trkpt lat="43.0907219" lon="11.4258933"><ele>203.0</ele><time>2026-04-11T12:22:00.258Z</time></trkpt><trkpt lat="43.0905783" lon="11.4258572"><ele>205.0</ele><time>2026-04-11T12:22:01.258Z</time></trkpt><trkpt lat="43.0904261" lon="11.4258211"><ele>207.0</ele><time>2026-04-11T12:22:02.257Z</time></trkpt><trkpt lat="43.0902621" lon="11.4257792"><ele>209.0</ele><time>2026-04-11T12:22:03.258Z</time></trkpt><trkpt lat="43.0900901" lon="11.4257335"><ele>210.66666666666669</ele><time>2026-04-11T12:22:04.257Z</time></trkpt><trkpt lat="43.0899172" lon="11.4256879"><ele>212.33333333333331</ele><time>2026-04-11T12:22:05.258Z</time></trkpt><trkpt lat="43.089746" lon="11.4256388"><ele>214.0</ele><time>2026-04-11T12:22:06.258Z</time></trkpt><trkpt lat="43.0895845" lon="11.4255935"><ele>214.0</ele><time>2026-04-11T12:22:07.257Z</time></trkpt><trkpt lat="43.0894324" lon="11.4255485"><ele>214.0</ele><time>2026-04-11T12:22:08.258Z</time></trkpt><trkpt lat="43.0892958" lon="11.4255039"><ele>214.0</ele><time>2026-04-11T12:22:09.257Z</time></trkpt><trkpt lat="43.0891789" lon="11.4254645"><ele>214.0</ele><time>2026-04-11T12:22:10.257Z</time></trkpt><trkpt lat="43.0890795" lon="11.4254278"><ele>219.2</ele><time>2026-04-11T12:22:11.257Z</time></trkpt><trkpt lat="43.0890024" lon="11.4253809"><ele>224.39999999999998</ele><time>2026-04-11T12:22:12.257Z</time></trkpt><trkpt lat="43.088936" lon="11.4252898"><ele>229.6</ele><time>2026-04-11T12:22:13.257Z</time></trkpt><trkpt lat="43.0888961" lon="11.4251736"><ele>234.8</ele><time>2026-04-11T12:22:14.257Z</time></trkpt><trkpt lat="43.0888825" lon="11.4250263"><ele>240.0</ele><time>2026-04-11T12:22:15.257Z</time></trkpt><trkpt lat="43.0888973" lon="11.4248794"><ele>240.0</ele><time>2026-04-11T12:22:16.258Z</time></trkpt><trkpt lat="43.0889191" lon="11.4247262"><ele>240.0</ele><time>2026-04-11T12:22:17.257Z</time></trkpt><trkpt lat="43.0889531" lon="11.4245556"><ele>240.0</ele><time>2026-04-11T12:22:18.257Z</time></trkpt><trkpt lat="43.0889981" lon="11.4243676"><ele>240.0</ele><time>2026-04-11T12:22:19.257Z</time></trkpt><trkpt lat="43.089037" lon="11.4241843"><ele>239.5</ele><time>2026-04-11T12:22:20.257Z</time></trkpt><trkpt lat="43.0890711" lon="11.424019"><ele>239.0</ele><time>2026-04-11T12:22:21.257Z</time></trkpt><trkpt lat="43.0891038" lon="11.4238691"><ele>238.5</ele><time>2026-04-11T12:22:22.258Z</time></trkpt><trkpt lat="43.0891367" lon="11.4237253"><ele>238.0</ele><time>2026-04-11T12:22:23.257Z</time></trkpt><trkpt lat="43.0891643" lon="11.423576"><ele>238.0</ele><time>2026-04-11T12:22:24.257Z</time></trkpt><trkpt lat="43.0891811" lon="11.4234294"><ele>238.0</ele><time>2026-04-11T12:22:25.257Z</time></trkpt><trkpt lat="43.089181" lon="11.4232909"><ele>238.0</ele><time>2026-04-11T12:22:26.258Z</time></trkpt><trkpt lat="43.0891662" lon="11.4231692"><ele>238.0</ele><time>2026-04-11T12:22:27.258Z</time></trkpt><trkpt lat="43.0891374" lon="11.4230604"><ele>238.0</ele><time>2026-04-11T12:22:28.258Z</time></trkpt><trkpt lat="43.089091" lon="11.4229509"><ele>244.25</ele><time>2026-04-11T12:22:29.258Z</time></trkpt><trkpt lat="43.0890344" lon="11.4228287"><ele>250.5</ele><time>2026-04-11T12:22:30.257Z</time></trkpt><trkpt lat="43.0889756" lon="11.422703"><ele>256.75</ele><time>2026-04-11T12:22:31.257Z</time></trkpt><trkpt lat="43.088914" lon="11.4225666"><ele>263.0</ele><time>2026-04-11T12:22:32.258Z</time></trkpt><trkpt lat="43.0888531" lon="11.4224247"><ele>263.0</ele><time>2026-04-11T12:22:33.258Z</time></trkpt><trkpt lat="43.0887987" lon="11.4222931"><ele>263.0</ele><time>2026-04-11T12:22:34.259Z</time></trkpt><trkpt lat="43.0887504" lon="11.4221789"><ele>263.0</ele><time>2026-04-11T12:22:35.259Z</time></trkpt><trkpt lat="43.0887055" lon="11.4220654"><ele>263.0</ele><time>2026-04-11T12:22:36.259Z</time></trkpt><trkpt lat="43.0886672" lon="11.4219593"><ele>263.0</ele><time>2026-04-11T12:22:37.258Z</time></trkpt><trkpt lat="43.0886325" lon="11.421867"><ele>262.0</ele><time>2026-04-11T12:22:38.259Z</time></trkpt><trkpt lat="43.088588" lon="11.4217802"><ele>261.0</ele><time>2026-04-11T12:22:39.258Z</time></trkpt><trkpt lat="43.0885321" lon="11.4217109"><ele>260.0</ele><time>2026-04-11T12:22:40.259Z</time></trkpt><trkpt lat="43.088466" lon="11.4216701"><ele>259.0</ele><time>2026-04-11T12:22:41.258Z</time></trkpt><trkpt lat="43.0883862" lon="11.4216525"><ele>258.0</ele><time>2026-04-11T12:22:42.259Z</time></trkpt><trkpt lat="43.0882964" lon="11.4216621"><ele>257.0</ele><time>2026-04-11T12:22:43.259Z</time></trkpt><trkpt lat="43.0882139" lon="11.4217011"><ele>260.6666666666667</ele><time>2026-04-11T12:22:44.259Z</time></trkpt><trkpt lat="43.0881551" lon="11.4217641"><ele>264.33333333333337</ele><time>2026-04-11T12:22:45.259Z</time></trkpt><trkpt lat="43.0881192" lon="11.4218462"><ele>268.0</ele><time>2026-04-11T12:22:46.258Z</time></trkpt><trkpt lat="43.0881004" lon="11.4219482"><ele>271.6666666666667</ele><time>2026-04-11T12:22:47.258Z</time></trkpt><trkpt lat="43.0880836" lon="11.4220635"><ele>275.3333333333333</ele><time>2026-04-11T12:22:48.258Z</time></trkpt><trkpt lat="43.0880625" lon="11.4221989"><ele>279.0</ele><time>2026-04-11T12:22:49.259Z</time></trkpt><trkpt lat="43.0880356" lon="11.4223472"><ele>279.75</ele><time>2026-04-11T12:22:50.258Z</time></trkpt><trkpt lat="43.0880021" lon="11.4225062"><ele>280.5</ele><time>2026-04-11T12:22:51.259Z</time></trkpt><trkpt lat="43.0879638" lon="11.4226733"><ele>281.25</ele><time>2026-04-11T12:22:52.258Z</time></trkpt><trkpt lat="43.0879189" lon="11.4228426"><ele>282.0</ele><time>2026-04-11T12:22:53.258Z</time></trkpt><trkpt lat="43.0878749" lon="11.4230029"><ele>282.2</ele><time>2026-04-11T12:22:54.259Z</time></trkpt><trkpt lat="43.0878312" lon="11.4231525"><ele>282.4</ele><time>2026-04-11T12:22:55.258Z</time></trkpt><trkpt lat="43.0877892" lon="11.4232766"><ele>282.6</ele><time>2026-04-11T12:22:56.259Z</time></trkpt><trkpt lat="43.087746" lon="11.4233813"><ele>282.8</ele><time>2026-04-11T12:22:57.258Z</time></trkpt><trkpt lat="43.0877013" lon="11.4234658"><ele>283.0</ele><time>2026-04-11T12:22:58.259Z</time></trkpt><trkpt lat="43.0876476" lon="11.4235344"><ele>283.0</ele><time>2026-04-11T12:22:59.258Z</time></trkpt><trkpt lat="43.0875598" lon="11.4235598"><ele>283.0</ele><time>2026-04-11T12:23:01.259Z</time></trkpt><trkpt lat="43.0874799" lon="11.4234593"><ele>283.0</ele><time>2026-04-11T12:23:03.259Z</time></trkpt><trkpt lat="43.0874526" lon="11.4233814"><ele>283.0</ele><time>2026-04-11T12:23:04.258Z</time></trkpt><trkpt lat="43.0874313" lon="11.4232959"><ele>283.0</ele><time>2026-04-11T12:23:05.259Z</time></trkpt><trkpt lat="43.0874132" lon="11.4232021"><ele>283.0</ele><time>2026-04-11T12:23:06.259Z</time></trkpt><trkpt lat="43.0873994" lon="11.4230987"><ele>287.5</ele><time>2026-04-11T12:23:07.259Z</time></trkpt><trkpt lat="43.0873844" lon="11.4229892"><ele>292.0</ele><time>2026-04-11T12:23:08.259Z</time></trkpt><trkpt lat="43.0873672" lon="11.4228811"><ele>296.5</ele><time>2026-04-11T12:23:09.258Z</time></trkpt><trkpt lat="43.0873493" lon="11.4227865"><ele>301.0</ele><time>2026-04-11T12:23:10.258Z</time></trkpt><trkpt lat="43.0873062" lon="11.4226397"><ele>305.5</ele><time>2026-04-11T12:23:12.259Z</time></trkpt><trkpt lat="43.0872429" lon="11.4225971"><ele>310.0</ele><time>2026-04-11T12:23:14.259Z</time></trkpt><trkpt lat="43.0871715" lon="11.4226577"><ele>310.0</ele><time>2026-04-11T12:23:16.259Z</time></trkpt><trkpt lat="43.0871362" lon="11.4228051"><ele>310.0</ele><time>2026-04-11T12:23:18.259Z</time></trkpt><trkpt lat="43.0871257" lon="11.4229082"><ele>310.0</ele><time>2026-04-11T12:23:19.259Z</time></trkpt><trkpt lat="43.0871165" lon="11.4230279"><ele>310.0</ele><time>2026-04-11T12:23:20.258Z</time></trkpt><trkpt lat="43.0870996" lon="11.4231456"><ele>310.0</ele><time>2026-04-11T12:23:21.259Z</time></trkpt><trkpt lat="43.0870774" lon="11.4232548"><ele>310.0</ele><time>2026-04-11T12:23:22.259Z</time></trkpt><trkpt lat="43.0870539" lon="11.4233599"><ele>310.0</ele><time>2026-04-11T12:23:23.259Z</time></trkpt><trkpt lat="43.0870307" lon="11.4234568"><ele>310.0</ele><time>2026-04-11T12:23:24.259Z</time></trkpt><trkpt lat="43.0870054" lon="11.4235527"><ele>310.0</ele><time>2026-04-11T12:23:25.259Z</time></trkpt><trkpt lat="43.0869778" lon="11.4236433"><ele>310.0</ele><time>2026-04-11T12:23:26.258Z</time></trkpt><trkpt lat="43.0869431" lon="11.4237254"><ele>310.0</ele><time>2026-04-11T12:23:27.258Z</time></trkpt><trkpt lat="43.0869028" lon="11.4237953"><ele>310.0</ele><time>2026-04-11T12:23:28.259Z</time></trkpt><trkpt lat="43.0868017" lon="11.4238858"><ele>311.6</ele><time>2026-04-11T12:23:30.259Z</time></trkpt><trkpt lat="43.0866789" lon="11.4238986"><ele>313.2</ele><time>2026-04-11T12:23:32.259Z</time></trkpt><trkpt lat="43.0866079" lon="11.4238738"><ele>314.8</ele><time>2026-04-11T12:23:33.259Z</time></trkpt><trkpt lat="43.0865384" lon="11.4238329"><ele>316.4</ele><time>2026-04-11T12:23:34.259Z</time></trkpt><trkpt lat="43.0864741" lon="11.4237824"><ele>318.0</ele><time>2026-04-11T12:23:35.26Z</time></trkpt><trkpt lat="43.0863893" lon="11.4236717"><ele>320.2</ele><time>2026-04-11T12:23:37.258Z</time></trkpt><trkpt lat="43.0863547" lon="11.4235272"><ele>322.4</ele><time>2026-04-11T12:23:39.259Z</time></trkpt><trkpt lat="43.0863957" lon="11.4233619"><ele>324.59999999999997</ele><time>2026-04-11T12:23:41.259Z</time></trkpt><trkpt lat="43.086432" lon="11.4232622"><ele>326.8</ele><time>2026-04-11T12:23:42.259Z</time></trkpt><trkpt lat="43.08647" lon="11.4231511"><ele>329.0</ele><time>2026-04-11T12:23:43.26Z</time></trkpt><trkpt lat="43.0865015" lon="11.4230416"><ele>328.83333333333337</ele><time>2026-04-11T12:23:44.259Z</time></trkpt><trkpt lat="43.0865226" lon="11.4229272"><ele>328.6666666666667</ele><time>2026-04-11T12:23:45.259Z</time></trkpt><trkpt lat="43.0865291" lon="11.4228219"><ele>328.5</ele><time>2026-04-11T12:23:46.259Z</time></trkpt><trkpt lat="43.0865152" lon="11.4227176"><ele>328.3333333333333</ele><time>2026-04-11T12:23:47.26Z</time></trkpt><trkpt lat="43.086483" lon="11.422637"><ele>328.16666666666663</ele><time>2026-04-11T12:23:48.26Z</time></trkpt><trkpt lat="43.086372" lon="11.4225658"><ele>328.0</ele><time>2026-04-11T12:23:50.26Z</time></trkpt><trkpt lat="43.0862998" lon="11.4225761"><ele>328.0</ele><time>2026-04-11T12:23:51.26Z</time></trkpt><trkpt lat="43.0862348" lon="11.4226141"><ele>328.0</ele><time>2026-04-11T12:23:52.26Z</time></trkpt><trkpt lat="43.0861911" lon="11.4226808"><ele>328.0</ele><time>2026-04-11T12:23:53.259Z</time></trkpt><trkpt lat="43.0861509" lon="11.4227755"><ele>328.0</ele><time>2026-04-11T12:23:54.259Z</time></trkpt><trkpt lat="43.0861094" lon="11.4228896"><ele>328.0</ele><time>2026-04-11T12:23:55.259Z</time></trkpt><trkpt lat="43.0860629" lon="11.4230051"><ele>328.0</ele><time>2026-04-11T12:23:56.26Z</time></trkpt><trkpt lat="43.0860046" lon="11.4231224"><ele>328.2</ele><time>2026-04-11T12:23:57.26Z</time></trkpt><trkpt lat="43.0859396" lon="11.4232361"><ele>328.4</ele><time>2026-04-11T12:23:58.26Z</time></trkpt><trkpt lat="43.0858715" lon="11.4233286"><ele>328.59999999999997</ele><time>2026-04-11T12:23:59.26Z</time></trkpt><trkpt lat="43.0858103" lon="11.4233697"><ele>328.79999999999995</ele><time>2026-04-11T12:24:00.26Z</time></trkpt><trkpt lat="43.0856705" lon="11.423283"><ele>329.0</ele><time>2026-04-11T12:24:02.26Z</time></trkpt><trkpt lat="43.0855891" lon="11.4231392"><ele>334.0</ele><time>2026-04-11T12:24:03.26Z</time></trkpt><trkpt lat="43.0855247" lon="11.4229628"><ele>339.0</ele><time>2026-04-11T12:24:04.259Z</time></trkpt><trkpt lat="43.0854801" lon="11.4227604"><ele>344.0</ele><time>2026-04-11T12:24:05.259Z</time></trkpt><trkpt lat="43.0854563" lon="11.422558"><ele>349.0</ele><time>2026-04-11T12:24:06.259Z</time></trkpt><trkpt lat="43.0854117" lon="11.4223527"><ele>349.0</ele><time>2026-04-11T12:24:07.26Z</time></trkpt><trkpt lat="43.0853613" lon="11.4221702"><ele>349.0</ele><time>2026-04-11T12:24:08.26Z</time></trkpt><trkpt lat="43.0852927" lon="11.4220041"><ele>349.0</ele><time>2026-04-11T12:24:09.26Z</time></trkpt><trkpt lat="43.0852203" lon="11.4218809"><ele>349.0</ele><time>2026-04-11T12:24:10.259Z</time></trkpt><trkpt lat="43.0851263" lon="11.421775"><ele>348.0</ele><time>2026-04-11T12:24:11.26Z</time></trkpt><trkpt lat="43.0850133" lon="11.421693"><ele>347.0</ele><time>2026-04-11T12:24:12.26Z</time></trkpt><trkpt lat="43.0848727" lon="11.4216287"><ele>346.0</ele><time>2026-04-11T12:24:13.26Z</time></trkpt><trkpt lat="43.0847059" lon="11.4215809"><ele>345.0</ele><time>2026-04-11T12:24:14.259Z</time></trkpt><trkpt lat="43.0845201" lon="11.4215269"><ele>345.0</ele><time>2026-04-11T12:24:15.259Z</time></trkpt><trkpt lat="43.0843422" lon="11.421455"><ele>345.0</ele><time>2026-04-11T12:24:16.259Z</time></trkpt><trkpt lat="43.0841656" lon="11.4213423"><ele>345.0</ele><time>2026-04-11T12:24:17.26Z</time></trkpt><trkpt lat="43.0839953" lon="11.4211985"><ele>345.6666666666667</ele><time>2026-04-11T12:24:18.26Z</time></trkpt><trkpt lat="43.0838325" lon="11.4210573"><ele>346.33333333333337</ele><time>2026-04-11T12:24:19.259Z</time></trkpt><trkpt lat="43.0836793" lon="11.4209504"><ele>347.0</ele><time>2026-04-11T12:24:20.26Z</time></trkpt><trkpt lat="43.0835216" lon="11.4208751"><ele>347.0</ele><time>2026-04-11T12:24:21.26Z</time></trkpt><trkpt lat="43.0833585" lon="11.4208242"><ele>347.0</ele><time>2026-04-11T12:24:22.26Z</time></trkpt><trkpt lat="43.0831944" lon="11.4207819"><ele>347.0</ele><time>2026-04-11T12:24:23.259Z</time></trkpt><trkpt lat="43.0830335" lon="11.4207391"><ele>349.0</ele><time>2026-04-11T12:24:24.259Z</time></trkpt><trkpt lat="43.0828795" lon="11.4206947"><ele>351.0</ele><time>2026-04-11T12:24:25.26Z</time></trkpt><trkpt lat="43.0827386" lon="11.4206485"><ele>353.0</ele><time>2026-04-11T12:24:26.26Z</time></trkpt><trkpt lat="43.0826135" lon="11.4206077"><ele>355.0</ele><time>2026-04-11T12:24:27.26Z</time></trkpt><trkpt lat="43.0824997" lon="11.4205763"><ele>354.75</ele><time>2026-04-11T12:24:28.26Z</time></trkpt><trkpt lat="43.0823951" lon="11.4205581"><ele>354.5</ele><time>2026-04-11T12:24:29.259Z</time></trkpt><trkpt lat="43.0822831" lon="11.4205423"><ele>354.25</ele><time>2026-04-11T12:24:30.259Z</time></trkpt><trkpt lat="43.0821612" lon="11.4205389"><ele>354.0</ele><time>2026-04-11T12:24:31.26Z</time></trkpt><trkpt lat="43.082032" lon="11.4205444"><ele>354.0</ele><time>2026-04-11T12:24:32.259Z</time></trkpt><trkpt lat="43.0819046" lon="11.4205499"><ele>354.0</ele><time>2026-04-11T12:24:33.26Z</time></trkpt><trkpt lat="43.0817735" lon="11.4205248"><ele>354.0</ele><time>2026-04-11T12:24:34.26Z</time></trkpt><trkpt lat="43.0816484" lon="11.4204496"><ele>354.0</ele><time>2026-04-11T12:24:35.26Z</time></trkpt><trkpt lat="43.0815316" lon="11.42032"><ele>358.0</ele><time>2026-04-11T12:24:36.259Z</time></trkpt><trkpt lat="43.0814245" lon="11.4201708"><ele>362.0</ele><time>2026-04-11T12:24:37.259Z</time></trkpt><trkpt lat="43.0813289" lon="11.4200208"><ele>366.0</ele><time>2026-04-11T12:24:38.259Z</time></trkpt><trkpt lat="43.0812439" lon="11.4198691"><ele>370.0</ele><time>2026-04-11T12:24:39.26Z</time></trkpt><trkpt lat="43.0811755" lon="11.4197197"><ele>369.2</ele><time>2026-04-11T12:24:40.26Z</time></trkpt><trkpt lat="43.0811144" lon="11.4195936"><ele>368.4</ele><time>2026-04-11T12:24:41.259Z</time></trkpt><trkpt lat="43.0810382" lon="11.4194987"><ele>367.6</ele><time>2026-04-11T12:24:42.259Z</time></trkpt><trkpt lat="43.0809444" lon="11.4194301"><ele>366.8</ele><time>2026-04-11T12:24:43.259Z</time></trkpt><trkpt lat="43.0808451" lon="11.419383"><ele>366.0</ele><time>2026-04-11T12:24:44.26Z</time></trkpt><trkpt lat="43.080748" lon="11.4193605"><ele>369.1666666666667</ele><time>2026-04-11T12:24:45.261Z</time></trkpt><trkpt lat="43.080665" lon="11.4193503"><ele>372.33333333333337</ele><time>2026-04-11T12:24:46.261Z</time></trkpt><trkpt lat="43.0805823" lon="11.4193545"><ele>375.5</ele><time>2026-04-11T12:24:47.26Z</time></trkpt><trkpt lat="43.0804938" lon="11.4193552"><ele>378.6666666666667</ele><time>2026-04-11T12:24:48.261Z</time></trkpt><trkpt lat="43.0804" lon="11.419343"><ele>381.83333333333337</ele><time>2026-04-11T12:24:49.261Z</time></trkpt><trkpt lat="43.0803173" lon="11.4193026"><ele>385.0</ele><time>2026-04-11T12:24:50.26Z</time></trkpt><trkpt lat="43.0802496" lon="11.4192355"><ele>385.00000000000006</ele><time>2026-04-11T12:24:51.261Z</time></trkpt><trkpt lat="43.0801903" lon="11.4191557"><ele>385.0</ele><time>2026-04-11T12:24:52.26Z</time></trkpt><trkpt lat="43.0801445" lon="11.4190479"><ele>385.0</ele><time>2026-04-11T12:24:53.261Z</time></trkpt><trkpt lat="43.0801071" lon="11.4189243"><ele>385.0</ele><time>2026-04-11T12:24:54.26Z</time></trkpt><trkpt lat="43.0800691" lon="11.4188129"><ele>385.00000000000006</ele><time>2026-04-11T12:24:55.261Z</time></trkpt><trkpt lat="43.0800189" lon="11.4187219"><ele>385.0</ele><time>2026-04-11T12:24:56.261Z</time></trkpt><trkpt lat="43.0799507" lon="11.4186451"><ele>387.00000000000006</ele><time>2026-04-11T12:24:57.261Z</time></trkpt><trkpt lat="43.0798678" lon="11.4185819"><ele>389.0</ele><time>2026-04-11T12:24:58.261Z</time></trkpt><trkpt lat="43.0797821" lon="11.4185416"><ele>391.0</ele><time>2026-04-11T12:24:59.26Z</time></trkpt><trkpt lat="43.0796941" lon="11.4185231"><ele>393.0</ele><time>2026-04-11T12:25:00.261Z</time></trkpt><trkpt lat="43.0796153" lon="11.4185051"><ele>395.00000000000006</ele><time>2026-04-11T12:25:01.261Z</time></trkpt><trkpt lat="43.0795417" lon="11.4184811"><ele>397.0</ele><time>2026-04-11T12:25:02.261Z</time></trkpt><trkpt lat="43.0794688" lon="11.4184519"><ele>397.00000000000006</ele><time>2026-04-11T12:25:03.26Z</time></trkpt><trkpt lat="43.0793918" lon="11.4184208"><ele>397.0</ele><time>2026-04-11T12:25:04.261Z</time></trkpt><trkpt lat="43.0793088" lon="11.4183882"><ele>397.0</ele><time>2026-04-11T12:25:05.261Z</time></trkpt><trkpt lat="43.0792244" lon="11.4183438"><ele>397.0</ele><time>2026-04-11T12:25:06.26Z</time></trkpt><trkpt lat="43.079147" lon="11.4182889"><ele>397.00000000000006</ele><time>2026-04-11T12:25:07.26Z</time></trkpt><trkpt lat="43.0790691" lon="11.4181956"><ele>397.0</ele><time>2026-04-11T12:25:08.261Z</time></trkpt><trkpt lat="43.0789959" lon="11.4180998"><ele>396.6</ele><time>2026-04-11T12:25:09.261Z</time></trkpt><trkpt lat="43.0789224" lon="11.4180257"><ele>396.20000000000005</ele><time>2026-04-11T12:25:10.26Z</time></trkpt><trkpt lat="43.0788449" lon="11.4179938"><ele>395.8</ele><time>2026-04-11T12:25:11.26Z</time></trkpt><trkpt lat="43.0787583" lon="11.4179795"><ele>395.4</ele><time>2026-04-11T12:25:12.261Z</time></trkpt><trkpt lat="43.0786641" lon="11.4179674"><ele>395.0</ele><time>2026-04-11T12:25:13.26Z</time></trkpt><trkpt lat="43.0785666" lon="11.4179541"><ele>395.0</ele><time>2026-04-11T12:25:14.26Z</time></trkpt><trkpt lat="43.0784689" lon="11.4179427"><ele>395.0</ele><time>2026-04-11T12:25:15.26Z</time></trkpt><trkpt lat="43.0783758" lon="11.417935"><ele>395.0</ele><time>2026-04-11T12:25:16.261Z</time></trkpt><trkpt lat="43.0782872" lon="11.4179302"><ele>395.0</ele><time>2026-04-11T12:25:17.26Z</time></trkpt><trkpt lat="43.0781965" lon="11.4179246"><ele>395.0</ele><time>2026-04-11T12:25:18.26Z</time></trkpt><trkpt lat="43.0781003" lon="11.4179151"><ele>397.8</ele><time>2026-04-11T12:25:19.261Z</time></trkpt><trkpt lat="43.0780041" lon="11.4179021"><ele>400.6</ele><time>2026-04-11T12:25:20.261Z</time></trkpt><trkpt lat="43.0779091" lon="11.4178935"><ele>403.4</ele><time>2026-04-11T12:25:21.261Z</time></trkpt><trkpt lat="43.0778217" lon="11.4178933"><ele>406.2</ele><time>2026-04-11T12:25:22.26Z</time></trkpt><trkpt lat="43.0777382" lon="11.4179058"><ele>409.0</ele><time>2026-04-11T12:25:23.261Z</time></trkpt><trkpt lat="43.0776502" lon="11.4179185"><ele>409.00000000000006</ele><time>2026-04-11T12:25:24.26Z</time></trkpt><trkpt lat="43.0775615" lon="11.4179277"><ele>409.0</ele><time>2026-04-11T12:25:25.26Z</time></trkpt><trkpt lat="43.0774786" lon="11.4179176"><ele>409.0</ele><time>2026-04-11T12:25:26.261Z</time></trkpt><trkpt lat="43.0774022" lon="11.417889"><ele>409.0</ele><time>2026-04-11T12:25:27.26Z</time></trkpt><trkpt lat="43.0773208" lon="11.4178383"><ele>409.00000000000006</ele><time>2026-04-11T12:25:28.26Z</time></trkpt><trkpt lat="43.0772388" lon="11.4177773"><ele>409.0</ele><time>2026-04-11T12:25:29.26Z</time></trkpt><trkpt lat="43.077161" lon="11.417711"><ele>412.00000000000006</ele><time>2026-04-11T12:25:30.261Z</time></trkpt><trkpt lat="43.0770904" lon="11.4176531"><ele>415.0</ele><time>2026-04-11T12:25:31.261Z</time></trkpt><trkpt lat="43.0770217" lon="11.4175964"><ele>418.0</ele><time>2026-04-11T12:25:32.261Z</time></trkpt><trkpt lat="43.0769601" lon="11.4175243"><ele>421.0</ele><time>2026-04-11T12:25:33.26Z</time></trkpt><trkpt lat="43.0769044" lon="11.417427"><ele>424.00000000000006</ele><time>2026-04-11T12:25:34.261Z</time></trkpt><trkpt lat="43.0768595" lon="11.417318"><ele>427.0</ele><time>2026-04-11T12:25:35.26Z</time></trkpt><trkpt lat="43.0768265" lon="11.4171912"><ele>427.50000000000006</ele><time>2026-04-11T12:25:36.261Z</time></trkpt><trkpt lat="43.0767931" lon="11.4170761"><ele>428.0</ele><time>2026-04-11T12:25:37.261Z</time></trkpt><trkpt lat="43.0767483" lon="11.416992"><ele>428.5</ele><time>2026-04-11T12:25:38.26Z</time></trkpt><trkpt lat="43.0766854" lon="11.4169284"><ele>429.0</ele><time>2026-04-11T12:25:39.26Z</time></trkpt><trkpt lat="43.07661" lon="11.4168821"><ele>429.50000000000006</ele><time>2026-04-11T12:25:40.26Z</time></trkpt><trkpt lat="43.0765186" lon="11.4168537"><ele>430.0</ele><time>2026-04-11T12:25:41.26Z</time></trkpt><trkpt lat="43.0764301" lon="11.4168263"><ele>430.0</ele><time>2026-04-11T12:25:42.261Z</time></trkpt><trkpt lat="43.0763365" lon="11.4167989"><ele>430.0</ele><time>2026-04-11T12:25:43.261Z</time></trkpt><trkpt lat="43.0762329" lon="11.4167679"><ele>430.0</ele><time>2026-04-11T12:25:44.262Z</time></trkpt><trkpt lat="43.0761191" lon="11.4167251"><ele>430.0</ele><time>2026-04-11T12:25:45.26Z</time></trkpt><trkpt lat="43.0760111" lon="11.416671"><ele>430.0</ele><time>2026-04-11T12:25:46.261Z</time></trkpt><trkpt lat="43.0759054" lon="11.4166064"><ele>430.0</ele><time>2026-04-11T12:25:47.26Z</time></trkpt><trkpt lat="43.0758103" lon="11.4165378"><ele>430.0</ele><time>2026-04-11T12:25:48.261Z</time></trkpt><trkpt lat="43.0757124" lon="11.4164607"><ele>430.0</ele><time>2026-04-11T12:25:49.261Z</time></trkpt><trkpt lat="43.0756179" lon="11.4163779"><ele>430.0</ele><time>2026-04-11T12:25:50.261Z</time></trkpt><trkpt lat="43.075521" lon="11.4162968"><ele>430.0</ele><time>2026-04-11T12:25:51.261Z</time></trkpt><trkpt lat="43.0754179" lon="11.4162087"><ele>431.0</ele><time>2026-04-11T12:25:52.262Z</time></trkpt><trkpt lat="43.0753176" lon="11.4161333"><ele>432.0</ele><time>2026-04-11T12:25:53.262Z</time></trkpt><trkpt lat="43.0752194" lon="11.4160569"><ele>433.0</ele><time>2026-04-11T12:25:54.262Z</time></trkpt><trkpt lat="43.0751252" lon="11.4159889"><ele>434.0</ele><time>2026-04-11T12:25:55.261Z</time></trkpt><trkpt lat="43.0750315" lon="11.4159276"><ele>435.0</ele><time>2026-04-11T12:25:56.261Z</time></trkpt><trkpt lat="43.0749415" lon="11.4158803"><ele>436.0</ele><time>2026-04-11T12:25:57.261Z</time></trkpt><trkpt lat="43.074852" lon="11.4158412"><ele>437.0</ele><time>2026-04-11T12:25:58.262Z</time></trkpt><trkpt lat="43.0747626" lon="11.4158048"><ele>438.0</ele><time>2026-04-11T12:25:59.262Z</time></trkpt><trkpt lat="43.0746737" lon="11.4157771"><ele>439.0</ele><time>2026-04-11T12:26:00.261Z</time></trkpt><trkpt lat="43.0745829" lon="11.4157542"><ele>440.0</ele><time>2026-04-11T12:26:01.262Z</time></trkpt><trkpt lat="43.0744916" lon="11.4157394"><ele>439.99999999999994</ele><time>2026-04-11T12:26:02.262Z</time></trkpt><trkpt lat="43.0744125" lon="11.4157102"><ele>440.0</ele><time>2026-04-11T12:26:03.262Z</time></trkpt><trkpt lat="43.0743549" lon="11.415646"><ele>440.0</ele><time>2026-04-11T12:26:04.261Z</time></trkpt><trkpt lat="43.0743197" lon="11.4155525"><ele>440.0</ele><time>2026-04-11T12:26:05.262Z</time></trkpt><trkpt lat="43.0743133" lon="11.4154461"><ele>439.99999999999994</ele><time>2026-04-11T12:26:06.262Z</time></trkpt><trkpt lat="43.0743206" lon="11.4153349"><ele>440.0</ele><time>2026-04-11T12:26:07.261Z</time></trkpt><trkpt lat="43.0743347" lon="11.4152266"><ele>441.66666666666663</ele><time>2026-04-11T12:26:08.262Z</time></trkpt><trkpt lat="43.0743411" lon="11.4151114"><ele>443.3333333333333</ele><time>2026-04-11T12:26:09.262Z</time></trkpt><trkpt lat="43.0743355" lon="11.4149883"><ele>445.0</ele><time>2026-04-11T12:26:10.262Z</time></trkpt><trkpt lat="43.0743173" lon="11.4148638"><ele>446.66666666666663</ele><time>2026-04-11T12:26:11.261Z</time></trkpt><trkpt lat="43.0742935" lon="11.4147469"><ele>448.3333333333333</ele><time>2026-04-11T12:26:12.262Z</time></trkpt><trkpt lat="43.0742573" lon="11.414633"><ele>450.0</ele><time>2026-04-11T12:26:13.261Z</time></trkpt><trkpt lat="43.0742165" lon="11.4145391"><ele>451.4</ele><time>2026-04-11T12:26:14.261Z</time></trkpt><trkpt lat="43.0741737" lon="11.4144662"><ele>452.8</ele><time>2026-04-11T12:26:15.262Z</time></trkpt><trkpt lat="43.0740717" lon="11.4143848"><ele>454.20000000000005</ele><time>2026-04-11T12:26:17.261Z</time></trkpt><trkpt lat="43.0739963" lon="11.4143672"><ele>455.6</ele><time>2026-04-11T12:26:18.261Z</time></trkpt><trkpt lat="43.0739115" lon="11.4143642"><ele>457.0</ele><time>2026-04-11T12:26:19.261Z</time></trkpt><trkpt lat="43.0738094" lon="11.4143659"><ele>459.75</ele><time>2026-04-11T12:26:20.261Z</time></trkpt><trkpt lat="43.0736932" lon="11.414363"><ele>462.5</ele><time>2026-04-11T12:26:21.261Z</time></trkpt><trkpt lat="43.0735697" lon="11.4143554"><ele>465.25</ele><time>2026-04-11T12:26:22.262Z</time></trkpt><trkpt lat="43.0734446" lon="11.4143365"><ele>468.0</ele><time>2026-04-11T12:26:23.261Z</time></trkpt><trkpt lat="43.0733272" lon="11.4143072"><ele>470.25</ele><time>2026-04-11T12:26:24.262Z</time></trkpt><trkpt lat="43.0732097" lon="11.4142697"><ele>472.5</ele><time>2026-04-11T12:26:25.261Z</time></trkpt><trkpt lat="43.0730793" lon="11.4142407"><ele>474.75</ele><time>2026-04-11T12:26:26.262Z</time></trkpt><trkpt lat="43.072951" lon="11.4142367"><ele>477.0</ele><time>2026-04-11T12:26:27.261Z</time></trkpt><trkpt lat="43.0728231" lon="11.4142613"><ele>477.0</ele><time>2026-04-11T12:26:28.262Z</time></trkpt><trkpt lat="43.0727106" lon="11.4142761"><ele>477.0</ele><time>2026-04-11T12:26:29.261Z</time></trkpt><trkpt lat="43.0726073" lon="11.4142662"><ele>477.0</ele><time>2026-04-11T12:26:30.262Z</time></trkpt><trkpt lat="43.0724959" lon="11.4142185"><ele>477.0</ele><time>2026-04-11T12:26:31.262Z</time></trkpt><trkpt lat="43.0723798" lon="11.4141406"><ele>476.6</ele><time>2026-04-11T12:26:32.261Z</time></trkpt><trkpt lat="43.0722835" lon="11.4140755"><ele>476.20000000000005</ele><time>2026-04-11T12:26:33.262Z</time></trkpt><trkpt lat="43.0722025" lon="11.414017"><ele>475.8</ele><time>2026-04-11T12:26:34.261Z</time></trkpt><trkpt lat="43.0721165" lon="11.4139565"><ele>475.4</ele><time>2026-04-11T12:26:35.261Z</time></trkpt><trkpt lat="43.072006" lon="11.4139009"><ele>475.0</ele><time>2026-04-11T12:26:36.261Z</time></trkpt><trkpt lat="43.0718772" lon="11.4138456"><ele>477.75</ele><time>2026-04-11T12:26:37.262Z</time></trkpt><trkpt lat="43.0717446" lon="11.4137769"><ele>480.5</ele><time>2026-04-11T12:26:38.262Z</time></trkpt><trkpt lat="43.0716281" lon="11.4136991"><ele>483.25</ele><time>2026-04-11T12:26:39.262Z</time></trkpt><trkpt lat="43.0715218" lon="11.4136191"><ele>486.0</ele><time>2026-04-11T12:26:40.261Z</time></trkpt><trkpt lat="43.0714256" lon="11.413551"><ele>486.0</ele><time>2026-04-11T12:26:41.262Z</time></trkpt><trkpt lat="43.0713324" lon="11.4135098"><ele>486.0</ele><time>2026-04-11T12:26:42.262Z</time></trkpt><trkpt lat="43.0712324" lon="11.4135079"><ele>486.0</ele><time>2026-04-11T12:26:43.262Z</time></trkpt><trkpt lat="43.0711164" lon="11.4135513"><ele>486.0</ele><time>2026-04-11T12:26:44.262Z</time></trkpt><trkpt lat="43.0710144" lon="11.4135805"><ele>486.0</ele><time>2026-04-11T12:26:45.261Z</time></trkpt><trkpt lat="43.0709277" lon="11.4135738"><ele>486.0</ele><time>2026-04-11T12:26:46.261Z</time></trkpt><trkpt lat="43.070848" lon="11.4135143"><ele>486.0</ele><time>2026-04-11T12:26:47.261Z</time></trkpt><trkpt lat="43.0707677" lon="11.4134218"><ele>486.0</ele><time>2026-04-11T12:26:48.262Z</time></trkpt><trkpt lat="43.0706895" lon="11.4133179"><ele>486.0</ele><time>2026-04-11T12:26:49.262Z</time></trkpt><trkpt lat="43.0706086" lon="11.4132128"><ele>486.0</ele><time>2026-04-11T12:26:50.262Z</time></trkpt><trkpt lat="43.0705292" lon="11.4131115"><ele>487.5</ele><time>2026-04-11T12:26:51.261Z</time></trkpt><trkpt lat="43.0704508" lon="11.4130185"><ele>489.0</ele><time>2026-04-11T12:26:52.263Z</time></trkpt><trkpt lat="43.0703773" lon="11.4129435"><ele>490.5</ele><time>2026-04-11T12:26:53.262Z</time></trkpt><trkpt lat="43.0703087" lon="11.4128895"><ele>492.0</ele><time>2026-04-11T12:26:54.262Z</time></trkpt><trkpt lat="43.0702386" lon="11.4128824"><ele>493.5</ele><time>2026-04-11T12:26:55.263Z</time></trkpt><trkpt lat="43.0701693" lon="11.4129238"><ele>495.0</ele><time>2026-04-11T12:26:56.263Z</time></trkpt><trkpt lat="43.0701042" lon="11.4130179"><ele>495.0</ele><time>2026-04-11T12:26:57.263Z</time></trkpt><trkpt lat="43.0700586" lon="11.4131405"><ele>495.0</ele><time>2026-04-11T12:26:58.263Z</time></trkpt><trkpt lat="43.0700181" lon="11.4132783"><ele>495.0</ele><time>2026-04-11T12:26:59.263Z</time></trkpt><trkpt lat="43.0699829" lon="11.4134184"><ele>495.0</ele><time>2026-04-11T12:27:00.263Z</time></trkpt><trkpt lat="43.0699538" lon="11.4135734"><ele>495.0</ele><time>2026-04-11T12:27:01.263Z</time></trkpt><trkpt lat="43.0699387" lon="11.4137632"><ele>494.75</ele><time>2026-04-11T12:27:02.263Z</time></trkpt><trkpt lat="43.0699543" lon="11.4139736"><ele>494.5</ele><time>2026-04-11T12:27:03.263Z</time></trkpt><trkpt lat="43.0699871" lon="11.4141739"><ele>494.25</ele><time>2026-04-11T12:27:04.263Z</time></trkpt><trkpt lat="43.0700115" lon="11.4143548"><ele>494.0</ele><time>2026-04-11T12:27:05.262Z</time></trkpt><trkpt lat="43.0700057" lon="11.4145082"><ele>493.4</ele><time>2026-04-11T12:27:06.263Z</time></trkpt><trkpt lat="43.0699728" lon="11.4146583"><ele>492.79999999999995</ele><time>2026-04-11T12:27:07.262Z</time></trkpt><trkpt lat="43.0699196" lon="11.4147921"><ele>492.20000000000005</ele><time>2026-04-11T12:27:08.263Z</time></trkpt><trkpt lat="43.0698527" lon="11.4149014"><ele>491.6</ele><time>2026-04-11T12:27:09.263Z</time></trkpt><trkpt lat="43.0697759" lon="11.4149989"><ele>491.0</ele><time>2026-04-11T12:27:10.262Z</time></trkpt><trkpt lat="43.0696834" lon="11.4150815"><ele>493.0</ele><time>2026-04-11T12:27:11.263Z</time></trkpt><trkpt lat="43.0695733" lon="11.4151545"><ele>495.0</ele><time>2026-04-11T12:27:12.263Z</time></trkpt><trkpt lat="43.0694443" lon="11.4152335"><ele>497.0</ele><time>2026-04-11T12:27:13.262Z</time></trkpt><trkpt lat="43.0693226" lon="11.4153243"><ele>499.0</ele><time>2026-04-11T12:27:14.262Z</time></trkpt><trkpt lat="43.0692148" lon="11.4154259"><ele>497.2</ele><time>2026-04-11T12:27:15.262Z</time></trkpt><trkpt lat="43.0691283" lon="11.4155035"><ele>495.4</ele><time>2026-04-11T12:27:16.262Z</time></trkpt><trkpt lat="43.0690346" lon="11.4155607"><ele>493.6</ele><time>2026-04-11T12:27:17.262Z</time></trkpt><trkpt lat="43.0689392" lon="11.4155991"><ele>491.8</ele><time>2026-04-11T12:27:18.263Z</time></trkpt><trkpt lat="43.0688243" lon="11.4156335"><ele>490.0</ele><time>2026-04-11T12:27:19.262Z</time></trkpt><trkpt lat="43.0686986" lon="11.4156647"><ele>489.5</ele><time>2026-04-11T12:27:20.262Z</time></trkpt><trkpt lat="43.0685765" lon="11.4157143"><ele>489.0</ele><time>2026-04-11T12:27:21.262Z</time></trkpt><trkpt lat="43.0684574" lon="11.4158016"><ele>488.5</ele><time>2026-04-11T12:27:22.262Z</time></trkpt><trkpt lat="43.0683497" lon="11.4159319"><ele>488.0</ele><time>2026-04-11T12:27:23.262Z</time></trkpt><trkpt lat="43.0682583" lon="11.4160614"><ele>487.79999999999995</ele><time>2026-04-11T12:27:24.262Z</time></trkpt><trkpt lat="43.0681741" lon="11.4161788"><ele>487.59999999999997</ele><time>2026-04-11T12:27:25.262Z</time></trkpt><trkpt lat="43.0680946" lon="11.4162705"><ele>487.40000000000003</ele><time>2026-04-11T12:27:26.262Z</time></trkpt><trkpt lat="43.0680124" lon="11.4163471"><ele>487.20000000000005</ele><time>2026-04-11T12:27:27.262Z</time></trkpt><trkpt lat="43.0679148" lon="11.4164115"><ele>487.0</ele><time>2026-04-11T12:27:28.263Z</time></trkpt><trkpt lat="43.0678225" lon="11.416467"><ele>489.0</ele><time>2026-04-11T12:27:29.263Z</time></trkpt><trkpt lat="43.0677474" lon="11.4165347"><ele>491.00000000000006</ele><time>2026-04-11T12:27:30.263Z</time></trkpt><trkpt lat="43.067693" lon="11.4166303"><ele>493.00000000000006</ele><time>2026-04-11T12:27:31.263Z</time></trkpt><trkpt lat="43.0676621" lon="11.4167732"><ele>495.0</ele><time>2026-04-11T12:27:32.262Z</time></trkpt><trkpt lat="43.0676225" lon="11.4169169"><ele>497.0</ele><time>2026-04-11T12:27:33.262Z</time></trkpt><trkpt lat="43.0675774" lon="11.4170628"><ele>496.25</ele><time>2026-04-11T12:27:34.263Z</time></trkpt><trkpt lat="43.067517" lon="11.4172062"><ele>495.5</ele><time>2026-04-11T12:27:35.262Z</time></trkpt><trkpt lat="43.0674409" lon="11.4173408"><ele>494.75</ele><time>2026-04-11T12:27:36.263Z</time></trkpt><trkpt lat="43.0673634" lon="11.4174555"><ele>494.0</ele><time>2026-04-11T12:27:37.263Z</time></trkpt><trkpt lat="43.0672825" lon="11.4175551"><ele>496.0</ele><time>2026-04-11T12:27:38.263Z</time></trkpt><trkpt lat="43.0671997" lon="11.4176275"><ele>498.0</ele><time>2026-04-11T12:27:39.263Z</time></trkpt><trkpt lat="43.0671023" lon="11.4176742"><ele>500.0</ele><time>2026-04-11T12:27:40.262Z</time></trkpt><trkpt lat="43.0669981" lon="11.4177012"><ele>502.0</ele><time>2026-04-11T12:27:41.262Z</time></trkpt><trkpt lat="43.0668904" lon="11.4177289"><ele>504.0</ele><time>2026-04-11T12:27:42.262Z</time></trkpt><trkpt lat="43.0667993" lon="11.4177851"><ele>504.0</ele><time>2026-04-11T12:27:43.262Z</time></trkpt><trkpt lat="43.0667307" lon="11.4178748"><ele>504.0</ele><time>2026-04-11T12:27:44.264Z</time></trkpt><trkpt lat="43.0666767" lon="11.4179958"><ele>504.0</ele><time>2026-04-11T12:27:45.262Z</time></trkpt><trkpt lat="43.0666347" lon="11.4181251"><ele>504.0</ele><time>2026-04-11T12:27:46.263Z</time></trkpt><trkpt lat="43.0666037" lon="11.4182846"><ele>504.0</ele><time>2026-04-11T12:27:47.263Z</time></trkpt><trkpt lat="43.0665738" lon="11.4184542"><ele>500.0</ele><time>2026-04-11T12:27:48.263Z</time></trkpt><trkpt lat="43.0665495" lon="11.4186234"><ele>496.0</ele><time>2026-04-11T12:27:49.262Z</time></trkpt><trkpt lat="43.0665349" lon="11.4187941"><ele>492.0</ele><time>2026-04-11T12:27:50.263Z</time></trkpt><trkpt lat="43.066532" lon="11.4189664"><ele>488.0</ele><time>2026-04-11T12:27:51.263Z</time></trkpt><trkpt lat="43.0665375" lon="11.4191412"><ele>487.25</ele><time>2026-04-11T12:27:52.264Z</time></trkpt><trkpt lat="43.0665499" lon="11.4193109"><ele>486.5</ele><time>2026-04-11T12:27:53.263Z</time></trkpt><trkpt lat="43.066564" lon="11.4194766"><ele>485.75</ele><time>2026-04-11T12:27:54.263Z</time></trkpt><trkpt lat="43.0665752" lon="11.4196432"><ele>485.0</ele><time>2026-04-11T12:27:55.262Z</time></trkpt><trkpt lat="43.0665833" lon="11.4198089"><ele>485.0</ele><time>2026-04-11T12:27:56.264Z</time></trkpt><trkpt lat="43.0665786" lon="11.4199702"><ele>485.0</ele><time>2026-04-11T12:27:57.263Z</time></trkpt><trkpt lat="43.0665525" lon="11.4201148"><ele>485.0</ele><time>2026-04-11T12:27:58.264Z</time></trkpt><trkpt lat="43.0665038" lon="11.4202582"><ele>485.0</ele><time>2026-04-11T12:27:59.264Z</time></trkpt><trkpt lat="43.0664174" lon="11.4204026"><ele>487.3333333333333</ele><time>2026-04-11T12:28:00.264Z</time></trkpt><trkpt lat="43.0663266" lon="11.42056"><ele>489.66666666666663</ele><time>2026-04-11T12:28:01.264Z</time></trkpt><trkpt lat="43.0662387" lon="11.420737"><ele>492.0</ele><time>2026-04-11T12:28:02.264Z</time></trkpt><trkpt lat="43.0661535" lon="11.4209143"><ele>492.0</ele><time>2026-04-11T12:28:03.264Z</time></trkpt><trkpt lat="43.0660602" lon="11.4210792"><ele>492.0</ele><time>2026-04-11T12:28:04.264Z</time></trkpt><trkpt lat="43.065964" lon="11.4212332"><ele>492.0</ele><time>2026-04-11T12:28:05.263Z</time></trkpt><trkpt lat="43.065873" lon="11.4213829"><ele>492.0</ele><time>2026-04-11T12:28:06.264Z</time></trkpt><trkpt lat="43.0657829" lon="11.4215317"><ele>490.5</ele><time>2026-04-11T12:28:07.264Z</time></trkpt><trkpt lat="43.0657021" lon="11.421688"><ele>489.0</ele><time>2026-04-11T12:28:08.263Z</time></trkpt><trkpt lat="43.065628" lon="11.4218399"><ele>487.5</ele><time>2026-04-11T12:28:09.263Z</time></trkpt><trkpt lat="43.0655447" lon="11.4219645"><ele>486.0</ele><time>2026-04-11T12:28:10.263Z</time></trkpt><trkpt lat="43.0654426" lon="11.4220565"><ele>486.0</ele><time>2026-04-11T12:28:11.263Z</time></trkpt><trkpt lat="43.0653243" lon="11.422146"><ele>486.0</ele><time>2026-04-11T12:28:12.264Z</time></trkpt><trkpt lat="43.0652083" lon="11.4222366"><ele>486.0</ele><time>2026-04-11T12:28:13.264Z</time></trkpt><trkpt lat="43.0651114" lon="11.4222943"><ele>486.0</ele><time>2026-04-11T12:28:14.264Z</time></trkpt><trkpt lat="43.0650211" lon="11.4223226"><ele>486.0</ele><time>2026-04-11T12:28:15.263Z</time></trkpt><trkpt lat="43.0649252" lon="11.4223281"><ele>486.0</ele><time>2026-04-11T12:28:16.264Z</time></trkpt><trkpt lat="43.0648217" lon="11.422332"><ele>486.0</ele><time>2026-04-11T12:28:17.263Z</time></trkpt><trkpt lat="43.0647063" lon="11.422329"><ele>486.0</ele><time>2026-04-11T12:28:18.263Z</time></trkpt><trkpt lat="43.0645877" lon="11.4223178"><ele>486.0</ele><time>2026-04-11T12:28:19.263Z</time></trkpt><trkpt lat="43.0644548" lon="11.422284"><ele>486.0</ele><time>2026-04-11T12:28:20.263Z</time></trkpt><trkpt lat="43.064314" lon="11.4222239"><ele>486.0</ele><time>2026-04-11T12:28:21.264Z</time></trkpt><trkpt lat="43.0641908" lon="11.4221407"><ele>486.0</ele><time>2026-04-11T12:28:22.264Z</time></trkpt><trkpt lat="43.0640734" lon="11.4220551"><ele>486.0</ele><time>2026-04-11T12:28:23.264Z</time></trkpt><trkpt lat="43.0639686" lon="11.4219855"><ele>483.20000000000005</ele><time>2026-04-11T12:28:24.264Z</time></trkpt><trkpt lat="43.0638799" lon="11.4219664"><ele>480.40000000000003</ele><time>2026-04-11T12:28:25.264Z</time></trkpt><trkpt lat="43.0637921" lon="11.4219881"><ele>477.6</ele><time>2026-04-11T12:28:26.263Z</time></trkpt><trkpt lat="43.0636906" lon="11.4220189"><ele>474.8</ele><time>2026-04-11T12:28:27.264Z</time></trkpt><trkpt lat="43.0635937" lon="11.4220448"><ele>472.0</ele><time>2026-04-11T12:28:28.264Z</time></trkpt><trkpt lat="43.0635164" lon="11.4220816"><ele>472.0</ele><time>2026-04-11T12:28:29.263Z</time></trkpt><trkpt lat="43.0634727" lon="11.4221543"><ele>472.00000000000006</ele><time>2026-04-11T12:28:30.263Z</time></trkpt><trkpt lat="43.0634513" lon="11.4222604"><ele>472.00000000000006</ele><time>2026-04-11T12:28:31.263Z</time></trkpt><trkpt lat="43.0634565" lon="11.4224018"><ele>472.0</ele><time>2026-04-11T12:28:32.263Z</time></trkpt><trkpt lat="43.0634953" lon="11.4225345"><ele>472.0</ele><time>2026-04-11T12:28:33.263Z</time></trkpt><trkpt lat="43.0635374" lon="11.4226667"><ele>472.0</ele><time>2026-04-11T12:28:34.264Z</time></trkpt><trkpt lat="43.0635684" lon="11.422803"><ele>472.00000000000006</ele><time>2026-04-11T12:28:35.263Z</time></trkpt><trkpt lat="43.06356" lon="11.4229359"><ele>472.00000000000006</ele><time>2026-04-11T12:28:36.264Z</time></trkpt><trkpt lat="43.0635188" lon="11.423075"><ele>472.0</ele><time>2026-04-11T12:28:37.264Z</time></trkpt><trkpt lat="43.0634399" lon="11.4232249"><ele>472.0</ele><time>2026-04-11T12:28:38.263Z</time></trkpt><trkpt lat="43.0633762" lon="11.4233592"><ele>471.50000000000006</ele><time>2026-04-11T12:28:39.263Z</time></trkpt><trkpt lat="43.0633383" lon="11.4234769"><ele>471.0</ele><time>2026-04-11T12:28:40.264Z</time></trkpt><trkpt lat="43.0633229" lon="11.4235866"><ele>470.5</ele><time>2026-04-11T12:28:41.264Z</time></trkpt><trkpt lat="43.0633387" lon="11.4236998"><ele>470.0</ele><time>2026-04-11T12:28:42.263Z</time></trkpt><trkpt lat="43.0633662" lon="11.4238159"><ele>469.50000000000006</ele><time>2026-04-11T12:28:43.263Z</time></trkpt><trkpt lat="43.0633957" lon="11.4239308"><ele>469.0</ele><time>2026-04-11T12:28:44.264Z</time></trkpt><trkpt lat="43.0634179" lon="11.4240488"><ele>468.2</ele><time>2026-04-11T12:28:45.263Z</time></trkpt><trkpt lat="43.063416" lon="11.4241653"><ele>467.4</ele><time>2026-04-11T12:28:46.264Z</time></trkpt><trkpt lat="43.0633832" lon="11.4242925"><ele>466.6</ele><time>2026-04-11T12:28:47.264Z</time></trkpt><trkpt lat="43.063334" lon="11.4244458"><ele>465.8</ele><time>2026-04-11T12:28:48.263Z</time></trkpt><trkpt lat="43.0632842" lon="11.4246084"><ele>465.0</ele><time>2026-04-11T12:28:49.264Z</time></trkpt><trkpt lat="43.0632547" lon="11.4247811"><ele>464.25</ele><time>2026-04-11T12:28:50.263Z</time></trkpt><trkpt lat="43.0632375" lon="11.4249413"><ele>463.5</ele><time>2026-04-11T12:28:51.264Z</time></trkpt><trkpt lat="43.0632182" lon="11.4250843"><ele>462.75</ele><time>2026-04-11T12:28:52.264Z</time></trkpt><trkpt lat="43.0631726" lon="11.4252292"><ele>462.0</ele><time>2026-04-11T12:28:53.263Z</time></trkpt><trkpt lat="43.063101" lon="11.4253683"><ele>463.0</ele><time>2026-04-11T12:28:54.264Z</time></trkpt><trkpt lat="43.0630089" lon="11.4255098"><ele>464.0</ele><time>2026-04-11T12:28:55.264Z</time></trkpt><trkpt lat="43.0629247" lon="11.4256373"><ele>465.0</ele><time>2026-04-11T12:28:56.264Z</time></trkpt><trkpt lat="43.0628699" lon="11.4257711"><ele>466.0</ele><time>2026-04-11T12:28:57.264Z</time></trkpt><trkpt lat="43.0628425" lon="11.4259199"><ele>466.0</ele><time>2026-04-11T12:28:58.263Z</time></trkpt><trkpt lat="43.0628246" lon="11.4260743"><ele>466.0</ele><time>2026-04-11T12:28:59.264Z</time></trkpt><trkpt lat="43.062823" lon="11.4262308"><ele>466.0</ele><time>2026-04-11T12:29:00.263Z</time></trkpt><trkpt lat="43.0628307" lon="11.4263934"><ele>466.0</ele><time>2026-04-11T12:29:01.265Z</time></trkpt><trkpt lat="43.0628429" lon="11.4265579"><ele>466.0</ele><time>2026-04-11T12:29:02.265Z</time></trkpt><trkpt lat="43.0628696" lon="11.4267384"><ele>466.0</ele><time>2026-04-11T12:29:03.264Z</time></trkpt><trkpt lat="43.0628991" lon="11.426911"><ele>466.0</ele><time>2026-04-11T12:29:04.264Z</time></trkpt><trkpt lat="43.0629158" lon="11.4270665"><ele>466.0</ele><time>2026-04-11T12:29:05.265Z</time></trkpt><trkpt lat="43.0629086" lon="11.4272037"><ele>466.0</ele><time>2026-04-11T12:29:06.265Z</time></trkpt><trkpt lat="43.0628604" lon="11.4273242"><ele>466.0</ele><time>2026-04-11T12:29:07.264Z</time></trkpt><trkpt lat="43.0627711" lon="11.4274116"><ele>466.0</ele><time>2026-04-11T12:29:08.265Z</time></trkpt><trkpt lat="43.0626679" lon="11.4274819"><ele>466.0</ele><time>2026-04-11T12:29:09.264Z</time></trkpt><trkpt lat="43.0625448" lon="11.4275293"><ele>467.0</ele><time>2026-04-11T12:29:10.265Z</time></trkpt><trkpt lat="43.0624315" lon="11.4275639"><ele>468.0</ele><time>2026-04-11T12:29:11.264Z</time></trkpt><trkpt lat="43.0623116" lon="11.4276125"><ele>469.0</ele><time>2026-04-11T12:29:12.264Z</time></trkpt><trkpt lat="43.0621797" lon="11.4276582"><ele>470.0</ele><time>2026-04-11T12:29:13.265Z</time></trkpt><trkpt lat="43.0620491" lon="11.4276941"><ele>470.0</ele><time>2026-04-11T12:29:14.264Z</time></trkpt><trkpt lat="43.0619297" lon="11.4276939"><ele>470.0</ele><time>2026-04-11T12:29:15.265Z</time></trkpt><trkpt lat="43.0618092" lon="11.4276618"><ele>470.0</ele><time>2026-04-11T12:29:16.264Z</time></trkpt><trkpt lat="43.0617008" lon="11.4275846"><ele>470.0</ele><time>2026-04-11T12:29:17.264Z</time></trkpt><trkpt lat="43.0615976" lon="11.4274885"><ele>470.2</ele><time>2026-04-11T12:29:18.265Z</time></trkpt><trkpt lat="43.0615005" lon="11.4274058"><ele>470.4</ele><time>2026-04-11T12:29:19.264Z</time></trkpt><trkpt lat="43.0613966" lon="11.4273727"><ele>470.6</ele><time>2026-04-11T12:29:20.265Z</time></trkpt><trkpt lat="43.0612801" lon="11.4273758"><ele>470.8</ele><time>2026-04-11T12:29:21.265Z</time></trkpt><trkpt lat="43.0611767" lon="11.4273996"><ele>471.0</ele><time>2026-04-11T12:29:22.264Z</time></trkpt><trkpt lat="43.0610956" lon="11.4274272"><ele>471.0</ele><time>2026-04-11T12:29:23.265Z</time></trkpt><trkpt lat="43.0610189" lon="11.4274622"><ele>471.0</ele><time>2026-04-11T12:29:24.264Z</time></trkpt><trkpt lat="43.0609424" lon="11.4274982"><ele>471.0</ele><time>2026-04-11T12:29:25.264Z</time></trkpt><trkpt lat="43.0608599" lon="11.4275235"><ele>471.0</ele><time>2026-04-11T12:29:26.265Z</time></trkpt><trkpt lat="43.0607792" lon="11.4275138"><ele>471.0</ele><time>2026-04-11T12:29:27.264Z</time></trkpt><trkpt lat="43.0607055" lon="11.4274653"><ele>471.0</ele><time>2026-04-11T12:29:28.265Z</time></trkpt><trkpt lat="43.0606237" lon="11.4273851"><ele>472.3333333333333</ele><time>2026-04-11T12:29:29.265Z</time></trkpt><trkpt lat="43.0605392" lon="11.427307"><ele>473.66666666666663</ele><time>2026-04-11T12:29:30.265Z</time></trkpt><trkpt lat="43.0604649" lon="11.4272545"><ele>475.0</ele><time>2026-04-11T12:29:31.265Z</time></trkpt><trkpt lat="43.0604022" lon="11.4272382"><ele>476.3333333333333</ele><time>2026-04-11T12:29:32.264Z</time></trkpt><trkpt lat="43.06031" lon="11.427315"><ele>477.66666666666663</ele><time>2026-04-11T12:29:34.265Z</time></trkpt><trkpt lat="43.0602761" lon="11.4273904"><ele>479.0</ele><time>2026-04-11T12:29:35.265Z</time></trkpt><trkpt lat="43.060269" lon="11.4275022"><ele>478.99999999999994</ele><time>2026-04-11T12:29:36.265Z</time></trkpt><trkpt lat="43.0602691" lon="11.4276233"><ele>479.0</ele><time>2026-04-11T12:29:37.264Z</time></trkpt><trkpt lat="43.0602571" lon="11.4277195"><ele>479.0</ele><time>2026-04-11T12:29:38.265Z</time></trkpt><trkpt lat="43.060218" lon="11.4277942"><ele>479.0</ele><time>2026-04-11T12:29:39.265Z</time></trkpt><trkpt lat="43.0601592" lon="11.4278506"><ele>478.99999999999994</ele><time>2026-04-11T12:29:40.265Z</time></trkpt><trkpt lat="43.0600905" lon="11.4278802"><ele>479.0</ele><time>2026-04-11T12:29:41.264Z</time></trkpt><trkpt lat="43.0600014" lon="11.4279193"><ele>479.8333333333333</ele><time>2026-04-11T12:29:43.264Z</time></trkpt><trkpt lat="43.0599199" lon="11.4279602"><ele>480.66666666666663</ele><time>2026-04-11T12:29:45.265Z</time></trkpt><trkpt lat="43.0598129" lon="11.4279536"><ele>481.5</ele><time>2026-04-11T12:29:47.264Z</time></trkpt><trkpt lat="43.0597586" lon="11.4279017"><ele>482.33333333333337</ele><time>2026-04-11T12:29:48.265Z</time></trkpt><trkpt lat="43.0597068" lon="11.4278307"><ele>483.1666666666667</ele><time>2026-04-11T12:29:49.264Z</time></trkpt><trkpt lat="43.0596494" lon="11.4277443"><ele>484.0</ele><time>2026-04-11T12:29:50.264Z</time></trkpt><trkpt lat="43.0595873" lon="11.4276368"><ele>484.0</ele><time>2026-04-11T12:29:51.265Z</time></trkpt><trkpt lat="43.0595133" lon="11.4275044"><ele>484.0</ele><time>2026-04-11T12:29:52.265Z</time></trkpt><trkpt lat="43.0594489" lon="11.4273923"><ele>484.0</ele><time>2026-04-11T12:29:53.265Z</time></trkpt><trkpt lat="43.0593908" lon="11.4273128"><ele>484.0</ele><time>2026-04-11T12:29:54.265Z</time></trkpt><trkpt lat="43.0593303" lon="11.4272621"><ele>484.0</ele><time>2026-04-11T12:29:55.265Z</time></trkpt><trkpt lat="43.0592624" lon="11.4272307"><ele>484.00000000000006</ele><time>2026-04-11T12:29:56.264Z</time></trkpt><trkpt lat="43.059191" lon="11.427234"><ele>484.0</ele><time>2026-04-11T12:29:57.265Z</time></trkpt><trkpt lat="43.0591105" lon="11.4272677"><ele>484.0</ele><time>2026-04-11T12:29:58.265Z</time></trkpt><trkpt lat="43.0590402" lon="11.4273273"><ele>484.0</ele><time>2026-04-11T12:29:59.265Z</time></trkpt><trkpt lat="43.0589949" lon="11.42742"><ele>484.00000000000006</ele><time>2026-04-11T12:30:00.264Z</time></trkpt><trkpt lat="43.0589795" lon="11.4275158"><ele>484.0</ele><time>2026-04-11T12:30:01.264Z</time></trkpt><trkpt lat="43.0589948" lon="11.4276238"><ele>484.0</ele><time>2026-04-11T12:30:02.265Z</time></trkpt><trkpt lat="43.0590291" lon="11.4277225"><ele>484.0</ele><time>2026-04-11T12:30:03.265Z</time></trkpt><trkpt lat="43.0590737" lon="11.4278193"><ele>484.0</ele><time>2026-04-11T12:30:04.265Z</time></trkpt><trkpt lat="43.0591236" lon="11.4279402"><ele>484.0</ele><time>2026-04-11T12:30:05.264Z</time></trkpt><trkpt lat="43.0591749" lon="11.4280781"><ele>484.0</ele><time>2026-04-11T12:30:06.266Z</time></trkpt><trkpt lat="43.0592132" lon="11.4282058"><ele>483.1666666666667</ele><time>2026-04-11T12:30:07.266Z</time></trkpt><trkpt lat="43.05922" lon="11.4283112"><ele>482.33333333333337</ele><time>2026-04-11T12:30:08.265Z</time></trkpt><trkpt lat="43.0591738" lon="11.4283926"><ele>481.5</ele><time>2026-04-11T12:30:09.265Z</time></trkpt><trkpt lat="43.0591196" lon="11.4284518"><ele>480.66666666666663</ele><time>2026-04-11T12:30:10.266Z</time></trkpt><trkpt lat="43.0590571" lon="11.4284944"><ele>479.8333333333333</ele><time>2026-04-11T12:30:11.266Z</time></trkpt><trkpt lat="43.0589797" lon="11.4285217"><ele>479.0</ele><time>2026-04-11T12:30:12.266Z</time></trkpt><trkpt lat="43.0588796" lon="11.4285301"><ele>480.75</ele><time>2026-04-11T12:30:13.265Z</time></trkpt><trkpt lat="43.0587848" lon="11.4285972"><ele>482.5</ele><time>2026-04-11T12:30:14.266Z</time></trkpt><trkpt lat="43.0586958" lon="11.4287021"><ele>484.25</ele><time>2026-04-11T12:30:15.266Z</time></trkpt><trkpt lat="43.058621" lon="11.4288393"><ele>486.0</ele><time>2026-04-11T12:30:16.265Z</time></trkpt><trkpt lat="43.0585562" lon="11.428995"><ele>486.0</ele><time>2026-04-11T12:30:17.266Z</time></trkpt><trkpt lat="43.0584983" lon="11.4291588"><ele>486.0</ele><time>2026-04-11T12:30:18.265Z</time></trkpt><trkpt lat="43.0584464" lon="11.4293192"><ele>486.0</ele><time>2026-04-11T12:30:19.266Z</time></trkpt><trkpt lat="43.0584008" lon="11.4294793"><ele>486.0</ele><time>2026-04-11T12:30:20.266Z</time></trkpt><trkpt lat="43.0583622" lon="11.4296432"><ele>486.0</ele><time>2026-04-11T12:30:21.265Z</time></trkpt><trkpt lat="43.058331" lon="11.42981"><ele>486.0</ele><time>2026-04-11T12:30:22.266Z</time></trkpt><trkpt lat="43.0582996" lon="11.4299807"><ele>486.0</ele><time>2026-04-11T12:30:23.265Z</time></trkpt><trkpt lat="43.0582764" lon="11.4301321"><ele>486.0</ele><time>2026-04-11T12:30:24.266Z</time></trkpt><trkpt lat="43.0582686" lon="11.4302736"><ele>485.8</ele><time>2026-04-11T12:30:25.266Z</time></trkpt><trkpt lat="43.0582755" lon="11.4304181"><ele>485.6</ele><time>2026-04-11T12:30:26.265Z</time></trkpt><trkpt lat="43.0582913" lon="11.430568"><ele>485.4</ele><time>2026-04-11T12:30:27.266Z</time></trkpt><trkpt lat="43.0583036" lon="11.4307092"><ele>485.2</ele><time>2026-04-11T12:30:28.265Z</time></trkpt><trkpt lat="43.0582995" lon="11.4308393"><ele>485.0</ele><time>2026-04-11T12:30:29.265Z</time></trkpt><trkpt lat="43.058272" lon="11.4309522"><ele>483.75</ele><time>2026-04-11T12:30:30.266Z</time></trkpt><trkpt lat="43.0582124" lon="11.4310483"><ele>482.5</ele><time>2026-04-11T12:30:31.265Z</time></trkpt><trkpt lat="43.0581279" lon="11.4311361"><ele>481.25</ele><time>2026-04-11T12:30:32.265Z</time></trkpt><trkpt lat="43.0580152" lon="11.4311949"><ele>480.0</ele><time>2026-04-11T12:30:33.266Z</time></trkpt><trkpt lat="43.0578821" lon="11.4312643"><ele>482.0</ele><time>2026-04-11T12:30:34.265Z</time></trkpt><trkpt lat="43.0577578" lon="11.431333"><ele>484.0</ele><time>2026-04-11T12:30:35.266Z</time></trkpt><trkpt lat="43.0576355" lon="11.4314027"><ele>486.0</ele><time>2026-04-11T12:30:36.265Z</time></trkpt><trkpt lat="43.0575212" lon="11.4314922"><ele>488.0</ele><time>2026-04-11T12:30:37.266Z</time></trkpt><trkpt lat="43.0574101" lon="11.4315928"><ele>488.2</ele><time>2026-04-11T12:30:38.266Z</time></trkpt><trkpt lat="43.0573193" lon="11.4317135"><ele>488.4</ele><time>2026-04-11T12:30:39.265Z</time></trkpt><trkpt lat="43.0572435" lon="11.4318208"><ele>488.59999999999997</ele><time>2026-04-11T12:30:40.266Z</time></trkpt><trkpt lat="43.057179" lon="11.4319114"><ele>488.79999999999995</ele><time>2026-04-11T12:30:41.265Z</time></trkpt><trkpt lat="43.0571188" lon="11.4320143"><ele>489.0</ele><time>2026-04-11T12:30:42.266Z</time></trkpt><trkpt lat="43.0570583" lon="11.4321377"><ele>489.6</ele><time>2026-04-11T12:30:43.266Z</time></trkpt><trkpt lat="43.0569986" lon="11.4322704"><ele>490.2</ele><time>2026-04-11T12:30:44.265Z</time></trkpt><trkpt lat="43.0569387" lon="11.4323963"><ele>490.80000000000007</ele><time>2026-04-11T12:30:45.266Z</time></trkpt><trkpt lat="43.0568809" lon="11.4325022"><ele>491.40000000000003</ele><time>2026-04-11T12:30:46.266Z</time></trkpt><trkpt lat="43.0568266" lon="11.4325878"><ele>492.0</ele><time>2026-04-11T12:30:47.266Z</time></trkpt><trkpt lat="43.0567753" lon="11.4326585"><ele>492.0</ele><time>2026-04-11T12:30:48.266Z</time></trkpt><trkpt lat="43.0567227" lon="11.4327234"><ele>492.0</ele><time>2026-04-11T12:30:49.266Z</time></trkpt><trkpt lat="43.0566728" lon="11.432786"><ele>492.0</ele><time>2026-04-11T12:30:50.266Z</time></trkpt><trkpt lat="43.0566251" lon="11.4328529"><ele>492.0</ele><time>2026-04-11T12:30:51.265Z</time></trkpt><trkpt lat="43.0565866" lon="11.4329292"><ele>492.0</ele><time>2026-04-11T12:30:52.265Z</time></trkpt><trkpt lat="43.056516" lon="11.4330543"><ele>492.0</ele><time>2026-04-11T12:30:54.266Z</time></trkpt><trkpt lat="43.0564361" lon="11.4331361"><ele>492.8333333333333</ele><time>2026-04-11T12:30:56.265Z</time></trkpt><trkpt lat="43.0563572" lon="11.4331826"><ele>493.66666666666663</ele><time>2026-04-11T12:30:59.265Z</time></trkpt><trkpt lat="43.0562809" lon="11.4332404"><ele>494.5</ele><time>2026-04-11T12:31:01.265Z</time></trkpt><trkpt lat="43.0561615" lon="11.433297"><ele>495.3333333333333</ele><time>2026-04-11T12:31:03.266Z</time></trkpt><trkpt lat="43.0560954" lon="11.4333143"><ele>496.16666666666663</ele><time>2026-04-11T12:31:04.265Z</time></trkpt><trkpt lat="43.0560322" lon="11.433331"><ele>497.0</ele><time>2026-04-11T12:31:05.265Z</time></trkpt><trkpt lat="43.0559146" lon="11.4333768"><ele>497.0</ele><time>2026-04-11T12:31:07.266Z</time></trkpt><trkpt lat="43.0558035" lon="11.4334142"><ele>497.00000000000006</ele><time>2026-04-11T12:31:09.266Z</time></trkpt><trkpt lat="43.055727" lon="11.4334241"><ele>497.00000000000006</ele><time>2026-04-11T12:31:11.266Z</time></trkpt><trkpt lat="43.0556567" lon="11.4334569"><ele>497.0</ele><time>2026-04-11T12:31:18.267Z</time></trkpt><trkpt lat="43.0555423" lon="11.4335328"><ele>497.0</ele><time>2026-04-11T12:31:20.267Z</time></trkpt><trkpt lat="43.055477" lon="11.4335856"><ele>496.8333333333333</ele><time>2026-04-11T12:31:21.266Z</time></trkpt><trkpt lat="43.0554166" lon="11.433633"><ele>496.66666666666663</ele><time>2026-04-11T12:31:22.267Z</time></trkpt><trkpt lat="43.055349" lon="11.4336671"><ele>496.5</ele><time>2026-04-11T12:31:23.266Z</time></trkpt><trkpt lat="43.0552694" lon="11.4336944"><ele>496.33333333333337</ele><time>2026-04-11T12:31:24.266Z</time></trkpt><trkpt lat="43.0551795" lon="11.4337211"><ele>496.1666666666667</ele><time>2026-04-11T12:31:25.267Z</time></trkpt><trkpt lat="43.055082" lon="11.4337507"><ele>496.0</ele><time>2026-04-11T12:31:26.267Z</time></trkpt><trkpt lat="43.0549806" lon="11.433787"><ele>493.5</ele><time>2026-04-11T12:31:27.266Z</time></trkpt><trkpt lat="43.0548757" lon="11.4338406"><ele>491.0</ele><time>2026-04-11T12:31:28.267Z</time></trkpt><trkpt lat="43.0547659" lon="11.4339153"><ele>488.5</ele><time>2026-04-11T12:31:29.266Z</time></trkpt><trkpt lat="43.0546571" lon="11.4339975"><ele>486.0</ele><time>2026-04-11T12:31:30.266Z</time></trkpt><trkpt lat="43.0545469" lon="11.4340718"><ele>486.0</ele><time>2026-04-11T12:31:31.266Z</time></trkpt><trkpt lat="43.0544313" lon="11.434135"><ele>486.0</ele><time>2026-04-11T12:31:32.266Z</time></trkpt><trkpt lat="43.0543136" lon="11.4341889"><ele>486.0</ele><time>2026-04-11T12:31:33.267Z</time></trkpt><trkpt lat="43.0542038" lon="11.4342365"><ele>486.0</ele><time>2026-04-11T12:31:34.266Z</time></trkpt><trkpt lat="43.0540976" lon="11.4342769"><ele>485.6</ele><time>2026-04-11T12:31:35.267Z</time></trkpt><trkpt lat="43.0539952" lon="11.4343067"><ele>485.20000000000005</ele><time>2026-04-11T12:31:36.267Z</time></trkpt><trkpt lat="43.0538936" lon="11.4343274"><ele>484.79999999999995</ele><time>2026-04-11T12:31:37.266Z</time></trkpt><trkpt lat="43.0537969" lon="11.4343565"><ele>484.4</ele><time>2026-04-11T12:31:38.266Z</time></trkpt><trkpt lat="43.053704" lon="11.4343935"><ele>484.0</ele><time>2026-04-11T12:31:39.266Z</time></trkpt><trkpt lat="43.0536145" lon="11.4344533"><ele>484.0</ele><time>2026-04-11T12:31:40.266Z</time></trkpt><trkpt lat="43.0535325" lon="11.4345341"><ele>484.0</ele><time>2026-04-11T12:31:41.267Z</time></trkpt><trkpt lat="43.0534557" lon="11.4346215"><ele>484.0</ele><time>2026-04-11T12:31:42.266Z</time></trkpt><trkpt lat="43.0533808" lon="11.4347247"><ele>484.0</ele><time>2026-04-11T12:31:43.267Z</time></trkpt><trkpt lat="43.0533066" lon="11.4348605"><ele>484.0</ele><time>2026-04-11T12:31:44.267Z</time></trkpt><trkpt lat="43.0532389" lon="11.4350169"><ele>482.25</ele><time>2026-04-11T12:31:45.266Z</time></trkpt><trkpt lat="43.05319" lon="11.4351895"><ele>480.5</ele><time>2026-04-11T12:31:46.267Z</time></trkpt><trkpt lat="43.0531456" lon="11.4353661"><ele>478.75</ele><time>2026-04-11T12:31:47.266Z</time></trkpt><trkpt lat="43.0531119" lon="11.4355422"><ele>477.0</ele><time>2026-04-11T12:31:48.267Z</time></trkpt><trkpt lat="43.0530839" lon="11.4357187"><ele>474.75</ele><time>2026-04-11T12:31:49.266Z</time></trkpt><trkpt lat="43.0530653" lon="11.435894"><ele>472.5</ele><time>2026-04-11T12:31:50.266Z</time></trkpt><trkpt lat="43.0530506" lon="11.4360643"><ele>470.25</ele><time>2026-04-11T12:31:51.266Z</time></trkpt><trkpt lat="43.053034" lon="11.4362288"><ele>468.0</ele><time>2026-04-11T12:31:52.267Z</time></trkpt><trkpt lat="43.0530075" lon="11.4363776"><ele>468.0</ele><time>2026-04-11T12:31:53.267Z</time></trkpt><trkpt lat="43.052959" lon="11.4365142"><ele>468.0</ele><time>2026-04-11T12:31:54.267Z</time></trkpt><trkpt lat="43.0528939" lon="11.4366415"><ele>468.0</ele><time>2026-04-11T12:31:55.267Z</time></trkpt><trkpt lat="43.052811" lon="11.4367565"><ele>468.0</ele><time>2026-04-11T12:31:56.266Z</time></trkpt><trkpt lat="43.0527206" lon="11.4368451"><ele>468.0</ele><time>2026-04-11T12:31:57.266Z</time></trkpt><trkpt lat="43.0526314" lon="11.4368866"><ele>467.99999999999994</ele><time>2026-04-11T12:31:58.267Z</time></trkpt><trkpt lat="43.0525432" lon="11.4368974"><ele>467.99999999999994</ele><time>2026-04-11T12:31:59.267Z</time></trkpt><trkpt lat="43.0524406" lon="11.4368818"><ele>468.0</ele><time>2026-04-11T12:32:00.267Z</time></trkpt><trkpt lat="43.0523273" lon="11.4368393"><ele>468.0</ele><time>2026-04-11T12:32:01.267Z</time></trkpt><trkpt lat="43.052202" lon="11.4367996"><ele>468.25</ele><time>2026-04-11T12:32:02.267Z</time></trkpt><trkpt lat="43.0520731" lon="11.4368071"><ele>468.5</ele><time>2026-04-11T12:32:03.266Z</time></trkpt><trkpt lat="43.0519441" lon="11.4368449"><ele>468.75</ele><time>2026-04-11T12:32:04.267Z</time></trkpt><trkpt lat="43.0518151" lon="11.4368781"><ele>469.0</ele><time>2026-04-11T12:32:05.267Z</time></trkpt><trkpt lat="43.0517038" lon="11.436913"><ele>469.1666666666667</ele><time>2026-04-11T12:32:06.266Z</time></trkpt><trkpt lat="43.0516136" lon="11.4369419"><ele>469.33333333333337</ele><time>2026-04-11T12:32:07.267Z</time></trkpt><trkpt lat="43.0515464" lon="11.436981"><ele>469.5</ele><time>2026-04-11T12:32:08.267Z</time></trkpt><trkpt lat="43.0514911" lon="11.4370474"><ele>469.66666666666663</ele><time>2026-04-11T12:32:09.266Z</time></trkpt><trkpt lat="43.0514331" lon="11.4371461"><ele>469.8333333333333</ele><time>2026-04-11T12:32:10.267Z</time></trkpt><trkpt lat="43.0513779" lon="11.4372741"><ele>470.0</ele><time>2026-04-11T12:32:11.267Z</time></trkpt><trkpt lat="43.0513141" lon="11.4374031"><ele>470.0</ele><time>2026-04-11T12:32:12.266Z</time></trkpt><trkpt lat="43.0512255" lon="11.4375193"><ele>470.0</ele><time>2026-04-11T12:32:13.267Z</time></trkpt><trkpt lat="43.0511193" lon="11.4376171"><ele>470.0</ele><time>2026-04-11T12:32:14.267Z</time></trkpt><trkpt lat="43.0510007" lon="11.4376967"><ele>470.0</ele><time>2026-04-11T12:32:15.267Z</time></trkpt><trkpt lat="43.0508808" lon="11.4377584"><ele>471.75</ele><time>2026-04-11T12:32:16.267Z</time></trkpt><trkpt lat="43.0507613" lon="11.4378238"><ele>473.5</ele><time>2026-04-11T12:32:17.268Z</time></trkpt><trkpt lat="43.0506476" lon="11.4379007"><ele>475.25</ele><time>2026-04-11T12:32:18.267Z</time></trkpt><trkpt lat="43.0505542" lon="11.4379852"><ele>477.0</ele><time>2026-04-11T12:32:19.268Z</time></trkpt><trkpt lat="43.050488" lon="11.438087"><ele>478.25</ele><time>2026-04-11T12:32:20.268Z</time></trkpt><trkpt lat="43.0504476" lon="11.438222"><ele>479.5</ele><time>2026-04-11T12:32:21.267Z</time></trkpt><trkpt lat="43.0504283" lon="11.4383857"><ele>480.75</ele><time>2026-04-11T12:32:22.268Z</time></trkpt><trkpt lat="43.0504102" lon="11.4385467"><ele>482.0</ele><time>2026-04-11T12:32:23.268Z</time></trkpt><trkpt lat="43.0503811" lon="11.4386823"><ele>483.0</ele><time>2026-04-11T12:32:24.267Z</time></trkpt><trkpt lat="43.0503603" lon="11.43881"><ele>484.00000000000006</ele><time>2026-04-11T12:32:25.268Z</time></trkpt><trkpt lat="43.0503599" lon="11.4389364"><ele>485.00000000000006</ele><time>2026-04-11T12:32:26.268Z</time></trkpt><trkpt lat="43.0503939" lon="11.4390736"><ele>486.0</ele><time>2026-04-11T12:32:27.268Z</time></trkpt><trkpt lat="43.0504563" lon="11.4392048"><ele>487.0</ele><time>2026-04-11T12:32:28.267Z</time></trkpt><trkpt lat="43.0505308" lon="11.4393294"><ele>487.0</ele><time>2026-04-11T12:32:29.267Z</time></trkpt><trkpt lat="43.050592" lon="11.439448"><ele>487.0</ele><time>2026-04-11T12:32:30.267Z</time></trkpt><trkpt lat="43.0506545" lon="11.4395807"><ele>487.0</ele><time>2026-04-11T12:32:31.268Z</time></trkpt><trkpt lat="43.0506942" lon="11.4397336"><ele>487.0</ele><time>2026-04-11T12:32:32.267Z</time></trkpt><trkpt lat="43.0507158" lon="11.4398966"><ele>485.5</ele><time>2026-04-11T12:32:33.267Z</time></trkpt><trkpt lat="43.0507192" lon="11.4400578"><ele>484.0</ele><time>2026-04-11T12:32:34.267Z</time></trkpt><trkpt lat="43.0507022" lon="11.4402174"><ele>482.5</ele><time>2026-04-11T12:32:35.267Z</time></trkpt><trkpt lat="43.0506477" lon="11.4403673"><ele>481.0</ele><time>2026-04-11T12:32:36.267Z</time></trkpt><trkpt lat="43.0505669" lon="11.4405056"><ele>477.5</ele><time>2026-04-11T12:32:37.267Z</time></trkpt><trkpt lat="43.0504785" lon="11.4406104"><ele>474.0</ele><time>2026-04-11T12:32:38.267Z</time></trkpt><trkpt lat="43.0503719" lon="11.4406933"><ele>470.5</ele><time>2026-04-11T12:32:39.268Z</time></trkpt><trkpt lat="43.0502595" lon="11.4407655"><ele>467.0</ele><time>2026-04-11T12:32:40.268Z</time></trkpt><trkpt lat="43.0501596" lon="11.4408396"><ele>467.0</ele><time>2026-04-11T12:32:41.267Z</time></trkpt><trkpt lat="43.0500922" lon="11.4409404"><ele>467.00000000000006</ele><time>2026-04-11T12:32:42.268Z</time></trkpt><trkpt lat="43.0500527" lon="11.4410707"><ele>467.00000000000006</ele><time>2026-04-11T12:32:43.268Z</time></trkpt><trkpt lat="43.0500409" lon="11.4412036"><ele>467.0</ele><time>2026-04-11T12:32:44.268Z</time></trkpt><trkpt lat="43.0500441" lon="11.4413415"><ele>467.0</ele><time>2026-04-11T12:32:45.268Z</time></trkpt><trkpt lat="43.0500576" lon="11.4414969"><ele>466.25</ele><time>2026-04-11T12:32:46.268Z</time></trkpt><trkpt lat="43.0500724" lon="11.4416582"><ele>465.5</ele><time>2026-04-11T12:32:47.268Z</time></trkpt><trkpt lat="43.0500829" lon="11.4418284"><ele>464.75</ele><time>2026-04-11T12:32:48.268Z</time></trkpt><trkpt lat="43.0500894" lon="11.4420019"><ele>464.0</ele><time>2026-04-11T12:32:49.267Z</time></trkpt><trkpt lat="43.0500947" lon="11.4421685"><ele>464.0</ele><time>2026-04-11T12:32:50.268Z</time></trkpt><trkpt lat="43.0501029" lon="11.4423423"><ele>464.0</ele><time>2026-04-11T12:32:51.267Z</time></trkpt><trkpt lat="43.0501122" lon="11.4425275"><ele>464.0</ele><time>2026-04-11T12:32:52.268Z</time></trkpt><trkpt lat="43.050121" lon="11.4427196"><ele>464.0</ele><time>2026-04-11T12:32:53.268Z</time></trkpt><trkpt lat="43.0501267" lon="11.4429059"><ele>465.75</ele><time>2026-04-11T12:32:54.267Z</time></trkpt><trkpt lat="43.050138" lon="11.4430746"><ele>467.5</ele><time>2026-04-11T12:32:55.267Z</time></trkpt><trkpt lat="43.0501529" lon="11.4432302"><ele>469.25</ele><time>2026-04-11T12:32:56.267Z</time></trkpt><trkpt lat="43.0501593" lon="11.4433896"><ele>471.0</ele><time>2026-04-11T12:32:57.267Z</time></trkpt><trkpt lat="43.0501347" lon="11.4435553"><ele>471.0</ele><time>2026-04-11T12:32:58.267Z</time></trkpt><trkpt lat="43.0500868" lon="11.4437311"><ele>471.0</ele><time>2026-04-11T12:32:59.268Z</time></trkpt><trkpt lat="43.050037" lon="11.4439077"><ele>471.0</ele><time>2026-04-11T12:33:00.267Z</time></trkpt><trkpt lat="43.0499932" lon="11.4440865"><ele>471.0</ele><time>2026-04-11T12:33:01.268Z</time></trkpt><trkpt lat="43.049958" lon="11.4442609"><ele>470.75</ele><time>2026-04-11T12:33:02.267Z</time></trkpt><trkpt lat="43.0499304" lon="11.444437"><ele>470.5</ele><time>2026-04-11T12:33:03.267Z</time></trkpt><trkpt lat="43.0499184" lon="11.4446143"><ele>470.25</ele><time>2026-04-11T12:33:04.267Z</time></trkpt><trkpt lat="43.0499211" lon="11.4447882"><ele>470.0</ele><time>2026-04-11T12:33:05.268Z</time></trkpt><trkpt lat="43.0499282" lon="11.4449417"><ele>468.2</ele><time>2026-04-11T12:33:06.268Z</time></trkpt><trkpt lat="43.0499309" lon="11.4450743"><ele>466.4</ele><time>2026-04-11T12:33:07.267Z</time></trkpt><trkpt lat="43.0499219" lon="11.445202"><ele>464.6</ele><time>2026-04-11T12:33:08.268Z</time></trkpt><trkpt lat="43.0498878" lon="11.445341"><ele>462.8</ele><time>2026-04-11T12:33:09.267Z</time></trkpt><trkpt lat="43.0498329" lon="11.4454884"><ele>461.0</ele><time>2026-04-11T12:33:10.268Z</time></trkpt><trkpt lat="43.0497695" lon="11.4456357"><ele>461.0</ele><time>2026-04-11T12:33:11.268Z</time></trkpt><trkpt lat="43.049714" lon="11.4457801"><ele>461.0</ele><time>2026-04-11T12:33:12.268Z</time></trkpt><trkpt lat="43.0496734" lon="11.4459233"><ele>461.0</ele><time>2026-04-11T12:33:13.268Z</time></trkpt><trkpt lat="43.0496511" lon="11.4460735"><ele>461.0</ele><time>2026-04-11T12:33:14.268Z</time></trkpt><trkpt lat="43.0496322" lon="11.446239"><ele>462.0</ele><time>2026-04-11T12:33:15.268Z</time></trkpt><trkpt lat="43.0496147" lon="11.4464138"><ele>463.0</ele><time>2026-04-11T12:33:16.268Z</time></trkpt><trkpt lat="43.0496002" lon="11.4465925"><ele>464.0</ele><time>2026-04-11T12:33:17.267Z</time></trkpt><trkpt lat="43.0495942" lon="11.4467759"><ele>465.0</ele><time>2026-04-11T12:33:18.268Z</time></trkpt><trkpt lat="43.0495944" lon="11.4469667"><ele>465.25</ele><time>2026-04-11T12:33:19.267Z</time></trkpt><trkpt lat="43.0495931" lon="11.4471544"><ele>465.5</ele><time>2026-04-11T12:33:20.268Z</time></trkpt><trkpt lat="43.0495897" lon="11.4473302"><ele>465.75</ele><time>2026-04-11T12:33:21.268Z</time></trkpt><trkpt lat="43.0495872" lon="11.4474936"><ele>466.0</ele><time>2026-04-11T12:33:22.268Z</time></trkpt><trkpt lat="43.0495886" lon="11.4476467"><ele>466.0</ele><time>2026-04-11T12:33:23.269Z</time></trkpt><trkpt lat="43.0495957" lon="11.4477874"><ele>466.0</ele><time>2026-04-11T12:33:24.268Z</time></trkpt><trkpt lat="43.0496162" lon="11.4479173"><ele>466.0</ele><time>2026-04-11T12:33:25.269Z</time></trkpt><trkpt lat="43.0496503" lon="11.448034"><ele>466.0</ele><time>2026-04-11T12:33:26.268Z</time></trkpt><trkpt lat="43.0496888" lon="11.4481351"><ele>466.0</ele><time>2026-04-11T12:33:27.268Z</time></trkpt><trkpt lat="43.049717" lon="11.4482417"><ele>466.6</ele><time>2026-04-11T12:33:28.269Z</time></trkpt><trkpt lat="43.0497235" lon="11.4483475"><ele>467.20000000000005</ele><time>2026-04-11T12:33:29.269Z</time></trkpt><trkpt lat="43.0497003" lon="11.4484691"><ele>467.79999999999995</ele><time>2026-04-11T12:33:30.269Z</time></trkpt><trkpt lat="43.04963" lon="11.4485845"><ele>468.4</ele><time>2026-04-11T12:33:31.268Z</time></trkpt><trkpt lat="43.0495366" lon="11.4486782"><ele>469.0</ele><time>2026-04-11T12:33:32.268Z</time></trkpt><trkpt lat="43.0494492" lon="11.448776"><ele>469.5</ele><time>2026-04-11T12:33:33.269Z</time></trkpt><trkpt lat="43.0493656" lon="11.4488943"><ele>470.0</ele><time>2026-04-11T12:33:34.268Z</time></trkpt><trkpt lat="43.0492764" lon="11.4490339"><ele>470.5</ele><time>2026-04-11T12:33:35.269Z</time></trkpt><trkpt lat="43.0491727" lon="11.4491839"><ele>471.0</ele><time>2026-04-11T12:33:36.269Z</time></trkpt><trkpt lat="43.0490659" lon="11.4493293"><ele>471.0</ele><time>2026-04-11T12:33:37.268Z</time></trkpt><trkpt lat="43.0489562" lon="11.4494772"><ele>471.0</ele><time>2026-04-11T12:33:38.268Z</time></trkpt><trkpt lat="43.0488504" lon="11.4496285"><ele>471.0</ele><time>2026-04-11T12:33:39.268Z</time></trkpt><trkpt lat="43.0487536" lon="11.4497729"><ele>474.25</ele><time>2026-04-11T12:33:40.268Z</time></trkpt><trkpt lat="43.0486662" lon="11.4498989"><ele>477.5</ele><time>2026-04-11T12:33:41.268Z</time></trkpt><trkpt lat="43.0485772" lon="11.4500152"><ele>480.75</ele><time>2026-04-11T12:33:42.268Z</time></trkpt><trkpt lat="43.0484867" lon="11.450127"><ele>484.0</ele><time>2026-04-11T12:33:43.268Z</time></trkpt><trkpt lat="43.0483964" lon="11.4502352"><ele>484.0</ele><time>2026-04-11T12:33:44.269Z</time></trkpt><trkpt lat="43.0483117" lon="11.4503271"><ele>484.0</ele><time>2026-04-11T12:33:45.268Z</time></trkpt><trkpt lat="43.0482227" lon="11.4504094"><ele>484.0</ele><time>2026-04-11T12:33:46.269Z</time></trkpt><trkpt lat="43.048148" lon="11.4504907"><ele>484.0</ele><time>2026-04-11T12:33:47.268Z</time></trkpt><trkpt lat="43.0480906" lon="11.4505959"><ele>484.0</ele><time>2026-04-11T12:33:48.269Z</time></trkpt><trkpt lat="43.0480549" lon="11.4507154"><ele>484.25</ele><time>2026-04-11T12:33:49.269Z</time></trkpt><trkpt lat="43.0480377" lon="11.4508657"><ele>484.5</ele><time>2026-04-11T12:33:50.268Z</time></trkpt><trkpt lat="43.0480231" lon="11.4510266"><ele>484.75</ele><time>2026-04-11T12:33:51.269Z</time></trkpt><trkpt lat="43.0480029" lon="11.4511925"><ele>485.0</ele><time>2026-04-11T12:33:52.268Z</time></trkpt><trkpt lat="43.0479799" lon="11.4513575"><ele>485.0</ele><time>2026-04-11T12:33:53.269Z</time></trkpt><trkpt lat="43.0479524" lon="11.4515214"><ele>485.0</ele><time>2026-04-11T12:33:54.269Z</time></trkpt><trkpt lat="43.0479174" lon="11.4516786"><ele>485.0</ele><time>2026-04-11T12:33:55.268Z</time></trkpt><trkpt lat="43.0478654" lon="11.45182"><ele>485.0</ele><time>2026-04-11T12:33:56.268Z</time></trkpt><trkpt lat="43.0478059" lon="11.4519567"><ele>485.0</ele><time>2026-04-11T12:33:57.269Z</time></trkpt><trkpt lat="43.0477495" lon="11.4520934"><ele>485.0</ele><time>2026-04-11T12:33:58.269Z</time></trkpt><trkpt lat="43.0477081" lon="11.4522291"><ele>485.0</ele><time>2026-04-11T12:33:59.269Z</time></trkpt><trkpt lat="43.0476802" lon="11.452384"><ele>485.0</ele><time>2026-04-11T12:34:00.269Z</time></trkpt><trkpt lat="43.0476563" lon="11.4525665"><ele>486.25</ele><time>2026-04-11T12:34:01.269Z</time></trkpt><trkpt lat="43.0476263" lon="11.4527594"><ele>487.5</ele><time>2026-04-11T12:34:02.268Z</time></trkpt><trkpt lat="43.047592" lon="11.452953"><ele>488.75</ele><time>2026-04-11T12:34:03.268Z</time></trkpt><trkpt lat="43.0475588" lon="11.4531429"><ele>490.0</ele><time>2026-04-11T12:34:04.269Z</time></trkpt><trkpt lat="43.0475294" lon="11.4533173"><ele>489.8</ele><time>2026-04-11T12:34:05.268Z</time></trkpt><trkpt lat="43.0475122" lon="11.4534783"><ele>489.6</ele><time>2026-04-11T12:34:06.269Z</time></trkpt><trkpt lat="43.0475014" lon="11.4536251"><ele>489.4</ele><time>2026-04-11T12:34:07.269Z</time></trkpt><trkpt lat="43.0474864" lon="11.4537449"><ele>489.2</ele><time>2026-04-11T12:34:08.268Z</time></trkpt><trkpt lat="43.0474639" lon="11.4538438"><ele>489.0</ele><time>2026-04-11T12:34:09.268Z</time></trkpt><trkpt lat="43.047423" lon="11.4539245"><ele>491.6</ele><time>2026-04-11T12:34:10.268Z</time></trkpt><trkpt lat="43.0473652" lon="11.4539886"><ele>494.2</ele><time>2026-04-11T12:34:11.269Z</time></trkpt><trkpt lat="43.0472825" lon="11.4540353"><ele>496.80000000000007</ele><time>2026-04-11T12:34:12.268Z</time></trkpt><trkpt lat="43.0471766" lon="11.4540837"><ele>499.40000000000003</ele><time>2026-04-11T12:34:13.269Z</time></trkpt><trkpt lat="43.0470617" lon="11.4541406"><ele>502.0</ele><time>2026-04-11T12:34:14.269Z</time></trkpt><trkpt lat="43.0469386" lon="11.4542182"><ele>502.0</ele><time>2026-04-11T12:34:15.269Z</time></trkpt><trkpt lat="43.0468118" lon="11.454297"><ele>502.0</ele><time>2026-04-11T12:34:16.269Z</time></trkpt><trkpt lat="43.0467011" lon="11.4543603"><ele>502.0</ele><time>2026-04-11T12:34:17.269Z</time></trkpt><trkpt lat="43.0465977" lon="11.4544266"><ele>502.0</ele><time>2026-04-11T12:34:18.268Z</time></trkpt><trkpt lat="43.0464921" lon="11.4545186"><ele>503.25</ele><time>2026-04-11T12:34:19.268Z</time></trkpt><trkpt lat="43.0463785" lon="11.4546278"><ele>504.5</ele><time>2026-04-11T12:34:20.27Z</time></trkpt><trkpt lat="43.0462634" lon="11.4547386"><ele>505.75</ele><time>2026-04-11T12:34:21.269Z</time></trkpt><trkpt lat="43.0461472" lon="11.4548361"><ele>507.0</ele><time>2026-04-11T12:34:22.269Z</time></trkpt><trkpt lat="43.0460306" lon="11.454906"><ele>507.0</ele><time>2026-04-11T12:34:23.268Z</time></trkpt><trkpt lat="43.045913" lon="11.4549735"><ele>507.0</ele><time>2026-04-11T12:34:24.269Z</time></trkpt><trkpt lat="43.045801" lon="11.4550368"><ele>507.0</ele><time>2026-04-11T12:34:25.269Z</time></trkpt><trkpt lat="43.0456942" lon="11.4550988"><ele>507.0</ele><time>2026-04-11T12:34:26.27Z</time></trkpt><trkpt lat="43.0455917" lon="11.4551682"><ele>506.75</ele><time>2026-04-11T12:34:27.27Z</time></trkpt><trkpt lat="43.0455004" lon="11.4552483"><ele>506.5</ele><time>2026-04-11T12:34:28.269Z</time></trkpt><trkpt lat="43.0454251" lon="11.4553589"><ele>506.25</ele><time>2026-04-11T12:34:29.27Z</time></trkpt><trkpt lat="43.0453666" lon="11.4554969"><ele>506.0</ele><time>2026-04-11T12:34:30.27Z</time></trkpt><trkpt lat="43.0452973" lon="11.4556496"><ele>505.5</ele><time>2026-04-11T12:34:31.269Z</time></trkpt><trkpt lat="43.0452173" lon="11.4558129"><ele>505.0</ele><time>2026-04-11T12:34:32.27Z</time></trkpt><trkpt lat="43.0451303" lon="11.4559818"><ele>504.5</ele><time>2026-04-11T12:34:33.269Z</time></trkpt><trkpt lat="43.0450434" lon="11.4561483"><ele>504.0</ele><time>2026-04-11T12:34:34.27Z</time></trkpt><trkpt lat="43.0449641" lon="11.4563092"><ele>503.5</ele><time>2026-04-11T12:34:35.27Z</time></trkpt><trkpt lat="43.0448937" lon="11.4564542"><ele>503.0</ele><time>2026-04-11T12:34:36.269Z</time></trkpt><trkpt lat="43.044835" lon="11.4565913"><ele>502.5</ele><time>2026-04-11T12:34:37.269Z</time></trkpt><trkpt lat="43.0447948" lon="11.4567374"><ele>502.0</ele><time>2026-04-11T12:34:38.269Z</time></trkpt><trkpt lat="43.0447718" lon="11.4568996"><ele>502.0</ele><time>2026-04-11T12:34:39.27Z</time></trkpt><trkpt lat="43.0447613" lon="11.4570754"><ele>502.00000000000006</ele><time>2026-04-11T12:34:40.27Z</time></trkpt><trkpt lat="43.0447461" lon="11.4572244"><ele>502.00000000000006</ele><time>2026-04-11T12:34:41.269Z</time></trkpt><trkpt lat="43.0447224" lon="11.457336"><ele>502.0</ele><time>2026-04-11T12:34:42.269Z</time></trkpt><trkpt lat="43.0446863" lon="11.4574271"><ele>502.0</ele><time>2026-04-11T12:34:43.27Z</time></trkpt><trkpt lat="43.0446281" lon="11.4575087"><ele>503.6</ele><time>2026-04-11T12:34:44.27Z</time></trkpt><trkpt lat="43.0445504" lon="11.4575843"><ele>505.20000000000005</ele><time>2026-04-11T12:34:45.27Z</time></trkpt><trkpt lat="43.0444575" lon="11.4576474"><ele>506.8</ele><time>2026-04-11T12:34:46.269Z</time></trkpt><trkpt lat="43.0443546" lon="11.4577139"><ele>508.4</ele><time>2026-04-11T12:34:47.27Z</time></trkpt><trkpt lat="43.044249" lon="11.4577975"><ele>510.0</ele><time>2026-04-11T12:34:48.27Z</time></trkpt><trkpt lat="43.0441555" lon="11.4578879"><ele>509.25</ele><time>2026-04-11T12:34:49.27Z</time></trkpt><trkpt lat="43.0440824" lon="11.4579878"><ele>508.5</ele><time>2026-04-11T12:34:50.269Z</time></trkpt><trkpt lat="43.0440121" lon="11.4581104"><ele>507.75</ele><time>2026-04-11T12:34:51.27Z</time></trkpt><trkpt lat="43.0439208" lon="11.4582589"><ele>507.0</ele><time>2026-04-11T12:34:52.27Z</time></trkpt><trkpt lat="43.0438272" lon="11.458417"><ele>507.0</ele><time>2026-04-11T12:34:53.27Z</time></trkpt><trkpt lat="43.0437305" lon="11.4585809"><ele>507.0</ele><time>2026-04-11T12:34:54.269Z</time></trkpt><trkpt lat="43.0436295" lon="11.4587385"><ele>507.0</ele><time>2026-04-11T12:34:55.269Z</time></trkpt><trkpt lat="43.043528" lon="11.4588871"><ele>507.0</ele><time>2026-04-11T12:34:56.27Z</time></trkpt><trkpt lat="43.0434309" lon="11.4590162"><ele>507.0</ele><time>2026-04-11T12:34:57.269Z</time></trkpt><trkpt lat="43.0433328" lon="11.4591224"><ele>507.0</ele><time>2026-04-11T12:34:58.269Z</time></trkpt><trkpt lat="43.0432332" lon="11.4591981"><ele>507.0</ele><time>2026-04-11T12:34:59.27Z</time></trkpt><trkpt lat="43.0431295" lon="11.4592475"><ele>507.0</ele><time>2026-04-11T12:35:00.27Z</time></trkpt><trkpt lat="43.0430301" lon="11.4592933"><ele>507.00000000000006</ele><time>2026-04-11T12:35:01.269Z</time></trkpt><trkpt lat="43.042945" lon="11.4593532"><ele>507.00000000000006</ele><time>2026-04-11T12:35:02.27Z</time></trkpt><trkpt lat="43.0428721" lon="11.4594442"><ele>507.0</ele><time>2026-04-11T12:35:03.27Z</time></trkpt><trkpt lat="43.0428133" lon="11.4595817"><ele>507.0</ele><time>2026-04-11T12:35:04.269Z</time></trkpt><trkpt lat="43.0427705" lon="11.4597516"><ele>507.6</ele><time>2026-04-11T12:35:05.269Z</time></trkpt><trkpt lat="43.0427378" lon="11.4599192"><ele>508.20000000000005</ele><time>2026-04-11T12:35:06.27Z</time></trkpt><trkpt lat="43.0427084" lon="11.4600781"><ele>508.8</ele><time>2026-04-11T12:35:07.27Z</time></trkpt><trkpt lat="43.0426983" lon="11.4602193"><ele>509.4</ele><time>2026-04-11T12:35:08.269Z</time></trkpt><trkpt lat="43.0427076" lon="11.4603506"><ele>510.0</ele><time>2026-04-11T12:35:09.27Z</time></trkpt><trkpt lat="43.04274" lon="11.4604838"><ele>510.0</ele><time>2026-04-11T12:35:10.27Z</time></trkpt><trkpt lat="43.0428023" lon="11.4606137"><ele>510.0</ele><time>2026-04-11T12:35:11.27Z</time></trkpt><trkpt lat="43.0428803" lon="11.4607486"><ele>510.0</ele><time>2026-04-11T12:35:12.27Z</time></trkpt><trkpt lat="43.0429642" lon="11.4608936"><ele>510.0</ele><time>2026-04-11T12:35:13.27Z</time></trkpt><trkpt lat="43.0430461" lon="11.4610463"><ele>510.0</ele><time>2026-04-11T12:35:14.269Z</time></trkpt><trkpt lat="43.0431227" lon="11.4612054"><ele>510.0</ele><time>2026-04-11T12:35:15.27Z</time></trkpt><trkpt lat="43.0431882" lon="11.4613626"><ele>510.0</ele><time>2026-04-11T12:35:16.269Z</time></trkpt><trkpt lat="43.0432522" lon="11.4615198"><ele>510.0</ele><time>2026-04-11T12:35:17.269Z</time></trkpt><trkpt lat="43.0433198" lon="11.461689"><ele>507.0</ele><time>2026-04-11T12:35:18.27Z</time></trkpt><trkpt lat="43.0433943" lon="11.4618719"><ele>504.0</ele><time>2026-04-11T12:35:19.269Z</time></trkpt><trkpt lat="43.0434746" lon="11.4620571"><ele>501.0</ele><time>2026-04-11T12:35:20.269Z</time></trkpt><trkpt lat="43.0435509" lon="11.4622354"><ele>501.0</ele><time>2026-04-11T12:35:21.269Z</time></trkpt><trkpt lat="43.0436116" lon="11.4623922"><ele>501.0</ele><time>2026-04-11T12:35:22.27Z</time></trkpt><trkpt lat="43.0436512" lon="11.4625262"><ele>501.0</ele><time>2026-04-11T12:35:23.269Z</time></trkpt><trkpt lat="43.0436729" lon="11.4626515"><ele>501.0</ele><time>2026-04-11T12:35:24.27Z</time></trkpt><trkpt lat="43.043677" lon="11.4627742"><ele>501.0</ele><time>2026-04-11T12:35:25.27Z</time></trkpt><trkpt lat="43.043654" lon="11.4628911"><ele>501.0</ele><time>2026-04-11T12:35:26.269Z</time></trkpt><trkpt lat="43.0436053" lon="11.4629993"><ele>501.0</ele><time>2026-04-11T12:35:27.27Z</time></trkpt><trkpt lat="43.0435237" lon="11.4631165"><ele>501.0</ele><time>2026-04-11T12:35:28.269Z</time></trkpt><trkpt lat="43.043436" lon="11.4632264"><ele>501.0</ele><time>2026-04-11T12:35:29.271Z</time></trkpt><trkpt lat="43.0433465" lon="11.4633482"><ele>500.5</ele><time>2026-04-11T12:35:30.271Z</time></trkpt><trkpt lat="43.0432657" lon="11.4634771"><ele>500.0</ele><time>2026-04-11T12:35:31.27Z</time></trkpt><trkpt lat="43.0431994" lon="11.4636073"><ele>499.5</ele><time>2026-04-11T12:35:32.27Z</time></trkpt><trkpt lat="43.0431633" lon="11.4637464"><ele>499.0</ele><time>2026-04-11T12:35:33.27Z</time></trkpt><trkpt lat="43.0431453" lon="11.4639"><ele>499.0</ele><time>2026-04-11T12:35:34.271Z</time></trkpt><trkpt lat="43.0431312" lon="11.464064"><ele>499.0</ele><time>2026-04-11T12:35:35.27Z</time></trkpt><trkpt lat="43.0431119" lon="11.4642362"><ele>499.0</ele><time>2026-04-11T12:35:36.271Z</time></trkpt><trkpt lat="43.0430847" lon="11.4644124"><ele>499.0</ele><time>2026-04-11T12:35:37.27Z</time></trkpt><trkpt lat="43.0430549" lon="11.4645801"><ele>500.0</ele><time>2026-04-11T12:35:38.27Z</time></trkpt><trkpt lat="43.0430225" lon="11.4647432"><ele>501.0</ele><time>2026-04-11T12:35:39.27Z</time></trkpt><trkpt lat="43.0429836" lon="11.4649015"><ele>502.0</ele><time>2026-04-11T12:35:40.271Z</time></trkpt><trkpt lat="43.0429359" lon="11.4650577"><ele>503.0</ele><time>2026-04-11T12:35:41.27Z</time></trkpt><trkpt lat="43.0428788" lon="11.4652121"><ele>503.0</ele><time>2026-04-11T12:35:42.271Z</time></trkpt><trkpt lat="43.042813" lon="11.4653587"><ele>503.0</ele><time>2026-04-11T12:35:43.27Z</time></trkpt><trkpt lat="43.0427505" lon="11.4655057"><ele>503.0</ele><time>2026-04-11T12:35:44.271Z</time></trkpt><trkpt lat="43.0427052" lon="11.4656627"><ele>503.0</ele><time>2026-04-11T12:35:45.271Z</time></trkpt><trkpt lat="43.0426813" lon="11.4658286"><ele>502.75</ele><time>2026-04-11T12:35:46.27Z</time></trkpt><trkpt lat="43.0426776" lon="11.4660093"><ele>502.5</ele><time>2026-04-11T12:35:47.27Z</time></trkpt><trkpt lat="43.0426745" lon="11.4662029"><ele>502.25</ele><time>2026-04-11T12:35:48.271Z</time></trkpt><trkpt lat="43.0426688" lon="11.4664037"><ele>502.0</ele><time>2026-04-11T12:35:49.271Z</time></trkpt><trkpt lat="43.0426609" lon="11.4666032"><ele>501.75</ele><time>2026-04-11T12:35:50.271Z</time></trkpt><trkpt lat="43.0426533" lon="11.4667848"><ele>501.5</ele><time>2026-04-11T12:35:51.27Z</time></trkpt><trkpt lat="43.0426444" lon="11.4669508"><ele>501.25</ele><time>2026-04-11T12:35:52.271Z</time></trkpt><trkpt lat="43.0426305" lon="11.4671023"><ele>501.0</ele><time>2026-04-11T12:35:53.271Z</time></trkpt><trkpt lat="43.042599" lon="11.467248"><ele>500.75</ele><time>2026-04-11T12:35:54.27Z</time></trkpt><trkpt lat="43.0425446" lon="11.4673937"><ele>500.5</ele><time>2026-04-11T12:35:55.271Z</time></trkpt><trkpt lat="43.0424767" lon="11.4675571"><ele>500.25</ele><time>2026-04-11T12:35:56.27Z</time></trkpt><trkpt lat="43.0424049" lon="11.4677419"><ele>500.0</ele><time>2026-04-11T12:35:57.27Z</time></trkpt><trkpt lat="43.0423388" lon="11.4679405"><ele>501.66666666666663</ele><time>2026-04-11T12:35:58.271Z</time></trkpt><trkpt lat="43.04228" lon="11.4681505"><ele>503.33333333333337</ele><time>2026-04-11T12:35:59.27Z</time></trkpt><trkpt lat="43.0422297" lon="11.4683614"><ele>505.0</ele><time>2026-04-11T12:36:00.271Z</time></trkpt><trkpt lat="43.0421908" lon="11.4685548"><ele>505.0</ele><time>2026-04-11T12:36:01.271Z</time></trkpt><trkpt lat="43.0421564" lon="11.4687303"><ele>505.0</ele><time>2026-04-11T12:36:02.27Z</time></trkpt><trkpt lat="43.0421174" lon="11.4688926"><ele>505.0</ele><time>2026-04-11T12:36:03.271Z</time></trkpt><trkpt lat="43.0420701" lon="11.4690455"><ele>505.0</ele><time>2026-04-11T12:36:04.27Z</time></trkpt><trkpt lat="43.042003" lon="11.4691869"><ele>505.25</ele><time>2026-04-11T12:36:05.27Z</time></trkpt><trkpt lat="43.0419137" lon="11.4693062"><ele>505.5</ele><time>2026-04-11T12:36:06.271Z</time></trkpt><trkpt lat="43.0417995" lon="11.4693971"><ele>505.75</ele><time>2026-04-11T12:36:07.27Z</time></trkpt><trkpt lat="43.0416554" lon="11.469465"><ele>506.0</ele><time>2026-04-11T12:36:08.271Z</time></trkpt><trkpt lat="43.0414863" lon="11.4695375"><ele>509.3333333333333</ele><time>2026-04-11T12:36:09.27Z</time></trkpt><trkpt lat="43.0413113" lon="11.4696266"><ele>512.6666666666666</ele><time>2026-04-11T12:36:10.27Z</time></trkpt><trkpt lat="43.0411416" lon="11.4697374"><ele>516.0</ele><time>2026-04-11T12:36:11.271Z</time></trkpt><trkpt lat="43.0409875" lon="11.46987"><ele>516.0</ele><time>2026-04-11T12:36:12.27Z</time></trkpt><trkpt lat="43.0408414" lon="11.4700153"><ele>516.0</ele><time>2026-04-11T12:36:13.27Z</time></trkpt><trkpt lat="43.0407076" lon="11.4701689"><ele>516.0</ele><time>2026-04-11T12:36:14.27Z</time></trkpt><trkpt lat="43.0405904" lon="11.4703258"><ele>519.0</ele><time>2026-04-11T12:36:15.27Z</time></trkpt><trkpt lat="43.0404861" lon="11.4704816"><ele>522.0</ele><time>2026-04-11T12:36:16.271Z</time></trkpt><trkpt lat="43.0403958" lon="11.4706243"><ele>525.0</ele><time>2026-04-11T12:36:17.271Z</time></trkpt><trkpt lat="43.0403122" lon="11.4707321"><ele>528.0</ele><time>2026-04-11T12:36:18.271Z</time></trkpt><trkpt lat="43.0402301" lon="11.4707938"><ele>528.0</ele><time>2026-04-11T12:36:19.27Z</time></trkpt><trkpt lat="43.0401345" lon="11.4708272"><ele>528.0</ele><time>2026-04-11T12:36:20.27Z</time></trkpt><trkpt lat="43.0400124" lon="11.4708566"><ele>528.0</ele><time>2026-04-11T12:36:21.271Z</time></trkpt><trkpt lat="43.0398774" lon="11.4709008"><ele>528.0</ele><time>2026-04-11T12:36:22.271Z</time></trkpt><trkpt lat="43.0397468" lon="11.4709487"><ele>529.0</ele><time>2026-04-11T12:36:23.27Z</time></trkpt><trkpt lat="43.0396203" lon="11.471004"><ele>530.0</ele><time>2026-04-11T12:36:24.271Z</time></trkpt><trkpt lat="43.0395045" lon="11.4710646"><ele>531.0</ele><time>2026-04-11T12:36:25.27Z</time></trkpt><trkpt lat="43.0393787" lon="11.4711344"><ele>532.0</ele><time>2026-04-11T12:36:26.27Z</time></trkpt><trkpt lat="43.0392408" lon="11.4712141"><ele>532.3333333333334</ele><time>2026-04-11T12:36:27.271Z</time></trkpt><trkpt lat="43.0390985" lon="11.471315"><ele>532.6666666666666</ele><time>2026-04-11T12:36:28.27Z</time></trkpt><trkpt lat="43.0389666" lon="11.4714388"><ele>533.0</ele><time>2026-04-11T12:36:29.271Z</time></trkpt><trkpt lat="43.0388516" lon="11.4715958"><ele>533.0</ele><time>2026-04-11T12:36:30.27Z</time></trkpt><trkpt lat="43.038754" lon="11.4717812"><ele>533.0</ele><time>2026-04-11T12:36:31.271Z</time></trkpt><trkpt lat="43.0386799" lon="11.4719773"><ele>533.0</ele><time>2026-04-11T12:36:32.27Z</time></trkpt><trkpt lat="43.0386414" lon="11.4721919"><ele>538.0</ele><time>2026-04-11T12:36:33.27Z</time></trkpt><trkpt lat="43.038631" lon="11.4724127"><ele>543.0</ele><time>2026-04-11T12:36:34.27Z</time></trkpt><trkpt lat="43.0386436" lon="11.4726396"><ele>548.0</ele><time>2026-04-11T12:36:35.271Z</time></trkpt><trkpt lat="43.0386711" lon="11.4728614"><ele>551.0</ele><time>2026-04-11T12:36:36.272Z</time></trkpt><trkpt lat="43.0387075" lon="11.47307"><ele>554.0</ele><time>2026-04-11T12:36:37.272Z</time></trkpt><trkpt lat="43.0387418" lon="11.4732805"><ele>557.0</ele><time>2026-04-11T12:36:38.272Z</time></trkpt><trkpt lat="43.0387577" lon="11.4734626"><ele>560.0</ele><time>2026-04-11T12:36:39.271Z</time></trkpt><trkpt lat="43.0387302" lon="11.4736406"><ele>562.25</ele><time>2026-04-11T12:36:40.273Z</time></trkpt><trkpt lat="43.0386729" lon="11.4738006"><ele>564.5</ele><time>2026-04-11T12:36:41.271Z</time></trkpt><trkpt lat="43.0385651" lon="11.4739437"><ele>566.75</ele><time>2026-04-11T12:36:42.272Z</time></trkpt><trkpt lat="43.0384385" lon="11.4740568"><ele>569.0</ele><time>2026-04-11T12:36:43.273Z</time></trkpt><trkpt lat="43.0383012" lon="11.4741101"><ele>569.0</ele><time>2026-04-11T12:36:44.271Z</time></trkpt><trkpt lat="43.0381528" lon="11.4741617"><ele>569.0</ele><time>2026-04-11T12:36:45.271Z</time></trkpt><trkpt lat="43.0380208" lon="11.4742191"><ele>569.0</ele><time>2026-04-11T12:36:46.271Z</time></trkpt><trkpt lat="43.0378889" lon="11.474275"><ele>569.0</ele><time>2026-04-11T12:36:47.272Z</time></trkpt><trkpt lat="43.0377818" lon="11.474343"><ele>569.0</ele><time>2026-04-11T12:36:48.272Z</time></trkpt><trkpt lat="43.03771" lon="11.4744404"><ele>569.0</ele><time>2026-04-11T12:36:49.272Z</time></trkpt><trkpt lat="43.0376657" lon="11.4745899"><ele>569.0</ele><time>2026-04-11T12:36:50.271Z</time></trkpt><trkpt lat="43.0376581" lon="11.4747726"><ele>569.0</ele><time>2026-04-11T12:36:51.271Z</time></trkpt><trkpt lat="43.0376789" lon="11.4749814"><ele>573.0</ele><time>2026-04-11T12:36:52.272Z</time></trkpt><trkpt lat="43.037697" lon="11.4751915"><ele>577.0</ele><time>2026-04-11T12:36:53.272Z</time></trkpt><trkpt lat="43.0377124" lon="11.4753954"><ele>581.0</ele><time>2026-04-11T12:36:54.271Z</time></trkpt><trkpt lat="43.0377192" lon="11.4755939"><ele>583.0</ele><time>2026-04-11T12:36:55.271Z</time></trkpt><trkpt lat="43.0377246" lon="11.4757891"><ele>585.0</ele><time>2026-04-11T12:36:56.271Z</time></trkpt><trkpt lat="43.0377292" lon="11.4759834"><ele>587.0</ele><time>2026-04-11T12:36:57.271Z</time></trkpt><trkpt lat="43.0377365" lon="11.4761745"><ele>589.0</ele><time>2026-04-11T12:36:58.271Z</time></trkpt><trkpt lat="43.0377462" lon="11.4763645"><ele>589.75</ele><time>2026-04-11T12:36:59.272Z</time></trkpt><trkpt lat="43.0377561" lon="11.476557"><ele>590.5</ele><time>2026-04-11T12:37:00.271Z</time></trkpt><trkpt lat="43.0377662" lon="11.4767544"><ele>591.25</ele><time>2026-04-11T12:37:01.272Z</time></trkpt><trkpt lat="43.0377733" lon="11.4769521"><ele>592.0</ele><time>2026-04-11T12:37:02.272Z</time></trkpt><trkpt lat="43.0377808" lon="11.4771481"><ele>593.5</ele><time>2026-04-11T12:37:03.271Z</time></trkpt><trkpt lat="43.037786" lon="11.4773377"><ele>595.0</ele><time>2026-04-11T12:37:04.272Z</time></trkpt><trkpt lat="43.0377824" lon="11.4775312"><ele>596.5</ele><time>2026-04-11T12:37:05.272Z</time></trkpt><trkpt lat="43.0377654" lon="11.4777316"><ele>598.0</ele><time>2026-04-11T12:37:06.272Z</time></trkpt><trkpt lat="43.0377388" lon="11.4779405"><ele>598.0</ele><time>2026-04-11T12:37:07.271Z</time></trkpt><trkpt lat="43.0377001" lon="11.4781522"><ele>598.0</ele><time>2026-04-11T12:37:08.271Z</time></trkpt><trkpt lat="43.0376553" lon="11.4783476"><ele>598.0</ele><time>2026-04-11T12:37:09.272Z</time></trkpt><trkpt lat="43.0375977" lon="11.4785324"><ele>598.0</ele><time>2026-04-11T12:37:10.271Z</time></trkpt><trkpt lat="43.0375241" lon="11.4787074"><ele>598.0</ele><time>2026-04-11T12:37:11.272Z</time></trkpt><trkpt lat="43.0374404" lon="11.4788711"><ele>598.0</ele><time>2026-04-11T12:37:12.271Z</time></trkpt><trkpt lat="43.0373478" lon="11.4790113"><ele>598.0</ele><time>2026-04-11T12:37:13.272Z</time></trkpt><trkpt lat="43.0372499" lon="11.4791301"><ele>598.1999999999999</ele><time>2026-04-11T12:37:14.271Z</time></trkpt><trkpt lat="43.0371618" lon="11.4792394"><ele>598.4</ele><time>2026-04-11T12:37:15.272Z</time></trkpt><trkpt lat="43.0370852" lon="11.4793438"><ele>598.5999999999999</ele><time>2026-04-11T12:37:16.272Z</time></trkpt><trkpt lat="43.0370226" lon="11.4794368"><ele>598.8</ele><time>2026-04-11T12:37:17.271Z</time></trkpt><trkpt lat="43.0369741" lon="11.4795124"><ele>599.0</ele><time>2026-04-11T12:37:18.272Z</time></trkpt><trkpt lat="43.0369011" lon="11.4796042"><ele>599.3333333333333</ele><time>2026-04-11T12:37:20.271Z</time></trkpt><trkpt lat="43.0368351" lon="11.4796763"><ele>599.6666666666666</ele><time>2026-04-11T12:37:23.272Z</time></trkpt><trkpt lat="43.0367948" lon="11.4797568"><ele>600.0</ele><time>2026-04-11T12:37:25.272Z</time></trkpt><trkpt lat="43.0368224" lon="11.4798656"><ele>600.3333333333334</ele><time>2026-04-11T12:37:28.272Z</time></trkpt><trkpt lat="43.0368787" lon="11.4799086"><ele>600.6666666666667</ele><time>2026-04-11T12:37:29.272Z</time></trkpt><trkpt lat="43.036974" lon="11.479962"><ele>601.0</ele><time>2026-04-11T12:37:30.271Z</time></trkpt><trkpt lat="43.0371012" lon="11.4800267"><ele>601.0</ele><time>2026-04-11T12:37:31.272Z</time></trkpt><trkpt lat="43.0372419" lon="11.4801137"><ele>601.0</ele><time>2026-04-11T12:37:32.271Z</time></trkpt><trkpt lat="43.0373749" lon="11.4802137"><ele>601.0</ele><time>2026-04-11T12:37:33.271Z</time></trkpt><trkpt lat="43.0375086" lon="11.4803293"><ele>598.0</ele><time>2026-04-11T12:37:34.271Z</time></trkpt><trkpt lat="43.0376375" lon="11.4804454"><ele>595.0</ele><time>2026-04-11T12:37:35.272Z</time></trkpt><trkpt lat="43.0377603" lon="11.4805564"><ele>592.0</ele><time>2026-04-11T12:37:36.272Z</time></trkpt><trkpt lat="43.037885" lon="11.4806688"><ele>592.0</ele><time>2026-04-11T12:37:37.271Z</time></trkpt><trkpt lat="43.0380147" lon="11.4807873"><ele>592.0</ele><time>2026-04-11T12:37:38.272Z</time></trkpt><trkpt lat="43.0381475" lon="11.4809107"><ele>592.0</ele><time>2026-04-11T12:37:39.272Z</time></trkpt><trkpt lat="43.038283" lon="11.4810314"><ele>591.3333333333334</ele><time>2026-04-11T12:37:40.273Z</time></trkpt><trkpt lat="43.0384199" lon="11.4811458"><ele>590.6666666666666</ele><time>2026-04-11T12:37:41.272Z</time></trkpt><trkpt lat="43.0385586" lon="11.4812562"><ele>590.0</ele><time>2026-04-11T12:37:42.273Z</time></trkpt><trkpt lat="43.0386976" lon="11.4813726"><ele>589.6666666666666</ele><time>2026-04-11T12:37:43.272Z</time></trkpt><trkpt lat="43.0388345" lon="11.4814952"><ele>589.3333333333334</ele><time>2026-04-11T12:37:44.272Z</time></trkpt><trkpt lat="43.0389765" lon="11.4816221"><ele>589.0</ele><time>2026-04-11T12:37:45.273Z</time></trkpt><trkpt lat="43.0391232" lon="11.4817551"><ele>591.3333333333334</ele><time>2026-04-11T12:37:46.272Z</time></trkpt><trkpt lat="43.0392719" lon="11.4818907"><ele>593.6666666666666</ele><time>2026-04-11T12:37:47.272Z</time></trkpt><trkpt lat="43.0394203" lon="11.4820263"><ele>596.0</ele><time>2026-04-11T12:37:48.272Z</time></trkpt><trkpt lat="43.039567" lon="11.4821571"><ele>599.0</ele><time>2026-04-11T12:37:49.272Z</time></trkpt><trkpt lat="43.0397109" lon="11.4822812"><ele>602.0</ele><time>2026-04-11T12:37:50.272Z</time></trkpt><trkpt lat="43.0398446" lon="11.4823955"><ele>605.0</ele><time>2026-04-11T12:37:51.272Z</time></trkpt><trkpt lat="43.0399731" lon="11.4825045"><ele>606.6666666666666</ele><time>2026-04-11T12:37:52.273Z</time></trkpt><trkpt lat="43.0401066" lon="11.4826171"><ele>608.3333333333334</ele><time>2026-04-11T12:37:53.272Z</time></trkpt><trkpt lat="43.0402529" lon="11.4827238"><ele>610.0</ele><time>2026-04-11T12:37:54.272Z</time></trkpt><trkpt lat="43.0404136" lon="11.4828201"><ele>610.0</ele><time>2026-04-11T12:37:55.272Z</time></trkpt><trkpt lat="43.0405886" lon="11.482902"><ele>610.0</ele><time>2026-04-11T12:37:56.272Z</time></trkpt><trkpt lat="43.0407763" lon="11.4829706"><ele>610.0</ele><time>2026-04-11T12:37:57.273Z</time></trkpt><trkpt lat="43.0409752" lon="11.4830278"><ele>612.6666666666667</ele><time>2026-04-11T12:37:58.273Z</time></trkpt><trkpt lat="43.0411725" lon="11.4830791"><ele>615.3333333333334</ele><time>2026-04-11T12:37:59.272Z</time></trkpt><trkpt lat="43.0413662" lon="11.4831356"><ele>618.0</ele><time>2026-04-11T12:38:00.272Z</time></trkpt><trkpt lat="43.0415471" lon="11.4831914"><ele>616.0</ele><time>2026-04-11T12:38:01.272Z</time></trkpt><trkpt lat="43.0417268" lon="11.4832477"><ele>614.0</ele><time>2026-04-11T12:38:02.273Z</time></trkpt><trkpt lat="43.0419081" lon="11.4833037"><ele>612.0</ele><time>2026-04-11T12:38:03.272Z</time></trkpt><trkpt lat="43.0420918" lon="11.4833573"><ele>612.0</ele><time>2026-04-11T12:38:04.273Z</time></trkpt><trkpt lat="43.0422905" lon="11.4834223"><ele>612.0</ele><time>2026-04-11T12:38:05.273Z</time></trkpt><trkpt lat="43.0424665" lon="11.4834761"><ele>612.0</ele><time>2026-04-11T12:38:06.272Z</time></trkpt><trkpt lat="43.0426319" lon="11.4835171"><ele>612.3333333333334</ele><time>2026-04-11T12:38:07.272Z</time></trkpt><trkpt lat="43.042797" lon="11.483562"><ele>612.6666666666667</ele><time>2026-04-11T12:38:08.273Z</time></trkpt><trkpt lat="43.0429612" lon="11.4836094"><ele>613.0</ele><time>2026-04-11T12:38:09.272Z</time></trkpt><trkpt lat="43.0431231" lon="11.4836553"><ele>613.0</ele><time>2026-04-11T12:38:10.273Z</time></trkpt><trkpt lat="43.0432816" lon="11.4836993"><ele>613.0</ele><time>2026-04-11T12:38:11.273Z</time></trkpt><trkpt lat="43.0434401" lon="11.4837585"><ele>613.0</ele><time>2026-04-11T12:38:12.272Z</time></trkpt><trkpt lat="43.0436027" lon="11.4838285"><ele>612.3333333333334</ele><time>2026-04-11T12:38:13.272Z</time></trkpt><trkpt lat="43.0437622" lon="11.4839188"><ele>611.6666666666666</ele><time>2026-04-11T12:38:14.272Z</time></trkpt><trkpt lat="43.0439167" lon="11.4840465"><ele>611.0</ele><time>2026-04-11T12:38:15.273Z</time></trkpt><trkpt lat="43.0440565" lon="11.4841884"><ele>611.0</ele><time>2026-04-11T12:38:16.273Z</time></trkpt><trkpt lat="43.0441929" lon="11.484327"><ele>611.0</ele><time>2026-04-11T12:38:17.272Z</time></trkpt><trkpt lat="43.0443171" lon="11.4844619"><ele>611.0</ele><time>2026-04-11T12:38:18.272Z</time></trkpt><trkpt lat="43.0444379" lon="11.4845946"><ele>611.25</ele><time>2026-04-11T12:38:19.273Z</time></trkpt><trkpt lat="43.044535" lon="11.4847411"><ele>611.5</ele><time>2026-04-11T12:38:20.273Z</time></trkpt><trkpt lat="43.0446048" lon="11.4849171"><ele>611.75</ele><time>2026-04-11T12:38:21.272Z</time></trkpt><trkpt lat="43.0446479" lon="11.485104"><ele>612.0</ele><time>2026-04-11T12:38:22.273Z</time></trkpt><trkpt lat="43.0446844" lon="11.4853099"><ele>612.6666666666666</ele><time>2026-04-11T12:38:23.273Z</time></trkpt><trkpt lat="43.0447288" lon="11.4855167"><ele>613.3333333333333</ele><time>2026-04-11T12:38:24.273Z</time></trkpt><trkpt lat="43.0447793" lon="11.4857114"><ele>614.0</ele><time>2026-04-11T12:38:25.272Z</time></trkpt><trkpt lat="43.0448431" lon="11.4858992"><ele>614.0</ele><time>2026-04-11T12:38:26.273Z</time></trkpt><trkpt lat="43.0448959" lon="11.4860646"><ele>614.0</ele><time>2026-04-11T12:38:27.273Z</time></trkpt><trkpt lat="43.0449436" lon="11.4862268"><ele>614.0</ele><time>2026-04-11T12:38:28.273Z</time></trkpt><trkpt lat="43.0449907" lon="11.4863933"><ele>614.0</ele><time>2026-04-11T12:38:29.272Z</time></trkpt><trkpt lat="43.0450366" lon="11.4865669"><ele>614.25</ele><time>2026-04-11T12:38:30.273Z</time></trkpt><trkpt lat="43.0450849" lon="11.4867383"><ele>614.5</ele><time>2026-04-11T12:38:31.272Z</time></trkpt><trkpt lat="43.0451387" lon="11.4868959"><ele>614.75</ele><time>2026-04-11T12:38:32.273Z</time></trkpt><trkpt lat="43.0452185" lon="11.4870266"><ele>615.0</ele><time>2026-04-11T12:38:33.272Z</time></trkpt><trkpt lat="43.0453312" lon="11.4870899"><ele>614.5</ele><time>2026-04-11T12:38:34.273Z</time></trkpt><trkpt lat="43.0454595" lon="11.487142"><ele>614.0</ele><time>2026-04-11T12:38:35.272Z</time></trkpt><trkpt lat="43.045582" lon="11.487161"><ele>613.5</ele><time>2026-04-11T12:38:36.272Z</time></trkpt><trkpt lat="43.0457082" lon="11.4871443"><ele>613.0</ele><time>2026-04-11T12:38:37.273Z</time></trkpt><trkpt lat="43.0458374" lon="11.4871415"><ele>613.0</ele><time>2026-04-11T12:38:38.273Z</time></trkpt><trkpt lat="43.0459595" lon="11.4871964"><ele>613.0</ele><time>2026-04-11T12:38:39.273Z</time></trkpt><trkpt lat="43.0460562" lon="11.4873221"><ele>613.0</ele><time>2026-04-11T12:38:40.272Z</time></trkpt><trkpt lat="43.0461425" lon="11.4874832"><ele>613.0</ele><time>2026-04-11T12:38:41.274Z</time></trkpt><trkpt lat="43.0462145" lon="11.4876891"><ele>613.0</ele><time>2026-04-11T12:38:42.272Z</time></trkpt><trkpt lat="43.0462672" lon="11.4878831"><ele>613.0</ele><time>2026-04-11T12:38:43.272Z</time></trkpt><trkpt lat="43.046315" lon="11.4880919"><ele>613.0</ele><time>2026-04-11T12:38:44.273Z</time></trkpt><trkpt lat="43.0463415" lon="11.4882971"><ele>610.25</ele><time>2026-04-11T12:38:45.273Z</time></trkpt><trkpt lat="43.0463763" lon="11.4884862"><ele>607.5</ele><time>2026-04-11T12:38:46.273Z</time></trkpt><trkpt lat="43.0464033" lon="11.4886717"><ele>604.75</ele><time>2026-04-11T12:38:47.274Z</time></trkpt><trkpt lat="43.0464425" lon="11.4888499"><ele>602.0</ele><time>2026-04-11T12:38:48.273Z</time></trkpt><trkpt lat="43.046479" lon="11.4890281"><ele>600.0</ele><time>2026-04-11T12:38:49.274Z</time></trkpt><trkpt lat="43.0465318" lon="11.4891884"><ele>598.0</ele><time>2026-04-11T12:38:50.274Z</time></trkpt><trkpt lat="43.0465989" lon="11.4893354"><ele>596.0</ele><time>2026-04-11T12:38:51.274Z</time></trkpt><trkpt lat="43.046695" lon="11.4894638"><ele>594.0</ele><time>2026-04-11T12:38:52.274Z</time></trkpt><trkpt lat="43.0468299" lon="11.4895434"><ele>594.75</ele><time>2026-04-11T12:38:53.273Z</time></trkpt><trkpt lat="43.0469749" lon="11.489593"><ele>595.5</ele><time>2026-04-11T12:38:54.273Z</time></trkpt><trkpt lat="43.0471135" lon="11.4895939"><ele>596.25</ele><time>2026-04-11T12:38:55.273Z</time></trkpt><trkpt lat="43.047239" lon="11.4895966"><ele>597.0</ele><time>2026-04-11T12:38:56.274Z</time></trkpt><trkpt lat="43.0473573" lon="11.4895909"><ele>598.5</ele><time>2026-04-11T12:38:57.274Z</time></trkpt><trkpt lat="43.0474738" lon="11.4896229"><ele>600.0</ele><time>2026-04-11T12:38:58.273Z</time></trkpt><trkpt lat="43.0475913" lon="11.4897159"><ele>601.5</ele><time>2026-04-11T12:38:59.273Z</time></trkpt><trkpt lat="43.0476929" lon="11.4898339"><ele>603.0</ele><time>2026-04-11T12:39:00.274Z</time></trkpt><trkpt lat="43.0477808" lon="11.4899512"><ele>603.0</ele><time>2026-04-11T12:39:01.273Z</time></trkpt><trkpt lat="43.0478537" lon="11.4900484"><ele>603.0</ele><time>2026-04-11T12:39:02.274Z</time></trkpt><trkpt lat="43.0479359" lon="11.4901221"><ele>603.0</ele><time>2026-04-11T12:39:03.274Z</time></trkpt><trkpt lat="43.0480446" lon="11.4901426"><ele>603.0</ele><time>2026-04-11T12:39:04.274Z</time></trkpt><trkpt lat="43.0481542" lon="11.4901299"><ele>603.0</ele><time>2026-04-11T12:39:05.273Z</time></trkpt><trkpt lat="43.048251" lon="11.490093"><ele>603.0</ele><time>2026-04-11T12:39:06.274Z</time></trkpt><trkpt lat="43.0483314" lon="11.4900509"><ele>603.0</ele><time>2026-04-11T12:39:07.274Z</time></trkpt><trkpt lat="43.0484264" lon="11.4900096"><ele>603.0</ele><time>2026-04-11T12:39:08.273Z</time></trkpt><trkpt lat="43.048537" lon="11.489973"><ele>603.0</ele><time>2026-04-11T12:39:09.274Z</time></trkpt><trkpt lat="43.0486493" lon="11.4899465"><ele>603.0</ele><time>2026-04-11T12:39:10.274Z</time></trkpt><trkpt lat="43.0487697" lon="11.489951"><ele>603.0</ele><time>2026-04-11T12:39:11.274Z</time></trkpt><trkpt lat="43.0488851" lon="11.4900143"><ele>603.0</ele><time>2026-04-11T12:39:12.273Z</time></trkpt><trkpt lat="43.0489751" lon="11.490143"><ele>603.0</ele><time>2026-04-11T12:39:13.274Z</time></trkpt><trkpt lat="43.0490352" lon="11.4902943"><ele>603.0</ele><time>2026-04-11T12:39:14.274Z</time></trkpt><trkpt lat="43.0490606" lon="11.490454"><ele>601.0</ele><time>2026-04-11T12:39:15.274Z</time></trkpt><trkpt lat="43.0490765" lon="11.4906394"><ele>599.0</ele><time>2026-04-11T12:39:16.273Z</time></trkpt><trkpt lat="43.049099" lon="11.4908082"><ele>597.0</ele><time>2026-04-11T12:39:17.273Z</time></trkpt><trkpt lat="43.0491336" lon="11.4909533"><ele>595.0</ele><time>2026-04-11T12:39:18.274Z</time></trkpt><trkpt lat="43.0491984" lon="11.4910686"><ele>595.0</ele><time>2026-04-11T12:39:19.273Z</time></trkpt><trkpt lat="43.0492872" lon="11.4911505"><ele>595.0</ele><time>2026-04-11T12:39:20.274Z</time></trkpt><trkpt lat="43.0494033" lon="11.4911867"><ele>595.0</ele><time>2026-04-11T12:39:21.273Z</time></trkpt><trkpt lat="43.0495266" lon="11.4911517"><ele>595.0</ele><time>2026-04-11T12:39:22.274Z</time></trkpt><trkpt lat="43.0496564" lon="11.4910748"><ele>595.0</ele><time>2026-04-11T12:39:23.274Z</time></trkpt><trkpt lat="43.049779" lon="11.4910272"><ele>595.0</ele><time>2026-04-11T12:39:24.273Z</time></trkpt><trkpt lat="43.0498944" lon="11.4910169"><ele>595.0</ele><time>2026-04-11T12:39:25.274Z</time></trkpt><trkpt lat="43.0499887" lon="11.4910357"><ele>595.0</ele><time>2026-04-11T12:39:26.273Z</time></trkpt><trkpt lat="43.0500794" lon="11.4910509"><ele>595.0</ele><time>2026-04-11T12:39:27.274Z</time></trkpt><trkpt lat="43.0501686" lon="11.4910379"><ele>595.4</ele><time>2026-04-11T12:39:28.273Z</time></trkpt><trkpt lat="43.0502444" lon="11.4909812"><ele>595.8</ele><time>2026-04-11T12:39:29.274Z</time></trkpt><trkpt lat="43.0503169" lon="11.4908904"><ele>596.2</ele><time>2026-04-11T12:39:30.273Z</time></trkpt><trkpt lat="43.0503783" lon="11.4907668"><ele>596.6</ele><time>2026-04-11T12:39:31.274Z</time></trkpt><trkpt lat="43.0504316" lon="11.4906123"><ele>597.0</ele><time>2026-04-11T12:39:32.273Z</time></trkpt><trkpt lat="43.0504991" lon="11.4904434"><ele>595.0</ele><time>2026-04-11T12:39:33.274Z</time></trkpt><trkpt lat="43.0505742" lon="11.4902757"><ele>593.0</ele><time>2026-04-11T12:39:34.274Z</time></trkpt><trkpt lat="43.0506535" lon="11.4901019"><ele>591.0</ele><time>2026-04-11T12:39:35.274Z</time></trkpt><trkpt lat="43.0507285" lon="11.4899232"><ele>589.0</ele><time>2026-04-11T12:39:36.273Z</time></trkpt><trkpt lat="43.0507976" lon="11.4897605"><ele>589.0</ele><time>2026-04-11T12:39:37.273Z</time></trkpt><trkpt lat="43.0508621" lon="11.4896208"><ele>589.0</ele><time>2026-04-11T12:39:38.273Z</time></trkpt><trkpt lat="43.0509349" lon="11.4895203"><ele>589.0</ele><time>2026-04-11T12:39:39.273Z</time></trkpt><trkpt lat="43.0510347" lon="11.4894495"><ele>589.0</ele><time>2026-04-11T12:39:40.274Z</time></trkpt><trkpt lat="43.0511572" lon="11.489445"><ele>589.0</ele><time>2026-04-11T12:39:41.273Z</time></trkpt><trkpt lat="43.0512979" lon="11.4895373"><ele>589.0</ele><time>2026-04-11T12:39:42.274Z</time></trkpt><trkpt lat="43.0513901" lon="11.4896737"><ele>589.0</ele><time>2026-04-11T12:39:43.274Z</time></trkpt><trkpt lat="43.0514663" lon="11.4898561"><ele>589.0</ele><time>2026-04-11T12:39:44.273Z</time></trkpt><trkpt lat="43.0515302" lon="11.490051"><ele>589.0</ele><time>2026-04-11T12:39:45.274Z</time></trkpt><trkpt lat="43.0515947" lon="11.4902558"><ele>589.0</ele><time>2026-04-11T12:39:46.274Z</time></trkpt><trkpt lat="43.0516608" lon="11.4904518"><ele>589.0</ele><time>2026-04-11T12:39:47.273Z</time></trkpt><trkpt lat="43.0517402" lon="11.4906119"><ele>585.0</ele><time>2026-04-11T12:39:48.274Z</time></trkpt><trkpt lat="43.0518366" lon="11.4907489"><ele>581.0</ele><time>2026-04-11T12:39:49.273Z</time></trkpt><trkpt lat="43.0519416" lon="11.490873"><ele>577.0</ele><time>2026-04-11T12:39:50.274Z</time></trkpt><trkpt lat="43.0520552" lon="11.490975"><ele>573.0</ele><time>2026-04-11T12:39:51.275Z</time></trkpt><trkpt lat="43.0521712" lon="11.4910561"><ele>573.0</ele><time>2026-04-11T12:39:52.275Z</time></trkpt><trkpt lat="43.0522987" lon="11.4910925"><ele>573.0</ele><time>2026-04-11T12:39:53.275Z</time></trkpt><trkpt lat="43.0524392" lon="11.4910732"><ele>573.0</ele><time>2026-04-11T12:39:54.274Z</time></trkpt><trkpt lat="43.0525768" lon="11.4910037"><ele>573.0</ele><time>2026-04-11T12:39:55.274Z</time></trkpt><trkpt lat="43.052718" lon="11.4909017"><ele>574.0</ele><time>2026-04-11T12:39:56.275Z</time></trkpt><trkpt lat="43.0528513" lon="11.4907975"><ele>575.0</ele><time>2026-04-11T12:39:57.275Z</time></trkpt><trkpt lat="43.0529693" lon="11.4907038"><ele>576.0</ele><time>2026-04-11T12:39:58.274Z</time></trkpt><trkpt lat="43.0530714" lon="11.4906173"><ele>577.0</ele><time>2026-04-11T12:39:59.274Z</time></trkpt><trkpt lat="43.0531532" lon="11.4905011"><ele>574.0</ele><time>2026-04-11T12:40:00.274Z</time></trkpt><trkpt lat="43.0532098" lon="11.4903662"><ele>571.0</ele><time>2026-04-11T12:40:01.275Z</time></trkpt><trkpt lat="43.0532533" lon="11.4902168"><ele>568.0</ele><time>2026-04-11T12:40:02.274Z</time></trkpt><trkpt lat="43.0532838" lon="11.490056"><ele>565.0</ele><time>2026-04-11T12:40:03.275Z</time></trkpt><trkpt lat="43.0533028" lon="11.4899047"><ele>565.0</ele><time>2026-04-11T12:40:04.275Z</time></trkpt><trkpt lat="43.053317" lon="11.4897599"><ele>565.0</ele><time>2026-04-11T12:40:05.274Z</time></trkpt><trkpt lat="43.0533348" lon="11.4896189"><ele>565.0</ele><time>2026-04-11T12:40:06.275Z</time></trkpt><trkpt lat="43.0533563" lon="11.4894738"><ele>565.0</ele><time>2026-04-11T12:40:07.275Z</time></trkpt><trkpt lat="43.0533813" lon="11.4893216"><ele>565.0</ele><time>2026-04-11T12:40:08.275Z</time></trkpt><trkpt lat="43.0534131" lon="11.48917"><ele>566.0</ele><time>2026-04-11T12:40:09.275Z</time></trkpt><trkpt lat="43.0534644" lon="11.4890264"><ele>567.0</ele><time>2026-04-11T12:40:10.274Z</time></trkpt><trkpt lat="43.0535447" lon="11.4889051"><ele>568.0</ele><time>2026-04-11T12:40:11.274Z</time></trkpt><trkpt lat="43.0536709" lon="11.488836"><ele>569.0</ele><time>2026-04-11T12:40:12.275Z</time></trkpt><trkpt lat="43.0538068" lon="11.4887977"><ele>569.0</ele><time>2026-04-11T12:40:13.274Z</time></trkpt><trkpt lat="43.0539339" lon="11.4887932"><ele>569.0</ele><time>2026-04-11T12:40:14.275Z</time></trkpt><trkpt lat="43.0540464" lon="11.4887761"><ele>569.0</ele><time>2026-04-11T12:40:15.275Z</time></trkpt><trkpt lat="43.0541422" lon="11.4887482"><ele>569.0</ele><time>2026-04-11T12:40:16.275Z</time></trkpt><trkpt lat="43.0542316" lon="11.4887173"><ele>569.0</ele><time>2026-04-11T12:40:17.274Z</time></trkpt><trkpt lat="43.0543224" lon="11.4886924"><ele>568.2</ele><time>2026-04-11T12:40:18.275Z</time></trkpt><trkpt lat="43.0544126" lon="11.4886765"><ele>567.4</ele><time>2026-04-11T12:40:19.275Z</time></trkpt><trkpt lat="43.0545036" lon="11.4886759"><ele>566.6</ele><time>2026-04-11T12:40:20.275Z</time></trkpt><trkpt lat="43.0546065" lon="11.4886966"><ele>565.8</ele><time>2026-04-11T12:40:21.274Z</time></trkpt><trkpt lat="43.0547105" lon="11.4887424"><ele>565.0</ele><time>2026-04-11T12:40:22.275Z</time></trkpt><trkpt lat="43.0548038" lon="11.4887983"><ele>563.3333333333334</ele><time>2026-04-11T12:40:23.275Z</time></trkpt><trkpt lat="43.0548715" lon="11.4888548"><ele>561.6666666666667</ele><time>2026-04-11T12:40:24.274Z</time></trkpt><trkpt lat="43.05494" lon="11.4889423"><ele>560.0</ele><time>2026-04-11T12:40:26.275Z</time></trkpt><trkpt lat="43.0549848" lon="11.4890063"><ele>558.3333333333334</ele><time>2026-04-11T12:40:29.275Z</time></trkpt><trkpt lat="43.0550469" lon="11.4890716"><ele>556.6666666666666</ele><time>2026-04-11T12:41:14.275Z</time></trkpt><trkpt lat="43.0551509" lon="11.4891431"><ele>555.0</ele><time>2026-04-11T12:41:16.276Z</time></trkpt><trkpt lat="43.0552185" lon="11.4891457"><ele>554.6666666666666</ele><time>2026-04-11T12:41:17.275Z</time></trkpt><trkpt lat="43.0552958" lon="11.4891138"><ele>554.3333333333334</ele><time>2026-04-11T12:41:18.276Z</time></trkpt><trkpt lat="43.0553756" lon="11.4890665"><ele>554.0</ele><time>2026-04-11T12:41:19.276Z</time></trkpt><trkpt lat="43.0554569" lon="11.4890265"><ele>553.6666666666667</ele><time>2026-04-11T12:41:20.276Z</time></trkpt><trkpt lat="43.0555388" lon="11.4889917"><ele>553.3333333333334</ele><time>2026-04-11T12:41:21.275Z</time></trkpt><trkpt lat="43.0556195" lon="11.488959"><ele>553.0</ele><time>2026-04-11T12:41:22.275Z</time></trkpt><trkpt lat="43.0556958" lon="11.4889387"><ele>553.0</ele><time>2026-04-11T12:41:23.276Z</time></trkpt><trkpt lat="43.0557847" lon="11.4889327"><ele>553.0</ele><time>2026-04-11T12:41:24.276Z</time></trkpt><trkpt lat="43.0558642" lon="11.4889492"><ele>553.0</ele><time>2026-04-11T12:41:25.276Z</time></trkpt><trkpt lat="43.0559357" lon="11.4889889"><ele>553.0</ele><time>2026-04-11T12:41:26.276Z</time></trkpt><trkpt lat="43.0560068" lon="11.4890329"><ele>553.0</ele><time>2026-04-11T12:41:27.275Z</time></trkpt><trkpt lat="43.0560805" lon="11.4890644"><ele>553.0</ele><time>2026-04-11T12:41:28.276Z</time></trkpt><trkpt lat="43.0561641" lon="11.4890622"><ele>552.5</ele><time>2026-04-11T12:41:29.276Z</time></trkpt><trkpt lat="43.0562518" lon="11.4890275"><ele>552.0</ele><time>2026-04-11T12:41:30.276Z</time></trkpt><trkpt lat="43.0563434" lon="11.4889827"><ele>551.5</ele><time>2026-04-11T12:41:31.276Z</time></trkpt><trkpt lat="43.056429" lon="11.4889394"><ele>551.0</ele><time>2026-04-11T12:41:32.275Z</time></trkpt><trkpt lat="43.0565112" lon="11.4889028"><ele>550.5</ele><time>2026-04-11T12:41:33.275Z</time></trkpt><trkpt lat="43.0565852" lon="11.4888759"><ele>550.0</ele><time>2026-04-11T12:41:34.275Z</time></trkpt><trkpt lat="43.0566509" lon="11.4888509"><ele>550.0</ele><time>2026-04-11T12:41:35.276Z</time></trkpt><trkpt lat="43.0567484" lon="11.488805"><ele>550.0</ele><time>2026-04-11T12:41:37.276Z</time></trkpt><trkpt lat="43.0568271" lon="11.4887635"><ele>550.0</ele><time>2026-04-11T12:41:40.275Z</time></trkpt><trkpt lat="43.0568961" lon="11.4888064"><ele>550.0</ele><time>2026-04-11T12:41:42.275Z</time></trkpt><trkpt lat="43.056975" lon="11.4889229"><ele>550.0</ele><time>2026-04-11T12:41:44.275Z</time></trkpt><trkpt lat="43.0570314" lon="11.4890412"><ele>550.0</ele><time>2026-04-11T12:41:46.275Z</time></trkpt><trkpt lat="43.0570593" lon="11.4891283"><ele>550.0</ele><time>2026-04-11T12:41:49.276Z</time></trkpt><trkpt lat="43.0570183" lon="11.4892172"><ele>550.0</ele><time>2026-04-11T12:41:51.275Z</time></trkpt><trkpt lat="43.0569497" lon="11.4892425"><ele>550.0</ele><time>2026-04-11T12:41:54.275Z</time></trkpt></trkseg><trkseg><trkpt lat="43.056888" lon="11.489362"><ele>550.0</ele><time>2026-04-11T13:28:05.546Z</time></trkpt><trkpt lat="43.0568407" lon="11.4892885"><ele>550.0</ele><time>2026-04-11T13:28:08.613Z</time></trkpt><trkpt lat="43.056915" lon="11.4892084"><ele>550.0</ele><time>2026-04-11T13:29:02.328Z</time></trkpt><trkpt lat="43.0569815" lon="11.4892259"><ele>550.0</ele><time>2026-04-11T13:29:05.328Z</time></trkpt><trkpt lat="43.0570354" lon="11.4891483"><ele>550.0</ele><time>2026-04-11T13:29:07.328Z</time></trkpt><trkpt lat="43.0570421" lon="11.4890591"><ele>550.0</ele><time>2026-04-11T13:29:09.327Z</time></trkpt><trkpt lat="43.057003" lon="11.488973"><ele>550.0</ele><time>2026-04-11T13:29:11.327Z</time></trkpt><trkpt lat="43.056936" lon="11.4888831"><ele>550.0</ele><time>2026-04-11T13:29:13.327Z</time></trkpt><trkpt lat="43.0569017" lon="11.4887996"><ele>550.0</ele><time>2026-04-11T13:29:14.328Z</time></trkpt><trkpt lat="43.0568496" lon="11.488696"><ele>550.0</ele><time>2026-04-11T13:29:16.328Z</time></trkpt><trkpt lat="43.0567816" lon="11.4886762"><ele>550.0</ele><time>2026-04-11T13:29:18.328Z</time></trkpt><trkpt lat="43.0566831" lon="11.4887481"><ele>550.0</ele><time>2026-04-11T13:29:20.327Z</time></trkpt><trkpt lat="43.0565999" lon="11.4888072"><ele>549.8</ele><time>2026-04-11T13:29:22.328Z</time></trkpt><trkpt lat="43.0565096" lon="11.4888558"><ele>549.6</ele><time>2026-04-11T13:29:24.327Z</time></trkpt><trkpt lat="43.056384" lon="11.4889212"><ele>549.4</ele><time>2026-04-11T13:29:26.328Z</time></trkpt><trkpt lat="43.056299" lon="11.4889613"><ele>549.2</ele><time>2026-04-11T13:29:27.328Z</time></trkpt><trkpt lat="43.0562014" lon="11.4890013"><ele>549.0</ele><time>2026-04-11T13:29:28.328Z</time></trkpt><trkpt lat="43.0561071" lon="11.4890337"><ele>549.0</ele><time>2026-04-11T13:29:29.327Z</time></trkpt><trkpt lat="43.0560136" lon="11.48906"><ele>549.0</ele><time>2026-04-11T13:29:30.327Z</time></trkpt><trkpt lat="43.0559224" lon="11.4890399"><ele>549.0</ele><time>2026-04-11T13:29:31.328Z</time></trkpt><trkpt lat="43.055828" lon="11.4889949"><ele>549.0</ele><time>2026-04-11T13:29:32.327Z</time></trkpt><trkpt lat="43.0557288" lon="11.4889331"><ele>549.0</ele><time>2026-04-11T13:29:33.328Z</time></trkpt><trkpt lat="43.0556329" lon="11.4889032"><ele>549.5714285714286</ele><time>2026-04-11T13:29:34.328Z</time></trkpt><trkpt lat="43.055554" lon="11.4889121"><ele>550.1428571428571</ele><time>2026-04-11T13:29:35.328Z</time></trkpt><trkpt lat="43.0554793" lon="11.4889382"><ele>550.7142857142858</ele><time>2026-04-11T13:29:36.327Z</time></trkpt><trkpt lat="43.055412" lon="11.4889658"><ele>551.2857142857142</ele><time>2026-04-11T13:29:37.328Z</time></trkpt><trkpt lat="43.0553232" lon="11.4890007"><ele>551.8571428571429</ele><time>2026-04-11T13:29:39.329Z</time></trkpt><trkpt lat="43.0552608" lon="11.4890193"><ele>552.4285714285714</ele><time>2026-04-11T13:29:41.329Z</time></trkpt><trkpt lat="43.0551974" lon="11.4890118"><ele>553.0</ele><time>2026-04-11T13:29:46.329Z</time></trkpt><trkpt lat="43.0550782" lon="11.4890271"><ele>553.0</ele><time>2026-04-11T13:29:48.328Z</time></trkpt><trkpt lat="43.0550377" lon="11.4891204"><ele>553.0</ele><time>2026-04-11T13:29:50.329Z</time></trkpt><trkpt lat="43.055032" lon="11.4892107"><ele>553.0</ele><time>2026-04-11T13:29:53.329Z</time></trkpt><trkpt lat="43.0549572" lon="11.489239"><ele>553.0</ele><time>2026-04-11T13:29:56.329Z</time></trkpt><trkpt lat="43.0548235" lon="11.489233"><ele>553.0</ele><time>2026-04-11T13:29:58.328Z</time></trkpt><trkpt lat="43.0547388" lon="11.4892397"><ele>553.0</ele><time>2026-04-11T13:29:59.329Z</time></trkpt><trkpt lat="43.0546376" lon="11.4892495"><ele>553.4</ele><time>2026-04-11T13:30:00.328Z</time></trkpt><trkpt lat="43.0545373" lon="11.4892612"><ele>553.8</ele><time>2026-04-11T13:30:01.329Z</time></trkpt><trkpt lat="43.0544392" lon="11.4892761"><ele>554.2</ele><time>2026-04-11T13:30:02.328Z</time></trkpt><trkpt lat="43.0543448" lon="11.4892913"><ele>554.6</ele><time>2026-04-11T13:30:03.328Z</time></trkpt><trkpt lat="43.0542565" lon="11.4893122"><ele>555.0</ele><time>2026-04-11T13:30:04.328Z</time></trkpt><trkpt lat="43.0541864" lon="11.4893641"><ele>555.0</ele><time>2026-04-11T13:30:05.328Z</time></trkpt><trkpt lat="43.0541233" lon="11.4894406"><ele>555.0</ele><time>2026-04-11T13:30:06.329Z</time></trkpt><trkpt lat="43.0540988" lon="11.489564"><ele>555.0</ele><time>2026-04-11T13:30:07.329Z</time></trkpt><trkpt lat="43.0540924" lon="11.4897171"><ele>555.0</ele><time>2026-04-11T13:30:08.328Z</time></trkpt><trkpt lat="43.0540992" lon="11.489853"><ele>555.0</ele><time>2026-04-11T13:30:09.328Z</time></trkpt><trkpt lat="43.0541462" lon="11.4899826"><ele>552.75</ele><time>2026-04-11T13:30:10.329Z</time></trkpt><trkpt lat="43.0542157" lon="11.490091"><ele>550.5</ele><time>2026-04-11T13:30:11.329Z</time></trkpt><trkpt lat="43.0543053" lon="11.4901827"><ele>548.25</ele><time>2026-04-11T13:30:12.328Z</time></trkpt><trkpt lat="43.0544274" lon="11.4902679"><ele>546.0</ele><time>2026-04-11T13:30:13.328Z</time></trkpt><trkpt lat="43.0545807" lon="11.4903892"><ele>543.3333333333334</ele><time>2026-04-11T13:30:14.328Z</time></trkpt><trkpt lat="43.0547311" lon="11.4905505"><ele>540.6666666666667</ele><time>2026-04-11T13:30:15.328Z</time></trkpt><trkpt lat="43.0548447" lon="11.4907258"><ele>538.0</ele><time>2026-04-11T13:30:16.328Z</time></trkpt><trkpt lat="43.0549393" lon="11.4908825"><ele>537.75</ele><time>2026-04-11T13:30:17.329Z</time></trkpt><trkpt lat="43.0550276" lon="11.4910264"><ele>537.5</ele><time>2026-04-11T13:30:18.329Z</time></trkpt><trkpt lat="43.0551041" lon="11.4911644"><ele>537.25</ele><time>2026-04-11T13:30:19.328Z</time></trkpt><trkpt lat="43.0551646" lon="11.4912972"><ele>537.0</ele><time>2026-04-11T13:30:20.328Z</time></trkpt><trkpt lat="43.0552067" lon="11.4914167"><ele>533.6666666666666</ele><time>2026-04-11T13:30:21.329Z</time></trkpt><trkpt lat="43.0552483" lon="11.49153"><ele>530.3333333333334</ele><time>2026-04-11T13:30:22.329Z</time></trkpt><trkpt lat="43.0552879" lon="11.4916206"><ele>527.0</ele><time>2026-04-11T13:30:23.329Z</time></trkpt><trkpt lat="43.0553337" lon="11.4916962"><ele>523.6666666666667</ele><time>2026-04-11T13:30:24.329Z</time></trkpt><trkpt lat="43.0554051" lon="11.4917859"><ele>520.3333333333334</ele><time>2026-04-11T13:30:26.328Z</time></trkpt><trkpt lat="43.0554778" lon="11.4918779"><ele>517.0</ele><time>2026-04-11T13:30:29.328Z</time></trkpt><trkpt lat="43.0554174" lon="11.4919881"><ele>517.0</ele><time>2026-04-11T13:30:32.329Z</time></trkpt><trkpt lat="43.0553455" lon="11.4919008"><ele>517.0</ele><time>2026-04-11T13:30:34.328Z</time></trkpt><trkpt lat="43.0553033" lon="11.491811"><ele>517.0</ele><time>2026-04-11T13:30:35.329Z</time></trkpt><trkpt lat="43.0552419" lon="11.4916999"><ele>517.0</ele><time>2026-04-11T13:30:36.329Z</time></trkpt><trkpt lat="43.0551739" lon="11.4916008"><ele>517.0</ele><time>2026-04-11T13:30:37.329Z</time></trkpt><trkpt lat="43.0551038" lon="11.4915068"><ele>517.0</ele><time>2026-04-11T13:30:38.328Z</time></trkpt><trkpt lat="43.0550355" lon="11.4914113"><ele>517.0</ele><time>2026-04-11T13:30:39.328Z</time></trkpt><trkpt lat="43.0549657" lon="11.4913057"><ele>517.0</ele><time>2026-04-11T13:30:40.329Z</time></trkpt><trkpt lat="43.0548969" lon="11.4911955"><ele>517.0</ele><time>2026-04-11T13:30:41.328Z</time></trkpt><trkpt lat="43.054834" lon="11.4910936"><ele>517.0</ele><time>2026-04-11T13:30:42.33Z</time></trkpt><trkpt lat="43.0547713" lon="11.4909978"><ele>520.5</ele><time>2026-04-11T13:30:43.33Z</time></trkpt><trkpt lat="43.0547211" lon="11.4909358"><ele>524.0</ele><time>2026-04-11T13:30:44.329Z</time></trkpt><trkpt lat="43.0546623" lon="11.49089"><ele>527.5</ele><time>2026-04-11T13:30:45.329Z</time></trkpt><trkpt lat="43.0545967" lon="11.4908705"><ele>531.0</ele><time>2026-04-11T13:30:46.329Z</time></trkpt><trkpt lat="43.0545241" lon="11.4908857"><ele>534.5</ele><time>2026-04-11T13:30:47.329Z</time></trkpt><trkpt lat="43.0544481" lon="11.4909364"><ele>538.0</ele><time>2026-04-11T13:30:48.329Z</time></trkpt><trkpt lat="43.0543564" lon="11.491139"><ele>538.0</ele><time>2026-04-11T13:30:50.329Z</time></trkpt><trkpt lat="43.0543538" lon="11.4912572"><ele>538.0</ele><time>2026-04-11T13:30:51.33Z</time></trkpt><trkpt lat="43.0543607" lon="11.491368"><ele>538.0</ele><time>2026-04-11T13:30:52.33Z</time></trkpt><trkpt lat="43.0543738" lon="11.4914753"><ele>538.0</ele><time>2026-04-11T13:30:53.329Z</time></trkpt><trkpt lat="43.0543818" lon="11.4915784"><ele>538.0</ele><time>2026-04-11T13:30:54.329Z</time></trkpt><trkpt lat="43.054393" lon="11.491679"><ele>538.0</ele><time>2026-04-11T13:30:55.329Z</time></trkpt><trkpt lat="43.0544039" lon="11.4917796"><ele>537.6666666666667</ele><time>2026-04-11T13:30:56.33Z</time></trkpt><trkpt lat="43.0544169" lon="11.4918937"><ele>537.3333333333334</ele><time>2026-04-11T13:30:57.33Z</time></trkpt><trkpt lat="43.0544303" lon="11.4920152"><ele>537.0</ele><time>2026-04-11T13:30:58.33Z</time></trkpt><trkpt lat="43.0544424" lon="11.4921392"><ele>536.6666666666666</ele><time>2026-04-11T13:30:59.33Z</time></trkpt><trkpt lat="43.0544537" lon="11.4922603"><ele>536.3333333333333</ele><time>2026-04-11T13:31:00.33Z</time></trkpt><trkpt lat="43.0544625" lon="11.4923856"><ele>536.0</ele><time>2026-04-11T13:31:01.329Z</time></trkpt><trkpt lat="43.054466" lon="11.4925131"><ele>533.6</ele><time>2026-04-11T13:31:02.33Z</time></trkpt><trkpt lat="43.0544622" lon="11.4926474"><ele>531.2</ele><time>2026-04-11T13:31:03.329Z</time></trkpt><trkpt lat="43.0544432" lon="11.4927972"><ele>528.8</ele><time>2026-04-11T13:31:04.33Z</time></trkpt><trkpt lat="43.054412" lon="11.4929593"><ele>526.4</ele><time>2026-04-11T13:31:05.33Z</time></trkpt><trkpt lat="43.0543753" lon="11.4930984"><ele>524.0</ele><time>2026-04-11T13:31:06.33Z</time></trkpt><trkpt lat="43.0543279" lon="11.4932128"><ele>522.0</ele><time>2026-04-11T13:31:07.33Z</time></trkpt><trkpt lat="43.0542732" lon="11.4933098"><ele>520.0</ele><time>2026-04-11T13:31:08.329Z</time></trkpt><trkpt lat="43.0542132" lon="11.4933966"><ele>518.0</ele><time>2026-04-11T13:31:09.329Z</time></trkpt><trkpt lat="43.0541383" lon="11.4934889"><ele>516.0</ele><time>2026-04-11T13:31:10.329Z</time></trkpt><trkpt lat="43.0540409" lon="11.4935715"><ele>514.0</ele><time>2026-04-11T13:31:11.33Z</time></trkpt><trkpt lat="43.0539317" lon="11.4936495"><ele>514.0</ele><time>2026-04-11T13:31:12.33Z</time></trkpt><trkpt lat="43.0538104" lon="11.4937404"><ele>514.0</ele><time>2026-04-11T13:31:13.33Z</time></trkpt><trkpt lat="43.0537001" lon="11.4938411"><ele>514.0</ele><time>2026-04-11T13:31:14.33Z</time></trkpt><trkpt lat="43.0536047" lon="11.4939599"><ele>514.0</ele><time>2026-04-11T13:31:15.329Z</time></trkpt><trkpt lat="43.0535417" lon="11.4941028"><ele>512.5</ele><time>2026-04-11T13:31:16.33Z</time></trkpt><trkpt lat="43.0534978" lon="11.4942611"><ele>511.0</ele><time>2026-04-11T13:31:17.329Z</time></trkpt><trkpt lat="43.0534676" lon="11.494424"><ele>509.5</ele><time>2026-04-11T13:31:18.329Z</time></trkpt><trkpt lat="43.0534564" lon="11.4946015"><ele>508.0</ele><time>2026-04-11T13:31:19.329Z</time></trkpt><trkpt lat="43.0534676" lon="11.4947768"><ele>507.25</ele><time>2026-04-11T13:31:20.33Z</time></trkpt><trkpt lat="43.0534849" lon="11.4949376"><ele>506.5</ele><time>2026-04-11T13:31:21.33Z</time></trkpt><trkpt lat="43.0534988" lon="11.4950903"><ele>505.75</ele><time>2026-04-11T13:31:22.33Z</time></trkpt><trkpt lat="43.0535146" lon="11.4952466"><ele>505.0</ele><time>2026-04-11T13:31:23.33Z</time></trkpt><trkpt lat="43.0535296" lon="11.495396"><ele>504.75</ele><time>2026-04-11T13:31:24.33Z</time></trkpt><trkpt lat="43.0535423" lon="11.4955526"><ele>504.5</ele><time>2026-04-11T13:31:25.329Z</time></trkpt><trkpt lat="43.0535492" lon="11.4957131"><ele>504.25</ele><time>2026-04-11T13:31:26.329Z</time></trkpt><trkpt lat="43.0535521" lon="11.4958839"><ele>504.0</ele><time>2026-04-11T13:31:27.329Z</time></trkpt><trkpt lat="43.05355" lon="11.496065"><ele>504.0</ele><time>2026-04-11T13:31:28.329Z</time></trkpt><trkpt lat="43.0535383" lon="11.4962516"><ele>504.0</ele><time>2026-04-11T13:31:29.33Z</time></trkpt><trkpt lat="43.0535177" lon="11.4964267"><ele>504.0</ele><time>2026-04-11T13:31:30.329Z</time></trkpt><trkpt lat="43.0534966" lon="11.496578"><ele>504.0</ele><time>2026-04-11T13:31:31.329Z</time></trkpt><trkpt lat="43.0534755" lon="11.4967115"><ele>503.0</ele><time>2026-04-11T13:31:32.33Z</time></trkpt><trkpt lat="43.0534537" lon="11.4968463"><ele>502.0</ele><time>2026-04-11T13:31:33.33Z</time></trkpt><trkpt lat="43.0534295" lon="11.4969837"><ele>501.0</ele><time>2026-04-11T13:31:34.329Z</time></trkpt><trkpt lat="43.0534072" lon="11.4971191"><ele>500.0</ele><time>2026-04-11T13:31:35.33Z</time></trkpt><trkpt lat="43.0533787" lon="11.4972559"><ele>499.0</ele><time>2026-04-11T13:31:36.329Z</time></trkpt><trkpt lat="43.053342" lon="11.4973942"><ele>499.2</ele><time>2026-04-11T13:31:37.33Z</time></trkpt><trkpt lat="43.0533008" lon="11.4975363"><ele>499.4</ele><time>2026-04-11T13:31:38.329Z</time></trkpt><trkpt lat="43.0532504" lon="11.4976727"><ele>499.6</ele><time>2026-04-11T13:31:39.329Z</time></trkpt><trkpt lat="43.0531941" lon="11.4977987"><ele>499.8</ele><time>2026-04-11T13:31:40.329Z</time></trkpt><trkpt lat="43.0531396" lon="11.4979149"><ele>500.0</ele><time>2026-04-11T13:31:41.33Z</time></trkpt><trkpt lat="43.0530839" lon="11.498036"><ele>500.0</ele><time>2026-04-11T13:31:42.33Z</time></trkpt><trkpt lat="43.0530166" lon="11.4981617"><ele>500.0</ele><time>2026-04-11T13:31:43.329Z</time></trkpt><trkpt lat="43.0529558" lon="11.4982836"><ele>500.0</ele><time>2026-04-11T13:31:44.329Z</time></trkpt><trkpt lat="43.0528926" lon="11.4984122"><ele>500.0</ele><time>2026-04-11T13:31:45.33Z</time></trkpt><trkpt lat="43.0528271" lon="11.4985481"><ele>500.0</ele><time>2026-04-11T13:31:46.33Z</time></trkpt><trkpt lat="43.052762" lon="11.4986941"><ele>500.0</ele><time>2026-04-11T13:31:47.331Z</time></trkpt><trkpt lat="43.0526981" lon="11.4988399"><ele>500.0</ele><time>2026-04-11T13:31:48.33Z</time></trkpt><trkpt lat="43.0526366" lon="11.498989"><ele>500.0</ele><time>2026-04-11T13:31:49.331Z</time></trkpt><trkpt lat="43.052576" lon="11.4991366"><ele>498.6</ele><time>2026-04-11T13:31:50.331Z</time></trkpt><trkpt lat="43.0525194" lon="11.4992788"><ele>497.2</ele><time>2026-04-11T13:31:51.331Z</time></trkpt><trkpt lat="43.0524675" lon="11.4994163"><ele>495.79999999999995</ele><time>2026-04-11T13:31:52.33Z</time></trkpt><trkpt lat="43.0524131" lon="11.4995463"><ele>494.4</ele><time>2026-04-11T13:31:53.331Z</time></trkpt><trkpt lat="43.0523589" lon="11.4996719"><ele>493.0</ele><time>2026-04-11T13:31:54.331Z</time></trkpt><trkpt lat="43.0523031" lon="11.4998008"><ele>490.2</ele><time>2026-04-11T13:31:55.33Z</time></trkpt><trkpt lat="43.0522479" lon="11.4999283"><ele>487.4</ele><time>2026-04-11T13:31:56.331Z</time></trkpt><trkpt lat="43.0521923" lon="11.5000594"><ele>484.59999999999997</ele><time>2026-04-11T13:31:57.331Z</time></trkpt><trkpt lat="43.0521423" lon="11.5001799"><ele>481.79999999999995</ele><time>2026-04-11T13:31:58.331Z</time></trkpt><trkpt lat="43.0520963" lon="11.5002918"><ele>479.0</ele><time>2026-04-11T13:31:59.331Z</time></trkpt><trkpt lat="43.0520543" lon="11.5003998"><ele>478.0</ele><time>2026-04-11T13:32:00.331Z</time></trkpt><trkpt lat="43.0520135" lon="11.5005205"><ele>477.0</ele><time>2026-04-11T13:32:01.331Z</time></trkpt><trkpt lat="43.0519718" lon="11.5006617"><ele>476.0</ele><time>2026-04-11T13:32:02.33Z</time></trkpt><trkpt lat="43.0519367" lon="11.5008192"><ele>475.0</ele><time>2026-04-11T13:32:03.33Z</time></trkpt><trkpt lat="43.0519115" lon="11.5009744"><ele>474.0</ele><time>2026-04-11T13:32:04.331Z</time></trkpt><trkpt lat="43.0519052" lon="11.5011168"><ele>474.0</ele><time>2026-04-11T13:32:05.331Z</time></trkpt><trkpt lat="43.0519075" lon="11.5012477"><ele>474.0</ele><time>2026-04-11T13:32:06.331Z</time></trkpt><trkpt lat="43.0519146" lon="11.5013864"><ele>474.0</ele><time>2026-04-11T13:32:07.33Z</time></trkpt><trkpt lat="43.0519258" lon="11.501529"><ele>474.0</ele><time>2026-04-11T13:32:08.33Z</time></trkpt><trkpt lat="43.0519379" lon="11.5016739"><ele>474.0</ele><time>2026-04-11T13:32:09.331Z</time></trkpt><trkpt lat="43.0519457" lon="11.501822"><ele>473.0</ele><time>2026-04-11T13:32:10.331Z</time></trkpt><trkpt lat="43.0519466" lon="11.5019669"><ele>472.0</ele><time>2026-04-11T13:32:11.33Z</time></trkpt><trkpt lat="43.0519405" lon="11.5021081"><ele>471.0</ele><time>2026-04-11T13:32:12.33Z</time></trkpt><trkpt lat="43.0519242" lon="11.5022371"><ele>470.0</ele><time>2026-04-11T13:32:13.33Z</time></trkpt><trkpt lat="43.0518962" lon="11.5023483"><ele>469.0</ele><time>2026-04-11T13:32:14.33Z</time></trkpt><trkpt lat="43.0518614" lon="11.5024483"><ele>468.50000000000006</ele><time>2026-04-11T13:32:15.33Z</time></trkpt><trkpt lat="43.0518265" lon="11.5025435"><ele>468.0</ele><time>2026-04-11T13:32:16.331Z</time></trkpt><trkpt lat="43.0517967" lon="11.5026341"><ele>467.5</ele><time>2026-04-11T13:32:17.331Z</time></trkpt><trkpt lat="43.0517709" lon="11.50274"><ele>467.0</ele><time>2026-04-11T13:32:18.33Z</time></trkpt><trkpt lat="43.0517472" lon="11.5028492"><ele>466.50000000000006</ele><time>2026-04-11T13:32:19.33Z</time></trkpt><trkpt lat="43.0517302" lon="11.5029668"><ele>466.0</ele><time>2026-04-11T13:32:20.33Z</time></trkpt><trkpt lat="43.0517212" lon="11.5031002"><ele>465.6</ele><time>2026-04-11T13:32:21.33Z</time></trkpt><trkpt lat="43.0517319" lon="11.503243"><ele>465.20000000000005</ele><time>2026-04-11T13:32:22.33Z</time></trkpt><trkpt lat="43.0517571" lon="11.5033695"><ele>464.79999999999995</ele><time>2026-04-11T13:32:23.33Z</time></trkpt><trkpt lat="43.0517989" lon="11.5034822"><ele>464.4</ele><time>2026-04-11T13:32:24.331Z</time></trkpt><trkpt lat="43.0518472" lon="11.5035825"><ele>464.0</ele><time>2026-04-11T13:32:25.33Z</time></trkpt><trkpt lat="43.0519478" lon="11.5037748"><ele>462.66666666666663</ele><time>2026-04-11T13:32:27.331Z</time></trkpt><trkpt lat="43.052004" lon="11.5038842"><ele>461.3333333333333</ele><time>2026-04-11T13:32:28.331Z</time></trkpt><trkpt lat="43.0520544" lon="11.5039784"><ele>460.0</ele><time>2026-04-11T13:32:29.331Z</time></trkpt><trkpt lat="43.0521054" lon="11.5040779"><ele>458.66666666666663</ele><time>2026-04-11T13:32:30.331Z</time></trkpt><trkpt lat="43.0521495" lon="11.5041781"><ele>457.3333333333333</ele><time>2026-04-11T13:32:31.331Z</time></trkpt><trkpt lat="43.0521924" lon="11.5042757"><ele>456.0</ele><time>2026-04-11T13:32:32.331Z</time></trkpt><trkpt lat="43.0522296" lon="11.5043736"><ele>456.0</ele><time>2026-04-11T13:32:33.331Z</time></trkpt><trkpt lat="43.052258" lon="11.5044667"><ele>456.0</ele><time>2026-04-11T13:32:34.331Z</time></trkpt><trkpt lat="43.0522812" lon="11.5045555"><ele>456.0</ele><time>2026-04-11T13:32:35.33Z</time></trkpt><trkpt lat="43.0523085" lon="11.504707"><ele>456.0</ele><time>2026-04-11T13:32:37.33Z</time></trkpt><trkpt lat="43.052313" lon="11.5048347"><ele>456.0</ele><time>2026-04-11T13:32:39.331Z</time></trkpt><trkpt lat="43.0523" lon="11.5049657"><ele>456.0</ele><time>2026-04-11T13:32:41.331Z</time></trkpt><trkpt lat="43.0523516" lon="11.5050593"><ele>456.3333333333333</ele><time>2026-04-11T13:32:43.33Z</time></trkpt><trkpt lat="43.0524564" lon="11.5050394"><ele>456.66666666666663</ele><time>2026-04-11T13:32:45.331Z</time></trkpt><trkpt lat="43.0525213" lon="11.5050177"><ele>457.0</ele><time>2026-04-11T13:32:46.33Z</time></trkpt><trkpt lat="43.0525988" lon="11.5050153"><ele>457.3333333333333</ele><time>2026-04-11T13:32:47.33Z</time></trkpt><trkpt lat="43.0526889" lon="11.5050343"><ele>457.66666666666663</ele><time>2026-04-11T13:32:48.331Z</time></trkpt><trkpt lat="43.0527895" lon="11.5050782"><ele>458.0</ele><time>2026-04-11T13:32:49.331Z</time></trkpt><trkpt lat="43.0528944" lon="11.50514"><ele>458.0</ele><time>2026-04-11T13:32:50.33Z</time></trkpt><trkpt lat="43.0529974" lon="11.5052176"><ele>458.0</ele><time>2026-04-11T13:32:51.33Z</time></trkpt><trkpt lat="43.0530902" lon="11.505312"><ele>458.0</ele><time>2026-04-11T13:32:52.332Z</time></trkpt><trkpt lat="43.0531663" lon="11.5054288"><ele>458.0</ele><time>2026-04-11T13:32:53.332Z</time></trkpt><trkpt lat="43.0532229" lon="11.505569"><ele>457.5</ele><time>2026-04-11T13:32:54.331Z</time></trkpt><trkpt lat="43.0532582" lon="11.5057322"><ele>457.0</ele><time>2026-04-11T13:32:55.332Z</time></trkpt><trkpt lat="43.0532681" lon="11.5059151"><ele>456.5</ele><time>2026-04-11T13:32:56.331Z</time></trkpt><trkpt lat="43.0532548" lon="11.5061113"><ele>456.0</ele><time>2026-04-11T13:32:57.331Z</time></trkpt><trkpt lat="43.0532352" lon="11.5063157"><ele>455.0</ele><time>2026-04-11T13:32:58.332Z</time></trkpt><trkpt lat="43.0532074" lon="11.5065408"><ele>454.0</ele><time>2026-04-11T13:32:59.332Z</time></trkpt><trkpt lat="43.0531773" lon="11.506771"><ele>453.0</ele><time>2026-04-11T13:33:00.332Z</time></trkpt><trkpt lat="43.0531487" lon="11.5070074"><ele>450.33333333333337</ele><time>2026-04-11T13:33:01.332Z</time></trkpt><trkpt lat="43.0531206" lon="11.5072532"><ele>447.6666666666667</ele><time>2026-04-11T13:33:02.331Z</time></trkpt><trkpt lat="43.0530915" lon="11.5075033"><ele>445.0</ele><time>2026-04-11T13:33:03.332Z</time></trkpt><trkpt lat="43.05306" lon="11.5077589"><ele>442.0</ele><time>2026-04-11T13:33:04.331Z</time></trkpt><trkpt lat="43.0530277" lon="11.508016"><ele>439.0</ele><time>2026-04-11T13:33:05.331Z</time></trkpt><trkpt lat="43.0530021" lon="11.5082726"><ele>436.0</ele><time>2026-04-11T13:33:06.331Z</time></trkpt><trkpt lat="43.0529919" lon="11.5085284"><ele>433.33333333333337</ele><time>2026-04-11T13:33:07.332Z</time></trkpt><trkpt lat="43.0530038" lon="11.508791"><ele>430.66666666666663</ele><time>2026-04-11T13:33:08.331Z</time></trkpt><trkpt lat="43.0530396" lon="11.5090564"><ele>428.0</ele><time>2026-04-11T13:33:09.331Z</time></trkpt><trkpt lat="43.0530896" lon="11.5093185"><ele>428.0</ele><time>2026-04-11T13:33:10.332Z</time></trkpt><trkpt lat="43.0531467" lon="11.5095653"><ele>428.0</ele><time>2026-04-11T13:33:11.331Z</time></trkpt><trkpt lat="43.0532111" lon="11.5098035"><ele>428.0</ele><time>2026-04-11T13:33:12.332Z</time></trkpt><trkpt lat="43.0533003" lon="11.5100194"><ele>427.0</ele><time>2026-04-11T13:33:13.331Z</time></trkpt><trkpt lat="43.0534198" lon="11.5101962"><ele>426.0</ele><time>2026-04-11T13:33:14.332Z</time></trkpt><trkpt lat="43.0535485" lon="11.5103446"><ele>425.0</ele><time>2026-04-11T13:33:15.331Z</time></trkpt><trkpt lat="43.0536931" lon="11.5104618"><ele>422.66666666666663</ele><time>2026-04-11T13:33:16.331Z</time></trkpt><trkpt lat="43.0538459" lon="11.5105535"><ele>420.33333333333337</ele><time>2026-04-11T13:33:17.332Z</time></trkpt><trkpt lat="43.0540049" lon="11.5106066"><ele>418.0</ele><time>2026-04-11T13:33:18.332Z</time></trkpt><trkpt lat="43.0541648" lon="11.5106241"><ele>417.5</ele><time>2026-04-11T13:33:19.331Z</time></trkpt><trkpt lat="43.0543121" lon="11.5105988"><ele>417.0</ele><time>2026-04-11T13:33:20.332Z</time></trkpt><trkpt lat="43.0544475" lon="11.5105451"><ele>416.5</ele><time>2026-04-11T13:33:21.332Z</time></trkpt><trkpt lat="43.0545697" lon="11.5104494"><ele>416.0</ele><time>2026-04-11T13:33:22.332Z</time></trkpt><trkpt lat="43.054686" lon="11.5103326"><ele>413.66666666666663</ele><time>2026-04-11T13:33:23.331Z</time></trkpt><trkpt lat="43.0547999" lon="11.5102022"><ele>411.33333333333337</ele><time>2026-04-11T13:33:24.331Z</time></trkpt><trkpt lat="43.0549032" lon="11.5100409"><ele>409.0</ele><time>2026-04-11T13:33:25.332Z</time></trkpt><trkpt lat="43.0549893" lon="11.5098637"><ele>409.0</ele><time>2026-04-11T13:33:26.332Z</time></trkpt><trkpt lat="43.0550622" lon="11.5096673"><ele>409.0</ele><time>2026-04-11T13:33:27.331Z</time></trkpt><trkpt lat="43.055127" lon="11.5094649"><ele>409.0</ele><time>2026-04-11T13:33:28.331Z</time></trkpt><trkpt lat="43.0552006" lon="11.5092676"><ele>410.6666666666667</ele><time>2026-04-11T13:33:29.332Z</time></trkpt><trkpt lat="43.0552791" lon="11.5090915"><ele>412.33333333333337</ele><time>2026-04-11T13:33:30.332Z</time></trkpt><trkpt lat="43.0553848" lon="11.5089336"><ele>414.0</ele><time>2026-04-11T13:33:31.331Z</time></trkpt><trkpt lat="43.055503" lon="11.5087826"><ele>414.25</ele><time>2026-04-11T13:33:32.331Z</time></trkpt><trkpt lat="43.0556175" lon="11.5086368"><ele>414.5</ele><time>2026-04-11T13:33:33.331Z</time></trkpt><trkpt lat="43.0557355" lon="11.5084984"><ele>414.75</ele><time>2026-04-11T13:33:34.332Z</time></trkpt><trkpt lat="43.0558305" lon="11.5083719"><ele>415.0</ele><time>2026-04-11T13:33:35.332Z</time></trkpt><trkpt lat="43.0558986" lon="11.508207"><ele>410.75</ele><time>2026-04-11T13:33:36.332Z</time></trkpt><trkpt lat="43.0559358" lon="11.5080324"><ele>406.5</ele><time>2026-04-11T13:33:37.332Z</time></trkpt><trkpt lat="43.0559585" lon="11.5078519"><ele>402.25</ele><time>2026-04-11T13:33:38.332Z</time></trkpt><trkpt lat="43.0559589" lon="11.5076741"><ele>398.0</ele><time>2026-04-11T13:33:39.331Z</time></trkpt><trkpt lat="43.0559529" lon="11.5074936"><ele>397.5</ele><time>2026-04-11T13:33:40.332Z</time></trkpt><trkpt lat="43.0559365" lon="11.5073221"><ele>397.0</ele><time>2026-04-11T13:33:41.332Z</time></trkpt><trkpt lat="43.0558948" lon="11.5071605"><ele>396.5</ele><time>2026-04-11T13:33:42.331Z</time></trkpt><trkpt lat="43.0558376" lon="11.507005"><ele>396.0</ele><time>2026-04-11T13:33:43.332Z</time></trkpt><trkpt lat="43.0557657" lon="11.5068652"><ele>397.5</ele><time>2026-04-11T13:33:44.332Z</time></trkpt><trkpt lat="43.0556837" lon="11.5067224"><ele>399.0</ele><time>2026-04-11T13:33:45.332Z</time></trkpt><trkpt lat="43.0555992" lon="11.5065689"><ele>400.5</ele><time>2026-04-11T13:33:46.331Z</time></trkpt><trkpt lat="43.0555338" lon="11.5063952"><ele>402.0</ele><time>2026-04-11T13:33:47.331Z</time></trkpt><trkpt lat="43.055508" lon="11.5062009"><ele>402.66666666666663</ele><time>2026-04-11T13:33:48.332Z</time></trkpt><trkpt lat="43.055516" lon="11.5059983"><ele>403.3333333333333</ele><time>2026-04-11T13:33:49.331Z</time></trkpt><trkpt lat="43.0555438" lon="11.5057842"><ele>404.0</ele><time>2026-04-11T13:33:50.333Z</time></trkpt><trkpt lat="43.0556128" lon="11.5055787"><ele>403.3333333333333</ele><time>2026-04-11T13:33:51.331Z</time></trkpt><trkpt lat="43.0556803" lon="11.5053755"><ele>402.66666666666663</ele><time>2026-04-11T13:33:52.332Z</time></trkpt><trkpt lat="43.0557516" lon="11.5051698"><ele>402.0</ele><time>2026-04-11T13:33:53.331Z</time></trkpt><trkpt lat="43.0558358" lon="11.5049778"><ele>398.0</ele><time>2026-04-11T13:33:54.331Z</time></trkpt><trkpt lat="43.0559167" lon="11.5047845"><ele>394.0</ele><time>2026-04-11T13:33:55.332Z</time></trkpt><trkpt lat="43.0559997" lon="11.5046096"><ele>390.0</ele><time>2026-04-11T13:33:56.333Z</time></trkpt><trkpt lat="43.0560907" lon="11.5044387"><ele>390.0</ele><time>2026-04-11T13:33:57.332Z</time></trkpt><trkpt lat="43.05619" lon="11.5042675"><ele>390.0</ele><time>2026-04-11T13:33:58.333Z</time></trkpt><trkpt lat="43.0563011" lon="11.5041021"><ele>390.0</ele><time>2026-04-11T13:33:59.332Z</time></trkpt><trkpt lat="43.0564447" lon="11.5039772"><ele>390.0</ele><time>2026-04-11T13:34:00.333Z</time></trkpt><trkpt lat="43.056592" lon="11.5038785"><ele>390.0</ele><time>2026-04-11T13:34:01.333Z</time></trkpt><trkpt lat="43.0567498" lon="11.5037879"><ele>390.0</ele><time>2026-04-11T13:34:02.332Z</time></trkpt><trkpt lat="43.0568949" lon="11.5036949"><ele>388.0</ele><time>2026-04-11T13:34:03.333Z</time></trkpt><trkpt lat="43.0570437" lon="11.5036103"><ele>386.0</ele><time>2026-04-11T13:34:04.333Z</time></trkpt><trkpt lat="43.057186" lon="11.5035503"><ele>384.0</ele><time>2026-04-11T13:34:05.332Z</time></trkpt><trkpt lat="43.0573338" lon="11.5035039"><ele>381.0</ele><time>2026-04-11T13:34:06.333Z</time></trkpt><trkpt lat="43.0574657" lon="11.5034509"><ele>378.0</ele><time>2026-04-11T13:34:07.333Z</time></trkpt><trkpt lat="43.0575787" lon="11.5034003"><ele>375.0</ele><time>2026-04-11T13:34:08.332Z</time></trkpt><trkpt lat="43.0576632" lon="11.5033285"><ele>372.0</ele><time>2026-04-11T13:34:09.332Z</time></trkpt><trkpt lat="43.0577255" lon="11.5032037"><ele>372.0</ele><time>2026-04-11T13:34:10.332Z</time></trkpt><trkpt lat="43.0577685" lon="11.5030644"><ele>372.0</ele><time>2026-04-11T13:34:11.332Z</time></trkpt><trkpt lat="43.0577879" lon="11.5029106"><ele>372.0</ele><time>2026-04-11T13:34:12.332Z</time></trkpt><trkpt lat="43.0577845" lon="11.5027758"><ele>372.0</ele><time>2026-04-11T13:34:13.332Z</time></trkpt><trkpt lat="43.0577738" lon="11.5026316"><ele>372.0</ele><time>2026-04-11T13:34:14.333Z</time></trkpt><trkpt lat="43.057783" lon="11.5024819"><ele>372.20000000000005</ele><time>2026-04-11T13:34:15.332Z</time></trkpt><trkpt lat="43.05782" lon="11.5023506"><ele>372.4</ele><time>2026-04-11T13:34:16.333Z</time></trkpt><trkpt lat="43.0578909" lon="11.502234"><ele>372.6</ele><time>2026-04-11T13:34:17.332Z</time></trkpt><trkpt lat="43.0579783" lon="11.5021579"><ele>372.79999999999995</ele><time>2026-04-11T13:34:18.333Z</time></trkpt><trkpt lat="43.0580693" lon="11.5020873"><ele>373.0</ele><time>2026-04-11T13:34:19.332Z</time></trkpt><trkpt lat="43.0581812" lon="11.502057"><ele>371.25</ele><time>2026-04-11T13:34:20.332Z</time></trkpt><trkpt lat="43.058294" lon="11.5020269"><ele>369.5</ele><time>2026-04-11T13:34:21.333Z</time></trkpt><trkpt lat="43.0583931" lon="11.5020315"><ele>367.75</ele><time>2026-04-11T13:34:22.333Z</time></trkpt><trkpt lat="43.058503" lon="11.5020855"><ele>366.0</ele><time>2026-04-11T13:34:23.333Z</time></trkpt><trkpt lat="43.0586052" lon="11.5021781"><ele>364.75</ele><time>2026-04-11T13:34:24.332Z</time></trkpt><trkpt lat="43.0586951" lon="11.5022908"><ele>363.5</ele><time>2026-04-11T13:34:25.333Z</time></trkpt><trkpt lat="43.0587857" lon="11.5024108"><ele>362.25</ele><time>2026-04-11T13:34:26.332Z</time></trkpt><trkpt lat="43.0588806" lon="11.5025314"><ele>361.0</ele><time>2026-04-11T13:34:27.333Z</time></trkpt><trkpt lat="43.0589878" lon="11.5026436"><ele>361.0</ele><time>2026-04-11T13:34:28.333Z</time></trkpt><trkpt lat="43.0590796" lon="11.5027694"><ele>361.0</ele><time>2026-04-11T13:34:29.333Z</time></trkpt><trkpt lat="43.0591817" lon="11.5028692"><ele>361.0</ele><time>2026-04-11T13:34:30.332Z</time></trkpt><trkpt lat="43.0592991" lon="11.5029417"><ele>361.0</ele><time>2026-04-11T13:34:31.332Z</time></trkpt><trkpt lat="43.0594317" lon="11.5030069"><ele>354.66666666666663</ele><time>2026-04-11T13:34:32.333Z</time></trkpt><trkpt lat="43.0595887" lon="11.5030447"><ele>348.3333333333333</ele><time>2026-04-11T13:34:33.333Z</time></trkpt><trkpt lat="43.0597439" lon="11.5030661"><ele>342.0</ele><time>2026-04-11T13:34:34.332Z</time></trkpt><trkpt lat="43.0598903" lon="11.5030746"><ele>341.0</ele><time>2026-04-11T13:34:35.333Z</time></trkpt><trkpt lat="43.0600292" lon="11.5030681"><ele>340.0</ele><time>2026-04-11T13:34:36.332Z</time></trkpt><trkpt lat="43.0601653" lon="11.5030381"><ele>339.0</ele><time>2026-04-11T13:34:37.333Z</time></trkpt><trkpt lat="43.0602946" lon="11.5029778"><ele>338.0</ele><time>2026-04-11T13:34:38.333Z</time></trkpt><trkpt lat="43.0604111" lon="11.5028891"><ele>339.0</ele><time>2026-04-11T13:34:39.332Z</time></trkpt><trkpt lat="43.0605144" lon="11.5027721"><ele>340.0</ele><time>2026-04-11T13:34:40.333Z</time></trkpt><trkpt lat="43.0606027" lon="11.5026292"><ele>341.0</ele><time>2026-04-11T13:34:41.332Z</time></trkpt><trkpt lat="43.06069" lon="11.5024718"><ele>342.0</ele><time>2026-04-11T13:34:42.333Z</time></trkpt><trkpt lat="43.0607869" lon="11.5023308"><ele>342.0</ele><time>2026-04-11T13:34:43.333Z</time></trkpt><trkpt lat="43.0609011" lon="11.5022163"><ele>342.0</ele><time>2026-04-11T13:34:44.333Z</time></trkpt><trkpt lat="43.0610292" lon="11.5021379"><ele>342.0</ele><time>2026-04-11T13:34:45.332Z</time></trkpt><trkpt lat="43.0611652" lon="11.5020973"><ele>342.0</ele><time>2026-04-11T13:34:46.333Z</time></trkpt><trkpt lat="43.0613024" lon="11.5020788"><ele>342.0</ele><time>2026-04-11T13:34:47.333Z</time></trkpt><trkpt lat="43.0614412" lon="11.5020464"><ele>342.0</ele><time>2026-04-11T13:34:48.332Z</time></trkpt><trkpt lat="43.0615852" lon="11.5019808"><ele>342.0</ele><time>2026-04-11T13:34:49.332Z</time></trkpt><trkpt lat="43.0617324" lon="11.5018813"><ele>342.0</ele><time>2026-04-11T13:34:50.332Z</time></trkpt><trkpt lat="43.061881" lon="11.5017566"><ele>342.0</ele><time>2026-04-11T13:34:51.333Z</time></trkpt><trkpt lat="43.0620326" lon="11.5016172"><ele>342.0</ele><time>2026-04-11T13:34:52.333Z</time></trkpt><trkpt lat="43.0621825" lon="11.5014774"><ele>342.0</ele><time>2026-04-11T13:34:53.333Z</time></trkpt><trkpt lat="43.0623258" lon="11.5013442"><ele>342.0</ele><time>2026-04-11T13:34:54.333Z</time></trkpt><trkpt lat="43.0624642" lon="11.5012152"><ele>342.0</ele><time>2026-04-11T13:34:55.333Z</time></trkpt><trkpt lat="43.0626053" lon="11.5011034"><ele>340.3333333333333</ele><time>2026-04-11T13:34:56.333Z</time></trkpt><trkpt lat="43.0627583" lon="11.5010278"><ele>338.66666666666663</ele><time>2026-04-11T13:34:57.332Z</time></trkpt><trkpt lat="43.0629209" lon="11.5010015"><ele>337.0</ele><time>2026-04-11T13:34:58.332Z</time></trkpt><trkpt lat="43.063086" lon="11.5010259"><ele>337.0</ele><time>2026-04-11T13:34:59.333Z</time></trkpt><trkpt lat="43.0632478" lon="11.5010895"><ele>337.0</ele><time>2026-04-11T13:35:00.333Z</time></trkpt><trkpt lat="43.0634086" lon="11.5011732"><ele>337.0</ele><time>2026-04-11T13:35:01.333Z</time></trkpt><trkpt lat="43.0635678" lon="11.5012608"><ele>332.3333333333333</ele><time>2026-04-11T13:35:02.334Z</time></trkpt><trkpt lat="43.0637324" lon="11.50135"><ele>327.6666666666667</ele><time>2026-04-11T13:35:03.334Z</time></trkpt><trkpt lat="43.0639018" lon="11.5014335"><ele>323.0</ele><time>2026-04-11T13:35:04.334Z</time></trkpt><trkpt lat="43.0640707" lon="11.5015161"><ele>322.6666666666667</ele><time>2026-04-11T13:35:05.334Z</time></trkpt><trkpt lat="43.0642259" lon="11.5015993"><ele>322.3333333333333</ele><time>2026-04-11T13:35:06.333Z</time></trkpt><trkpt lat="43.0643834" lon="11.5016807"><ele>322.0</ele><time>2026-04-11T13:35:07.334Z</time></trkpt><trkpt lat="43.0645383" lon="11.5017287"><ele>322.0</ele><time>2026-04-11T13:35:08.334Z</time></trkpt><trkpt lat="43.0646962" lon="11.5017455"><ele>322.0</ele><time>2026-04-11T13:35:09.334Z</time></trkpt><trkpt lat="43.0648475" lon="11.5017364"><ele>322.0</ele><time>2026-04-11T13:35:10.334Z</time></trkpt><trkpt lat="43.0649909" lon="11.5016701"><ele>320.66666666666663</ele><time>2026-04-11T13:35:11.334Z</time></trkpt><trkpt lat="43.0651286" lon="11.5015766"><ele>319.3333333333333</ele><time>2026-04-11T13:35:12.333Z</time></trkpt><trkpt lat="43.0652472" lon="11.5014375"><ele>318.0</ele><time>2026-04-11T13:35:13.334Z</time></trkpt><trkpt lat="43.0653512" lon="11.5012711"><ele>319.0</ele><time>2026-04-11T13:35:14.333Z</time></trkpt><trkpt lat="43.0654503" lon="11.5010907"><ele>320.0</ele><time>2026-04-11T13:35:15.333Z</time></trkpt><trkpt lat="43.065533" lon="11.5009067"><ele>321.0</ele><time>2026-04-11T13:35:16.333Z</time></trkpt><trkpt lat="43.0656129" lon="11.5007316"><ele>321.0</ele><time>2026-04-11T13:35:17.334Z</time></trkpt><trkpt lat="43.0656939" lon="11.500555"><ele>321.0</ele><time>2026-04-11T13:35:18.333Z</time></trkpt><trkpt lat="43.065785" lon="11.5004185"><ele>321.0</ele><time>2026-04-11T13:35:19.334Z</time></trkpt><trkpt lat="43.065886" lon="11.5002944"><ele>321.0</ele><time>2026-04-11T13:35:20.334Z</time></trkpt><trkpt lat="43.0660156" lon="11.5002137"><ele>318.6666666666667</ele><time>2026-04-11T13:35:21.334Z</time></trkpt><trkpt lat="43.0661611" lon="11.5001465"><ele>316.33333333333337</ele><time>2026-04-11T13:35:22.334Z</time></trkpt><trkpt lat="43.0663041" lon="11.5000834"><ele>314.0</ele><time>2026-04-11T13:35:23.334Z</time></trkpt><trkpt lat="43.0664563" lon="11.5000247"><ele>314.0</ele><time>2026-04-11T13:35:24.333Z</time></trkpt><trkpt lat="43.0666075" lon="11.4999755"><ele>314.0</ele><time>2026-04-11T13:35:25.334Z</time></trkpt><trkpt lat="43.0667682" lon="11.4999072"><ele>314.0</ele><time>2026-04-11T13:35:26.333Z</time></trkpt><trkpt lat="43.0669292" lon="11.4998106"><ele>313.6666666666667</ele><time>2026-04-11T13:35:27.333Z</time></trkpt><trkpt lat="43.0670922" lon="11.4997003"><ele>313.3333333333333</ele><time>2026-04-11T13:35:28.333Z</time></trkpt><trkpt lat="43.0672644" lon="11.4995791"><ele>313.0</ele><time>2026-04-11T13:35:29.333Z</time></trkpt><trkpt lat="43.0674434" lon="11.4994547"><ele>310.0</ele><time>2026-04-11T13:35:30.334Z</time></trkpt><trkpt lat="43.0676299" lon="11.4993364"><ele>307.0</ele><time>2026-04-11T13:35:31.334Z</time></trkpt><trkpt lat="43.0678316" lon="11.4992358"><ele>304.0</ele><time>2026-04-11T13:35:32.334Z</time></trkpt><trkpt lat="43.068046" lon="11.4991423"><ele>299.0</ele><time>2026-04-11T13:35:33.334Z</time></trkpt><trkpt lat="43.0682828" lon="11.4990749"><ele>294.0</ele><time>2026-04-11T13:35:34.334Z</time></trkpt><trkpt lat="43.0685313" lon="11.4989979"><ele>294.0</ele><time>2026-04-11T13:35:35.333Z</time></trkpt><trkpt lat="43.0687859" lon="11.4989274"><ele>294.0</ele><time>2026-04-11T13:35:36.333Z</time></trkpt><trkpt lat="43.0690405" lon="11.4988606"><ele>291.5</ele><time>2026-04-11T13:35:37.334Z</time></trkpt><trkpt lat="43.0692771" lon="11.498786"><ele>289.0</ele><time>2026-04-11T13:35:38.333Z</time></trkpt><trkpt lat="43.0695031" lon="11.4987214"><ele>289.0</ele><time>2026-04-11T13:35:39.334Z</time></trkpt><trkpt lat="43.0697151" lon="11.4986596"><ele>289.0</ele><time>2026-04-11T13:35:40.334Z</time></trkpt><trkpt lat="43.0699215" lon="11.4985835"><ele>289.0</ele><time>2026-04-11T13:35:41.333Z</time></trkpt><trkpt lat="43.0701172" lon="11.4985001"><ele>287.66666666666663</ele><time>2026-04-11T13:35:42.334Z</time></trkpt><trkpt lat="43.0702937" lon="11.4983937"><ele>286.3333333333333</ele><time>2026-04-11T13:35:43.333Z</time></trkpt><trkpt lat="43.0704722" lon="11.4982884"><ele>285.0</ele><time>2026-04-11T13:35:44.333Z</time></trkpt><trkpt lat="43.0706407" lon="11.4981631"><ele>284.3333333333333</ele><time>2026-04-11T13:35:45.333Z</time></trkpt><trkpt lat="43.0708131" lon="11.4980295"><ele>283.66666666666663</ele><time>2026-04-11T13:35:46.333Z</time></trkpt><trkpt lat="43.0709893" lon="11.4978966"><ele>283.0</ele><time>2026-04-11T13:35:47.333Z</time></trkpt><trkpt lat="43.071157" lon="11.4977657"><ele>282.0</ele><time>2026-04-11T13:35:48.334Z</time></trkpt><trkpt lat="43.0713263" lon="11.497624"><ele>281.0</ele><time>2026-04-11T13:35:49.333Z</time></trkpt><trkpt lat="43.0715042" lon="11.4975039"><ele>280.0</ele><time>2026-04-11T13:35:50.333Z</time></trkpt><trkpt lat="43.071681" lon="11.4973716"><ele>280.0</ele><time>2026-04-11T13:35:51.334Z</time></trkpt><trkpt lat="43.0718554" lon="11.4972263"><ele>280.0</ele><time>2026-04-11T13:35:52.334Z</time></trkpt><trkpt lat="43.0720236" lon="11.4970975"><ele>280.0</ele><time>2026-04-11T13:35:53.334Z</time></trkpt><trkpt lat="43.0721996" lon="11.4969643"><ele>278.66666666666663</ele><time>2026-04-11T13:35:54.333Z</time></trkpt><trkpt lat="43.0723829" lon="11.4968242"><ele>277.3333333333333</ele><time>2026-04-11T13:35:55.334Z</time></trkpt><trkpt lat="43.0725672" lon="11.4966865"><ele>276.0</ele><time>2026-04-11T13:35:56.334Z</time></trkpt><trkpt lat="43.072755" lon="11.496556"><ele>276.0</ele><time>2026-04-11T13:35:57.333Z</time></trkpt><trkpt lat="43.0729507" lon="11.4964475"><ele>276.0</ele><time>2026-04-11T13:35:58.333Z</time></trkpt><trkpt lat="43.073156" lon="11.4963643"><ele>276.0</ele><time>2026-04-11T13:35:59.334Z</time></trkpt><trkpt lat="43.0733772" lon="11.4962893"><ele>270.5</ele><time>2026-04-11T13:36:00.334Z</time></trkpt><trkpt lat="43.0735945" lon="11.4961979"><ele>265.0</ele><time>2026-04-11T13:36:01.334Z</time></trkpt><trkpt lat="43.073809" lon="11.4960856"><ele>265.0</ele><time>2026-04-11T13:36:02.334Z</time></trkpt><trkpt lat="43.0740167" lon="11.4959536"><ele>265.0</ele><time>2026-04-11T13:36:03.335Z</time></trkpt><trkpt lat="43.0742071" lon="11.4958054"><ele>265.0</ele><time>2026-04-11T13:36:04.335Z</time></trkpt><trkpt lat="43.0743898" lon="11.4956496"><ele>264.66666666666663</ele><time>2026-04-11T13:36:05.334Z</time></trkpt><trkpt lat="43.074567" lon="11.4954892"><ele>264.3333333333333</ele><time>2026-04-11T13:36:06.335Z</time></trkpt><trkpt lat="43.0747435" lon="11.4953358"><ele>264.0</ele><time>2026-04-11T13:36:07.334Z</time></trkpt><trkpt lat="43.0749216" lon="11.495188"><ele>262.0</ele><time>2026-04-11T13:36:08.334Z</time></trkpt><trkpt lat="43.0750986" lon="11.4950412"><ele>260.0</ele><time>2026-04-11T13:36:09.335Z</time></trkpt><trkpt lat="43.0752736" lon="11.4948961"><ele>258.0</ele><time>2026-04-11T13:36:10.334Z</time></trkpt><trkpt lat="43.0754428" lon="11.4947507"><ele>258.0</ele><time>2026-04-11T13:36:11.335Z</time></trkpt><trkpt lat="43.0756066" lon="11.4946051"><ele>258.0</ele><time>2026-04-11T13:36:12.334Z</time></trkpt><trkpt lat="43.0757681" lon="11.4944612"><ele>258.0</ele><time>2026-04-11T13:36:13.334Z</time></trkpt><trkpt lat="43.0759251" lon="11.4943096"><ele>256.3333333333333</ele><time>2026-04-11T13:36:14.335Z</time></trkpt><trkpt lat="43.076078" lon="11.4941442"><ele>254.66666666666666</ele><time>2026-04-11T13:36:15.334Z</time></trkpt><trkpt lat="43.0762295" lon="11.4939701"><ele>253.0</ele><time>2026-04-11T13:36:16.334Z</time></trkpt><trkpt lat="43.0763824" lon="11.4938015"><ele>252.66666666666666</ele><time>2026-04-11T13:36:17.335Z</time></trkpt><trkpt lat="43.0765326" lon="11.4936466"><ele>252.33333333333331</ele><time>2026-04-11T13:36:18.335Z</time></trkpt><trkpt lat="43.0766736" lon="11.4935036"><ele>252.0</ele><time>2026-04-11T13:36:19.334Z</time></trkpt><trkpt lat="43.0768076" lon="11.4933724"><ele>251.75</ele><time>2026-04-11T13:36:20.335Z</time></trkpt><trkpt lat="43.076938" lon="11.4932496"><ele>251.5</ele><time>2026-04-11T13:36:21.335Z</time></trkpt><trkpt lat="43.077064" lon="11.4931449"><ele>251.25</ele><time>2026-04-11T13:36:22.335Z</time></trkpt><trkpt lat="43.0771876" lon="11.4930539"><ele>251.0</ele><time>2026-04-11T13:36:23.335Z</time></trkpt><trkpt lat="43.0773042" lon="11.492992"><ele>251.0</ele><time>2026-04-11T13:36:24.335Z</time></trkpt><trkpt lat="43.0774121" lon="11.492942"><ele>251.00000000000003</ele><time>2026-04-11T13:36:25.334Z</time></trkpt><trkpt lat="43.0775006" lon="11.4928966"><ele>251.00000000000003</ele><time>2026-04-11T13:36:26.335Z</time></trkpt><trkpt lat="43.0775674" lon="11.4928574"><ele>251.0</ele><time>2026-04-11T13:36:27.335Z</time></trkpt><trkpt lat="43.0776544" lon="11.4928432"><ele>251.0</ele><time>2026-04-11T13:36:29.335Z</time></trkpt><trkpt lat="43.0777454" lon="11.4929309"><ele>250.8</ele><time>2026-04-11T13:36:31.334Z</time></trkpt><trkpt lat="43.0778021" lon="11.4929963"><ele>250.60000000000002</ele><time>2026-04-11T13:36:32.334Z</time></trkpt><trkpt lat="43.077873" lon="11.4930687"><ele>250.4</ele><time>2026-04-11T13:36:33.334Z</time></trkpt><trkpt lat="43.0779626" lon="11.4931562"><ele>250.2</ele><time>2026-04-11T13:36:34.334Z</time></trkpt><trkpt lat="43.0780572" lon="11.4932548"><ele>250.0</ele><time>2026-04-11T13:36:35.334Z</time></trkpt><trkpt lat="43.0781415" lon="11.4933594"><ele>250.0</ele><time>2026-04-11T13:36:36.334Z</time></trkpt><trkpt lat="43.0782181" lon="11.4934696"><ele>250.0</ele><time>2026-04-11T13:36:37.334Z</time></trkpt><trkpt lat="43.0782926" lon="11.4935829"><ele>250.0</ele><time>2026-04-11T13:36:38.334Z</time></trkpt><trkpt lat="43.078368" lon="11.4936974"><ele>250.0</ele><time>2026-04-11T13:36:39.334Z</time></trkpt><trkpt lat="43.0784489" lon="11.4938177"><ele>251.0</ele><time>2026-04-11T13:36:40.335Z</time></trkpt><trkpt lat="43.0785269" lon="11.4939293"><ele>252.0</ele><time>2026-04-11T13:36:41.334Z</time></trkpt><trkpt lat="43.078604" lon="11.494048"><ele>253.0</ele><time>2026-04-11T13:36:42.334Z</time></trkpt><trkpt lat="43.07867" lon="11.4941721"><ele>254.0</ele><time>2026-04-11T13:36:43.334Z</time></trkpt><trkpt lat="43.0787266" lon="11.4943037"><ele>254.0</ele><time>2026-04-11T13:36:44.335Z</time></trkpt><trkpt lat="43.0787764" lon="11.4944443"><ele>253.99999999999997</ele><time>2026-04-11T13:36:45.335Z</time></trkpt><trkpt lat="43.0788244" lon="11.4945856"><ele>253.99999999999997</ele><time>2026-04-11T13:36:46.334Z</time></trkpt><trkpt lat="43.0788693" lon="11.4947255"><ele>254.0</ele><time>2026-04-11T13:36:47.334Z</time></trkpt><trkpt lat="43.0789135" lon="11.4948597"><ele>254.0</ele><time>2026-04-11T13:36:48.335Z</time></trkpt><trkpt lat="43.0789568" lon="11.4949868"><ele>254.0</ele><time>2026-04-11T13:36:49.335Z</time></trkpt><trkpt lat="43.0790008" lon="11.4951105"><ele>253.99999999999997</ele><time>2026-04-11T13:36:50.334Z</time></trkpt><trkpt lat="43.0790441" lon="11.4952331"><ele>253.99999999999997</ele><time>2026-04-11T13:36:51.335Z</time></trkpt><trkpt lat="43.0790878" lon="11.49536"><ele>254.0</ele><time>2026-04-11T13:36:52.334Z</time></trkpt><trkpt lat="43.079133" lon="11.4954901"><ele>254.0</ele><time>2026-04-11T13:36:53.335Z</time></trkpt><trkpt lat="43.0791778" lon="11.4956276"><ele>256.0</ele><time>2026-04-11T13:36:54.334Z</time></trkpt><trkpt lat="43.0792244" lon="11.4957756"><ele>258.0</ele><time>2026-04-11T13:36:55.334Z</time></trkpt><trkpt lat="43.0792761" lon="11.4959272"><ele>260.0</ele><time>2026-04-11T13:36:56.334Z</time></trkpt><trkpt lat="43.0793271" lon="11.4960762"><ele>262.0</ele><time>2026-04-11T13:36:57.334Z</time></trkpt><trkpt lat="43.0793773" lon="11.4962217"><ele>262.75</ele><time>2026-04-11T13:36:58.334Z</time></trkpt><trkpt lat="43.079431" lon="11.496369"><ele>263.5</ele><time>2026-04-11T13:36:59.334Z</time></trkpt><trkpt lat="43.0794857" lon="11.4965132"><ele>264.25</ele><time>2026-04-11T13:37:00.334Z</time></trkpt><trkpt lat="43.0795305" lon="11.496655"><ele>265.0</ele><time>2026-04-11T13:37:01.335Z</time></trkpt><trkpt lat="43.0795575" lon="11.4967887"><ele>265.0</ele><time>2026-04-11T13:37:02.334Z</time></trkpt><trkpt lat="43.0795677" lon="11.4969101"><ele>265.0</ele><time>2026-04-11T13:37:03.334Z</time></trkpt><trkpt lat="43.0795729" lon="11.4970375"><ele>265.0</ele><time>2026-04-11T13:37:04.335Z</time></trkpt><trkpt lat="43.0795785" lon="11.4971691"><ele>265.0</ele><time>2026-04-11T13:37:05.335Z</time></trkpt><trkpt lat="43.0795959" lon="11.4973107"><ele>265.0</ele><time>2026-04-11T13:37:06.335Z</time></trkpt><trkpt lat="43.0796296" lon="11.4974612"><ele>264.5</ele><time>2026-04-11T13:37:07.335Z</time></trkpt><trkpt lat="43.0796779" lon="11.4976178"><ele>264.0</ele><time>2026-04-11T13:37:08.335Z</time></trkpt><trkpt lat="43.079734" lon="11.4977782"><ele>263.5</ele><time>2026-04-11T13:37:09.336Z</time></trkpt><trkpt lat="43.0797857" lon="11.4979279"><ele>263.0</ele><time>2026-04-11T13:37:10.335Z</time></trkpt><trkpt lat="43.079828" lon="11.4980636"><ele>262.4</ele><time>2026-04-11T13:37:11.336Z</time></trkpt><trkpt lat="43.0798657" lon="11.4981874"><ele>261.8</ele><time>2026-04-11T13:37:12.335Z</time></trkpt><trkpt lat="43.0799012" lon="11.498308"><ele>261.2</ele><time>2026-04-11T13:37:13.335Z</time></trkpt><trkpt lat="43.0799367" lon="11.4984239"><ele>260.6</ele><time>2026-04-11T13:37:14.335Z</time></trkpt><trkpt lat="43.0799724" lon="11.4985327"><ele>260.0</ele><time>2026-04-11T13:37:15.336Z</time></trkpt><trkpt lat="43.0800147" lon="11.4986333"><ele>261.6</ele><time>2026-04-11T13:37:16.336Z</time></trkpt><trkpt lat="43.080068" lon="11.4987271"><ele>263.2</ele><time>2026-04-11T13:37:17.336Z</time></trkpt><trkpt lat="43.0801284" lon="11.4988193"><ele>264.8</ele><time>2026-04-11T13:37:18.336Z</time></trkpt><trkpt lat="43.0802065" lon="11.4989299"><ele>266.4</ele><time>2026-04-11T13:37:19.335Z</time></trkpt><trkpt lat="43.0802943" lon="11.4990549"><ele>268.0</ele><time>2026-04-11T13:37:20.336Z</time></trkpt><trkpt lat="43.0803865" lon="11.4991888"><ele>268.0</ele><time>2026-04-11T13:37:21.335Z</time></trkpt><trkpt lat="43.0804847" lon="11.4993247"><ele>268.0</ele><time>2026-04-11T13:37:22.335Z</time></trkpt><trkpt lat="43.0805839" lon="11.4994656"><ele>268.0</ele><time>2026-04-11T13:37:23.336Z</time></trkpt><trkpt lat="43.0806854" lon="11.4996201"><ele>268.0</ele><time>2026-04-11T13:37:24.335Z</time></trkpt><trkpt lat="43.0807887" lon="11.4997877"><ele>268.0</ele><time>2026-04-11T13:37:25.335Z</time></trkpt><trkpt lat="43.080891" lon="11.4999472"><ele>268.0</ele><time>2026-04-11T13:37:26.335Z</time></trkpt><trkpt lat="43.0809957" lon="11.5000921"><ele>268.0</ele><time>2026-04-11T13:37:27.335Z</time></trkpt><trkpt lat="43.0810938" lon="11.5002067"><ele>268.0</ele><time>2026-04-11T13:37:28.336Z</time></trkpt><trkpt lat="43.081192" lon="11.5002898"><ele>268.0</ele><time>2026-04-11T13:37:29.335Z</time></trkpt><trkpt lat="43.0812896" lon="11.5003412"><ele>268.0</ele><time>2026-04-11T13:37:30.336Z</time></trkpt><trkpt lat="43.0813887" lon="11.5003696"><ele>268.0</ele><time>2026-04-11T13:37:31.336Z</time></trkpt><trkpt lat="43.081488" lon="11.5003856"><ele>268.0</ele><time>2026-04-11T13:37:32.336Z</time></trkpt><trkpt lat="43.0815856" lon="11.5004012"><ele>268.0</ele><time>2026-04-11T13:37:33.335Z</time></trkpt><trkpt lat="43.0816931" lon="11.5004181"><ele>267.75</ele><time>2026-04-11T13:37:34.336Z</time></trkpt><trkpt lat="43.0818104" lon="11.5004383"><ele>267.5</ele><time>2026-04-11T13:37:35.336Z</time></trkpt><trkpt lat="43.0819389" lon="11.5004658"><ele>267.25</ele><time>2026-04-11T13:37:36.335Z</time></trkpt><trkpt lat="43.0820752" lon="11.5005019"><ele>267.0</ele><time>2026-04-11T13:37:37.335Z</time></trkpt><trkpt lat="43.0822139" lon="11.5005435"><ele>267.0</ele><time>2026-04-11T13:37:38.335Z</time></trkpt><trkpt lat="43.0823579" lon="11.5005911"><ele>267.0</ele><time>2026-04-11T13:37:39.336Z</time></trkpt><trkpt lat="43.0825041" lon="11.5006533"><ele>267.0</ele><time>2026-04-11T13:37:40.336Z</time></trkpt><trkpt lat="43.082652" lon="11.5007221"><ele>268.0</ele><time>2026-04-11T13:37:41.336Z</time></trkpt><trkpt lat="43.0827987" lon="11.5007981"><ele>269.0</ele><time>2026-04-11T13:37:42.336Z</time></trkpt><trkpt lat="43.0829434" lon="11.5008782"><ele>270.0</ele><time>2026-04-11T13:37:43.336Z</time></trkpt><trkpt lat="43.0830867" lon="11.5009645"><ele>270.0</ele><time>2026-04-11T13:37:44.335Z</time></trkpt><trkpt lat="43.0832323" lon="11.5010526"><ele>270.0</ele><time>2026-04-11T13:37:45.336Z</time></trkpt><trkpt lat="43.0833807" lon="11.5011456"><ele>270.0</ele><time>2026-04-11T13:37:46.337Z</time></trkpt><trkpt lat="43.0835264" lon="11.5012374"><ele>269.0</ele><time>2026-04-11T13:37:47.335Z</time></trkpt><trkpt lat="43.083672" lon="11.5013223"><ele>268.0</ele><time>2026-04-11T13:37:48.336Z</time></trkpt><trkpt lat="43.0838152" lon="11.5014022"><ele>267.0</ele><time>2026-04-11T13:37:49.335Z</time></trkpt><trkpt lat="43.0839486" lon="11.5014784"><ele>267.0</ele><time>2026-04-11T13:37:50.335Z</time></trkpt><trkpt lat="43.0840642" lon="11.5015491"><ele>267.0</ele><time>2026-04-11T13:37:51.335Z</time></trkpt><trkpt lat="43.0841506" lon="11.5016046"><ele>267.0</ele><time>2026-04-11T13:37:52.335Z</time></trkpt><trkpt lat="43.0842084" lon="11.5016458"><ele>267.0</ele><time>2026-04-11T13:37:53.335Z</time></trkpt><trkpt lat="43.0843174" lon="11.5017199"><ele>267.0</ele><time>2026-04-11T13:37:55.336Z</time></trkpt><trkpt lat="43.0843807" lon="11.5017378"><ele>267.1666666666667</ele><time>2026-04-11T13:38:09.336Z</time></trkpt><trkpt lat="43.0843261" lon="11.5016937"><ele>267.3333333333333</ele><time>2026-04-11T13:38:44.337Z</time></trkpt><trkpt lat="43.0842642" lon="11.5017468"><ele>267.5</ele><time>2026-04-11T13:38:47.337Z</time></trkpt><trkpt lat="43.0842452" lon="11.5018337"><ele>267.66666666666663</ele><time>2026-04-11T13:38:49.337Z</time></trkpt><trkpt lat="43.0842073" lon="11.5019942"><ele>267.8333333333333</ele><time>2026-04-11T13:38:51.336Z</time></trkpt><trkpt lat="43.0841785" lon="11.5020936"><ele>268.0</ele><time>2026-04-11T13:38:52.337Z</time></trkpt><trkpt lat="43.0841463" lon="11.5021972"><ele>268.0</ele><time>2026-04-11T13:38:53.337Z</time></trkpt><trkpt lat="43.0841162" lon="11.5022964"><ele>268.0</ele><time>2026-04-11T13:38:54.336Z</time></trkpt><trkpt lat="43.0840893" lon="11.5023941"><ele>268.0</ele><time>2026-04-11T13:38:55.337Z</time></trkpt><trkpt lat="43.0840665" lon="11.5024966"><ele>268.0</ele><time>2026-04-11T13:38:56.337Z</time></trkpt><trkpt lat="43.0840501" lon="11.5026034"><ele>268.0</ele><time>2026-04-11T13:38:57.336Z</time></trkpt><trkpt lat="43.0840389" lon="11.5027226"><ele>268.0</ele><time>2026-04-11T13:38:58.336Z</time></trkpt><trkpt lat="43.0840286" lon="11.5028417"><ele>269.0</ele><time>2026-04-11T13:38:59.336Z</time></trkpt><trkpt lat="43.0840239" lon="11.5029695"><ele>270.0</ele><time>2026-04-11T13:39:00.336Z</time></trkpt><trkpt lat="43.0840277" lon="11.5030965"><ele>271.0</ele><time>2026-04-11T13:39:01.337Z</time></trkpt><trkpt lat="43.0840407" lon="11.5032283"><ele>272.0</ele><time>2026-04-11T13:39:02.337Z</time></trkpt><trkpt lat="43.0840516" lon="11.5033414"><ele>273.0</ele><time>2026-04-11T13:39:03.337Z</time></trkpt><trkpt lat="43.0840562" lon="11.5034453"><ele>274.0</ele><time>2026-04-11T13:39:04.336Z</time></trkpt><trkpt lat="43.0840509" lon="11.5035454"><ele>274.0</ele><time>2026-04-11T13:39:05.336Z</time></trkpt><trkpt lat="43.0840361" lon="11.5036518"><ele>274.0</ele><time>2026-04-11T13:39:06.336Z</time></trkpt><trkpt lat="43.0840087" lon="11.5037635"><ele>274.0</ele><time>2026-04-11T13:39:07.336Z</time></trkpt><trkpt lat="43.0839719" lon="11.5038846"><ele>274.0</ele><time>2026-04-11T13:39:08.337Z</time></trkpt><trkpt lat="43.0839245" lon="11.5040044"><ele>274.0</ele><time>2026-04-11T13:39:09.336Z</time></trkpt><trkpt lat="43.0838763" lon="11.5041077"><ele>274.8333333333333</ele><time>2026-04-11T13:39:10.336Z</time></trkpt><trkpt lat="43.083837" lon="11.504179"><ele>275.66666666666663</ele><time>2026-04-11T13:39:11.337Z</time></trkpt><trkpt lat="43.0837743" lon="11.5042603"><ele>276.5</ele><time>2026-04-11T13:39:13.337Z</time></trkpt><trkpt lat="43.0836862" lon="11.5043225"><ele>277.3333333333333</ele><time>2026-04-11T13:39:15.337Z</time></trkpt><trkpt lat="43.0835758" lon="11.5043395"><ele>278.1666666666667</ele><time>2026-04-11T13:39:17.338Z</time></trkpt><trkpt lat="43.083509" lon="11.504321"><ele>279.0</ele><time>2026-04-11T13:39:18.337Z</time></trkpt><trkpt lat="43.083437" lon="11.5042955"><ele>278.99999999999994</ele><time>2026-04-11T13:39:19.337Z</time></trkpt><trkpt lat="43.0833682" lon="11.5042708"><ele>279.0</ele><time>2026-04-11T13:39:20.338Z</time></trkpt><trkpt lat="43.0833007" lon="11.5042477"><ele>279.0</ele><time>2026-04-11T13:39:21.337Z</time></trkpt><trkpt lat="43.0832315" lon="11.504227"><ele>279.0</ele><time>2026-04-11T13:39:22.337Z</time></trkpt><trkpt lat="43.0831596" lon="11.5042308"><ele>279.0</ele><time>2026-04-11T13:39:23.337Z</time></trkpt><trkpt lat="43.0830937" lon="11.5042513"><ele>278.99999999999994</ele><time>2026-04-11T13:39:24.337Z</time></trkpt><trkpt lat="43.0830304" lon="11.5042906"><ele>279.0</ele><time>2026-04-11T13:39:25.338Z</time></trkpt><trkpt lat="43.0829702" lon="11.5043499"><ele>280.8</ele><time>2026-04-11T13:39:26.337Z</time></trkpt><trkpt lat="43.0829142" lon="11.5044268"><ele>282.59999999999997</ele><time>2026-04-11T13:39:27.337Z</time></trkpt><trkpt lat="43.0828607" lon="11.5045161"><ele>284.4</ele><time>2026-04-11T13:39:28.337Z</time></trkpt><trkpt lat="43.0828052" lon="11.504616"><ele>286.2</ele><time>2026-04-11T13:39:29.338Z</time></trkpt><trkpt lat="43.0827441" lon="11.5047197"><ele>288.0</ele><time>2026-04-11T13:39:30.337Z</time></trkpt><trkpt lat="43.0826811" lon="11.5048286"><ele>289.0</ele><time>2026-04-11T13:39:31.337Z</time></trkpt><trkpt lat="43.0826154" lon="11.5049427"><ele>290.0</ele><time>2026-04-11T13:39:32.338Z</time></trkpt><trkpt lat="43.0825499" lon="11.5050604"><ele>291.0</ele><time>2026-04-11T13:39:33.337Z</time></trkpt><trkpt lat="43.0824826" lon="11.505178"><ele>292.0</ele><time>2026-04-11T13:39:34.337Z</time></trkpt><trkpt lat="43.0824111" lon="11.5052996"><ele>293.0</ele><time>2026-04-11T13:39:35.337Z</time></trkpt><trkpt lat="43.0823372" lon="11.5054287"><ele>294.75</ele><time>2026-04-11T13:39:36.337Z</time></trkpt><trkpt lat="43.0822622" lon="11.5055582"><ele>296.5</ele><time>2026-04-11T13:39:37.338Z</time></trkpt><trkpt lat="43.0821836" lon="11.5056894"><ele>298.25</ele><time>2026-04-11T13:39:38.337Z</time></trkpt><trkpt lat="43.0821056" lon="11.505821"><ele>300.0</ele><time>2026-04-11T13:39:39.338Z</time></trkpt><trkpt lat="43.0820294" lon="11.505954"><ele>300.0</ele><time>2026-04-11T13:39:40.338Z</time></trkpt><trkpt lat="43.0819539" lon="11.5060838"><ele>300.0</ele><time>2026-04-11T13:39:41.338Z</time></trkpt><trkpt lat="43.0818785" lon="11.5062098"><ele>300.0</ele><time>2026-04-11T13:39:42.337Z</time></trkpt><trkpt lat="43.0818074" lon="11.5063352"><ele>300.0</ele><time>2026-04-11T13:39:43.337Z</time></trkpt><trkpt lat="43.0817375" lon="11.5064547"><ele>300.0</ele><time>2026-04-11T13:39:44.338Z</time></trkpt><trkpt lat="43.081667" lon="11.5065727"><ele>300.0</ele><time>2026-04-11T13:39:45.337Z</time></trkpt><trkpt lat="43.081598" lon="11.5066924"><ele>300.0</ele><time>2026-04-11T13:39:46.337Z</time></trkpt><trkpt lat="43.0815274" lon="11.5068134"><ele>300.0</ele><time>2026-04-11T13:39:47.337Z</time></trkpt><trkpt lat="43.0814554" lon="11.5069351"><ele>299.25</ele><time>2026-04-11T13:39:48.338Z</time></trkpt><trkpt lat="43.0813816" lon="11.5070598"><ele>298.5</ele><time>2026-04-11T13:39:49.337Z</time></trkpt><trkpt lat="43.0813068" lon="11.5071823"><ele>297.75</ele><time>2026-04-11T13:39:50.337Z</time></trkpt><trkpt lat="43.0812281" lon="11.5073101"><ele>297.0</ele><time>2026-04-11T13:39:51.337Z</time></trkpt><trkpt lat="43.0811481" lon="11.5074469"><ele>299.25</ele><time>2026-04-11T13:39:52.338Z</time></trkpt><trkpt lat="43.0810626" lon="11.5076011"><ele>301.5</ele><time>2026-04-11T13:39:53.338Z</time></trkpt><trkpt lat="43.0809691" lon="11.5077643"><ele>303.75</ele><time>2026-04-11T13:39:54.338Z</time></trkpt><trkpt lat="43.0808739" lon="11.5079312"><ele>306.0</ele><time>2026-04-11T13:39:55.338Z</time></trkpt><trkpt lat="43.0807812" lon="11.5080927"><ele>306.25</ele><time>2026-04-11T13:39:56.337Z</time></trkpt><trkpt lat="43.0806934" lon="11.5082415"><ele>306.5</ele><time>2026-04-11T13:39:57.337Z</time></trkpt><trkpt lat="43.0806104" lon="11.5083832"><ele>306.75</ele><time>2026-04-11T13:39:58.338Z</time></trkpt><trkpt lat="43.0805405" lon="11.5085125"><ele>307.0</ele><time>2026-04-11T13:39:59.338Z</time></trkpt><trkpt lat="43.0804714" lon="11.5086433"><ele>306.5</ele><time>2026-04-11T13:40:00.338Z</time></trkpt><trkpt lat="43.0804008" lon="11.5087802"><ele>306.0</ele><time>2026-04-11T13:40:01.338Z</time></trkpt><trkpt lat="43.0803299" lon="11.5089262"><ele>305.5</ele><time>2026-04-11T13:40:02.337Z</time></trkpt><trkpt lat="43.0802629" lon="11.5090736"><ele>305.0</ele><time>2026-04-11T13:40:03.338Z</time></trkpt><trkpt lat="43.0802003" lon="11.5092207"><ele>305.0</ele><time>2026-04-11T13:40:04.338Z</time></trkpt><trkpt lat="43.0801373" lon="11.5093648"><ele>305.0</ele><time>2026-04-11T13:40:05.338Z</time></trkpt><trkpt lat="43.0800787" lon="11.5095026"><ele>305.0</ele><time>2026-04-11T13:40:06.338Z</time></trkpt><trkpt lat="43.0800237" lon="11.5096368"><ele>305.0</ele><time>2026-04-11T13:40:07.338Z</time></trkpt><trkpt lat="43.0799785" lon="11.5097622"><ele>305.5</ele><time>2026-04-11T13:40:08.337Z</time></trkpt><trkpt lat="43.0799452" lon="11.5098718"><ele>306.0</ele><time>2026-04-11T13:40:09.338Z</time></trkpt><trkpt lat="43.0799219" lon="11.5099867"><ele>306.5</ele><time>2026-04-11T13:40:10.338Z</time></trkpt><trkpt lat="43.0799088" lon="11.5101088"><ele>307.0</ele><time>2026-04-11T13:40:11.339Z</time></trkpt><trkpt lat="43.0799058" lon="11.5102348"><ele>307.5</ele><time>2026-04-11T13:40:12.338Z</time></trkpt><trkpt lat="43.0799102" lon="11.5103589"><ele>308.0</ele><time>2026-04-11T13:40:13.337Z</time></trkpt><trkpt lat="43.0799195" lon="11.5104831"><ele>308.6</ele><time>2026-04-11T13:40:14.338Z</time></trkpt><trkpt lat="43.0799291" lon="11.5106051"><ele>309.20000000000005</ele><time>2026-04-11T13:40:15.337Z</time></trkpt><trkpt lat="43.0799353" lon="11.5107235"><ele>309.8</ele><time>2026-04-11T13:40:16.338Z</time></trkpt><trkpt lat="43.0799403" lon="11.5108409"><ele>310.40000000000003</ele><time>2026-04-11T13:40:17.337Z</time></trkpt><trkpt lat="43.0799469" lon="11.5109641"><ele>311.0</ele><time>2026-04-11T13:40:18.339Z</time></trkpt><trkpt lat="43.0799583" lon="11.5110994"><ele>311.0</ele><time>2026-04-11T13:40:19.338Z</time></trkpt><trkpt lat="43.0799799" lon="11.511239"><ele>311.0</ele><time>2026-04-11T13:40:20.337Z</time></trkpt><trkpt lat="43.0800121" lon="11.5113753"><ele>311.0</ele><time>2026-04-11T13:40:21.339Z</time></trkpt><trkpt lat="43.0800486" lon="11.5115081"><ele>311.0</ele><time>2026-04-11T13:40:22.338Z</time></trkpt><trkpt lat="43.0801065" lon="11.5116373"><ele>311.0</ele><time>2026-04-11T13:40:23.338Z</time></trkpt><trkpt lat="43.0801744" lon="11.5117669"><ele>310.75</ele><time>2026-04-11T13:40:24.339Z</time></trkpt><trkpt lat="43.0802431" lon="11.5118974"><ele>310.5</ele><time>2026-04-11T13:40:25.339Z</time></trkpt><trkpt lat="43.0803156" lon="11.5120306"><ele>310.25</ele><time>2026-04-11T13:40:26.338Z</time></trkpt><trkpt lat="43.0803929" lon="11.5121682"><ele>310.0</ele><time>2026-04-11T13:40:27.338Z</time></trkpt><trkpt lat="43.0804712" lon="11.5123067"><ele>310.5</ele><time>2026-04-11T13:40:28.338Z</time></trkpt><trkpt lat="43.0805475" lon="11.5124442"><ele>311.0</ele><time>2026-04-11T13:40:29.339Z</time></trkpt><trkpt lat="43.0806226" lon="11.5125852"><ele>311.5</ele><time>2026-04-11T13:40:30.339Z</time></trkpt><trkpt lat="43.0806923" lon="11.5127191"><ele>312.0</ele><time>2026-04-11T13:40:31.339Z</time></trkpt><trkpt lat="43.080759" lon="11.5128473"><ele>314.4</ele><time>2026-04-11T13:40:32.339Z</time></trkpt><trkpt lat="43.0808279" lon="11.5129622"><ele>316.79999999999995</ele><time>2026-04-11T13:40:33.339Z</time></trkpt><trkpt lat="43.0808987" lon="11.5130575"><ele>319.2</ele><time>2026-04-11T13:40:34.338Z</time></trkpt><trkpt lat="43.0809733" lon="11.5131292"><ele>321.59999999999997</ele><time>2026-04-11T13:40:35.339Z</time></trkpt><trkpt lat="43.081052" lon="11.5131752"><ele>324.0</ele><time>2026-04-11T13:40:36.338Z</time></trkpt><trkpt lat="43.0811352" lon="11.5131949"><ele>324.0</ele><time>2026-04-11T13:40:37.339Z</time></trkpt><trkpt lat="43.0812249" lon="11.5131953"><ele>324.0</ele><time>2026-04-11T13:40:38.339Z</time></trkpt><trkpt lat="43.0813193" lon="11.5131871"><ele>324.0</ele><time>2026-04-11T13:40:39.338Z</time></trkpt><trkpt lat="43.0814172" lon="11.5131794"><ele>324.0</ele><time>2026-04-11T13:40:40.339Z</time></trkpt><trkpt lat="43.0815095" lon="11.5131976"><ele>324.0</ele><time>2026-04-11T13:40:41.338Z</time></trkpt><trkpt lat="43.0816011" lon="11.5132431"><ele>324.6</ele><time>2026-04-11T13:40:42.339Z</time></trkpt><trkpt lat="43.0816889" lon="11.5133163"><ele>325.2</ele><time>2026-04-11T13:40:43.339Z</time></trkpt><trkpt lat="43.0817716" lon="11.51341"><ele>325.8</ele><time>2026-04-11T13:40:44.339Z</time></trkpt><trkpt lat="43.0818553" lon="11.5135159"><ele>326.40000000000003</ele><time>2026-04-11T13:40:45.338Z</time></trkpt><trkpt lat="43.0819414" lon="11.5136295"><ele>327.0</ele><time>2026-04-11T13:40:46.339Z</time></trkpt><trkpt lat="43.0820232" lon="11.51375"><ele>327.25</ele><time>2026-04-11T13:40:47.339Z</time></trkpt><trkpt lat="43.0821079" lon="11.5138747"><ele>327.5</ele><time>2026-04-11T13:40:48.338Z</time></trkpt><trkpt lat="43.082194" lon="11.5139989"><ele>327.75</ele><time>2026-04-11T13:40:49.339Z</time></trkpt><trkpt lat="43.0822856" lon="11.5141212"><ele>328.0</ele><time>2026-04-11T13:40:50.339Z</time></trkpt><trkpt lat="43.0823808" lon="11.5142378"><ele>327.75</ele><time>2026-04-11T13:40:51.339Z</time></trkpt><trkpt lat="43.0824787" lon="11.514348"><ele>327.5</ele><time>2026-04-11T13:40:52.338Z</time></trkpt><trkpt lat="43.0825826" lon="11.5144467"><ele>327.25</ele><time>2026-04-11T13:40:53.339Z</time></trkpt><trkpt lat="43.0826884" lon="11.5145457"><ele>327.0</ele><time>2026-04-11T13:40:54.338Z</time></trkpt><trkpt lat="43.0827964" lon="11.5146381"><ele>327.0</ele><time>2026-04-11T13:40:55.338Z</time></trkpt><trkpt lat="43.0829019" lon="11.5147286"><ele>327.0</ele><time>2026-04-11T13:40:56.338Z</time></trkpt><trkpt lat="43.0830068" lon="11.5148118"><ele>327.0</ele><time>2026-04-11T13:40:57.338Z</time></trkpt><trkpt lat="43.0831095" lon="11.5148862"><ele>327.0</ele><time>2026-04-11T13:40:58.338Z</time></trkpt><trkpt lat="43.0832176" lon="11.5149466"><ele>326.40000000000003</ele><time>2026-04-11T13:40:59.338Z</time></trkpt><trkpt lat="43.0833245" lon="11.5149937"><ele>325.8</ele><time>2026-04-11T13:41:00.338Z</time></trkpt><trkpt lat="43.0834337" lon="11.5150295"><ele>325.2</ele><time>2026-04-11T13:41:01.338Z</time></trkpt><trkpt lat="43.0835391" lon="11.5150614"><ele>324.6</ele><time>2026-04-11T13:41:02.338Z</time></trkpt><trkpt lat="43.0836364" lon="11.5150828"><ele>324.0</ele><time>2026-04-11T13:41:03.338Z</time></trkpt><trkpt lat="43.0837329" lon="11.5150971"><ele>324.0</ele><time>2026-04-11T13:41:04.339Z</time></trkpt><trkpt lat="43.0838237" lon="11.5150917"><ele>324.0</ele><time>2026-04-11T13:41:05.338Z</time></trkpt><trkpt lat="43.0839194" lon="11.5150736"><ele>324.0</ele><time>2026-04-11T13:41:06.338Z</time></trkpt><trkpt lat="43.084012" lon="11.5150379"><ele>324.0</ele><time>2026-04-11T13:41:07.339Z</time></trkpt><trkpt lat="43.0841048" lon="11.514984"><ele>324.0</ele><time>2026-04-11T13:41:08.338Z</time></trkpt><trkpt lat="43.0841959" lon="11.5149261"><ele>323.25</ele><time>2026-04-11T13:41:09.339Z</time></trkpt><trkpt lat="43.0842956" lon="11.5148806"><ele>322.5</ele><time>2026-04-11T13:41:10.338Z</time></trkpt><trkpt lat="43.0844047" lon="11.5148551"><ele>321.75</ele><time>2026-04-11T13:41:11.339Z</time></trkpt><trkpt lat="43.0845241" lon="11.5148448"><ele>321.0</ele><time>2026-04-11T13:41:12.339Z</time></trkpt><trkpt lat="43.0846507" lon="11.514845"><ele>321.0</ele><time>2026-04-11T13:41:13.338Z</time></trkpt><trkpt lat="43.0847809" lon="11.5148494"><ele>321.0</ele><time>2026-04-11T13:41:14.338Z</time></trkpt><trkpt lat="43.0849076" lon="11.5148547"><ele>321.0</ele><time>2026-04-11T13:41:15.338Z</time></trkpt><trkpt lat="43.0850307" lon="11.5148607"><ele>321.0</ele><time>2026-04-11T13:41:16.338Z</time></trkpt><trkpt lat="43.0851464" lon="11.5148672"><ele>320.2</ele><time>2026-04-11T13:41:17.338Z</time></trkpt><trkpt lat="43.085258" lon="11.5148836"><ele>319.40000000000003</ele><time>2026-04-11T13:41:18.339Z</time></trkpt><trkpt lat="43.0853651" lon="11.5149165"><ele>318.6</ele><time>2026-04-11T13:41:19.338Z</time></trkpt><trkpt lat="43.0854667" lon="11.5149705"><ele>317.8</ele><time>2026-04-11T13:41:20.338Z</time></trkpt><trkpt lat="43.08556" lon="11.5150417"><ele>317.0</ele><time>2026-04-11T13:41:21.339Z</time></trkpt><trkpt lat="43.085642" lon="11.5151326"><ele>317.0</ele><time>2026-04-11T13:41:22.338Z</time></trkpt><trkpt lat="43.0857152" lon="11.5152414"><ele>317.0</ele><time>2026-04-11T13:41:23.339Z</time></trkpt><trkpt lat="43.0857852" lon="11.5153522"><ele>317.0</ele><time>2026-04-11T13:41:24.339Z</time></trkpt><trkpt lat="43.0858569" lon="11.5154467"><ele>317.0</ele><time>2026-04-11T13:41:25.338Z</time></trkpt><trkpt lat="43.0859303" lon="11.5155244"><ele>317.0</ele><time>2026-04-11T13:41:26.338Z</time></trkpt><trkpt lat="43.0860059" lon="11.5155914"><ele>316.1666666666667</ele><time>2026-04-11T13:41:27.338Z</time></trkpt><trkpt lat="43.0860825" lon="11.5156542"><ele>315.33333333333337</ele><time>2026-04-11T13:41:28.339Z</time></trkpt><trkpt lat="43.0861583" lon="11.5157204"><ele>314.5</ele><time>2026-04-11T13:41:29.339Z</time></trkpt><trkpt lat="43.0862289" lon="11.5157952"><ele>313.6666666666667</ele><time>2026-04-11T13:41:30.339Z</time></trkpt><trkpt lat="43.0862906" lon="11.515878"><ele>312.8333333333333</ele><time>2026-04-11T13:41:31.339Z</time></trkpt><trkpt lat="43.0863465" lon="11.515967"><ele>312.0</ele><time>2026-04-11T13:41:32.339Z</time></trkpt><trkpt lat="43.0863998" lon="11.51606"><ele>312.0</ele><time>2026-04-11T13:41:33.34Z</time></trkpt><trkpt lat="43.0864479" lon="11.5161565"><ele>312.0</ele><time>2026-04-11T13:41:34.34Z</time></trkpt><trkpt lat="43.0864889" lon="11.5162557"><ele>312.0</ele><time>2026-04-11T13:41:35.339Z</time></trkpt><trkpt lat="43.0865208" lon="11.5163595"><ele>312.0</ele><time>2026-04-11T13:41:36.339Z</time></trkpt><trkpt lat="43.0865448" lon="11.5164745"><ele>312.0</ele><time>2026-04-11T13:41:37.34Z</time></trkpt><trkpt lat="43.0865607" lon="11.5165995"><ele>312.0</ele><time>2026-04-11T13:41:38.34Z</time></trkpt><trkpt lat="43.0865651" lon="11.5167335"><ele>310.0</ele><time>2026-04-11T13:41:39.339Z</time></trkpt><trkpt lat="43.086561" lon="11.5168785"><ele>308.0</ele><time>2026-04-11T13:41:40.339Z</time></trkpt><trkpt lat="43.086549" lon="11.5170308"><ele>306.0</ele><time>2026-04-11T13:41:41.34Z</time></trkpt><trkpt lat="43.0865344" lon="11.5171876"><ele>304.0</ele><time>2026-04-11T13:41:42.339Z</time></trkpt><trkpt lat="43.086519" lon="11.5173479"><ele>302.75</ele><time>2026-04-11T13:41:43.339Z</time></trkpt><trkpt lat="43.0865038" lon="11.5175135"><ele>301.5</ele><time>2026-04-11T13:41:44.339Z</time></trkpt><trkpt lat="43.0864882" lon="11.5176846"><ele>300.25</ele><time>2026-04-11T13:41:45.339Z</time></trkpt><trkpt lat="43.0864716" lon="11.5178601"><ele>299.0</ele><time>2026-04-11T13:41:46.339Z</time></trkpt><trkpt lat="43.0864549" lon="11.5180376"><ele>298.25</ele><time>2026-04-11T13:41:47.34Z</time></trkpt><trkpt lat="43.0864375" lon="11.5182192"><ele>297.5</ele><time>2026-04-11T13:41:48.34Z</time></trkpt><trkpt lat="43.0864202" lon="11.5184035"><ele>296.75</ele><time>2026-04-11T13:41:49.34Z</time></trkpt><trkpt lat="43.0864035" lon="11.5185891"><ele>296.0</ele><time>2026-04-11T13:41:50.34Z</time></trkpt><trkpt lat="43.0863846" lon="11.5187721"><ele>295.5</ele><time>2026-04-11T13:41:51.34Z</time></trkpt><trkpt lat="43.0863649" lon="11.5189495"><ele>295.0</ele><time>2026-04-11T13:41:52.339Z</time></trkpt><trkpt lat="43.0863465" lon="11.5191194"><ele>294.5</ele><time>2026-04-11T13:41:53.34Z</time></trkpt><trkpt lat="43.0863279" lon="11.5192841"><ele>294.0</ele><time>2026-04-11T13:41:54.339Z</time></trkpt><trkpt lat="43.086309" lon="11.5194522"><ele>294.5</ele><time>2026-04-11T13:41:55.339Z</time></trkpt><trkpt lat="43.0862894" lon="11.5196229"><ele>295.0</ele><time>2026-04-11T13:41:56.339Z</time></trkpt><trkpt lat="43.0862712" lon="11.5197838"><ele>295.5</ele><time>2026-04-11T13:41:57.339Z</time></trkpt><trkpt lat="43.0862545" lon="11.5199374"><ele>296.0</ele><time>2026-04-11T13:41:58.34Z</time></trkpt><trkpt lat="43.0862367" lon="11.5200832"><ele>296.0</ele><time>2026-04-11T13:41:59.339Z</time></trkpt><trkpt lat="43.0862153" lon="11.5202228"><ele>296.0</ele><time>2026-04-11T13:42:00.34Z</time></trkpt><trkpt lat="43.0861883" lon="11.5203624"><ele>296.0</ele><time>2026-04-11T13:42:01.34Z</time></trkpt><trkpt lat="43.0861528" lon="11.5205006"><ele>296.0</ele><time>2026-04-11T13:42:02.34Z</time></trkpt><trkpt lat="43.0861071" lon="11.520636"><ele>296.0</ele><time>2026-04-11T13:42:03.339Z</time></trkpt><trkpt lat="43.0860513" lon="11.5207677"><ele>295.5</ele><time>2026-04-11T13:42:04.342Z</time></trkpt><trkpt lat="43.0859851" lon="11.5208925"><ele>295.0</ele><time>2026-04-11T13:42:05.34Z</time></trkpt><trkpt lat="43.0859097" lon="11.5210072"><ele>294.5</ele><time>2026-04-11T13:42:06.34Z</time></trkpt><trkpt lat="43.0858264" lon="11.5211109"><ele>294.0</ele><time>2026-04-11T13:42:07.339Z</time></trkpt><trkpt lat="43.0857331" lon="11.521207"><ele>295.0</ele><time>2026-04-11T13:42:08.34Z</time></trkpt><trkpt lat="43.0856305" lon="11.5212968"><ele>296.0</ele><time>2026-04-11T13:42:09.339Z</time></trkpt><trkpt lat="43.0855232" lon="11.5213785"><ele>297.0</ele><time>2026-04-11T13:42:10.339Z</time></trkpt><trkpt lat="43.0854123" lon="11.52145"><ele>298.0</ele><time>2026-04-11T13:42:11.339Z</time></trkpt><trkpt lat="43.0852993" lon="11.5215076"><ele>298.0</ele><time>2026-04-11T13:42:12.34Z</time></trkpt><trkpt lat="43.0851844" lon="11.5215558"><ele>298.0</ele><time>2026-04-11T13:42:13.339Z</time></trkpt><trkpt lat="43.0850661" lon="11.5216013"><ele>298.0</ele><time>2026-04-11T13:42:14.34Z</time></trkpt><trkpt lat="43.0849447" lon="11.5216475"><ele>298.0</ele><time>2026-04-11T13:42:15.34Z</time></trkpt><trkpt lat="43.08482" lon="11.521698"><ele>297.25</ele><time>2026-04-11T13:42:16.34Z</time></trkpt><trkpt lat="43.0846935" lon="11.5217535"><ele>296.5</ele><time>2026-04-11T13:42:17.34Z</time></trkpt><trkpt lat="43.0845626" lon="11.5218142"><ele>295.75</ele><time>2026-04-11T13:42:18.34Z</time></trkpt><trkpt lat="43.0844296" lon="11.5218788"><ele>295.0</ele><time>2026-04-11T13:42:19.339Z</time></trkpt><trkpt lat="43.0842979" lon="11.521944"><ele>295.0</ele><time>2026-04-11T13:42:20.34Z</time></trkpt><trkpt lat="43.0841702" lon="11.5220089"><ele>295.0</ele><time>2026-04-11T13:42:21.339Z</time></trkpt><trkpt lat="43.084046" lon="11.5220728"><ele>295.0</ele><time>2026-04-11T13:42:22.339Z</time></trkpt><trkpt lat="43.083926" lon="11.522141"><ele>295.0</ele><time>2026-04-11T13:42:23.339Z</time></trkpt><trkpt lat="43.0838151" lon="11.5222166"><ele>296.0</ele><time>2026-04-11T13:42:24.339Z</time></trkpt><trkpt lat="43.0837145" lon="11.5223058"><ele>297.0</ele><time>2026-04-11T13:42:25.34Z</time></trkpt><trkpt lat="43.0836258" lon="11.5224131"><ele>298.0</ele><time>2026-04-11T13:42:26.34Z</time></trkpt><trkpt lat="43.0835507" lon="11.52254"><ele>299.0</ele><time>2026-04-11T13:42:27.339Z</time></trkpt><trkpt lat="43.0834892" lon="11.522683"><ele>299.0</ele><time>2026-04-11T13:42:28.34Z</time></trkpt><trkpt lat="43.0834379" lon="11.5228394"><ele>299.0</ele><time>2026-04-11T13:42:29.339Z</time></trkpt><trkpt lat="43.0833932" lon="11.5230077"><ele>299.0</ele><time>2026-04-11T13:42:30.34Z</time></trkpt><trkpt lat="43.0833523" lon="11.5231798"><ele>299.0</ele><time>2026-04-11T13:42:31.339Z</time></trkpt><trkpt lat="43.0833145" lon="11.5233395"><ele>299.0</ele><time>2026-04-11T13:42:32.341Z</time></trkpt><trkpt lat="43.0832824" lon="11.5234855"><ele>299.0</ele><time>2026-04-11T13:42:33.34Z</time></trkpt><trkpt lat="43.0832548" lon="11.5236239"><ele>299.0</ele><time>2026-04-11T13:42:34.341Z</time></trkpt><trkpt lat="43.0832268" lon="11.5237431"><ele>299.0</ele><time>2026-04-11T13:42:35.34Z</time></trkpt><trkpt lat="43.0831909" lon="11.5238474"><ele>299.0</ele><time>2026-04-11T13:42:36.341Z</time></trkpt><trkpt lat="43.0831427" lon="11.5239417"><ele>298.59999999999997</ele><time>2026-04-11T13:42:37.34Z</time></trkpt><trkpt lat="43.0830799" lon="11.5240254"><ele>298.2</ele><time>2026-04-11T13:42:38.341Z</time></trkpt><trkpt lat="43.0829996" lon="11.5240998"><ele>297.79999999999995</ele><time>2026-04-11T13:42:39.341Z</time></trkpt><trkpt lat="43.0829125" lon="11.5241665"><ele>297.4</ele><time>2026-04-11T13:42:40.341Z</time></trkpt><trkpt lat="43.082801" lon="11.5242256"><ele>297.0</ele><time>2026-04-11T13:42:41.341Z</time></trkpt><trkpt lat="43.0826857" lon="11.5242901"><ele>297.0</ele><time>2026-04-11T13:42:42.341Z</time></trkpt><trkpt lat="43.0825679" lon="11.5243718"><ele>297.0</ele><time>2026-04-11T13:42:43.34Z</time></trkpt><trkpt lat="43.0824506" lon="11.5244668"><ele>297.0</ele><time>2026-04-11T13:42:44.341Z</time></trkpt><trkpt lat="43.0823364" lon="11.5245782"><ele>297.0</ele><time>2026-04-11T13:42:45.34Z</time></trkpt><trkpt lat="43.0822275" lon="11.5247065"><ele>295.75</ele><time>2026-04-11T13:42:46.341Z</time></trkpt><trkpt lat="43.0821203" lon="11.5248399"><ele>294.5</ele><time>2026-04-11T13:42:47.341Z</time></trkpt><trkpt lat="43.0820133" lon="11.5249772"><ele>293.25</ele><time>2026-04-11T13:42:48.34Z</time></trkpt><trkpt lat="43.0819068" lon="11.5251169"><ele>292.0</ele><time>2026-04-11T13:42:49.341Z</time></trkpt><trkpt lat="43.0817985" lon="11.5252594"><ele>291.75</ele><time>2026-04-11T13:42:50.341Z</time></trkpt><trkpt lat="43.0816926" lon="11.5253992"><ele>291.5</ele><time>2026-04-11T13:42:51.341Z</time></trkpt><trkpt lat="43.0815965" lon="11.5255362"><ele>291.25</ele><time>2026-04-11T13:42:52.341Z</time></trkpt><trkpt lat="43.0815114" lon="11.5256733"><ele>291.0</ele><time>2026-04-11T13:42:53.34Z</time></trkpt><trkpt lat="43.0814373" lon="11.5258152"><ele>291.5</ele><time>2026-04-11T13:42:54.341Z</time></trkpt><trkpt lat="43.0813701" lon="11.5259628"><ele>292.0</ele><time>2026-04-11T13:42:55.34Z</time></trkpt><trkpt lat="43.0813083" lon="11.5261126"><ele>292.5</ele><time>2026-04-11T13:42:56.34Z</time></trkpt><trkpt lat="43.0812488" lon="11.5262625"><ele>293.0</ele><time>2026-04-11T13:42:57.341Z</time></trkpt><trkpt lat="43.0811904" lon="11.5264145"><ele>293.75</ele><time>2026-04-11T13:42:58.34Z</time></trkpt><trkpt lat="43.08113" lon="11.5265696"><ele>294.5</ele><time>2026-04-11T13:42:59.341Z</time></trkpt><trkpt lat="43.0810673" lon="11.5267296"><ele>295.25</ele><time>2026-04-11T13:43:00.34Z</time></trkpt><trkpt lat="43.081003" lon="11.5268927"><ele>296.0</ele><time>2026-04-11T13:43:01.34Z</time></trkpt><trkpt lat="43.0809384" lon="11.5270588"><ele>296.5</ele><time>2026-04-11T13:43:02.34Z</time></trkpt><trkpt lat="43.0808726" lon="11.5272272"><ele>297.0</ele><time>2026-04-11T13:43:03.341Z</time></trkpt><trkpt lat="43.0808053" lon="11.5273965"><ele>297.5</ele><time>2026-04-11T13:43:04.341Z</time></trkpt><trkpt lat="43.0807375" lon="11.5275679"><ele>298.0</ele><time>2026-04-11T13:43:05.34Z</time></trkpt><trkpt lat="43.0806696" lon="11.5277404"><ele>302.0</ele><time>2026-04-11T13:43:06.341Z</time></trkpt><trkpt lat="43.0806019" lon="11.5279112"><ele>306.0</ele><time>2026-04-11T13:43:07.34Z</time></trkpt><trkpt lat="43.0805371" lon="11.5280747"><ele>310.0</ele><time>2026-04-11T13:43:08.34Z</time></trkpt><trkpt lat="43.0804754" lon="11.5282325"><ele>314.0</ele><time>2026-04-11T13:43:09.341Z</time></trkpt><trkpt lat="43.0804162" lon="11.5283879"><ele>314.0</ele><time>2026-04-11T13:43:10.34Z</time></trkpt><trkpt lat="43.0803596" lon="11.5285409"><ele>314.0</ele><time>2026-04-11T13:43:11.34Z</time></trkpt><trkpt lat="43.0803023" lon="11.5286962"><ele>314.0</ele><time>2026-04-11T13:43:12.341Z</time></trkpt><trkpt lat="43.0802434" lon="11.5288589"><ele>314.0</ele><time>2026-04-11T13:43:13.341Z</time></trkpt><trkpt lat="43.0801887" lon="11.5290326"><ele>312.75</ele><time>2026-04-11T13:43:14.341Z</time></trkpt><trkpt lat="43.0801389" lon="11.5292134"><ele>311.5</ele><time>2026-04-11T13:43:15.34Z</time></trkpt><trkpt lat="43.0800955" lon="11.5293911"><ele>310.25</ele><time>2026-04-11T13:43:16.341Z</time></trkpt><trkpt lat="43.0800571" lon="11.529567"><ele>309.0</ele><time>2026-04-11T13:43:17.34Z</time></trkpt><trkpt lat="43.0800281" lon="11.5297482"><ele>308.25</ele><time>2026-04-11T13:43:18.34Z</time></trkpt><trkpt lat="43.080011" lon="11.5299344"><ele>307.5</ele><time>2026-04-11T13:43:19.34Z</time></trkpt><trkpt lat="43.0800035" lon="11.5301272"><ele>306.75</ele><time>2026-04-11T13:43:20.341Z</time></trkpt><trkpt lat="43.0800008" lon="11.5303151"><ele>306.0</ele><time>2026-04-11T13:43:21.34Z</time></trkpt><trkpt lat="43.080005" lon="11.530508"><ele>305.75</ele><time>2026-04-11T13:43:22.34Z</time></trkpt><trkpt lat="43.0800128" lon="11.5307007"><ele>305.5</ele><time>2026-04-11T13:43:23.34Z</time></trkpt><trkpt lat="43.0800137" lon="11.530892"><ele>305.25</ele><time>2026-04-11T13:43:24.341Z</time></trkpt><trkpt lat="43.080005" lon="11.5310826"><ele>305.0</ele><time>2026-04-11T13:43:25.34Z</time></trkpt><trkpt lat="43.0799842" lon="11.5312686"><ele>305.0</ele><time>2026-04-11T13:43:26.341Z</time></trkpt><trkpt lat="43.079953" lon="11.5314488"><ele>305.0</ele><time>2026-04-11T13:43:27.341Z</time></trkpt><trkpt lat="43.0799056" lon="11.5316244"><ele>305.0</ele><time>2026-04-11T13:43:28.341Z</time></trkpt><trkpt lat="43.0798417" lon="11.5317954"><ele>305.0</ele><time>2026-04-11T13:43:29.34Z</time></trkpt><trkpt lat="43.079771" lon="11.5319642"><ele>304.75</ele><time>2026-04-11T13:43:30.34Z</time></trkpt><trkpt lat="43.0797028" lon="11.5321194"><ele>304.5</ele><time>2026-04-11T13:43:31.341Z</time></trkpt><trkpt lat="43.0796468" lon="11.5322635"><ele>304.25</ele><time>2026-04-11T13:43:32.341Z</time></trkpt><trkpt lat="43.079612" lon="11.5324077"><ele>304.0</ele><time>2026-04-11T13:43:33.341Z</time></trkpt><trkpt lat="43.0796031" lon="11.5325431"><ele>304.0</ele><time>2026-04-11T13:43:34.341Z</time></trkpt><trkpt lat="43.0796225" lon="11.5326708"><ele>304.0</ele><time>2026-04-11T13:43:35.34Z</time></trkpt><trkpt lat="43.0796663" lon="11.5327861"><ele>304.0</ele><time>2026-04-11T13:43:36.34Z</time></trkpt><trkpt lat="43.0797182" lon="11.5329077"><ele>304.0</ele><time>2026-04-11T13:43:37.342Z</time></trkpt><trkpt lat="43.0797652" lon="11.5330415"><ele>304.0</ele><time>2026-04-11T13:43:38.342Z</time></trkpt><trkpt lat="43.0798013" lon="11.5331889"><ele>305.59999999999997</ele><time>2026-04-11T13:43:39.342Z</time></trkpt><trkpt lat="43.0798231" lon="11.5333292"><ele>307.2</ele><time>2026-04-11T13:43:40.341Z</time></trkpt><trkpt lat="43.0798245" lon="11.5334626"><ele>308.79999999999995</ele><time>2026-04-11T13:43:41.341Z</time></trkpt><trkpt lat="43.0797941" lon="11.5335953"><ele>310.4</ele><time>2026-04-11T13:43:42.341Z</time></trkpt><trkpt lat="43.0797477" lon="11.5337269"><ele>312.0</ele><time>2026-04-11T13:43:43.342Z</time></trkpt><trkpt lat="43.0797187" lon="11.5338729"><ele>313.25</ele><time>2026-04-11T13:43:44.341Z</time></trkpt><trkpt lat="43.0797188" lon="11.5340325"><ele>314.5</ele><time>2026-04-11T13:43:45.341Z</time></trkpt><trkpt lat="43.0797389" lon="11.5341938"><ele>315.75</ele><time>2026-04-11T13:43:46.342Z</time></trkpt><trkpt lat="43.0797751" lon="11.5343652"><ele>317.0</ele><time>2026-04-11T13:43:47.341Z</time></trkpt><trkpt lat="43.0798204" lon="11.5345327"><ele>317.5</ele><time>2026-04-11T13:43:48.342Z</time></trkpt><trkpt lat="43.0798649" lon="11.5346825"><ele>318.0</ele><time>2026-04-11T13:43:49.342Z</time></trkpt><trkpt lat="43.0799135" lon="11.5348242"><ele>318.5</ele><time>2026-04-11T13:43:50.341Z</time></trkpt><trkpt lat="43.0799695" lon="11.5349594"><ele>319.0</ele><time>2026-04-11T13:43:51.341Z</time></trkpt><trkpt lat="43.0800384" lon="11.5350817"><ele>317.4</ele><time>2026-04-11T13:43:52.342Z</time></trkpt><trkpt lat="43.0801166" lon="11.5351879"><ele>315.79999999999995</ele><time>2026-04-11T13:43:53.341Z</time></trkpt><trkpt lat="43.0801907" lon="11.5352787"><ele>314.20000000000005</ele><time>2026-04-11T13:43:54.342Z</time></trkpt><trkpt lat="43.0802509" lon="11.5353739"><ele>312.6</ele><time>2026-04-11T13:43:55.342Z</time></trkpt><trkpt lat="43.0802932" lon="11.5354844"><ele>311.0</ele><time>2026-04-11T13:43:56.342Z</time></trkpt><trkpt lat="43.0803097" lon="11.5356064"><ele>310.2</ele><time>2026-04-11T13:43:57.342Z</time></trkpt><trkpt lat="43.0802975" lon="11.5357449"><ele>309.40000000000003</ele><time>2026-04-11T13:43:58.341Z</time></trkpt><trkpt lat="43.0802648" lon="11.5358798"><ele>308.6</ele><time>2026-04-11T13:43:59.341Z</time></trkpt><trkpt lat="43.0802334" lon="11.5360112"><ele>307.8</ele><time>2026-04-11T13:44:00.341Z</time></trkpt><trkpt lat="43.0802236" lon="11.5361401"><ele>307.0</ele><time>2026-04-11T13:44:01.342Z</time></trkpt><trkpt lat="43.0802305" lon="11.5362672"><ele>305.5</ele><time>2026-04-11T13:44:02.342Z</time></trkpt><trkpt lat="43.080244" lon="11.5363931"><ele>304.0</ele><time>2026-04-11T13:44:03.342Z</time></trkpt><trkpt lat="43.0802605" lon="11.5365162"><ele>302.5</ele><time>2026-04-11T13:44:04.341Z</time></trkpt><trkpt lat="43.0802733" lon="11.5366339"><ele>301.0</ele><time>2026-04-11T13:44:05.342Z</time></trkpt><trkpt lat="43.0802763" lon="11.5367427"><ele>299.5</ele><time>2026-04-11T13:44:06.341Z</time></trkpt><trkpt lat="43.0802668" lon="11.536853"><ele>298.0</ele><time>2026-04-11T13:44:07.341Z</time></trkpt><trkpt lat="43.080247" lon="11.5369753"><ele>296.8333333333333</ele><time>2026-04-11T13:44:08.342Z</time></trkpt><trkpt lat="43.0802298" lon="11.5371041"><ele>295.66666666666663</ele><time>2026-04-11T13:44:09.341Z</time></trkpt><trkpt lat="43.0802407" lon="11.5372145"><ele>294.5</ele><time>2026-04-11T13:44:10.341Z</time></trkpt><trkpt lat="43.0802808" lon="11.5373245"><ele>293.3333333333333</ele><time>2026-04-11T13:44:11.342Z</time></trkpt><trkpt lat="43.0803468" lon="11.5374123"><ele>292.1666666666667</ele><time>2026-04-11T13:44:12.342Z</time></trkpt><trkpt lat="43.0804242" lon="11.5374718"><ele>291.0</ele><time>2026-04-11T13:44:13.342Z</time></trkpt><trkpt lat="43.0805115" lon="11.5375175"><ele>291.0</ele><time>2026-04-11T13:44:14.342Z</time></trkpt><trkpt lat="43.0805945" lon="11.5375727"><ele>291.0</ele><time>2026-04-11T13:44:15.342Z</time></trkpt><trkpt lat="43.0806731" lon="11.5376551"><ele>291.0</ele><time>2026-04-11T13:44:16.341Z</time></trkpt><trkpt lat="43.0807249" lon="11.5377768"><ele>291.0</ele><time>2026-04-11T13:44:17.341Z</time></trkpt><trkpt lat="43.0807579" lon="11.5379338"><ele>291.0</ele><time>2026-04-11T13:44:18.341Z</time></trkpt><trkpt lat="43.0807809" lon="11.5381106"><ele>290.0</ele><time>2026-04-11T13:44:19.341Z</time></trkpt><trkpt lat="43.0807979" lon="11.5382974"><ele>289.0</ele><time>2026-04-11T13:44:20.341Z</time></trkpt><trkpt lat="43.0808214" lon="11.5384884"><ele>288.0</ele><time>2026-04-11T13:44:21.341Z</time></trkpt><trkpt lat="43.0808529" lon="11.5386837"><ele>287.0</ele><time>2026-04-11T13:44:22.341Z</time></trkpt><trkpt lat="43.0808842" lon="11.5388763"><ele>286.75</ele><time>2026-04-11T13:44:23.341Z</time></trkpt><trkpt lat="43.0809099" lon="11.539059"><ele>286.5</ele><time>2026-04-11T13:44:24.341Z</time></trkpt><trkpt lat="43.0809378" lon="11.5392329"><ele>286.25</ele><time>2026-04-11T13:44:25.342Z</time></trkpt><trkpt lat="43.0809721" lon="11.5393941"><ele>286.0</ele><time>2026-04-11T13:44:26.342Z</time></trkpt><trkpt lat="43.0810139" lon="11.5395372"><ele>286.75</ele><time>2026-04-11T13:44:27.342Z</time></trkpt><trkpt lat="43.0810691" lon="11.5396614"><ele>287.5</ele><time>2026-04-11T13:44:28.342Z</time></trkpt><trkpt lat="43.0811431" lon="11.5397738"><ele>288.25</ele><time>2026-04-11T13:44:29.342Z</time></trkpt><trkpt lat="43.0812385" lon="11.5398789"><ele>289.0</ele><time>2026-04-11T13:44:30.342Z</time></trkpt><trkpt lat="43.0813447" lon="11.5399794"><ele>289.0</ele><time>2026-04-11T13:44:31.341Z</time></trkpt><trkpt lat="43.0814537" lon="11.5400765"><ele>289.0</ele><time>2026-04-11T13:44:32.342Z</time></trkpt><trkpt lat="43.0815492" lon="11.5401789"><ele>289.0</ele><time>2026-04-11T13:44:33.342Z</time></trkpt><trkpt lat="43.0816164" lon="11.5402981"><ele>289.0</ele><time>2026-04-11T13:44:34.341Z</time></trkpt><trkpt lat="43.0816628" lon="11.5404311"><ele>290.0</ele><time>2026-04-11T13:44:35.341Z</time></trkpt><trkpt lat="43.0816914" lon="11.5405751"><ele>291.0</ele><time>2026-04-11T13:44:36.341Z</time></trkpt><trkpt lat="43.08171" lon="11.5407322"><ele>292.0</ele><time>2026-04-11T13:44:37.342Z</time></trkpt><trkpt lat="43.0817246" lon="11.5409054"><ele>293.0</ele><time>2026-04-11T13:44:38.341Z</time></trkpt><trkpt lat="43.0817333" lon="11.5410857"><ele>293.75</ele><time>2026-04-11T13:44:39.342Z</time></trkpt><trkpt lat="43.0817501" lon="11.541275"><ele>294.5</ele><time>2026-04-11T13:44:40.341Z</time></trkpt><trkpt lat="43.0817818" lon="11.541466"><ele>295.25</ele><time>2026-04-11T13:44:41.341Z</time></trkpt><trkpt lat="43.0818252" lon="11.5416449"><ele>296.0</ele><time>2026-04-11T13:44:42.342Z</time></trkpt><trkpt lat="43.0818679" lon="11.5418059"><ele>296.0</ele><time>2026-04-11T13:44:43.343Z</time></trkpt><trkpt lat="43.0819028" lon="11.5419524"><ele>296.0</ele><time>2026-04-11T13:44:44.343Z</time></trkpt><trkpt lat="43.081926" lon="11.5420854"><ele>296.0</ele><time>2026-04-11T13:44:45.343Z</time></trkpt><trkpt lat="43.0819345" lon="11.5422166"><ele>296.0</ele><time>2026-04-11T13:44:46.342Z</time></trkpt><trkpt lat="43.0819305" lon="11.5423443"><ele>296.0</ele><time>2026-04-11T13:44:47.342Z</time></trkpt><trkpt lat="43.0819246" lon="11.5424664"><ele>296.0</ele><time>2026-04-11T13:44:48.343Z</time></trkpt><trkpt lat="43.0819234" lon="11.5425861"><ele>296.0</ele><time>2026-04-11T13:44:49.343Z</time></trkpt><trkpt lat="43.0819307" lon="11.5427009"><ele>296.0</ele><time>2026-04-11T13:44:50.342Z</time></trkpt><trkpt lat="43.0819495" lon="11.5428066"><ele>296.0</ele><time>2026-04-11T13:44:51.343Z</time></trkpt><trkpt lat="43.0819807" lon="11.542891"><ele>296.0</ele><time>2026-04-11T13:44:52.342Z</time></trkpt><trkpt lat="43.0820242" lon="11.5429601"><ele>296.0</ele><time>2026-04-11T13:44:53.342Z</time></trkpt><trkpt lat="43.0820809" lon="11.5430088"><ele>294.8</ele><time>2026-04-11T13:44:54.342Z</time></trkpt><trkpt lat="43.0821547" lon="11.5430399"><ele>293.6</ele><time>2026-04-11T13:44:55.342Z</time></trkpt><trkpt lat="43.0822409" lon="11.5430584"><ele>292.4</ele><time>2026-04-11T13:44:56.343Z</time></trkpt><trkpt lat="43.082342" lon="11.5430708"><ele>291.2</ele><time>2026-04-11T13:44:57.343Z</time></trkpt><trkpt lat="43.0824573" lon="11.5430813"><ele>290.0</ele><time>2026-04-11T13:44:58.342Z</time></trkpt><trkpt lat="43.0825812" lon="11.5431138"><ele>290.0</ele><time>2026-04-11T13:44:59.343Z</time></trkpt><trkpt lat="43.0827029" lon="11.5431615"><ele>290.0</ele><time>2026-04-11T13:45:00.343Z</time></trkpt><trkpt lat="43.0828132" lon="11.5432071"><ele>290.0</ele><time>2026-04-11T13:45:01.342Z</time></trkpt><trkpt lat="43.0829159" lon="11.5432388"><ele>290.0</ele><time>2026-04-11T13:45:02.342Z</time></trkpt><trkpt lat="43.0830149" lon="11.5432517"><ele>290.0</ele><time>2026-04-11T13:45:03.342Z</time></trkpt><trkpt lat="43.0831103" lon="11.5432591"><ele>290.0</ele><time>2026-04-11T13:45:04.342Z</time></trkpt><trkpt lat="43.083205" lon="11.5432702"><ele>290.0</ele><time>2026-04-11T13:45:05.343Z</time></trkpt><trkpt lat="43.0833003" lon="11.5432904"><ele>290.0</ele><time>2026-04-11T13:45:06.342Z</time></trkpt><trkpt lat="43.0833952" lon="11.5433218"><ele>290.0</ele><time>2026-04-11T13:45:07.342Z</time></trkpt><trkpt lat="43.0834866" lon="11.5433499"><ele>290.0</ele><time>2026-04-11T13:45:08.342Z</time></trkpt><trkpt lat="43.0835757" lon="11.5433631"><ele>289.0</ele><time>2026-04-11T13:45:09.342Z</time></trkpt><trkpt lat="43.0836581" lon="11.5433549"><ele>288.0</ele><time>2026-04-11T13:45:10.342Z</time></trkpt><trkpt lat="43.0837476" lon="11.5433052"><ele>287.0</ele><time>2026-04-11T13:45:11.343Z</time></trkpt><trkpt lat="43.0838391" lon="11.5432384"><ele>286.0</ele><time>2026-04-11T13:45:12.342Z</time></trkpt><trkpt lat="43.0839301" lon="11.5431782"><ele>285.0</ele><time>2026-04-11T13:45:13.343Z</time></trkpt><trkpt lat="43.0840285" lon="11.5431491"><ele>283.0</ele><time>2026-04-11T13:45:14.343Z</time></trkpt><trkpt lat="43.0841404" lon="11.5431529"><ele>281.0</ele><time>2026-04-11T13:45:15.343Z</time></trkpt><trkpt lat="43.0842459" lon="11.5432054"><ele>279.0</ele><time>2026-04-11T13:45:16.342Z</time></trkpt><trkpt lat="43.0843589" lon="11.5432847"><ele>277.0</ele><time>2026-04-11T13:45:17.343Z</time></trkpt><trkpt lat="43.0844658" lon="11.5433552"><ele>277.0</ele><time>2026-04-11T13:45:18.343Z</time></trkpt><trkpt lat="43.0845712" lon="11.5434135"><ele>277.0</ele><time>2026-04-11T13:45:19.343Z</time></trkpt><trkpt lat="43.0846865" lon="11.5434682"><ele>277.0</ele><time>2026-04-11T13:45:20.342Z</time></trkpt><trkpt lat="43.0848062" lon="11.5435149"><ele>277.0</ele><time>2026-04-11T13:45:21.343Z</time></trkpt><trkpt lat="43.0849337" lon="11.5435693"><ele>275.25</ele><time>2026-04-11T13:45:22.342Z</time></trkpt><trkpt lat="43.0850663" lon="11.5436421"><ele>273.5</ele><time>2026-04-11T13:45:23.342Z</time></trkpt><trkpt lat="43.0851896" lon="11.5437196"><ele>271.75</ele><time>2026-04-11T13:45:24.343Z</time></trkpt><trkpt lat="43.0853085" lon="11.5437998"><ele>270.0</ele><time>2026-04-11T13:45:25.343Z</time></trkpt><trkpt lat="43.0854298" lon="11.5438742"><ele>270.0</ele><time>2026-04-11T13:45:26.343Z</time></trkpt><trkpt lat="43.0855431" lon="11.5439325"><ele>270.0</ele><time>2026-04-11T13:45:27.342Z</time></trkpt><trkpt lat="43.0856483" lon="11.543978"><ele>270.0</ele><time>2026-04-11T13:45:28.343Z</time></trkpt><trkpt lat="43.0857493" lon="11.544011"><ele>270.0</ele><time>2026-04-11T13:45:29.343Z</time></trkpt><trkpt lat="43.0858488" lon="11.5440325"><ele>270.0</ele><time>2026-04-11T13:45:30.342Z</time></trkpt><trkpt lat="43.0859497" lon="11.5440472"><ele>270.0</ele><time>2026-04-11T13:45:31.342Z</time></trkpt><trkpt lat="43.0860551" lon="11.5440612"><ele>270.0</ele><time>2026-04-11T13:45:32.342Z</time></trkpt><trkpt lat="43.0861641" lon="11.5440743"><ele>270.0</ele><time>2026-04-11T13:45:33.343Z</time></trkpt><trkpt lat="43.0862792" lon="11.5440905"><ele>270.0</ele><time>2026-04-11T13:45:34.343Z</time></trkpt><trkpt lat="43.0864001" lon="11.5441229"><ele>270.0</ele><time>2026-04-11T13:45:35.342Z</time></trkpt><trkpt lat="43.0865247" lon="11.54418"><ele>270.0</ele><time>2026-04-11T13:45:36.343Z</time></trkpt><trkpt lat="43.0866408" lon="11.5442543"><ele>270.0</ele><time>2026-04-11T13:45:37.343Z</time></trkpt><trkpt lat="43.0867374" lon="11.5443333"><ele>270.0</ele><time>2026-04-11T13:45:38.343Z</time></trkpt><trkpt lat="43.0868197" lon="11.5444114"><ele>270.2</ele><time>2026-04-11T13:45:39.342Z</time></trkpt><trkpt lat="43.0868978" lon="11.5444884"><ele>270.4</ele><time>2026-04-11T13:45:40.343Z</time></trkpt><trkpt lat="43.0869714" lon="11.5445559"><ele>270.6</ele><time>2026-04-11T13:45:41.343Z</time></trkpt><trkpt lat="43.0870299" lon="11.5446129"><ele>270.8</ele><time>2026-04-11T13:45:42.342Z</time></trkpt><trkpt lat="43.0871127" lon="11.5447202"><ele>271.0</ele><time>2026-04-11T13:45:44.342Z</time></trkpt><trkpt lat="43.0871347" lon="11.5448274"><ele>271.0</ele><time>2026-04-11T13:45:46.342Z</time></trkpt><trkpt lat="43.0870988" lon="11.5450204"><ele>271.0</ele><time>2026-04-11T13:45:48.344Z</time></trkpt><trkpt lat="43.0870443" lon="11.5451421"><ele>271.0</ele><time>2026-04-11T13:45:49.344Z</time></trkpt><trkpt lat="43.0869852" lon="11.5452621"><ele>271.0</ele><time>2026-04-11T13:45:50.344Z</time></trkpt><trkpt lat="43.0869392" lon="11.5453621"><ele>271.0</ele><time>2026-04-11T13:45:51.344Z</time></trkpt><trkpt lat="43.0869063" lon="11.545446"><ele>270.42857142857144</ele><time>2026-04-11T13:45:52.344Z</time></trkpt><trkpt lat="43.0868767" lon="11.5455248"><ele>269.8571428571429</ele><time>2026-04-11T13:45:53.344Z</time></trkpt><trkpt lat="43.0868492" lon="11.5456033"><ele>269.28571428571433</ele><time>2026-04-11T13:45:54.344Z</time></trkpt><trkpt lat="43.0868211" lon="11.5456867"><ele>268.7142857142857</ele><time>2026-04-11T13:45:55.344Z</time></trkpt><trkpt lat="43.0867944" lon="11.5457807"><ele>268.14285714285717</ele><time>2026-04-11T13:45:56.343Z</time></trkpt><trkpt lat="43.0867828" lon="11.5458997"><ele>267.5714285714286</ele><time>2026-04-11T13:45:57.343Z</time></trkpt><trkpt lat="43.0867579" lon="11.5460035"><ele>267.0</ele><time>2026-04-11T13:45:58.344Z</time></trkpt><trkpt lat="43.0867328" lon="11.5461112"><ele>266.8333333333333</ele><time>2026-04-11T13:45:59.343Z</time></trkpt><trkpt lat="43.0867074" lon="11.5462164"><ele>266.6666666666667</ele><time>2026-04-11T13:46:00.344Z</time></trkpt><trkpt lat="43.0866784" lon="11.5463187"><ele>266.5</ele><time>2026-04-11T13:46:01.343Z</time></trkpt><trkpt lat="43.0866519" lon="11.546414"><ele>266.33333333333337</ele><time>2026-04-11T13:46:02.343Z</time></trkpt><trkpt lat="43.0866314" lon="11.5465101"><ele>266.1666666666667</ele><time>2026-04-11T13:46:03.344Z</time></trkpt><trkpt lat="43.0866121" lon="11.546613"><ele>266.0</ele><time>2026-04-11T13:46:04.344Z</time></trkpt><trkpt lat="43.08659" lon="11.5467144"><ele>264.6</ele><time>2026-04-11T13:46:05.344Z</time></trkpt><trkpt lat="43.0865655" lon="11.5468059"><ele>263.20000000000005</ele><time>2026-04-11T13:46:06.344Z</time></trkpt><trkpt lat="43.0865225" lon="11.5470247"><ele>261.79999999999995</ele><time>2026-04-11T13:46:08.344Z</time></trkpt><trkpt lat="43.0865023" lon="11.5471283"><ele>260.4</ele><time>2026-04-11T13:46:09.343Z</time></trkpt><trkpt lat="43.0864814" lon="11.5472309"><ele>259.0</ele><time>2026-04-11T13:46:10.343Z</time></trkpt><trkpt lat="43.0864608" lon="11.5473271"><ele>258.8333333333333</ele><time>2026-04-11T13:46:11.344Z</time></trkpt><trkpt lat="43.0864381" lon="11.5474233"><ele>258.66666666666663</ele><time>2026-04-11T13:46:12.343Z</time></trkpt><trkpt lat="43.0864168" lon="11.5475157"><ele>258.5</ele><time>2026-04-11T13:46:13.343Z</time></trkpt><trkpt lat="43.086398" lon="11.547603"><ele>258.3333333333333</ele><time>2026-04-11T13:46:14.343Z</time></trkpt><trkpt lat="43.0863615" lon="11.5477534"><ele>258.1666666666667</ele><time>2026-04-11T13:46:16.343Z</time></trkpt><trkpt lat="43.0863403" lon="11.5478565"><ele>258.0</ele><time>2026-04-11T13:46:18.344Z</time></trkpt><trkpt lat="43.0863208" lon="11.5479769"><ele>258.0</ele><time>2026-04-11T13:46:20.343Z</time></trkpt><trkpt lat="43.0862952" lon="11.5480839"><ele>258.0</ele><time>2026-04-11T13:46:22.343Z</time></trkpt><trkpt lat="43.086268" lon="11.5481812"><ele>258.0</ele><time>2026-04-11T13:46:25.343Z</time></trkpt><trkpt lat="43.0863174" lon="11.5481101"><ele>258.0</ele><time>2026-04-11T13:46:51.344Z</time></trkpt><trkpt lat="43.0863397" lon="11.5479801"><ele>258.0</ele><time>2026-04-11T13:47:12.344Z</time></trkpt><trkpt lat="43.0863703" lon="11.5478424"><ele>258.0</ele><time>2026-04-11T13:47:14.344Z</time></trkpt><trkpt lat="43.0863876" lon="11.5477485"><ele>258.0</ele><time>2026-04-11T13:47:15.345Z</time></trkpt><trkpt lat="43.0864072" lon="11.5476387"><ele>258.0</ele><time>2026-04-11T13:47:16.345Z</time></trkpt><trkpt lat="43.0864275" lon="11.5475211"><ele>258.0</ele><time>2026-04-11T13:47:17.345Z</time></trkpt><trkpt lat="43.086451" lon="11.5474042"><ele>258.0</ele><time>2026-04-11T13:47:18.345Z</time></trkpt><trkpt lat="43.0864737" lon="11.5472903"><ele>258.0</ele><time>2026-04-11T13:47:19.345Z</time></trkpt><trkpt lat="43.0864966" lon="11.5471795"><ele>258.0</ele><time>2026-04-11T13:47:20.345Z</time></trkpt><trkpt lat="43.0865207" lon="11.547068"><ele>258.1666666666667</ele><time>2026-04-11T13:47:21.345Z</time></trkpt><trkpt lat="43.0865488" lon="11.5469572"><ele>258.3333333333333</ele><time>2026-04-11T13:47:22.345Z</time></trkpt><trkpt lat="43.0865717" lon="11.5468534"><ele>258.5</ele><time>2026-04-11T13:47:23.345Z</time></trkpt><trkpt lat="43.086597" lon="11.5467498"><ele>258.66666666666663</ele><time>2026-04-11T13:47:24.345Z</time></trkpt><trkpt lat="43.0866175" lon="11.5466578"><ele>258.8333333333333</ele><time>2026-04-11T13:47:25.345Z</time></trkpt><trkpt lat="43.0866414" lon="11.5465546"><ele>259.0</ele><time>2026-04-11T13:47:26.345Z</time></trkpt><trkpt lat="43.0866719" lon="11.5464482"><ele>260.16666666666663</ele><time>2026-04-11T13:47:27.344Z</time></trkpt><trkpt lat="43.0867018" lon="11.546328"><ele>261.3333333333333</ele><time>2026-04-11T13:47:28.344Z</time></trkpt><trkpt lat="43.0867284" lon="11.546218"><ele>262.5</ele><time>2026-04-11T13:47:29.345Z</time></trkpt><trkpt lat="43.0867494" lon="11.546123"><ele>263.6666666666667</ele><time>2026-04-11T13:47:30.344Z</time></trkpt><trkpt lat="43.0867694" lon="11.5460276"><ele>264.83333333333337</ele><time>2026-04-11T13:47:31.345Z</time></trkpt><trkpt lat="43.0867948" lon="11.5459259"><ele>266.0</ele><time>2026-04-11T13:47:32.345Z</time></trkpt><trkpt lat="43.0868233" lon="11.5458176"><ele>266.1666666666667</ele><time>2026-04-11T13:47:33.345Z</time></trkpt><trkpt lat="43.0868546" lon="11.5457072"><ele>266.33333333333337</ele><time>2026-04-11T13:47:34.345Z</time></trkpt><trkpt lat="43.0868851" lon="11.5456094"><ele>266.5</ele><time>2026-04-11T13:47:35.345Z</time></trkpt><trkpt lat="43.0869107" lon="11.5455284"><ele>266.6666666666667</ele><time>2026-04-11T13:47:36.345Z</time></trkpt><trkpt lat="43.0869492" lon="11.5454004"><ele>266.8333333333333</ele><time>2026-04-11T13:47:38.344Z</time></trkpt><trkpt lat="43.0869782" lon="11.5453106"><ele>267.0</ele><time>2026-04-11T13:47:40.345Z</time></trkpt><trkpt lat="43.0870118" lon="11.5452144"><ele>267.0</ele><time>2026-04-11T13:47:42.345Z</time></trkpt><trkpt lat="43.0870664" lon="11.5451446"><ele>267.0</ele><time>2026-04-11T13:47:44.344Z</time></trkpt><trkpt lat="43.0870634" lon="11.545045"><ele>267.0</ele><time>2026-04-11T13:47:48.345Z</time></trkpt><trkpt lat="43.0869917" lon="11.5451578"><ele>267.0</ele><time>2026-04-11T13:47:51.344Z</time></trkpt><trkpt lat="43.0869692" lon="11.5452501"><ele>267.0</ele><time>2026-04-11T13:47:52.345Z</time></trkpt><trkpt lat="43.0869371" lon="11.5453664"><ele>267.0</ele><time>2026-04-11T13:47:53.344Z</time></trkpt><trkpt lat="43.0869029" lon="11.545479"><ele>267.0</ele><time>2026-04-11T13:47:54.344Z</time></trkpt><trkpt lat="43.0868683" lon="11.5455939"><ele>267.0</ele><time>2026-04-11T13:47:55.344Z</time></trkpt><trkpt lat="43.0868342" lon="11.545713"><ele>267.0</ele><time>2026-04-11T13:47:56.345Z</time></trkpt><trkpt lat="43.0868048" lon="11.5458275"><ele>267.0</ele><time>2026-04-11T13:47:57.344Z</time></trkpt><trkpt lat="43.0867803" lon="11.5459252"><ele>267.0</ele><time>2026-04-11T13:47:58.345Z</time></trkpt><trkpt lat="43.0867294" lon="11.5460441"><ele>267.0</ele><time>2026-04-11T13:48:00.346Z</time></trkpt><trkpt lat="43.0866535" lon="11.5460592"><ele>266.0</ele><time>2026-04-11T13:48:02.345Z</time></trkpt><trkpt lat="43.0865319" lon="11.5460289"><ele>265.0</ele><time>2026-04-11T13:48:04.345Z</time></trkpt><trkpt lat="43.0864463" lon="11.5459834"><ele>264.0</ele><time>2026-04-11T13:48:05.346Z</time></trkpt><trkpt lat="43.0863387" lon="11.5459502"><ele>263.0</ele><time>2026-04-11T13:48:06.345Z</time></trkpt><trkpt lat="43.0862287" lon="11.5459256"><ele>262.0</ele><time>2026-04-11T13:48:07.346Z</time></trkpt><trkpt lat="43.0861286" lon="11.5458925"><ele>262.0</ele><time>2026-04-11T13:48:08.345Z</time></trkpt><trkpt lat="43.0860292" lon="11.5458601"><ele>262.0</ele><time>2026-04-11T13:48:09.345Z</time></trkpt><trkpt lat="43.0859493" lon="11.5458313"><ele>262.0</ele><time>2026-04-11T13:48:10.345Z</time></trkpt><trkpt lat="43.0858765" lon="11.5458079"><ele>262.0</ele><time>2026-04-11T13:48:11.346Z</time></trkpt><trkpt lat="43.085767" lon="11.5458409"><ele>262.0</ele><time>2026-04-11T13:48:13.345Z</time></trkpt><trkpt lat="43.0856645" lon="11.5459732"><ele>261.8</ele><time>2026-04-11T13:48:15.346Z</time></trkpt><trkpt lat="43.0856121" lon="11.5460709"><ele>261.6</ele><time>2026-04-11T13:48:16.345Z</time></trkpt><trkpt lat="43.085556" lon="11.5461895"><ele>261.40000000000003</ele><time>2026-04-11T13:48:17.346Z</time></trkpt><trkpt lat="43.0855006" lon="11.5463106"><ele>261.2</ele><time>2026-04-11T13:48:18.346Z</time></trkpt><trkpt lat="43.0854463" lon="11.5464317"><ele>261.0</ele><time>2026-04-11T13:48:19.345Z</time></trkpt><trkpt lat="43.0853925" lon="11.5465502"><ele>260.6</ele><time>2026-04-11T13:48:20.346Z</time></trkpt><trkpt lat="43.0853361" lon="11.5466715"><ele>260.20000000000005</ele><time>2026-04-11T13:48:21.346Z</time></trkpt><trkpt lat="43.0852807" lon="11.5467871"><ele>259.79999999999995</ele><time>2026-04-11T13:48:22.346Z</time></trkpt><trkpt lat="43.0852275" lon="11.5468931"><ele>259.4</ele><time>2026-04-11T13:48:23.346Z</time></trkpt><trkpt lat="43.0851779" lon="11.5469917"><ele>259.0</ele><time>2026-04-11T13:48:24.346Z</time></trkpt><trkpt lat="43.0851316" lon="11.547084"><ele>258.5</ele><time>2026-04-11T13:48:25.346Z</time></trkpt><trkpt lat="43.0850913" lon="11.5471729"><ele>258.0</ele><time>2026-04-11T13:48:26.346Z</time></trkpt><trkpt lat="43.0850522" lon="11.5472572"><ele>257.5</ele><time>2026-04-11T13:48:27.345Z</time></trkpt><trkpt lat="43.0850091" lon="11.5473427"><ele>257.0</ele><time>2026-04-11T13:48:28.346Z</time></trkpt><trkpt lat="43.0849643" lon="11.5474358"><ele>256.5</ele><time>2026-04-11T13:48:29.346Z</time></trkpt><trkpt lat="43.0849181" lon="11.5475349"><ele>256.0</ele><time>2026-04-11T13:48:30.346Z</time></trkpt><trkpt lat="43.0848707" lon="11.5476347"><ele>255.49999999999997</ele><time>2026-04-11T13:48:31.346Z</time></trkpt><trkpt lat="43.0848233" lon="11.5477285"><ele>255.0</ele><time>2026-04-11T13:48:32.346Z</time></trkpt><trkpt lat="43.0847797" lon="11.5478118"><ele>254.5</ele><time>2026-04-11T13:48:33.345Z</time></trkpt><trkpt lat="43.084741" lon="11.5478891"><ele>254.0</ele><time>2026-04-11T13:48:34.345Z</time></trkpt><trkpt lat="43.0847037" lon="11.5479632"><ele>253.49999999999997</ele><time>2026-04-11T13:48:35.346Z</time></trkpt><trkpt lat="43.084668" lon="11.5480357"><ele>253.0</ele><time>2026-04-11T13:48:36.345Z</time></trkpt><trkpt lat="43.0846161" lon="11.5481544"><ele>253.16666666666666</ele><time>2026-04-11T13:48:38.346Z</time></trkpt><trkpt lat="43.0845906" lon="11.5482345"><ele>253.33333333333331</ele><time>2026-04-11T13:48:40.345Z</time></trkpt><trkpt lat="43.0846223" lon="11.548313"><ele>253.5</ele><time>2026-04-11T13:48:46.345Z</time></trkpt><trkpt lat="43.0847262" lon="11.5484053"><ele>253.66666666666669</ele><time>2026-04-11T13:48:48.345Z</time></trkpt><trkpt lat="43.0847992" lon="11.5484552"><ele>253.83333333333334</ele><time>2026-04-11T13:48:49.345Z</time></trkpt><trkpt lat="43.0848931" lon="11.5485275"><ele>254.0</ele><time>2026-04-11T13:48:50.346Z</time></trkpt><trkpt lat="43.0849898" lon="11.5486098"><ele>254.0</ele><time>2026-04-11T13:48:51.345Z</time></trkpt><trkpt lat="43.0850857" lon="11.5486991"><ele>254.0</ele><time>2026-04-11T13:48:52.345Z</time></trkpt><trkpt lat="43.0851831" lon="11.5487918"><ele>254.0</ele><time>2026-04-11T13:48:53.345Z</time></trkpt><trkpt lat="43.0852768" lon="11.5488828"><ele>254.0</ele><time>2026-04-11T13:48:54.345Z</time></trkpt><trkpt lat="43.0853674" lon="11.5489705"><ele>253.39999999999998</ele><time>2026-04-11T13:48:55.345Z</time></trkpt><trkpt lat="43.0854556" lon="11.5490536"><ele>252.79999999999998</ele><time>2026-04-11T13:48:56.345Z</time></trkpt><trkpt lat="43.0855436" lon="11.5491348"><ele>252.20000000000002</ele><time>2026-04-11T13:48:57.345Z</time></trkpt><trkpt lat="43.0856315" lon="11.5492053"><ele>251.60000000000002</ele><time>2026-04-11T13:48:58.345Z</time></trkpt><trkpt lat="43.0857193" lon="11.5492623"><ele>251.0</ele><time>2026-04-11T13:48:59.345Z</time></trkpt><trkpt lat="43.0857955" lon="11.5492952"><ele>251.50000000000003</ele><time>2026-04-11T13:49:00.346Z</time></trkpt><trkpt lat="43.0858727" lon="11.5493291"><ele>252.0</ele><time>2026-04-11T13:49:01.346Z</time></trkpt><trkpt lat="43.0859387" lon="11.5493586"><ele>252.5</ele><time>2026-04-11T13:49:02.345Z</time></trkpt><trkpt lat="43.0859909" lon="11.5494238"><ele>253.0</ele><time>2026-04-11T13:49:04.347Z</time></trkpt><trkpt lat="43.0859334" lon="11.5495483"><ele>253.50000000000003</ele><time>2026-04-11T13:49:06.347Z</time></trkpt><trkpt lat="43.0858757" lon="11.5496266"><ele>254.0</ele><time>2026-04-11T13:49:07.347Z</time></trkpt><trkpt lat="43.0858111" lon="11.5497162"><ele>253.2</ele><time>2026-04-11T13:49:08.346Z</time></trkpt><trkpt lat="43.0857459" lon="11.5498102"><ele>252.39999999999998</ele><time>2026-04-11T13:49:09.346Z</time></trkpt><trkpt lat="43.0856842" lon="11.5499186"><ele>251.6</ele><time>2026-04-11T13:49:10.347Z</time></trkpt><trkpt lat="43.0856133" lon="11.5500278"><ele>250.8</ele><time>2026-04-11T13:49:11.346Z</time></trkpt><trkpt lat="43.0855372" lon="11.5501448"><ele>250.0</ele><time>2026-04-11T13:49:12.347Z</time></trkpt><trkpt lat="43.0854577" lon="11.5502695"><ele>249.5</ele><time>2026-04-11T13:49:13.346Z</time></trkpt><trkpt lat="43.0853757" lon="11.550396"><ele>249.0</ele><time>2026-04-11T13:49:14.347Z</time></trkpt><trkpt lat="43.0852947" lon="11.5505212"><ele>248.5</ele><time>2026-04-11T13:49:15.347Z</time></trkpt><trkpt lat="43.0852118" lon="11.5506424"><ele>248.0</ele><time>2026-04-11T13:49:16.346Z</time></trkpt><trkpt lat="43.0851287" lon="11.5507623"><ele>248.0</ele><time>2026-04-11T13:49:17.346Z</time></trkpt><trkpt lat="43.0850412" lon="11.5508895"><ele>248.0</ele><time>2026-04-11T13:49:18.347Z</time></trkpt><trkpt lat="43.084948" lon="11.5510242"><ele>248.0</ele><time>2026-04-11T13:49:19.346Z</time></trkpt><trkpt lat="43.0848487" lon="11.5511673"><ele>248.0</ele><time>2026-04-11T13:49:20.347Z</time></trkpt><trkpt lat="43.0847445" lon="11.5513146"><ele>247.33333333333334</ele><time>2026-04-11T13:49:21.346Z</time></trkpt><trkpt lat="43.0846399" lon="11.5514614"><ele>246.66666666666669</ele><time>2026-04-11T13:49:22.346Z</time></trkpt><trkpt lat="43.0845362" lon="11.5516109"><ele>246.0</ele><time>2026-04-11T13:49:23.346Z</time></trkpt><trkpt lat="43.0844314" lon="11.5517643"><ele>246.0</ele><time>2026-04-11T13:49:24.346Z</time></trkpt><trkpt lat="43.0843319" lon="11.5519204"><ele>246.0</ele><time>2026-04-11T13:49:25.346Z</time></trkpt><trkpt lat="43.0842361" lon="11.5520834"><ele>246.0</ele><time>2026-04-11T13:49:26.346Z</time></trkpt><trkpt lat="43.0841482" lon="11.552258"><ele>244.66666666666669</ele><time>2026-04-11T13:49:27.346Z</time></trkpt><trkpt lat="43.0840627" lon="11.5524327"><ele>243.33333333333334</ele><time>2026-04-11T13:49:28.347Z</time></trkpt><trkpt lat="43.0839851" lon="11.5526235"><ele>242.0</ele><time>2026-04-11T13:49:29.347Z</time></trkpt><trkpt lat="43.0839175" lon="11.5528342"><ele>242.33333333333334</ele><time>2026-04-11T13:49:30.346Z</time></trkpt><trkpt lat="43.0838628" lon="11.5530634"><ele>242.66666666666669</ele><time>2026-04-11T13:49:31.346Z</time></trkpt><trkpt lat="43.0838182" lon="11.5532985"><ele>243.0</ele><time>2026-04-11T13:49:32.347Z</time></trkpt><trkpt lat="43.083778" lon="11.5535374"><ele>244.0</ele><time>2026-04-11T13:49:33.346Z</time></trkpt><trkpt lat="43.0837416" lon="11.5537625"><ele>245.0</ele><time>2026-04-11T13:49:34.347Z</time></trkpt><trkpt lat="43.0837072" lon="11.5539742"><ele>246.0</ele><time>2026-04-11T13:49:35.347Z</time></trkpt><trkpt lat="43.0836765" lon="11.5541678"><ele>246.0</ele><time>2026-04-11T13:49:36.346Z</time></trkpt><trkpt lat="43.0836472" lon="11.5543545"><ele>246.0</ele><time>2026-04-11T13:49:37.346Z</time></trkpt><trkpt lat="43.083618" lon="11.5545411"><ele>246.0</ele><time>2026-04-11T13:49:38.346Z</time></trkpt><trkpt lat="43.0835872" lon="11.5547284"><ele>246.0</ele><time>2026-04-11T13:49:39.347Z</time></trkpt><trkpt lat="43.0835573" lon="11.5549171"><ele>247.25</ele><time>2026-04-11T13:49:40.347Z</time></trkpt><trkpt lat="43.0835267" lon="11.5551068"><ele>248.5</ele><time>2026-04-11T13:49:41.347Z</time></trkpt><trkpt lat="43.0835025" lon="11.5552962"><ele>249.75</ele><time>2026-04-11T13:49:42.347Z</time></trkpt><trkpt lat="43.0834838" lon="11.5554856"><ele>251.0</ele><time>2026-04-11T13:49:43.347Z</time></trkpt><trkpt lat="43.0834732" lon="11.5556632"><ele>252.0</ele><time>2026-04-11T13:49:44.347Z</time></trkpt><trkpt lat="43.0834771" lon="11.5558257"><ele>253.0</ele><time>2026-04-11T13:49:45.347Z</time></trkpt><trkpt lat="43.0834907" lon="11.5559813"><ele>254.0</ele><time>2026-04-11T13:49:46.346Z</time></trkpt><trkpt lat="43.0835498" lon="11.5561067"><ele>255.0</ele><time>2026-04-11T13:49:47.346Z</time></trkpt><trkpt lat="43.0836414" lon="11.5562036"><ele>255.0</ele><time>2026-04-11T13:49:48.346Z</time></trkpt><trkpt lat="43.0837574" lon="11.5562627"><ele>255.0</ele><time>2026-04-11T13:49:49.346Z</time></trkpt><trkpt lat="43.0838922" lon="11.5563127"><ele>255.0</ele><time>2026-04-11T13:49:50.346Z</time></trkpt><trkpt lat="43.0840386" lon="11.5563876"><ele>255.0</ele><time>2026-04-11T13:49:51.347Z</time></trkpt><trkpt lat="43.0841821" lon="11.5565025"><ele>258.3333333333333</ele><time>2026-04-11T13:49:52.347Z</time></trkpt><trkpt lat="43.0843145" lon="11.5566468"><ele>261.66666666666663</ele><time>2026-04-11T13:49:53.347Z</time></trkpt><trkpt lat="43.0844253" lon="11.5568064"><ele>265.0</ele><time>2026-04-11T13:49:54.347Z</time></trkpt><trkpt lat="43.0845042" lon="11.5569794"><ele>267.0</ele><time>2026-04-11T13:49:55.347Z</time></trkpt><trkpt lat="43.0845478" lon="11.5571676"><ele>269.0</ele><time>2026-04-11T13:49:56.347Z</time></trkpt><trkpt lat="43.0845719" lon="11.5573696"><ele>271.0</ele><time>2026-04-11T13:49:57.347Z</time></trkpt><trkpt lat="43.0845767" lon="11.5575767"><ele>273.0</ele><time>2026-04-11T13:49:58.347Z</time></trkpt><trkpt lat="43.0845565" lon="11.5577796"><ele>274.25</ele><time>2026-04-11T13:49:59.346Z</time></trkpt><trkpt lat="43.0845141" lon="11.5579782"><ele>275.5</ele><time>2026-04-11T13:50:00.347Z</time></trkpt><trkpt lat="43.0844616" lon="11.5581693"><ele>276.75</ele><time>2026-04-11T13:50:01.346Z</time></trkpt><trkpt lat="43.0844117" lon="11.5583462"><ele>278.0</ele><time>2026-04-11T13:50:02.347Z</time></trkpt><trkpt lat="43.0843716" lon="11.5585218"><ele>278.0</ele><time>2026-04-11T13:50:03.346Z</time></trkpt><trkpt lat="43.0843494" lon="11.5586978"><ele>278.0</ele><time>2026-04-11T13:50:04.346Z</time></trkpt><trkpt lat="43.0843386" lon="11.5588689"><ele>278.0</ele><time>2026-04-11T13:50:05.347Z</time></trkpt><trkpt lat="43.08437" lon="11.5590178"><ele>278.0</ele><time>2026-04-11T13:50:06.347Z</time></trkpt><trkpt lat="43.084409" lon="11.5591516"><ele>278.6</ele><time>2026-04-11T13:50:07.346Z</time></trkpt><trkpt lat="43.08447" lon="11.5592645"><ele>279.20000000000005</ele><time>2026-04-11T13:50:08.348Z</time></trkpt><trkpt lat="43.0845477" lon="11.559321"><ele>279.8</ele><time>2026-04-11T13:50:09.347Z</time></trkpt><trkpt lat="43.0846572" lon="11.5593277"><ele>280.40000000000003</ele><time>2026-04-11T13:50:10.348Z</time></trkpt><trkpt lat="43.084755" lon="11.5593416"><ele>281.0</ele><time>2026-04-11T13:50:11.348Z</time></trkpt><trkpt lat="43.0848463" lon="11.5594039"><ele>281.0</ele><time>2026-04-11T13:50:12.347Z</time></trkpt><trkpt lat="43.0848899" lon="11.5594883"><ele>281.0</ele><time>2026-04-11T13:50:13.348Z</time></trkpt><trkpt lat="43.0849106" lon="11.5595766"><ele>281.0</ele><time>2026-04-11T13:50:14.348Z</time></trkpt><trkpt lat="43.0849114" lon="11.5597118"><ele>281.0</ele><time>2026-04-11T13:50:15.348Z</time></trkpt><trkpt lat="43.084908" lon="11.5598527"><ele>281.0</ele><time>2026-04-11T13:50:16.348Z</time></trkpt><trkpt lat="43.0849295" lon="11.5600091"><ele>281.0</ele><time>2026-04-11T13:50:17.348Z</time></trkpt><trkpt lat="43.0849791" lon="11.5601674"><ele>281.0</ele><time>2026-04-11T13:50:18.347Z</time></trkpt><trkpt lat="43.085078" lon="11.560303"><ele>281.0</ele><time>2026-04-11T13:50:19.348Z</time></trkpt><trkpt lat="43.0851519" lon="11.5604094"><ele>281.0</ele><time>2026-04-11T13:50:20.348Z</time></trkpt><trkpt lat="43.0852082" lon="11.5605392"><ele>283.0</ele><time>2026-04-11T13:50:21.347Z</time></trkpt><trkpt lat="43.0852276" lon="11.5606823"><ele>285.0</ele><time>2026-04-11T13:50:22.348Z</time></trkpt><trkpt lat="43.0852444" lon="11.5608068"><ele>287.0</ele><time>2026-04-11T13:50:23.347Z</time></trkpt><trkpt lat="43.0852704" lon="11.5609499"><ele>289.0</ele><time>2026-04-11T13:50:24.347Z</time></trkpt><trkpt lat="43.0852678" lon="11.5610633"><ele>291.0</ele><time>2026-04-11T13:50:25.347Z</time></trkpt><trkpt lat="43.0851821" lon="11.5611699"><ele>293.3333333333333</ele><time>2026-04-11T13:50:26.347Z</time></trkpt><trkpt lat="43.0850665" lon="11.5612992"><ele>295.66666666666663</ele><time>2026-04-11T13:50:27.348Z</time></trkpt><trkpt lat="43.0849992" lon="11.5614486"><ele>298.0</ele><time>2026-04-11T13:50:28.347Z</time></trkpt><trkpt lat="43.0850287" lon="11.5617807"><ele>298.0</ele><time>2026-04-11T13:50:30.348Z</time></trkpt><trkpt lat="43.0850814" lon="11.5619547"><ele>298.0</ele><time>2026-04-11T13:50:31.347Z</time></trkpt><trkpt lat="43.0851252" lon="11.5621197"><ele>298.0</ele><time>2026-04-11T13:50:32.347Z</time></trkpt><trkpt lat="43.0851389" lon="11.5622904"><ele>298.0</ele><time>2026-04-11T13:50:33.347Z</time></trkpt><trkpt lat="43.0851336" lon="11.5624542"><ele>298.5</ele><time>2026-04-11T13:50:34.347Z</time></trkpt><trkpt lat="43.0850829" lon="11.5626074"><ele>299.0</ele><time>2026-04-11T13:50:35.348Z</time></trkpt><trkpt lat="43.0850157" lon="11.5627545"><ele>299.5</ele><time>2026-04-11T13:50:36.348Z</time></trkpt><trkpt lat="43.0849251" lon="11.5628744"><ele>300.0</ele><time>2026-04-11T13:50:37.348Z</time></trkpt><trkpt lat="43.0848029" lon="11.5629546"><ele>300.0</ele><time>2026-04-11T13:50:38.347Z</time></trkpt><trkpt lat="43.0846603" lon="11.5629772"><ele>300.0</ele><time>2026-04-11T13:50:39.348Z</time></trkpt><trkpt lat="43.0845104" lon="11.5629604"><ele>300.0</ele><time>2026-04-11T13:50:40.348Z</time></trkpt><trkpt lat="43.0843536" lon="11.5629383"><ele>300.0</ele><time>2026-04-11T13:50:41.348Z</time></trkpt><trkpt lat="43.084181" lon="11.5629279"><ele>300.0</ele><time>2026-04-11T13:50:42.347Z</time></trkpt><trkpt lat="43.0839959" lon="11.5629388"><ele>300.0</ele><time>2026-04-11T13:50:43.348Z</time></trkpt><trkpt lat="43.0838396" lon="11.5629899"><ele>300.3333333333333</ele><time>2026-04-11T13:50:44.347Z</time></trkpt><trkpt lat="43.0836954" lon="11.5630822"><ele>300.66666666666663</ele><time>2026-04-11T13:50:45.348Z</time></trkpt><trkpt lat="43.0835676" lon="11.5632032"><ele>301.0</ele><time>2026-04-11T13:50:46.347Z</time></trkpt><trkpt lat="43.0834606" lon="11.5633656"><ele>301.0</ele><time>2026-04-11T13:50:47.348Z</time></trkpt><trkpt lat="43.0833674" lon="11.5635506"><ele>301.0</ele><time>2026-04-11T13:50:48.347Z</time></trkpt><trkpt lat="43.0832758" lon="11.5637388"><ele>301.0</ele><time>2026-04-11T13:50:49.348Z</time></trkpt><trkpt lat="43.0831893" lon="11.5639232"><ele>301.0</ele><time>2026-04-11T13:50:50.348Z</time></trkpt><trkpt lat="43.0831053" lon="11.564115"><ele>301.0</ele><time>2026-04-11T13:50:51.348Z</time></trkpt><trkpt lat="43.0830277" lon="11.5643232"><ele>301.0</ele><time>2026-04-11T13:50:52.348Z</time></trkpt><trkpt lat="43.082955" lon="11.564548"><ele>303.0</ele><time>2026-04-11T13:50:53.348Z</time></trkpt><trkpt lat="43.0828831" lon="11.564785"><ele>305.0</ele><time>2026-04-11T13:50:54.347Z</time></trkpt><trkpt lat="43.0828058" lon="11.565023"><ele>307.0</ele><time>2026-04-11T13:50:55.348Z</time></trkpt><trkpt lat="43.0827236" lon="11.5652478"><ele>307.3333333333333</ele><time>2026-04-11T13:50:56.347Z</time></trkpt><trkpt lat="43.0826252" lon="11.5654601"><ele>307.6666666666667</ele><time>2026-04-11T13:50:57.347Z</time></trkpt><trkpt lat="43.0825041" lon="11.5656578"><ele>308.0</ele><time>2026-04-11T13:50:58.348Z</time></trkpt><trkpt lat="43.0823661" lon="11.5658474"><ele>308.0</ele><time>2026-04-11T13:50:59.347Z</time></trkpt><trkpt lat="43.082227" lon="11.5660368"><ele>308.0</ele><time>2026-04-11T13:51:00.347Z</time></trkpt><trkpt lat="43.0820926" lon="11.5662291"><ele>308.0</ele><time>2026-04-11T13:51:01.348Z</time></trkpt><trkpt lat="43.081968" lon="11.5664206"><ele>311.6666666666667</ele><time>2026-04-11T13:51:02.348Z</time></trkpt><trkpt lat="43.0818579" lon="11.5666042"><ele>315.3333333333333</ele><time>2026-04-11T13:51:03.348Z</time></trkpt><trkpt lat="43.0817568" lon="11.5667856"><ele>319.0</ele><time>2026-04-11T13:51:04.348Z</time></trkpt><trkpt lat="43.0816704" lon="11.566979"><ele>322.0</ele><time>2026-04-11T13:51:05.348Z</time></trkpt><trkpt lat="43.0816088" lon="11.56719"><ele>325.0</ele><time>2026-04-11T13:51:06.348Z</time></trkpt><trkpt lat="43.0815675" lon="11.5674146"><ele>328.0</ele><time>2026-04-11T13:51:07.347Z</time></trkpt><trkpt lat="43.0815417" lon="11.5676477"><ele>322.0</ele><time>2026-04-11T13:51:08.348Z</time></trkpt><trkpt lat="43.0815249" lon="11.5678787"><ele>316.0</ele><time>2026-04-11T13:51:09.347Z</time></trkpt><trkpt lat="43.0815144" lon="11.5681141"><ele>310.0</ele><time>2026-04-11T13:51:10.347Z</time></trkpt><trkpt lat="43.0815051" lon="11.5683545"><ele>310.0</ele><time>2026-04-11T13:51:11.349Z</time></trkpt><trkpt lat="43.0814856" lon="11.5685902"><ele>310.0</ele><time>2026-04-11T13:51:12.348Z</time></trkpt><trkpt lat="43.0814477" lon="11.5688216"><ele>310.0</ele><time>2026-04-11T13:51:13.349Z</time></trkpt><trkpt lat="43.0813936" lon="11.5690358"><ele>313.66666666666663</ele><time>2026-04-11T13:51:14.348Z</time></trkpt><trkpt lat="43.0813181" lon="11.5692347"><ele>317.3333333333333</ele><time>2026-04-11T13:51:15.348Z</time></trkpt><trkpt lat="43.0812345" lon="11.5694283"><ele>321.0</ele><time>2026-04-11T13:51:16.349Z</time></trkpt><trkpt lat="43.0811527" lon="11.569627"><ele>324.6666666666667</ele><time>2026-04-11T13:51:17.348Z</time></trkpt><trkpt lat="43.0810738" lon="11.5698303"><ele>328.33333333333337</ele><time>2026-04-11T13:51:18.348Z</time></trkpt><trkpt lat="43.0809918" lon="11.5700175"><ele>332.0</ele><time>2026-04-11T13:51:19.349Z</time></trkpt><trkpt lat="43.080897" lon="11.5701705"><ele>332.0</ele><time>2026-04-11T13:51:20.348Z</time></trkpt><trkpt lat="43.0808002" lon="11.5702642"><ele>332.0</ele><time>2026-04-11T13:51:21.348Z</time></trkpt><trkpt lat="43.0807075" lon="11.5703029"><ele>332.0</ele><time>2026-04-11T13:51:22.349Z</time></trkpt><trkpt lat="43.0806107" lon="11.5703255"><ele>332.0</ele><time>2026-04-11T13:51:23.348Z</time></trkpt><trkpt lat="43.0805095" lon="11.5703413"><ele>332.0</ele><time>2026-04-11T13:51:24.348Z</time></trkpt><trkpt lat="43.0804304" lon="11.5703617"><ele>334.0</ele><time>2026-04-11T13:51:25.349Z</time></trkpt><trkpt lat="43.08036" lon="11.5704004"><ele>336.0</ele><time>2026-04-11T13:51:26.348Z</time></trkpt><trkpt lat="43.0802755" lon="11.570466"><ele>338.0</ele><time>2026-04-11T13:51:27.349Z</time></trkpt><trkpt lat="43.0801872" lon="11.5705122"><ele>340.0</ele><time>2026-04-11T13:51:28.349Z</time></trkpt><trkpt lat="43.0800909" lon="11.5705351"><ele>342.0</ele><time>2026-04-11T13:51:29.349Z</time></trkpt><trkpt lat="43.0799867" lon="11.5705454"><ele>341.5</ele><time>2026-04-11T13:51:30.349Z</time></trkpt><trkpt lat="43.0798746" lon="11.5705534"><ele>341.0</ele><time>2026-04-11T13:51:31.349Z</time></trkpt><trkpt lat="43.0797938" lon="11.5705738"><ele>340.5</ele><time>2026-04-11T13:51:32.349Z</time></trkpt><trkpt lat="43.0797225" lon="11.5706054"><ele>340.0</ele><time>2026-04-11T13:51:33.348Z</time></trkpt><trkpt lat="43.0796697" lon="11.5707321"><ele>339.5</ele><time>2026-04-11T13:51:35.348Z</time></trkpt><trkpt lat="43.079691" lon="11.5708164"><ele>339.0</ele><time>2026-04-11T13:51:36.349Z</time></trkpt><trkpt lat="43.0798157" lon="11.5708707"><ele>339.0</ele><time>2026-04-11T13:51:38.348Z</time></trkpt><trkpt lat="43.0799033" lon="11.5708773"><ele>339.0</ele><time>2026-04-11T13:51:39.348Z</time></trkpt><trkpt lat="43.0799931" lon="11.570877"><ele>339.0</ele><time>2026-04-11T13:51:40.349Z</time></trkpt><trkpt lat="43.0800909" lon="11.5708954"><ele>339.0</ele><time>2026-04-11T13:51:41.348Z</time></trkpt><trkpt lat="43.0801918" lon="11.570942"><ele>339.0</ele><time>2026-04-11T13:51:42.349Z</time></trkpt><trkpt lat="43.0802919" lon="11.5710089"><ele>338.6</ele><time>2026-04-11T13:51:43.348Z</time></trkpt><trkpt lat="43.080385" lon="11.5710811"><ele>338.2</ele><time>2026-04-11T13:51:44.349Z</time></trkpt><trkpt lat="43.080481" lon="11.5711484"><ele>337.8</ele><time>2026-04-11T13:51:45.349Z</time></trkpt><trkpt lat="43.080584" lon="11.5712137"><ele>337.40000000000003</ele><time>2026-04-11T13:51:46.349Z</time></trkpt><trkpt lat="43.0806896" lon="11.5712791"><ele>337.0</ele><time>2026-04-11T13:51:47.349Z</time></trkpt><trkpt lat="43.0807964" lon="11.571351"><ele>339.0</ele><time>2026-04-11T13:51:48.349Z</time></trkpt><trkpt lat="43.0809014" lon="11.5714275"><ele>341.0</ele><time>2026-04-11T13:51:49.349Z</time></trkpt><trkpt lat="43.0809996" lon="11.571506"><ele>343.0</ele><time>2026-04-11T13:51:50.348Z</time></trkpt><trkpt lat="43.0810935" lon="11.5715842"><ele>345.0</ele><time>2026-04-11T13:51:51.348Z</time></trkpt><trkpt lat="43.0811852" lon="11.5716633"><ele>345.0</ele><time>2026-04-11T13:51:52.348Z</time></trkpt><trkpt lat="43.081275" lon="11.5717395"><ele>345.0</ele><time>2026-04-11T13:51:53.348Z</time></trkpt><trkpt lat="43.0813618" lon="11.5718087"><ele>345.0</ele><time>2026-04-11T13:51:54.348Z</time></trkpt><trkpt lat="43.0814415" lon="11.571869"><ele>345.0</ele><time>2026-04-11T13:51:55.348Z</time></trkpt><trkpt lat="43.0815168" lon="11.5719244"><ele>345.0</ele><time>2026-04-11T13:51:56.348Z</time></trkpt><trkpt lat="43.0815891" lon="11.5719771"><ele>345.6666666666667</ele><time>2026-04-11T13:51:57.349Z</time></trkpt><trkpt lat="43.0816555" lon="11.572029"><ele>346.3333333333333</ele><time>2026-04-11T13:51:58.348Z</time></trkpt><trkpt lat="43.0817178" lon="11.5720891"><ele>347.0</ele><time>2026-04-11T13:51:59.348Z</time></trkpt><trkpt lat="43.0817774" lon="11.5721658"><ele>347.66666666666663</ele><time>2026-04-11T13:52:00.348Z</time></trkpt><trkpt lat="43.0818339" lon="11.5722625"><ele>348.3333333333333</ele><time>2026-04-11T13:52:01.348Z</time></trkpt><trkpt lat="43.0818894" lon="11.5723774"><ele>349.0</ele><time>2026-04-11T13:52:02.348Z</time></trkpt><trkpt lat="43.0819397" lon="11.5725026"><ele>349.0</ele><time>2026-04-11T13:52:03.348Z</time></trkpt><trkpt lat="43.0819925" lon="11.5726369"><ele>349.0</ele><time>2026-04-11T13:52:04.349Z</time></trkpt><trkpt lat="43.0820522" lon="11.5727799"><ele>349.0</ele><time>2026-04-11T13:52:05.349Z</time></trkpt><trkpt lat="43.0821182" lon="11.5729316"><ele>349.0</ele><time>2026-04-11T13:52:06.349Z</time></trkpt><trkpt lat="43.0821875" lon="11.5730937"><ele>349.75</ele><time>2026-04-11T13:52:07.348Z</time></trkpt><trkpt lat="43.0822559" lon="11.5732612"><ele>350.5</ele><time>2026-04-11T13:52:08.349Z</time></trkpt><trkpt lat="43.0823215" lon="11.5734212"><ele>351.25</ele><time>2026-04-11T13:52:09.348Z</time></trkpt><trkpt lat="43.0823863" lon="11.5735758"><ele>352.0</ele><time>2026-04-11T13:52:10.348Z</time></trkpt><trkpt lat="43.0824517" lon="11.5737307"><ele>352.0</ele><time>2026-04-11T13:52:11.348Z</time></trkpt><trkpt lat="43.0825167" lon="11.5738901"><ele>352.0</ele><time>2026-04-11T13:52:12.348Z</time></trkpt><trkpt lat="43.0825834" lon="11.5740513"><ele>352.0</ele><time>2026-04-11T13:52:13.348Z</time></trkpt><trkpt lat="43.0826518" lon="11.5742126"><ele>352.0</ele><time>2026-04-11T13:52:14.349Z</time></trkpt><trkpt lat="43.0827201" lon="11.5743766"><ele>350.75</ele><time>2026-04-11T13:52:15.349Z</time></trkpt><trkpt lat="43.0827873" lon="11.5745425"><ele>349.5</ele><time>2026-04-11T13:52:16.348Z</time></trkpt><trkpt lat="43.0828563" lon="11.5747097"><ele>348.25</ele><time>2026-04-11T13:52:17.35Z</time></trkpt><trkpt lat="43.0829262" lon="11.5748742"><ele>347.0</ele><time>2026-04-11T13:52:18.349Z</time></trkpt><trkpt lat="43.0829936" lon="11.5750363"><ele>347.0</ele><time>2026-04-11T13:52:19.349Z</time></trkpt><trkpt lat="43.0830598" lon="11.5751997"><ele>347.0</ele><time>2026-04-11T13:52:20.35Z</time></trkpt><trkpt lat="43.0831283" lon="11.5753637"><ele>347.0</ele><time>2026-04-11T13:52:21.349Z</time></trkpt><trkpt lat="43.0831965" lon="11.5755238"><ele>347.0</ele><time>2026-04-11T13:52:22.349Z</time></trkpt><trkpt lat="43.0832647" lon="11.5756759"><ele>347.75</ele><time>2026-04-11T13:52:23.35Z</time></trkpt><trkpt lat="43.0833314" lon="11.5758254"><ele>348.5</ele><time>2026-04-11T13:52:24.35Z</time></trkpt><trkpt lat="43.083398" lon="11.5759786"><ele>349.25</ele><time>2026-04-11T13:52:25.349Z</time></trkpt><trkpt lat="43.0834659" lon="11.5761367"><ele>350.0</ele><time>2026-04-11T13:52:26.349Z</time></trkpt><trkpt lat="43.0835336" lon="11.5762986"><ele>350.0</ele><time>2026-04-11T13:52:27.349Z</time></trkpt><trkpt lat="43.0835986" lon="11.5764587"><ele>350.0</ele><time>2026-04-11T13:52:28.349Z</time></trkpt><trkpt lat="43.0836576" lon="11.5766186"><ele>350.0</ele><time>2026-04-11T13:52:29.35Z</time></trkpt><trkpt lat="43.083711" lon="11.5767852"><ele>350.0</ele><time>2026-04-11T13:52:30.35Z</time></trkpt><trkpt lat="43.0837571" lon="11.5769581"><ele>350.0</ele><time>2026-04-11T13:52:31.349Z</time></trkpt><trkpt lat="43.0837968" lon="11.5771376"><ele>350.0</ele><time>2026-04-11T13:52:32.35Z</time></trkpt><trkpt lat="43.0838366" lon="11.5773208"><ele>350.0</ele><time>2026-04-11T13:52:33.349Z</time></trkpt><trkpt lat="43.0838792" lon="11.5775088"><ele>350.0</ele><time>2026-04-11T13:52:34.35Z</time></trkpt><trkpt lat="43.083923" lon="11.5776998"><ele>350.0</ele><time>2026-04-11T13:52:35.349Z</time></trkpt><trkpt lat="43.0839668" lon="11.5778933"><ele>350.0</ele><time>2026-04-11T13:52:36.349Z</time></trkpt><trkpt lat="43.08401" lon="11.5780898"><ele>350.0</ele><time>2026-04-11T13:52:37.349Z</time></trkpt><trkpt lat="43.0840545" lon="11.5782861"><ele>350.0</ele><time>2026-04-11T13:52:38.349Z</time></trkpt><trkpt lat="43.0840974" lon="11.5784762"><ele>351.75</ele><time>2026-04-11T13:52:39.35Z</time></trkpt><trkpt lat="43.0841367" lon="11.5786559"><ele>353.5</ele><time>2026-04-11T13:52:40.349Z</time></trkpt><trkpt lat="43.0841731" lon="11.5788275"><ele>355.25</ele><time>2026-04-11T13:52:41.349Z</time></trkpt><trkpt lat="43.0842102" lon="11.5789904"><ele>357.0</ele><time>2026-04-11T13:52:42.349Z</time></trkpt><trkpt lat="43.0842534" lon="11.5791455"><ele>358.25</ele><time>2026-04-11T13:52:43.349Z</time></trkpt><trkpt lat="43.0843096" lon="11.5792938"><ele>359.5</ele><time>2026-04-11T13:52:44.35Z</time></trkpt><trkpt lat="43.0843877" lon="11.5794378"><ele>360.75</ele><time>2026-04-11T13:52:45.35Z</time></trkpt><trkpt lat="43.0844764" lon="11.5795838"><ele>362.0</ele><time>2026-04-11T13:52:46.349Z</time></trkpt><trkpt lat="43.0845645" lon="11.5797296"><ele>364.0</ele><time>2026-04-11T13:52:47.35Z</time></trkpt><trkpt lat="43.0846487" lon="11.5798785"><ele>366.0</ele><time>2026-04-11T13:52:48.349Z</time></trkpt><trkpt lat="43.0847265" lon="11.5800205"><ele>368.0</ele><time>2026-04-11T13:52:49.349Z</time></trkpt><trkpt lat="43.0848006" lon="11.5801501"><ele>370.0</ele><time>2026-04-11T13:52:50.35Z</time></trkpt><trkpt lat="43.0848619" lon="11.5802602"><ele>370.8</ele><time>2026-04-11T13:52:51.35Z</time></trkpt><trkpt lat="43.0849109" lon="11.5803608"><ele>371.6</ele><time>2026-04-11T13:52:52.35Z</time></trkpt><trkpt lat="43.0849534" lon="11.5804684"><ele>372.4</ele><time>2026-04-11T13:52:53.35Z</time></trkpt><trkpt lat="43.0849852" lon="11.5805893"><ele>373.2</ele><time>2026-04-11T13:52:54.349Z</time></trkpt><trkpt lat="43.0850148" lon="11.5807215"><ele>374.0</ele><time>2026-04-11T13:52:55.349Z</time></trkpt><trkpt lat="43.0850532" lon="11.5808833"><ele>374.25</ele><time>2026-04-11T13:52:56.349Z</time></trkpt><trkpt lat="43.0850976" lon="11.581056"><ele>374.5</ele><time>2026-04-11T13:52:57.349Z</time></trkpt><trkpt lat="43.0851455" lon="11.5812303"><ele>374.75</ele><time>2026-04-11T13:52:58.349Z</time></trkpt><trkpt lat="43.0851948" lon="11.5814077"><ele>375.0</ele><time>2026-04-11T13:52:59.35Z</time></trkpt><trkpt lat="43.0852364" lon="11.5815685"><ele>374.0</ele><time>2026-04-11T13:53:00.349Z</time></trkpt><trkpt lat="43.0852885" lon="11.5817194"><ele>373.0</ele><time>2026-04-11T13:53:01.349Z</time></trkpt><trkpt lat="43.0853568" lon="11.581858"><ele>372.0</ele><time>2026-04-11T13:53:02.349Z</time></trkpt><trkpt lat="43.0854386" lon="11.5819866"><ele>371.0</ele><time>2026-04-11T13:53:03.35Z</time></trkpt><trkpt lat="43.0855365" lon="11.5821076"><ele>372.0</ele><time>2026-04-11T13:53:04.35Z</time></trkpt><trkpt lat="43.0856325" lon="11.5822278"><ele>373.0</ele><time>2026-04-11T13:53:05.349Z</time></trkpt><trkpt lat="43.0857153" lon="11.5823453"><ele>374.0</ele><time>2026-04-11T13:53:06.35Z</time></trkpt><trkpt lat="43.0857846" lon="11.582464"><ele>375.0</ele><time>2026-04-11T13:53:07.349Z</time></trkpt><trkpt lat="43.0858376" lon="11.5825718"><ele>375.0</ele><time>2026-04-11T13:53:08.35Z</time></trkpt><trkpt lat="43.0858894" lon="11.5826609"><ele>375.0</ele><time>2026-04-11T13:53:09.35Z</time></trkpt><trkpt lat="43.085955" lon="11.5827334"><ele>375.0</ele><time>2026-04-11T13:53:10.349Z</time></trkpt><trkpt lat="43.0860344" lon="11.5828035"><ele>375.0</ele><time>2026-04-11T13:53:11.35Z</time></trkpt><trkpt lat="43.0861193" lon="11.5828762"><ele>375.0</ele><time>2026-04-11T13:53:12.349Z</time></trkpt><trkpt lat="43.0862066" lon="11.5829565"><ele>373.8</ele><time>2026-04-11T13:53:13.35Z</time></trkpt><trkpt lat="43.086297" lon="11.5830433"><ele>372.6</ele><time>2026-04-11T13:53:14.35Z</time></trkpt><trkpt lat="43.0863828" lon="11.5831175"><ele>371.4</ele><time>2026-04-11T13:53:15.349Z</time></trkpt><trkpt lat="43.0864618" lon="11.5831868"><ele>370.2</ele><time>2026-04-11T13:53:16.35Z</time></trkpt><trkpt lat="43.086541" lon="11.5832562"><ele>369.0</ele><time>2026-04-11T13:53:17.349Z</time></trkpt><trkpt lat="43.0866214" lon="11.5833283"><ele>369.0</ele><time>2026-04-11T13:53:18.349Z</time></trkpt><trkpt lat="43.0867061" lon="11.5834022"><ele>369.0</ele><time>2026-04-11T13:53:19.35Z</time></trkpt><trkpt lat="43.0867973" lon="11.5834732"><ele>369.0</ele><time>2026-04-11T13:53:20.35Z</time></trkpt><trkpt lat="43.0868973" lon="11.5835434"><ele>369.0</ele><time>2026-04-11T13:53:21.35Z</time></trkpt><trkpt lat="43.0869998" lon="11.583617"><ele>369.0</ele><time>2026-04-11T13:53:22.35Z</time></trkpt><trkpt lat="43.0871013" lon="11.5836983"><ele>365.5</ele><time>2026-04-11T13:53:23.35Z</time></trkpt><trkpt lat="43.087203" lon="11.5837815"><ele>362.0</ele><time>2026-04-11T13:53:24.351Z</time></trkpt><trkpt lat="43.0873074" lon="11.5838655"><ele>358.5</ele><time>2026-04-11T13:53:25.35Z</time></trkpt><trkpt lat="43.0874149" lon="11.5839506"><ele>355.0</ele><time>2026-04-11T13:53:26.351Z</time></trkpt><trkpt lat="43.0875238" lon="11.5840385"><ele>355.0</ele><time>2026-04-11T13:53:27.351Z</time></trkpt><trkpt lat="43.0876317" lon="11.5841211"><ele>355.0</ele><time>2026-04-11T13:53:28.35Z</time></trkpt><trkpt lat="43.0877368" lon="11.5842097"><ele>355.0</ele><time>2026-04-11T13:53:29.35Z</time></trkpt><trkpt lat="43.0878398" lon="11.5842972"><ele>355.0</ele><time>2026-04-11T13:53:30.35Z</time></trkpt><trkpt lat="43.0879429" lon="11.5843842"><ele>355.0</ele><time>2026-04-11T13:53:31.351Z</time></trkpt><trkpt lat="43.0880483" lon="11.5844748"><ele>355.0</ele><time>2026-04-11T13:53:32.35Z</time></trkpt><trkpt lat="43.0881599" lon="11.5845616"><ele>355.0</ele><time>2026-04-11T13:53:33.351Z</time></trkpt><trkpt lat="43.0882782" lon="11.5846423"><ele>355.0</ele><time>2026-04-11T13:53:34.35Z</time></trkpt><trkpt lat="43.0884024" lon="11.5847177"><ele>356.25</ele><time>2026-04-11T13:53:35.351Z</time></trkpt><trkpt lat="43.0885296" lon="11.5847923"><ele>357.5</ele><time>2026-04-11T13:53:36.35Z</time></trkpt><trkpt lat="43.0886493" lon="11.5848626"><ele>358.75</ele><time>2026-04-11T13:53:37.35Z</time></trkpt><trkpt lat="43.088756" lon="11.5849391"><ele>360.0</ele><time>2026-04-11T13:53:38.351Z</time></trkpt><trkpt lat="43.0889802" lon="11.5851395"><ele>360.0</ele><time>2026-04-11T13:53:40.351Z</time></trkpt><trkpt lat="43.0890924" lon="11.5852378"><ele>360.0</ele><time>2026-04-11T13:53:41.35Z</time></trkpt><trkpt lat="43.0891999" lon="11.5853355"><ele>360.0</ele><time>2026-04-11T13:53:42.351Z</time></trkpt><trkpt lat="43.0893054" lon="11.58543"><ele>360.0</ele><time>2026-04-11T13:53:43.351Z</time></trkpt><trkpt lat="43.0894074" lon="11.5855215"><ele>362.5</ele><time>2026-04-11T13:53:44.351Z</time></trkpt><trkpt lat="43.0895124" lon="11.585611"><ele>365.0</ele><time>2026-04-11T13:53:45.35Z</time></trkpt><trkpt lat="43.0896195" lon="11.5856975"><ele>367.5</ele><time>2026-04-11T13:53:46.35Z</time></trkpt><trkpt lat="43.0897248" lon="11.5857817"><ele>370.0</ele><time>2026-04-11T13:53:47.35Z</time></trkpt><trkpt lat="43.0898309" lon="11.5858677"><ele>368.5</ele><time>2026-04-11T13:53:48.351Z</time></trkpt><trkpt lat="43.0899364" lon="11.5859573"><ele>367.0</ele><time>2026-04-11T13:53:49.351Z</time></trkpt><trkpt lat="43.0900367" lon="11.5860527"><ele>365.5</ele><time>2026-04-11T13:53:50.351Z</time></trkpt><trkpt lat="43.0901341" lon="11.5861541"><ele>364.0</ele><time>2026-04-11T13:53:51.35Z</time></trkpt><trkpt lat="43.0902216" lon="11.5862658"><ele>367.5</ele><time>2026-04-11T13:53:52.351Z</time></trkpt><trkpt lat="43.0902954" lon="11.5863982"><ele>371.0</ele><time>2026-04-11T13:53:53.35Z</time></trkpt><trkpt lat="43.0903707" lon="11.5865469"><ele>374.5</ele><time>2026-04-11T13:53:54.351Z</time></trkpt><trkpt lat="43.0904524" lon="11.5867209"><ele>378.0</ele><time>2026-04-11T13:53:55.351Z</time></trkpt><trkpt lat="43.0905345" lon="11.5868941"><ele>379.5</ele><time>2026-04-11T13:53:56.35Z</time></trkpt><trkpt lat="43.0906156" lon="11.5870692"><ele>381.0</ele><time>2026-04-11T13:53:57.351Z</time></trkpt><trkpt lat="43.0906896" lon="11.5872352"><ele>382.5</ele><time>2026-04-11T13:53:58.35Z</time></trkpt><trkpt lat="43.0907634" lon="11.5873941"><ele>384.0</ele><time>2026-04-11T13:53:59.351Z</time></trkpt><trkpt lat="43.0908429" lon="11.5875524"><ele>380.5</ele><time>2026-04-11T13:54:00.351Z</time></trkpt><trkpt lat="43.0909297" lon="11.5877002"><ele>377.0</ele><time>2026-04-11T13:54:01.35Z</time></trkpt><trkpt lat="43.0910283" lon="11.5878201"><ele>373.5</ele><time>2026-04-11T13:54:02.35Z</time></trkpt><trkpt lat="43.0911334" lon="11.5879008"><ele>370.0</ele><time>2026-04-11T13:54:03.351Z</time></trkpt><trkpt lat="43.0912549" lon="11.5879676"><ele>370.0</ele><time>2026-04-11T13:54:04.351Z</time></trkpt><trkpt lat="43.0913779" lon="11.5880321"><ele>370.0</ele><time>2026-04-11T13:54:05.35Z</time></trkpt><trkpt lat="43.0914952" lon="11.5880968"><ele>370.0</ele><time>2026-04-11T13:54:06.35Z</time></trkpt><trkpt lat="43.0916037" lon="11.5881589"><ele>370.0</ele><time>2026-04-11T13:54:07.351Z</time></trkpt><trkpt lat="43.0917024" lon="11.5882197"><ele>369.2</ele><time>2026-04-11T13:54:08.351Z</time></trkpt><trkpt lat="43.0917938" lon="11.5882801"><ele>368.4</ele><time>2026-04-11T13:54:09.351Z</time></trkpt><trkpt lat="43.0918777" lon="11.5883348"><ele>367.6</ele><time>2026-04-11T13:54:10.35Z</time></trkpt><trkpt lat="43.0919576" lon="11.5883843"><ele>366.8</ele><time>2026-04-11T13:54:11.35Z</time></trkpt><trkpt lat="43.0920357" lon="11.5884293"><ele>366.0</ele><time>2026-04-11T13:54:12.351Z</time></trkpt><trkpt lat="43.0922065" lon="11.588526"><ele>366.0</ele><time>2026-04-11T13:54:14.351Z</time></trkpt><trkpt lat="43.0922985" lon="11.5885764"><ele>366.0</ele><time>2026-04-11T13:54:15.351Z</time></trkpt><trkpt lat="43.0923894" lon="11.5886337"><ele>366.0</ele><time>2026-04-11T13:54:16.351Z</time></trkpt><trkpt lat="43.0924737" lon="11.5886902"><ele>366.0</ele><time>2026-04-11T13:54:17.351Z</time></trkpt><trkpt lat="43.0925579" lon="11.5887496"><ele>366.0</ele><time>2026-04-11T13:54:18.35Z</time></trkpt><trkpt lat="43.0926351" lon="11.588813"><ele>364.4</ele><time>2026-04-11T13:54:19.35Z</time></trkpt><trkpt lat="43.0927121" lon="11.5888839"><ele>362.8</ele><time>2026-04-11T13:54:20.351Z</time></trkpt><trkpt lat="43.0927905" lon="11.5889625"><ele>361.2</ele><time>2026-04-11T13:54:21.351Z</time></trkpt><trkpt lat="43.0928712" lon="11.5890511"><ele>359.59999999999997</ele><time>2026-04-11T13:54:22.35Z</time></trkpt><trkpt lat="43.092952" lon="11.5891496"><ele>358.0</ele><time>2026-04-11T13:54:23.351Z</time></trkpt><trkpt lat="43.0930333" lon="11.5892612"><ele>358.0</ele><time>2026-04-11T13:54:24.35Z</time></trkpt><trkpt lat="43.0931138" lon="11.5893864"><ele>358.0</ele><time>2026-04-11T13:54:25.351Z</time></trkpt><trkpt lat="43.0931875" lon="11.5895232"><ele>358.0</ele><time>2026-04-11T13:54:26.351Z</time></trkpt><trkpt lat="43.0932541" lon="11.5896668"><ele>358.0</ele><time>2026-04-11T13:54:27.352Z</time></trkpt><trkpt lat="43.0933182" lon="11.5898102"><ele>355.5</ele><time>2026-04-11T13:54:28.351Z</time></trkpt><trkpt lat="43.093383" lon="11.5899505"><ele>353.0</ele><time>2026-04-11T13:54:29.351Z</time></trkpt><trkpt lat="43.0934501" lon="11.5900844"><ele>350.5</ele><time>2026-04-11T13:54:30.351Z</time></trkpt><trkpt lat="43.0935234" lon="11.5902057"><ele>348.0</ele><time>2026-04-11T13:54:31.351Z</time></trkpt><trkpt lat="43.0936025" lon="11.5903135"><ele>345.4</ele><time>2026-04-11T13:54:32.351Z</time></trkpt><trkpt lat="43.0936863" lon="11.5904095"><ele>342.79999999999995</ele><time>2026-04-11T13:54:33.351Z</time></trkpt><trkpt lat="43.0937746" lon="11.5904998"><ele>340.2</ele><time>2026-04-11T13:54:34.352Z</time></trkpt><trkpt lat="43.0938659" lon="11.5905901"><ele>337.6</ele><time>2026-04-11T13:54:35.352Z</time></trkpt><trkpt lat="43.0939559" lon="11.5906783"><ele>335.0</ele><time>2026-04-11T13:54:36.352Z</time></trkpt><trkpt lat="43.0940453" lon="11.5907649"><ele>335.4</ele><time>2026-04-11T13:54:37.351Z</time></trkpt><trkpt lat="43.0941341" lon="11.5908492"><ele>335.8</ele><time>2026-04-11T13:54:38.352Z</time></trkpt><trkpt lat="43.0942213" lon="11.5909363"><ele>336.20000000000005</ele><time>2026-04-11T13:54:39.352Z</time></trkpt><trkpt lat="43.0943028" lon="11.591032"><ele>336.6</ele><time>2026-04-11T13:54:40.352Z</time></trkpt><trkpt lat="43.0943727" lon="11.5911422"><ele>337.0</ele><time>2026-04-11T13:54:41.352Z</time></trkpt><trkpt lat="43.0944293" lon="11.5912709"><ele>337.0</ele><time>2026-04-11T13:54:42.351Z</time></trkpt><trkpt lat="43.0944765" lon="11.5914174"><ele>337.0</ele><time>2026-04-11T13:54:43.352Z</time></trkpt><trkpt lat="43.094525" lon="11.5915718"><ele>337.0</ele><time>2026-04-11T13:54:44.351Z</time></trkpt><trkpt lat="43.0945801" lon="11.5917292"><ele>337.0</ele><time>2026-04-11T13:54:45.352Z</time></trkpt><trkpt lat="43.0946424" lon="11.5918901"><ele>335.5</ele><time>2026-04-11T13:54:46.351Z</time></trkpt><trkpt lat="43.0947086" lon="11.592055"><ele>334.0</ele><time>2026-04-11T13:54:47.351Z</time></trkpt><trkpt lat="43.0947763" lon="11.5922261"><ele>332.5</ele><time>2026-04-11T13:54:48.351Z</time></trkpt><trkpt lat="43.0948466" lon="11.592402"><ele>331.0</ele><time>2026-04-11T13:54:49.351Z</time></trkpt><trkpt lat="43.0949204" lon="11.5925781"><ele>334.0</ele><time>2026-04-11T13:54:50.352Z</time></trkpt><trkpt lat="43.0949936" lon="11.5927496"><ele>337.0</ele><time>2026-04-11T13:54:51.351Z</time></trkpt><trkpt lat="43.0950654" lon="11.5929151"><ele>340.0</ele><time>2026-04-11T13:54:52.351Z</time></trkpt><trkpt lat="43.0951348" lon="11.5930739"><ele>343.0</ele><time>2026-04-11T13:54:53.351Z</time></trkpt><trkpt lat="43.0952007" lon="11.5932239"><ele>343.0</ele><time>2026-04-11T13:54:54.352Z</time></trkpt><trkpt lat="43.095263" lon="11.5933705"><ele>343.0</ele><time>2026-04-11T13:54:55.352Z</time></trkpt><trkpt lat="43.0953252" lon="11.593527"><ele>343.0</ele><time>2026-04-11T13:54:56.351Z</time></trkpt><trkpt lat="43.0953899" lon="11.5936916"><ele>343.0</ele><time>2026-04-11T13:54:57.352Z</time></trkpt><trkpt lat="43.095459" lon="11.5938661"><ele>340.75</ele><time>2026-04-11T13:54:58.351Z</time></trkpt><trkpt lat="43.0955327" lon="11.594047"><ele>338.5</ele><time>2026-04-11T13:54:59.351Z</time></trkpt><trkpt lat="43.0956054" lon="11.5942269"><ele>336.25</ele><time>2026-04-11T13:55:00.351Z</time></trkpt><trkpt lat="43.0956694" lon="11.5943885"><ele>334.0</ele><time>2026-04-11T13:55:01.352Z</time></trkpt><trkpt lat="43.0957264" lon="11.5945332"><ele>336.6</ele><time>2026-04-11T13:55:02.352Z</time></trkpt><trkpt lat="43.0957804" lon="11.5946578"><ele>339.2</ele><time>2026-04-11T13:55:03.352Z</time></trkpt><trkpt lat="43.0958392" lon="11.5947715"><ele>341.8</ele><time>2026-04-11T13:55:04.352Z</time></trkpt><trkpt lat="43.0959084" lon="11.5948692"><ele>344.40000000000003</ele><time>2026-04-11T13:55:05.352Z</time></trkpt><trkpt lat="43.0959913" lon="11.5949507"><ele>347.0</ele><time>2026-04-11T13:55:06.351Z</time></trkpt><trkpt lat="43.0960848" lon="11.595019"><ele>347.0</ele><time>2026-04-11T13:55:07.351Z</time></trkpt><trkpt lat="43.0961771" lon="11.5950747"><ele>347.0</ele><time>2026-04-11T13:55:08.352Z</time></trkpt><trkpt lat="43.0962638" lon="11.5951429"><ele>347.0</ele><time>2026-04-11T13:55:09.351Z</time></trkpt><trkpt lat="43.0963326" lon="11.5952228"><ele>347.0</ele><time>2026-04-11T13:55:10.352Z</time></trkpt><trkpt lat="43.0963898" lon="11.5953229"><ele>347.0</ele><time>2026-04-11T13:55:11.352Z</time></trkpt><trkpt lat="43.0964351" lon="11.5954558"><ele>346.75</ele><time>2026-04-11T13:55:12.351Z</time></trkpt><trkpt lat="43.0964802" lon="11.5955967"><ele>346.5</ele><time>2026-04-11T13:55:13.351Z</time></trkpt><trkpt lat="43.0965229" lon="11.5957367"><ele>346.25</ele><time>2026-04-11T13:55:14.352Z</time></trkpt><trkpt lat="43.0965651" lon="11.5958829"><ele>346.0</ele><time>2026-04-11T13:55:15.352Z</time></trkpt><trkpt lat="43.0966031" lon="11.5960385"><ele>348.75</ele><time>2026-04-11T13:55:16.351Z</time></trkpt><trkpt lat="43.0966403" lon="11.5962155"><ele>351.5</ele><time>2026-04-11T13:55:17.351Z</time></trkpt><trkpt lat="43.0966788" lon="11.5964061"><ele>354.25</ele><time>2026-04-11T13:55:18.351Z</time></trkpt><trkpt lat="43.0967194" lon="11.5965914"><ele>357.0</ele><time>2026-04-11T13:55:19.351Z</time></trkpt><trkpt lat="43.0967581" lon="11.5967518"><ele>357.0</ele><time>2026-04-11T13:55:20.351Z</time></trkpt><trkpt lat="43.0967922" lon="11.5968993"><ele>357.0</ele><time>2026-04-11T13:55:21.351Z</time></trkpt><trkpt lat="43.0968206" lon="11.5970296"><ele>357.0</ele><time>2026-04-11T13:55:22.351Z</time></trkpt><trkpt lat="43.0968476" lon="11.5971405"><ele>357.0</ele><time>2026-04-11T13:55:23.352Z</time></trkpt><trkpt lat="43.0968808" lon="11.5972242"><ele>357.0</ele><time>2026-04-11T13:55:24.352Z</time></trkpt><trkpt lat="43.0969303" lon="11.5972875"><ele>357.0</ele><time>2026-04-11T13:55:25.351Z</time></trkpt><trkpt lat="43.0969971" lon="11.5973315"><ele>358.5</ele><time>2026-04-11T13:55:26.352Z</time></trkpt><trkpt lat="43.0970783" lon="11.5973695"><ele>360.0</ele><time>2026-04-11T13:55:27.351Z</time></trkpt><trkpt lat="43.0971897" lon="11.5974177"><ele>361.5</ele><time>2026-04-11T13:55:28.352Z</time></trkpt><trkpt lat="43.0973" lon="11.5974973"><ele>363.0</ele><time>2026-04-11T13:55:29.351Z</time></trkpt><trkpt lat="43.097397" lon="11.5976111"><ele>362.0</ele><time>2026-04-11T13:55:30.351Z</time></trkpt><trkpt lat="43.0974854" lon="11.5977476"><ele>361.0</ele><time>2026-04-11T13:55:31.353Z</time></trkpt><trkpt lat="43.097571" lon="11.5978931"><ele>360.0</ele><time>2026-04-11T13:55:32.352Z</time></trkpt><trkpt lat="43.0976581" lon="11.5980414"><ele>359.0</ele><time>2026-04-11T13:55:33.352Z</time></trkpt><trkpt lat="43.0977517" lon="11.5981857"><ele>361.0</ele><time>2026-04-11T13:55:34.353Z</time></trkpt><trkpt lat="43.0978411" lon="11.5983209"><ele>363.0</ele><time>2026-04-11T13:55:35.352Z</time></trkpt><trkpt lat="43.0979203" lon="11.5984419"><ele>365.0</ele><time>2026-04-11T13:55:36.353Z</time></trkpt><trkpt lat="43.0979867" lon="11.5985406"><ele>367.0</ele><time>2026-04-11T13:55:37.352Z</time></trkpt><trkpt lat="43.0980529" lon="11.5986093"><ele>369.0</ele><time>2026-04-11T13:55:38.352Z</time></trkpt><trkpt lat="43.0981236" lon="11.5986548"><ele>369.0</ele><time>2026-04-11T13:55:39.353Z</time></trkpt><trkpt lat="43.0981934" lon="11.59866"><ele>369.0</ele><time>2026-04-11T13:55:40.352Z</time></trkpt><trkpt lat="43.0982746" lon="11.5986303"><ele>369.0</ele><time>2026-04-11T13:55:41.352Z</time></trkpt><trkpt lat="43.0983591" lon="11.5985514"><ele>369.0</ele><time>2026-04-11T13:55:42.353Z</time></trkpt><trkpt lat="43.0984398" lon="11.5984509"><ele>369.0</ele><time>2026-04-11T13:55:43.353Z</time></trkpt><trkpt lat="43.0985032" lon="11.5983374"><ele>368.6</ele><time>2026-04-11T13:55:44.353Z</time></trkpt><trkpt lat="43.0985456" lon="11.5982239"><ele>368.2</ele><time>2026-04-11T13:55:45.353Z</time></trkpt><trkpt lat="43.0985738" lon="11.5981072"><ele>367.8</ele><time>2026-04-11T13:55:46.352Z</time></trkpt><trkpt lat="43.0985909" lon="11.5979677"><ele>367.40000000000003</ele><time>2026-04-11T13:55:47.352Z</time></trkpt><trkpt lat="43.0986102" lon="11.5978229"><ele>367.0</ele><time>2026-04-11T13:55:48.353Z</time></trkpt><trkpt lat="43.0986454" lon="11.5976808"><ele>366.16666666666663</ele><time>2026-04-11T13:55:49.352Z</time></trkpt><trkpt lat="43.0986883" lon="11.5975477"><ele>365.3333333333333</ele><time>2026-04-11T13:55:50.352Z</time></trkpt><trkpt lat="43.0987345" lon="11.5974413"><ele>364.5</ele><time>2026-04-11T13:55:51.352Z</time></trkpt><trkpt lat="43.098779" lon="11.5973728"><ele>363.6666666666667</ele><time>2026-04-11T13:55:52.353Z</time></trkpt><trkpt lat="43.0988453" lon="11.5973327"><ele>362.83333333333337</ele><time>2026-04-11T13:55:53.353Z</time></trkpt><trkpt lat="43.0989252" lon="11.597346"><ele>362.0</ele><time>2026-04-11T13:55:54.352Z</time></trkpt><trkpt lat="43.0990265" lon="11.5974129"><ele>361.0</ele><time>2026-04-11T13:55:55.353Z</time></trkpt><trkpt lat="43.0991258" lon="11.597505"><ele>360.0</ele><time>2026-04-11T13:55:56.352Z</time></trkpt><trkpt lat="43.0992297" lon="11.5976145"><ele>359.0</ele><time>2026-04-11T13:55:57.352Z</time></trkpt><trkpt lat="43.0993255" lon="11.5977352"><ele>358.0</ele><time>2026-04-11T13:55:58.352Z</time></trkpt><trkpt lat="43.0994186" lon="11.5978746"><ele>360.0</ele><time>2026-04-11T13:55:59.353Z</time></trkpt><trkpt lat="43.0995106" lon="11.5980285"><ele>362.0</ele><time>2026-04-11T13:56:00.353Z</time></trkpt><trkpt lat="43.0995964" lon="11.5981737"><ele>364.0</ele><time>2026-04-11T13:56:01.352Z</time></trkpt><trkpt lat="43.099675" lon="11.59831"><ele>366.0</ele><time>2026-04-11T13:56:02.353Z</time></trkpt><trkpt lat="43.0997476" lon="11.5984325"><ele>366.0</ele><time>2026-04-11T13:56:03.353Z</time></trkpt><trkpt lat="43.0998142" lon="11.5985449"><ele>366.0</ele><time>2026-04-11T13:56:04.352Z</time></trkpt><trkpt lat="43.0998763" lon="11.5986536"><ele>366.0</ele><time>2026-04-11T13:56:05.352Z</time></trkpt><trkpt lat="43.0999373" lon="11.5987616"><ele>366.0</ele><time>2026-04-11T13:56:06.352Z</time></trkpt><trkpt lat="43.0999966" lon="11.5988683"><ele>366.0</ele><time>2026-04-11T13:56:07.353Z</time></trkpt><trkpt lat="43.1000596" lon="11.5989709"><ele>363.6</ele><time>2026-04-11T13:56:08.352Z</time></trkpt><trkpt lat="43.1001302" lon="11.5990679"><ele>361.20000000000005</ele><time>2026-04-11T13:56:09.352Z</time></trkpt><trkpt lat="43.1002073" lon="11.5991572"><ele>358.79999999999995</ele><time>2026-04-11T13:56:10.353Z</time></trkpt><trkpt lat="43.100307" lon="11.5992355"><ele>356.4</ele><time>2026-04-11T13:56:11.352Z</time></trkpt><trkpt lat="43.1004154" lon="11.5992857"><ele>354.0</ele><time>2026-04-11T13:56:12.352Z</time></trkpt><trkpt lat="43.100532" lon="11.5993093"><ele>354.0</ele><time>2026-04-11T13:56:13.352Z</time></trkpt><trkpt lat="43.1006476" lon="11.599299"><ele>354.0</ele><time>2026-04-11T13:56:14.353Z</time></trkpt><trkpt lat="43.1007628" lon="11.5992768"><ele>354.0</ele><time>2026-04-11T13:56:15.352Z</time></trkpt><trkpt lat="43.1008868" lon="11.5992519"><ele>354.0</ele><time>2026-04-11T13:56:16.353Z</time></trkpt><trkpt lat="43.1010189" lon="11.5992279"><ele>352.75</ele><time>2026-04-11T13:56:17.352Z</time></trkpt><trkpt lat="43.1011532" lon="11.5992098"><ele>351.5</ele><time>2026-04-11T13:56:18.353Z</time></trkpt><trkpt lat="43.1012887" lon="11.5992049"><ele>350.25</ele><time>2026-04-11T13:56:19.353Z</time></trkpt><trkpt lat="43.1014183" lon="11.5992253"><ele>349.0</ele><time>2026-04-11T13:56:20.352Z</time></trkpt><trkpt lat="43.1015458" lon="11.5992687"><ele>350.0</ele><time>2026-04-11T13:56:21.352Z</time></trkpt><trkpt lat="43.1016594" lon="11.5993532"><ele>351.0</ele><time>2026-04-11T13:56:22.353Z</time></trkpt><trkpt lat="43.1018282" lon="11.5995782"><ele>352.0</ele><time>2026-04-11T13:56:24.352Z</time></trkpt><trkpt lat="43.101908" lon="11.599707"><ele>352.0</ele><time>2026-04-11T13:56:25.353Z</time></trkpt><trkpt lat="43.1019746" lon="11.5998367"><ele>352.0</ele><time>2026-04-11T13:56:26.352Z</time></trkpt><trkpt lat="43.1020364" lon="11.5999789"><ele>352.0</ele><time>2026-04-11T13:56:27.353Z</time></trkpt><trkpt lat="43.1021028" lon="11.600127"><ele>352.0</ele><time>2026-04-11T13:56:28.353Z</time></trkpt><trkpt lat="43.1021725" lon="11.600284"><ele>349.75</ele><time>2026-04-11T13:56:29.353Z</time></trkpt><trkpt lat="43.1022417" lon="11.6004368"><ele>347.5</ele><time>2026-04-11T13:56:30.352Z</time></trkpt><trkpt lat="43.1023043" lon="11.6005792"><ele>345.25</ele><time>2026-04-11T13:56:31.353Z</time></trkpt><trkpt lat="43.1023591" lon="11.6007069"><ele>343.0</ele><time>2026-04-11T13:56:32.352Z</time></trkpt><trkpt lat="43.1024154" lon="11.6008216"><ele>346.16666666666663</ele><time>2026-04-11T13:56:33.353Z</time></trkpt><trkpt lat="43.102482" lon="11.600919"><ele>349.3333333333333</ele><time>2026-04-11T13:56:34.352Z</time></trkpt><trkpt lat="43.1025515" lon="11.6009949"><ele>352.5</ele><time>2026-04-11T13:56:35.352Z</time></trkpt><trkpt lat="43.1026271" lon="11.6010438"><ele>355.6666666666667</ele><time>2026-04-11T13:56:36.352Z</time></trkpt><trkpt lat="43.1027019" lon="11.6010569"><ele>358.83333333333337</ele><time>2026-04-11T13:56:37.354Z</time></trkpt><trkpt lat="43.1027726" lon="11.601038"><ele>362.0</ele><time>2026-04-11T13:56:38.354Z</time></trkpt><trkpt lat="43.1028351" lon="11.6009946"><ele>362.0</ele><time>2026-04-11T13:56:39.354Z</time></trkpt><trkpt lat="43.1028962" lon="11.6009427"><ele>362.0</ele><time>2026-04-11T13:56:40.354Z</time></trkpt><trkpt lat="43.1029532" lon="11.6008636"><ele>362.0</ele><time>2026-04-11T13:56:41.354Z</time></trkpt><trkpt lat="43.1030161" lon="11.6007775"><ele>362.0</ele><time>2026-04-11T13:56:42.353Z</time></trkpt><trkpt lat="43.1031" lon="11.6006768"><ele>362.0</ele><time>2026-04-11T13:56:43.354Z</time></trkpt><trkpt lat="43.1031799" lon="11.6005852"><ele>362.20000000000005</ele><time>2026-04-11T13:56:44.353Z</time></trkpt><trkpt lat="43.1032556" lon="11.6005284"><ele>362.4</ele><time>2026-04-11T13:56:45.353Z</time></trkpt><trkpt lat="43.1033404" lon="11.6004925"><ele>362.6</ele><time>2026-04-11T13:56:46.353Z</time></trkpt><trkpt lat="43.1034378" lon="11.6004805"><ele>362.79999999999995</ele><time>2026-04-11T13:56:47.354Z</time></trkpt><trkpt lat="43.103536" lon="11.6004785"><ele>363.0</ele><time>2026-04-11T13:56:48.354Z</time></trkpt><trkpt lat="43.1036486" lon="11.6004909"><ele>363.0</ele><time>2026-04-11T13:56:49.353Z</time></trkpt><trkpt lat="43.1037692" lon="11.6005088"><ele>363.0</ele><time>2026-04-11T13:56:50.354Z</time></trkpt><trkpt lat="43.1038961" lon="11.600534"><ele>363.0</ele><time>2026-04-11T13:56:51.353Z</time></trkpt><trkpt lat="43.1040397" lon="11.6005624"><ele>363.0</ele><time>2026-04-11T13:56:52.353Z</time></trkpt><trkpt lat="43.1041926" lon="11.6005888"><ele>363.5</ele><time>2026-04-11T13:56:53.353Z</time></trkpt><trkpt lat="43.1043437" lon="11.6006216"><ele>364.0</ele><time>2026-04-11T13:56:54.354Z</time></trkpt><trkpt lat="43.1044868" lon="11.6006482"><ele>364.5</ele><time>2026-04-11T13:56:55.353Z</time></trkpt><trkpt lat="43.1046214" lon="11.6006684"><ele>365.0</ele><time>2026-04-11T13:56:56.353Z</time></trkpt><trkpt lat="43.1047595" lon="11.6006927"><ele>365.0</ele><time>2026-04-11T13:56:57.354Z</time></trkpt><trkpt lat="43.1048958" lon="11.6007182"><ele>365.0</ele><time>2026-04-11T13:56:58.353Z</time></trkpt><trkpt lat="43.1050245" lon="11.6007384"><ele>365.0</ele><time>2026-04-11T13:56:59.353Z</time></trkpt><trkpt lat="43.1051447" lon="11.6007543"><ele>365.0</ele><time>2026-04-11T13:57:00.354Z</time></trkpt><trkpt lat="43.1052645" lon="11.6007576"><ele>365.5</ele><time>2026-04-11T13:57:01.353Z</time></trkpt><trkpt lat="43.1053819" lon="11.6007544"><ele>366.0</ele><time>2026-04-11T13:57:02.354Z</time></trkpt><trkpt lat="43.1055" lon="11.6007208"><ele>366.5</ele><time>2026-04-11T13:57:03.354Z</time></trkpt><trkpt lat="43.1056113" lon="11.6006668"><ele>367.0</ele><time>2026-04-11T13:57:04.354Z</time></trkpt><trkpt lat="43.1057247" lon="11.6006095"><ele>368.5</ele><time>2026-04-11T13:57:05.353Z</time></trkpt><trkpt lat="43.1058374" lon="11.6005329"><ele>370.0</ele><time>2026-04-11T13:57:06.354Z</time></trkpt><trkpt lat="43.1059411" lon="11.6004658"><ele>371.5</ele><time>2026-04-11T13:57:07.354Z</time></trkpt><trkpt lat="43.1060433" lon="11.6004015"><ele>373.0</ele><time>2026-04-11T13:57:08.353Z</time></trkpt><trkpt lat="43.106143" lon="11.6003541"><ele>373.0</ele><time>2026-04-11T13:57:09.354Z</time></trkpt><trkpt lat="43.1062394" lon="11.6003185"><ele>373.0</ele><time>2026-04-11T13:57:10.353Z</time></trkpt><trkpt lat="43.1063371" lon="11.6003279"><ele>373.0</ele><time>2026-04-11T13:57:11.354Z</time></trkpt><trkpt lat="43.1064358" lon="11.6003585"><ele>373.0</ele><time>2026-04-11T13:57:12.353Z</time></trkpt><trkpt lat="43.1065375" lon="11.6004093"><ele>373.0</ele><time>2026-04-11T13:57:13.354Z</time></trkpt><trkpt lat="43.1066476" lon="11.600477"><ele>375.75</ele><time>2026-04-11T13:57:14.354Z</time></trkpt><trkpt lat="43.1067663" lon="11.6005544"><ele>378.5</ele><time>2026-04-11T13:57:15.354Z</time></trkpt><trkpt lat="43.106892" lon="11.6006379"><ele>381.25</ele><time>2026-04-11T13:57:16.354Z</time></trkpt><trkpt lat="43.1070213" lon="11.6007255"><ele>384.0</ele><time>2026-04-11T13:57:17.353Z</time></trkpt><trkpt lat="43.107153" lon="11.6008203"><ele>384.0</ele><time>2026-04-11T13:57:18.354Z</time></trkpt><trkpt lat="43.1072857" lon="11.6009221"><ele>384.0</ele><time>2026-04-11T13:57:19.354Z</time></trkpt><trkpt lat="43.1074131" lon="11.6010184"><ele>384.0</ele><time>2026-04-11T13:57:20.354Z</time></trkpt><trkpt lat="43.1075305" lon="11.6011031"><ele>384.0</ele><time>2026-04-11T13:57:21.353Z</time></trkpt><trkpt lat="43.1076366" lon="11.6011835"><ele>385.79999999999995</ele><time>2026-04-11T13:57:22.353Z</time></trkpt><trkpt lat="43.1077304" lon="11.6012625"><ele>387.59999999999997</ele><time>2026-04-11T13:57:23.354Z</time></trkpt><trkpt lat="43.1078124" lon="11.6013473"><ele>389.4</ele><time>2026-04-11T13:57:24.354Z</time></trkpt><trkpt lat="43.1078911" lon="11.6014322"><ele>391.2</ele><time>2026-04-11T13:57:25.354Z</time></trkpt><trkpt lat="43.1079549" lon="11.6015189"><ele>393.0</ele><time>2026-04-11T13:57:26.354Z</time></trkpt><trkpt lat="43.1080049" lon="11.6016143"><ele>393.0</ele><time>2026-04-11T13:57:27.353Z</time></trkpt><trkpt lat="43.1080485" lon="11.6017126"><ele>393.0</ele><time>2026-04-11T13:57:28.354Z</time></trkpt><trkpt lat="43.108079" lon="11.601826"><ele>393.0</ele><time>2026-04-11T13:57:29.353Z</time></trkpt><trkpt lat="43.1080841" lon="11.6019584"><ele>393.0</ele><time>2026-04-11T13:57:30.353Z</time></trkpt><trkpt lat="43.1080843" lon="11.6021053"><ele>393.0</ele><time>2026-04-11T13:57:31.354Z</time></trkpt><trkpt lat="43.1080691" lon="11.6022544"><ele>392.2</ele><time>2026-04-11T13:57:32.354Z</time></trkpt><trkpt lat="43.1080422" lon="11.602403"><ele>391.4</ele><time>2026-04-11T13:57:33.353Z</time></trkpt><trkpt lat="43.1080126" lon="11.6025494"><ele>390.59999999999997</ele><time>2026-04-11T13:57:34.353Z</time></trkpt><trkpt lat="43.1079727" lon="11.6027"><ele>389.79999999999995</ele><time>2026-04-11T13:57:35.353Z</time></trkpt><trkpt lat="43.1079366" lon="11.6028406"><ele>389.0</ele><time>2026-04-11T13:57:36.354Z</time></trkpt><trkpt lat="43.1079043" lon="11.6029715"><ele>386.79999999999995</ele><time>2026-04-11T13:57:37.353Z</time></trkpt><trkpt lat="43.1078746" lon="11.6030889"><ele>384.59999999999997</ele><time>2026-04-11T13:57:38.353Z</time></trkpt><trkpt lat="43.1078453" lon="11.6032125"><ele>382.4</ele><time>2026-04-11T13:57:39.354Z</time></trkpt><trkpt lat="43.1078249" lon="11.6033374"><ele>380.2</ele><time>2026-04-11T13:57:40.354Z</time></trkpt><trkpt lat="43.1078228" lon="11.6034677"><ele>378.0</ele><time>2026-04-11T13:57:41.355Z</time></trkpt><trkpt lat="43.1078389" lon="11.6035999"><ele>376.25</ele><time>2026-04-11T13:57:42.354Z</time></trkpt><trkpt lat="43.1078776" lon="11.6037428"><ele>374.5</ele><time>2026-04-11T13:57:43.354Z</time></trkpt><trkpt lat="43.1079263" lon="11.6038944"><ele>372.75</ele><time>2026-04-11T13:57:44.354Z</time></trkpt><trkpt lat="43.1079774" lon="11.6040508"><ele>371.0</ele><time>2026-04-11T13:57:45.355Z</time></trkpt><trkpt lat="43.1080298" lon="11.604207"><ele>371.0</ele><time>2026-04-11T13:57:46.354Z</time></trkpt><trkpt lat="43.1080831" lon="11.6043474"><ele>371.0</ele><time>2026-04-11T13:57:47.355Z</time></trkpt><trkpt lat="43.1081436" lon="11.6044638"><ele>371.0</ele><time>2026-04-11T13:57:48.355Z</time></trkpt><trkpt lat="43.1082207" lon="11.6045733"><ele>371.0</ele><time>2026-04-11T13:57:49.354Z</time></trkpt><trkpt lat="43.1083193" lon="11.6046754"><ele>372.6666666666667</ele><time>2026-04-11T13:57:50.355Z</time></trkpt><trkpt lat="43.1084321" lon="11.6047776"><ele>374.3333333333333</ele><time>2026-04-11T13:57:51.354Z</time></trkpt><trkpt lat="43.1085622" lon="11.6048899"><ele>376.0</ele><time>2026-04-11T13:57:52.354Z</time></trkpt><trkpt lat="43.1087033" lon="11.6050138"><ele>376.0</ele><time>2026-04-11T13:57:53.354Z</time></trkpt><trkpt lat="43.1088515" lon="11.6051441"><ele>376.0</ele><time>2026-04-11T13:57:54.354Z</time></trkpt><trkpt lat="43.1089907" lon="11.6052672"><ele>376.0</ele><time>2026-04-11T13:57:55.355Z</time></trkpt><trkpt lat="43.1091225" lon="11.6053827"><ele>375.75</ele><time>2026-04-11T13:57:56.355Z</time></trkpt><trkpt lat="43.1092465" lon="11.6054917"><ele>375.5</ele><time>2026-04-11T13:57:57.355Z</time></trkpt><trkpt lat="43.1093671" lon="11.6056052"><ele>375.25</ele><time>2026-04-11T13:57:58.354Z</time></trkpt><trkpt lat="43.1094818" lon="11.6057183"><ele>375.0</ele><time>2026-04-11T13:57:59.355Z</time></trkpt><trkpt lat="43.1096037" lon="11.6058367"><ele>375.0</ele><time>2026-04-11T13:58:00.354Z</time></trkpt><trkpt lat="43.1097287" lon="11.6059565"><ele>375.0</ele><time>2026-04-11T13:58:01.355Z</time></trkpt><trkpt lat="43.1098524" lon="11.6060767"><ele>375.0</ele><time>2026-04-11T13:58:02.355Z</time></trkpt><trkpt lat="43.1099702" lon="11.6061927"><ele>375.0</ele><time>2026-04-11T13:58:03.355Z</time></trkpt><trkpt lat="43.1100862" lon="11.6063076"><ele>374.25</ele><time>2026-04-11T13:58:04.355Z</time></trkpt><trkpt lat="43.1101962" lon="11.6064184"><ele>373.5</ele><time>2026-04-11T13:58:05.354Z</time></trkpt><trkpt lat="43.1102971" lon="11.6065216"><ele>372.75</ele><time>2026-04-11T13:58:06.355Z</time></trkpt><trkpt lat="43.1103882" lon="11.6066131"><ele>372.0</ele><time>2026-04-11T13:58:07.355Z</time></trkpt><trkpt lat="43.1104699" lon="11.6066917"><ele>372.0</ele><time>2026-04-11T13:58:08.355Z</time></trkpt><trkpt lat="43.1105468" lon="11.6067551"><ele>372.0</ele><time>2026-04-11T13:58:09.354Z</time></trkpt><trkpt lat="43.1106235" lon="11.606802"><ele>372.0</ele><time>2026-04-11T13:58:10.354Z</time></trkpt><trkpt lat="43.1107078" lon="11.6068351"><ele>372.0</ele><time>2026-04-11T13:58:11.354Z</time></trkpt><trkpt lat="43.1108089" lon="11.6068629"><ele>372.0</ele><time>2026-04-11T13:58:12.354Z</time></trkpt><trkpt lat="43.1109301" lon="11.6069091"><ele>370.5</ele><time>2026-04-11T13:58:13.354Z</time></trkpt><trkpt lat="43.1110521" lon="11.6069829"><ele>369.0</ele><time>2026-04-11T13:58:14.355Z</time></trkpt><trkpt lat="43.1111743" lon="11.6070908"><ele>367.5</ele><time>2026-04-11T13:58:15.355Z</time></trkpt><trkpt lat="43.1112944" lon="11.6072087"><ele>366.0</ele><time>2026-04-11T13:58:16.354Z</time></trkpt><trkpt lat="43.1114095" lon="11.6073199"><ele>365.75</ele><time>2026-04-11T13:58:17.355Z</time></trkpt><trkpt lat="43.1115205" lon="11.6074185"><ele>365.5</ele><time>2026-04-11T13:58:18.355Z</time></trkpt><trkpt lat="43.1116197" lon="11.6075083"><ele>365.25</ele><time>2026-04-11T13:58:19.354Z</time></trkpt><trkpt lat="43.111712" lon="11.6075964"><ele>365.0</ele><time>2026-04-11T13:58:20.355Z</time></trkpt><trkpt lat="43.1118022" lon="11.607681"><ele>365.0</ele><time>2026-04-11T13:58:21.355Z</time></trkpt><trkpt lat="43.1118972" lon="11.6077643"><ele>365.0</ele><time>2026-04-11T13:58:22.355Z</time></trkpt><trkpt lat="43.111997" lon="11.607851"><ele>365.0</ele><time>2026-04-11T13:58:23.355Z</time></trkpt><trkpt lat="43.1121083" lon="11.6079474"><ele>365.0</ele><time>2026-04-11T13:58:24.354Z</time></trkpt><trkpt lat="43.1122303" lon="11.6080543"><ele>365.0</ele><time>2026-04-11T13:58:25.355Z</time></trkpt><trkpt lat="43.1123564" lon="11.6081739"><ele>365.0</ele><time>2026-04-11T13:58:26.355Z</time></trkpt><trkpt lat="43.1124776" lon="11.6083009"><ele>365.0</ele><time>2026-04-11T13:58:27.355Z</time></trkpt><trkpt lat="43.1125969" lon="11.6084303"><ele>365.0</ele><time>2026-04-11T13:58:28.354Z</time></trkpt><trkpt lat="43.1127164" lon="11.6085646"><ele>365.0</ele><time>2026-04-11T13:58:29.354Z</time></trkpt><trkpt lat="43.1128339" lon="11.6087097"><ele>365.0</ele><time>2026-04-11T13:58:30.354Z</time></trkpt><trkpt lat="43.1129423" lon="11.608868"><ele>363.33333333333337</ele><time>2026-04-11T13:58:31.354Z</time></trkpt><trkpt lat="43.1130372" lon="11.6090381"><ele>361.6666666666667</ele><time>2026-04-11T13:58:32.354Z</time></trkpt><trkpt lat="43.1131204" lon="11.6092182"><ele>360.0</ele><time>2026-04-11T13:58:33.354Z</time></trkpt><trkpt lat="43.1131989" lon="11.6094035"><ele>362.25</ele><time>2026-04-11T13:58:34.354Z</time></trkpt><trkpt lat="43.1132672" lon="11.6095837"><ele>364.5</ele><time>2026-04-11T13:58:35.355Z</time></trkpt><trkpt lat="43.1133229" lon="11.6097519"><ele>366.75</ele><time>2026-04-11T13:58:36.354Z</time></trkpt><trkpt lat="43.1133699" lon="11.6099096"><ele>369.0</ele><time>2026-04-11T13:58:37.354Z</time></trkpt><trkpt lat="43.1134171" lon="11.6100523"><ele>369.0</ele><time>2026-04-11T13:58:38.354Z</time></trkpt><trkpt lat="43.1134694" lon="11.6101877"><ele>369.0</ele><time>2026-04-11T13:58:39.354Z</time></trkpt><trkpt lat="43.1135333" lon="11.6103228"><ele>369.0</ele><time>2026-04-11T13:58:40.355Z</time></trkpt><trkpt lat="43.113606" lon="11.6104574"><ele>369.0</ele><time>2026-04-11T13:58:41.355Z</time></trkpt><trkpt lat="43.1136782" lon="11.6105939"><ele>367.6</ele><time>2026-04-11T13:58:42.354Z</time></trkpt><trkpt lat="43.1137457" lon="11.6107278"><ele>366.2</ele><time>2026-04-11T13:58:43.354Z</time></trkpt><trkpt lat="43.1138119" lon="11.6108571"><ele>364.8</ele><time>2026-04-11T13:58:44.354Z</time></trkpt><trkpt lat="43.1138773" lon="11.6109797"><ele>363.40000000000003</ele><time>2026-04-11T13:58:45.354Z</time></trkpt><trkpt lat="43.1139403" lon="11.6110875"><ele>362.0</ele><time>2026-04-11T13:58:46.354Z</time></trkpt><trkpt lat="43.1140036" lon="11.6111796"><ele>363.20000000000005</ele><time>2026-04-11T13:58:47.355Z</time></trkpt><trkpt lat="43.1140759" lon="11.6112623"><ele>364.4</ele><time>2026-04-11T13:58:48.356Z</time></trkpt><trkpt lat="43.114162" lon="11.6113429"><ele>365.6</ele><time>2026-04-11T13:58:49.356Z</time></trkpt><trkpt lat="43.1142566" lon="11.6114339"><ele>366.79999999999995</ele><time>2026-04-11T13:58:50.356Z</time></trkpt><trkpt lat="43.1143498" lon="11.6115476"><ele>368.0</ele><time>2026-04-11T13:58:51.355Z</time></trkpt><trkpt lat="43.1144351" lon="11.6116786"><ele>368.0</ele><time>2026-04-11T13:58:52.355Z</time></trkpt><trkpt lat="43.1145157" lon="11.6118224"><ele>368.0</ele><time>2026-04-11T13:58:53.355Z</time></trkpt><trkpt lat="43.1145889" lon="11.6119706"><ele>368.0</ele><time>2026-04-11T13:58:54.356Z</time></trkpt><trkpt lat="43.114648" lon="11.6121209"><ele>368.0</ele><time>2026-04-11T13:58:55.356Z</time></trkpt><trkpt lat="43.1146916" lon="11.612278"><ele>366.4</ele><time>2026-04-11T13:58:56.355Z</time></trkpt><trkpt lat="43.1147164" lon="11.6124395"><ele>364.79999999999995</ele><time>2026-04-11T13:58:57.355Z</time></trkpt><trkpt lat="43.1147333" lon="11.6125904"><ele>363.2</ele><time>2026-04-11T13:58:58.356Z</time></trkpt><trkpt lat="43.1147579" lon="11.6127111"><ele>361.6</ele><time>2026-04-11T13:58:59.356Z</time></trkpt><trkpt lat="43.1147954" lon="11.61281"><ele>360.0</ele><time>2026-04-11T13:59:00.356Z</time></trkpt><trkpt lat="43.1148454" lon="11.6129031"><ele>362.5</ele><time>2026-04-11T13:59:01.355Z</time></trkpt><trkpt lat="43.1149092" lon="11.6130027"><ele>365.0</ele><time>2026-04-11T13:59:02.355Z</time></trkpt><trkpt lat="43.1149864" lon="11.6131089"><ele>367.5</ele><time>2026-04-11T13:59:03.355Z</time></trkpt><trkpt lat="43.1150716" lon="11.6132218"><ele>370.0</ele><time>2026-04-11T13:59:04.355Z</time></trkpt><trkpt lat="43.1151574" lon="11.6133473"><ele>370.0</ele><time>2026-04-11T13:59:05.355Z</time></trkpt><trkpt lat="43.1152404" lon="11.6134842"><ele>370.0</ele><time>2026-04-11T13:59:06.355Z</time></trkpt><trkpt lat="43.1153193" lon="11.613622"><ele>370.0</ele><time>2026-04-11T13:59:07.355Z</time></trkpt><trkpt lat="43.1153927" lon="11.6137485"><ele>370.0</ele><time>2026-04-11T13:59:08.355Z</time></trkpt><trkpt lat="43.1154641" lon="11.6138516"><ele>369.0</ele><time>2026-04-11T13:59:09.355Z</time></trkpt><trkpt lat="43.1155358" lon="11.6139367"><ele>368.0</ele><time>2026-04-11T13:59:10.355Z</time></trkpt><trkpt lat="43.1156105" lon="11.6140117"><ele>367.0</ele><time>2026-04-11T13:59:11.356Z</time></trkpt><trkpt lat="43.1156939" lon="11.6140875"><ele>366.0</ele><time>2026-04-11T13:59:12.355Z</time></trkpt><trkpt lat="43.1157872" lon="11.6141649"><ele>365.0</ele><time>2026-04-11T13:59:13.356Z</time></trkpt><trkpt lat="43.1158833" lon="11.6142498"><ele>367.2</ele><time>2026-04-11T13:59:14.356Z</time></trkpt><trkpt lat="43.1159649" lon="11.6143536"><ele>369.4</ele><time>2026-04-11T13:59:15.356Z</time></trkpt><trkpt lat="43.116023" lon="11.6144704"><ele>371.6</ele><time>2026-04-11T13:59:16.356Z</time></trkpt><trkpt lat="43.1160685" lon="11.6146057"><ele>373.8</ele><time>2026-04-11T13:59:17.356Z</time></trkpt><trkpt lat="43.1160999" lon="11.6147512"><ele>376.0</ele><time>2026-04-11T13:59:18.356Z</time></trkpt><trkpt lat="43.1161184" lon="11.6149083"><ele>376.25</ele><time>2026-04-11T13:59:19.356Z</time></trkpt><trkpt lat="43.1161215" lon="11.6150801"><ele>376.5</ele><time>2026-04-11T13:59:20.355Z</time></trkpt><trkpt lat="43.1161102" lon="11.6152631"><ele>376.75</ele><time>2026-04-11T13:59:21.355Z</time></trkpt><trkpt lat="43.1160952" lon="11.6154435"><ele>377.0</ele><time>2026-04-11T13:59:22.356Z</time></trkpt><trkpt lat="43.1160823" lon="11.6156246"><ele>377.5</ele><time>2026-04-11T13:59:23.355Z</time></trkpt><trkpt lat="43.1160707" lon="11.6157993"><ele>378.0</ele><time>2026-04-11T13:59:24.356Z</time></trkpt><trkpt lat="43.1160554" lon="11.6159629"><ele>378.5</ele><time>2026-04-11T13:59:25.356Z</time></trkpt><trkpt lat="43.1160335" lon="11.6161145"><ele>379.0</ele><time>2026-04-11T13:59:26.356Z</time></trkpt><trkpt lat="43.1159994" lon="11.616256"><ele>379.5</ele><time>2026-04-11T13:59:27.356Z</time></trkpt><trkpt lat="43.115951" lon="11.6163937"><ele>380.0</ele><time>2026-04-11T13:59:28.356Z</time></trkpt><trkpt lat="43.1158928" lon="11.6165349"><ele>380.5</ele><time>2026-04-11T13:59:29.356Z</time></trkpt><trkpt lat="43.1158238" lon="11.6166824"><ele>381.0</ele><time>2026-04-11T13:59:30.355Z</time></trkpt><trkpt lat="43.1157485" lon="11.6168399"><ele>381.25</ele><time>2026-04-11T13:59:31.355Z</time></trkpt><trkpt lat="43.1156704" lon="11.6170031"><ele>381.5</ele><time>2026-04-11T13:59:32.356Z</time></trkpt><trkpt lat="43.1155973" lon="11.6171644"><ele>381.75</ele><time>2026-04-11T13:59:33.356Z</time></trkpt><trkpt lat="43.1155279" lon="11.6173246"><ele>382.0</ele><time>2026-04-11T13:59:34.355Z</time></trkpt><trkpt lat="43.1154596" lon="11.6174792"><ele>382.0</ele><time>2026-04-11T13:59:35.356Z</time></trkpt><trkpt lat="43.1153953" lon="11.6176191"><ele>382.0</ele><time>2026-04-11T13:59:36.355Z</time></trkpt><trkpt lat="43.1153398" lon="11.6177405"><ele>382.0</ele><time>2026-04-11T13:59:37.355Z</time></trkpt><trkpt lat="43.1152936" lon="11.6178509"><ele>382.0</ele><time>2026-04-11T13:59:38.356Z</time></trkpt><trkpt lat="43.1152541" lon="11.6179603"><ele>382.0</ele><time>2026-04-11T13:59:39.355Z</time></trkpt><trkpt lat="43.1152193" lon="11.6180697"><ele>383.16666666666663</ele><time>2026-04-11T13:59:40.355Z</time></trkpt><trkpt lat="43.11519" lon="11.6181732"><ele>384.3333333333333</ele><time>2026-04-11T13:59:41.356Z</time></trkpt><trkpt lat="43.1151676" lon="11.6182583"><ele>385.5</ele><time>2026-04-11T13:59:42.355Z</time></trkpt><trkpt lat="43.1151458" lon="11.6183749"><ele>386.66666666666663</ele><time>2026-04-11T13:59:44.355Z</time></trkpt><trkpt lat="43.1151598" lon="11.6184606"><ele>387.8333333333333</ele><time>2026-04-11T13:59:46.356Z</time></trkpt><trkpt lat="43.1152304" lon="11.6185418"><ele>389.0</ele><time>2026-04-11T13:59:48.356Z</time></trkpt><trkpt lat="43.1152892" lon="11.6185764"><ele>388.99999999999994</ele><time>2026-04-11T13:59:49.356Z</time></trkpt><trkpt lat="43.1153598" lon="11.6185967"><ele>389.0</ele><time>2026-04-11T13:59:50.355Z</time></trkpt><trkpt lat="43.1154386" lon="11.6186085"><ele>389.0</ele><time>2026-04-11T13:59:51.356Z</time></trkpt><trkpt lat="43.1155198" lon="11.6186207"><ele>389.0</ele><time>2026-04-11T13:59:52.357Z</time></trkpt><trkpt lat="43.1155959" lon="11.6186342"><ele>388.99999999999994</ele><time>2026-04-11T13:59:53.356Z</time></trkpt><trkpt lat="43.1156676" lon="11.618646"><ele>389.0</ele><time>2026-04-11T13:59:54.356Z</time></trkpt><trkpt lat="43.1157409" lon="11.6186554"><ele>388.49999999999994</ele><time>2026-04-11T13:59:55.356Z</time></trkpt><trkpt lat="43.1158214" lon="11.6186656"><ele>388.0</ele><time>2026-04-11T13:59:56.357Z</time></trkpt><trkpt lat="43.1159059" lon="11.6186744"><ele>387.5</ele><time>2026-04-11T13:59:57.356Z</time></trkpt><trkpt lat="43.1159925" lon="11.6186757"><ele>387.0</ele><time>2026-04-11T13:59:58.356Z</time></trkpt><trkpt lat="43.1160733" lon="11.6186606"><ele>386.49999999999994</ele><time>2026-04-11T13:59:59.357Z</time></trkpt><trkpt lat="43.1161521" lon="11.6186302"><ele>386.0</ele><time>2026-04-11T14:00:00.356Z</time></trkpt><trkpt lat="43.1162411" lon="11.6185915"><ele>386.0</ele><time>2026-04-11T14:00:01.356Z</time></trkpt><trkpt lat="43.1163388" lon="11.6185514"><ele>386.0</ele><time>2026-04-11T14:00:02.356Z</time></trkpt><trkpt lat="43.1164395" lon="11.6185137"><ele>386.0</ele><time>2026-04-11T14:00:03.357Z</time></trkpt><trkpt lat="43.1165443" lon="11.6184819"><ele>386.0</ele><time>2026-04-11T14:00:04.357Z</time></trkpt><trkpt lat="43.1166501" lon="11.6184614"><ele>386.0</ele><time>2026-04-11T14:00:05.356Z</time></trkpt><trkpt lat="43.1167592" lon="11.6184559"><ele>384.0</ele><time>2026-04-11T14:00:06.357Z</time></trkpt><trkpt lat="43.1168713" lon="11.6184635"><ele>382.0</ele><time>2026-04-11T14:00:07.356Z</time></trkpt><trkpt lat="43.1169833" lon="11.6184787"><ele>380.0</ele><time>2026-04-11T14:00:08.356Z</time></trkpt><trkpt lat="43.1170965" lon="11.6184955"><ele>378.0</ele><time>2026-04-11T14:00:09.357Z</time></trkpt><trkpt lat="43.1172145" lon="11.6185113"><ele>378.0</ele><time>2026-04-11T14:00:10.357Z</time></trkpt><trkpt lat="43.1173376" lon="11.6185264"><ele>378.0</ele><time>2026-04-11T14:00:11.357Z</time></trkpt><trkpt lat="43.117468" lon="11.6185396"><ele>378.0</ele><time>2026-04-11T14:00:12.356Z</time></trkpt><trkpt lat="43.1176033" lon="11.6185513"><ele>378.0</ele><time>2026-04-11T14:00:13.356Z</time></trkpt><trkpt lat="43.1177393" lon="11.6185579"><ele>376.75</ele><time>2026-04-11T14:00:14.357Z</time></trkpt><trkpt lat="43.1178773" lon="11.6185622"><ele>375.5</ele><time>2026-04-11T14:00:15.356Z</time></trkpt><trkpt lat="43.1180153" lon="11.6185674"><ele>374.25</ele><time>2026-04-11T14:00:16.356Z</time></trkpt><trkpt lat="43.1181509" lon="11.6185724"><ele>373.0</ele><time>2026-04-11T14:00:17.356Z</time></trkpt><trkpt lat="43.118286" lon="11.6185758"><ele>372.5</ele><time>2026-04-11T14:00:18.356Z</time></trkpt><trkpt lat="43.1184218" lon="11.6185776"><ele>372.0</ele><time>2026-04-11T14:00:19.356Z</time></trkpt><trkpt lat="43.1185545" lon="11.6185806"><ele>371.5</ele><time>2026-04-11T14:00:20.357Z</time></trkpt><trkpt lat="43.1186794" lon="11.6185862"><ele>371.0</ele><time>2026-04-11T14:00:21.357Z</time></trkpt><trkpt lat="43.1187984" lon="11.6185946"><ele>371.0</ele><time>2026-04-11T14:00:22.356Z</time></trkpt><trkpt lat="43.1189145" lon="11.6186036"><ele>371.0</ele><time>2026-04-11T14:00:23.357Z</time></trkpt><trkpt lat="43.1190298" lon="11.6186131"><ele>371.0</ele><time>2026-04-11T14:00:24.357Z</time></trkpt><trkpt lat="43.1191509" lon="11.6186283"><ele>371.0</ele><time>2026-04-11T14:00:25.356Z</time></trkpt><trkpt lat="43.1192736" lon="11.6186456"><ele>370.5</ele><time>2026-04-11T14:00:26.357Z</time></trkpt><trkpt lat="43.1193962" lon="11.618661"><ele>370.0</ele><time>2026-04-11T14:00:27.356Z</time></trkpt><trkpt lat="43.1195126" lon="11.6186745"><ele>369.5</ele><time>2026-04-11T14:00:28.356Z</time></trkpt><trkpt lat="43.1196269" lon="11.6186898"><ele>369.0</ele><time>2026-04-11T14:00:29.356Z</time></trkpt><trkpt lat="43.119745" lon="11.6187022"><ele>369.0</ele><time>2026-04-11T14:00:30.356Z</time></trkpt><trkpt lat="43.1198703" lon="11.6187128"><ele>369.0</ele><time>2026-04-11T14:00:31.357Z</time></trkpt><trkpt lat="43.1199968" lon="11.6187229"><ele>369.0</ele><time>2026-04-11T14:00:32.356Z</time></trkpt><trkpt lat="43.1201209" lon="11.6187335"><ele>369.0</ele><time>2026-04-11T14:00:33.356Z</time></trkpt><trkpt lat="43.1202373" lon="11.6187444"><ele>370.2</ele><time>2026-04-11T14:00:34.356Z</time></trkpt><trkpt lat="43.1203486" lon="11.6187567"><ele>371.4</ele><time>2026-04-11T14:00:35.357Z</time></trkpt><trkpt lat="43.1204505" lon="11.6187671"><ele>372.6</ele><time>2026-04-11T14:00:36.357Z</time></trkpt><trkpt lat="43.120545" lon="11.6187714"><ele>373.8</ele><time>2026-04-11T14:00:37.357Z</time></trkpt><trkpt lat="43.120641" lon="11.6187664"><ele>375.0</ele><time>2026-04-11T14:00:38.356Z</time></trkpt><trkpt lat="43.120734" lon="11.618746"><ele>376.0</ele><time>2026-04-11T14:00:39.357Z</time></trkpt><trkpt lat="43.1208236" lon="11.6187055"><ele>377.0</ele><time>2026-04-11T14:00:40.357Z</time></trkpt><trkpt lat="43.1209095" lon="11.6186444"><ele>378.0</ele><time>2026-04-11T14:00:41.356Z</time></trkpt><trkpt lat="43.1209901" lon="11.618563"><ele>379.0</ele><time>2026-04-11T14:00:42.357Z</time></trkpt><trkpt lat="43.121075" lon="11.6184698"><ele>380.0</ele><time>2026-04-11T14:00:43.356Z</time></trkpt><trkpt lat="43.1211586" lon="11.6183724"><ele>380.0</ele><time>2026-04-11T14:00:44.357Z</time></trkpt><trkpt lat="43.1212471" lon="11.6182734"><ele>380.0</ele><time>2026-04-11T14:00:45.357Z</time></trkpt><trkpt lat="43.1213377" lon="11.6181767"><ele>380.0</ele><time>2026-04-11T14:00:46.356Z</time></trkpt><trkpt lat="43.1214303" lon="11.6180795"><ele>380.0</ele><time>2026-04-11T14:00:47.357Z</time></trkpt><trkpt lat="43.121526" lon="11.6179798"><ele>380.75</ele><time>2026-04-11T14:00:48.356Z</time></trkpt><trkpt lat="43.1216238" lon="11.617877"><ele>381.5</ele><time>2026-04-11T14:00:49.356Z</time></trkpt><trkpt lat="43.1217251" lon="11.6177688"><ele>382.25</ele><time>2026-04-11T14:00:50.358Z</time></trkpt><trkpt lat="43.1218283" lon="11.6176578"><ele>383.0</ele><time>2026-04-11T14:00:51.356Z</time></trkpt><trkpt lat="43.1219323" lon="11.6175481"><ele>383.0</ele><time>2026-04-11T14:00:52.356Z</time></trkpt><trkpt lat="43.1220364" lon="11.6174418"><ele>383.0</ele><time>2026-04-11T14:00:53.356Z</time></trkpt><trkpt lat="43.1221396" lon="11.6173395"><ele>383.0</ele><time>2026-04-11T14:00:54.356Z</time></trkpt><trkpt lat="43.1222404" lon="11.6172371"><ele>383.0</ele><time>2026-04-11T14:00:55.357Z</time></trkpt><trkpt lat="43.1223396" lon="11.6171344"><ele>380.75</ele><time>2026-04-11T14:00:56.357Z</time></trkpt><trkpt lat="43.122441" lon="11.6170263"><ele>378.5</ele><time>2026-04-11T14:00:57.358Z</time></trkpt><trkpt lat="43.1225422" lon="11.6169105"><ele>376.25</ele><time>2026-04-11T14:00:58.357Z</time></trkpt><trkpt lat="43.122641" lon="11.616784"><ele>374.0</ele><time>2026-04-11T14:00:59.358Z</time></trkpt><trkpt lat="43.122733" lon="11.6166477"><ele>374.0</ele><time>2026-04-11T14:01:00.357Z</time></trkpt><trkpt lat="43.1228163" lon="11.6165054"><ele>374.0</ele><time>2026-04-11T14:01:01.358Z</time></trkpt><trkpt lat="43.1228931" lon="11.616359"><ele>374.0</ele><time>2026-04-11T14:01:02.357Z</time></trkpt><trkpt lat="43.1229652" lon="11.6162067"><ele>374.0</ele><time>2026-04-11T14:01:03.357Z</time></trkpt><trkpt lat="43.1230341" lon="11.616047"><ele>374.25</ele><time>2026-04-11T14:01:04.357Z</time></trkpt><trkpt lat="43.1230999" lon="11.615881"><ele>374.5</ele><time>2026-04-11T14:01:05.357Z</time></trkpt><trkpt lat="43.1231672" lon="11.6157111"><ele>374.75</ele><time>2026-04-11T14:01:06.357Z</time></trkpt><trkpt lat="43.1232388" lon="11.6155471"><ele>375.0</ele><time>2026-04-11T14:01:07.357Z</time></trkpt><trkpt lat="43.1233175" lon="11.6153911"><ele>376.75</ele><time>2026-04-11T14:01:08.357Z</time></trkpt><trkpt lat="43.1233997" lon="11.6152435"><ele>378.5</ele><time>2026-04-11T14:01:09.357Z</time></trkpt><trkpt lat="43.1234844" lon="11.6151015"><ele>380.25</ele><time>2026-04-11T14:01:10.357Z</time></trkpt><trkpt lat="43.1235655" lon="11.6149675"><ele>382.0</ele><time>2026-04-11T14:01:11.358Z</time></trkpt><trkpt lat="43.1236435" lon="11.6148441"><ele>382.0</ele><time>2026-04-11T14:01:12.358Z</time></trkpt><trkpt lat="43.1237207" lon="11.6147311"><ele>382.0</ele><time>2026-04-11T14:01:13.358Z</time></trkpt><trkpt lat="43.1238014" lon="11.6146279"><ele>382.0</ele><time>2026-04-11T14:01:14.358Z</time></trkpt><trkpt lat="43.1238897" lon="11.6145388"><ele>382.0</ele><time>2026-04-11T14:01:15.358Z</time></trkpt><trkpt lat="43.1239899" lon="11.6144619"><ele>382.0</ele><time>2026-04-11T14:01:16.358Z</time></trkpt><trkpt lat="43.1240946" lon="11.6143985"><ele>383.40000000000003</ele><time>2026-04-11T14:01:17.357Z</time></trkpt><trkpt lat="43.1242012" lon="11.6143456"><ele>384.8</ele><time>2026-04-11T14:01:18.357Z</time></trkpt><trkpt lat="43.1243021" lon="11.6143084"><ele>386.2</ele><time>2026-04-11T14:01:19.358Z</time></trkpt><trkpt lat="43.124402" lon="11.6142847"><ele>387.6</ele><time>2026-04-11T14:01:20.358Z</time></trkpt><trkpt lat="43.1245072" lon="11.6142656"><ele>389.0</ele><time>2026-04-11T14:01:21.358Z</time></trkpt><trkpt lat="43.1246176" lon="11.6142495"><ele>389.0</ele><time>2026-04-11T14:01:22.357Z</time></trkpt><trkpt lat="43.1247278" lon="11.6142304"><ele>389.0</ele><time>2026-04-11T14:01:23.358Z</time></trkpt><trkpt lat="43.1248362" lon="11.6142133"><ele>389.0</ele><time>2026-04-11T14:01:24.358Z</time></trkpt><trkpt lat="43.1249438" lon="11.6142131"><ele>389.0</ele><time>2026-04-11T14:01:25.357Z</time></trkpt><trkpt lat="43.1250516" lon="11.6142405"><ele>389.0</ele><time>2026-04-11T14:01:26.358Z</time></trkpt><trkpt lat="43.12516" lon="11.6142911"><ele>387.25</ele><time>2026-04-11T14:01:27.358Z</time></trkpt><trkpt lat="43.1252745" lon="11.6143573"><ele>385.5</ele><time>2026-04-11T14:01:28.358Z</time></trkpt><trkpt lat="43.1253882" lon="11.6144282"><ele>383.75</ele><time>2026-04-11T14:01:29.358Z</time></trkpt><trkpt lat="43.125497" lon="11.6144952"><ele>382.0</ele><time>2026-04-11T14:01:30.358Z</time></trkpt><trkpt lat="43.1256007" lon="11.6145459"><ele>381.0</ele><time>2026-04-11T14:01:31.357Z</time></trkpt><trkpt lat="43.1257059" lon="11.6145753"><ele>380.0</ele><time>2026-04-11T14:01:32.357Z</time></trkpt><trkpt lat="43.1258139" lon="11.6145773"><ele>379.0</ele><time>2026-04-11T14:01:33.357Z</time></trkpt><trkpt lat="43.1259224" lon="11.6145635"><ele>378.0</ele><time>2026-04-11T14:01:34.358Z</time></trkpt><trkpt lat="43.1260276" lon="11.6145413"><ele>377.0</ele><time>2026-04-11T14:01:35.357Z</time></trkpt><trkpt lat="43.1261317" lon="11.6145173"><ele>377.0</ele><time>2026-04-11T14:01:36.357Z</time></trkpt><trkpt lat="43.1262364" lon="11.6144905"><ele>377.0</ele><time>2026-04-11T14:01:37.358Z</time></trkpt><trkpt lat="43.1263436" lon="11.6144679"><ele>377.0</ele><time>2026-04-11T14:01:38.357Z</time></trkpt><trkpt lat="43.1264534" lon="11.6144515"><ele>377.0</ele><time>2026-04-11T14:01:39.357Z</time></trkpt><trkpt lat="43.1265679" lon="11.6144387"><ele>377.0</ele><time>2026-04-11T14:01:40.358Z</time></trkpt><trkpt lat="43.1266883" lon="11.6144288"><ele>377.20000000000005</ele><time>2026-04-11T14:01:41.358Z</time></trkpt><trkpt lat="43.1268096" lon="11.6144212"><ele>377.4</ele><time>2026-04-11T14:01:42.357Z</time></trkpt><trkpt lat="43.1269233" lon="11.6144131"><ele>377.6</ele><time>2026-04-11T14:01:43.358Z</time></trkpt><trkpt lat="43.1270229" lon="11.6144051"><ele>377.79999999999995</ele><time>2026-04-11T14:01:44.358Z</time></trkpt><trkpt lat="43.127117" lon="11.6143935"><ele>378.0</ele><time>2026-04-11T14:01:45.358Z</time></trkpt><trkpt lat="43.1272082" lon="11.6143731"><ele>378.0</ele><time>2026-04-11T14:01:46.358Z</time></trkpt><trkpt lat="43.1272943" lon="11.6143371"><ele>378.0</ele><time>2026-04-11T14:01:47.357Z</time></trkpt><trkpt lat="43.1273733" lon="11.6142849"><ele>378.0</ele><time>2026-04-11T14:01:48.358Z</time></trkpt><trkpt lat="43.127443" lon="11.6142205"><ele>378.0</ele><time>2026-04-11T14:01:49.357Z</time></trkpt><trkpt lat="43.1275116" lon="11.6141403"><ele>378.0</ele><time>2026-04-11T14:01:50.358Z</time></trkpt><trkpt lat="43.1275798" lon="11.6140416"><ele>377.4</ele><time>2026-04-11T14:01:51.358Z</time></trkpt><trkpt lat="43.1276476" lon="11.6139253"><ele>376.79999999999995</ele><time>2026-04-11T14:01:52.358Z</time></trkpt><trkpt lat="43.1277185" lon="11.6138043"><ele>376.2</ele><time>2026-04-11T14:01:53.358Z</time></trkpt><trkpt lat="43.1277924" lon="11.613687"><ele>375.6</ele><time>2026-04-11T14:01:54.357Z</time></trkpt><trkpt lat="43.1278646" lon="11.6135838"><ele>375.0</ele><time>2026-04-11T14:01:55.357Z</time></trkpt><trkpt lat="43.1279348" lon="11.6134947"><ele>374.0</ele><time>2026-04-11T14:01:56.357Z</time></trkpt><trkpt lat="43.1280039" lon="11.61342"><ele>373.0</ele><time>2026-04-11T14:01:57.358Z</time></trkpt><trkpt lat="43.1280805" lon="11.6133529"><ele>372.0</ele><time>2026-04-11T14:01:58.357Z</time></trkpt><trkpt lat="43.1281674" lon="11.6132918"><ele>371.0</ele><time>2026-04-11T14:01:59.358Z</time></trkpt><trkpt lat="43.1282615" lon="11.6132316"><ele>370.0</ele><time>2026-04-11T14:02:00.357Z</time></trkpt><trkpt lat="43.1283607" lon="11.6131685"><ele>369.66666666666663</ele><time>2026-04-11T14:02:01.359Z</time></trkpt><trkpt lat="43.1284578" lon="11.6131049"><ele>369.3333333333333</ele><time>2026-04-11T14:02:02.358Z</time></trkpt><trkpt lat="43.1285488" lon="11.6130441"><ele>369.0</ele><time>2026-04-11T14:02:03.359Z</time></trkpt><trkpt lat="43.1286286" lon="11.612991"><ele>368.6666666666667</ele><time>2026-04-11T14:02:04.359Z</time></trkpt><trkpt lat="43.1286955" lon="11.6129446"><ele>368.33333333333337</ele><time>2026-04-11T14:02:05.359Z</time></trkpt><trkpt lat="43.1287518" lon="11.612897"><ele>368.0</ele><time>2026-04-11T14:02:06.359Z</time></trkpt><trkpt lat="43.128831" lon="11.6127656"><ele>366.59999999999997</ele><time>2026-04-11T14:02:08.358Z</time></trkpt><trkpt lat="43.1288501" lon="11.612675"><ele>365.2</ele><time>2026-04-11T14:02:09.359Z</time></trkpt><trkpt lat="43.1288575" lon="11.6125573"><ele>363.8</ele><time>2026-04-11T14:02:10.358Z</time></trkpt><trkpt lat="43.1288571" lon="11.6124141"><ele>362.4</ele><time>2026-04-11T14:02:11.358Z</time></trkpt><trkpt lat="43.1288534" lon="11.612251"><ele>361.0</ele><time>2026-04-11T14:02:12.358Z</time></trkpt><trkpt lat="43.1288542" lon="11.6120874"><ele>359.25</ele><time>2026-04-11T14:02:13.359Z</time></trkpt><trkpt lat="43.1288535" lon="11.6119357"><ele>357.5</ele><time>2026-04-11T14:02:14.358Z</time></trkpt><trkpt lat="43.1288567" lon="11.6117878"><ele>355.75</ele><time>2026-04-11T14:02:15.358Z</time></trkpt><trkpt lat="43.1288604" lon="11.6116242"><ele>354.0</ele><time>2026-04-11T14:02:16.358Z</time></trkpt><trkpt lat="43.1288669" lon="11.6114404"><ele>354.0</ele><time>2026-04-11T14:02:17.359Z</time></trkpt><trkpt lat="43.1288752" lon="11.6112487"><ele>354.0</ele><time>2026-04-11T14:02:18.359Z</time></trkpt><trkpt lat="43.128885" lon="11.6110558"><ele>354.0</ele><time>2026-04-11T14:02:19.359Z</time></trkpt><trkpt lat="43.1288941" lon="11.610869"><ele>354.0</ele><time>2026-04-11T14:02:20.358Z</time></trkpt><trkpt lat="43.1289007" lon="11.6107048"><ele>353.6</ele><time>2026-04-11T14:02:21.359Z</time></trkpt><trkpt lat="43.1289049" lon="11.6105515"><ele>353.2</ele><time>2026-04-11T14:02:22.358Z</time></trkpt><trkpt lat="43.1289008" lon="11.6104081"><ele>352.8</ele><time>2026-04-11T14:02:23.358Z</time></trkpt><trkpt lat="43.1288858" lon="11.6102633"><ele>352.40000000000003</ele><time>2026-04-11T14:02:24.358Z</time></trkpt><trkpt lat="43.128857" lon="11.6101124"><ele>352.0</ele><time>2026-04-11T14:02:25.358Z</time></trkpt><trkpt lat="43.1288155" lon="11.6099554"><ele>353.75</ele><time>2026-04-11T14:02:26.358Z</time></trkpt><trkpt lat="43.1287604" lon="11.6097854"><ele>355.5</ele><time>2026-04-11T14:02:27.359Z</time></trkpt><trkpt lat="43.1286991" lon="11.6096138"><ele>357.25</ele><time>2026-04-11T14:02:28.359Z</time></trkpt><trkpt lat="43.128632" lon="11.6094503"><ele>359.0</ele><time>2026-04-11T14:02:29.359Z</time></trkpt><trkpt lat="43.1285567" lon="11.6092984"><ele>361.5</ele><time>2026-04-11T14:02:30.358Z</time></trkpt><trkpt lat="43.1284812" lon="11.6091508"><ele>364.0</ele><time>2026-04-11T14:02:31.358Z</time></trkpt><trkpt lat="43.128411" lon="11.6089992"><ele>366.5</ele><time>2026-04-11T14:02:32.359Z</time></trkpt><trkpt lat="43.1283494" lon="11.6088437"><ele>369.0</ele><time>2026-04-11T14:02:33.359Z</time></trkpt><trkpt lat="43.1282935" lon="11.6086859"><ele>370.75</ele><time>2026-04-11T14:02:34.358Z</time></trkpt><trkpt lat="43.1282413" lon="11.6085391"><ele>372.5</ele><time>2026-04-11T14:02:35.358Z</time></trkpt><trkpt lat="43.1281856" lon="11.6084059"><ele>374.25</ele><time>2026-04-11T14:02:36.359Z</time></trkpt><trkpt lat="43.128121" lon="11.6082784"><ele>376.0</ele><time>2026-04-11T14:02:37.358Z</time></trkpt><trkpt lat="43.1280444" lon="11.6081524"><ele>374.5</ele><time>2026-04-11T14:02:38.359Z</time></trkpt><trkpt lat="43.1279617" lon="11.6080248"><ele>373.0</ele><time>2026-04-11T14:02:39.359Z</time></trkpt><trkpt lat="43.1278762" lon="11.6078987"><ele>371.5</ele><time>2026-04-11T14:02:40.359Z</time></trkpt><trkpt lat="43.1277906" lon="11.6077715"><ele>370.0</ele><time>2026-04-11T14:02:41.358Z</time></trkpt><trkpt lat="43.1277184" lon="11.6076468"><ele>370.0</ele><time>2026-04-11T14:02:42.359Z</time></trkpt><trkpt lat="43.1276615" lon="11.607524"><ele>370.0</ele><time>2026-04-11T14:02:43.359Z</time></trkpt><trkpt lat="43.1276192" lon="11.6074054"><ele>370.0</ele><time>2026-04-11T14:02:44.358Z</time></trkpt><trkpt lat="43.127583" lon="11.6072874"><ele>370.0</ele><time>2026-04-11T14:02:45.359Z</time></trkpt><trkpt lat="43.1275566" lon="11.6071825"><ele>370.0</ele><time>2026-04-11T14:02:46.359Z</time></trkpt><trkpt lat="43.1275329" lon="11.6070936"><ele>370.0</ele><time>2026-04-11T14:02:47.359Z</time></trkpt><trkpt lat="43.1274813" lon="11.606945"><ele>370.3333333333333</ele><time>2026-04-11T14:02:49.358Z</time></trkpt><trkpt lat="43.1274271" lon="11.6067864"><ele>370.66666666666663</ele><time>2026-04-11T14:02:51.358Z</time></trkpt><trkpt lat="43.1274026" lon="11.6066992"><ele>371.0</ele><time>2026-04-11T14:02:52.358Z</time></trkpt><trkpt lat="43.1273799" lon="11.6066067"><ele>371.3333333333333</ele><time>2026-04-11T14:02:53.359Z</time></trkpt><trkpt lat="43.1273623" lon="11.6065109"><ele>371.6666666666667</ele><time>2026-04-11T14:02:54.359Z</time></trkpt><trkpt lat="43.1273452" lon="11.6064059"><ele>372.0</ele><time>2026-04-11T14:02:55.359Z</time></trkpt><trkpt lat="43.1273265" lon="11.6062878"><ele>370.0</ele><time>2026-04-11T14:02:56.358Z</time></trkpt><trkpt lat="43.1273092" lon="11.6061641"><ele>368.0</ele><time>2026-04-11T14:02:57.358Z</time></trkpt><trkpt lat="43.1272781" lon="11.6060334"><ele>366.0</ele><time>2026-04-11T14:02:58.359Z</time></trkpt><trkpt lat="43.1272343" lon="11.6059003"><ele>364.0</ele><time>2026-04-11T14:02:59.359Z</time></trkpt><trkpt lat="43.1271724" lon="11.6057658"><ele>362.0</ele><time>2026-04-11T14:03:00.359Z</time></trkpt><trkpt lat="43.1270927" lon="11.6056346"><ele>362.0</ele><time>2026-04-11T14:03:01.358Z</time></trkpt><trkpt lat="43.1269929" lon="11.6055095"><ele>362.0</ele><time>2026-04-11T14:03:02.358Z</time></trkpt><trkpt lat="43.1268756" lon="11.6053961"><ele>362.0</ele><time>2026-04-11T14:03:03.358Z</time></trkpt><trkpt lat="43.1267513" lon="11.6052884"><ele>362.0</ele><time>2026-04-11T14:03:04.359Z</time></trkpt><trkpt lat="43.1266343" lon="11.605184"><ele>361.75</ele><time>2026-04-11T14:03:05.359Z</time></trkpt><trkpt lat="43.1265253" lon="11.6050759"><ele>361.5</ele><time>2026-04-11T14:03:06.359Z</time></trkpt><trkpt lat="43.1264277" lon="11.6049574"><ele>361.25</ele><time>2026-04-11T14:03:07.359Z</time></trkpt><trkpt lat="43.126341" lon="11.6048157"><ele>361.0</ele><time>2026-04-11T14:03:08.36Z</time></trkpt><trkpt lat="43.1262654" lon="11.6046528"><ele>362.25</ele><time>2026-04-11T14:03:09.359Z</time></trkpt><trkpt lat="43.1261969" lon="11.6044798"><ele>363.5</ele><time>2026-04-11T14:03:10.359Z</time></trkpt><trkpt lat="43.12613" lon="11.6043044"><ele>364.75</ele><time>2026-04-11T14:03:11.359Z</time></trkpt><trkpt lat="43.1260593" lon="11.6041344"><ele>366.0</ele><time>2026-04-11T14:03:12.36Z</time></trkpt><trkpt lat="43.1259877" lon="11.6039715"><ele>366.0</ele><time>2026-04-11T14:03:13.36Z</time></trkpt><trkpt lat="43.1259146" lon="11.6038086"><ele>366.0</ele><time>2026-04-11T14:03:14.36Z</time></trkpt><trkpt lat="43.1258424" lon="11.6036446"><ele>366.0</ele><time>2026-04-11T14:03:15.359Z</time></trkpt><trkpt lat="43.1257782" lon="11.6034838"><ele>366.0</ele><time>2026-04-11T14:03:16.359Z</time></trkpt><trkpt lat="43.1257178" lon="11.6033309"><ele>365.20000000000005</ele><time>2026-04-11T14:03:17.359Z</time></trkpt><trkpt lat="43.1256666" lon="11.6031944"><ele>364.40000000000003</ele><time>2026-04-11T14:03:18.36Z</time></trkpt><trkpt lat="43.1256214" lon="11.6030757"><ele>363.6</ele><time>2026-04-11T14:03:19.36Z</time></trkpt><trkpt lat="43.1255783" lon="11.6029705"><ele>362.8</ele><time>2026-04-11T14:03:20.359Z</time></trkpt><trkpt lat="43.1255386" lon="11.6028729"><ele>362.0</ele><time>2026-04-11T14:03:21.36Z</time></trkpt><trkpt lat="43.1255037" lon="11.6027791"><ele>362.0</ele><time>2026-04-11T14:03:22.36Z</time></trkpt><trkpt lat="43.1254629" lon="11.6026814"><ele>362.0</ele><time>2026-04-11T14:03:23.359Z</time></trkpt><trkpt lat="43.1254229" lon="11.6025855"><ele>362.0</ele><time>2026-04-11T14:03:24.36Z</time></trkpt><trkpt lat="43.1253841" lon="11.6024899"><ele>362.0</ele><time>2026-04-11T14:03:25.359Z</time></trkpt><trkpt lat="43.1253406" lon="11.6023858"><ele>362.0</ele><time>2026-04-11T14:03:26.359Z</time></trkpt><trkpt lat="43.1252919" lon="11.6022702"><ele>362.0</ele><time>2026-04-11T14:03:27.36Z</time></trkpt><trkpt lat="43.1252387" lon="11.6021423"><ele>362.0</ele><time>2026-04-11T14:03:28.359Z</time></trkpt><trkpt lat="43.1251832" lon="11.6020028"><ele>362.0</ele><time>2026-04-11T14:03:29.36Z</time></trkpt><trkpt lat="43.1251261" lon="11.6018574"><ele>362.0</ele><time>2026-04-11T14:03:30.359Z</time></trkpt><trkpt lat="43.1250679" lon="11.6017036"><ele>362.0</ele><time>2026-04-11T14:03:31.359Z</time></trkpt><trkpt lat="43.1250122" lon="11.6015469"><ele>362.25</ele><time>2026-04-11T14:03:32.359Z</time></trkpt><trkpt lat="43.1249593" lon="11.6013919"><ele>362.5</ele><time>2026-04-11T14:03:33.359Z</time></trkpt><trkpt lat="43.124908" lon="11.6012436"><ele>362.75</ele><time>2026-04-11T14:03:34.36Z</time></trkpt><trkpt lat="43.1248592" lon="11.6011031"><ele>363.0</ele><time>2026-04-11T14:03:35.359Z</time></trkpt><trkpt lat="43.1248143" lon="11.6009664"><ele>363.0</ele><time>2026-04-11T14:03:36.36Z</time></trkpt><trkpt lat="43.1247701" lon="11.6008328"><ele>363.0</ele><time>2026-04-11T14:03:37.36Z</time></trkpt><trkpt lat="43.1247237" lon="11.6007051"><ele>363.0</ele><time>2026-04-11T14:03:38.359Z</time></trkpt><trkpt lat="43.1246778" lon="11.6005913"><ele>363.0</ele><time>2026-04-11T14:03:39.36Z</time></trkpt><trkpt lat="43.1246349" lon="11.6004923"><ele>363.0</ele><time>2026-04-11T14:03:40.359Z</time></trkpt><trkpt lat="43.1245912" lon="11.6003977"><ele>364.1428571428571</ele><time>2026-04-11T14:03:41.36Z</time></trkpt><trkpt lat="43.1245443" lon="11.6003068"><ele>365.2857142857143</ele><time>2026-04-11T14:03:42.36Z</time></trkpt><trkpt lat="43.1244989" lon="11.6002271"><ele>366.42857142857144</ele><time>2026-04-11T14:03:43.36Z</time></trkpt><trkpt lat="43.1244579" lon="11.6001528"><ele>367.57142857142856</ele><time>2026-04-11T14:03:44.359Z</time></trkpt><trkpt lat="43.1244184" lon="11.6000814"><ele>368.7142857142857</ele><time>2026-04-11T14:03:45.359Z</time></trkpt><trkpt lat="43.1243792" lon="11.6000112"><ele>369.85714285714283</ele><time>2026-04-11T14:03:46.359Z</time></trkpt><trkpt lat="43.124341" lon="11.5999419"><ele>371.0</ele><time>2026-04-11T14:03:47.359Z</time></trkpt><trkpt lat="43.1243029" lon="11.5998728"><ele>371.0</ele><time>2026-04-11T14:03:48.359Z</time></trkpt><trkpt lat="43.1242653" lon="11.5998026"><ele>371.0</ele><time>2026-04-11T14:03:49.36Z</time></trkpt><trkpt lat="43.1242282" lon="11.5997265"><ele>371.0</ele><time>2026-04-11T14:03:50.36Z</time></trkpt><trkpt lat="43.1241865" lon="11.5996416"><ele>371.0</ele><time>2026-04-11T14:03:51.359Z</time></trkpt><trkpt lat="43.1241363" lon="11.5995477"><ele>371.0</ele><time>2026-04-11T14:03:52.36Z</time></trkpt><trkpt lat="43.1240855" lon="11.5994509"><ele>371.0</ele><time>2026-04-11T14:03:53.36Z</time></trkpt><trkpt lat="43.1240443" lon="11.5993535"><ele>370.8</ele><time>2026-04-11T14:03:54.359Z</time></trkpt><trkpt lat="43.1240144" lon="11.5992469"><ele>370.6</ele><time>2026-04-11T14:03:55.36Z</time></trkpt><trkpt lat="43.1240021" lon="11.5991313"><ele>370.4</ele><time>2026-04-11T14:03:56.36Z</time></trkpt><trkpt lat="43.1240089" lon="11.5990051"><ele>370.2</ele><time>2026-04-11T14:03:57.36Z</time></trkpt><trkpt lat="43.1240357" lon="11.5988657"><ele>370.0</ele><time>2026-04-11T14:03:58.359Z</time></trkpt><trkpt lat="43.1240871" lon="11.5987265"><ele>369.5</ele><time>2026-04-11T14:03:59.36Z</time></trkpt><trkpt lat="43.1241536" lon="11.598583"><ele>369.0</ele><time>2026-04-11T14:04:00.359Z</time></trkpt><trkpt lat="43.1242184" lon="11.5984341"><ele>368.5</ele><time>2026-04-11T14:04:01.359Z</time></trkpt><trkpt lat="43.124276" lon="11.5982734"><ele>368.0</ele><time>2026-04-11T14:04:02.359Z</time></trkpt><trkpt lat="43.1243257" lon="11.5981041"><ele>368.0</ele><time>2026-04-11T14:04:03.36Z</time></trkpt><trkpt lat="43.1243529" lon="11.5979321"><ele>368.0</ele><time>2026-04-11T14:04:04.359Z</time></trkpt><trkpt lat="43.1243648" lon="11.5977495"><ele>368.0</ele><time>2026-04-11T14:04:05.359Z</time></trkpt><trkpt lat="43.124372" lon="11.5975511"><ele>368.0</ele><time>2026-04-11T14:04:06.36Z</time></trkpt><trkpt lat="43.1243755" lon="11.5973296"><ele>367.5</ele><time>2026-04-11T14:04:07.359Z</time></trkpt><trkpt lat="43.1243828" lon="11.5971153"><ele>367.0</ele><time>2026-04-11T14:04:08.359Z</time></trkpt><trkpt lat="43.1243915" lon="11.5969155"><ele>366.5</ele><time>2026-04-11T14:04:09.359Z</time></trkpt><trkpt lat="43.1244041" lon="11.5967235"><ele>366.0</ele><time>2026-04-11T14:04:10.36Z</time></trkpt><trkpt lat="43.1244223" lon="11.5965342"><ele>364.25</ele><time>2026-04-11T14:04:11.361Z</time></trkpt><trkpt lat="43.1244455" lon="11.596324"><ele>362.5</ele><time>2026-04-11T14:04:12.361Z</time></trkpt><trkpt lat="43.1244677" lon="11.5961215"><ele>360.75</ele><time>2026-04-11T14:04:13.36Z</time></trkpt><trkpt lat="43.1244884" lon="11.5959303"><ele>359.0</ele><time>2026-04-11T14:04:14.36Z</time></trkpt><trkpt lat="43.1244974" lon="11.5957636"><ele>359.0</ele><time>2026-04-11T14:04:15.36Z</time></trkpt><trkpt lat="43.1244974" lon="11.5956068"><ele>359.0</ele><time>2026-04-11T14:04:16.36Z</time></trkpt><trkpt lat="43.1244888" lon="11.595448"><ele>359.0</ele><time>2026-04-11T14:04:17.361Z</time></trkpt><trkpt lat="43.1244655" lon="11.5952935"><ele>359.0</ele><time>2026-04-11T14:04:18.36Z</time></trkpt><trkpt lat="43.1244209" lon="11.5951367"><ele>360.25</ele><time>2026-04-11T14:04:19.361Z</time></trkpt><trkpt lat="43.1243636" lon="11.5949758"><ele>361.5</ele><time>2026-04-11T14:04:20.361Z</time></trkpt><trkpt lat="43.1243028" lon="11.594816"><ele>362.75</ele><time>2026-04-11T14:04:21.36Z</time></trkpt><trkpt lat="43.124244" lon="11.5946609"><ele>364.0</ele><time>2026-04-11T14:04:22.361Z</time></trkpt><trkpt lat="43.1241877" lon="11.5945193"><ele>364.4</ele><time>2026-04-11T14:04:23.361Z</time></trkpt><trkpt lat="43.1241445" lon="11.5943948"><ele>364.79999999999995</ele><time>2026-04-11T14:04:24.361Z</time></trkpt><trkpt lat="43.1241042" lon="11.5942779"><ele>365.20000000000005</ele><time>2026-04-11T14:04:25.361Z</time></trkpt><trkpt lat="43.1240706" lon="11.5941638"><ele>365.6</ele><time>2026-04-11T14:04:26.361Z</time></trkpt><trkpt lat="43.1240586" lon="11.5940499"><ele>366.0</ele><time>2026-04-11T14:04:27.361Z</time></trkpt><trkpt lat="43.1240624" lon="11.5939198"><ele>366.0</ele><time>2026-04-11T14:04:28.361Z</time></trkpt><trkpt lat="43.124075" lon="11.5937911"><ele>366.0</ele><time>2026-04-11T14:04:29.361Z</time></trkpt><trkpt lat="43.1240871" lon="11.5936701"><ele>366.0</ele><time>2026-04-11T14:04:30.36Z</time></trkpt><trkpt lat="43.1240941" lon="11.5935614"><ele>366.0</ele><time>2026-04-11T14:04:31.36Z</time></trkpt><trkpt lat="43.1240999" lon="11.5934483"><ele>366.0</ele><time>2026-04-11T14:04:32.36Z</time></trkpt><trkpt lat="43.1241018" lon="11.5933153"><ele>366.0</ele><time>2026-04-11T14:04:34.36Z</time></trkpt><trkpt lat="43.1241273" lon="11.593209"><ele>366.6</ele><time>2026-04-11T14:04:36.361Z</time></trkpt><trkpt lat="43.1242208" lon="11.5931507"><ele>367.20000000000005</ele><time>2026-04-11T14:04:38.36Z</time></trkpt><trkpt lat="43.1243044" lon="11.5931338"><ele>367.79999999999995</ele><time>2026-04-11T14:04:39.361Z</time></trkpt><trkpt lat="43.1244289" lon="11.5931007"><ele>368.4</ele><time>2026-04-11T14:04:40.361Z</time></trkpt><trkpt lat="43.1245577" lon="11.5930481"><ele>369.0</ele><time>2026-04-11T14:04:41.36Z</time></trkpt><trkpt lat="43.1246925" lon="11.5929717"><ele>370.6666666666667</ele><time>2026-04-11T14:04:42.361Z</time></trkpt><trkpt lat="43.1249186" lon="11.5928331"><ele>372.33333333333337</ele><time>2026-04-11T14:04:44.36Z</time></trkpt><trkpt lat="43.1250202" lon="11.5927821"><ele>374.0</ele><time>2026-04-11T14:04:45.361Z</time></trkpt><trkpt lat="43.1251198" lon="11.5927357"><ele>374.0</ele><time>2026-04-11T14:04:46.361Z</time></trkpt><trkpt lat="43.1252191" lon="11.5926887"><ele>374.0</ele><time>2026-04-11T14:04:47.361Z</time></trkpt><trkpt lat="43.1253139" lon="11.5926444"><ele>374.0</ele><time>2026-04-11T14:04:48.361Z</time></trkpt><trkpt lat="43.1254116" lon="11.5926064"><ele>374.0</ele><time>2026-04-11T14:04:49.361Z</time></trkpt><trkpt lat="43.1255132" lon="11.5925735"><ele>374.0</ele><time>2026-04-11T14:04:50.36Z</time></trkpt><trkpt lat="43.1256127" lon="11.5925437"><ele>374.0</ele><time>2026-04-11T14:04:51.361Z</time></trkpt><trkpt lat="43.1257065" lon="11.5925176"><ele>374.0</ele><time>2026-04-11T14:04:52.361Z</time></trkpt><trkpt lat="43.1257983" lon="11.5924913"><ele>374.0</ele><time>2026-04-11T14:04:53.361Z</time></trkpt><trkpt lat="43.1258816" lon="11.5924592"><ele>374.0</ele><time>2026-04-11T14:04:54.361Z</time></trkpt><trkpt lat="43.1259579" lon="11.592418"><ele>374.0</ele><time>2026-04-11T14:04:55.361Z</time></trkpt><trkpt lat="43.126023" lon="11.5923569"><ele>374.0</ele><time>2026-04-11T14:04:56.361Z</time></trkpt><trkpt lat="43.1260876" lon="11.5922755"><ele>371.6</ele><time>2026-04-11T14:04:57.36Z</time></trkpt><trkpt lat="43.1261503" lon="11.5921758"><ele>369.2</ele><time>2026-04-11T14:04:58.361Z</time></trkpt><trkpt lat="43.1262143" lon="11.5920487"><ele>366.8</ele><time>2026-04-11T14:04:59.36Z</time></trkpt><trkpt lat="43.126289" lon="11.5919115"><ele>364.40000000000003</ele><time>2026-04-11T14:05:00.36Z</time></trkpt><trkpt lat="43.1263485" lon="11.5917888"><ele>362.0</ele><time>2026-04-11T14:05:01.36Z</time></trkpt><trkpt lat="43.1263924" lon="11.59165"><ele>362.0</ele><time>2026-04-11T14:05:02.36Z</time></trkpt><trkpt lat="43.1264276" lon="11.5915259"><ele>362.0</ele><time>2026-04-11T14:05:03.36Z</time></trkpt><trkpt lat="43.1264615" lon="11.5914087"><ele>362.0</ele><time>2026-04-11T14:05:04.361Z</time></trkpt><trkpt lat="43.1264834" lon="11.591311"><ele>362.0</ele><time>2026-04-11T14:05:05.36Z</time></trkpt><trkpt lat="43.1264825" lon="11.5911466"><ele>362.0</ele><time>2026-04-11T14:05:07.361Z</time></trkpt><trkpt lat="43.1264542" lon="11.5910281"><ele>360.1666666666667</ele><time>2026-04-11T14:05:08.36Z</time></trkpt><trkpt lat="43.1264193" lon="11.5909011"><ele>358.33333333333337</ele><time>2026-04-11T14:05:09.36Z</time></trkpt><trkpt lat="43.1263876" lon="11.590787"><ele>356.5</ele><time>2026-04-11T14:05:10.361Z</time></trkpt><trkpt lat="43.1263512" lon="11.590676"><ele>354.6666666666667</ele><time>2026-04-11T14:05:11.36Z</time></trkpt><trkpt lat="43.1263159" lon="11.5905726"><ele>352.8333333333333</ele><time>2026-04-11T14:05:12.361Z</time></trkpt><trkpt lat="43.1262902" lon="11.5904583"><ele>351.0</ele><time>2026-04-11T14:05:13.361Z</time></trkpt><trkpt lat="43.1262816" lon="11.5903539"><ele>348.20000000000005</ele><time>2026-04-11T14:05:14.361Z</time></trkpt><trkpt lat="43.1263133" lon="11.5901227"><ele>345.40000000000003</ele><time>2026-04-11T14:05:16.361Z</time></trkpt><trkpt lat="43.1263585" lon="11.5900114"><ele>342.6</ele><time>2026-04-11T14:05:17.362Z</time></trkpt><trkpt lat="43.1264057" lon="11.5899226"><ele>339.8</ele><time>2026-04-11T14:05:18.362Z</time></trkpt><trkpt lat="43.1264621" lon="11.5898268"><ele>337.0</ele><time>2026-04-11T14:05:19.361Z</time></trkpt><trkpt lat="43.1265343" lon="11.5897123"><ele>337.25</ele><time>2026-04-11T14:05:20.361Z</time></trkpt><trkpt lat="43.1266182" lon="11.5895913"><ele>337.5</ele><time>2026-04-11T14:05:21.361Z</time></trkpt><trkpt lat="43.1266982" lon="11.5894791"><ele>337.75</ele><time>2026-04-11T14:05:22.362Z</time></trkpt><trkpt lat="43.1267811" lon="11.589378"><ele>338.0</ele><time>2026-04-11T14:05:23.362Z</time></trkpt><trkpt lat="43.1268748" lon="11.5892621"><ele>338.0</ele><time>2026-04-11T14:05:24.361Z</time></trkpt><trkpt lat="43.1269704" lon="11.5891479"><ele>338.0</ele><time>2026-04-11T14:05:25.362Z</time></trkpt><trkpt lat="43.1270576" lon="11.58904"><ele>338.0</ele><time>2026-04-11T14:05:26.362Z</time></trkpt><trkpt lat="43.1271423" lon="11.5889345"><ele>338.0</ele><time>2026-04-11T14:05:27.362Z</time></trkpt><trkpt lat="43.1272237" lon="11.5888301"><ele>338.0</ele><time>2026-04-11T14:05:28.361Z</time></trkpt><trkpt lat="43.1273041" lon="11.5887297"><ele>338.0</ele><time>2026-04-11T14:05:29.362Z</time></trkpt><trkpt lat="43.127379" lon="11.5886326"><ele>338.0</ele><time>2026-04-11T14:05:30.361Z</time></trkpt><trkpt lat="43.1274479" lon="11.5885362"><ele>338.0</ele><time>2026-04-11T14:05:31.361Z</time></trkpt><trkpt lat="43.1275111" lon="11.5884448"><ele>338.0</ele><time>2026-04-11T14:05:32.361Z</time></trkpt><trkpt lat="43.1275756" lon="11.5883533"><ele>337.6666666666667</ele><time>2026-04-11T14:05:33.362Z</time></trkpt><trkpt lat="43.1276401" lon="11.5882709"><ele>337.33333333333337</ele><time>2026-04-11T14:05:34.361Z</time></trkpt><trkpt lat="43.1277042" lon="11.5881875"><ele>337.0</ele><time>2026-04-11T14:05:35.361Z</time></trkpt><trkpt lat="43.1277656" lon="11.5880988"><ele>336.6666666666667</ele><time>2026-04-11T14:05:36.361Z</time></trkpt><trkpt lat="43.1278207" lon="11.5880067"><ele>336.3333333333333</ele><time>2026-04-11T14:05:37.362Z</time></trkpt><trkpt lat="43.1278658" lon="11.5879098"><ele>336.0</ele><time>2026-04-11T14:05:38.361Z</time></trkpt><trkpt lat="43.1279088" lon="11.5878028"><ele>335.6</ele><time>2026-04-11T14:05:39.362Z</time></trkpt><trkpt lat="43.1279406" lon="11.5876771"><ele>335.20000000000005</ele><time>2026-04-11T14:05:40.361Z</time></trkpt><trkpt lat="43.1279588" lon="11.5875364"><ele>334.79999999999995</ele><time>2026-04-11T14:05:41.362Z</time></trkpt><trkpt lat="43.1279795" lon="11.5873894"><ele>334.4</ele><time>2026-04-11T14:05:42.361Z</time></trkpt><trkpt lat="43.1279989" lon="11.5872576"><ele>334.0</ele><time>2026-04-11T14:05:43.361Z</time></trkpt><trkpt lat="43.128016" lon="11.5871348"><ele>334.0</ele><time>2026-04-11T14:05:44.362Z</time></trkpt><trkpt lat="43.1280299" lon="11.5870348"><ele>334.0</ele><time>2026-04-11T14:05:45.362Z</time></trkpt><trkpt lat="43.1280386" lon="11.5869398"><ele>334.0</ele><time>2026-04-11T14:05:46.361Z</time></trkpt><trkpt lat="43.1280592" lon="11.5867859"><ele>334.0</ele><time>2026-04-11T14:05:48.362Z</time></trkpt><trkpt lat="43.1280767" lon="11.5866573"><ele>334.0</ele><time>2026-04-11T14:05:50.362Z</time></trkpt><trkpt lat="43.1280909" lon="11.5865405"><ele>334.0</ele><time>2026-04-11T14:05:52.362Z</time></trkpt><trkpt lat="43.1281196" lon="11.5864188"><ele>333.5</ele><time>2026-04-11T14:05:55.361Z</time></trkpt><trkpt lat="43.1281494" lon="11.5863204"><ele>333.0</ele><time>2026-04-11T14:05:57.362Z</time></trkpt><trkpt lat="43.1281858" lon="11.5861721"><ele>332.5</ele><time>2026-04-11T14:05:59.361Z</time></trkpt><trkpt lat="43.1282034" lon="11.5860849"><ele>332.0</ele><time>2026-04-11T14:06:00.362Z</time></trkpt><trkpt lat="43.1282176" lon="11.5859888"><ele>331.5</ele><time>2026-04-11T14:06:01.361Z</time></trkpt><trkpt lat="43.1282297" lon="11.5858927"><ele>331.0</ele><time>2026-04-11T14:06:02.362Z</time></trkpt><trkpt lat="43.1282376" lon="11.5857924"><ele>329.8333333333333</ele><time>2026-04-11T14:06:03.362Z</time></trkpt><trkpt lat="43.1282446" lon="11.5856906"><ele>328.66666666666663</ele><time>2026-04-11T14:06:04.361Z</time></trkpt><trkpt lat="43.1282516" lon="11.5855888"><ele>327.5</ele><time>2026-04-11T14:06:05.362Z</time></trkpt><trkpt lat="43.1282592" lon="11.5854836"><ele>326.3333333333333</ele><time>2026-04-11T14:06:06.361Z</time></trkpt><trkpt lat="43.1282667" lon="11.5853631"><ele>325.1666666666667</ele><time>2026-04-11T14:06:07.361Z</time></trkpt><trkpt lat="43.1282795" lon="11.5852248"><ele>324.0</ele><time>2026-04-11T14:06:08.362Z</time></trkpt><trkpt lat="43.1282944" lon="11.5850841"><ele>323.2</ele><time>2026-04-11T14:06:09.361Z</time></trkpt><trkpt lat="43.1283051" lon="11.5849526"><ele>322.4</ele><time>2026-04-11T14:06:10.362Z</time></trkpt><trkpt lat="43.1283138" lon="11.5848096"><ele>321.6</ele><time>2026-04-11T14:06:11.361Z</time></trkpt><trkpt lat="43.1283239" lon="11.5846627"><ele>320.8</ele><time>2026-04-11T14:06:12.362Z</time></trkpt><trkpt lat="43.1283405" lon="11.5845189"><ele>320.0</ele><time>2026-04-11T14:06:13.361Z</time></trkpt><trkpt lat="43.1283671" lon="11.584386"><ele>318.4</ele><time>2026-04-11T14:06:14.361Z</time></trkpt><trkpt lat="43.128406" lon="11.5842471"><ele>316.8</ele><time>2026-04-11T14:06:15.361Z</time></trkpt><trkpt lat="43.1284586" lon="11.5841188"><ele>315.2</ele><time>2026-04-11T14:06:16.361Z</time></trkpt><trkpt lat="43.1285296" lon="11.5839946"><ele>313.6</ele><time>2026-04-11T14:06:17.362Z</time></trkpt><trkpt lat="43.1286117" lon="11.5838826"><ele>312.0</ele><time>2026-04-11T14:06:18.361Z</time></trkpt><trkpt lat="43.1287058" lon="11.5837857"><ele>312.0</ele><time>2026-04-11T14:06:19.363Z</time></trkpt><trkpt lat="43.1288165" lon="11.5837088"><ele>312.0</ele><time>2026-04-11T14:06:20.362Z</time></trkpt><trkpt lat="43.1289479" lon="11.5836716"><ele>312.0</ele><time>2026-04-11T14:06:21.363Z</time></trkpt><trkpt lat="43.1291206" lon="11.5835074"><ele>308.4</ele><time>2026-04-11T14:06:23.363Z</time></trkpt><trkpt lat="43.1291832" lon="11.5833808"><ele>304.79999999999995</ele><time>2026-04-11T14:06:24.363Z</time></trkpt><trkpt lat="43.1292246" lon="11.5832377"><ele>301.2</ele><time>2026-04-11T14:06:25.362Z</time></trkpt><trkpt lat="43.1292627" lon="11.5830967"><ele>297.59999999999997</ele><time>2026-04-11T14:06:26.363Z</time></trkpt><trkpt lat="43.1292941" lon="11.5829502"><ele>294.0</ele><time>2026-04-11T14:06:27.362Z</time></trkpt><trkpt lat="43.129318" lon="11.5828015"><ele>291.25</ele><time>2026-04-11T14:06:28.362Z</time></trkpt><trkpt lat="43.1293347" lon="11.5826464"><ele>288.5</ele><time>2026-04-11T14:06:29.363Z</time></trkpt><trkpt lat="43.1293546" lon="11.582488"><ele>285.75</ele><time>2026-04-11T14:06:30.362Z</time></trkpt><trkpt lat="43.1293752" lon="11.582325"><ele>283.0</ele><time>2026-04-11T14:06:31.363Z</time></trkpt><trkpt lat="43.1293942" lon="11.5821606"><ele>280.0</ele><time>2026-04-11T14:06:32.362Z</time></trkpt><trkpt lat="43.1294153" lon="11.5819979"><ele>277.0</ele><time>2026-04-11T14:06:33.362Z</time></trkpt><trkpt lat="43.1294359" lon="11.5818316"><ele>274.0</ele><time>2026-04-11T14:06:34.362Z</time></trkpt><trkpt lat="43.1294562" lon="11.5816643"><ele>271.0</ele><time>2026-04-11T14:06:35.363Z</time></trkpt><trkpt lat="43.1294792" lon="11.5814961"><ele>271.0</ele><time>2026-04-11T14:06:36.363Z</time></trkpt><trkpt lat="43.1295031" lon="11.581329"><ele>271.0</ele><time>2026-04-11T14:06:37.362Z</time></trkpt><trkpt lat="43.1295275" lon="11.5811648"><ele>271.0</ele><time>2026-04-11T14:06:38.362Z</time></trkpt><trkpt lat="43.1295518" lon="11.5810039"><ele>271.0</ele><time>2026-04-11T14:06:39.363Z</time></trkpt><trkpt lat="43.1295736" lon="11.5808462"><ele>269.6</ele><time>2026-04-11T14:06:40.363Z</time></trkpt><trkpt lat="43.1295935" lon="11.580688"><ele>268.20000000000005</ele><time>2026-04-11T14:06:41.363Z</time></trkpt><trkpt lat="43.1296126" lon="11.5805422"><ele>266.79999999999995</ele><time>2026-04-11T14:06:42.362Z</time></trkpt><trkpt lat="43.1296301" lon="11.5804042"><ele>265.4</ele><time>2026-04-11T14:06:43.362Z</time></trkpt><trkpt lat="43.1296487" lon="11.5802749"><ele>264.0</ele><time>2026-04-11T14:06:44.362Z</time></trkpt><trkpt lat="43.1296664" lon="11.5801496"><ele>263.5</ele><time>2026-04-11T14:06:45.363Z</time></trkpt><trkpt lat="43.1296859" lon="11.5800115"><ele>263.0</ele><time>2026-04-11T14:06:46.362Z</time></trkpt><trkpt lat="43.1297134" lon="11.579869"><ele>262.5</ele><time>2026-04-11T14:06:47.362Z</time></trkpt><trkpt lat="43.1297753" lon="11.5797278"><ele>262.0</ele><time>2026-04-11T14:06:48.363Z</time></trkpt><trkpt lat="43.1298471" lon="11.5795685"><ele>262.0</ele><time>2026-04-11T14:06:49.363Z</time></trkpt><trkpt lat="43.1299267" lon="11.5794041"><ele>262.0</ele><time>2026-04-11T14:06:50.363Z</time></trkpt><trkpt lat="43.1300047" lon="11.5792409"><ele>262.0</ele><time>2026-04-11T14:06:51.362Z</time></trkpt><trkpt lat="43.1300786" lon="11.5790821"><ele>262.0</ele><time>2026-04-11T14:06:52.362Z</time></trkpt><trkpt lat="43.1301469" lon="11.5789302"><ele>262.0</ele><time>2026-04-11T14:06:53.362Z</time></trkpt><trkpt lat="43.1301979" lon="11.5788007"><ele>262.0</ele><time>2026-04-11T14:06:54.363Z</time></trkpt><trkpt lat="43.1302392" lon="11.5786749"><ele>262.0</ele><time>2026-04-11T14:06:55.363Z</time></trkpt><trkpt lat="43.1302632" lon="11.5785497"><ele>262.0</ele><time>2026-04-11T14:06:56.363Z</time></trkpt><trkpt lat="43.1302814" lon="11.5784179"><ele>262.0</ele><time>2026-04-11T14:06:57.362Z</time></trkpt><trkpt lat="43.1302776" lon="11.578279"><ele>261.6</ele><time>2026-04-11T14:06:58.363Z</time></trkpt><trkpt lat="43.1302574" lon="11.5781442"><ele>261.2</ele><time>2026-04-11T14:06:59.363Z</time></trkpt><trkpt lat="43.1302281" lon="11.5780211"><ele>260.8</ele><time>2026-04-11T14:07:00.363Z</time></trkpt><trkpt lat="43.1301846" lon="11.5779035"><ele>260.4</ele><time>2026-04-11T14:07:01.362Z</time></trkpt><trkpt lat="43.1301286" lon="11.5777844"><ele>260.0</ele><time>2026-04-11T14:07:02.363Z</time></trkpt><trkpt lat="43.1300631" lon="11.5776563"><ele>259.0</ele><time>2026-04-11T14:07:03.363Z</time></trkpt><trkpt lat="43.1299894" lon="11.5775293"><ele>258.0</ele><time>2026-04-11T14:07:04.363Z</time></trkpt><trkpt lat="43.1299148" lon="11.5774199"><ele>257.0</ele><time>2026-04-11T14:07:05.362Z</time></trkpt><trkpt lat="43.1298401" lon="11.577336"><ele>256.0</ele><time>2026-04-11T14:07:06.362Z</time></trkpt><trkpt lat="43.1297613" lon="11.5772815"><ele>255.0</ele><time>2026-04-11T14:07:07.362Z</time></trkpt><trkpt lat="43.1296648" lon="11.5772539"><ele>254.6</ele><time>2026-04-11T14:07:08.362Z</time></trkpt><trkpt lat="43.1295605" lon="11.5772543"><ele>254.2</ele><time>2026-04-11T14:07:09.363Z</time></trkpt><trkpt lat="43.1294488" lon="11.5772595"><ele>253.8</ele><time>2026-04-11T14:07:10.362Z</time></trkpt><trkpt lat="43.1293464" lon="11.5772478"><ele>253.4</ele><time>2026-04-11T14:07:11.363Z</time></trkpt><trkpt lat="43.1292491" lon="11.5772139"><ele>253.0</ele><time>2026-04-11T14:07:12.362Z</time></trkpt><trkpt lat="43.1291661" lon="11.5771529"><ele>253.0</ele><time>2026-04-11T14:07:13.363Z</time></trkpt><trkpt lat="43.1291201" lon="11.57707"><ele>253.0</ele><time>2026-04-11T14:07:14.363Z</time></trkpt><trkpt lat="43.1290879" lon="11.5769488"><ele>253.0</ele><time>2026-04-11T14:07:15.363Z</time></trkpt><trkpt lat="43.1290628" lon="11.5768207"><ele>253.0</ele><time>2026-04-11T14:07:16.363Z</time></trkpt><trkpt lat="43.1290428" lon="11.5766828"><ele>253.0</ele><time>2026-04-11T14:07:17.363Z</time></trkpt><trkpt lat="43.1290518" lon="11.5765086"><ele>253.66666666666666</ele><time>2026-04-11T14:07:18.363Z</time></trkpt><trkpt lat="43.1290599" lon="11.5763225"><ele>254.33333333333331</ele><time>2026-04-11T14:07:19.362Z</time></trkpt><trkpt lat="43.1290767" lon="11.5760876"><ele>255.0</ele><time>2026-04-11T14:07:20.363Z</time></trkpt><trkpt lat="43.1291123" lon="11.5758518"><ele>255.75</ele><time>2026-04-11T14:07:21.364Z</time></trkpt><trkpt lat="43.1291384" lon="11.5756576"><ele>256.5</ele><time>2026-04-11T14:07:22.363Z</time></trkpt><trkpt lat="43.1291591" lon="11.5754888"><ele>257.25</ele><time>2026-04-11T14:07:23.363Z</time></trkpt><trkpt lat="43.1291713" lon="11.5753317"><ele>258.0</ele><time>2026-04-11T14:07:24.363Z</time></trkpt><trkpt lat="43.1291799" lon="11.5751803"><ele>258.4</ele><time>2026-04-11T14:07:25.363Z</time></trkpt><trkpt lat="43.1291951" lon="11.5750444"><ele>258.8</ele><time>2026-04-11T14:07:26.364Z</time></trkpt><trkpt lat="43.1292251" lon="11.5749285"><ele>259.2</ele><time>2026-04-11T14:07:27.363Z</time></trkpt><trkpt lat="43.1292764" lon="11.5748474"><ele>259.6</ele><time>2026-04-11T14:07:28.364Z</time></trkpt><trkpt lat="43.1294402" lon="11.5748403"><ele>260.0</ele><time>2026-04-11T14:07:30.364Z</time></trkpt><trkpt lat="43.1295153" lon="11.5748412"><ele>260.0</ele><time>2026-04-11T14:07:31.364Z</time></trkpt><trkpt lat="43.1295958" lon="11.5748361"><ele>260.0</ele><time>2026-04-11T14:07:32.363Z</time></trkpt><trkpt lat="43.1297158" lon="11.5748461"><ele>260.0</ele><time>2026-04-11T14:07:33.364Z</time></trkpt><trkpt lat="43.1298449" lon="11.5748652"><ele>260.0</ele><time>2026-04-11T14:07:34.364Z</time></trkpt><trkpt lat="43.1300223" lon="11.5749125"><ele>260.0</ele><time>2026-04-11T14:07:35.364Z</time></trkpt><trkpt lat="43.1301999" lon="11.5749624"><ele>260.0</ele><time>2026-04-11T14:07:36.363Z</time></trkpt><trkpt lat="43.1304018" lon="11.5750222"><ele>260.0</ele><time>2026-04-11T14:07:37.363Z</time></trkpt><trkpt lat="43.1306102" lon="11.5750759"><ele>260.33333333333337</ele><time>2026-04-11T14:07:38.364Z</time></trkpt><trkpt lat="43.1308228" lon="11.5751356"><ele>260.6666666666667</ele><time>2026-04-11T14:07:39.363Z</time></trkpt><trkpt lat="43.1310324" lon="11.5751921"><ele>261.0</ele><time>2026-04-11T14:07:40.363Z</time></trkpt><trkpt lat="43.1312369" lon="11.5752478"><ele>261.0</ele><time>2026-04-11T14:07:41.363Z</time></trkpt><trkpt lat="43.1314392" lon="11.5753043"><ele>261.0</ele><time>2026-04-11T14:07:42.364Z</time></trkpt><trkpt lat="43.1316397" lon="11.5753601"><ele>261.0</ele><time>2026-04-11T14:07:43.364Z</time></trkpt><trkpt lat="43.1318393" lon="11.575415"><ele>261.6666666666667</ele><time>2026-04-11T14:07:44.363Z</time></trkpt><trkpt lat="43.1320397" lon="11.5754733"><ele>262.33333333333337</ele><time>2026-04-11T14:07:45.363Z</time></trkpt><trkpt lat="43.1322321" lon="11.5755284"><ele>263.0</ele><time>2026-04-11T14:07:46.364Z</time></trkpt><trkpt lat="43.1324119" lon="11.5755809"><ele>263.6666666666667</ele><time>2026-04-11T14:07:47.363Z</time></trkpt><trkpt lat="43.1325748" lon="11.575629"><ele>264.3333333333333</ele><time>2026-04-11T14:07:48.363Z</time></trkpt><trkpt lat="43.1327337" lon="11.5756818"><ele>265.0</ele><time>2026-04-11T14:07:49.364Z</time></trkpt><trkpt lat="43.1328842" lon="11.5757356"><ele>265.0</ele><time>2026-04-11T14:07:50.363Z</time></trkpt><trkpt lat="43.1330345" lon="11.5757862"><ele>265.0</ele><time>2026-04-11T14:07:51.364Z</time></trkpt><trkpt lat="43.1331807" lon="11.5758309"><ele>265.0</ele><time>2026-04-11T14:07:52.363Z</time></trkpt><trkpt lat="43.1333232" lon="11.575876"><ele>265.0</ele><time>2026-04-11T14:07:53.363Z</time></trkpt><trkpt lat="43.1334698" lon="11.5759247"><ele>265.0</ele><time>2026-04-11T14:07:54.363Z</time></trkpt><trkpt lat="43.1336212" lon="11.575976"><ele>265.0</ele><time>2026-04-11T14:07:55.363Z</time></trkpt><trkpt lat="43.1337763" lon="11.5760287"><ele>265.0</ele><time>2026-04-11T14:07:56.363Z</time></trkpt><trkpt lat="43.1339357" lon="11.5760842"><ele>265.0</ele><time>2026-04-11T14:07:57.363Z</time></trkpt><trkpt lat="43.1341068" lon="11.5761388"><ele>265.0</ele><time>2026-04-11T14:07:58.364Z</time></trkpt><trkpt lat="43.1342812" lon="11.5761952"><ele>263.66666666666663</ele><time>2026-04-11T14:07:59.364Z</time></trkpt><trkpt lat="43.1344537" lon="11.5762554"><ele>262.3333333333333</ele><time>2026-04-11T14:08:00.364Z</time></trkpt><trkpt lat="43.1346264" lon="11.5763175"><ele>261.0</ele><time>2026-04-11T14:08:01.363Z</time></trkpt><trkpt lat="43.1348049" lon="11.576382"><ele>261.6666666666667</ele><time>2026-04-11T14:08:02.363Z</time></trkpt><trkpt lat="43.1349856" lon="11.5764544"><ele>262.33333333333337</ele><time>2026-04-11T14:08:03.363Z</time></trkpt><trkpt lat="43.135164" lon="11.5765599"><ele>263.0</ele><time>2026-04-11T14:08:04.364Z</time></trkpt><trkpt lat="43.1353497" lon="11.5767062"><ele>263.0</ele><time>2026-04-11T14:08:05.364Z</time></trkpt><trkpt lat="43.1355281" lon="11.5768917"><ele>263.0</ele><time>2026-04-11T14:08:06.363Z</time></trkpt><trkpt lat="43.1357015" lon="11.5770688"><ele>263.0</ele><time>2026-04-11T14:08:07.364Z</time></trkpt><trkpt lat="43.1358719" lon="11.5772343"><ele>262.6666666666667</ele><time>2026-04-11T14:08:08.363Z</time></trkpt><trkpt lat="43.1360419" lon="11.5773836"><ele>262.3333333333333</ele><time>2026-04-11T14:08:09.363Z</time></trkpt><trkpt lat="43.1362012" lon="11.577521"><ele>262.0</ele><time>2026-04-11T14:08:10.364Z</time></trkpt><trkpt lat="43.1363559" lon="11.5776561"><ele>262.0</ele><time>2026-04-11T14:08:11.363Z</time></trkpt><trkpt lat="43.1365092" lon="11.5777963"><ele>262.0</ele><time>2026-04-11T14:08:12.364Z</time></trkpt><trkpt lat="43.1366556" lon="11.5779325"><ele>262.0</ele><time>2026-04-11T14:08:13.364Z</time></trkpt><trkpt lat="43.1367944" lon="11.5780601"><ele>262.5</ele><time>2026-04-11T14:08:14.364Z</time></trkpt><trkpt lat="43.136925" lon="11.5781795"><ele>263.0</ele><time>2026-04-11T14:08:15.363Z</time></trkpt><trkpt lat="43.1370479" lon="11.5782901"><ele>263.5</ele><time>2026-04-11T14:08:16.363Z</time></trkpt><trkpt lat="43.1371619" lon="11.5783914"><ele>264.0</ele><time>2026-04-11T14:08:17.364Z</time></trkpt><trkpt lat="43.1372692" lon="11.5784879"><ele>264.0</ele><time>2026-04-11T14:08:18.364Z</time></trkpt><trkpt lat="43.1373601" lon="11.5785726"><ele>264.0</ele><time>2026-04-11T14:08:19.363Z</time></trkpt><trkpt lat="43.1374412" lon="11.578651"><ele>264.0</ele><time>2026-04-11T14:08:20.364Z</time></trkpt><trkpt lat="43.1375082" lon="11.5787105"><ele>264.0</ele><time>2026-04-11T14:08:21.363Z</time></trkpt><trkpt lat="43.1376193" lon="11.5787367"><ele>264.0</ele><time>2026-04-11T14:08:23.363Z</time></trkpt><trkpt lat="43.1376818" lon="11.5786923"><ele>264.8</ele><time>2026-04-11T14:08:24.363Z</time></trkpt><trkpt lat="43.1377456" lon="11.578598"><ele>265.59999999999997</ele><time>2026-04-11T14:08:25.363Z</time></trkpt><trkpt lat="43.1377982" lon="11.5784822"><ele>266.4</ele><time>2026-04-11T14:08:26.364Z</time></trkpt><trkpt lat="43.137846" lon="11.5783668"><ele>267.2</ele><time>2026-04-11T14:08:27.365Z</time></trkpt><trkpt lat="43.1379025" lon="11.5782532"><ele>268.0</ele><time>2026-04-11T14:08:28.364Z</time></trkpt><trkpt lat="43.1379673" lon="11.5781421"><ele>268.0</ele><time>2026-04-11T14:08:29.365Z</time></trkpt><trkpt lat="43.138038" lon="11.5780292"><ele>268.0</ele><time>2026-04-11T14:08:30.365Z</time></trkpt><trkpt lat="43.1381147" lon="11.577907"><ele>268.0</ele><time>2026-04-11T14:08:31.364Z</time></trkpt><trkpt lat="43.1381896" lon="11.5777819"><ele>268.0</ele><time>2026-04-11T14:08:32.364Z</time></trkpt><trkpt lat="43.1382613" lon="11.5776525"><ele>269.4</ele><time>2026-04-11T14:08:33.365Z</time></trkpt><trkpt lat="43.1383316" lon="11.5775278"><ele>270.8</ele><time>2026-04-11T14:08:34.365Z</time></trkpt><trkpt lat="43.1383975" lon="11.5774124"><ele>272.2</ele><time>2026-04-11T14:08:35.365Z</time></trkpt><trkpt lat="43.1384592" lon="11.5772998"><ele>273.6</ele><time>2026-04-11T14:08:36.364Z</time></trkpt><trkpt lat="43.1385207" lon="11.5771882"><ele>275.0</ele><time>2026-04-11T14:08:37.364Z</time></trkpt><trkpt lat="43.1385831" lon="11.5770758"><ele>275.6</ele><time>2026-04-11T14:08:38.365Z</time></trkpt><trkpt lat="43.1386439" lon="11.5769612"><ele>276.2</ele><time>2026-04-11T14:08:39.364Z</time></trkpt><trkpt lat="43.1387016" lon="11.5768421"><ele>276.8</ele><time>2026-04-11T14:08:40.365Z</time></trkpt><trkpt lat="43.1387526" lon="11.576717"><ele>277.4</ele><time>2026-04-11T14:08:41.364Z</time></trkpt><trkpt lat="43.138787" lon="11.5765846"><ele>278.0</ele><time>2026-04-11T14:08:42.364Z</time></trkpt><trkpt lat="43.1388027" lon="11.5764348"><ele>278.0</ele><time>2026-04-11T14:08:43.365Z</time></trkpt><trkpt lat="43.1388045" lon="11.5762821"><ele>278.0</ele><time>2026-04-11T14:08:44.364Z</time></trkpt><trkpt lat="43.1388004" lon="11.5761281"><ele>278.0</ele><time>2026-04-11T14:08:45.364Z</time></trkpt><trkpt lat="43.1387908" lon="11.5759737"><ele>278.0</ele><time>2026-04-11T14:08:46.365Z</time></trkpt><trkpt lat="43.1387809" lon="11.575822"><ele>278.0</ele><time>2026-04-11T14:08:47.364Z</time></trkpt><trkpt lat="43.1387672" lon="11.5756716"><ele>279.4</ele><time>2026-04-11T14:08:48.365Z</time></trkpt><trkpt lat="43.1387403" lon="11.5755234"><ele>280.8</ele><time>2026-04-11T14:08:49.364Z</time></trkpt><trkpt lat="43.1387005" lon="11.575388"><ele>282.2</ele><time>2026-04-11T14:08:50.364Z</time></trkpt><trkpt lat="43.138641" lon="11.5752699"><ele>283.6</ele><time>2026-04-11T14:08:51.364Z</time></trkpt><trkpt lat="43.1385637" lon="11.5751613"><ele>285.0</ele><time>2026-04-11T14:08:52.365Z</time></trkpt><trkpt lat="43.1384717" lon="11.5750678"><ele>288.25</ele><time>2026-04-11T14:08:53.364Z</time></trkpt><trkpt lat="43.1383763" lon="11.5749822"><ele>291.5</ele><time>2026-04-11T14:08:54.364Z</time></trkpt><trkpt lat="43.1382791" lon="11.5748871"><ele>294.75</ele><time>2026-04-11T14:08:55.365Z</time></trkpt><trkpt lat="43.1381872" lon="11.5747843"><ele>298.0</ele><time>2026-04-11T14:08:56.365Z</time></trkpt><trkpt lat="43.1381032" lon="11.5746774"><ele>298.6</ele><time>2026-04-11T14:08:57.364Z</time></trkpt><trkpt lat="43.138033" lon="11.5745634"><ele>299.20000000000005</ele><time>2026-04-11T14:08:58.364Z</time></trkpt><trkpt lat="43.1379826" lon="11.5744384"><ele>299.8</ele><time>2026-04-11T14:08:59.365Z</time></trkpt><trkpt lat="43.1379507" lon="11.5743018"><ele>300.40000000000003</ele><time>2026-04-11T14:09:00.365Z</time></trkpt><trkpt lat="43.1379484" lon="11.5741553"><ele>301.0</ele><time>2026-04-11T14:09:01.364Z</time></trkpt><trkpt lat="43.1379584" lon="11.5740078"><ele>301.0</ele><time>2026-04-11T14:09:02.365Z</time></trkpt><trkpt lat="43.1379623" lon="11.5738575"><ele>301.0</ele><time>2026-04-11T14:09:03.365Z</time></trkpt><trkpt lat="43.1379601" lon="11.5737008"><ele>301.0</ele><time>2026-04-11T14:09:04.364Z</time></trkpt><trkpt lat="43.1379546" lon="11.573541"><ele>301.0</ele><time>2026-04-11T14:09:05.364Z</time></trkpt><trkpt lat="43.1379513" lon="11.5733747"><ele>300.25</ele><time>2026-04-11T14:09:06.365Z</time></trkpt><trkpt lat="43.1379511" lon="11.5732048"><ele>299.5</ele><time>2026-04-11T14:09:07.365Z</time></trkpt><trkpt lat="43.1379452" lon="11.5730256"><ele>298.75</ele><time>2026-04-11T14:09:08.364Z</time></trkpt><trkpt lat="43.1379374" lon="11.5728398"><ele>298.0</ele><time>2026-04-11T14:09:09.366Z</time></trkpt><trkpt lat="43.1379291" lon="11.5726566"><ele>297.2</ele><time>2026-04-11T14:09:10.364Z</time></trkpt><trkpt lat="43.1379196" lon="11.5724879"><ele>296.4</ele><time>2026-04-11T14:09:11.365Z</time></trkpt><trkpt lat="43.1379144" lon="11.572337"><ele>295.59999999999997</ele><time>2026-04-11T14:09:12.365Z</time></trkpt><trkpt lat="43.1379136" lon="11.5721981"><ele>294.8</ele><time>2026-04-11T14:09:13.364Z</time></trkpt><trkpt lat="43.1379273" lon="11.5720782"><ele>294.0</ele><time>2026-04-11T14:09:14.364Z</time></trkpt><trkpt lat="43.1379768" lon="11.5719929"><ele>292.0</ele><time>2026-04-11T14:09:15.364Z</time></trkpt><trkpt lat="43.1380404" lon="11.5719196"><ele>290.0</ele><time>2026-04-11T14:09:16.364Z</time></trkpt><trkpt lat="43.138245" lon="11.5718237"><ele>288.0</ele><time>2026-04-11T14:09:18.365Z</time></trkpt><trkpt lat="43.1383619" lon="11.5717671"><ele>286.0</ele><time>2026-04-11T14:09:19.365Z</time></trkpt><trkpt lat="43.1384661" lon="11.5716906"><ele>288.8</ele><time>2026-04-11T14:09:20.365Z</time></trkpt><trkpt lat="43.1385501" lon="11.5715919"><ele>291.6</ele><time>2026-04-11T14:09:21.365Z</time></trkpt><trkpt lat="43.1386183" lon="11.5714726"><ele>294.4</ele><time>2026-04-11T14:09:22.365Z</time></trkpt><trkpt lat="43.1386673" lon="11.5713354"><ele>297.2</ele><time>2026-04-11T14:09:23.364Z</time></trkpt><trkpt lat="43.1386898" lon="11.571191"><ele>300.0</ele><time>2026-04-11T14:09:24.365Z</time></trkpt><trkpt lat="43.1386859" lon="11.5710489"><ele>300.0</ele><time>2026-04-11T14:09:25.365Z</time></trkpt><trkpt lat="43.1386556" lon="11.5709117"><ele>300.0</ele><time>2026-04-11T14:09:26.365Z</time></trkpt><trkpt lat="43.1386033" lon="11.5707826"><ele>300.0</ele><time>2026-04-11T14:09:27.365Z</time></trkpt><trkpt lat="43.1385371" lon="11.5706585"><ele>300.0</ele><time>2026-04-11T14:09:28.365Z</time></trkpt><trkpt lat="43.1384709" lon="11.5705342"><ele>300.0</ele><time>2026-04-11T14:09:29.365Z</time></trkpt><trkpt lat="43.1384419" lon="11.5704067"><ele>301.0</ele><time>2026-04-11T14:09:30.366Z</time></trkpt><trkpt lat="43.1384336" lon="11.5702744"><ele>302.0</ele><time>2026-04-11T14:09:31.365Z</time></trkpt><trkpt lat="43.1384482" lon="11.5701368"><ele>303.0</ele><time>2026-04-11T14:09:32.365Z</time></trkpt><trkpt lat="43.1384757" lon="11.5699982"><ele>304.0</ele><time>2026-04-11T14:09:33.366Z</time></trkpt><trkpt lat="43.1384993" lon="11.5698544"><ele>305.0</ele><time>2026-04-11T14:09:34.366Z</time></trkpt><trkpt lat="43.1385146" lon="11.5697057"><ele>305.0</ele><time>2026-04-11T14:09:35.366Z</time></trkpt><trkpt lat="43.1385202" lon="11.5695548"><ele>305.0</ele><time>2026-04-11T14:09:36.366Z</time></trkpt><trkpt lat="43.1385174" lon="11.5693966"><ele>305.0</ele><time>2026-04-11T14:09:37.366Z</time></trkpt><trkpt lat="43.1385044" lon="11.5692266"><ele>305.0</ele><time>2026-04-11T14:09:38.366Z</time></trkpt><trkpt lat="43.1384787" lon="11.5690551"><ele>305.25</ele><time>2026-04-11T14:09:39.366Z</time></trkpt><trkpt lat="43.1384394" lon="11.568897"><ele>305.5</ele><time>2026-04-11T14:09:40.366Z</time></trkpt><trkpt lat="43.1383892" lon="11.568754"><ele>305.75</ele><time>2026-04-11T14:09:41.365Z</time></trkpt><trkpt lat="43.138327" lon="11.5686259"><ele>306.0</ele><time>2026-04-11T14:09:42.366Z</time></trkpt><trkpt lat="43.1382551" lon="11.5685118"><ele>301.2</ele><time>2026-04-11T14:09:43.366Z</time></trkpt><trkpt lat="43.1381753" lon="11.5684033"><ele>296.40000000000003</ele><time>2026-04-11T14:09:44.366Z</time></trkpt><trkpt lat="43.1380924" lon="11.5682944"><ele>291.6</ele><time>2026-04-11T14:09:45.365Z</time></trkpt><trkpt lat="43.1380129" lon="11.568188"><ele>286.8</ele><time>2026-04-11T14:09:46.365Z</time></trkpt><trkpt lat="43.1379469" lon="11.5680734"><ele>282.0</ele><time>2026-04-11T14:09:47.365Z</time></trkpt><trkpt lat="43.1378969" lon="11.5679462"><ele>283.4</ele><time>2026-04-11T14:09:48.366Z</time></trkpt><trkpt lat="43.1378712" lon="11.5678118"><ele>284.79999999999995</ele><time>2026-04-11T14:09:49.366Z</time></trkpt><trkpt lat="43.1378639" lon="11.5676663"><ele>286.2</ele><time>2026-04-11T14:09:50.366Z</time></trkpt><trkpt lat="43.1378741" lon="11.5675138"><ele>287.59999999999997</ele><time>2026-04-11T14:09:51.365Z</time></trkpt><trkpt lat="43.1378961" lon="11.567352"><ele>289.0</ele><time>2026-04-11T14:09:52.366Z</time></trkpt><trkpt lat="43.1379155" lon="11.567186"><ele>288.75</ele><time>2026-04-11T14:09:53.366Z</time></trkpt><trkpt lat="43.1379215" lon="11.5670211"><ele>288.5</ele><time>2026-04-11T14:09:54.366Z</time></trkpt><trkpt lat="43.1379166" lon="11.5668588"><ele>288.25</ele><time>2026-04-11T14:09:55.366Z</time></trkpt><trkpt lat="43.1379065" lon="11.5666943"><ele>288.0</ele><time>2026-04-11T14:09:56.365Z</time></trkpt><trkpt lat="43.1378952" lon="11.566527"><ele>288.0</ele><time>2026-04-11T14:09:57.365Z</time></trkpt><trkpt lat="43.1378858" lon="11.5663583"><ele>288.0</ele><time>2026-04-11T14:09:58.366Z</time></trkpt><trkpt lat="43.1378767" lon="11.5661851"><ele>288.0</ele><time>2026-04-11T14:09:59.365Z</time></trkpt><trkpt lat="43.1378669" lon="11.566012"><ele>288.0</ele><time>2026-04-11T14:10:00.365Z</time></trkpt><trkpt lat="43.1378573" lon="11.5658447"><ele>288.0</ele><time>2026-04-11T14:10:01.365Z</time></trkpt><trkpt lat="43.1378497" lon="11.5656855"><ele>288.0</ele><time>2026-04-11T14:10:02.366Z</time></trkpt><trkpt lat="43.1378407" lon="11.5655287"><ele>288.0</ele><time>2026-04-11T14:10:03.366Z</time></trkpt><trkpt lat="43.1378274" lon="11.5653742"><ele>288.0</ele><time>2026-04-11T14:10:04.365Z</time></trkpt><trkpt lat="43.1378039" lon="11.5652229"><ele>288.0</ele><time>2026-04-11T14:10:05.366Z</time></trkpt><trkpt lat="43.1377615" lon="11.5650807"><ele>288.0</ele><time>2026-04-11T14:10:06.365Z</time></trkpt><trkpt lat="43.1377061" lon="11.5649444"><ele>288.0</ele><time>2026-04-11T14:10:07.366Z</time></trkpt><trkpt lat="43.1376463" lon="11.5648151"><ele>288.0</ele><time>2026-04-11T14:10:08.365Z</time></trkpt><trkpt lat="43.1375886" lon="11.5646967"><ele>288.0</ele><time>2026-04-11T14:10:09.365Z</time></trkpt><trkpt lat="43.1375377" lon="11.5645923"><ele>288.6666666666667</ele><time>2026-04-11T14:10:10.366Z</time></trkpt><trkpt lat="43.137492" lon="11.5645015"><ele>289.3333333333333</ele><time>2026-04-11T14:10:11.365Z</time></trkpt><trkpt lat="43.1374438" lon="11.5644255"><ele>290.0</ele><time>2026-04-11T14:10:12.366Z</time></trkpt><trkpt lat="43.137388" lon="11.5643703"><ele>290.66666666666663</ele><time>2026-04-11T14:10:13.365Z</time></trkpt><trkpt lat="43.1373187" lon="11.5643398"><ele>291.3333333333333</ele><time>2026-04-11T14:10:14.365Z</time></trkpt><trkpt lat="43.137241" lon="11.564342"><ele>292.0</ele><time>2026-04-11T14:10:15.366Z</time></trkpt><trkpt lat="43.1371596" lon="11.5643779"><ele>288.16666666666663</ele><time>2026-04-11T14:10:16.365Z</time></trkpt><trkpt lat="43.1370825" lon="11.5644415"><ele>284.3333333333333</ele><time>2026-04-11T14:10:17.365Z</time></trkpt><trkpt lat="43.1370188" lon="11.5645266"><ele>280.5</ele><time>2026-04-11T14:10:18.365Z</time></trkpt><trkpt lat="43.1369775" lon="11.5646257"><ele>276.6666666666667</ele><time>2026-04-11T14:10:19.365Z</time></trkpt><trkpt lat="43.136957" lon="11.5647327"><ele>272.83333333333337</ele><time>2026-04-11T14:10:20.366Z</time></trkpt><trkpt lat="43.1369554" lon="11.5648398"><ele>269.0</ele><time>2026-04-11T14:10:21.366Z</time></trkpt><trkpt lat="43.1369628" lon="11.564949"><ele>269.0</ele><time>2026-04-11T14:10:22.366Z</time></trkpt><trkpt lat="43.1370036" lon="11.5650611"><ele>269.0</ele><time>2026-04-11T14:10:23.366Z</time></trkpt><trkpt lat="43.1370512" lon="11.5651704"><ele>269.0</ele><time>2026-04-11T14:10:24.365Z</time></trkpt><trkpt lat="43.1371" lon="11.5652725"><ele>269.0</ele><time>2026-04-11T14:10:25.366Z</time></trkpt><trkpt lat="43.1371456" lon="11.5653735"><ele>269.0</ele><time>2026-04-11T14:10:26.365Z</time></trkpt><trkpt lat="43.1371852" lon="11.5654764"><ele>269.0</ele><time>2026-04-11T14:10:27.366Z</time></trkpt><trkpt lat="43.1372121" lon="11.5655861"><ele>268.59999999999997</ele><time>2026-04-11T14:10:28.365Z</time></trkpt><trkpt lat="43.1372253" lon="11.5657106"><ele>268.2</ele><time>2026-04-11T14:10:29.366Z</time></trkpt><trkpt lat="43.1372159" lon="11.5658332"><ele>267.79999999999995</ele><time>2026-04-11T14:10:30.365Z</time></trkpt><trkpt lat="43.1371871" lon="11.5659498"><ele>267.4</ele><time>2026-04-11T14:10:31.366Z</time></trkpt><trkpt lat="43.1371424" lon="11.566059"><ele>267.0</ele><time>2026-04-11T14:10:32.366Z</time></trkpt><trkpt lat="43.1370842" lon="11.5661588"><ele>267.8</ele><time>2026-04-11T14:10:33.366Z</time></trkpt><trkpt lat="43.1370113" lon="11.5662426"><ele>268.6</ele><time>2026-04-11T14:10:34.366Z</time></trkpt><trkpt lat="43.136935" lon="11.566322"><ele>269.40000000000003</ele><time>2026-04-11T14:10:35.366Z</time></trkpt><trkpt lat="43.1368319" lon="11.5663739"><ele>270.2</ele><time>2026-04-11T14:10:36.367Z</time></trkpt><trkpt lat="43.1367257" lon="11.5664149"><ele>271.0</ele><time>2026-04-11T14:10:37.367Z</time></trkpt><trkpt lat="43.1366223" lon="11.5664594"><ele>267.16666666666663</ele><time>2026-04-11T14:10:38.367Z</time></trkpt><trkpt lat="43.1365246" lon="11.5665059"><ele>263.3333333333333</ele><time>2026-04-11T14:10:39.367Z</time></trkpt><trkpt lat="43.136437" lon="11.5665498"><ele>259.5</ele><time>2026-04-11T14:10:40.367Z</time></trkpt><trkpt lat="43.1363586" lon="11.5665859"><ele>255.66666666666669</ele><time>2026-04-11T14:10:41.367Z</time></trkpt><trkpt lat="43.1362837" lon="11.5666036"><ele>251.83333333333334</ele><time>2026-04-11T14:10:42.366Z</time></trkpt><trkpt lat="43.136213" lon="11.5665887"><ele>248.0</ele><time>2026-04-11T14:10:43.366Z</time></trkpt><trkpt lat="43.1361518" lon="11.5665323"><ele>248.00000000000003</ele><time>2026-04-11T14:10:44.366Z</time></trkpt><trkpt lat="43.1361147" lon="11.5664411"><ele>248.0</ele><time>2026-04-11T14:10:45.366Z</time></trkpt><trkpt lat="43.1361122" lon="11.5663313"><ele>248.0</ele><time>2026-04-11T14:10:46.366Z</time></trkpt><trkpt lat="43.1361411" lon="11.56622"><ele>248.0</ele><time>2026-04-11T14:10:47.366Z</time></trkpt><trkpt lat="43.1361765" lon="11.56611"><ele>248.00000000000003</ele><time>2026-04-11T14:10:48.367Z</time></trkpt><trkpt lat="43.136243" lon="11.5660232"><ele>248.0</ele><time>2026-04-11T14:10:49.367Z</time></trkpt><trkpt lat="43.1363028" lon="11.5659307"><ele>248.0</ele><time>2026-04-11T14:10:50.367Z</time></trkpt><trkpt lat="43.1363435" lon="11.5658189"><ele>248.0</ele><time>2026-04-11T14:10:51.366Z</time></trkpt><trkpt lat="43.1363598" lon="11.5656948"><ele>248.0</ele><time>2026-04-11T14:10:52.367Z</time></trkpt><trkpt lat="43.1363472" lon="11.5655712"><ele>248.0</ele><time>2026-04-11T14:10:53.366Z</time></trkpt><trkpt lat="43.1363064" lon="11.5654532"><ele>248.0</ele><time>2026-04-11T14:10:54.367Z</time></trkpt><trkpt lat="43.1362442" lon="11.56536"><ele>247.4</ele><time>2026-04-11T14:10:55.367Z</time></trkpt><trkpt lat="43.1361729" lon="11.5652725"><ele>246.8</ele><time>2026-04-11T14:10:56.367Z</time></trkpt><trkpt lat="43.136108" lon="11.5651791"><ele>246.2</ele><time>2026-04-11T14:10:57.366Z</time></trkpt><trkpt lat="43.136063" lon="11.5650629"><ele>245.6</ele><time>2026-04-11T14:10:58.367Z</time></trkpt><trkpt lat="43.1360397" lon="11.5649382"><ele>245.0</ele><time>2026-04-11T14:10:59.366Z</time></trkpt><trkpt lat="43.1360376" lon="11.5648081"><ele>245.0</ele><time>2026-04-11T14:11:00.367Z</time></trkpt><trkpt lat="43.1360421" lon="11.5646763"><ele>245.0</ele><time>2026-04-11T14:11:01.366Z</time></trkpt><trkpt lat="43.1360737" lon="11.5645392"><ele>245.0</ele><time>2026-04-11T14:11:02.366Z</time></trkpt><trkpt lat="43.1361343" lon="11.5644052"><ele>245.0</ele><time>2026-04-11T14:11:03.366Z</time></trkpt><trkpt lat="43.1362027" lon="11.5642697"><ele>245.0</ele><time>2026-04-11T14:11:04.367Z</time></trkpt><trkpt lat="43.1362644" lon="11.5641346"><ele>244.2</ele><time>2026-04-11T14:11:05.366Z</time></trkpt><trkpt lat="43.1363082" lon="11.5639926"><ele>243.4</ele><time>2026-04-11T14:11:06.366Z</time></trkpt><trkpt lat="43.1363317" lon="11.5638449"><ele>242.60000000000002</ele><time>2026-04-11T14:11:07.366Z</time></trkpt><trkpt lat="43.1363372" lon="11.5637002"><ele>241.8</ele><time>2026-04-11T14:11:08.367Z</time></trkpt><trkpt lat="43.1363258" lon="11.56356"><ele>241.0</ele><time>2026-04-11T14:11:09.366Z</time></trkpt><trkpt lat="43.1362984" lon="11.5634261"><ele>241.0</ele><time>2026-04-11T14:11:10.366Z</time></trkpt><trkpt lat="43.1362547" lon="11.5633052"><ele>241.00000000000003</ele><time>2026-04-11T14:11:11.367Z</time></trkpt><trkpt lat="43.1361939" lon="11.5631946"><ele>241.00000000000003</ele><time>2026-04-11T14:11:12.367Z</time></trkpt><trkpt lat="43.1361214" lon="11.5630939"><ele>241.0</ele><time>2026-04-11T14:11:13.366Z</time></trkpt><trkpt lat="43.1360397" lon="11.5629939"><ele>241.0</ele><time>2026-04-11T14:11:14.367Z</time></trkpt><trkpt lat="43.1359523" lon="11.5628868"><ele>243.0</ele><time>2026-04-11T14:11:15.366Z</time></trkpt><trkpt lat="43.1358652" lon="11.5627792"><ele>245.0</ele><time>2026-04-11T14:11:16.367Z</time></trkpt><trkpt lat="43.135776" lon="11.562672"><ele>247.0</ele><time>2026-04-11T14:11:17.367Z</time></trkpt><trkpt lat="43.1356847" lon="11.5625587"><ele>249.0</ele><time>2026-04-11T14:11:18.367Z</time></trkpt><trkpt lat="43.1355957" lon="11.5624414"><ele>245.0</ele><time>2026-04-11T14:11:19.366Z</time></trkpt><trkpt lat="43.1355085" lon="11.562322"><ele>241.0</ele><time>2026-04-11T14:11:20.366Z</time></trkpt><trkpt lat="43.1354266" lon="11.562191"><ele>237.0</ele><time>2026-04-11T14:11:21.367Z</time></trkpt><trkpt lat="43.1353436" lon="11.5620441"><ele>233.0</ele><time>2026-04-11T14:11:22.367Z</time></trkpt><trkpt lat="43.1352673" lon="11.5619022"><ele>233.0</ele><time>2026-04-11T14:11:23.366Z</time></trkpt><trkpt lat="43.1351899" lon="11.5617591"><ele>233.0</ele><time>2026-04-11T14:11:24.367Z</time></trkpt><trkpt lat="43.1351087" lon="11.5616093"><ele>233.0</ele><time>2026-04-11T14:11:25.366Z</time></trkpt><trkpt lat="43.1350284" lon="11.5614591"><ele>233.0</ele><time>2026-04-11T14:11:26.367Z</time></trkpt><trkpt lat="43.1349474" lon="11.5613019"><ele>227.75</ele><time>2026-04-11T14:11:27.366Z</time></trkpt><trkpt lat="43.1348657" lon="11.5611469"><ele>222.5</ele><time>2026-04-11T14:11:28.367Z</time></trkpt><trkpt lat="43.134783" lon="11.5609905"><ele>217.25</ele><time>2026-04-11T14:11:29.367Z</time></trkpt><trkpt lat="43.134702" lon="11.5608336"><ele>212.0</ele><time>2026-04-11T14:11:30.366Z</time></trkpt><trkpt lat="43.1346202" lon="11.5606756"><ele>212.0</ele><time>2026-04-11T14:11:31.366Z</time></trkpt><trkpt lat="43.1345391" lon="11.5605231"><ele>212.0</ele><time>2026-04-11T14:11:32.366Z</time></trkpt><trkpt lat="43.1344602" lon="11.5603793"><ele>212.0</ele><time>2026-04-11T14:11:33.366Z</time></trkpt><trkpt lat="43.1343848" lon="11.560242"><ele>212.0</ele><time>2026-04-11T14:11:34.366Z</time></trkpt><trkpt lat="43.1343109" lon="11.5601105"><ele>213.0</ele><time>2026-04-11T14:11:35.366Z</time></trkpt><trkpt lat="43.1342372" lon="11.5599808"><ele>214.0</ele><time>2026-04-11T14:11:36.366Z</time></trkpt><trkpt lat="43.1341686" lon="11.5598493"><ele>215.0</ele><time>2026-04-11T14:11:37.367Z</time></trkpt><trkpt lat="43.134106" lon="11.5597096"><ele>216.0</ele><time>2026-04-11T14:11:38.367Z</time></trkpt><trkpt lat="43.1340543" lon="11.5595577"><ele>212.0</ele><time>2026-04-11T14:11:39.367Z</time></trkpt><trkpt lat="43.1340179" lon="11.5593971"><ele>208.0</ele><time>2026-04-11T14:11:40.368Z</time></trkpt><trkpt lat="43.1339983" lon="11.5592318"><ele>204.0</ele><time>2026-04-11T14:11:41.367Z</time></trkpt><trkpt lat="43.133992" lon="11.5590601"><ele>200.0</ele><time>2026-04-11T14:11:42.368Z</time></trkpt><trkpt lat="43.1339898" lon="11.5588866"><ele>200.0</ele><time>2026-04-11T14:11:43.367Z</time></trkpt><trkpt lat="43.1339946" lon="11.5587021"><ele>200.0</ele><time>2026-04-11T14:11:44.367Z</time></trkpt><trkpt lat="43.1340023" lon="11.5585244"><ele>200.0</ele><time>2026-04-11T14:11:45.367Z</time></trkpt><trkpt lat="43.1340085" lon="11.5583488"><ele>200.0</ele><time>2026-04-11T14:11:46.368Z</time></trkpt><trkpt lat="43.1340111" lon="11.5581673"><ele>200.0</ele><time>2026-04-11T14:11:47.367Z</time></trkpt><trkpt lat="43.1340048" lon="11.5579852"><ele>200.0</ele><time>2026-04-11T14:11:48.367Z</time></trkpt><trkpt lat="43.1339898" lon="11.5577979"><ele>200.0</ele><time>2026-04-11T14:11:49.367Z</time></trkpt><trkpt lat="43.1339692" lon="11.5576061"><ele>200.0</ele><time>2026-04-11T14:11:50.367Z</time></trkpt><trkpt lat="43.1339435" lon="11.5574125"><ele>200.0</ele><time>2026-04-11T14:11:51.367Z</time></trkpt><trkpt lat="43.1339163" lon="11.5572247"><ele>200.0</ele><time>2026-04-11T14:11:52.368Z</time></trkpt><trkpt lat="43.1338871" lon="11.5570229"><ele>200.0</ele><time>2026-04-11T14:11:53.368Z</time></trkpt><trkpt lat="43.1338525" lon="11.5568159"><ele>200.0</ele><time>2026-04-11T14:11:54.367Z</time></trkpt><trkpt lat="43.1338161" lon="11.5566183"><ele>201.25</ele><time>2026-04-11T14:11:55.368Z</time></trkpt><trkpt lat="43.1337799" lon="11.5564306"><ele>202.5</ele><time>2026-04-11T14:11:56.367Z</time></trkpt><trkpt lat="43.1337398" lon="11.5562749"><ele>203.75</ele><time>2026-04-11T14:11:57.368Z</time></trkpt><trkpt lat="43.1336948" lon="11.5561457"><ele>205.0</ele><time>2026-04-11T14:11:58.367Z</time></trkpt><trkpt lat="43.1336459" lon="11.5560348"><ele>207.0</ele><time>2026-04-11T14:11:59.368Z</time></trkpt><trkpt lat="43.1335793" lon="11.5559607"><ele>209.0</ele><time>2026-04-11T14:12:00.367Z</time></trkpt><trkpt lat="43.1334985" lon="11.5559005"><ele>211.0</ele><time>2026-04-11T14:12:01.368Z</time></trkpt><trkpt lat="43.133411" lon="11.5558624"><ele>213.0</ele><time>2026-04-11T14:12:02.368Z</time></trkpt><trkpt lat="43.1333183" lon="11.5558488"><ele>215.0</ele><time>2026-04-11T14:12:03.367Z</time></trkpt><trkpt lat="43.1332222" lon="11.5558663"><ele>220.0</ele><time>2026-04-11T14:12:04.368Z</time></trkpt><trkpt lat="43.1331244" lon="11.5559105"><ele>225.0</ele><time>2026-04-11T14:12:05.367Z</time></trkpt><trkpt lat="43.1330271" lon="11.5559809"><ele>230.0</ele><time>2026-04-11T14:12:06.367Z</time></trkpt><trkpt lat="43.1329325" lon="11.5560763"><ele>235.0</ele><time>2026-04-11T14:12:07.368Z</time></trkpt><trkpt lat="43.1328417" lon="11.5561916"><ele>230.75</ele><time>2026-04-11T14:12:08.367Z</time></trkpt><trkpt lat="43.132748" lon="11.5563211"><ele>226.5</ele><time>2026-04-11T14:12:09.367Z</time></trkpt><trkpt lat="43.1326507" lon="11.5564591"><ele>222.25</ele><time>2026-04-11T14:12:10.367Z</time></trkpt><trkpt lat="43.1325493" lon="11.5566044"><ele>218.0</ele><time>2026-04-11T14:12:11.368Z</time></trkpt><trkpt lat="43.1324514" lon="11.5567446"><ele>217.0</ele><time>2026-04-11T14:12:12.368Z</time></trkpt><trkpt lat="43.1323516" lon="11.5568683"><ele>216.0</ele><time>2026-04-11T14:12:13.368Z</time></trkpt><trkpt lat="43.1322483" lon="11.5569885"><ele>215.0</ele><time>2026-04-11T14:12:14.367Z</time></trkpt><trkpt lat="43.1321306" lon="11.5570751"><ele>214.0</ele><time>2026-04-11T14:12:15.368Z</time></trkpt><trkpt lat="43.1320034" lon="11.5571479"><ele>214.0</ele><time>2026-04-11T14:12:16.368Z</time></trkpt><trkpt lat="43.1318741" lon="11.5572097"><ele>214.0</ele><time>2026-04-11T14:12:17.367Z</time></trkpt><trkpt lat="43.1317406" lon="11.5572739"><ele>214.0</ele><time>2026-04-11T14:12:18.367Z</time></trkpt><trkpt lat="43.1316143" lon="11.5573256"><ele>214.0</ele><time>2026-04-11T14:12:19.368Z</time></trkpt><trkpt lat="43.1314995" lon="11.557361"><ele>213.66666666666666</ele><time>2026-04-11T14:12:20.368Z</time></trkpt><trkpt lat="43.1313944" lon="11.5573695"><ele>213.33333333333331</ele><time>2026-04-11T14:12:21.367Z</time></trkpt><trkpt lat="43.1312941" lon="11.5573669"><ele>213.0</ele><time>2026-04-11T14:12:22.367Z</time></trkpt><trkpt lat="43.1312137" lon="11.5573254"><ele>212.66666666666669</ele><time>2026-04-11T14:12:23.368Z</time></trkpt><trkpt lat="43.1311523" lon="11.557255"><ele>212.33333333333334</ele><time>2026-04-11T14:12:24.368Z</time></trkpt><trkpt lat="43.1311109" lon="11.5571749"><ele>212.0</ele><time>2026-04-11T14:12:25.368Z</time></trkpt><trkpt lat="43.1310713" lon="11.5570829"><ele>215.00000000000003</ele><time>2026-04-11T14:12:26.368Z</time></trkpt><trkpt lat="43.1310413" lon="11.5569873"><ele>218.0</ele><time>2026-04-11T14:12:27.368Z</time></trkpt><trkpt lat="43.1310415" lon="11.5568839"><ele>221.0</ele><time>2026-04-11T14:12:28.368Z</time></trkpt><trkpt lat="43.1310513" lon="11.5567788"><ele>224.0</ele><time>2026-04-11T14:12:29.368Z</time></trkpt><trkpt lat="43.1310761" lon="11.5566814"><ele>227.00000000000003</ele><time>2026-04-11T14:12:30.368Z</time></trkpt><trkpt lat="43.1311165" lon="11.5565895"><ele>230.0</ele><time>2026-04-11T14:12:31.368Z</time></trkpt><trkpt lat="43.1311866" lon="11.5565146"><ele>230.0</ele><time>2026-04-11T14:12:32.368Z</time></trkpt><trkpt lat="43.1312663" lon="11.5564587"><ele>230.0</ele><time>2026-04-11T14:12:33.367Z</time></trkpt><trkpt lat="43.1313744" lon="11.5564087"><ele>230.0</ele><time>2026-04-11T14:12:34.367Z</time></trkpt><trkpt lat="43.1314691" lon="11.5563454"><ele>230.0</ele><time>2026-04-11T14:12:35.367Z</time></trkpt><trkpt lat="43.131565" lon="11.556266"><ele>230.0</ele><time>2026-04-11T14:12:36.368Z</time></trkpt><trkpt lat="43.1316785" lon="11.5561741"><ele>234.33333333333334</ele><time>2026-04-11T14:12:37.367Z</time></trkpt><trkpt lat="43.1319183" lon="11.5559585"><ele>238.66666666666669</ele><time>2026-04-11T14:12:39.367Z</time></trkpt><trkpt lat="43.1320149" lon="11.555867"><ele>243.0</ele><time>2026-04-11T14:12:40.368Z</time></trkpt><trkpt lat="43.1321049" lon="11.5557783"><ele>243.0</ele><time>2026-04-11T14:12:41.367Z</time></trkpt><trkpt lat="43.1321842" lon="11.5556951"><ele>243.0</ele><time>2026-04-11T14:12:42.367Z</time></trkpt><trkpt lat="43.1322614" lon="11.5556176"><ele>243.0</ele><time>2026-04-11T14:12:43.368Z</time></trkpt><trkpt lat="43.1323366" lon="11.5555414"><ele>243.0</ele><time>2026-04-11T14:12:44.369Z</time></trkpt><trkpt lat="43.1324126" lon="11.5554635"><ele>243.0</ele><time>2026-04-11T14:12:45.368Z</time></trkpt><trkpt lat="43.132486" lon="11.5553829"><ele>243.60000000000002</ele><time>2026-04-11T14:12:46.368Z</time></trkpt><trkpt lat="43.1325611" lon="11.5553073"><ele>244.20000000000002</ele><time>2026-04-11T14:12:47.368Z</time></trkpt><trkpt lat="43.132636" lon="11.5552357"><ele>244.8</ele><time>2026-04-11T14:12:48.368Z</time></trkpt><trkpt lat="43.1327062" lon="11.5551551"><ele>245.4</ele><time>2026-04-11T14:12:49.368Z</time></trkpt><trkpt lat="43.1327674" lon="11.5550619"><ele>246.0</ele><time>2026-04-11T14:12:50.369Z</time></trkpt><trkpt lat="43.132815" lon="11.5549565"><ele>246.0</ele><time>2026-04-11T14:12:51.369Z</time></trkpt><trkpt lat="43.1328431" lon="11.5548406"><ele>246.0</ele><time>2026-04-11T14:12:52.368Z</time></trkpt><trkpt lat="43.1328457" lon="11.554727"><ele>246.0</ele><time>2026-04-11T14:12:53.369Z</time></trkpt><trkpt lat="43.1328294" lon="11.5546184"><ele>246.0</ele><time>2026-04-11T14:12:54.369Z</time></trkpt><trkpt lat="43.1327981" lon="11.5545151"><ele>246.0</ele><time>2026-04-11T14:12:55.369Z</time></trkpt><trkpt lat="43.1327557" lon="11.5544158"><ele>246.0</ele><time>2026-04-11T14:12:56.369Z</time></trkpt><trkpt lat="43.1327015" lon="11.5543246"><ele>246.66666666666666</ele><time>2026-04-11T14:12:57.369Z</time></trkpt><trkpt lat="43.1326402" lon="11.5542409"><ele>247.33333333333331</ele><time>2026-04-11T14:12:58.368Z</time></trkpt><trkpt lat="43.1325765" lon="11.5541691"><ele>248.0</ele><time>2026-04-11T14:12:59.369Z</time></trkpt><trkpt lat="43.1325146" lon="11.5541127"><ele>248.66666666666666</ele><time>2026-04-11T14:13:00.368Z</time></trkpt><trkpt lat="43.132448" lon="11.5540763"><ele>249.33333333333331</ele><time>2026-04-11T14:13:01.369Z</time></trkpt><trkpt lat="43.1323768" lon="11.5540648"><ele>250.0</ele><time>2026-04-11T14:13:02.368Z</time></trkpt><trkpt lat="43.1323009" lon="11.5540764"><ele>253.2</ele><time>2026-04-11T14:13:03.368Z</time></trkpt><trkpt lat="43.1322191" lon="11.5541129"><ele>256.4</ele><time>2026-04-11T14:13:04.369Z</time></trkpt><trkpt lat="43.1321359" lon="11.554176"><ele>259.6</ele><time>2026-04-11T14:13:05.369Z</time></trkpt><trkpt lat="43.1320556" lon="11.5542653"><ele>262.8</ele><time>2026-04-11T14:13:06.368Z</time></trkpt><trkpt lat="43.1319772" lon="11.5543732"><ele>266.0</ele><time>2026-04-11T14:13:07.368Z</time></trkpt><trkpt lat="43.131895" lon="11.554494"><ele>265.0</ele><time>2026-04-11T14:13:08.369Z</time></trkpt><trkpt lat="43.1318062" lon="11.5546252"><ele>264.0</ele><time>2026-04-11T14:13:09.368Z</time></trkpt><trkpt lat="43.1317095" lon="11.5547615"><ele>263.0</ele><time>2026-04-11T14:13:10.369Z</time></trkpt><trkpt lat="43.1316114" lon="11.5548882"><ele>262.0</ele><time>2026-04-11T14:13:11.368Z</time></trkpt><trkpt lat="43.1315152" lon="11.5549929"><ele>262.0</ele><time>2026-04-11T14:13:12.368Z</time></trkpt><trkpt lat="43.1314238" lon="11.5550751"><ele>262.0</ele><time>2026-04-11T14:13:13.368Z</time></trkpt><trkpt lat="43.1313302" lon="11.5551359"><ele>262.0</ele><time>2026-04-11T14:13:14.369Z</time></trkpt><trkpt lat="43.1312348" lon="11.5551678"><ele>262.0</ele><time>2026-04-11T14:13:15.368Z</time></trkpt><trkpt lat="43.1311444" lon="11.5551684"><ele>262.0</ele><time>2026-04-11T14:13:16.368Z</time></trkpt><trkpt lat="43.1310587" lon="11.5551427"><ele>262.0</ele><time>2026-04-11T14:13:17.369Z</time></trkpt><trkpt lat="43.1309783" lon="11.5550935"><ele>262.0</ele><time>2026-04-11T14:13:18.368Z</time></trkpt><trkpt lat="43.1309055" lon="11.5550242"><ele>262.0</ele><time>2026-04-11T14:13:19.368Z</time></trkpt><trkpt lat="43.1308382" lon="11.5549366"><ele>262.0</ele><time>2026-04-11T14:13:20.368Z</time></trkpt><trkpt lat="43.1307771" lon="11.5548377"><ele>262.0</ele><time>2026-04-11T14:13:21.368Z</time></trkpt><trkpt lat="43.1307151" lon="11.5547374"><ele>262.8</ele><time>2026-04-11T14:13:22.368Z</time></trkpt><trkpt lat="43.1306457" lon="11.5546449"><ele>263.6</ele><time>2026-04-11T14:13:23.369Z</time></trkpt><trkpt lat="43.1305682" lon="11.554564"><ele>264.40000000000003</ele><time>2026-04-11T14:13:24.368Z</time></trkpt><trkpt lat="43.1304864" lon="11.5544933"><ele>265.2</ele><time>2026-04-11T14:13:25.368Z</time></trkpt><trkpt lat="43.1304015" lon="11.5544237"><ele>266.0</ele><time>2026-04-11T14:13:26.368Z</time></trkpt><trkpt lat="43.1303173" lon="11.554345"><ele>266.0</ele><time>2026-04-11T14:13:27.369Z</time></trkpt><trkpt lat="43.1302333" lon="11.5542538"><ele>266.0</ele><time>2026-04-11T14:13:28.368Z</time></trkpt><trkpt lat="43.1301491" lon="11.5541518"><ele>266.0</ele><time>2026-04-11T14:13:29.368Z</time></trkpt><trkpt lat="43.1300585" lon="11.5540474"><ele>266.0</ele><time>2026-04-11T14:13:30.368Z</time></trkpt><trkpt lat="43.1299562" lon="11.5539516"><ele>266.2</ele><time>2026-04-11T14:13:31.369Z</time></trkpt><trkpt lat="43.1298468" lon="11.5538803"><ele>266.40000000000003</ele><time>2026-04-11T14:13:32.368Z</time></trkpt><trkpt lat="43.1297409" lon="11.5538396"><ele>266.6</ele><time>2026-04-11T14:13:33.369Z</time></trkpt><trkpt lat="43.1296417" lon="11.5538193"><ele>266.8</ele><time>2026-04-11T14:13:34.368Z</time></trkpt><trkpt lat="43.1295537" lon="11.5538058"><ele>267.0</ele><time>2026-04-11T14:13:35.369Z</time></trkpt><trkpt lat="43.1294751" lon="11.5537838"><ele>267.00000000000006</ele><time>2026-04-11T14:13:36.368Z</time></trkpt><trkpt lat="43.1294106" lon="11.5537422"><ele>267.0</ele><time>2026-04-11T14:13:37.368Z</time></trkpt><trkpt lat="43.1293617" lon="11.5536805"><ele>267.0</ele><time>2026-04-11T14:13:38.369Z</time></trkpt><trkpt lat="43.1293261" lon="11.553596"><ele>267.0</ele><time>2026-04-11T14:13:39.368Z</time></trkpt><trkpt lat="43.1293108" lon="11.5534971"><ele>267.0</ele><time>2026-04-11T14:13:40.368Z</time></trkpt><trkpt lat="43.1293201" lon="11.5533889"><ele>267.00000000000006</ele><time>2026-04-11T14:13:41.368Z</time></trkpt><trkpt lat="43.1293368" lon="11.553286"><ele>267.0</ele><time>2026-04-11T14:13:42.369Z</time></trkpt><trkpt lat="43.1293977" lon="11.5532007"><ele>269.2</ele><time>2026-04-11T14:13:43.369Z</time></trkpt><trkpt lat="43.1294748" lon="11.5531471"><ele>271.4</ele><time>2026-04-11T14:13:44.369Z</time></trkpt><trkpt lat="43.129565" lon="11.5531254"><ele>273.6</ele><time>2026-04-11T14:13:45.368Z</time></trkpt><trkpt lat="43.1296661" lon="11.55313"><ele>275.8</ele><time>2026-04-11T14:13:46.369Z</time></trkpt><trkpt lat="43.129777" lon="11.5531595"><ele>278.0</ele><time>2026-04-11T14:13:47.369Z</time></trkpt><trkpt lat="43.1298972" lon="11.5532003"><ele>278.0</ele><time>2026-04-11T14:13:48.37Z</time></trkpt><trkpt lat="43.1300253" lon="11.5532492"><ele>278.0</ele><time>2026-04-11T14:13:49.369Z</time></trkpt><trkpt lat="43.1301601" lon="11.5533025"><ele>278.0</ele><time>2026-04-11T14:13:50.369Z</time></trkpt><trkpt lat="43.1302873" lon="11.5533493"><ele>278.0</ele><time>2026-04-11T14:13:51.37Z</time></trkpt><trkpt lat="43.1304087" lon="11.5533924"><ele>278.0</ele><time>2026-04-11T14:13:52.369Z</time></trkpt><trkpt lat="43.1305135" lon="11.5534164"><ele>278.0</ele><time>2026-04-11T14:13:53.369Z</time></trkpt><trkpt lat="43.1306229" lon="11.5534232"><ele>278.0</ele><time>2026-04-11T14:13:54.369Z</time></trkpt><trkpt lat="43.1307266" lon="11.5534052"><ele>278.0</ele><time>2026-04-11T14:13:55.37Z</time></trkpt><trkpt lat="43.1308243" lon="11.5533622"><ele>278.0</ele><time>2026-04-11T14:13:56.37Z</time></trkpt><trkpt lat="43.1309177" lon="11.5533087"><ele>279.0</ele><time>2026-04-11T14:13:57.369Z</time></trkpt><trkpt lat="43.1309915" lon="11.553218"><ele>280.0</ele><time>2026-04-11T14:13:58.37Z</time></trkpt><trkpt lat="43.1310499" lon="11.5531149"><ele>281.0</ele><time>2026-04-11T14:13:59.37Z</time></trkpt><trkpt lat="43.131089" lon="11.5529951"><ele>282.0</ele><time>2026-04-11T14:14:00.369Z</time></trkpt><trkpt lat="43.1311116" lon="11.5528609"><ele>283.0</ele><time>2026-04-11T14:14:01.37Z</time></trkpt><trkpt lat="43.1311157" lon="11.5527168"><ele>285.25</ele><time>2026-04-11T14:14:02.369Z</time></trkpt><trkpt lat="43.1311084" lon="11.552565"><ele>287.5</ele><time>2026-04-11T14:14:03.369Z</time></trkpt><trkpt lat="43.1310989" lon="11.5524082"><ele>289.75</ele><time>2026-04-11T14:14:04.37Z</time></trkpt><trkpt lat="43.13109" lon="11.5522481"><ele>292.0</ele><time>2026-04-11T14:14:05.37Z</time></trkpt><trkpt lat="43.1310938" lon="11.5520901"><ele>294.25</ele><time>2026-04-11T14:14:06.369Z</time></trkpt><trkpt lat="43.1311022" lon="11.5519335"><ele>296.5</ele><time>2026-04-11T14:14:07.369Z</time></trkpt><trkpt lat="43.1311306" lon="11.5517803"><ele>298.75</ele><time>2026-04-11T14:14:08.369Z</time></trkpt><trkpt lat="43.1311953" lon="11.5516279"><ele>301.0</ele><time>2026-04-11T14:14:09.369Z</time></trkpt><trkpt lat="43.1312759" lon="11.5514831"><ele>301.0</ele><time>2026-04-11T14:14:10.369Z</time></trkpt><trkpt lat="43.1313634" lon="11.5513386"><ele>301.0</ele><time>2026-04-11T14:14:11.37Z</time></trkpt><trkpt lat="43.1314479" lon="11.5511899"><ele>301.0</ele><time>2026-04-11T14:14:12.369Z</time></trkpt><trkpt lat="43.131533" lon="11.5510344"><ele>301.0</ele><time>2026-04-11T14:14:13.37Z</time></trkpt><trkpt lat="43.1316224" lon="11.5508722"><ele>300.25</ele><time>2026-04-11T14:14:14.37Z</time></trkpt><trkpt lat="43.1317118" lon="11.5507057"><ele>299.5</ele><time>2026-04-11T14:14:15.369Z</time></trkpt><trkpt lat="43.1318008" lon="11.5505398"><ele>298.75</ele><time>2026-04-11T14:14:16.369Z</time></trkpt><trkpt lat="43.131888" lon="11.5503772"><ele>298.0</ele><time>2026-04-11T14:14:17.37Z</time></trkpt><trkpt lat="43.131973" lon="11.5502176"><ele>300.25</ele><time>2026-04-11T14:14:18.369Z</time></trkpt><trkpt lat="43.1320567" lon="11.5500603"><ele>302.5</ele><time>2026-04-11T14:14:19.369Z</time></trkpt><trkpt lat="43.1321384" lon="11.5499065"><ele>304.75</ele><time>2026-04-11T14:14:20.37Z</time></trkpt><trkpt lat="43.1322203" lon="11.5497574"><ele>307.0</ele><time>2026-04-11T14:14:21.37Z</time></trkpt><trkpt lat="43.1323018" lon="11.5496153"><ele>307.5</ele><time>2026-04-11T14:14:22.37Z</time></trkpt><trkpt lat="43.1323903" lon="11.5494823"><ele>308.0</ele><time>2026-04-11T14:14:23.369Z</time></trkpt><trkpt lat="43.1324861" lon="11.5493576"><ele>308.5</ele><time>2026-04-11T14:14:24.37Z</time></trkpt><trkpt lat="43.1325832" lon="11.5492518"><ele>309.0</ele><time>2026-04-11T14:14:25.37Z</time></trkpt><trkpt lat="43.132687" lon="11.5491564"><ele>309.0</ele><time>2026-04-11T14:14:26.37Z</time></trkpt><trkpt lat="43.1327976" lon="11.5490717"><ele>309.0</ele><time>2026-04-11T14:14:27.37Z</time></trkpt><trkpt lat="43.1329152" lon="11.548988"><ele>309.0</ele><time>2026-04-11T14:14:28.37Z</time></trkpt><trkpt lat="43.133031" lon="11.5489071"><ele>309.0</ele><time>2026-04-11T14:14:29.37Z</time></trkpt><trkpt lat="43.1331364" lon="11.5488249"><ele>309.4</ele><time>2026-04-11T14:14:30.369Z</time></trkpt><trkpt lat="43.1332264" lon="11.5487402"><ele>309.79999999999995</ele><time>2026-04-11T14:14:31.369Z</time></trkpt><trkpt lat="43.1332997" lon="11.5486438"><ele>310.20000000000005</ele><time>2026-04-11T14:14:32.37Z</time></trkpt><trkpt lat="43.1333615" lon="11.5485295"><ele>310.6</ele><time>2026-04-11T14:14:33.369Z</time></trkpt><trkpt lat="43.1334076" lon="11.5484097"><ele>311.0</ele><time>2026-04-11T14:14:34.369Z</time></trkpt><trkpt lat="43.1334404" lon="11.5482851"><ele>311.0</ele><time>2026-04-11T14:14:35.37Z</time></trkpt><trkpt lat="43.1334594" lon="11.548156"><ele>311.0</ele><time>2026-04-11T14:14:36.369Z</time></trkpt><trkpt lat="43.1334617" lon="11.5480207"><ele>311.0</ele><time>2026-04-11T14:14:37.369Z</time></trkpt><trkpt lat="43.1334468" lon="11.547877"><ele>311.0</ele><time>2026-04-11T14:14:38.37Z</time></trkpt><trkpt lat="43.1334187" lon="11.5477255"><ele>311.0</ele><time>2026-04-11T14:14:39.37Z</time></trkpt><trkpt lat="43.1333839" lon="11.5475664"><ele>311.0</ele><time>2026-04-11T14:14:40.37Z</time></trkpt><trkpt lat="43.1333438" lon="11.5474008"><ele>311.0</ele><time>2026-04-11T14:14:41.37Z</time></trkpt><trkpt lat="43.1333023" lon="11.547232"><ele>311.0</ele><time>2026-04-11T14:14:42.37Z</time></trkpt><trkpt lat="43.1332623" lon="11.5470669"><ele>311.0</ele><time>2026-04-11T14:14:43.369Z</time></trkpt><trkpt lat="43.1332207" lon="11.5468987"><ele>307.0</ele><time>2026-04-11T14:14:44.369Z</time></trkpt><trkpt lat="43.1331809" lon="11.5467364"><ele>303.0</ele><time>2026-04-11T14:14:45.37Z</time></trkpt><trkpt lat="43.1331434" lon="11.5465755"><ele>299.0</ele><time>2026-04-11T14:14:46.37Z</time></trkpt><trkpt lat="43.1331069" lon="11.5464233"><ele>295.0</ele><time>2026-04-11T14:14:47.37Z</time></trkpt><trkpt lat="43.1330716" lon="11.5462771"><ele>295.0</ele><time>2026-04-11T14:14:48.37Z</time></trkpt><trkpt lat="43.1330374" lon="11.5461287"><ele>295.0</ele><time>2026-04-11T14:14:49.369Z</time></trkpt><trkpt lat="43.1330049" lon="11.5459739"><ele>295.0</ele><time>2026-04-11T14:14:50.37Z</time></trkpt><trkpt lat="43.1329681" lon="11.5458117"><ele>295.0</ele><time>2026-04-11T14:14:51.37Z</time></trkpt><trkpt lat="43.1329283" lon="11.5456433"><ele>295.0</ele><time>2026-04-11T14:14:52.371Z</time></trkpt><trkpt lat="43.1328877" lon="11.5454677"><ele>295.0</ele><time>2026-04-11T14:14:53.371Z</time></trkpt><trkpt lat="43.132845" lon="11.5452852"><ele>295.0</ele><time>2026-04-11T14:14:54.371Z</time></trkpt><trkpt lat="43.1328026" lon="11.5451021"><ele>295.0</ele><time>2026-04-11T14:14:55.37Z</time></trkpt><trkpt lat="43.1327619" lon="11.5449247"><ele>295.75</ele><time>2026-04-11T14:14:56.371Z</time></trkpt><trkpt lat="43.1327199" lon="11.5447474"><ele>296.5</ele><time>2026-04-11T14:14:57.37Z</time></trkpt><trkpt lat="43.1326757" lon="11.5445677"><ele>297.25</ele><time>2026-04-11T14:14:58.371Z</time></trkpt><trkpt lat="43.1326294" lon="11.5443854"><ele>298.0</ele><time>2026-04-11T14:14:59.371Z</time></trkpt><trkpt lat="43.1325813" lon="11.5442032"><ele>299.0</ele><time>2026-04-11T14:15:00.371Z</time></trkpt><trkpt lat="43.1325315" lon="11.544024"><ele>300.0</ele><time>2026-04-11T14:15:01.37Z</time></trkpt><trkpt lat="43.1324767" lon="11.5438497"><ele>301.0</ele><time>2026-04-11T14:15:02.371Z</time></trkpt><trkpt lat="43.1324179" lon="11.5436809"><ele>302.0</ele><time>2026-04-11T14:15:03.371Z</time></trkpt><trkpt lat="43.1323556" lon="11.543513"><ele>302.0</ele><time>2026-04-11T14:15:04.37Z</time></trkpt><trkpt lat="43.1322907" lon="11.5433424"><ele>302.0</ele><time>2026-04-11T14:15:05.371Z</time></trkpt><trkpt lat="43.1322278" lon="11.543181"><ele>302.0</ele><time>2026-04-11T14:15:06.37Z</time></trkpt><trkpt lat="43.132168" lon="11.54303"><ele>302.0</ele><time>2026-04-11T14:15:07.371Z</time></trkpt><trkpt lat="43.1321111" lon="11.5428847"><ele>302.5</ele><time>2026-04-11T14:15:08.371Z</time></trkpt><trkpt lat="43.1320553" lon="11.5427454"><ele>303.0</ele><time>2026-04-11T14:15:09.37Z</time></trkpt><trkpt lat="43.1319984" lon="11.5426134"><ele>303.5</ele><time>2026-04-11T14:15:10.371Z</time></trkpt><trkpt lat="43.1319394" lon="11.542476"><ele>304.0</ele><time>2026-04-11T14:15:11.371Z</time></trkpt><trkpt lat="43.1318849" lon="11.5423303"><ele>304.0</ele><time>2026-04-11T14:15:12.37Z</time></trkpt><trkpt lat="43.131845" lon="11.5421765"><ele>304.0</ele><time>2026-04-11T14:15:13.371Z</time></trkpt><trkpt lat="43.1318246" lon="11.5420114"><ele>304.0</ele><time>2026-04-11T14:15:14.371Z</time></trkpt><trkpt lat="43.1318251" lon="11.5418366"><ele>304.0</ele><time>2026-04-11T14:15:15.371Z</time></trkpt><trkpt lat="43.1318457" lon="11.541659"><ele>304.25</ele><time>2026-04-11T14:15:16.371Z</time></trkpt><trkpt lat="43.1318763" lon="11.541477"><ele>304.5</ele><time>2026-04-11T14:15:17.37Z</time></trkpt><trkpt lat="43.1319047" lon="11.5412921"><ele>304.75</ele><time>2026-04-11T14:15:18.37Z</time></trkpt><trkpt lat="43.1319281" lon="11.5411014"><ele>305.0</ele><time>2026-04-11T14:15:19.37Z</time></trkpt><trkpt lat="43.1319538" lon="11.5409085"><ele>305.25</ele><time>2026-04-11T14:15:20.37Z</time></trkpt><trkpt lat="43.1319863" lon="11.5407144"><ele>305.5</ele><time>2026-04-11T14:15:21.37Z</time></trkpt><trkpt lat="43.1320292" lon="11.5405226"><ele>305.75</ele><time>2026-04-11T14:15:22.371Z</time></trkpt><trkpt lat="43.1320789" lon="11.5403327"><ele>306.0</ele><time>2026-04-11T14:15:23.37Z</time></trkpt><trkpt lat="43.1321253" lon="11.5401462"><ele>306.0</ele><time>2026-04-11T14:15:24.371Z</time></trkpt><trkpt lat="43.1321598" lon="11.5399635"><ele>306.0</ele><time>2026-04-11T14:15:25.371Z</time></trkpt><trkpt lat="43.1321833" lon="11.5397803"><ele>306.0</ele><time>2026-04-11T14:15:26.37Z</time></trkpt><trkpt lat="43.1321937" lon="11.5395952"><ele>306.0</ele><time>2026-04-11T14:15:27.37Z</time></trkpt><trkpt lat="43.1321947" lon="11.5394111"><ele>304.75</ele><time>2026-04-11T14:15:28.371Z</time></trkpt><trkpt lat="43.1321958" lon="11.5392269"><ele>303.5</ele><time>2026-04-11T14:15:29.371Z</time></trkpt><trkpt lat="43.1322045" lon="11.5390399"><ele>302.25</ele><time>2026-04-11T14:15:30.371Z</time></trkpt><trkpt lat="43.1322207" lon="11.5388493"><ele>301.0</ele><time>2026-04-11T14:15:31.371Z</time></trkpt><trkpt lat="43.1322422" lon="11.5386602"><ele>299.0</ele><time>2026-04-11T14:15:32.37Z</time></trkpt><trkpt lat="43.1322707" lon="11.5384768"><ele>297.0</ele><time>2026-04-11T14:15:33.371Z</time></trkpt><trkpt lat="43.1323091" lon="11.5382964"><ele>295.0</ele><time>2026-04-11T14:15:34.37Z</time></trkpt><trkpt lat="43.1323567" lon="11.5381114"><ele>293.0</ele><time>2026-04-11T14:15:35.371Z</time></trkpt><trkpt lat="43.1324116" lon="11.5379253"><ele>290.5</ele><time>2026-04-11T14:15:36.371Z</time></trkpt><trkpt lat="43.1324693" lon="11.5377388"><ele>288.0</ele><time>2026-04-11T14:15:37.37Z</time></trkpt><trkpt lat="43.1325261" lon="11.5375545"><ele>285.5</ele><time>2026-04-11T14:15:38.37Z</time></trkpt><trkpt lat="43.1325877" lon="11.5373837"><ele>283.0</ele><time>2026-04-11T14:15:39.37Z</time></trkpt><trkpt lat="43.1326584" lon="11.5372192"><ele>283.0</ele><time>2026-04-11T14:15:40.371Z</time></trkpt><trkpt lat="43.1327364" lon="11.537069"><ele>283.0</ele><time>2026-04-11T14:15:41.371Z</time></trkpt><trkpt lat="43.1328267" lon="11.5369261"><ele>283.0</ele><time>2026-04-11T14:15:42.371Z</time></trkpt><trkpt lat="43.1329256" lon="11.536784"><ele>283.0</ele><time>2026-04-11T14:15:43.371Z</time></trkpt><trkpt lat="43.1330307" lon="11.5366402"><ele>281.25</ele><time>2026-04-11T14:15:44.37Z</time></trkpt><trkpt lat="43.1331343" lon="11.536498"><ele>279.5</ele><time>2026-04-11T14:15:45.37Z</time></trkpt><trkpt lat="43.1332329" lon="11.536357"><ele>277.75</ele><time>2026-04-11T14:15:46.37Z</time></trkpt><trkpt lat="43.1333251" lon="11.5362157"><ele>276.0</ele><time>2026-04-11T14:15:47.37Z</time></trkpt><trkpt lat="43.1334146" lon="11.5360671"><ele>275.25</ele><time>2026-04-11T14:15:48.371Z</time></trkpt><trkpt lat="43.1335004" lon="11.5359098"><ele>274.5</ele><time>2026-04-11T14:15:49.37Z</time></trkpt><trkpt lat="43.1335817" lon="11.5357449"><ele>273.75</ele><time>2026-04-11T14:15:50.371Z</time></trkpt><trkpt lat="43.1336623" lon="11.5355724"><ele>273.0</ele><time>2026-04-11T14:15:51.37Z</time></trkpt><trkpt lat="43.1337418" lon="11.535396"><ele>270.0</ele><time>2026-04-11T14:15:52.371Z</time></trkpt><trkpt lat="43.1338194" lon="11.5352172"><ele>267.0</ele><time>2026-04-11T14:15:53.37Z</time></trkpt><trkpt lat="43.1338982" lon="11.5350385"><ele>264.0</ele><time>2026-04-11T14:15:54.371Z</time></trkpt><trkpt lat="43.1339717" lon="11.5348626"><ele>264.0</ele><time>2026-04-11T14:15:55.371Z</time></trkpt><trkpt lat="43.1340445" lon="11.5346949"><ele>264.0</ele><time>2026-04-11T14:15:56.371Z</time></trkpt><trkpt lat="43.1341187" lon="11.5345317"><ele>264.0</ele><time>2026-04-11T14:15:57.372Z</time></trkpt><trkpt lat="43.1341881" lon="11.5343723"><ele>264.0</ele><time>2026-04-11T14:15:58.372Z</time></trkpt><trkpt lat="43.1342541" lon="11.5342116"><ele>264.0</ele><time>2026-04-11T14:15:59.372Z</time></trkpt><trkpt lat="43.1343179" lon="11.5340537"><ele>264.0</ele><time>2026-04-11T14:16:00.371Z</time></trkpt><trkpt lat="43.1343757" lon="11.533898"><ele>264.0</ele><time>2026-04-11T14:16:01.372Z</time></trkpt><trkpt lat="43.1344342" lon="11.533731"><ele>264.0</ele><time>2026-04-11T14:16:02.372Z</time></trkpt><trkpt lat="43.13449" lon="11.533561"><ele>264.0</ele><time>2026-04-11T14:16:03.372Z</time></trkpt><trkpt lat="43.1345446" lon="11.533387"><ele>264.0</ele><time>2026-04-11T14:16:04.371Z</time></trkpt><trkpt lat="43.1345995" lon="11.5332093"><ele>264.0</ele><time>2026-04-11T14:16:05.371Z</time></trkpt><trkpt lat="43.1346526" lon="11.5330353"><ele>264.0</ele><time>2026-04-11T14:16:06.372Z</time></trkpt><trkpt lat="43.1347034" lon="11.5328632"><ele>263.75</ele><time>2026-04-11T14:16:07.372Z</time></trkpt><trkpt lat="43.1347511" lon="11.5326897"><ele>263.5</ele><time>2026-04-11T14:16:08.371Z</time></trkpt><trkpt lat="43.1347941" lon="11.5325174"><ele>263.25</ele><time>2026-04-11T14:16:09.372Z</time></trkpt><trkpt lat="43.1348315" lon="11.5323493"><ele>263.0</ele><time>2026-04-11T14:16:10.372Z</time></trkpt><trkpt lat="43.134865" lon="11.5321779"><ele>265.0</ele><time>2026-04-11T14:16:11.372Z</time></trkpt><trkpt lat="43.1348976" lon="11.5319958"><ele>267.0</ele><time>2026-04-11T14:16:12.371Z</time></trkpt><trkpt lat="43.1349332" lon="11.531803"><ele>269.0</ele><time>2026-04-11T14:16:13.371Z</time></trkpt><trkpt lat="43.134968" lon="11.5316049"><ele>271.0</ele><time>2026-04-11T14:16:14.372Z</time></trkpt><trkpt lat="43.1350013" lon="11.5314018"><ele>272.0</ele><time>2026-04-11T14:16:15.372Z</time></trkpt><trkpt lat="43.1350281" lon="11.5311949"><ele>273.0</ele><time>2026-04-11T14:16:16.371Z</time></trkpt><trkpt lat="43.1350487" lon="11.530995"><ele>274.0</ele><time>2026-04-11T14:16:17.371Z</time></trkpt><trkpt lat="43.1350634" lon="11.5308201"><ele>275.0</ele><time>2026-04-11T14:16:18.372Z</time></trkpt><trkpt lat="43.1350668" lon="11.530671"><ele>275.0</ele><time>2026-04-11T14:16:19.372Z</time></trkpt><trkpt lat="43.1350504" lon="11.5305408"><ele>275.0</ele><time>2026-04-11T14:16:20.371Z</time></trkpt><trkpt lat="43.1350044" lon="11.5303701"><ele>275.0</ele><time>2026-04-11T14:16:21.372Z</time></trkpt><trkpt lat="43.1349411" lon="11.5301823"><ele>275.0</ele><time>2026-04-11T14:16:22.372Z</time></trkpt><trkpt lat="43.1348606" lon="11.5299622"><ele>270.6666666666667</ele><time>2026-04-11T14:16:23.371Z</time></trkpt><trkpt lat="43.1347708" lon="11.5297269"><ele>266.3333333333333</ele><time>2026-04-11T14:16:24.372Z</time></trkpt><trkpt lat="43.1346823" lon="11.5294844"><ele>262.0</ele><time>2026-04-11T14:16:25.372Z</time></trkpt><trkpt lat="43.1346041" lon="11.5292638"><ele>262.0</ele><time>2026-04-11T14:16:26.372Z</time></trkpt><trkpt lat="43.1345333" lon="11.5290702"><ele>262.0</ele><time>2026-04-11T14:16:27.372Z</time></trkpt><trkpt lat="43.1344696" lon="11.5288929"><ele>262.0</ele><time>2026-04-11T14:16:28.371Z</time></trkpt><trkpt lat="43.13441" lon="11.528725"><ele>262.0</ele><time>2026-04-11T14:16:29.372Z</time></trkpt><trkpt lat="43.1343542" lon="11.5285584"><ele>262.25</ele><time>2026-04-11T14:16:30.372Z</time></trkpt><trkpt lat="43.1343096" lon="11.5283875"><ele>262.5</ele><time>2026-04-11T14:16:31.371Z</time></trkpt><trkpt lat="43.1342884" lon="11.5282085"><ele>262.75</ele><time>2026-04-11T14:16:32.372Z</time></trkpt><trkpt lat="43.1342966" lon="11.5279927"><ele>263.0</ele><time>2026-04-11T14:16:33.371Z</time></trkpt><trkpt lat="43.1343328" lon="11.5277572"><ele>262.0</ele><time>2026-04-11T14:16:34.371Z</time></trkpt><trkpt lat="43.1343652" lon="11.5275032"><ele>261.0</ele><time>2026-04-11T14:16:35.371Z</time></trkpt><trkpt lat="43.1343905" lon="11.5272625"><ele>260.0</ele><time>2026-04-11T14:16:36.371Z</time></trkpt><trkpt lat="43.1344385" lon="11.5267809"><ele>258.0</ele><time>2026-04-11T14:16:38.372Z</time></trkpt><trkpt lat="43.1344602" lon="11.5265527"><ele>256.0</ele><time>2026-04-11T14:16:39.371Z</time></trkpt><trkpt lat="43.1344805" lon="11.5263257"><ele>254.0</ele><time>2026-04-11T14:16:40.371Z</time></trkpt><trkpt lat="43.1345077" lon="11.526114"><ele>252.66666666666669</ele><time>2026-04-11T14:16:41.371Z</time></trkpt><trkpt lat="43.134549" lon="11.5259118"><ele>251.33333333333331</ele><time>2026-04-11T14:16:42.372Z</time></trkpt><trkpt lat="43.1346193" lon="11.5257135"><ele>250.0</ele><time>2026-04-11T14:16:43.371Z</time></trkpt><trkpt lat="43.1347044" lon="11.5255149"><ele>249.66666666666666</ele><time>2026-04-11T14:16:44.372Z</time></trkpt><trkpt lat="43.134789" lon="11.5253109"><ele>249.33333333333331</ele><time>2026-04-11T14:16:45.372Z</time></trkpt><trkpt lat="43.1348573" lon="11.5251082"><ele>249.0</ele><time>2026-04-11T14:16:46.371Z</time></trkpt><trkpt lat="43.1349173" lon="11.5249122"><ele>249.75</ele><time>2026-04-11T14:16:47.372Z</time></trkpt><trkpt lat="43.1349714" lon="11.5247259"><ele>250.5</ele><time>2026-04-11T14:16:48.372Z</time></trkpt><trkpt lat="43.1350136" lon="11.524546"><ele>251.25</ele><time>2026-04-11T14:16:49.372Z</time></trkpt><trkpt lat="43.1350394" lon="11.5243719"><ele>252.0</ele><time>2026-04-11T14:16:50.372Z</time></trkpt><trkpt lat="43.1350461" lon="11.5241955"><ele>252.0</ele><time>2026-04-11T14:16:51.371Z</time></trkpt><trkpt lat="43.135041" lon="11.524"><ele>252.0</ele><time>2026-04-11T14:16:52.372Z</time></trkpt><trkpt lat="43.1350313" lon="11.5237835"><ele>252.0</ele><time>2026-04-11T14:16:53.372Z</time></trkpt><trkpt lat="43.13502" lon="11.5235482"><ele>250.33333333333331</ele><time>2026-04-11T14:16:54.371Z</time></trkpt><trkpt lat="43.1350057" lon="11.5232961"><ele>248.66666666666666</ele><time>2026-04-11T14:16:55.371Z</time></trkpt><trkpt lat="43.1349897" lon="11.5230322"><ele>247.0</ele><time>2026-04-11T14:16:56.371Z</time></trkpt><trkpt lat="43.134975" lon="11.5227707"><ele>245.0</ele><time>2026-04-11T14:16:57.372Z</time></trkpt><trkpt lat="43.1349656" lon="11.5225095"><ele>243.0</ele><time>2026-04-11T14:16:58.372Z</time></trkpt><trkpt lat="43.1349666" lon="11.5222499"><ele>241.0</ele><time>2026-04-11T14:16:59.373Z</time></trkpt><trkpt lat="43.1349754" lon="11.5219938"><ele>239.66666666666666</ele><time>2026-04-11T14:17:00.372Z</time></trkpt><trkpt lat="43.134985" lon="11.5217435"><ele>238.33333333333331</ele><time>2026-04-11T14:17:01.372Z</time></trkpt><trkpt lat="43.1349923" lon="11.5215068"><ele>237.0</ele><time>2026-04-11T14:17:02.373Z</time></trkpt><trkpt lat="43.1349932" lon="11.521287"><ele>236.75</ele><time>2026-04-11T14:17:03.373Z</time></trkpt><trkpt lat="43.1349936" lon="11.521082"><ele>236.5</ele><time>2026-04-11T14:17:04.373Z</time></trkpt><trkpt lat="43.1349899" lon="11.520886"><ele>236.25</ele><time>2026-04-11T14:17:05.372Z</time></trkpt><trkpt lat="43.1349775" lon="11.5206864"><ele>236.0</ele><time>2026-04-11T14:17:06.373Z</time></trkpt><trkpt lat="43.1349546" lon="11.5204953"><ele>237.5</ele><time>2026-04-11T14:17:07.373Z</time></trkpt><trkpt lat="43.1349229" lon="11.5203032"><ele>239.0</ele><time>2026-04-11T14:17:08.373Z</time></trkpt><trkpt lat="43.1348856" lon="11.5201103"><ele>240.5</ele><time>2026-04-11T14:17:09.372Z</time></trkpt><trkpt lat="43.1348465" lon="11.5199274"><ele>242.0</ele><time>2026-04-11T14:17:10.372Z</time></trkpt><trkpt lat="43.1348055" lon="11.5197609"><ele>239.0</ele><time>2026-04-11T14:17:11.373Z</time></trkpt><trkpt lat="43.1347643" lon="11.5196019"><ele>236.0</ele><time>2026-04-11T14:17:12.373Z</time></trkpt><trkpt lat="43.1347263" lon="11.5194442"><ele>233.0</ele><time>2026-04-11T14:17:13.372Z</time></trkpt><trkpt lat="43.1346958" lon="11.5192811"><ele>230.0</ele><time>2026-04-11T14:17:14.373Z</time></trkpt><trkpt lat="43.1346737" lon="11.5191102"><ele>230.0</ele><time>2026-04-11T14:17:15.372Z</time></trkpt><trkpt lat="43.1346589" lon="11.5189354"><ele>230.0</ele><time>2026-04-11T14:17:16.372Z</time></trkpt><trkpt lat="43.1346494" lon="11.5187582"><ele>230.0</ele><time>2026-04-11T14:17:17.372Z</time></trkpt><trkpt lat="43.1346437" lon="11.5185771"><ele>230.0</ele><time>2026-04-11T14:17:18.373Z</time></trkpt><trkpt lat="43.1346399" lon="11.5183979"><ele>233.25</ele><time>2026-04-11T14:17:19.372Z</time></trkpt><trkpt lat="43.1346384" lon="11.5182188"><ele>236.5</ele><time>2026-04-11T14:17:20.372Z</time></trkpt><trkpt lat="43.13464" lon="11.5180518"><ele>239.75</ele><time>2026-04-11T14:17:21.372Z</time></trkpt><trkpt lat="43.1346492" lon="11.5178976"><ele>243.0</ele><time>2026-04-11T14:17:22.373Z</time></trkpt><trkpt lat="43.1346832" lon="11.5177656"><ele>244.25</ele><time>2026-04-11T14:17:23.372Z</time></trkpt><trkpt lat="43.134745" lon="11.517648"><ele>245.5</ele><time>2026-04-11T14:17:24.373Z</time></trkpt><trkpt lat="43.1348197" lon="11.5175245"><ele>246.75</ele><time>2026-04-11T14:17:25.373Z</time></trkpt><trkpt lat="43.1349129" lon="11.5174154"><ele>248.0</ele><time>2026-04-11T14:17:26.373Z</time></trkpt><trkpt lat="43.1350079" lon="11.5172922"><ele>246.0</ele><time>2026-04-11T14:17:27.372Z</time></trkpt><trkpt lat="43.1351036" lon="11.5171537"><ele>244.0</ele><time>2026-04-11T14:17:28.373Z</time></trkpt><trkpt lat="43.1351988" lon="11.5169981"><ele>242.0</ele><time>2026-04-11T14:17:29.372Z</time></trkpt><trkpt lat="43.1353013" lon="11.5168323"><ele>240.0</ele><time>2026-04-11T14:17:30.373Z</time></trkpt><trkpt lat="43.1354003" lon="11.5166721"><ele>240.0</ele><time>2026-04-11T14:17:31.372Z</time></trkpt><trkpt lat="43.1354904" lon="11.5165188"><ele>240.0</ele><time>2026-04-11T14:17:32.372Z</time></trkpt><trkpt lat="43.135573" lon="11.5163749"><ele>240.0</ele><time>2026-04-11T14:17:33.372Z</time></trkpt><trkpt lat="43.1356535" lon="11.5162419"><ele>240.0</ele><time>2026-04-11T14:17:34.373Z</time></trkpt><trkpt lat="43.1357374" lon="11.5161175"><ele>237.25</ele><time>2026-04-11T14:17:35.373Z</time></trkpt><trkpt lat="43.1358322" lon="11.5159976"><ele>234.5</ele><time>2026-04-11T14:17:36.372Z</time></trkpt><trkpt lat="43.1359374" lon="11.5158913"><ele>231.75</ele><time>2026-04-11T14:17:37.372Z</time></trkpt><trkpt lat="43.1360421" lon="11.5158033"><ele>229.0</ele><time>2026-04-11T14:17:38.373Z</time></trkpt><trkpt lat="43.1361391" lon="11.5157181"><ele>229.0</ele><time>2026-04-11T14:17:39.372Z</time></trkpt><trkpt lat="43.1362214" lon="11.5156214"><ele>229.0</ele><time>2026-04-11T14:17:40.372Z</time></trkpt><trkpt lat="43.1362855" lon="11.5154998"><ele>229.0</ele><time>2026-04-11T14:17:41.372Z</time></trkpt><trkpt lat="43.1363323" lon="11.5153569"><ele>229.0</ele><time>2026-04-11T14:17:42.372Z</time></trkpt><trkpt lat="43.1363573" lon="11.5151989"><ele>229.0</ele><time>2026-04-11T14:17:43.372Z</time></trkpt><trkpt lat="43.1363648" lon="11.515032"><ele>229.0</ele><time>2026-04-11T14:17:44.372Z</time></trkpt><trkpt lat="43.1363549" lon="11.5148595"><ele>229.0</ele><time>2026-04-11T14:17:45.372Z</time></trkpt><trkpt lat="43.1363361" lon="11.5146966"><ele>229.0</ele><time>2026-04-11T14:17:46.372Z</time></trkpt><trkpt lat="43.1363056" lon="11.514541"><ele>229.0</ele><time>2026-04-11T14:17:47.373Z</time></trkpt><trkpt lat="43.1362567" lon="11.514383"><ele>229.0</ele><time>2026-04-11T14:17:48.372Z</time></trkpt><trkpt lat="43.1361855" lon="11.5142416"><ele>229.0</ele><time>2026-04-11T14:17:49.372Z</time></trkpt><trkpt lat="43.1361037" lon="11.5141014"><ele>229.0</ele><time>2026-04-11T14:17:50.372Z</time></trkpt><trkpt lat="43.1359365" lon="11.5138189"><ele>227.25</ele><time>2026-04-11T14:17:52.372Z</time></trkpt><trkpt lat="43.1358642" lon="11.513676"><ele>225.5</ele><time>2026-04-11T14:17:53.373Z</time></trkpt><trkpt lat="43.1357898" lon="11.5135242"><ele>223.75</ele><time>2026-04-11T14:17:54.373Z</time></trkpt><trkpt lat="43.1357199" lon="11.5133738"><ele>222.0</ele><time>2026-04-11T14:17:55.372Z</time></trkpt><trkpt lat="43.1356519" lon="11.5132178"><ele>222.0</ele><time>2026-04-11T14:17:56.372Z</time></trkpt><trkpt lat="43.1355895" lon="11.5130475"><ele>222.0</ele><time>2026-04-11T14:17:57.372Z</time></trkpt><trkpt lat="43.1355325" lon="11.5128768"><ele>222.0</ele><time>2026-04-11T14:17:58.373Z</time></trkpt><trkpt lat="43.1354834" lon="11.512701"><ele>222.0</ele><time>2026-04-11T14:17:59.372Z</time></trkpt><trkpt lat="43.1354277" lon="11.5125227"><ele>223.25</ele><time>2026-04-11T14:18:00.372Z</time></trkpt><trkpt lat="43.1353612" lon="11.5123506"><ele>224.5</ele><time>2026-04-11T14:18:01.373Z</time></trkpt><trkpt lat="43.1352802" lon="11.5121859"><ele>225.75</ele><time>2026-04-11T14:18:02.374Z</time></trkpt><trkpt lat="43.1351911" lon="11.5120231"><ele>227.0</ele><time>2026-04-11T14:18:03.373Z</time></trkpt><trkpt lat="43.1350971" lon="11.5118604"><ele>228.0</ele><time>2026-04-11T14:18:04.374Z</time></trkpt><trkpt lat="43.135007" lon="11.5116954"><ele>229.0</ele><time>2026-04-11T14:18:05.373Z</time></trkpt><trkpt lat="43.1349235" lon="11.5115345"><ele>230.0</ele><time>2026-04-11T14:18:06.374Z</time></trkpt><trkpt lat="43.1348489" lon="11.5113834"><ele>231.0</ele><time>2026-04-11T14:18:07.374Z</time></trkpt><trkpt lat="43.1347812" lon="11.5112399"><ele>232.60000000000002</ele><time>2026-04-11T14:18:08.373Z</time></trkpt><trkpt lat="43.1347197" lon="11.5111058"><ele>234.20000000000002</ele><time>2026-04-11T14:18:09.374Z</time></trkpt><trkpt lat="43.1346656" lon="11.5109825"><ele>235.79999999999998</ele><time>2026-04-11T14:18:10.374Z</time></trkpt><trkpt lat="43.1346128" lon="11.5108604"><ele>237.39999999999998</ele><time>2026-04-11T14:18:11.374Z</time></trkpt><trkpt lat="43.1345565" lon="11.5107325"><ele>239.0</ele><time>2026-04-11T14:18:12.374Z</time></trkpt><trkpt lat="43.1344976" lon="11.5106024"><ele>239.0</ele><time>2026-04-11T14:18:13.374Z</time></trkpt><trkpt lat="43.1344348" lon="11.5104694"><ele>239.0</ele><time>2026-04-11T14:18:14.373Z</time></trkpt><trkpt lat="43.1343681" lon="11.5103308"><ele>239.0</ele><time>2026-04-11T14:18:15.373Z</time></trkpt><trkpt lat="43.1342968" lon="11.5101748"><ele>239.0</ele><time>2026-04-11T14:18:16.373Z</time></trkpt><trkpt lat="43.1342207" lon="11.5100193"><ele>237.5</ele><time>2026-04-11T14:18:17.374Z</time></trkpt><trkpt lat="43.134146" lon="11.5098467"><ele>236.0</ele><time>2026-04-11T14:18:18.374Z</time></trkpt><trkpt lat="43.1340724" lon="11.5096772"><ele>234.5</ele><time>2026-04-11T14:18:19.374Z</time></trkpt><trkpt lat="43.1339979" lon="11.5095137"><ele>233.0</ele><time>2026-04-11T14:18:20.374Z</time></trkpt><trkpt lat="43.1338413" lon="11.5091294"><ele>230.66666666666669</ele><time>2026-04-11T14:18:22.373Z</time></trkpt><trkpt lat="43.1337777" lon="11.5089228"><ele>228.33333333333331</ele><time>2026-04-11T14:18:23.373Z</time></trkpt><trkpt lat="43.1337228" lon="11.5087044"><ele>226.0</ele><time>2026-04-11T14:18:24.373Z</time></trkpt><trkpt lat="43.1336703" lon="11.508486"><ele>224.0</ele><time>2026-04-11T14:18:25.373Z</time></trkpt><trkpt lat="43.1336154" lon="11.5082587"><ele>222.0</ele><time>2026-04-11T14:18:26.374Z</time></trkpt><trkpt lat="43.1335654" lon="11.5080313"><ele>220.0</ele><time>2026-04-11T14:18:27.373Z</time></trkpt><trkpt lat="43.133528" lon="11.5077909"><ele>218.0</ele><time>2026-04-11T14:18:28.373Z</time></trkpt><trkpt lat="43.1335219" lon="11.5075427"><ele>216.0</ele><time>2026-04-11T14:18:29.373Z</time></trkpt><trkpt lat="43.1335415" lon="11.5072817"><ele>214.0</ele><time>2026-04-11T14:18:30.374Z</time></trkpt><trkpt lat="43.1335661" lon="11.5070088"><ele>213.33333333333331</ele><time>2026-04-11T14:18:31.373Z</time></trkpt><trkpt lat="43.1335988" lon="11.5067375"><ele>212.66666666666669</ele><time>2026-04-11T14:18:32.374Z</time></trkpt><trkpt lat="43.1336398" lon="11.5064682"><ele>212.0</ele><time>2026-04-11T14:18:33.374Z</time></trkpt><trkpt lat="43.1336854" lon="11.5062184"><ele>210.5</ele><time>2026-04-11T14:18:34.374Z</time></trkpt><trkpt lat="43.1337401" lon="11.5057789"><ele>209.0</ele><time>2026-04-11T14:18:36.374Z</time></trkpt><trkpt lat="43.1337605" lon="11.5055731"><ele>209.5</ele><time>2026-04-11T14:18:37.374Z</time></trkpt><trkpt lat="43.1337852" lon="11.5053794"><ele>210.0</ele><time>2026-04-11T14:18:38.374Z</time></trkpt><trkpt lat="43.1338075" lon="11.5051922"><ele>210.5</ele><time>2026-04-11T14:18:39.375Z</time></trkpt><trkpt lat="43.1338377" lon="11.5050005"><ele>211.0</ele><time>2026-04-11T14:18:40.374Z</time></trkpt><trkpt lat="43.1338651" lon="11.5048115"><ele>211.0</ele><time>2026-04-11T14:18:41.373Z</time></trkpt><trkpt lat="43.1338906" lon="11.5046087"><ele>211.0</ele><time>2026-04-11T14:18:42.373Z</time></trkpt><trkpt lat="43.1339123" lon="11.5043978"><ele>211.0</ele><time>2026-04-11T14:18:43.374Z</time></trkpt><trkpt lat="43.1339381" lon="11.5041681"><ele>211.66666666666666</ele><time>2026-04-11T14:18:44.373Z</time></trkpt><trkpt lat="43.1339843" lon="11.5039423"><ele>212.33333333333331</ele><time>2026-04-11T14:18:45.373Z</time></trkpt><trkpt lat="43.134035" lon="11.5036959"><ele>213.0</ele><time>2026-04-11T14:18:46.373Z</time></trkpt><trkpt lat="43.1340862" lon="11.5034342"><ele>211.66666666666669</ele><time>2026-04-11T14:18:47.374Z</time></trkpt><trkpt lat="43.1341344" lon="11.5031847"><ele>210.33333333333334</ele><time>2026-04-11T14:18:48.374Z</time></trkpt><trkpt lat="43.1341856" lon="11.5029368"><ele>209.0</ele><time>2026-04-11T14:18:49.374Z</time></trkpt><trkpt lat="43.1342358" lon="11.5026967"><ele>206.66666666666669</ele><time>2026-04-11T14:18:50.374Z</time></trkpt><trkpt lat="43.1342841" lon="11.5024662"><ele>204.33333333333331</ele><time>2026-04-11T14:18:51.373Z</time></trkpt><trkpt lat="43.1343259" lon="11.5022454"><ele>202.0</ele><time>2026-04-11T14:18:52.373Z</time></trkpt><trkpt lat="43.1343671" lon="11.5020348"><ele>199.33333333333331</ele><time>2026-04-11T14:18:53.373Z</time></trkpt><trkpt lat="43.1344117" lon="11.5018045"><ele>196.66666666666669</ele><time>2026-04-11T14:18:54.374Z</time></trkpt><trkpt lat="43.1344471" lon="11.5015676"><ele>194.0</ele><time>2026-04-11T14:18:55.373Z</time></trkpt><trkpt lat="43.1344971" lon="11.5013321"><ele>191.0</ele><time>2026-04-11T14:18:56.374Z</time></trkpt><trkpt lat="43.1345414" lon="11.5011041"><ele>188.0</ele><time>2026-04-11T14:18:57.373Z</time></trkpt><trkpt lat="43.1345856" lon="11.5008716"><ele>185.0</ele><time>2026-04-11T14:18:58.374Z</time></trkpt><trkpt lat="43.1346294" lon="11.5006351"><ele>180.5</ele><time>2026-04-11T14:18:59.374Z</time></trkpt><trkpt lat="43.1346756" lon="11.5003852"><ele>176.0</ele><time>2026-04-11T14:19:00.373Z</time></trkpt><trkpt lat="43.1347907" lon="11.4998716"><ele>176.0</ele><time>2026-04-11T14:19:02.373Z</time></trkpt><trkpt lat="43.1348578" lon="11.4996177"><ele>176.0</ele><time>2026-04-11T14:19:03.373Z</time></trkpt><trkpt lat="43.1349257" lon="11.4993716"><ele>176.0</ele><time>2026-04-11T14:19:04.373Z</time></trkpt><trkpt lat="43.1349989" lon="11.4991109"><ele>173.66666666666666</ele><time>2026-04-11T14:19:05.375Z</time></trkpt><trkpt lat="43.135079" lon="11.4988567"><ele>171.33333333333334</ele><time>2026-04-11T14:19:06.375Z</time></trkpt><trkpt lat="43.1351542" lon="11.498607"><ele>169.0</ele><time>2026-04-11T14:19:07.375Z</time></trkpt><trkpt lat="43.135229" lon="11.4983647"><ele>166.66666666666669</ele><time>2026-04-11T14:19:08.375Z</time></trkpt><trkpt lat="43.1353027" lon="11.4981204"><ele>164.33333333333334</ele><time>2026-04-11T14:19:09.375Z</time></trkpt><trkpt lat="43.1353769" lon="11.4978798"><ele>162.0</ele><time>2026-04-11T14:19:10.375Z</time></trkpt><trkpt lat="43.1354514" lon="11.4976433"><ele>162.0</ele><time>2026-04-11T14:19:11.374Z</time></trkpt><trkpt lat="43.1355324" lon="11.4974131"><ele>162.0</ele><time>2026-04-11T14:19:12.375Z</time></trkpt><trkpt lat="43.1357779" lon="11.4969718"><ele>162.0</ele><time>2026-04-11T14:19:14.374Z</time></trkpt><trkpt lat="43.1359068" lon="11.4967674"><ele>162.0</ele><time>2026-04-11T14:19:15.374Z</time></trkpt><trkpt lat="43.1360312" lon="11.4965598"><ele>162.0</ele><time>2026-04-11T14:19:16.375Z</time></trkpt><trkpt lat="43.1361493" lon="11.4963557"><ele>162.33333333333334</ele><time>2026-04-11T14:19:17.375Z</time></trkpt><trkpt lat="43.1362609" lon="11.4961614"><ele>162.66666666666669</ele><time>2026-04-11T14:19:18.375Z</time></trkpt><trkpt lat="43.1363717" lon="11.4959735"><ele>163.0</ele><time>2026-04-11T14:19:19.374Z</time></trkpt><trkpt lat="43.1364824" lon="11.4957739"><ele>162.33333333333334</ele><time>2026-04-11T14:19:20.375Z</time></trkpt><trkpt lat="43.1365909" lon="11.4955892"><ele>161.66666666666666</ele><time>2026-04-11T14:19:21.375Z</time></trkpt><trkpt lat="43.1367071" lon="11.4953952"><ele>161.0</ele><time>2026-04-11T14:19:22.374Z</time></trkpt><trkpt lat="43.1368208" lon="11.4951902"><ele>163.0</ele><time>2026-04-11T14:19:23.375Z</time></trkpt><trkpt lat="43.1369265" lon="11.4950016"><ele>165.0</ele><time>2026-04-11T14:19:24.374Z</time></trkpt><trkpt lat="43.1370306" lon="11.4948266"><ele>167.0</ele><time>2026-04-11T14:19:25.375Z</time></trkpt><trkpt lat="43.1371181" lon="11.494668"><ele>166.5</ele><time>2026-04-11T14:19:26.374Z</time></trkpt><trkpt lat="43.1372072" lon="11.4945287"><ele>166.0</ele><time>2026-04-11T14:19:27.375Z</time></trkpt><trkpt lat="43.1372773" lon="11.494403"><ele>165.5</ele><time>2026-04-11T14:19:28.374Z</time></trkpt><trkpt lat="43.1373434" lon="11.4942657"><ele>165.0</ele><time>2026-04-11T14:19:29.374Z</time></trkpt><trkpt lat="43.1373936" lon="11.4941074"><ele>165.0</ele><time>2026-04-11T14:19:30.375Z</time></trkpt><trkpt lat="43.1374352" lon="11.4939395"><ele>165.0</ele><time>2026-04-11T14:19:31.375Z</time></trkpt><trkpt lat="43.1374667" lon="11.4937429"><ele>165.0</ele><time>2026-04-11T14:19:32.375Z</time></trkpt><trkpt lat="43.1374875" lon="11.4935189"><ele>165.0</ele><time>2026-04-11T14:19:33.374Z</time></trkpt><trkpt lat="43.1375075" lon="11.4932619"><ele>166.33333333333334</ele><time>2026-04-11T14:19:34.375Z</time></trkpt><trkpt lat="43.1375333" lon="11.4929815"><ele>167.66666666666669</ele><time>2026-04-11T14:19:35.375Z</time></trkpt><trkpt lat="43.1375666" lon="11.4927104"><ele>169.0</ele><time>2026-04-11T14:19:36.374Z</time></trkpt><trkpt lat="43.137601" lon="11.4924548"><ele>169.66666666666669</ele><time>2026-04-11T14:19:37.374Z</time></trkpt><trkpt lat="43.1376321" lon="11.4922083"><ele>170.33333333333334</ele><time>2026-04-11T14:19:38.374Z</time></trkpt><trkpt lat="43.1376605" lon="11.491978"><ele>171.0</ele><time>2026-04-11T14:19:39.375Z</time></trkpt><trkpt lat="43.137688" lon="11.4917625"><ele>173.33333333333334</ele><time>2026-04-11T14:19:40.375Z</time></trkpt><trkpt lat="43.1377465" lon="11.4913774"><ele>175.66666666666669</ele><time>2026-04-11T14:19:42.374Z</time></trkpt><trkpt lat="43.1377664" lon="11.4911999"><ele>178.0</ele><time>2026-04-11T14:19:43.375Z</time></trkpt><trkpt lat="43.1377835" lon="11.4910321"><ele>177.8</ele><time>2026-04-11T14:19:44.374Z</time></trkpt><trkpt lat="43.1377943" lon="11.4909"><ele>177.60000000000002</ele><time>2026-04-11T14:19:45.374Z</time></trkpt><trkpt lat="43.1378038" lon="11.4907572"><ele>177.39999999999998</ele><time>2026-04-11T14:19:46.374Z</time></trkpt><trkpt lat="43.1377991" lon="11.490624"><ele>177.2</ele><time>2026-04-11T14:19:47.374Z</time></trkpt><trkpt lat="43.1377871" lon="11.4904811"><ele>177.0</ele><time>2026-04-11T14:19:48.375Z</time></trkpt><trkpt lat="43.1377774" lon="11.4903122"><ele>177.0</ele><time>2026-04-11T14:19:49.375Z</time></trkpt><trkpt lat="43.1377568" lon="11.4901399"><ele>177.0</ele><time>2026-04-11T14:19:50.374Z</time></trkpt><trkpt lat="43.1377414" lon="11.4899676"><ele>177.0</ele><time>2026-04-11T14:19:51.374Z</time></trkpt><trkpt lat="43.1377193" lon="11.4897904"><ele>177.0</ele><time>2026-04-11T14:19:52.375Z</time></trkpt><trkpt lat="43.1377201" lon="11.4896153"><ele>174.0</ele><time>2026-04-11T14:19:53.375Z</time></trkpt><trkpt lat="43.1377146" lon="11.4894356"><ele>171.0</ele><time>2026-04-11T14:19:54.375Z</time></trkpt><trkpt lat="43.1377089" lon="11.4892488"><ele>168.0</ele><time>2026-04-11T14:19:55.374Z</time></trkpt><trkpt lat="43.1376999" lon="11.489062"><ele>165.0</ele><time>2026-04-11T14:19:56.374Z</time></trkpt><trkpt lat="43.1376948" lon="11.4888957"><ele>163.33333333333334</ele><time>2026-04-11T14:19:57.375Z</time></trkpt><trkpt lat="43.1376929" lon="11.488755"><ele>161.66666666666666</ele><time>2026-04-11T14:19:58.375Z</time></trkpt><trkpt lat="43.1376893" lon="11.4886424"><ele>160.0</ele><time>2026-04-11T14:19:59.374Z</time></trkpt><trkpt lat="43.1376923" lon="11.488547"><ele>158.33333333333331</ele><time>2026-04-11T14:20:00.375Z</time></trkpt><trkpt lat="43.1377603" lon="11.4884205"><ele>156.66666666666666</ele><time>2026-04-11T14:20:02.375Z</time></trkpt><trkpt lat="43.1378257" lon="11.4884103"><ele>155.0</ele><time>2026-04-11T14:20:03.374Z</time></trkpt><trkpt lat="43.1379152" lon="11.4884296"><ele>155.0</ele><time>2026-04-11T14:20:04.374Z</time></trkpt><trkpt lat="43.1380263" lon="11.4884553"><ele>155.0</ele><time>2026-04-11T14:20:05.374Z</time></trkpt><trkpt lat="43.1381568" lon="11.4884871"><ele>155.0</ele><time>2026-04-11T14:20:06.375Z</time></trkpt><trkpt lat="43.1382768" lon="11.4884977"><ele>155.0</ele><time>2026-04-11T14:20:07.375Z</time></trkpt><trkpt lat="43.1383652" lon="11.4884871"><ele>154.6</ele><time>2026-04-11T14:20:08.374Z</time></trkpt><trkpt lat="43.138528" lon="11.4884764"><ele>154.2</ele><time>2026-04-11T14:20:10.375Z</time></trkpt><trkpt lat="43.1386109" lon="11.4884737"><ele>153.8</ele><time>2026-04-11T14:20:11.375Z</time></trkpt><trkpt lat="43.1386777" lon="11.4884672"><ele>153.4</ele><time>2026-04-11T14:20:12.375Z</time></trkpt><trkpt lat="43.1387487" lon="11.4884614"><ele>153.0</ele><time>2026-04-11T14:20:13.375Z</time></trkpt><trkpt lat="43.1388158" lon="11.4884563"><ele>153.0</ele><time>2026-04-11T14:20:14.375Z</time></trkpt><trkpt lat="43.1388791" lon="11.4884496"><ele>153.0</ele><time>2026-04-11T14:20:15.375Z</time></trkpt><trkpt lat="43.1390175" lon="11.4884086"><ele>153.0</ele><time>2026-04-11T14:20:18.375Z</time></trkpt><trkpt lat="43.1390139" lon="11.4882798"><ele>153.0</ele><time>2026-04-11T14:20:20.376Z</time></trkpt><trkpt lat="43.1389852" lon="11.4881802"><ele>153.0</ele><time>2026-04-11T14:20:21.375Z</time></trkpt><trkpt lat="43.1389687" lon="11.4880504"><ele>152.6</ele><time>2026-04-11T14:20:22.376Z</time></trkpt><trkpt lat="43.1389546" lon="11.4879103"><ele>152.20000000000002</ele><time>2026-04-11T14:20:23.376Z</time></trkpt><trkpt lat="43.1389431" lon="11.4877662"><ele>151.8</ele><time>2026-04-11T14:20:24.375Z</time></trkpt><trkpt lat="43.1389324" lon="11.4876349"><ele>151.4</ele><time>2026-04-11T14:20:25.376Z</time></trkpt><trkpt lat="43.1389229" lon="11.4875116"><ele>151.0</ele><time>2026-04-11T14:20:26.375Z</time></trkpt><trkpt lat="43.1389143" lon="11.4874004"><ele>151.0</ele><time>2026-04-11T14:20:27.376Z</time></trkpt><trkpt lat="43.1389043" lon="11.4872826"><ele>151.0</ele><time>2026-04-11T14:20:28.375Z</time></trkpt><trkpt lat="43.1389027" lon="11.4871379"><ele>151.0</ele><time>2026-04-11T14:20:29.375Z</time></trkpt><trkpt lat="43.1389014" lon="11.4869736"><ele>151.0</ele><time>2026-04-11T14:20:30.375Z</time></trkpt><trkpt lat="43.1389032" lon="11.4868021"><ele>151.0</ele><time>2026-04-11T14:20:31.376Z</time></trkpt><trkpt lat="43.138901" lon="11.486643"><ele>150.4</ele><time>2026-04-11T14:20:32.376Z</time></trkpt><trkpt lat="43.1389051" lon="11.4865019"><ele>149.8</ele><time>2026-04-11T14:20:33.376Z</time></trkpt><trkpt lat="43.1389081" lon="11.4863713"><ele>149.20000000000002</ele><time>2026-04-11T14:20:34.375Z</time></trkpt><trkpt lat="43.138908" lon="11.4862485"><ele>148.6</ele><time>2026-04-11T14:20:35.375Z</time></trkpt><trkpt lat="43.1389077" lon="11.4861304"><ele>148.0</ele><time>2026-04-11T14:20:36.376Z</time></trkpt><trkpt lat="43.1389085" lon="11.4860109"><ele>147.66666666666669</ele><time>2026-04-11T14:20:37.376Z</time></trkpt><trkpt lat="43.1389087" lon="11.4858927"><ele>147.33333333333334</ele><time>2026-04-11T14:20:38.375Z</time></trkpt><trkpt lat="43.138905" lon="11.4857688"><ele>147.0</ele><time>2026-04-11T14:20:39.375Z</time></trkpt><trkpt lat="43.1388924" lon="11.4856506"><ele>146.66666666666666</ele><time>2026-04-11T14:20:40.376Z</time></trkpt><trkpt lat="43.1388765" lon="11.4855467"><ele>146.33333333333331</ele><time>2026-04-11T14:20:41.376Z</time></trkpt><trkpt lat="43.1388707" lon="11.4854509"><ele>146.0</ele><time>2026-04-11T14:20:42.375Z</time></trkpt><trkpt lat="43.1389192" lon="11.485313"><ele>146.0</ele><time>2026-04-11T14:20:44.376Z</time></trkpt><trkpt lat="43.1390302" lon="11.4852621"><ele>146.0</ele><time>2026-04-11T14:20:46.376Z</time></trkpt><trkpt lat="43.139098" lon="11.485252"><ele>146.0</ele><time>2026-04-11T14:20:47.376Z</time></trkpt><trkpt lat="43.1391711" lon="11.4852343"><ele>146.0</ele><time>2026-04-11T14:20:48.375Z</time></trkpt><trkpt lat="43.1392506" lon="11.4852083"><ele>146.0</ele><time>2026-04-11T14:20:49.375Z</time></trkpt><trkpt lat="43.1393341" lon="11.4851752"><ele>146.0</ele><time>2026-04-11T14:20:50.376Z</time></trkpt><trkpt lat="43.1394159" lon="11.4851423"><ele>145.83333333333331</ele><time>2026-04-11T14:20:51.376Z</time></trkpt><trkpt lat="43.1394878" lon="11.485117"><ele>145.66666666666666</ele><time>2026-04-11T14:20:52.375Z</time></trkpt><trkpt lat="43.1395545" lon="11.4850964"><ele>145.5</ele><time>2026-04-11T14:20:53.375Z</time></trkpt><trkpt lat="43.1396423" lon="11.4850735"><ele>145.33333333333334</ele><time>2026-04-11T14:20:55.376Z</time></trkpt><trkpt lat="43.1397006" lon="11.4850021"><ele>145.16666666666669</ele><time>2026-04-11T14:21:01.376Z</time></trkpt><trkpt lat="43.1397008" lon="11.4848588"><ele>145.0</ele><time>2026-04-11T14:21:03.376Z</time></trkpt><trkpt lat="43.1396761" lon="11.4847467"><ele>145.0</ele><time>2026-04-11T14:21:04.375Z</time></trkpt><trkpt lat="43.1396464" lon="11.4846116"><ele>145.0</ele><time>2026-04-11T14:21:05.375Z</time></trkpt><trkpt lat="43.139616" lon="11.4844654"><ele>145.0</ele><time>2026-04-11T14:21:06.376Z</time></trkpt><trkpt lat="43.1395864" lon="11.4843277"><ele>145.0</ele><time>2026-04-11T14:21:07.375Z</time></trkpt><trkpt lat="43.1395546" lon="11.4841974"><ele>145.0</ele><time>2026-04-11T14:21:08.375Z</time></trkpt><trkpt lat="43.1395174" lon="11.4840798"><ele>145.0</ele><time>2026-04-11T14:21:09.375Z</time></trkpt><trkpt lat="43.1394812" lon="11.4839608"><ele>145.0</ele><time>2026-04-11T14:21:10.376Z</time></trkpt><trkpt lat="43.1394415" lon="11.4838272"><ele>145.0</ele><time>2026-04-11T14:21:11.376Z</time></trkpt><trkpt lat="43.1394063" lon="11.4836991"><ele>145.0</ele><time>2026-04-11T14:21:12.376Z</time></trkpt><trkpt lat="43.1393734" lon="11.4835854"><ele>145.0</ele><time>2026-04-11T14:21:13.377Z</time></trkpt><trkpt lat="43.1393436" lon="11.4834871"><ele>145.0</ele><time>2026-04-11T14:21:14.376Z</time></trkpt><trkpt lat="43.1393181" lon="11.4833995"><ele>145.0</ele><time>2026-04-11T14:21:15.376Z</time></trkpt><trkpt lat="43.1392759" lon="11.4832458"><ele>145.0</ele><time>2026-04-11T14:21:17.376Z</time></trkpt><trkpt lat="43.1392456" lon="11.4831249"><ele>145.0</ele><time>2026-04-11T14:21:19.377Z</time></trkpt><trkpt lat="43.1392384" lon="11.4830299"><ele>145.0</ele><time>2026-04-11T14:21:21.376Z</time></trkpt><trkpt lat="43.1393149" lon="11.4829336"><ele>145.4</ele><time>2026-04-11T14:21:23.377Z</time></trkpt><trkpt lat="43.1393862" lon="11.4828776"><ele>145.8</ele><time>2026-04-11T14:21:24.377Z</time></trkpt><trkpt lat="43.1394709" lon="11.4828142"><ele>146.2</ele><time>2026-04-11T14:21:25.377Z</time></trkpt><trkpt lat="43.1395548" lon="11.4827498"><ele>146.6</ele><time>2026-04-11T14:21:26.376Z</time></trkpt><trkpt lat="43.1396413" lon="11.4826859"><ele>147.0</ele><time>2026-04-11T14:21:27.377Z</time></trkpt><trkpt lat="43.1397304" lon="11.4826215"><ele>147.0</ele><time>2026-04-11T14:21:28.377Z</time></trkpt><trkpt lat="43.1398225" lon="11.4825544"><ele>147.0</ele><time>2026-04-11T14:21:29.377Z</time></trkpt><trkpt lat="43.139887" lon="11.4825099"><ele>147.0</ele><time>2026-04-11T14:21:30.377Z</time></trkpt><trkpt lat="43.1399377" lon="11.4824567"><ele>147.0</ele><time>2026-04-11T14:21:32.377Z</time></trkpt><trkpt lat="43.1399327" lon="11.4823542"><ele>147.0</ele><time>2026-04-11T14:21:34.376Z</time></trkpt><trkpt lat="43.1398763" lon="11.4822169"><ele>147.0</ele><time>2026-04-11T14:21:36.376Z</time></trkpt><trkpt lat="43.1398285" lon="11.4820899"><ele>147.16666666666666</ele><time>2026-04-11T14:21:38.376Z</time></trkpt><trkpt lat="43.1397878" lon="11.4819719"><ele>147.33333333333334</ele><time>2026-04-11T14:21:40.376Z</time></trkpt><trkpt lat="43.1397443" lon="11.4818568"><ele>147.5</ele><time>2026-04-11T14:21:42.376Z</time></trkpt><trkpt lat="43.1397149" lon="11.4817668"><ele>147.66666666666669</ele><time>2026-04-11T14:21:44.377Z</time></trkpt><trkpt lat="43.1396776" lon="11.4816557"><ele>147.83333333333334</ele><time>2026-04-11T14:21:47.376Z</time></trkpt><trkpt lat="43.1396469" lon="11.4815642"><ele>148.0</ele><time>2026-04-11T14:21:50.376Z</time></trkpt><trkpt lat="43.1396256" lon="11.4814797"><ele>148.0</ele><time>2026-04-11T14:21:54.377Z</time></trkpt><trkpt lat="43.1395858" lon="11.4813843"><ele>148.0</ele><time>2026-04-11T14:22:12.377Z</time></trkpt><trkpt lat="43.1395573" lon="11.4813002"><ele>148.0</ele><time>2026-04-11T14:22:13.376Z</time></trkpt><trkpt lat="43.1395257" lon="11.4812114"><ele>148.0</ele><time>2026-04-11T14:22:14.376Z</time></trkpt><trkpt lat="43.1394935" lon="11.4811279"><ele>148.0</ele><time>2026-04-11T14:22:15.377Z</time></trkpt><trkpt lat="43.1394567" lon="11.4810546"><ele>148.0</ele><time>2026-04-11T14:22:16.377Z</time></trkpt><trkpt lat="43.1393836" lon="11.4809628"><ele>147.4</ele><time>2026-04-11T14:22:18.377Z</time></trkpt><trkpt lat="43.1393042" lon="11.480941"><ele>146.8</ele><time>2026-04-11T14:22:21.378Z</time></trkpt><trkpt lat="43.1392207" lon="11.4809527"><ele>146.2</ele><time>2026-04-11T14:22:23.377Z</time></trkpt><trkpt lat="43.1391178" lon="11.4809703"><ele>145.6</ele><time>2026-04-11T14:22:25.377Z</time></trkpt><trkpt lat="43.1389895" lon="11.4809985"><ele>145.0</ele><time>2026-04-11T14:22:27.377Z</time></trkpt><trkpt lat="43.1389199" lon="11.4810133"><ele>145.0</ele><time>2026-04-11T14:22:28.377Z</time></trkpt><trkpt lat="43.1388471" lon="11.4810268"><ele>145.0</ele><time>2026-04-11T14:22:29.377Z</time></trkpt><trkpt lat="43.1387299" lon="11.4810516"><ele>145.0</ele><time>2026-04-11T14:22:31.378Z</time></trkpt><trkpt lat="43.1386368" lon="11.4810729"><ele>145.0</ele><time>2026-04-11T14:22:33.378Z</time></trkpt><trkpt lat="43.1385657" lon="11.4810942"><ele>145.0</ele><time>2026-04-11T14:22:35.378Z</time></trkpt><trkpt lat="43.1384989" lon="11.4811014"><ele>145.0</ele><time>2026-04-11T14:22:37.377Z</time></trkpt><trkpt lat="43.1384322" lon="11.4811027"><ele>145.0</ele><time>2026-04-11T14:23:01.377Z</time></trkpt><trkpt lat="43.138383" lon="11.4810131"><ele>145.0</ele><time>2026-04-11T14:23:03.378Z</time></trkpt><trkpt lat="43.1384079" lon="11.4809209"><ele>145.0</ele><time>2026-04-11T14:23:06.377Z</time></trkpt><trkpt lat="43.1385119" lon="11.4809128"><ele>145.0</ele><time>2026-04-11T14:23:09.377Z</time></trkpt><trkpt lat="43.1386207" lon="11.4808898"><ele>145.0</ele><time>2026-04-11T14:23:11.378Z</time></trkpt><trkpt lat="43.1386854" lon="11.480892"><ele>145.0</ele><time>2026-04-11T14:23:15.377Z</time></trkpt><trkpt lat="43.1386915" lon="11.4809855"><ele>145.0</ele><time>2026-04-11T14:23:18.378Z</time></trkpt><trkpt lat="43.1387066" lon="11.4810724"><ele>145.0</ele><time>2026-04-11T14:23:22.379Z</time></trkpt><trkpt lat="43.1387789" lon="11.4810768"><ele>145.0</ele><time>2026-04-11T14:23:24.379Z</time></trkpt><trkpt lat="43.1388824" lon="11.4810238"><ele>145.0</ele><time>2026-04-11T14:23:26.378Z</time></trkpt><trkpt lat="43.1389886" lon="11.480999"><ele>145.0</ele><time>2026-04-11T14:23:28.379Z</time></trkpt><trkpt lat="43.1390801" lon="11.4809897"><ele>145.0</ele><time>2026-04-11T14:23:30.378Z</time></trkpt><trkpt lat="43.1391686" lon="11.4809668"><ele>144.66666666666669</ele><time>2026-04-11T14:23:32.378Z</time></trkpt><trkpt lat="43.1392376" lon="11.4809483"><ele>144.33333333333334</ele><time>2026-04-11T14:23:34.379Z</time></trkpt><trkpt lat="43.1393031" lon="11.4809443"><ele>144.0</ele><time>2026-04-11T14:23:36.378Z</time></trkpt><trkpt lat="43.1393627" lon="11.4809837"><ele>143.66666666666666</ele><time>2026-04-11T14:23:38.379Z</time></trkpt><trkpt lat="43.1394158" lon="11.4810966"><ele>143.33333333333331</ele><time>2026-04-11T14:23:40.379Z</time></trkpt><trkpt lat="43.1394795" lon="11.4812648"><ele>143.0</ele><time>2026-04-11T14:23:43.379Z</time></trkpt><trkpt lat="43.1395051" lon="11.481348"><ele>143.83333333333331</ele><time>2026-04-11T14:23:46.379Z</time></trkpt><trkpt lat="43.1395527" lon="11.4814276"><ele>144.66666666666666</ele><time>2026-04-11T14:24:52.38Z</time></trkpt><trkpt lat="43.1395837" lon="11.4815054"><ele>145.5</ele><time>2026-04-11T14:24:53.379Z</time></trkpt><trkpt lat="43.1396193" lon="11.4816065"><ele>146.33333333333334</ele><time>2026-04-11T14:24:54.379Z</time></trkpt><trkpt lat="43.1396556" lon="11.4817165"><ele>147.16666666666669</ele><time>2026-04-11T14:24:55.379Z</time></trkpt><trkpt lat="43.139688" lon="11.4818191"><ele>148.0</ele><time>2026-04-11T14:24:56.379Z</time></trkpt><trkpt lat="43.1397207" lon="11.4819121"><ele>148.0</ele><time>2026-04-11T14:24:57.379Z</time></trkpt><trkpt lat="43.1397515" lon="11.4819998"><ele>148.0</ele><time>2026-04-11T14:24:58.379Z</time></trkpt><trkpt lat="43.1397789" lon="11.4820873"><ele>148.0</ele><time>2026-04-11T14:24:59.379Z</time></trkpt><trkpt lat="43.1398048" lon="11.4821743"><ele>148.0</ele><time>2026-04-11T14:25:00.38Z</time></trkpt><trkpt lat="43.1398248" lon="11.4822602"><ele>148.0</ele><time>2026-04-11T14:25:01.38Z</time></trkpt><trkpt lat="43.1398433" lon="11.4823986"><ele>148.0</ele><time>2026-04-11T14:25:03.379Z</time></trkpt><trkpt lat="43.1398225" lon="11.4824995"><ele>147.8</ele><time>2026-04-11T14:25:05.379Z</time></trkpt><trkpt lat="43.1397405" lon="11.4826017"><ele>147.60000000000002</ele><time>2026-04-11T14:25:07.38Z</time></trkpt><trkpt lat="43.1396695" lon="11.4826541"><ele>147.39999999999998</ele><time>2026-04-11T14:25:08.38Z</time></trkpt><trkpt lat="43.1395926" lon="11.4827091"><ele>147.2</ele><time>2026-04-11T14:25:09.379Z</time></trkpt><trkpt lat="43.1395115" lon="11.4827655"><ele>147.0</ele><time>2026-04-11T14:25:10.38Z</time></trkpt><trkpt lat="43.1394298" lon="11.4828204"><ele>147.0</ele><time>2026-04-11T14:25:11.38Z</time></trkpt><trkpt lat="43.1393505" lon="11.4828741"><ele>147.0</ele><time>2026-04-11T14:25:12.379Z</time></trkpt><trkpt lat="43.139272" lon="11.4829243"><ele>147.0</ele><time>2026-04-11T14:25:13.38Z</time></trkpt><trkpt lat="43.1391854" lon="11.4829791"><ele>147.0</ele><time>2026-04-11T14:25:14.379Z</time></trkpt><trkpt lat="43.139089" lon="11.4830357"><ele>147.0</ele><time>2026-04-11T14:25:15.379Z</time></trkpt><trkpt lat="43.1389808" lon="11.4830914"><ele>146.75</ele><time>2026-04-11T14:25:16.379Z</time></trkpt><trkpt lat="43.1388648" lon="11.4831441"><ele>146.5</ele><time>2026-04-11T14:25:17.38Z</time></trkpt><trkpt lat="43.1387488" lon="11.4831946"><ele>146.25</ele><time>2026-04-11T14:25:18.38Z</time></trkpt><trkpt lat="43.1386379" lon="11.4832375"><ele>146.0</ele><time>2026-04-11T14:25:19.379Z</time></trkpt><trkpt lat="43.1385329" lon="11.4832734"><ele>146.0</ele><time>2026-04-11T14:25:20.38Z</time></trkpt><trkpt lat="43.1384299" lon="11.4833027"><ele>146.0</ele><time>2026-04-11T14:25:21.38Z</time></trkpt><trkpt lat="43.1383248" lon="11.4833206"><ele>146.0</ele><time>2026-04-11T14:25:22.379Z</time></trkpt><trkpt lat="43.1381078" lon="11.4833397"><ele>146.0</ele><time>2026-04-11T14:25:24.38Z</time></trkpt><trkpt lat="43.1380101" lon="11.4833447"><ele>146.16666666666666</ele><time>2026-04-11T14:25:25.38Z</time></trkpt><trkpt lat="43.1379159" lon="11.4833443"><ele>146.33333333333331</ele><time>2026-04-11T14:25:26.381Z</time></trkpt><trkpt lat="43.13783" lon="11.4833473"><ele>146.5</ele><time>2026-04-11T14:25:27.381Z</time></trkpt><trkpt lat="43.1377418" lon="11.4833502"><ele>146.66666666666666</ele><time>2026-04-11T14:25:28.38Z</time></trkpt><trkpt lat="43.1376529" lon="11.4833558"><ele>146.83333333333334</ele><time>2026-04-11T14:25:29.38Z</time></trkpt><trkpt lat="43.1375611" lon="11.4833591"><ele>147.0</ele><time>2026-04-11T14:25:30.381Z</time></trkpt><trkpt lat="43.137464" lon="11.4833624"><ele>146.75</ele><time>2026-04-11T14:25:31.381Z</time></trkpt><trkpt lat="43.1373608" lon="11.483362"><ele>146.5</ele><time>2026-04-11T14:25:32.381Z</time></trkpt><trkpt lat="43.1372498" lon="11.4833618"><ele>146.25</ele><time>2026-04-11T14:25:33.381Z</time></trkpt><trkpt lat="43.1371391" lon="11.4833612"><ele>146.0</ele><time>2026-04-11T14:25:34.381Z</time></trkpt><trkpt lat="43.1369301" lon="11.4833669"><ele>146.0</ele><time>2026-04-11T14:25:36.381Z</time></trkpt><trkpt lat="43.1368331" lon="11.4833693"><ele>146.0</ele><time>2026-04-11T14:25:37.38Z</time></trkpt><trkpt lat="43.136741" lon="11.4833748"><ele>146.0</ele><time>2026-04-11T14:25:38.38Z</time></trkpt><trkpt lat="43.1366542" lon="11.4833788"><ele>146.0</ele><time>2026-04-11T14:25:39.38Z</time></trkpt><trkpt lat="43.1365632" lon="11.4833806"><ele>146.0</ele><time>2026-04-11T14:25:40.381Z</time></trkpt><trkpt lat="43.1364715" lon="11.4833799"><ele>146.0</ele><time>2026-04-11T14:25:41.381Z</time></trkpt><trkpt lat="43.136383" lon="11.4833805"><ele>146.0</ele><time>2026-04-11T14:25:42.381Z</time></trkpt><trkpt lat="43.1362925" lon="11.4833853"><ele>146.0</ele><time>2026-04-11T14:25:43.38Z</time></trkpt><trkpt lat="43.1362011" lon="11.4833888"><ele>146.0</ele><time>2026-04-11T14:25:44.381Z</time></trkpt><trkpt lat="43.1361093" lon="11.4833881"><ele>146.0</ele><time>2026-04-11T14:25:45.38Z</time></trkpt><trkpt lat="43.1360159" lon="11.4833828"><ele>146.0</ele><time>2026-04-11T14:25:46.381Z</time></trkpt><trkpt lat="43.1359206" lon="11.4833761"><ele>146.0</ele><time>2026-04-11T14:25:47.38Z</time></trkpt><trkpt lat="43.1358213" lon="11.4833702"><ele>146.0</ele><time>2026-04-11T14:25:48.38Z</time></trkpt><trkpt lat="43.1357287" lon="11.4833634"><ele>146.0</ele><time>2026-04-11T14:25:49.38Z</time></trkpt><trkpt lat="43.135646" lon="11.4833611"><ele>146.0</ele><time>2026-04-11T14:25:50.38Z</time></trkpt><trkpt lat="43.1355633" lon="11.4833499"><ele>146.0</ele><time>2026-04-11T14:25:51.38Z</time></trkpt><trkpt lat="43.1354832" lon="11.4833383"><ele>146.0</ele><time>2026-04-11T14:25:52.38Z</time></trkpt><trkpt lat="43.1354015" lon="11.4833271"><ele>146.0</ele><time>2026-04-11T14:25:53.381Z</time></trkpt><trkpt lat="43.1353124" lon="11.4833078"><ele>146.0</ele><time>2026-04-11T14:25:54.38Z</time></trkpt><trkpt lat="43.1352148" lon="11.4832874"><ele>146.0</ele><time>2026-04-11T14:25:55.381Z</time></trkpt><trkpt lat="43.1351052" lon="11.4832691"><ele>146.0</ele><time>2026-04-11T14:25:56.381Z</time></trkpt><trkpt lat="43.1349882" lon="11.4832523"><ele>146.0</ele><time>2026-04-11T14:25:57.38Z</time></trkpt><trkpt lat="43.1348643" lon="11.4832282"><ele>146.0</ele><time>2026-04-11T14:25:58.38Z</time></trkpt><trkpt lat="43.1347437" lon="11.4832087"><ele>146.0</ele><time>2026-04-11T14:25:59.38Z</time></trkpt><trkpt lat="43.1346294" lon="11.4831917"><ele>145.8</ele><time>2026-04-11T14:26:00.381Z</time></trkpt><trkpt lat="43.134527" lon="11.483168"><ele>145.6</ele><time>2026-04-11T14:26:01.38Z</time></trkpt><trkpt lat="43.1344236" lon="11.4831477"><ele>145.4</ele><time>2026-04-11T14:26:02.381Z</time></trkpt><trkpt lat="43.134333" lon="11.4831291"><ele>145.2</ele><time>2026-04-11T14:26:03.38Z</time></trkpt><trkpt lat="43.1342493" lon="11.4831116"><ele>145.0</ele><time>2026-04-11T14:26:04.381Z</time></trkpt><trkpt lat="43.1341614" lon="11.4830972"><ele>145.0</ele><time>2026-04-11T14:26:05.381Z</time></trkpt><trkpt lat="43.1340671" lon="11.4830835"><ele>145.0</ele><time>2026-04-11T14:26:06.381Z</time></trkpt><trkpt lat="43.133964" lon="11.4830676"><ele>145.0</ele><time>2026-04-11T14:26:07.38Z</time></trkpt><trkpt lat="43.1338516" lon="11.4830427"><ele>145.0</ele><time>2026-04-11T14:26:08.38Z</time></trkpt><trkpt lat="43.1337358" lon="11.483013"><ele>145.0</ele><time>2026-04-11T14:26:09.38Z</time></trkpt><trkpt lat="43.1336139" lon="11.4829704"><ele>145.0</ele><time>2026-04-11T14:26:10.38Z</time></trkpt><trkpt lat="43.1334891" lon="11.4829269"><ele>145.0</ele><time>2026-04-11T14:26:11.38Z</time></trkpt><trkpt lat="43.1333691" lon="11.4828792"><ele>145.0</ele><time>2026-04-11T14:26:12.38Z</time></trkpt><trkpt lat="43.133253" lon="11.4828344"><ele>145.0</ele><time>2026-04-11T14:26:13.382Z</time></trkpt><trkpt lat="43.1331301" lon="11.4827898"><ele>144.5</ele><time>2026-04-11T14:26:14.381Z</time></trkpt><trkpt lat="43.1330077" lon="11.4827408"><ele>144.0</ele><time>2026-04-11T14:26:15.381Z</time></trkpt><trkpt lat="43.1328839" lon="11.482693"><ele>143.5</ele><time>2026-04-11T14:26:16.38Z</time></trkpt><trkpt lat="43.132761" lon="11.4826484"><ele>143.0</ele><time>2026-04-11T14:26:17.38Z</time></trkpt><trkpt lat="43.1326447" lon="11.4826031"><ele>143.0</ele><time>2026-04-11T14:26:18.381Z</time></trkpt><trkpt lat="43.1325359" lon="11.4825632"><ele>143.0</ele><time>2026-04-11T14:26:19.381Z</time></trkpt><trkpt lat="43.1324411" lon="11.4825263"><ele>143.0</ele><time>2026-04-11T14:26:20.38Z</time></trkpt><trkpt lat="43.1323662" lon="11.4825004"><ele>143.0</ele><time>2026-04-11T14:26:21.38Z</time></trkpt><trkpt lat="43.132274" lon="11.4824406"><ele>143.0</ele><time>2026-04-11T14:26:23.381Z</time></trkpt><trkpt lat="43.1322856" lon="11.4823352"><ele>143.0</ele><time>2026-04-11T14:26:26.381Z</time></trkpt><trkpt lat="43.1323789" lon="11.4823242"><ele>143.0</ele><time>2026-04-11T14:26:28.38Z</time></trkpt><trkpt lat="43.1324587" lon="11.4823231"><ele>143.0</ele><time>2026-04-11T14:26:29.381Z</time></trkpt><trkpt lat="43.1325399" lon="11.482312"><ele>143.0</ele><time>2026-04-11T14:26:30.38Z</time></trkpt><trkpt lat="43.1326219" lon="11.4823087"><ele>143.0</ele><time>2026-04-11T14:26:31.381Z</time></trkpt><trkpt lat="43.1326926" lon="11.4823026"><ele>143.0</ele><time>2026-04-11T14:26:32.382Z</time></trkpt><trkpt lat="43.1327564" lon="11.4822876"><ele>143.0</ele><time>2026-04-11T14:26:33.382Z</time></trkpt><trkpt lat="43.1328354" lon="11.4822021"><ele>143.0</ele><time>2026-04-11T14:26:35.381Z</time></trkpt><trkpt lat="43.1328522" lon="11.4821149"><ele>143.0</ele><time>2026-04-11T14:26:36.381Z</time></trkpt><trkpt lat="43.1328511" lon="11.4820091"><ele>143.0</ele><time>2026-04-11T14:26:37.381Z</time></trkpt><trkpt lat="43.1328407" lon="11.4818869"><ele>143.0</ele><time>2026-04-11T14:26:38.382Z</time></trkpt><trkpt lat="43.1328347" lon="11.4817627"><ele>143.0</ele><time>2026-04-11T14:26:39.382Z</time></trkpt><trkpt lat="43.1328285" lon="11.4816508"><ele>143.16666666666666</ele><time>2026-04-11T14:26:40.382Z</time></trkpt><trkpt lat="43.1328252" lon="11.4815499"><ele>143.33333333333331</ele><time>2026-04-11T14:26:41.382Z</time></trkpt><trkpt lat="43.1328219" lon="11.4814621"><ele>143.5</ele><time>2026-04-11T14:26:42.382Z</time></trkpt><trkpt lat="43.1328175" lon="11.4812828"><ele>143.66666666666666</ele><time>2026-04-11T14:26:44.381Z</time></trkpt><trkpt lat="43.1328119" lon="11.481168"><ele>143.83333333333334</ele><time>2026-04-11T14:26:45.382Z</time></trkpt><trkpt lat="43.1328054" lon="11.4810421"><ele>144.0</ele><time>2026-04-11T14:26:46.381Z</time></trkpt><trkpt lat="43.1328008" lon="11.4809229"><ele>144.0</ele><time>2026-04-11T14:26:47.382Z</time></trkpt><trkpt lat="43.1327954" lon="11.4808077"><ele>144.0</ele><time>2026-04-11T14:26:48.381Z</time></trkpt><trkpt lat="43.132787" lon="11.4806904"><ele>144.0</ele><time>2026-04-11T14:26:49.382Z</time></trkpt><trkpt lat="43.132781" lon="11.4805469"><ele>144.0</ele><time>2026-04-11T14:26:50.382Z</time></trkpt><trkpt lat="43.1327671" lon="11.480391"><ele>144.0</ele><time>2026-04-11T14:26:51.382Z</time></trkpt><trkpt lat="43.1327484" lon="11.4802266"><ele>144.0</ele><time>2026-04-11T14:26:52.382Z</time></trkpt><trkpt lat="43.1327335" lon="11.4800595"><ele>144.0</ele><time>2026-04-11T14:26:53.382Z</time></trkpt><trkpt lat="43.1327265" lon="11.4798966"><ele>144.0</ele><time>2026-04-11T14:26:54.382Z</time></trkpt><trkpt lat="43.1327258" lon="11.4797466"><ele>144.0</ele><time>2026-04-11T14:26:55.381Z</time></trkpt><trkpt lat="43.132725" lon="11.4796062"><ele>143.8</ele><time>2026-04-11T14:26:56.382Z</time></trkpt><trkpt lat="43.1327253" lon="11.479477"><ele>143.60000000000002</ele><time>2026-04-11T14:26:57.382Z</time></trkpt><trkpt lat="43.1327202" lon="11.4793473"><ele>143.4</ele><time>2026-04-11T14:26:58.382Z</time></trkpt><trkpt lat="43.1327105" lon="11.4792143"><ele>143.20000000000002</ele><time>2026-04-11T14:26:59.382Z</time></trkpt><trkpt lat="43.132702" lon="11.4790865"><ele>143.0</ele><time>2026-04-11T14:27:00.382Z</time></trkpt><trkpt lat="43.1326984" lon="11.4789717"><ele>143.0</ele><time>2026-04-11T14:27:01.381Z</time></trkpt><trkpt lat="43.1327076" lon="11.4788761"><ele>143.0</ele><time>2026-04-11T14:27:02.382Z</time></trkpt><trkpt lat="43.1327675" lon="11.4787651"><ele>143.0</ele><time>2026-04-11T14:27:04.382Z</time></trkpt><trkpt lat="43.1329093" lon="11.4787273"><ele>143.0</ele><time>2026-04-11T14:27:06.381Z</time></trkpt><trkpt lat="43.1330021" lon="11.4787053"><ele>143.0</ele><time>2026-04-11T14:27:07.382Z</time></trkpt><trkpt lat="43.1331086" lon="11.4786803"><ele>142.8</ele><time>2026-04-11T14:27:08.382Z</time></trkpt><trkpt lat="43.1332136" lon="11.4786533"><ele>142.60000000000002</ele><time>2026-04-11T14:27:09.382Z</time></trkpt><trkpt lat="43.1333157" lon="11.4786324"><ele>142.39999999999998</ele><time>2026-04-11T14:27:10.382Z</time></trkpt><trkpt lat="43.1334112" lon="11.4786055"><ele>142.2</ele><time>2026-04-11T14:27:11.381Z</time></trkpt><trkpt lat="43.1335002" lon="11.4785816"><ele>142.0</ele><time>2026-04-11T14:27:12.381Z</time></trkpt><trkpt lat="43.1335828" lon="11.4785627"><ele>142.0</ele><time>2026-04-11T14:27:13.382Z</time></trkpt><trkpt lat="43.1336626" lon="11.4785422"><ele>142.0</ele><time>2026-04-11T14:27:14.382Z</time></trkpt><trkpt lat="43.1337429" lon="11.4785229"><ele>142.0</ele><time>2026-04-11T14:27:15.382Z</time></trkpt><trkpt lat="43.1338281" lon="11.4785051"><ele>142.0</ele><time>2026-04-11T14:27:16.381Z</time></trkpt><trkpt lat="43.1339109" lon="11.4784874"><ele>142.0</ele><time>2026-04-11T14:27:17.382Z</time></trkpt><trkpt lat="43.1339861" lon="11.4784714"><ele>142.0</ele><time>2026-04-11T14:27:18.382Z</time></trkpt><trkpt lat="43.1340489" lon="11.4784562"><ele>142.2</ele><time>2026-04-11T14:27:19.382Z</time></trkpt><trkpt lat="43.1341593" lon="11.4784385"><ele>142.39999999999998</ele><time>2026-04-11T14:27:21.381Z</time></trkpt><trkpt lat="43.1342438" lon="11.4784208"><ele>142.60000000000002</ele><time>2026-04-11T14:27:23.381Z</time></trkpt><trkpt lat="43.1343185" lon="11.4784069"><ele>142.8</ele><time>2026-04-11T14:27:25.382Z</time></trkpt><trkpt lat="43.1343831" lon="11.478392"><ele>143.0</ele><time>2026-04-11T14:27:28.382Z</time></trkpt><trkpt lat="43.1344949" lon="11.4783692"><ele>143.0</ele><time>2026-04-11T14:27:44.382Z</time></trkpt><trkpt lat="43.1345687" lon="11.4783493"><ele>143.0</ele><time>2026-04-11T14:27:45.383Z</time></trkpt><trkpt lat="43.1346474" lon="11.4783282"><ele>143.0</ele><time>2026-04-11T14:27:46.383Z</time></trkpt><trkpt lat="43.1347258" lon="11.4783111"><ele>143.0</ele><time>2026-04-11T14:27:47.383Z</time></trkpt><trkpt lat="43.1348006" lon="11.4782942"><ele>143.0</ele><time>2026-04-11T14:27:48.383Z</time></trkpt><trkpt lat="43.1348681" lon="11.4782804"><ele>143.0</ele><time>2026-04-11T14:27:49.382Z</time></trkpt><trkpt lat="43.134971" lon="11.4782608"><ele>143.16666666666666</ele><time>2026-04-11T14:27:51.383Z</time></trkpt><trkpt lat="43.1350416" lon="11.4782499"><ele>143.33333333333331</ele><time>2026-04-11T14:27:53.382Z</time></trkpt><trkpt lat="43.1351044" lon="11.4782384"><ele>143.5</ele><time>2026-04-11T14:27:56.382Z</time></trkpt><trkpt lat="43.1351692" lon="11.4781898"><ele>143.66666666666666</ele><time>2026-04-11T14:28:17.383Z</time></trkpt><trkpt lat="43.1353141" lon="11.4781591"><ele>143.83333333333334</ele><time>2026-04-11T14:28:19.383Z</time></trkpt><trkpt lat="43.1353953" lon="11.4781493"><ele>144.0</ele><time>2026-04-11T14:28:20.383Z</time></trkpt><trkpt lat="43.1354778" lon="11.4781373"><ele>144.0</ele><time>2026-04-11T14:28:21.382Z</time></trkpt><trkpt lat="43.1355578" lon="11.4781276"><ele>144.0</ele><time>2026-04-11T14:28:22.382Z</time></trkpt><trkpt lat="43.1356352" lon="11.4781181"><ele>144.0</ele><time>2026-04-11T14:28:23.383Z</time></trkpt><trkpt lat="43.1357101" lon="11.4781093"><ele>144.0</ele><time>2026-04-11T14:28:24.382Z</time></trkpt><trkpt lat="43.1357907" lon="11.4780129"><ele>144.0</ele><time>2026-04-11T14:28:26.382Z</time></trkpt><trkpt lat="43.1357492" lon="11.4778618"><ele>143.5</ele><time>2026-04-11T14:28:27.382Z</time></trkpt><trkpt lat="43.135758" lon="11.4777667"><ele>143.0</ele><time>2026-04-11T14:28:28.382Z</time></trkpt><trkpt lat="43.1357055" lon="11.4776027"><ele>142.5</ele><time>2026-04-11T14:28:29.382Z</time></trkpt><trkpt lat="43.1356567" lon="11.4774359"><ele>142.0</ele><time>2026-04-11T14:28:30.383Z</time></trkpt><trkpt lat="43.135614" lon="11.4772784"><ele>142.0</ele><time>2026-04-11T14:28:31.382Z</time></trkpt><trkpt lat="43.1355779" lon="11.4771117"><ele>142.0</ele><time>2026-04-11T14:28:32.382Z</time></trkpt><trkpt lat="43.1355418" lon="11.4769421"><ele>142.0</ele><time>2026-04-11T14:28:33.383Z</time></trkpt><trkpt lat="43.1355024" lon="11.4767639"><ele>142.0</ele><time>2026-04-11T14:28:34.382Z</time></trkpt><trkpt lat="43.1354607" lon="11.4765858"><ele>141.5</ele><time>2026-04-11T14:28:35.383Z</time></trkpt><trkpt lat="43.1354212" lon="11.4764143"><ele>141.0</ele><time>2026-04-11T14:28:36.382Z</time></trkpt><trkpt lat="43.1353816" lon="11.4762471"><ele>140.5</ele><time>2026-04-11T14:28:37.383Z</time></trkpt><trkpt lat="43.1353378" lon="11.4760735"><ele>140.0</ele><time>2026-04-11T14:28:38.382Z</time></trkpt><trkpt lat="43.1352934" lon="11.4758948"><ele>139.33333333333331</ele><time>2026-04-11T14:28:39.383Z</time></trkpt><trkpt lat="43.1352466" lon="11.4757069"><ele>138.66666666666666</ele><time>2026-04-11T14:28:40.384Z</time></trkpt><trkpt lat="43.1351957" lon="11.4755076"><ele>138.0</ele><time>2026-04-11T14:28:41.383Z</time></trkpt><trkpt lat="43.1351454" lon="11.4752989"><ele>138.0</ele><time>2026-04-11T14:28:42.384Z</time></trkpt><trkpt lat="43.1350971" lon="11.4750785"><ele>138.0</ele><time>2026-04-11T14:28:43.383Z</time></trkpt><trkpt lat="43.1350495" lon="11.474843"><ele>138.0</ele><time>2026-04-11T14:28:44.383Z</time></trkpt><trkpt lat="43.1350035" lon="11.4746015"><ele>138.0</ele><time>2026-04-11T14:28:45.383Z</time></trkpt><trkpt lat="43.1349595" lon="11.4743607"><ele>138.0</ele><time>2026-04-11T14:28:46.384Z</time></trkpt><trkpt lat="43.134918" lon="11.4741255"><ele>138.0</ele><time>2026-04-11T14:28:47.383Z</time></trkpt><trkpt lat="43.1348737" lon="11.473892"><ele>138.0</ele><time>2026-04-11T14:28:48.384Z</time></trkpt><trkpt lat="43.1348302" lon="11.4736629"><ele>138.0</ele><time>2026-04-11T14:28:49.383Z</time></trkpt><trkpt lat="43.1347878" lon="11.4734431"><ele>138.0</ele><time>2026-04-11T14:28:50.384Z</time></trkpt><trkpt lat="43.1347461" lon="11.4732241"><ele>138.0</ele><time>2026-04-11T14:28:51.383Z</time></trkpt><trkpt lat="43.1347049" lon="11.4730079"><ele>138.0</ele><time>2026-04-11T14:28:52.384Z</time></trkpt><trkpt lat="43.1346652" lon="11.4728016"><ele>138.0</ele><time>2026-04-11T14:28:53.383Z</time></trkpt><trkpt lat="43.1346268" lon="11.4726084"><ele>138.0</ele><time>2026-04-11T14:28:54.383Z</time></trkpt><trkpt lat="43.1345898" lon="11.4724254"><ele>138.0</ele><time>2026-04-11T14:28:55.383Z</time></trkpt><trkpt lat="43.1345534" lon="11.4722485"><ele>138.0</ele><time>2026-04-11T14:28:56.384Z</time></trkpt><trkpt lat="43.134519" lon="11.4720756"><ele>138.0</ele><time>2026-04-11T14:28:57.383Z</time></trkpt><trkpt lat="43.1344848" lon="11.471907"><ele>138.0</ele><time>2026-04-11T14:28:58.384Z</time></trkpt><trkpt lat="43.1344523" lon="11.4717467"><ele>138.0</ele><time>2026-04-11T14:28:59.383Z</time></trkpt><trkpt lat="43.134422" lon="11.471605"><ele>138.0</ele><time>2026-04-11T14:29:00.383Z</time></trkpt><trkpt lat="43.1343979" lon="11.4714879"><ele>138.0</ele><time>2026-04-11T14:29:01.383Z</time></trkpt><trkpt lat="43.1343794" lon="11.4713983"><ele>138.0</ele><time>2026-04-11T14:29:02.383Z</time></trkpt><trkpt lat="43.1344009" lon="11.4712679"><ele>138.5</ele><time>2026-04-11T14:29:04.384Z</time></trkpt><trkpt lat="43.1344922" lon="11.4712192"><ele>139.0</ele><time>2026-04-11T14:29:05.384Z</time></trkpt><trkpt lat="43.1346769" lon="11.471153"><ele>139.5</ele><time>2026-04-11T14:29:07.383Z</time></trkpt><trkpt lat="43.1348181" lon="11.4710989"><ele>140.0</ele><time>2026-04-11T14:29:08.383Z</time></trkpt><trkpt lat="43.1349433" lon="11.4710191"><ele>140.0</ele><time>2026-04-11T14:29:09.383Z</time></trkpt><trkpt lat="43.1350759" lon="11.4709486"><ele>140.0</ele><time>2026-04-11T14:29:10.384Z</time></trkpt><trkpt lat="43.1352158" lon="11.4708773"><ele>140.0</ele><time>2026-04-11T14:29:11.384Z</time></trkpt><trkpt lat="43.1353601" lon="11.4708011"><ele>140.0</ele><time>2026-04-11T14:29:12.384Z</time></trkpt><trkpt lat="43.1355065" lon="11.470722"><ele>140.0</ele><time>2026-04-11T14:29:13.384Z</time></trkpt><trkpt lat="43.1356535" lon="11.4706407"><ele>140.0</ele><time>2026-04-11T14:29:14.384Z</time></trkpt><trkpt lat="43.1357968" lon="11.4705588"><ele>140.0</ele><time>2026-04-11T14:29:15.384Z</time></trkpt><trkpt lat="43.1359382" lon="11.4704808"><ele>140.33333333333331</ele><time>2026-04-11T14:29:16.383Z</time></trkpt><trkpt lat="43.1360798" lon="11.4704023"><ele>140.66666666666666</ele><time>2026-04-11T14:29:17.384Z</time></trkpt><trkpt lat="43.1362225" lon="11.470322"><ele>141.0</ele><time>2026-04-11T14:29:18.384Z</time></trkpt><trkpt lat="43.1363649" lon="11.4702436"><ele>141.0</ele><time>2026-04-11T14:29:19.384Z</time></trkpt><trkpt lat="43.1365041" lon="11.4701651"><ele>141.0</ele><time>2026-04-11T14:29:20.383Z</time></trkpt><trkpt lat="43.136641" lon="11.4700915"><ele>141.0</ele><time>2026-04-11T14:29:21.384Z</time></trkpt><trkpt lat="43.136773" lon="11.4700197"><ele>141.0</ele><time>2026-04-11T14:29:22.383Z</time></trkpt><trkpt lat="43.136897" lon="11.4699555"><ele>140.75</ele><time>2026-04-11T14:29:23.384Z</time></trkpt><trkpt lat="43.1370173" lon="11.4698886"><ele>140.5</ele><time>2026-04-11T14:29:24.383Z</time></trkpt><trkpt lat="43.1371315" lon="11.4698181"><ele>140.25</ele><time>2026-04-11T14:29:25.383Z</time></trkpt><trkpt lat="43.1372439" lon="11.4697468"><ele>140.0</ele><time>2026-04-11T14:29:26.383Z</time></trkpt><trkpt lat="43.1373548" lon="11.4696695"><ele>140.25</ele><time>2026-04-11T14:29:27.383Z</time></trkpt><trkpt lat="43.1374653" lon="11.4695861"><ele>140.5</ele><time>2026-04-11T14:29:28.383Z</time></trkpt><trkpt lat="43.1375765" lon="11.469497"><ele>140.75</ele><time>2026-04-11T14:29:29.384Z</time></trkpt><trkpt lat="43.1376882" lon="11.4693981"><ele>141.0</ele><time>2026-04-11T14:29:30.384Z</time></trkpt><trkpt lat="43.1378023" lon="11.4692931"><ele>141.0</ele><time>2026-04-11T14:29:31.384Z</time></trkpt><trkpt lat="43.1379206" lon="11.4691814"><ele>141.0</ele><time>2026-04-11T14:29:32.384Z</time></trkpt><trkpt lat="43.1380419" lon="11.4690633"><ele>141.0</ele><time>2026-04-11T14:29:33.384Z</time></trkpt><trkpt lat="43.1381652" lon="11.4689376"><ele>141.0</ele><time>2026-04-11T14:29:34.384Z</time></trkpt><trkpt lat="43.1382917" lon="11.4688101"><ele>140.66666666666666</ele><time>2026-04-11T14:29:35.384Z</time></trkpt><trkpt lat="43.138416" lon="11.4686798"><ele>140.33333333333331</ele><time>2026-04-11T14:29:36.383Z</time></trkpt><trkpt lat="43.1385362" lon="11.4685503"><ele>140.0</ele><time>2026-04-11T14:29:37.383Z</time></trkpt><trkpt lat="43.1386553" lon="11.4684169"><ele>140.0</ele><time>2026-04-11T14:29:38.384Z</time></trkpt><trkpt lat="43.1387758" lon="11.4682858"><ele>140.0</ele><time>2026-04-11T14:29:39.383Z</time></trkpt><trkpt lat="43.1388957" lon="11.4681561"><ele>140.0</ele><time>2026-04-11T14:29:40.384Z</time></trkpt><trkpt lat="43.1390178" lon="11.4680253"><ele>140.66666666666666</ele><time>2026-04-11T14:29:41.384Z</time></trkpt><trkpt lat="43.1391446" lon="11.4678905"><ele>141.33333333333334</ele><time>2026-04-11T14:29:42.383Z</time></trkpt><trkpt lat="43.1392762" lon="11.4677532"><ele>142.0</ele><time>2026-04-11T14:29:43.383Z</time></trkpt><trkpt lat="43.1394098" lon="11.4676141"><ele>142.0</ele><time>2026-04-11T14:29:44.383Z</time></trkpt><trkpt lat="43.139544" lon="11.4674767"><ele>142.0</ele><time>2026-04-11T14:29:45.384Z</time></trkpt><trkpt lat="43.1396768" lon="11.4673369"><ele>142.0</ele><time>2026-04-11T14:29:46.384Z</time></trkpt><trkpt lat="43.1398074" lon="11.4671959"><ele>142.66666666666669</ele><time>2026-04-11T14:29:47.385Z</time></trkpt><trkpt lat="43.1399358" lon="11.4670582"><ele>143.33333333333334</ele><time>2026-04-11T14:29:48.384Z</time></trkpt><trkpt lat="43.1400639" lon="11.4669219"><ele>144.0</ele><time>2026-04-11T14:29:49.384Z</time></trkpt><trkpt lat="43.1401907" lon="11.4667862"><ele>144.0</ele><time>2026-04-11T14:29:50.384Z</time></trkpt><trkpt lat="43.1403161" lon="11.4666506"><ele>144.0</ele><time>2026-04-11T14:29:51.384Z</time></trkpt><trkpt lat="43.1404392" lon="11.4665176"><ele>144.0</ele><time>2026-04-11T14:29:52.384Z</time></trkpt><trkpt lat="43.1405634" lon="11.4663833"><ele>143.66666666666666</ele><time>2026-04-11T14:29:53.385Z</time></trkpt><trkpt lat="43.1406884" lon="11.4662478"><ele>143.33333333333331</ele><time>2026-04-11T14:29:54.385Z</time></trkpt><trkpt lat="43.1408136" lon="11.4661123"><ele>143.0</ele><time>2026-04-11T14:29:55.384Z</time></trkpt><trkpt lat="43.1409395" lon="11.4659789"><ele>143.0</ele><time>2026-04-11T14:29:56.384Z</time></trkpt><trkpt lat="43.141066" lon="11.465845"><ele>143.0</ele><time>2026-04-11T14:29:57.385Z</time></trkpt><trkpt lat="43.141194" lon="11.4657122"><ele>143.0</ele><time>2026-04-11T14:29:58.385Z</time></trkpt><trkpt lat="43.1413208" lon="11.465579"><ele>143.0</ele><time>2026-04-11T14:29:59.385Z</time></trkpt><trkpt lat="43.1414472" lon="11.4654457"><ele>143.0</ele><time>2026-04-11T14:30:00.385Z</time></trkpt><trkpt lat="43.1415739" lon="11.4653139"><ele>143.0</ele><time>2026-04-11T14:30:01.385Z</time></trkpt><trkpt lat="43.141701" lon="11.4651818"><ele>143.66666666666666</ele><time>2026-04-11T14:30:02.384Z</time></trkpt><trkpt lat="43.1418253" lon="11.4650488"><ele>144.33333333333334</ele><time>2026-04-11T14:30:03.385Z</time></trkpt><trkpt lat="43.1419482" lon="11.4649221"><ele>145.0</ele><time>2026-04-11T14:30:04.385Z</time></trkpt><trkpt lat="43.142066" lon="11.4648008"><ele>145.0</ele><time>2026-04-11T14:30:05.385Z</time></trkpt><trkpt lat="43.14218" lon="11.4646836"><ele>145.0</ele><time>2026-04-11T14:30:06.384Z</time></trkpt><trkpt lat="43.1422898" lon="11.464574"><ele>145.0</ele><time>2026-04-11T14:30:07.384Z</time></trkpt><trkpt lat="43.1423942" lon="11.4644684"><ele>145.0</ele><time>2026-04-11T14:30:08.384Z</time></trkpt><trkpt lat="43.1424921" lon="11.4643622"><ele>145.25</ele><time>2026-04-11T14:30:09.385Z</time></trkpt><trkpt lat="43.1425859" lon="11.4642495"><ele>145.5</ele><time>2026-04-11T14:30:10.385Z</time></trkpt><trkpt lat="43.1426729" lon="11.464126"><ele>145.75</ele><time>2026-04-11T14:30:11.384Z</time></trkpt><trkpt lat="43.1427549" lon="11.4639873"><ele>146.0</ele><time>2026-04-11T14:30:12.385Z</time></trkpt><trkpt lat="43.1428328" lon="11.4638339"><ele>146.33333333333331</ele><time>2026-04-11T14:30:13.385Z</time></trkpt><trkpt lat="43.1429104" lon="11.4636625"><ele>146.66666666666666</ele><time>2026-04-11T14:30:14.385Z</time></trkpt><trkpt lat="43.1429871" lon="11.4634742"><ele>147.0</ele><time>2026-04-11T14:30:15.384Z</time></trkpt><trkpt lat="43.1430668" lon="11.4632801"><ele>147.0</ele><time>2026-04-11T14:30:16.385Z</time></trkpt><trkpt lat="43.1431487" lon="11.4630765"><ele>147.0</ele><time>2026-04-11T14:30:17.385Z</time></trkpt><trkpt lat="43.143233" lon="11.4628754"><ele>147.0</ele><time>2026-04-11T14:30:18.385Z</time></trkpt><trkpt lat="43.143318" lon="11.4626674"><ele>148.66666666666666</ele><time>2026-04-11T14:30:19.385Z</time></trkpt><trkpt lat="43.1434026" lon="11.4624699"><ele>150.33333333333331</ele><time>2026-04-11T14:30:20.385Z</time></trkpt><trkpt lat="43.1434851" lon="11.462291"><ele>152.0</ele><time>2026-04-11T14:30:21.384Z</time></trkpt><trkpt lat="43.1435666" lon="11.4621343"><ele>151.5</ele><time>2026-04-11T14:30:22.384Z</time></trkpt><trkpt lat="43.1436561" lon="11.4619981"><ele>151.0</ele><time>2026-04-11T14:30:23.385Z</time></trkpt><trkpt lat="43.1437557" lon="11.4618696"><ele>150.5</ele><time>2026-04-11T14:30:24.384Z</time></trkpt><trkpt lat="43.1438664" lon="11.4617529"><ele>150.0</ele><time>2026-04-11T14:30:25.384Z</time></trkpt><trkpt lat="43.1439855" lon="11.4616535"><ele>151.5</ele><time>2026-04-11T14:30:26.385Z</time></trkpt><trkpt lat="43.1441098" lon="11.4615682"><ele>153.0</ele><time>2026-04-11T14:30:27.385Z</time></trkpt><trkpt lat="43.1442371" lon="11.461492"><ele>154.5</ele><time>2026-04-11T14:30:28.385Z</time></trkpt><trkpt lat="43.1443651" lon="11.4614251"><ele>156.0</ele><time>2026-04-11T14:30:29.385Z</time></trkpt><trkpt lat="43.144488" lon="11.4613679"><ele>156.0</ele><time>2026-04-11T14:30:30.385Z</time></trkpt><trkpt lat="43.1446082" lon="11.4613127"><ele>156.0</ele><time>2026-04-11T14:30:31.384Z</time></trkpt><trkpt lat="43.1447301" lon="11.4612582"><ele>156.0</ele><time>2026-04-11T14:30:32.385Z</time></trkpt><trkpt lat="43.1448492" lon="11.4611982"><ele>156.0</ele><time>2026-04-11T14:30:33.385Z</time></trkpt><trkpt lat="43.1449604" lon="11.4611355"><ele>157.0</ele><time>2026-04-11T14:30:34.385Z</time></trkpt><trkpt lat="43.1450618" lon="11.4610697"><ele>158.0</ele><time>2026-04-11T14:30:35.385Z</time></trkpt><trkpt lat="43.1451509" lon="11.461007"><ele>159.0</ele><time>2026-04-11T14:30:36.384Z</time></trkpt><trkpt lat="43.1452293" lon="11.4609475"><ele>160.0</ele><time>2026-04-11T14:30:37.384Z</time></trkpt><trkpt lat="43.1452966" lon="11.4608948"><ele>161.0</ele><time>2026-04-11T14:30:38.384Z</time></trkpt><trkpt lat="43.1453585" lon="11.4608546"><ele>162.0</ele><time>2026-04-11T14:30:39.384Z</time></trkpt><trkpt lat="43.1454235" lon="11.4608265"><ele>162.0</ele><time>2026-04-11T14:30:40.385Z</time></trkpt><trkpt lat="43.145499" lon="11.4608127"><ele>162.0</ele><time>2026-04-11T14:30:41.384Z</time></trkpt><trkpt lat="43.1455867" lon="11.4608052"><ele>162.0</ele><time>2026-04-11T14:30:42.385Z</time></trkpt><trkpt lat="43.1456823" lon="11.4607972"><ele>162.0</ele><time>2026-04-11T14:30:43.384Z</time></trkpt><trkpt lat="43.1457905" lon="11.4607821"><ele>162.0</ele><time>2026-04-11T14:30:44.384Z</time></trkpt><trkpt lat="43.1459094" lon="11.4607599"><ele>162.25</ele><time>2026-04-11T14:30:45.385Z</time></trkpt><trkpt lat="43.1460305" lon="11.4607251"><ele>162.5</ele><time>2026-04-11T14:30:46.384Z</time></trkpt><trkpt lat="43.146156" lon="11.4606825"><ele>162.75</ele><time>2026-04-11T14:30:47.384Z</time></trkpt><trkpt lat="43.1462841" lon="11.4606411"><ele>163.0</ele><time>2026-04-11T14:30:48.386Z</time></trkpt><trkpt lat="43.1464231" lon="11.460596"><ele>162.66666666666669</ele><time>2026-04-11T14:30:49.386Z</time></trkpt><trkpt lat="43.1465717" lon="11.4605482"><ele>162.33333333333334</ele><time>2026-04-11T14:30:50.386Z</time></trkpt><trkpt lat="43.1467227" lon="11.4604976"><ele>162.0</ele><time>2026-04-11T14:30:51.386Z</time></trkpt><trkpt lat="43.1468749" lon="11.4604472"><ele>161.33333333333334</ele><time>2026-04-11T14:30:52.385Z</time></trkpt><trkpt lat="43.1470327" lon="11.4603986"><ele>160.66666666666669</ele><time>2026-04-11T14:30:53.386Z</time></trkpt><trkpt lat="43.1471947" lon="11.4603519"><ele>160.0</ele><time>2026-04-11T14:30:54.385Z</time></trkpt><trkpt lat="43.1473561" lon="11.4603102"><ele>158.0</ele><time>2026-04-11T14:30:55.385Z</time></trkpt><trkpt lat="43.1475128" lon="11.4602799"><ele>156.0</ele><time>2026-04-11T14:30:56.385Z</time></trkpt><trkpt lat="43.1476624" lon="11.4602631"><ele>154.0</ele><time>2026-04-11T14:30:57.386Z</time></trkpt><trkpt lat="43.1478065" lon="11.4602641"><ele>154.0</ele><time>2026-04-11T14:30:58.386Z</time></trkpt><trkpt lat="43.1479441" lon="11.4602839"><ele>154.0</ele><time>2026-04-11T14:30:59.385Z</time></trkpt><trkpt lat="43.1480768" lon="11.4603291"><ele>154.0</ele><time>2026-04-11T14:31:00.386Z</time></trkpt><trkpt lat="43.1481981" lon="11.4603938"><ele>154.0</ele><time>2026-04-11T14:31:01.386Z</time></trkpt><trkpt lat="43.1483066" lon="11.4604827"><ele>153.5</ele><time>2026-04-11T14:31:02.386Z</time></trkpt><trkpt lat="43.1484015" lon="11.4605859"><ele>153.0</ele><time>2026-04-11T14:31:03.386Z</time></trkpt><trkpt lat="43.1484783" lon="11.4607016"><ele>152.5</ele><time>2026-04-11T14:31:04.385Z</time></trkpt><trkpt lat="43.1485482" lon="11.4608432"><ele>152.0</ele><time>2026-04-11T14:31:05.386Z</time></trkpt><trkpt lat="43.1486151" lon="11.4610073"><ele>152.0</ele><time>2026-04-11T14:31:06.386Z</time></trkpt><trkpt lat="43.1486853" lon="11.4611882"><ele>152.0</ele><time>2026-04-11T14:31:07.386Z</time></trkpt><trkpt lat="43.1487631" lon="11.4613777"><ele>152.0</ele><time>2026-04-11T14:31:08.385Z</time></trkpt><trkpt lat="43.1488439" lon="11.4615689"><ele>151.33333333333331</ele><time>2026-04-11T14:31:09.386Z</time></trkpt><trkpt lat="43.1489246" lon="11.4617607"><ele>150.66666666666666</ele><time>2026-04-11T14:31:10.386Z</time></trkpt><trkpt lat="43.1490054" lon="11.4619531"><ele>150.0</ele><time>2026-04-11T14:31:11.386Z</time></trkpt><trkpt lat="43.1490837" lon="11.4621399"><ele>148.25</ele><time>2026-04-11T14:31:12.385Z</time></trkpt><trkpt lat="43.1491598" lon="11.4623199"><ele>146.5</ele><time>2026-04-11T14:31:13.386Z</time></trkpt><trkpt lat="43.1492322" lon="11.4624868"><ele>144.75</ele><time>2026-04-11T14:31:14.385Z</time></trkpt><trkpt lat="43.1493078" lon="11.4626408"><ele>143.0</ele><time>2026-04-11T14:31:15.386Z</time></trkpt><trkpt lat="43.1493858" lon="11.4627794"><ele>143.0</ele><time>2026-04-11T14:31:16.386Z</time></trkpt><trkpt lat="43.1494693" lon="11.4629014"><ele>143.0</ele><time>2026-04-11T14:31:17.386Z</time></trkpt><trkpt lat="43.1495547" lon="11.4630116"><ele>143.0</ele><time>2026-04-11T14:31:18.386Z</time></trkpt><trkpt lat="43.1496441" lon="11.4630976"><ele>143.0</ele><time>2026-04-11T14:31:19.385Z</time></trkpt><trkpt lat="43.1497359" lon="11.4631574"><ele>143.20000000000002</ele><time>2026-04-11T14:31:20.385Z</time></trkpt><trkpt lat="43.1498343" lon="11.4631872"><ele>143.4</ele><time>2026-04-11T14:31:21.385Z</time></trkpt><trkpt lat="43.1499324" lon="11.4631856"><ele>143.60000000000002</ele><time>2026-04-11T14:31:22.386Z</time></trkpt><trkpt lat="43.1500322" lon="11.4631544"><ele>143.8</ele><time>2026-04-11T14:31:23.386Z</time></trkpt><trkpt lat="43.1501436" lon="11.4630992"><ele>144.0</ele><time>2026-04-11T14:31:24.386Z</time></trkpt><trkpt lat="43.1502668" lon="11.4630259"><ele>144.0</ele><time>2026-04-11T14:31:25.386Z</time></trkpt><trkpt lat="43.1503981" lon="11.4629454"><ele>144.0</ele><time>2026-04-11T14:31:26.385Z</time></trkpt><trkpt lat="43.1505401" lon="11.4628578"><ele>144.0</ele><time>2026-04-11T14:31:27.386Z</time></trkpt><trkpt lat="43.1506946" lon="11.4627646"><ele>144.0</ele><time>2026-04-11T14:31:28.386Z</time></trkpt><trkpt lat="43.1508581" lon="11.4626654"><ele>144.0</ele><time>2026-04-11T14:31:29.385Z</time></trkpt><trkpt lat="43.1510315" lon="11.4625657"><ele>144.0</ele><time>2026-04-11T14:31:30.386Z</time></trkpt><trkpt lat="43.1512147" lon="11.4624644"><ele>144.0</ele><time>2026-04-11T14:31:31.385Z</time></trkpt><trkpt lat="43.1514055" lon="11.4623579"><ele>144.0</ele><time>2026-04-11T14:31:32.386Z</time></trkpt><trkpt lat="43.1516059" lon="11.4622483"><ele>144.0</ele><time>2026-04-11T14:31:33.385Z</time></trkpt><trkpt lat="43.1518071" lon="11.4621417"><ele>143.66666666666666</ele><time>2026-04-11T14:31:34.385Z</time></trkpt><trkpt lat="43.1520129" lon="11.4620339"><ele>143.33333333333331</ele><time>2026-04-11T14:31:35.385Z</time></trkpt><trkpt lat="43.152219" lon="11.4619255"><ele>143.0</ele><time>2026-04-11T14:31:36.386Z</time></trkpt><trkpt lat="43.1524201" lon="11.4618222"><ele>143.66666666666666</ele><time>2026-04-11T14:31:37.386Z</time></trkpt><trkpt lat="43.1526182" lon="11.4617193"><ele>144.33333333333334</ele><time>2026-04-11T14:31:38.386Z</time></trkpt><trkpt lat="43.1528122" lon="11.4616155"><ele>145.0</ele><time>2026-04-11T14:31:39.386Z</time></trkpt><trkpt lat="43.1530056" lon="11.4615119"><ele>145.0</ele><time>2026-04-11T14:31:40.385Z</time></trkpt><trkpt lat="43.1531953" lon="11.4614132"><ele>145.0</ele><time>2026-04-11T14:31:41.386Z</time></trkpt><trkpt lat="43.1533821" lon="11.4613157"><ele>145.0</ele><time>2026-04-11T14:31:42.385Z</time></trkpt><trkpt lat="43.1535664" lon="11.4612182"><ele>145.33333333333334</ele><time>2026-04-11T14:31:43.385Z</time></trkpt><trkpt lat="43.1537483" lon="11.4611255"><ele>145.66666666666666</ele><time>2026-04-11T14:31:44.386Z</time></trkpt><trkpt lat="43.1539257" lon="11.4610321"><ele>146.0</ele><time>2026-04-11T14:31:45.385Z</time></trkpt><trkpt lat="43.1541029" lon="11.4609413"><ele>146.0</ele><time>2026-04-11T14:31:46.385Z</time></trkpt><trkpt lat="43.1542793" lon="11.4608507"><ele>146.0</ele><time>2026-04-11T14:31:47.386Z</time></trkpt><trkpt lat="43.1544579" lon="11.4607582"><ele>146.0</ele><time>2026-04-11T14:31:48.385Z</time></trkpt><trkpt lat="43.1546375" lon="11.4606643"><ele>146.0</ele><time>2026-04-11T14:31:49.385Z</time></trkpt><trkpt lat="43.1548175" lon="11.4605694"><ele>146.0</ele><time>2026-04-11T14:31:50.386Z</time></trkpt><trkpt lat="43.1549983" lon="11.4604736"><ele>146.0</ele><time>2026-04-11T14:31:51.386Z</time></trkpt><trkpt lat="43.1551796" lon="11.4603773"><ele>146.0</ele><time>2026-04-11T14:31:52.386Z</time></trkpt><trkpt lat="43.1553624" lon="11.4602785"><ele>146.0</ele><time>2026-04-11T14:31:53.386Z</time></trkpt><trkpt lat="43.1555477" lon="11.4601785"><ele>146.0</ele><time>2026-04-11T14:31:54.387Z</time></trkpt><trkpt lat="43.155735" lon="11.4600759"><ele>146.0</ele><time>2026-04-11T14:31:55.386Z</time></trkpt><trkpt lat="43.1559269" lon="11.459972"><ele>146.0</ele><time>2026-04-11T14:31:56.386Z</time></trkpt><trkpt lat="43.1561212" lon="11.459869"><ele>146.0</ele><time>2026-04-11T14:31:57.387Z</time></trkpt><trkpt lat="43.1563171" lon="11.4597637"><ele>146.0</ele><time>2026-04-11T14:31:58.387Z</time></trkpt><trkpt lat="43.1565117" lon="11.4596572"><ele>146.0</ele><time>2026-04-11T14:31:59.387Z</time></trkpt><trkpt lat="43.1567073" lon="11.459552"><ele>146.0</ele><time>2026-04-11T14:32:00.387Z</time></trkpt><trkpt lat="43.1569014" lon="11.4594514"><ele>146.0</ele><time>2026-04-11T14:32:01.386Z</time></trkpt><trkpt lat="43.157097" lon="11.4593502"><ele>146.0</ele><time>2026-04-11T14:32:02.386Z</time></trkpt><trkpt lat="43.1572933" lon="11.4592499"><ele>146.0</ele><time>2026-04-11T14:32:03.386Z</time></trkpt><trkpt lat="43.1574877" lon="11.4591514"><ele>146.0</ele><time>2026-04-11T14:32:04.386Z</time></trkpt><trkpt lat="43.1576822" lon="11.4590516"><ele>146.0</ele><time>2026-04-11T14:32:05.386Z</time></trkpt><trkpt lat="43.1578754" lon="11.4589508"><ele>146.0</ele><time>2026-04-11T14:32:06.387Z</time></trkpt><trkpt lat="43.1580625" lon="11.45885"><ele>145.66666666666666</ele><time>2026-04-11T14:32:07.386Z</time></trkpt><trkpt lat="43.158246" lon="11.4587504"><ele>145.33333333333334</ele><time>2026-04-11T14:32:08.386Z</time></trkpt><trkpt lat="43.1584296" lon="11.4586535"><ele>145.0</ele><time>2026-04-11T14:32:09.386Z</time></trkpt><trkpt lat="43.1586108" lon="11.4585581"><ele>145.0</ele><time>2026-04-11T14:32:10.387Z</time></trkpt><trkpt lat="43.1587895" lon="11.4584639"><ele>145.0</ele><time>2026-04-11T14:32:11.387Z</time></trkpt><trkpt lat="43.1589646" lon="11.4583718"><ele>145.0</ele><time>2026-04-11T14:32:12.386Z</time></trkpt><trkpt lat="43.1591346" lon="11.4582815"><ele>145.33333333333334</ele><time>2026-04-11T14:32:13.386Z</time></trkpt><trkpt lat="43.1592976" lon="11.4581923"><ele>145.66666666666666</ele><time>2026-04-11T14:32:14.386Z</time></trkpt><trkpt lat="43.1594517" lon="11.458105"><ele>146.0</ele><time>2026-04-11T14:32:15.386Z</time></trkpt><trkpt lat="43.159601" lon="11.4580229"><ele>146.0</ele><time>2026-04-11T14:32:16.386Z</time></trkpt><trkpt lat="43.1597414" lon="11.4579437"><ele>146.0</ele><time>2026-04-11T14:32:17.386Z</time></trkpt><trkpt lat="43.1598735" lon="11.4578701"><ele>146.0</ele><time>2026-04-11T14:32:18.387Z</time></trkpt><trkpt lat="43.1599959" lon="11.4578021"><ele>146.0</ele><time>2026-04-11T14:32:19.386Z</time></trkpt><trkpt lat="43.160109" lon="11.4577375"><ele>146.0</ele><time>2026-04-11T14:32:20.386Z</time></trkpt><trkpt lat="43.1602131" lon="11.4576736"><ele>146.0</ele><time>2026-04-11T14:32:21.387Z</time></trkpt><trkpt lat="43.1603041" lon="11.4576086"><ele>146.0</ele><time>2026-04-11T14:32:22.386Z</time></trkpt><trkpt lat="43.1603756" lon="11.4575275"><ele>146.0</ele><time>2026-04-11T14:32:23.387Z</time></trkpt><trkpt lat="43.1604309" lon="11.4574266"><ele>146.0</ele><time>2026-04-11T14:32:24.387Z</time></trkpt><trkpt lat="43.1604674" lon="11.4573034"><ele>146.0</ele><time>2026-04-11T14:32:25.387Z</time></trkpt><trkpt lat="43.1604903" lon="11.4571839"><ele>146.0</ele><time>2026-04-11T14:32:26.387Z</time></trkpt><trkpt lat="43.1604886" lon="11.4570167"><ele>146.0</ele><time>2026-04-11T14:32:27.386Z</time></trkpt><trkpt lat="43.1605147" lon="11.4568554"><ele>146.0</ele><time>2026-04-11T14:32:28.387Z</time></trkpt><trkpt lat="43.1606135" lon="11.4568293"><ele>146.0</ele><time>2026-04-11T14:32:29.387Z</time></trkpt><trkpt lat="43.1606793" lon="11.4568025"><ele>146.4</ele><time>2026-04-11T14:32:30.387Z</time></trkpt><trkpt lat="43.1607893" lon="11.4568826"><ele>146.8</ele><time>2026-04-11T14:32:32.387Z</time></trkpt><trkpt lat="43.16084" lon="11.4569636"><ele>147.20000000000002</ele><time>2026-04-11T14:32:33.386Z</time></trkpt><trkpt lat="43.1608785" lon="11.4570748"><ele>147.6</ele><time>2026-04-11T14:32:34.387Z</time></trkpt><trkpt lat="43.1609064" lon="11.4572276"><ele>148.0</ele><time>2026-04-11T14:32:35.386Z</time></trkpt><trkpt lat="43.1609618" lon="11.4573983"><ele>148.0</ele><time>2026-04-11T14:32:36.387Z</time></trkpt><trkpt lat="43.1610101" lon="11.4575713"><ele>148.0</ele><time>2026-04-11T14:32:37.387Z</time></trkpt><trkpt lat="43.1610572" lon="11.4577426"><ele>148.0</ele><time>2026-04-11T14:32:38.386Z</time></trkpt><trkpt lat="43.1611047" lon="11.4579343"><ele>148.0</ele><time>2026-04-11T14:32:39.387Z</time></trkpt><trkpt lat="43.1611322" lon="11.4581619"><ele>147.66666666666669</ele><time>2026-04-11T14:32:40.387Z</time></trkpt><trkpt lat="43.1611473" lon="11.4584269"><ele>147.33333333333334</ele><time>2026-04-11T14:32:41.386Z</time></trkpt><trkpt lat="43.1611628" lon="11.4586995"><ele>147.0</ele><time>2026-04-11T14:32:42.386Z</time></trkpt><trkpt lat="43.1611831" lon="11.458974"><ele>146.66666666666666</ele><time>2026-04-11T14:32:43.387Z</time></trkpt><trkpt lat="43.1612085" lon="11.459243"><ele>146.33333333333331</ele><time>2026-04-11T14:32:44.387Z</time></trkpt><trkpt lat="43.161242" lon="11.4594985"><ele>146.0</ele><time>2026-04-11T14:32:45.387Z</time></trkpt><trkpt lat="43.1612791" lon="11.4597372"><ele>146.0</ele><time>2026-04-11T14:32:46.387Z</time></trkpt><trkpt lat="43.161318" lon="11.4599581"><ele>146.0</ele><time>2026-04-11T14:32:47.387Z</time></trkpt><trkpt lat="43.1613624" lon="11.4601522"><ele>146.0</ele><time>2026-04-11T14:32:48.387Z</time></trkpt><trkpt lat="43.1614197" lon="11.4603203"><ele>146.0</ele><time>2026-04-11T14:32:49.387Z</time></trkpt><trkpt lat="43.1615092" lon="11.460465"><ele>145.66666666666666</ele><time>2026-04-11T14:32:50.386Z</time></trkpt><trkpt lat="43.1616427" lon="11.4605979"><ele>145.33333333333334</ele><time>2026-04-11T14:32:51.386Z</time></trkpt><trkpt lat="43.1618043" lon="11.4607391"><ele>145.0</ele><time>2026-04-11T14:32:52.387Z</time></trkpt><trkpt lat="43.1619985" lon="11.4608821"><ele>145.0</ele><time>2026-04-11T14:32:53.386Z</time></trkpt><trkpt lat="43.1621857" lon="11.4610619"><ele>145.0</ele><time>2026-04-11T14:32:54.386Z</time></trkpt><trkpt lat="43.1623471" lon="11.4612346"><ele>145.0</ele><time>2026-04-11T14:32:55.387Z</time></trkpt><trkpt lat="43.1625012" lon="11.4613999"><ele>144.33333333333334</ele><time>2026-04-11T14:32:56.386Z</time></trkpt><trkpt lat="43.1626346" lon="11.4615508"><ele>143.66666666666666</ele><time>2026-04-11T14:32:57.387Z</time></trkpt><trkpt lat="43.1627679" lon="11.461698"><ele>143.0</ele><time>2026-04-11T14:32:58.387Z</time></trkpt><trkpt lat="43.1629058" lon="11.4618316"><ele>143.0</ele><time>2026-04-11T14:32:59.388Z</time></trkpt><trkpt lat="43.1630415" lon="11.4619531"><ele>143.0</ele><time>2026-04-11T14:33:00.387Z</time></trkpt><trkpt lat="43.1631759" lon="11.4620539"><ele>143.0</ele><time>2026-04-11T14:33:01.387Z</time></trkpt><trkpt lat="43.1633095" lon="11.4621362"><ele>143.0</ele><time>2026-04-11T14:33:02.388Z</time></trkpt><trkpt lat="43.1634359" lon="11.4622098"><ele>143.0</ele><time>2026-04-11T14:33:03.388Z</time></trkpt><trkpt lat="43.1635446" lon="11.4622879"><ele>143.0</ele><time>2026-04-11T14:33:04.388Z</time></trkpt><trkpt lat="43.1636145" lon="11.4623826"><ele>143.0</ele><time>2026-04-11T14:33:05.388Z</time></trkpt><trkpt lat="43.16364" lon="11.462529"><ele>143.0</ele><time>2026-04-11T14:33:06.387Z</time></trkpt><trkpt lat="43.1636772" lon="11.4626765"><ele>143.0</ele><time>2026-04-11T14:33:07.387Z</time></trkpt><trkpt lat="43.1637462" lon="11.4627944"><ele>143.0</ele><time>2026-04-11T14:33:08.387Z</time></trkpt><trkpt lat="43.1638725" lon="11.4628551"><ele>143.0</ele><time>2026-04-11T14:33:09.388Z</time></trkpt><trkpt lat="43.1640224" lon="11.462921"><ele>143.33333333333331</ele><time>2026-04-11T14:33:10.387Z</time></trkpt><trkpt lat="43.164172" lon="11.4630056"><ele>143.66666666666666</ele><time>2026-04-11T14:33:11.388Z</time></trkpt><trkpt lat="43.1643116" lon="11.4631088"><ele>144.0</ele><time>2026-04-11T14:33:12.387Z</time></trkpt><trkpt lat="43.1644367" lon="11.4632283"><ele>144.0</ele><time>2026-04-11T14:33:13.388Z</time></trkpt><trkpt lat="43.1645504" lon="11.4633468"><ele>144.0</ele><time>2026-04-11T14:33:14.387Z</time></trkpt><trkpt lat="43.1646518" lon="11.4634663"><ele>144.0</ele><time>2026-04-11T14:33:15.387Z</time></trkpt><trkpt lat="43.1647473" lon="11.4635831"><ele>144.0</ele><time>2026-04-11T14:33:16.387Z</time></trkpt><trkpt lat="43.1648444" lon="11.4637014"><ele>144.25</ele><time>2026-04-11T14:33:17.387Z</time></trkpt><trkpt lat="43.1649483" lon="11.4638096"><ele>144.5</ele><time>2026-04-11T14:33:18.387Z</time></trkpt><trkpt lat="43.1650684" lon="11.4639174"><ele>144.75</ele><time>2026-04-11T14:33:19.388Z</time></trkpt><trkpt lat="43.1652011" lon="11.4640216"><ele>145.0</ele><time>2026-04-11T14:33:20.388Z</time></trkpt><trkpt lat="43.1653327" lon="11.4641035"><ele>145.0</ele><time>2026-04-11T14:33:21.388Z</time></trkpt><trkpt lat="43.1654591" lon="11.4641774"><ele>145.0</ele><time>2026-04-11T14:33:22.388Z</time></trkpt><trkpt lat="43.1655767" lon="11.4642486"><ele>145.0</ele><time>2026-04-11T14:33:23.388Z</time></trkpt><trkpt lat="43.1656813" lon="11.4643216"><ele>145.0</ele><time>2026-04-11T14:33:24.387Z</time></trkpt><trkpt lat="43.1657758" lon="11.4643971"><ele>145.16666666666669</ele><time>2026-04-11T14:33:25.388Z</time></trkpt><trkpt lat="43.1658564" lon="11.4644589"><ele>145.33333333333334</ele><time>2026-04-11T14:33:26.388Z</time></trkpt><trkpt lat="43.165935" lon="11.4644951"><ele>145.5</ele><time>2026-04-11T14:33:27.387Z</time></trkpt><trkpt lat="43.1660129" lon="11.4644996"><ele>145.66666666666666</ele><time>2026-04-11T14:33:28.387Z</time></trkpt><trkpt lat="43.1660919" lon="11.4644606"><ele>145.83333333333331</ele><time>2026-04-11T14:33:29.387Z</time></trkpt><trkpt lat="43.1661618" lon="11.4643783"><ele>146.0</ele><time>2026-04-11T14:33:30.388Z</time></trkpt><trkpt lat="43.1662255" lon="11.4642609"><ele>146.0</ele><time>2026-04-11T14:33:31.388Z</time></trkpt><trkpt lat="43.1662887" lon="11.4641296"><ele>146.0</ele><time>2026-04-11T14:33:32.387Z</time></trkpt><trkpt lat="43.1663537" lon="11.4639923"><ele>146.0</ele><time>2026-04-11T14:33:33.387Z</time></trkpt><trkpt lat="43.1664232" lon="11.4638682"><ele>146.0</ele><time>2026-04-11T14:33:34.388Z</time></trkpt><trkpt lat="43.1664936" lon="11.4637599"><ele>146.2</ele><time>2026-04-11T14:33:35.388Z</time></trkpt><trkpt lat="43.166561" lon="11.4636736"><ele>146.39999999999998</ele><time>2026-04-11T14:33:36.388Z</time></trkpt><trkpt lat="43.1666333" lon="11.4635977"><ele>146.6</ele><time>2026-04-11T14:33:37.387Z</time></trkpt><trkpt lat="43.1667148" lon="11.4635346"><ele>146.79999999999998</ele><time>2026-04-11T14:33:38.387Z</time></trkpt><trkpt lat="43.1667965" lon="11.4634746"><ele>147.0</ele><time>2026-04-11T14:33:39.387Z</time></trkpt><trkpt lat="43.1668723" lon="11.4634252"><ele>147.0</ele><time>2026-04-11T14:33:40.388Z</time></trkpt><trkpt lat="43.1669302" lon="11.4633838"><ele>147.0</ele><time>2026-04-11T14:33:41.387Z</time></trkpt><trkpt lat="43.1670532" lon="11.4633882"><ele>147.0</ele><time>2026-04-11T14:33:43.388Z</time></trkpt><trkpt lat="43.1671195" lon="11.4634331"><ele>147.0</ele><time>2026-04-11T14:33:44.387Z</time></trkpt><trkpt lat="43.1671954" lon="11.4635216"><ele>147.0</ele><time>2026-04-11T14:33:45.388Z</time></trkpt><trkpt lat="43.1672763" lon="11.4636399"><ele>147.0</ele><time>2026-04-11T14:33:46.388Z</time></trkpt><trkpt lat="43.1673832" lon="11.4637238"><ele>147.0</ele><time>2026-04-11T14:33:47.388Z</time></trkpt><trkpt lat="43.1675018" lon="11.4638063"><ele>147.0</ele><time>2026-04-11T14:33:48.388Z</time></trkpt><trkpt lat="43.1676148" lon="11.463883"><ele>147.0</ele><time>2026-04-11T14:33:49.388Z</time></trkpt><trkpt lat="43.1677183" lon="11.4639524"><ele>147.2</ele><time>2026-04-11T14:33:50.388Z</time></trkpt><trkpt lat="43.1678226" lon="11.4640184"><ele>147.39999999999998</ele><time>2026-04-11T14:33:51.388Z</time></trkpt><trkpt lat="43.1679224" lon="11.4640758"><ele>147.60000000000002</ele><time>2026-04-11T14:33:52.388Z</time></trkpt><trkpt lat="43.1680122" lon="11.4641266"><ele>147.8</ele><time>2026-04-11T14:33:53.388Z</time></trkpt><trkpt lat="43.1680886" lon="11.4641699"><ele>148.0</ele><time>2026-04-11T14:33:54.387Z</time></trkpt><trkpt lat="43.1681503" lon="11.4642049"><ele>148.0</ele><time>2026-04-11T14:33:55.388Z</time></trkpt><trkpt lat="43.1682001" lon="11.4642655"><ele>148.0</ele><time>2026-04-11T14:33:57.388Z</time></trkpt><trkpt lat="43.1681742" lon="11.46441"><ele>148.0</ele><time>2026-04-11T14:33:59.388Z</time></trkpt><trkpt lat="43.16814" lon="11.4645125"><ele>148.0</ele><time>2026-04-11T14:34:00.388Z</time></trkpt><trkpt lat="43.1680935" lon="11.4646251"><ele>148.0</ele><time>2026-04-11T14:34:01.387Z</time></trkpt><trkpt lat="43.1680537" lon="11.4647404"><ele>148.0</ele><time>2026-04-11T14:34:02.387Z</time></trkpt><trkpt lat="43.1680147" lon="11.4648354"><ele>148.20000000000002</ele><time>2026-04-11T14:34:03.389Z</time></trkpt><trkpt lat="43.1679633" lon="11.4649145"><ele>148.4</ele><time>2026-04-11T14:34:04.388Z</time></trkpt><trkpt lat="43.167907" lon="11.4649892"><ele>148.60000000000002</ele><time>2026-04-11T14:34:05.389Z</time></trkpt><trkpt lat="43.1678401" lon="11.4650475"><ele>148.8</ele><time>2026-04-11T14:34:06.389Z</time></trkpt><trkpt lat="43.1676861" lon="11.465085"><ele>149.0</ele><time>2026-04-11T14:34:08.388Z</time></trkpt><trkpt lat="43.1676016" lon="11.4650786"><ele>149.0</ele><time>2026-04-11T14:34:09.389Z</time></trkpt><trkpt lat="43.1674952" lon="11.465062"><ele>149.0</ele><time>2026-04-11T14:34:10.389Z</time></trkpt><trkpt lat="43.167377" lon="11.465044"><ele>149.0</ele><time>2026-04-11T14:34:11.389Z</time></trkpt><trkpt lat="43.1672548" lon="11.4650448"><ele>149.0</ele><time>2026-04-11T14:34:12.388Z</time></trkpt><trkpt lat="43.1671292" lon="11.4650645"><ele>148.75</ele><time>2026-04-11T14:34:13.389Z</time></trkpt><trkpt lat="43.1670076" lon="11.4650989"><ele>148.5</ele><time>2026-04-11T14:34:14.389Z</time></trkpt><trkpt lat="43.1668917" lon="11.4651425"><ele>148.25</ele><time>2026-04-11T14:34:15.389Z</time></trkpt><trkpt lat="43.166779" lon="11.4652038"><ele>148.0</ele><time>2026-04-11T14:34:16.389Z</time></trkpt><trkpt lat="43.1666689" lon="11.4652836"><ele>148.0</ele><time>2026-04-11T14:34:17.389Z</time></trkpt><trkpt lat="43.166563" lon="11.465379"><ele>148.0</ele><time>2026-04-11T14:34:18.389Z</time></trkpt><trkpt lat="43.1664602" lon="11.4654829"><ele>148.0</ele><time>2026-04-11T14:34:19.389Z</time></trkpt><trkpt lat="43.1663576" lon="11.4655934"><ele>148.0</ele><time>2026-04-11T14:34:20.389Z</time></trkpt><trkpt lat="43.1662551" lon="11.4657216"><ele>147.0</ele><time>2026-04-11T14:34:21.388Z</time></trkpt><trkpt lat="43.1661565" lon="11.465852"><ele>146.0</ele><time>2026-04-11T14:34:22.389Z</time></trkpt><trkpt lat="43.1660669" lon="11.4659762"><ele>145.0</ele><time>2026-04-11T14:34:23.388Z</time></trkpt><trkpt lat="43.1659807" lon="11.4660882"><ele>144.0</ele><time>2026-04-11T14:34:24.389Z</time></trkpt><trkpt lat="43.1658985" lon="11.4661988"><ele>144.5</ele><time>2026-04-11T14:34:25.388Z</time></trkpt><trkpt lat="43.1658108" lon="11.4663102"><ele>145.0</ele><time>2026-04-11T14:34:26.389Z</time></trkpt><trkpt lat="43.1656997" lon="11.4664022"><ele>145.5</ele><time>2026-04-11T14:34:27.388Z</time></trkpt><trkpt lat="43.1655669" lon="11.4664809"><ele>146.0</ele><time>2026-04-11T14:34:28.389Z</time></trkpt><trkpt lat="43.1654228" lon="11.4665608"><ele>146.66666666666666</ele><time>2026-04-11T14:34:29.389Z</time></trkpt><trkpt lat="43.1652771" lon="11.4666468"><ele>147.33333333333334</ele><time>2026-04-11T14:34:30.389Z</time></trkpt><trkpt lat="43.1651313" lon="11.4667449"><ele>148.0</ele><time>2026-04-11T14:34:31.389Z</time></trkpt><trkpt lat="43.1649919" lon="11.4668426"><ele>147.5</ele><time>2026-04-11T14:34:32.388Z</time></trkpt><trkpt lat="43.1648571" lon="11.4669376"><ele>147.0</ele><time>2026-04-11T14:34:33.388Z</time></trkpt><trkpt lat="43.1647245" lon="11.4670302"><ele>146.5</ele><time>2026-04-11T14:34:34.389Z</time></trkpt><trkpt lat="43.1645952" lon="11.4671191"><ele>146.0</ele><time>2026-04-11T14:34:35.388Z</time></trkpt><trkpt lat="43.1644724" lon="11.4672036"><ele>146.0</ele><time>2026-04-11T14:34:36.388Z</time></trkpt><trkpt lat="43.1643591" lon="11.4672826"><ele>146.0</ele><time>2026-04-11T14:34:37.389Z</time></trkpt><trkpt lat="43.1642544" lon="11.467354"><ele>146.0</ele><time>2026-04-11T14:34:38.388Z</time></trkpt><trkpt lat="43.1641517" lon="11.4674244"><ele>146.0</ele><time>2026-04-11T14:34:39.388Z</time></trkpt><trkpt lat="43.1640555" lon="11.4674891"><ele>146.0</ele><time>2026-04-11T14:34:40.388Z</time></trkpt><trkpt lat="43.1639713" lon="11.4675469"><ele>146.0</ele><time>2026-04-11T14:34:41.389Z</time></trkpt><trkpt lat="43.163905" lon="11.4676002"><ele>146.0</ele><time>2026-04-11T14:34:42.389Z</time></trkpt><trkpt lat="43.1638435" lon="11.4677382"><ele>146.0</ele><time>2026-04-11T14:34:44.389Z</time></trkpt><trkpt lat="43.1638778" lon="11.4678772"><ele>146.0</ele><time>2026-04-11T14:34:46.388Z</time></trkpt><trkpt lat="43.1639153" lon="11.4679514"><ele>146.0</ele><time>2026-04-11T14:34:47.388Z</time></trkpt><trkpt lat="43.1639531" lon="11.4680271"><ele>146.0</ele><time>2026-04-11T14:34:48.389Z</time></trkpt><trkpt lat="43.1639911" lon="11.4681144"><ele>146.0</ele><time>2026-04-11T14:34:49.389Z</time></trkpt><trkpt lat="43.1640253" lon="11.4682162"><ele>146.0</ele><time>2026-04-11T14:34:50.388Z</time></trkpt><trkpt lat="43.1640543" lon="11.4683268"><ele>146.0</ele><time>2026-04-11T14:34:51.388Z</time></trkpt><trkpt lat="43.1640815" lon="11.4684462"><ele>146.0</ele><time>2026-04-11T14:34:52.389Z</time></trkpt><trkpt lat="43.1641081" lon="11.4685588"><ele>146.5</ele><time>2026-04-11T14:34:53.389Z</time></trkpt><trkpt lat="43.1641305" lon="11.4686623"><ele>147.0</ele><time>2026-04-11T14:34:54.388Z</time></trkpt><trkpt lat="43.1641405" lon="11.4687602"><ele>147.5</ele><time>2026-04-11T14:34:55.389Z</time></trkpt><trkpt lat="43.1641248" lon="11.4688586"><ele>148.0</ele><time>2026-04-11T14:34:56.389Z</time></trkpt><trkpt lat="43.1640882" lon="11.4689539"><ele>148.5</ele><time>2026-04-11T14:34:57.389Z</time></trkpt><trkpt lat="43.1640302" lon="11.4690291"><ele>149.0</ele><time>2026-04-11T14:34:58.388Z</time></trkpt><trkpt lat="43.1639528" lon="11.4690868"><ele>150.0</ele><time>2026-04-11T14:34:59.388Z</time></trkpt><trkpt lat="43.1638504" lon="11.4691226"><ele>151.0</ele><time>2026-04-11T14:35:00.389Z</time></trkpt><trkpt lat="43.1637288" lon="11.4691338"><ele>152.0</ele><time>2026-04-11T14:35:01.389Z</time></trkpt><trkpt lat="43.1636055" lon="11.4691477"><ele>153.0</ele><time>2026-04-11T14:35:02.389Z</time></trkpt><trkpt lat="43.1634808" lon="11.4691714"><ele>153.0</ele><time>2026-04-11T14:35:03.389Z</time></trkpt><trkpt lat="43.1633583" lon="11.4692042"><ele>153.0</ele><time>2026-04-11T14:35:04.389Z</time></trkpt><trkpt lat="43.1632471" lon="11.4692467"><ele>153.0</ele><time>2026-04-11T14:35:05.389Z</time></trkpt><trkpt lat="43.1631484" lon="11.4693039"><ele>153.0</ele><time>2026-04-11T14:35:06.389Z</time></trkpt><trkpt lat="43.1630545" lon="11.4693807"><ele>152.8</ele><time>2026-04-11T14:35:07.389Z</time></trkpt><trkpt lat="43.162962" lon="11.4694755"><ele>152.60000000000002</ele><time>2026-04-11T14:35:08.388Z</time></trkpt><trkpt lat="43.1628748" lon="11.4695776"><ele>152.39999999999998</ele><time>2026-04-11T14:35:09.39Z</time></trkpt><trkpt lat="43.1628064" lon="11.469672"><ele>152.2</ele><time>2026-04-11T14:35:10.39Z</time></trkpt><trkpt lat="43.1627521" lon="11.4697625"><ele>152.0</ele><time>2026-04-11T14:35:11.39Z</time></trkpt><trkpt lat="43.1627101" lon="11.4698557"><ele>153.0</ele><time>2026-04-11T14:35:12.389Z</time></trkpt><trkpt lat="43.1626792" lon="11.4699661"><ele>154.0</ele><time>2026-04-11T14:35:13.389Z</time></trkpt><trkpt lat="43.162657" lon="11.4700947"><ele>155.0</ele><time>2026-04-11T14:35:14.39Z</time></trkpt><trkpt lat="43.1626442" lon="11.4702416"><ele>156.0</ele><time>2026-04-11T14:35:15.389Z</time></trkpt><trkpt lat="43.1626353" lon="11.4704081"><ele>157.0</ele><time>2026-04-11T14:35:16.389Z</time></trkpt><trkpt lat="43.16263" lon="11.4705888"><ele>158.66666666666669</ele><time>2026-04-11T14:35:17.39Z</time></trkpt><trkpt lat="43.1626249" lon="11.470769"><ele>160.33333333333334</ele><time>2026-04-11T14:35:18.389Z</time></trkpt><trkpt lat="43.1626185" lon="11.4711413"><ele>162.0</ele><time>2026-04-11T14:35:20.39Z</time></trkpt><trkpt lat="43.1626053" lon="11.4713157"><ele>163.25</ele><time>2026-04-11T14:35:21.389Z</time></trkpt><trkpt lat="43.1625902" lon="11.471482"><ele>164.5</ele><time>2026-04-11T14:35:22.39Z</time></trkpt><trkpt lat="43.1625533" lon="11.4716385"><ele>165.75</ele><time>2026-04-11T14:35:23.39Z</time></trkpt><trkpt lat="43.1625096" lon="11.4717789"><ele>167.0</ele><time>2026-04-11T14:35:24.39Z</time></trkpt><trkpt lat="43.1624443" lon="11.4719146"><ele>167.0</ele><time>2026-04-11T14:35:25.389Z</time></trkpt><trkpt lat="43.1623781" lon="11.4720461"><ele>167.0</ele><time>2026-04-11T14:35:26.39Z</time></trkpt><trkpt lat="43.1623054" lon="11.4721924"><ele>167.0</ele><time>2026-04-11T14:35:27.389Z</time></trkpt><trkpt lat="43.1622338" lon="11.4723392"><ele>167.0</ele><time>2026-04-11T14:35:28.389Z</time></trkpt><trkpt lat="43.1621595" lon="11.4724856"><ele>168.25</ele><time>2026-04-11T14:35:29.39Z</time></trkpt><trkpt lat="43.1620877" lon="11.472636"><ele>169.5</ele><time>2026-04-11T14:35:30.39Z</time></trkpt><trkpt lat="43.1620142" lon="11.472784"><ele>170.75</ele><time>2026-04-11T14:35:31.39Z</time></trkpt><trkpt lat="43.16194" lon="11.4729189"><ele>172.0</ele><time>2026-04-11T14:35:32.39Z</time></trkpt><trkpt lat="43.1618794" lon="11.4730298"><ele>172.85714285714286</ele><time>2026-04-11T14:35:33.39Z</time></trkpt><trkpt lat="43.1618362" lon="11.4731269"><ele>173.71428571428572</ele><time>2026-04-11T14:35:34.39Z</time></trkpt><trkpt lat="43.161806" lon="11.4732203"><ele>174.57142857142856</ele><time>2026-04-11T14:35:35.39Z</time></trkpt><trkpt lat="43.1617851" lon="11.4733112"><ele>175.42857142857144</ele><time>2026-04-11T14:35:36.39Z</time></trkpt><trkpt lat="43.1617716" lon="11.4734064"><ele>176.28571428571428</ele><time>2026-04-11T14:35:37.389Z</time></trkpt><trkpt lat="43.1617695" lon="11.4735006"><ele>177.14285714285714</ele><time>2026-04-11T14:35:38.39Z</time></trkpt><trkpt lat="43.1617827" lon="11.4735903"><ele>178.0</ele><time>2026-04-11T14:35:39.39Z</time></trkpt><trkpt lat="43.1618077" lon="11.4736974"><ele>179.0</ele><time>2026-04-11T14:35:40.389Z</time></trkpt><trkpt lat="43.1618434" lon="11.4738037"><ele>180.0</ele><time>2026-04-11T14:35:41.389Z</time></trkpt><trkpt lat="43.1618848" lon="11.4739266"><ele>181.0</ele><time>2026-04-11T14:35:42.39Z</time></trkpt><trkpt lat="43.1619146" lon="11.4740448"><ele>182.0</ele><time>2026-04-11T14:35:43.389Z</time></trkpt><trkpt lat="43.1619294" lon="11.4741757"><ele>183.0</ele><time>2026-04-11T14:35:44.39Z</time></trkpt><trkpt lat="43.1619228" lon="11.4743032"><ele>183.0</ele><time>2026-04-11T14:35:45.39Z</time></trkpt><trkpt lat="43.1619119" lon="11.474418"><ele>183.0</ele><time>2026-04-11T14:35:46.389Z</time></trkpt><trkpt lat="43.161921" lon="11.4745387"><ele>183.0</ele><time>2026-04-11T14:35:47.39Z</time></trkpt><trkpt lat="43.1620124" lon="11.4747455"><ele>183.0</ele><time>2026-04-11T14:35:49.39Z</time></trkpt><trkpt lat="43.1620764" lon="11.474832"><ele>183.0</ele><time>2026-04-11T14:35:50.389Z</time></trkpt><trkpt lat="43.1621522" lon="11.4748951"><ele>182.5</ele><time>2026-04-11T14:35:51.39Z</time></trkpt><trkpt lat="43.1622352" lon="11.4749403"><ele>182.0</ele><time>2026-04-11T14:35:52.389Z</time></trkpt><trkpt lat="43.1623192" lon="11.4749682"><ele>181.5</ele><time>2026-04-11T14:35:53.389Z</time></trkpt><trkpt lat="43.1624031" lon="11.4749835"><ele>181.0</ele><time>2026-04-11T14:35:54.389Z</time></trkpt><trkpt lat="43.1624939" lon="11.4749956"><ele>180.5</ele><time>2026-04-11T14:35:55.39Z</time></trkpt><trkpt lat="43.1625882" lon="11.4750141"><ele>180.0</ele><time>2026-04-11T14:35:56.389Z</time></trkpt><trkpt lat="43.1626761" lon="11.4750564"><ele>182.5</ele><time>2026-04-11T14:35:57.389Z</time></trkpt><trkpt lat="43.1627651" lon="11.4751167"><ele>185.0</ele><time>2026-04-11T14:35:58.39Z</time></trkpt><trkpt lat="43.1628658" lon="11.4751807"><ele>187.5</ele><time>2026-04-11T14:35:59.39Z</time></trkpt><trkpt lat="43.1629686" lon="11.4752466"><ele>190.0</ele><time>2026-04-11T14:36:00.389Z</time></trkpt><trkpt lat="43.1630853" lon="11.475312"><ele>190.25</ele><time>2026-04-11T14:36:01.39Z</time></trkpt><trkpt lat="43.1632093" lon="11.47538"><ele>190.5</ele><time>2026-04-11T14:36:02.39Z</time></trkpt><trkpt lat="43.163332" lon="11.4754424"><ele>190.75</ele><time>2026-04-11T14:36:03.389Z</time></trkpt><trkpt lat="43.1634472" lon="11.4754966"><ele>191.0</ele><time>2026-04-11T14:36:04.389Z</time></trkpt><trkpt lat="43.1635626" lon="11.47555"><ele>190.0</ele><time>2026-04-11T14:36:05.39Z</time></trkpt><trkpt lat="43.1636783" lon="11.4756014"><ele>189.0</ele><time>2026-04-11T14:36:06.39Z</time></trkpt><trkpt lat="43.1638033" lon="11.4756659"><ele>188.0</ele><time>2026-04-11T14:36:07.389Z</time></trkpt><trkpt lat="43.163927" lon="11.475728"><ele>187.0</ele><time>2026-04-11T14:36:08.389Z</time></trkpt><trkpt lat="43.1640662" lon="11.4758043"><ele>187.0</ele><time>2026-04-11T14:36:09.39Z</time></trkpt><trkpt lat="43.1642066" lon="11.4758822"><ele>187.0</ele><time>2026-04-11T14:36:10.389Z</time></trkpt><trkpt lat="43.1643521" lon="11.4759587"><ele>187.0</ele><time>2026-04-11T14:36:11.39Z</time></trkpt><trkpt lat="43.1645002" lon="11.4760297"><ele>187.0</ele><time>2026-04-11T14:36:12.39Z</time></trkpt><trkpt lat="43.1646471" lon="11.4760877"><ele>187.0</ele><time>2026-04-11T14:36:13.391Z</time></trkpt><trkpt lat="43.1647873" lon="11.4761415"><ele>187.0</ele><time>2026-04-11T14:36:14.391Z</time></trkpt><trkpt lat="43.164922" lon="11.4761928"><ele>187.0</ele><time>2026-04-11T14:36:15.39Z</time></trkpt><trkpt lat="43.1650469" lon="11.4762375"><ele>186.25</ele><time>2026-04-11T14:36:16.391Z</time></trkpt><trkpt lat="43.1651684" lon="11.4762759"><ele>185.5</ele><time>2026-04-11T14:36:17.39Z</time></trkpt><trkpt lat="43.1652792" lon="11.4763146"><ele>184.75</ele><time>2026-04-11T14:36:18.39Z</time></trkpt><trkpt lat="43.1653816" lon="11.47635"><ele>184.0</ele><time>2026-04-11T14:36:19.391Z</time></trkpt><trkpt lat="43.1654818" lon="11.4763935"><ele>184.0</ele><time>2026-04-11T14:36:20.391Z</time></trkpt><trkpt lat="43.165591" lon="11.4764542"><ele>184.0</ele><time>2026-04-11T14:36:21.391Z</time></trkpt><trkpt lat="43.1657059" lon="11.47654"><ele>184.0</ele><time>2026-04-11T14:36:22.391Z</time></trkpt><trkpt lat="43.1658301" lon="11.4766313"><ele>184.0</ele><time>2026-04-11T14:36:23.39Z</time></trkpt><trkpt lat="43.165963" lon="11.4767255"><ele>185.75</ele><time>2026-04-11T14:36:24.39Z</time></trkpt><trkpt lat="43.1660956" lon="11.4768106"><ele>187.5</ele><time>2026-04-11T14:36:25.39Z</time></trkpt><trkpt lat="43.1662185" lon="11.4768903"><ele>189.25</ele><time>2026-04-11T14:36:26.39Z</time></trkpt><trkpt lat="43.1663298" lon="11.4769682"><ele>191.0</ele><time>2026-04-11T14:36:27.391Z</time></trkpt><trkpt lat="43.1664295" lon="11.477039"><ele>190.8</ele><time>2026-04-11T14:36:28.39Z</time></trkpt><trkpt lat="43.166522" lon="11.4771121"><ele>190.60000000000002</ele><time>2026-04-11T14:36:29.39Z</time></trkpt><trkpt lat="43.1666089" lon="11.4771892"><ele>190.4</ele><time>2026-04-11T14:36:30.391Z</time></trkpt><trkpt lat="43.1666957" lon="11.4772747"><ele>190.2</ele><time>2026-04-11T14:36:31.391Z</time></trkpt><trkpt lat="43.1667832" lon="11.4773708"><ele>190.0</ele><time>2026-04-11T14:36:32.391Z</time></trkpt><trkpt lat="43.16687" lon="11.4774673"><ele>190.6</ele><time>2026-04-11T14:36:33.391Z</time></trkpt><trkpt lat="43.1669533" lon="11.4775608"><ele>191.2</ele><time>2026-04-11T14:36:34.39Z</time></trkpt><trkpt lat="43.1670359" lon="11.4776489"><ele>191.8</ele><time>2026-04-11T14:36:35.39Z</time></trkpt><trkpt lat="43.1671194" lon="11.4777272"><ele>192.4</ele><time>2026-04-11T14:36:36.39Z</time></trkpt><trkpt lat="43.1671992" lon="11.4777882"><ele>193.0</ele><time>2026-04-11T14:36:37.391Z</time></trkpt><trkpt lat="43.1672898" lon="11.477835"><ele>193.33333333333331</ele><time>2026-04-11T14:36:38.39Z</time></trkpt><trkpt lat="43.1674021" lon="11.47787"><ele>193.66666666666669</ele><time>2026-04-11T14:36:39.39Z</time></trkpt><trkpt lat="43.1676643" lon="11.4778698"><ele>194.0</ele><time>2026-04-11T14:36:41.391Z</time></trkpt><trkpt lat="43.1677908" lon="11.4778595"><ele>194.0</ele><time>2026-04-11T14:36:42.39Z</time></trkpt><trkpt lat="43.1679104" lon="11.4778508"><ele>194.0</ele><time>2026-04-11T14:36:43.39Z</time></trkpt><trkpt lat="43.1680272" lon="11.4778403"><ele>194.0</ele><time>2026-04-11T14:36:44.39Z</time></trkpt><trkpt lat="43.1681495" lon="11.4778395"><ele>194.0</ele><time>2026-04-11T14:36:45.391Z</time></trkpt><trkpt lat="43.1682748" lon="11.4778514"><ele>194.5</ele><time>2026-04-11T14:36:46.391Z</time></trkpt><trkpt lat="43.1684062" lon="11.477877"><ele>195.0</ele><time>2026-04-11T14:36:47.391Z</time></trkpt><trkpt lat="43.1685389" lon="11.477907"><ele>195.5</ele><time>2026-04-11T14:36:48.39Z</time></trkpt><trkpt lat="43.1686786" lon="11.4779346"><ele>196.0</ele><time>2026-04-11T14:36:49.39Z</time></trkpt><trkpt lat="43.1688131" lon="11.4779644"><ele>196.0</ele><time>2026-04-11T14:36:50.391Z</time></trkpt><trkpt lat="43.1689384" lon="11.4780001"><ele>196.0</ele><time>2026-04-11T14:36:51.39Z</time></trkpt><trkpt lat="43.1690546" lon="11.4780402"><ele>196.0</ele><time>2026-04-11T14:36:52.391Z</time></trkpt><trkpt lat="43.1691582" lon="11.478093"><ele>196.0</ele><time>2026-04-11T14:36:53.39Z</time></trkpt><trkpt lat="43.1692508" lon="11.4781617"><ele>196.0</ele><time>2026-04-11T14:36:54.39Z</time></trkpt><trkpt lat="43.1693343" lon="11.4782446"><ele>196.0</ele><time>2026-04-11T14:36:55.39Z</time></trkpt><trkpt lat="43.1694048" lon="11.4783388"><ele>196.0</ele><time>2026-04-11T14:36:56.39Z</time></trkpt><trkpt lat="43.1694652" lon="11.4784455"><ele>196.0</ele><time>2026-04-11T14:36:57.39Z</time></trkpt><trkpt lat="43.1695216" lon="11.4785553"><ele>196.0</ele><time>2026-04-11T14:36:58.39Z</time></trkpt><trkpt lat="43.1695702" lon="11.4786716"><ele>197.25</ele><time>2026-04-11T14:36:59.391Z</time></trkpt><trkpt lat="43.1696914" lon="11.478934"><ele>198.5</ele><time>2026-04-11T14:37:01.39Z</time></trkpt><trkpt lat="43.169756" lon="11.479053"><ele>199.75</ele><time>2026-04-11T14:37:02.391Z</time></trkpt><trkpt lat="43.1698217" lon="11.4791653"><ele>201.0</ele><time>2026-04-11T14:37:03.391Z</time></trkpt><trkpt lat="43.1698917" lon="11.4792528"><ele>201.0</ele><time>2026-04-11T14:37:04.391Z</time></trkpt><trkpt lat="43.1699641" lon="11.4793334"><ele>201.0</ele><time>2026-04-11T14:37:05.39Z</time></trkpt><trkpt lat="43.1700423" lon="11.4793919"><ele>201.0</ele><time>2026-04-11T14:37:06.391Z</time></trkpt><trkpt lat="43.1701255" lon="11.4794428"><ele>201.0</ele><time>2026-04-11T14:37:07.39Z</time></trkpt><trkpt lat="43.170327" lon="11.4795152"><ele>201.0</ele><time>2026-04-11T14:37:09.39Z</time></trkpt><trkpt lat="43.1704334" lon="11.4795533"><ele>201.0</ele><time>2026-04-11T14:37:10.391Z</time></trkpt><trkpt lat="43.170533" lon="11.4795951"><ele>201.0</ele><time>2026-04-11T14:37:11.39Z</time></trkpt><trkpt lat="43.1706279" lon="11.4796445"><ele>201.0</ele><time>2026-04-11T14:37:12.39Z</time></trkpt><trkpt lat="43.1707136" lon="11.4797244"><ele>201.0</ele><time>2026-04-11T14:37:13.391Z</time></trkpt><trkpt lat="43.1707927" lon="11.4798103"><ele>201.4</ele><time>2026-04-11T14:37:14.39Z</time></trkpt><trkpt lat="43.1708561" lon="11.479906"><ele>201.8</ele><time>2026-04-11T14:37:15.391Z</time></trkpt><trkpt lat="43.1709083" lon="11.4800044"><ele>202.20000000000002</ele><time>2026-04-11T14:37:16.39Z</time></trkpt><trkpt lat="43.1709581" lon="11.4801403"><ele>202.60000000000002</ele><time>2026-04-11T14:37:17.39Z</time></trkpt><trkpt lat="43.1710053" lon="11.4802796"><ele>203.0</ele><time>2026-04-11T14:37:18.391Z</time></trkpt><trkpt lat="43.1710558" lon="11.48044"><ele>203.0</ele><time>2026-04-11T14:37:19.392Z</time></trkpt><trkpt lat="43.1710947" lon="11.480606"><ele>203.0</ele><time>2026-04-11T14:37:20.391Z</time></trkpt><trkpt lat="43.1711316" lon="11.4807873"><ele>203.0</ele><time>2026-04-11T14:37:21.391Z</time></trkpt><trkpt lat="43.1711633" lon="11.4809833"><ele>203.0</ele><time>2026-04-11T14:37:22.392Z</time></trkpt><trkpt lat="43.1711937" lon="11.4811927"><ele>203.0</ele><time>2026-04-11T14:37:23.391Z</time></trkpt><trkpt lat="43.1712248" lon="11.4813907"><ele>203.0</ele><time>2026-04-11T14:37:24.392Z</time></trkpt><trkpt lat="43.1712497" lon="11.4815684"><ele>203.0</ele><time>2026-04-11T14:37:25.391Z</time></trkpt><trkpt lat="43.1712718" lon="11.4817191"><ele>203.0</ele><time>2026-04-11T14:37:26.392Z</time></trkpt><trkpt lat="43.1712959" lon="11.4818571"><ele>203.0</ele><time>2026-04-11T14:37:27.392Z</time></trkpt><trkpt lat="43.1713185" lon="11.4819962"><ele>203.0</ele><time>2026-04-11T14:37:28.392Z</time></trkpt><trkpt lat="43.1713471" lon="11.4821406"><ele>203.0</ele><time>2026-04-11T14:37:29.392Z</time></trkpt><trkpt lat="43.1713809" lon="11.4822758"><ele>203.0</ele><time>2026-04-11T14:37:30.392Z</time></trkpt><trkpt lat="43.1714241" lon="11.482402"><ele>203.0</ele><time>2026-04-11T14:37:31.392Z</time></trkpt><trkpt lat="43.1714769" lon="11.4825191"><ele>205.0</ele><time>2026-04-11T14:37:32.391Z</time></trkpt><trkpt lat="43.1715345" lon="11.4826373"><ele>207.0</ele><time>2026-04-11T14:37:33.392Z</time></trkpt><trkpt lat="43.1715998" lon="11.4827793"><ele>209.0</ele><time>2026-04-11T14:37:34.392Z</time></trkpt><trkpt lat="43.1716728" lon="11.4829246"><ele>211.0</ele><time>2026-04-11T14:37:35.391Z</time></trkpt><trkpt lat="43.1718082" lon="11.4831627"><ele>211.0</ele><time>2026-04-11T14:37:37.391Z</time></trkpt><trkpt lat="43.1718949" lon="11.4832631"><ele>211.0</ele><time>2026-04-11T14:37:38.391Z</time></trkpt><trkpt lat="43.1719867" lon="11.4833564"><ele>211.0</ele><time>2026-04-11T14:37:39.391Z</time></trkpt><trkpt lat="43.1720855" lon="11.4834514"><ele>211.0</ele><time>2026-04-11T14:37:40.392Z</time></trkpt><trkpt lat="43.1721825" lon="11.4835511"><ele>211.0</ele><time>2026-04-11T14:37:41.392Z</time></trkpt><trkpt lat="43.1722786" lon="11.4836504"><ele>211.0</ele><time>2026-04-11T14:37:42.392Z</time></trkpt><trkpt lat="43.1723721" lon="11.4837387"><ele>211.0</ele><time>2026-04-11T14:37:43.392Z</time></trkpt><trkpt lat="43.1724666" lon="11.4837887"><ele>211.0</ele><time>2026-04-11T14:37:44.392Z</time></trkpt><trkpt lat="43.1725636" lon="11.4838414"><ele>211.0</ele><time>2026-04-11T14:37:45.391Z</time></trkpt><trkpt lat="43.1726613" lon="11.4838877"><ele>213.8</ele><time>2026-04-11T14:37:46.392Z</time></trkpt><trkpt lat="43.1727599" lon="11.4839317"><ele>216.60000000000002</ele><time>2026-04-11T14:37:47.392Z</time></trkpt><trkpt lat="43.1728549" lon="11.4839699"><ele>219.4</ele><time>2026-04-11T14:37:48.392Z</time></trkpt><trkpt lat="43.1729458" lon="11.4840042"><ele>222.2</ele><time>2026-04-11T14:37:49.392Z</time></trkpt><trkpt lat="43.1730415" lon="11.4840396"><ele>225.0</ele><time>2026-04-11T14:37:50.392Z</time></trkpt><trkpt lat="43.1731386" lon="11.484073"><ele>225.8</ele><time>2026-04-11T14:37:51.391Z</time></trkpt><trkpt lat="43.1732372" lon="11.4841039"><ele>226.6</ele><time>2026-04-11T14:37:52.391Z</time></trkpt><trkpt lat="43.1733351" lon="11.4841311"><ele>227.39999999999998</ele><time>2026-04-11T14:37:53.391Z</time></trkpt><trkpt lat="43.1734288" lon="11.4841583"><ele>228.2</ele><time>2026-04-11T14:37:54.391Z</time></trkpt><trkpt lat="43.1735217" lon="11.4841838"><ele>229.0</ele><time>2026-04-11T14:37:55.391Z</time></trkpt><trkpt lat="43.1736292" lon="11.4842127"><ele>229.0</ele><time>2026-04-11T14:37:56.391Z</time></trkpt><trkpt lat="43.1737424" lon="11.4842458"><ele>229.0</ele><time>2026-04-11T14:37:57.392Z</time></trkpt><trkpt lat="43.1738654" lon="11.4842837"><ele>229.0</ele><time>2026-04-11T14:37:58.391Z</time></trkpt><trkpt lat="43.1741191" lon="11.4843653"><ele>229.0</ele><time>2026-04-11T14:38:00.391Z</time></trkpt><trkpt lat="43.1742296" lon="11.4843952"><ele>228.99999999999997</ele><time>2026-04-11T14:38:01.391Z</time></trkpt><trkpt lat="43.1743228" lon="11.4844242"><ele>228.99999999999997</ele><time>2026-04-11T14:38:02.393Z</time></trkpt><trkpt lat="43.1744195" lon="11.4844588"><ele>229.0</ele><time>2026-04-11T14:38:03.392Z</time></trkpt><trkpt lat="43.1745118" lon="11.4844944"><ele>229.0</ele><time>2026-04-11T14:38:04.392Z</time></trkpt><trkpt lat="43.1746059" lon="11.4845425"><ele>229.0</ele><time>2026-04-11T14:38:05.391Z</time></trkpt><trkpt lat="43.1747139" lon="11.4846139"><ele>229.0</ele><time>2026-04-11T14:38:06.392Z</time></trkpt><trkpt lat="43.1748275" lon="11.4846909"><ele>229.0</ele><time>2026-04-11T14:38:07.392Z</time></trkpt><trkpt lat="43.1749414" lon="11.4847665"><ele>229.0</ele><time>2026-04-11T14:38:08.391Z</time></trkpt><trkpt lat="43.1750569" lon="11.4848392"><ele>229.0</ele><time>2026-04-11T14:38:09.391Z</time></trkpt><trkpt lat="43.1751458" lon="11.4848925"><ele>228.99999999999997</ele><time>2026-04-11T14:38:10.392Z</time></trkpt><trkpt lat="43.175223" lon="11.484941"><ele>228.99999999999997</ele><time>2026-04-11T14:38:11.392Z</time></trkpt><trkpt lat="43.1752836" lon="11.4849832"><ele>229.0</ele><time>2026-04-11T14:38:12.393Z</time></trkpt><trkpt lat="43.1753936" lon="11.4850273"><ele>229.0</ele><time>2026-04-11T14:38:14.391Z</time></trkpt><trkpt lat="43.1754768" lon="11.4849941"><ele>228.99999999999997</ele><time>2026-04-11T14:38:16.391Z</time></trkpt><trkpt lat="43.1755446" lon="11.4848876"><ele>229.0</ele><time>2026-04-11T14:38:18.391Z</time></trkpt><trkpt lat="43.1755769" lon="11.4848032"><ele>229.0</ele><time>2026-04-11T14:38:19.391Z</time></trkpt><trkpt lat="43.1756152" lon="11.4847074"><ele>229.0</ele><time>2026-04-11T14:38:20.391Z</time></trkpt><trkpt lat="43.1756586" lon="11.484614"><ele>228.99999999999997</ele><time>2026-04-11T14:38:21.391Z</time></trkpt><trkpt lat="43.1757071" lon="11.4845216"><ele>229.0</ele><time>2026-04-11T14:38:22.393Z</time></trkpt><trkpt lat="43.1757562" lon="11.4844292"><ele>229.0</ele><time>2026-04-11T14:38:23.393Z</time></trkpt><trkpt lat="43.1758004" lon="11.4843389"><ele>228.99999999999997</ele><time>2026-04-11T14:38:24.393Z</time></trkpt><trkpt lat="43.1758348" lon="11.4842461"><ele>228.99999999999997</ele><time>2026-04-11T14:38:25.393Z</time></trkpt><trkpt lat="43.1758499" lon="11.4840075"><ele>229.0</ele><time>2026-04-11T14:38:27.392Z</time></trkpt><trkpt lat="43.1758397" lon="11.4838792"><ele>229.0</ele><time>2026-04-11T14:38:28.393Z</time></trkpt><trkpt lat="43.175827" lon="11.483746"><ele>227.39999999999998</ele><time>2026-04-11T14:38:29.393Z</time></trkpt><trkpt lat="43.1758132" lon="11.4836085"><ele>225.79999999999998</ele><time>2026-04-11T14:38:30.393Z</time></trkpt><trkpt lat="43.1758043" lon="11.4834634"><ele>224.20000000000002</ele><time>2026-04-11T14:38:31.392Z</time></trkpt><trkpt lat="43.1757979" lon="11.4833219"><ele>222.60000000000002</ele><time>2026-04-11T14:38:32.393Z</time></trkpt><trkpt lat="43.1757887" lon="11.4831869"><ele>221.0</ele><time>2026-04-11T14:38:33.393Z</time></trkpt><trkpt lat="43.1757753" lon="11.4830632"><ele>221.00000000000003</ele><time>2026-04-11T14:38:34.392Z</time></trkpt><trkpt lat="43.1757655" lon="11.4829524"><ele>221.0</ele><time>2026-04-11T14:38:35.393Z</time></trkpt><trkpt lat="43.1757456" lon="11.4828564"><ele>221.0</ele><time>2026-04-11T14:38:36.392Z</time></trkpt><trkpt lat="43.1757155" lon="11.4827687"><ele>221.0</ele><time>2026-04-11T14:38:37.392Z</time></trkpt><trkpt lat="43.1756796" lon="11.482681"><ele>221.00000000000003</ele><time>2026-04-11T14:38:38.393Z</time></trkpt><trkpt lat="43.1756502" lon="11.4825828"><ele>221.0</ele><time>2026-04-11T14:38:39.392Z</time></trkpt><trkpt lat="43.1756226" lon="11.4824829"><ele>217.5</ele><time>2026-04-11T14:38:40.392Z</time></trkpt><trkpt lat="43.1756051" lon="11.4823572"><ele>214.0</ele><time>2026-04-11T14:38:41.393Z</time></trkpt><trkpt lat="43.1756485" lon="11.4820489"><ele>210.5</ele><time>2026-04-11T14:38:43.393Z</time></trkpt><trkpt lat="43.1756837" lon="11.4819179"><ele>207.0</ele><time>2026-04-11T14:38:44.393Z</time></trkpt><trkpt lat="43.1757213" lon="11.4817979"><ele>207.0</ele><time>2026-04-11T14:38:45.393Z</time></trkpt><trkpt lat="43.1757739" lon="11.4817228"><ele>207.0</ele><time>2026-04-11T14:38:46.392Z</time></trkpt><trkpt lat="43.1758332" lon="11.4816625"><ele>207.0</ele><time>2026-04-11T14:38:47.393Z</time></trkpt><trkpt lat="43.1758867" lon="11.4816034"><ele>207.0</ele><time>2026-04-11T14:38:48.393Z</time></trkpt><trkpt lat="43.1759436" lon="11.4815377"><ele>207.0</ele><time>2026-04-11T14:38:49.393Z</time></trkpt><trkpt lat="43.1759969" lon="11.4814548"><ele>207.0</ele><time>2026-04-11T14:38:50.392Z</time></trkpt><trkpt lat="43.1760426" lon="11.4813571"><ele>205.2</ele><time>2026-04-11T14:38:51.392Z</time></trkpt><trkpt lat="43.1760792" lon="11.4812445"><ele>203.39999999999998</ele><time>2026-04-11T14:38:52.393Z</time></trkpt><trkpt lat="43.1761049" lon="11.481115"><ele>201.60000000000002</ele><time>2026-04-11T14:38:53.393Z</time></trkpt><trkpt lat="43.1761271" lon="11.480975"><ele>199.8</ele><time>2026-04-11T14:38:54.393Z</time></trkpt><trkpt lat="43.1761442" lon="11.480841"><ele>198.0</ele><time>2026-04-11T14:38:55.392Z</time></trkpt><trkpt lat="43.1761606" lon="11.4807104"><ele>198.0</ele><time>2026-04-11T14:38:56.392Z</time></trkpt><trkpt lat="43.176175" lon="11.4805912"><ele>198.0</ele><time>2026-04-11T14:38:57.392Z</time></trkpt><trkpt lat="43.1761901" lon="11.4804797"><ele>198.0</ele><time>2026-04-11T14:38:58.392Z</time></trkpt><trkpt lat="43.1762071" lon="11.480371"><ele>198.0</ele><time>2026-04-11T14:38:59.392Z</time></trkpt><trkpt lat="43.1762326" lon="11.4802633"><ele>198.0</ele><time>2026-04-11T14:39:00.392Z</time></trkpt><trkpt lat="43.1762756" lon="11.4801612"><ele>198.0</ele><time>2026-04-11T14:39:01.393Z</time></trkpt><trkpt lat="43.176323" lon="11.4800635"><ele>197.4</ele><time>2026-04-11T14:39:02.393Z</time></trkpt><trkpt lat="43.1764001" lon="11.479969"><ele>196.8</ele><time>2026-04-11T14:39:03.393Z</time></trkpt><trkpt lat="43.1764803" lon="11.4798609"><ele>196.2</ele><time>2026-04-11T14:39:04.393Z</time></trkpt><trkpt lat="43.1765518" lon="11.4797536"><ele>195.6</ele><time>2026-04-11T14:39:05.393Z</time></trkpt><trkpt lat="43.1766129" lon="11.4796467"><ele>195.0</ele><time>2026-04-11T14:39:06.393Z</time></trkpt><trkpt lat="43.176656" lon="11.4795345"><ele>193.4</ele><time>2026-04-11T14:39:07.392Z</time></trkpt><trkpt lat="43.1766858" lon="11.4794107"><ele>191.8</ele><time>2026-04-11T14:39:08.393Z</time></trkpt><trkpt lat="43.1767004" lon="11.4792741"><ele>190.2</ele><time>2026-04-11T14:39:09.392Z</time></trkpt><trkpt lat="43.1767012" lon="11.479125"><ele>188.6</ele><time>2026-04-11T14:39:10.393Z</time></trkpt><trkpt lat="43.1766914" lon="11.4789758"><ele>187.0</ele><time>2026-04-11T14:39:11.393Z</time></trkpt><trkpt lat="43.1766798" lon="11.4788294"><ele>185.39999999999998</ele><time>2026-04-11T14:39:12.392Z</time></trkpt><trkpt lat="43.1766701" lon="11.4786805"><ele>183.79999999999998</ele><time>2026-04-11T14:39:13.392Z</time></trkpt><trkpt lat="43.1766671" lon="11.4785275"><ele>182.2</ele><time>2026-04-11T14:39:14.392Z</time></trkpt><trkpt lat="43.1766719" lon="11.4783728"><ele>180.6</ele><time>2026-04-11T14:39:15.392Z</time></trkpt><trkpt lat="43.1766833" lon="11.4782226"><ele>179.0</ele><time>2026-04-11T14:39:16.392Z</time></trkpt><trkpt lat="43.1766994" lon="11.478079"><ele>179.0</ele><time>2026-04-11T14:39:17.392Z</time></trkpt><trkpt lat="43.1767204" lon="11.4779442"><ele>179.0</ele><time>2026-04-11T14:39:18.392Z</time></trkpt><trkpt lat="43.1767525" lon="11.4778176"><ele>179.0</ele><time>2026-04-11T14:39:19.393Z</time></trkpt><trkpt lat="43.1768021" lon="11.4777044"><ele>179.0</ele><time>2026-04-11T14:39:20.393Z</time></trkpt><trkpt lat="43.1768583" lon="11.4775994"><ele>179.0</ele><time>2026-04-11T14:39:21.392Z</time></trkpt><trkpt lat="43.1769557" lon="11.4775388"><ele>176.5</ele><time>2026-04-11T14:39:22.393Z</time></trkpt><trkpt lat="43.1770797" lon="11.4774973"><ele>174.0</ele><time>2026-04-11T14:39:23.392Z</time></trkpt><trkpt lat="43.1772225" lon="11.4774664"><ele>171.5</ele><time>2026-04-11T14:39:24.392Z</time></trkpt><trkpt lat="43.1773772" lon="11.4774388"><ele>169.0</ele><time>2026-04-11T14:39:25.392Z</time></trkpt><trkpt lat="43.1775438" lon="11.477413"><ele>166.33333333333334</ele><time>2026-04-11T14:39:26.393Z</time></trkpt><trkpt lat="43.1777202" lon="11.4773865"><ele>163.66666666666666</ele><time>2026-04-11T14:39:27.394Z</time></trkpt><trkpt lat="43.1778921" lon="11.4773601"><ele>161.0</ele><time>2026-04-11T14:39:28.393Z</time></trkpt><trkpt lat="43.1780587" lon="11.477335"><ele>159.66666666666666</ele><time>2026-04-11T14:39:29.394Z</time></trkpt><trkpt lat="43.1782231" lon="11.4773076"><ele>158.33333333333334</ele><time>2026-04-11T14:39:30.393Z</time></trkpt><trkpt lat="43.1783844" lon="11.4772762"><ele>157.0</ele><time>2026-04-11T14:39:31.394Z</time></trkpt><trkpt lat="43.178542" lon="11.4772396"><ele>157.0</ele><time>2026-04-11T14:39:32.393Z</time></trkpt><trkpt lat="43.1786963" lon="11.4772008"><ele>157.0</ele><time>2026-04-11T14:39:33.394Z</time></trkpt><trkpt lat="43.1788466" lon="11.4771606"><ele>157.0</ele><time>2026-04-11T14:39:34.394Z</time></trkpt><trkpt lat="43.1789901" lon="11.477123"><ele>156.5</ele><time>2026-04-11T14:39:35.394Z</time></trkpt><trkpt lat="43.1791281" lon="11.4770939"><ele>156.0</ele><time>2026-04-11T14:39:36.393Z</time></trkpt><trkpt lat="43.1792654" lon="11.4770824"><ele>155.5</ele><time>2026-04-11T14:39:37.393Z</time></trkpt><trkpt lat="43.1794063" lon="11.4770893"><ele>155.0</ele><time>2026-04-11T14:39:38.393Z</time></trkpt><trkpt lat="43.1795503" lon="11.4771113"><ele>155.0</ele><time>2026-04-11T14:39:39.393Z</time></trkpt><trkpt lat="43.1797006" lon="11.4771423"><ele>155.0</ele><time>2026-04-11T14:39:40.394Z</time></trkpt><trkpt lat="43.1798545" lon="11.4771812"><ele>155.0</ele><time>2026-04-11T14:39:41.393Z</time></trkpt><trkpt lat="43.1800064" lon="11.4772271"><ele>155.0</ele><time>2026-04-11T14:39:42.393Z</time></trkpt><trkpt lat="43.1801518" lon="11.4772715"><ele>155.0</ele><time>2026-04-11T14:39:43.394Z</time></trkpt><trkpt lat="43.1802873" lon="11.4773113"><ele>155.0</ele><time>2026-04-11T14:39:44.394Z</time></trkpt><trkpt lat="43.1804197" lon="11.4773472"><ele>155.0</ele><time>2026-04-11T14:39:45.393Z</time></trkpt><trkpt lat="43.1805602" lon="11.4773819"><ele>155.33333333333331</ele><time>2026-04-11T14:39:46.394Z</time></trkpt><trkpt lat="43.1807134" lon="11.4774124"><ele>155.66666666666666</ele><time>2026-04-11T14:39:47.393Z</time></trkpt><trkpt lat="43.1808743" lon="11.4774433"><ele>156.0</ele><time>2026-04-11T14:39:48.393Z</time></trkpt><trkpt lat="43.181033" lon="11.4774799"><ele>156.0</ele><time>2026-04-11T14:39:49.394Z</time></trkpt><trkpt lat="43.181187" lon="11.4775207"><ele>156.0</ele><time>2026-04-11T14:39:50.393Z</time></trkpt><trkpt lat="43.1813393" lon="11.4775632"><ele>156.0</ele><time>2026-04-11T14:39:51.394Z</time></trkpt><trkpt lat="43.1814864" lon="11.4776004"><ele>156.0</ele><time>2026-04-11T14:39:52.394Z</time></trkpt><trkpt lat="43.1816256" lon="11.4776364"><ele>156.0</ele><time>2026-04-11T14:39:53.394Z</time></trkpt><trkpt lat="43.1817582" lon="11.4776746"><ele>156.0</ele><time>2026-04-11T14:39:54.394Z</time></trkpt><trkpt lat="43.1818845" lon="11.4777121"><ele>156.0</ele><time>2026-04-11T14:39:55.393Z</time></trkpt><trkpt lat="43.1820004" lon="11.477748"><ele>156.0</ele><time>2026-04-11T14:39:56.393Z</time></trkpt><trkpt lat="43.1821061" lon="11.4777829"><ele>156.0</ele><time>2026-04-11T14:39:57.394Z</time></trkpt><trkpt lat="43.1822042" lon="11.4778161"><ele>156.0</ele><time>2026-04-11T14:39:58.393Z</time></trkpt><trkpt lat="43.1822945" lon="11.4778433"><ele>156.0</ele><time>2026-04-11T14:39:59.393Z</time></trkpt><trkpt lat="43.1823742" lon="11.4778548"><ele>156.0</ele><time>2026-04-11T14:40:00.393Z</time></trkpt><trkpt lat="43.1824495" lon="11.4778402"><ele>155.8</ele><time>2026-04-11T14:40:01.394Z</time></trkpt><trkpt lat="43.1825248" lon="11.4778054"><ele>155.6</ele><time>2026-04-11T14:40:02.394Z</time></trkpt><trkpt lat="43.1826038" lon="11.4777335"><ele>155.4</ele><time>2026-04-11T14:40:03.394Z</time></trkpt><trkpt lat="43.1826884" lon="11.4776467"><ele>155.2</ele><time>2026-04-11T14:40:04.394Z</time></trkpt><trkpt lat="43.1827795" lon="11.4775503"><ele>155.0</ele><time>2026-04-11T14:40:05.393Z</time></trkpt><trkpt lat="43.1828796" lon="11.4774521"><ele>155.0</ele><time>2026-04-11T14:40:06.394Z</time></trkpt><trkpt lat="43.182991" lon="11.4773555"><ele>155.0</ele><time>2026-04-11T14:40:07.394Z</time></trkpt><trkpt lat="43.183106" lon="11.4772629"><ele>155.0</ele><time>2026-04-11T14:40:08.393Z</time></trkpt><trkpt lat="43.1832212" lon="11.4771728"><ele>155.0</ele><time>2026-04-11T14:40:09.393Z</time></trkpt><trkpt lat="43.1833328" lon="11.4770816"><ele>154.5</ele><time>2026-04-11T14:40:10.394Z</time></trkpt><trkpt lat="43.1834428" lon="11.4769876"><ele>154.0</ele><time>2026-04-11T14:40:11.393Z</time></trkpt><trkpt lat="43.1835562" lon="11.4768908"><ele>153.5</ele><time>2026-04-11T14:40:12.393Z</time></trkpt><trkpt lat="43.1836707" lon="11.4767985"><ele>153.0</ele><time>2026-04-11T14:40:13.393Z</time></trkpt><trkpt lat="43.1837849" lon="11.4767043"><ele>153.0</ele><time>2026-04-11T14:40:14.394Z</time></trkpt><trkpt lat="43.1838973" lon="11.4766108"><ele>153.0</ele><time>2026-04-11T14:40:15.393Z</time></trkpt><trkpt lat="43.1840122" lon="11.4765174"><ele>153.0</ele><time>2026-04-11T14:40:16.394Z</time></trkpt><trkpt lat="43.1841311" lon="11.4764266"><ele>153.0</ele><time>2026-04-11T14:40:17.394Z</time></trkpt><trkpt lat="43.1842522" lon="11.4763329"><ele>153.25</ele><time>2026-04-11T14:40:18.394Z</time></trkpt><trkpt lat="43.1843754" lon="11.476234"><ele>153.5</ele><time>2026-04-11T14:40:19.394Z</time></trkpt><trkpt lat="43.1844987" lon="11.4761346"><ele>153.75</ele><time>2026-04-11T14:40:20.395Z</time></trkpt><trkpt lat="43.1846273" lon="11.4760284"><ele>154.0</ele><time>2026-04-11T14:40:21.394Z</time></trkpt><trkpt lat="43.184756" lon="11.4759236"><ele>154.25</ele><time>2026-04-11T14:40:22.393Z</time></trkpt><trkpt lat="43.1848814" lon="11.4758187"><ele>154.5</ele><time>2026-04-11T14:40:23.394Z</time></trkpt><trkpt lat="43.1850061" lon="11.475712"><ele>154.75</ele><time>2026-04-11T14:40:24.393Z</time></trkpt><trkpt lat="43.1851356" lon="11.4756055"><ele>155.0</ele><time>2026-04-11T14:40:25.394Z</time></trkpt><trkpt lat="43.185274" lon="11.4754908"><ele>154.66666666666666</ele><time>2026-04-11T14:40:26.394Z</time></trkpt><trkpt lat="43.1854163" lon="11.4753696"><ele>154.33333333333334</ele><time>2026-04-11T14:40:27.394Z</time></trkpt><trkpt lat="43.1855571" lon="11.4752528"><ele>154.0</ele><time>2026-04-11T14:40:28.393Z</time></trkpt><trkpt lat="43.1856903" lon="11.4751428"><ele>154.0</ele><time>2026-04-11T14:40:29.394Z</time></trkpt><trkpt lat="43.1858143" lon="11.4750383"><ele>154.0</ele><time>2026-04-11T14:40:30.393Z</time></trkpt><trkpt lat="43.1859353" lon="11.4749421"><ele>154.0</ele><time>2026-04-11T14:40:31.395Z</time></trkpt><trkpt lat="43.1860546" lon="11.4748663"><ele>154.0</ele><time>2026-04-11T14:40:32.395Z</time></trkpt><trkpt lat="43.1861646" lon="11.4748149"><ele>154.0</ele><time>2026-04-11T14:40:33.395Z</time></trkpt><trkpt lat="43.1862653" lon="11.4747883"><ele>154.0</ele><time>2026-04-11T14:40:34.394Z</time></trkpt><trkpt lat="43.1863647" lon="11.47479"><ele>154.0</ele><time>2026-04-11T14:40:35.394Z</time></trkpt><trkpt lat="43.1864739" lon="11.4748084"><ele>154.0</ele><time>2026-04-11T14:40:36.394Z</time></trkpt><trkpt lat="43.1865932" lon="11.4748214"><ele>154.0</ele><time>2026-04-11T14:40:37.395Z</time></trkpt><trkpt lat="43.1867192" lon="11.4748157"><ele>154.25</ele><time>2026-04-11T14:40:38.394Z</time></trkpt><trkpt lat="43.1868436" lon="11.4747961"><ele>154.5</ele><time>2026-04-11T14:40:39.395Z</time></trkpt><trkpt lat="43.1869575" lon="11.4747706"><ele>154.75</ele><time>2026-04-11T14:40:40.394Z</time></trkpt><trkpt lat="43.1870629" lon="11.4747528"><ele>155.0</ele><time>2026-04-11T14:40:41.395Z</time></trkpt><trkpt lat="43.1871691" lon="11.4747468"><ele>155.0</ele><time>2026-04-11T14:40:42.395Z</time></trkpt><trkpt lat="43.1872769" lon="11.4747536"><ele>155.0</ele><time>2026-04-11T14:40:43.394Z</time></trkpt><trkpt lat="43.1873824" lon="11.4747765"><ele>155.0</ele><time>2026-04-11T14:40:44.394Z</time></trkpt><trkpt lat="43.1874762" lon="11.4748155"><ele>155.0</ele><time>2026-04-11T14:40:45.394Z</time></trkpt><trkpt lat="43.1875581" lon="11.4748865"><ele>155.0</ele><time>2026-04-11T14:40:46.395Z</time></trkpt><trkpt lat="43.1876373" lon="11.4749548"><ele>155.66666666666666</ele><time>2026-04-11T14:40:47.395Z</time></trkpt><trkpt lat="43.1877047" lon="11.4749932"><ele>156.33333333333331</ele><time>2026-04-11T14:40:48.395Z</time></trkpt><trkpt lat="43.1878246" lon="11.4749666"><ele>157.0</ele><time>2026-04-11T14:40:50.394Z</time></trkpt><trkpt lat="43.187896" lon="11.4748595"><ele>157.66666666666666</ele><time>2026-04-11T14:40:52.395Z</time></trkpt><trkpt lat="43.1879232" lon="11.474776"><ele>158.33333333333334</ele><time>2026-04-11T14:40:53.394Z</time></trkpt><trkpt lat="43.1879496" lon="11.4746695"><ele>159.0</ele><time>2026-04-11T14:40:54.394Z</time></trkpt><trkpt lat="43.187978" lon="11.4745515"><ele>159.0</ele><time>2026-04-11T14:40:55.395Z</time></trkpt><trkpt lat="43.1880149" lon="11.474436"><ele>159.0</ele><time>2026-04-11T14:40:56.394Z</time></trkpt><trkpt lat="43.1880681" lon="11.4743387"><ele>159.0</ele><time>2026-04-11T14:40:57.394Z</time></trkpt><trkpt lat="43.1881337" lon="11.4742597"><ele>159.0</ele><time>2026-04-11T14:40:58.395Z</time></trkpt><trkpt lat="43.1882158" lon="11.4741936"><ele>159.0</ele><time>2026-04-11T14:40:59.394Z</time></trkpt><trkpt lat="43.1883124" lon="11.4741282"><ele>160.2</ele><time>2026-04-11T14:41:00.395Z</time></trkpt><trkpt lat="43.188407" lon="11.4740573"><ele>161.4</ele><time>2026-04-11T14:41:01.395Z</time></trkpt><trkpt lat="43.1884854" lon="11.4739664"><ele>162.6</ele><time>2026-04-11T14:41:02.394Z</time></trkpt><trkpt lat="43.18854" lon="11.4738529"><ele>163.8</ele><time>2026-04-11T14:41:03.394Z</time></trkpt><trkpt lat="43.188583" lon="11.4737257"><ele>165.0</ele><time>2026-04-11T14:41:04.394Z</time></trkpt><trkpt lat="43.1886235" lon="11.4735906"><ele>165.0</ele><time>2026-04-11T14:41:05.395Z</time></trkpt><trkpt lat="43.1886618" lon="11.4734425"><ele>165.0</ele><time>2026-04-11T14:41:06.394Z</time></trkpt><trkpt lat="43.1887142" lon="11.4732941"><ele>165.0</ele><time>2026-04-11T14:41:07.395Z</time></trkpt><trkpt lat="43.1887733" lon="11.4731384"><ele>165.0</ele><time>2026-04-11T14:41:08.395Z</time></trkpt><trkpt lat="43.1888402" lon="11.4729802"><ele>164.0</ele><time>2026-04-11T14:41:09.395Z</time></trkpt><trkpt lat="43.1889096" lon="11.4728197"><ele>163.0</ele><time>2026-04-11T14:41:10.394Z</time></trkpt><trkpt lat="43.1889746" lon="11.4726561"><ele>162.0</ele><time>2026-04-11T14:41:11.395Z</time></trkpt><trkpt lat="43.1890303" lon="11.4724907"><ele>161.0</ele><time>2026-04-11T14:41:12.394Z</time></trkpt><trkpt lat="43.1890724" lon="11.4723294"><ele>162.5</ele><time>2026-04-11T14:41:13.394Z</time></trkpt><trkpt lat="43.1891097" lon="11.4721734"><ele>164.0</ele><time>2026-04-11T14:41:14.395Z</time></trkpt><trkpt lat="43.1891481" lon="11.472024"><ele>165.5</ele><time>2026-04-11T14:41:15.395Z</time></trkpt><trkpt lat="43.1891914" lon="11.471884"><ele>167.0</ele><time>2026-04-11T14:41:16.394Z</time></trkpt><trkpt lat="43.1892363" lon="11.4717489"><ele>167.0</ele><time>2026-04-11T14:41:17.394Z</time></trkpt><trkpt lat="43.1892936" lon="11.4716206"><ele>167.0</ele><time>2026-04-11T14:41:18.394Z</time></trkpt><trkpt lat="43.1893688" lon="11.4715037"><ele>167.0</ele><time>2026-04-11T14:41:19.395Z</time></trkpt><trkpt lat="43.1894534" lon="11.4714024"><ele>167.0</ele><time>2026-04-11T14:41:20.394Z</time></trkpt><trkpt lat="43.1895425" lon="11.4713173"><ele>167.0</ele><time>2026-04-11T14:41:21.395Z</time></trkpt><trkpt lat="43.1896443" lon="11.4712441"><ele>166.33333333333331</ele><time>2026-04-11T14:41:22.395Z</time></trkpt><trkpt lat="43.1897557" lon="11.4711782"><ele>165.66666666666666</ele><time>2026-04-11T14:41:23.394Z</time></trkpt><trkpt lat="43.1899848" lon="11.4710593"><ele>165.0</ele><time>2026-04-11T14:41:25.394Z</time></trkpt><trkpt lat="43.1900967" lon="11.47098"><ele>165.0</ele><time>2026-04-11T14:41:26.395Z</time></trkpt><trkpt lat="43.1902086" lon="11.4708798"><ele>165.0</ele><time>2026-04-11T14:41:27.394Z</time></trkpt><trkpt lat="43.1903135" lon="11.4707652"><ele>165.0</ele><time>2026-04-11T14:41:28.395Z</time></trkpt><trkpt lat="43.1904159" lon="11.4706508"><ele>165.0</ele><time>2026-04-11T14:41:29.394Z</time></trkpt><trkpt lat="43.1905104" lon="11.4705394"><ele>164.25</ele><time>2026-04-11T14:41:30.394Z</time></trkpt><trkpt lat="43.1905991" lon="11.4704323"><ele>163.5</ele><time>2026-04-11T14:41:31.394Z</time></trkpt><trkpt lat="43.1906813" lon="11.4703216"><ele>162.75</ele><time>2026-04-11T14:41:32.394Z</time></trkpt><trkpt lat="43.1907573" lon="11.4702035"><ele>162.0</ele><time>2026-04-11T14:41:33.394Z</time></trkpt><trkpt lat="43.1908285" lon="11.470071"><ele>162.0</ele><time>2026-04-11T14:41:34.394Z</time></trkpt><trkpt lat="43.1909003" lon="11.4699265"><ele>162.0</ele><time>2026-04-11T14:41:35.396Z</time></trkpt><trkpt lat="43.19097" lon="11.4697708"><ele>162.0</ele><time>2026-04-11T14:41:36.395Z</time></trkpt><trkpt lat="43.1910353" lon="11.469611"><ele>162.0</ele><time>2026-04-11T14:41:37.396Z</time></trkpt><trkpt lat="43.1910949" lon="11.4694613"><ele>160.75</ele><time>2026-04-11T14:41:38.395Z</time></trkpt><trkpt lat="43.1911533" lon="11.4693216"><ele>159.5</ele><time>2026-04-11T14:41:39.396Z</time></trkpt><trkpt lat="43.1912171" lon="11.4691926"><ele>158.25</ele><time>2026-04-11T14:41:40.395Z</time></trkpt><trkpt lat="43.1912922" lon="11.4690752"><ele>157.0</ele><time>2026-04-11T14:41:41.396Z</time></trkpt><trkpt lat="43.1913822" lon="11.4689673"><ele>157.0</ele><time>2026-04-11T14:41:42.395Z</time></trkpt><trkpt lat="43.1914811" lon="11.4688629"><ele>157.0</ele><time>2026-04-11T14:41:43.395Z</time></trkpt><trkpt lat="43.1915841" lon="11.4687618"><ele>157.0</ele><time>2026-04-11T14:41:44.395Z</time></trkpt><trkpt lat="43.1916918" lon="11.4686633"><ele>157.0</ele><time>2026-04-11T14:41:45.395Z</time></trkpt><trkpt lat="43.1917951" lon="11.4685704"><ele>157.5</ele><time>2026-04-11T14:41:46.396Z</time></trkpt><trkpt lat="43.1918956" lon="11.4684741"><ele>158.0</ele><time>2026-04-11T14:41:47.396Z</time></trkpt><trkpt lat="43.1920011" lon="11.4683664"><ele>158.5</ele><time>2026-04-11T14:41:48.395Z</time></trkpt><trkpt lat="43.1921152" lon="11.4682527"><ele>159.0</ele><time>2026-04-11T14:41:49.395Z</time></trkpt><trkpt lat="43.1922345" lon="11.4681356"><ele>159.33333333333334</ele><time>2026-04-11T14:41:50.396Z</time></trkpt><trkpt lat="43.1923565" lon="11.4680172"><ele>159.66666666666669</ele><time>2026-04-11T14:41:51.396Z</time></trkpt><trkpt lat="43.1924779" lon="11.4678976"><ele>160.0</ele><time>2026-04-11T14:41:52.395Z</time></trkpt><trkpt lat="43.1926005" lon="11.4677773"><ele>158.66666666666669</ele><time>2026-04-11T14:41:53.395Z</time></trkpt><trkpt lat="43.1927246" lon="11.4676549"><ele>157.33333333333334</ele><time>2026-04-11T14:41:54.396Z</time></trkpt><trkpt lat="43.192852" lon="11.4675294"><ele>156.0</ele><time>2026-04-11T14:41:55.395Z</time></trkpt><trkpt lat="43.1929853" lon="11.4674001"><ele>156.0</ele><time>2026-04-11T14:41:56.396Z</time></trkpt><trkpt lat="43.1931158" lon="11.4672754"><ele>156.0</ele><time>2026-04-11T14:41:57.396Z</time></trkpt><trkpt lat="43.1932411" lon="11.4671581"><ele>156.0</ele><time>2026-04-11T14:41:58.396Z</time></trkpt><trkpt lat="43.1933646" lon="11.4670441"><ele>156.0</ele><time>2026-04-11T14:41:59.395Z</time></trkpt><trkpt lat="43.193488" lon="11.4669297"><ele>156.0</ele><time>2026-04-11T14:42:00.395Z</time></trkpt><trkpt lat="43.1936123" lon="11.4668137"><ele>156.0</ele><time>2026-04-11T14:42:01.396Z</time></trkpt><trkpt lat="43.1937391" lon="11.4666967"><ele>156.0</ele><time>2026-04-11T14:42:02.396Z</time></trkpt><trkpt lat="43.193867" lon="11.4665794"><ele>156.0</ele><time>2026-04-11T14:42:03.396Z</time></trkpt><trkpt lat="43.1939948" lon="11.4664636"><ele>156.0</ele><time>2026-04-11T14:42:04.396Z</time></trkpt><trkpt lat="43.194119" lon="11.466347"><ele>155.75</ele><time>2026-04-11T14:42:05.396Z</time></trkpt><trkpt lat="43.1942428" lon="11.46623"><ele>155.5</ele><time>2026-04-11T14:42:06.396Z</time></trkpt><trkpt lat="43.1943596" lon="11.4661159"><ele>155.25</ele><time>2026-04-11T14:42:07.396Z</time></trkpt><trkpt lat="43.1944746" lon="11.4660046"><ele>155.0</ele><time>2026-04-11T14:42:08.395Z</time></trkpt><trkpt lat="43.1945815" lon="11.4659053"><ele>155.0</ele><time>2026-04-11T14:42:09.395Z</time></trkpt><trkpt lat="43.1946688" lon="11.4658271"><ele>155.0</ele><time>2026-04-11T14:42:10.396Z</time></trkpt><trkpt lat="43.1947384" lon="11.4657634"><ele>155.0</ele><time>2026-04-11T14:42:11.396Z</time></trkpt><trkpt lat="43.1947946" lon="11.4657113"><ele>155.0</ele><time>2026-04-11T14:42:12.396Z</time></trkpt><trkpt lat="43.194859" lon="11.465659"><ele>155.0</ele><time>2026-04-11T14:42:14.396Z</time></trkpt><trkpt lat="43.1949515" lon="11.4657296"><ele>155.0</ele><time>2026-04-11T14:42:17.396Z</time></trkpt><trkpt lat="43.1950361" lon="11.4658895"><ele>155.0</ele><time>2026-04-11T14:42:19.395Z</time></trkpt><trkpt lat="43.1950978" lon="11.4659977"><ele>155.0</ele><time>2026-04-11T14:42:20.396Z</time></trkpt><trkpt lat="43.1951627" lon="11.466095"><ele>155.0</ele><time>2026-04-11T14:42:21.395Z</time></trkpt><trkpt lat="43.1952186" lon="11.4661689"><ele>155.0</ele><time>2026-04-11T14:42:22.396Z</time></trkpt><trkpt lat="43.1952991" lon="11.4662832"><ele>155.0</ele><time>2026-04-11T14:42:24.396Z</time></trkpt><trkpt lat="43.1953757" lon="11.466406"><ele>155.5</ele><time>2026-04-11T14:42:26.395Z</time></trkpt><trkpt lat="43.1954193" lon="11.4665594"><ele>156.0</ele><time>2026-04-11T14:42:28.396Z</time></trkpt><trkpt lat="43.1954298" lon="11.4666458"><ele>156.5</ele><time>2026-04-11T14:42:29.395Z</time></trkpt><trkpt lat="43.1954393" lon="11.4667351"><ele>157.0</ele><time>2026-04-11T14:42:30.395Z</time></trkpt><trkpt lat="43.1954513" lon="11.4668344"><ele>157.5</ele><time>2026-04-11T14:42:31.395Z</time></trkpt><trkpt lat="43.1954635" lon="11.4669469"><ele>158.0</ele><time>2026-04-11T14:42:32.395Z</time></trkpt><trkpt lat="43.1954747" lon="11.4670753"><ele>158.4</ele><time>2026-04-11T14:42:33.396Z</time></trkpt><trkpt lat="43.1954857" lon="11.4672088"><ele>158.8</ele><time>2026-04-11T14:42:34.395Z</time></trkpt><trkpt lat="43.1955006" lon="11.4673412"><ele>159.2</ele><time>2026-04-11T14:42:35.396Z</time></trkpt><trkpt lat="43.1955245" lon="11.467469"><ele>159.6</ele><time>2026-04-11T14:42:36.395Z</time></trkpt><trkpt lat="43.1955641" lon="11.4675743"><ele>160.0</ele><time>2026-04-11T14:42:37.395Z</time></trkpt><trkpt lat="43.1956209" lon="11.4676557"><ele>161.0</ele><time>2026-04-11T14:42:38.395Z</time></trkpt><trkpt lat="43.1956983" lon="11.4677015"><ele>162.0</ele><time>2026-04-11T14:42:39.396Z</time></trkpt><trkpt lat="43.1957829" lon="11.4677212"><ele>163.0</ele><time>2026-04-11T14:42:40.395Z</time></trkpt><trkpt lat="43.1958815" lon="11.467735"><ele>164.0</ele><time>2026-04-11T14:42:41.397Z</time></trkpt><trkpt lat="43.1959863" lon="11.4677577"><ele>165.0</ele><time>2026-04-11T14:42:42.397Z</time></trkpt><trkpt lat="43.1960864" lon="11.467804"><ele>165.0</ele><time>2026-04-11T14:42:43.397Z</time></trkpt><trkpt lat="43.1961816" lon="11.4678725"><ele>165.0</ele><time>2026-04-11T14:42:44.397Z</time></trkpt><trkpt lat="43.1962707" lon="11.4679614"><ele>165.0</ele><time>2026-04-11T14:42:45.396Z</time></trkpt><trkpt lat="43.1963521" lon="11.4680706"><ele>165.0</ele><time>2026-04-11T14:42:46.397Z</time></trkpt><trkpt lat="43.1964261" lon="11.4681984"><ele>165.4</ele><time>2026-04-11T14:42:47.396Z</time></trkpt><trkpt lat="43.1964962" lon="11.468331"><ele>165.8</ele><time>2026-04-11T14:42:48.397Z</time></trkpt><trkpt lat="43.1965585" lon="11.4684574"><ele>166.2</ele><time>2026-04-11T14:42:49.397Z</time></trkpt><trkpt lat="43.1966038" lon="11.4685719"><ele>166.6</ele><time>2026-04-11T14:42:50.397Z</time></trkpt><trkpt lat="43.1966304" lon="11.468684"><ele>167.0</ele><time>2026-04-11T14:42:51.397Z</time></trkpt><trkpt lat="43.196641" lon="11.4688074"><ele>169.33333333333331</ele><time>2026-04-11T14:42:52.397Z</time></trkpt><trkpt lat="43.1966509" lon="11.468929"><ele>171.66666666666666</ele><time>2026-04-11T14:42:53.396Z</time></trkpt><trkpt lat="43.1966746" lon="11.4690327"><ele>174.0</ele><time>2026-04-11T14:42:54.396Z</time></trkpt><trkpt lat="43.1967141" lon="11.4691164"><ele>176.33333333333334</ele><time>2026-04-11T14:42:55.396Z</time></trkpt><trkpt lat="43.1967744" lon="11.4691944"><ele>178.66666666666669</ele><time>2026-04-11T14:42:56.396Z</time></trkpt><trkpt lat="43.1968442" lon="11.4692768"><ele>181.0</ele><time>2026-04-11T14:42:57.397Z</time></trkpt><trkpt lat="43.1969107" lon="11.4693686"><ele>181.0</ele><time>2026-04-11T14:42:58.396Z</time></trkpt><trkpt lat="43.196979" lon="11.4694855"><ele>181.0</ele><time>2026-04-11T14:42:59.397Z</time></trkpt><trkpt lat="43.197034" lon="11.4696055"><ele>181.0</ele><time>2026-04-11T14:43:00.396Z</time></trkpt><trkpt lat="43.1970857" lon="11.4697373"><ele>181.0</ele><time>2026-04-11T14:43:01.396Z</time></trkpt><trkpt lat="43.1971357" lon="11.4698735"><ele>181.0</ele><time>2026-04-11T14:43:02.397Z</time></trkpt><trkpt lat="43.1972363" lon="11.4701681"><ele>181.16666666666669</ele><time>2026-04-11T14:43:04.396Z</time></trkpt><trkpt lat="43.1972837" lon="11.4702914"><ele>181.33333333333334</ele><time>2026-04-11T14:43:05.397Z</time></trkpt><trkpt lat="43.1973371" lon="11.470391"><ele>181.5</ele><time>2026-04-11T14:43:06.396Z</time></trkpt><trkpt lat="43.1973955" lon="11.4704632"><ele>181.66666666666666</ele><time>2026-04-11T14:43:07.397Z</time></trkpt><trkpt lat="43.1974574" lon="11.4705297"><ele>181.83333333333331</ele><time>2026-04-11T14:43:08.396Z</time></trkpt><trkpt lat="43.1975304" lon="11.4705661"><ele>182.0</ele><time>2026-04-11T14:43:09.396Z</time></trkpt><trkpt lat="43.1976146" lon="11.4705906"><ele>185.6</ele><time>2026-04-11T14:43:10.396Z</time></trkpt><trkpt lat="43.1977003" lon="11.4706081"><ele>189.2</ele><time>2026-04-11T14:43:11.396Z</time></trkpt><trkpt lat="43.197793" lon="11.4706201"><ele>192.8</ele><time>2026-04-11T14:43:12.397Z</time></trkpt><trkpt lat="43.1979663" lon="11.4706668"><ele>196.4</ele><time>2026-04-11T14:43:14.396Z</time></trkpt><trkpt lat="43.1980407" lon="11.4707364"><ele>200.0</ele><time>2026-04-11T14:43:15.397Z</time></trkpt><trkpt lat="43.1981184" lon="11.4708144"><ele>200.8</ele><time>2026-04-11T14:43:16.396Z</time></trkpt><trkpt lat="43.1981904" lon="11.4708951"><ele>201.6</ele><time>2026-04-11T14:43:17.397Z</time></trkpt><trkpt lat="43.1982691" lon="11.4709973"><ele>202.39999999999998</ele><time>2026-04-11T14:43:18.396Z</time></trkpt><trkpt lat="43.1983321" lon="11.4711077"><ele>203.2</ele><time>2026-04-11T14:43:19.396Z</time></trkpt><trkpt lat="43.198393" lon="11.4712385"><ele>204.0</ele><time>2026-04-11T14:43:20.397Z</time></trkpt><trkpt lat="43.1984464" lon="11.4714026"><ele>205.5</ele><time>2026-04-11T14:43:21.397Z</time></trkpt><trkpt lat="43.1984952" lon="11.4715667"><ele>207.0</ele><time>2026-04-11T14:43:22.396Z</time></trkpt><trkpt lat="43.1985264" lon="11.4717096"><ele>208.5</ele><time>2026-04-11T14:43:23.397Z</time></trkpt><trkpt lat="43.198544" lon="11.4718556"><ele>210.0</ele><time>2026-04-11T14:43:24.397Z</time></trkpt><trkpt lat="43.1985437" lon="11.4720273"><ele>210.6</ele><time>2026-04-11T14:43:25.396Z</time></trkpt><trkpt lat="43.1985272" lon="11.4722065"><ele>211.2</ele><time>2026-04-11T14:43:26.397Z</time></trkpt><trkpt lat="43.1985051" lon="11.4723546"><ele>211.8</ele><time>2026-04-11T14:43:27.396Z</time></trkpt><trkpt lat="43.1984891" lon="11.4724848"><ele>212.4</ele><time>2026-04-11T14:43:28.397Z</time></trkpt><trkpt lat="43.1984806" lon="11.4726104"><ele>213.0</ele><time>2026-04-11T14:43:29.396Z</time></trkpt><trkpt lat="43.1984808" lon="11.4727377"><ele>213.0</ele><time>2026-04-11T14:43:30.396Z</time></trkpt><trkpt lat="43.1984873" lon="11.4728722"><ele>213.0</ele><time>2026-04-11T14:43:31.396Z</time></trkpt><trkpt lat="43.1985055" lon="11.4730003"><ele>213.0</ele><time>2026-04-11T14:43:32.397Z</time></trkpt><trkpt lat="43.1985451" lon="11.4731185"><ele>213.0</ele><time>2026-04-11T14:43:33.397Z</time></trkpt><trkpt lat="43.1986145" lon="11.4732546"><ele>213.0</ele><time>2026-04-11T14:43:34.396Z</time></trkpt><trkpt lat="43.1986944" lon="11.4733805"><ele>213.2</ele><time>2026-04-11T14:43:35.397Z</time></trkpt><trkpt lat="43.1987616" lon="11.4734912"><ele>213.4</ele><time>2026-04-11T14:43:36.397Z</time></trkpt><trkpt lat="43.1988175" lon="11.4735982"><ele>213.59999999999997</ele><time>2026-04-11T14:43:37.396Z</time></trkpt><trkpt lat="43.1988609" lon="11.473709"><ele>213.79999999999998</ele><time>2026-04-11T14:43:38.397Z</time></trkpt><trkpt lat="43.1988797" lon="11.47384"><ele>214.0</ele><time>2026-04-11T14:43:39.397Z</time></trkpt><trkpt lat="43.1988826" lon="11.474001"><ele>212.2</ele><time>2026-04-11T14:43:40.396Z</time></trkpt><trkpt lat="43.198875" lon="11.474169"><ele>210.39999999999998</ele><time>2026-04-11T14:43:41.397Z</time></trkpt><trkpt lat="43.1988748" lon="11.4743205"><ele>208.6</ele><time>2026-04-11T14:43:42.397Z</time></trkpt><trkpt lat="43.1988939" lon="11.4744555"><ele>206.8</ele><time>2026-04-11T14:43:43.397Z</time></trkpt><trkpt lat="43.1989342" lon="11.4745742"><ele>205.0</ele><time>2026-04-11T14:43:44.396Z</time></trkpt><trkpt lat="43.1989964" lon="11.4746898"><ele>203.5</ele><time>2026-04-11T14:43:45.398Z</time></trkpt><trkpt lat="43.1990721" lon="11.4748187"><ele>202.0</ele><time>2026-04-11T14:43:46.397Z</time></trkpt><trkpt lat="43.1991517" lon="11.4749548"><ele>200.5</ele><time>2026-04-11T14:43:47.397Z</time></trkpt><trkpt lat="43.1992296" lon="11.4750903"><ele>199.0</ele><time>2026-04-11T14:43:48.398Z</time></trkpt><trkpt lat="43.1992998" lon="11.4752162"><ele>196.5</ele><time>2026-04-11T14:43:49.398Z</time></trkpt><trkpt lat="43.1994517" lon="11.4754534"><ele>194.0</ele><time>2026-04-11T14:43:51.398Z</time></trkpt><trkpt lat="43.1995297" lon="11.4755511"><ele>191.5</ele><time>2026-04-11T14:43:52.397Z</time></trkpt><trkpt lat="43.1996069" lon="11.4756383"><ele>189.0</ele><time>2026-04-11T14:43:53.397Z</time></trkpt><trkpt lat="43.1996907" lon="11.4757046"><ele>189.0</ele><time>2026-04-11T14:43:54.398Z</time></trkpt><trkpt lat="43.199779" lon="11.4757649"><ele>189.0</ele><time>2026-04-11T14:43:55.398Z</time></trkpt><trkpt lat="43.1998656" lon="11.4758206"><ele>189.0</ele><time>2026-04-11T14:43:56.397Z</time></trkpt><trkpt lat="43.1999544" lon="11.4758953"><ele>189.0</ele><time>2026-04-11T14:43:57.398Z</time></trkpt><trkpt lat="43.2000377" lon="11.4759834"><ele>189.0</ele><time>2026-04-11T14:43:58.398Z</time></trkpt><trkpt lat="43.2001219" lon="11.4760813"><ele>191.0</ele><time>2026-04-11T14:43:59.398Z</time></trkpt><trkpt lat="43.2002111" lon="11.476181"><ele>193.0</ele><time>2026-04-11T14:44:00.397Z</time></trkpt><trkpt lat="43.2003076" lon="11.47628"><ele>195.0</ele><time>2026-04-11T14:44:01.397Z</time></trkpt><trkpt lat="43.2004039" lon="11.47638"><ele>197.0</ele><time>2026-04-11T14:44:02.397Z</time></trkpt><trkpt lat="43.2004987" lon="11.4764794"><ele>197.0</ele><time>2026-04-11T14:44:03.398Z</time></trkpt><trkpt lat="43.2005936" lon="11.4765883"><ele>197.0</ele><time>2026-04-11T14:44:04.398Z</time></trkpt><trkpt lat="43.200686" lon="11.4767297"><ele>197.0</ele><time>2026-04-11T14:44:05.397Z</time></trkpt><trkpt lat="43.200769" lon="11.4768836"><ele>197.0</ele><time>2026-04-11T14:44:06.398Z</time></trkpt><trkpt lat="43.2008519" lon="11.4770579"><ele>200.0</ele><time>2026-04-11T14:44:07.398Z</time></trkpt><trkpt lat="43.200936" lon="11.4772466"><ele>203.0</ele><time>2026-04-11T14:44:08.397Z</time></trkpt><trkpt lat="43.2010151" lon="11.4774392"><ele>206.0</ele><time>2026-04-11T14:44:09.397Z</time></trkpt><trkpt lat="43.2010945" lon="11.4776322"><ele>206.0</ele><time>2026-04-11T14:44:10.398Z</time></trkpt><trkpt lat="43.2011661" lon="11.4778216"><ele>206.0</ele><time>2026-04-11T14:44:11.397Z</time></trkpt><trkpt lat="43.201239" lon="11.4780076"><ele>206.0</ele><time>2026-04-11T14:44:12.398Z</time></trkpt><trkpt lat="43.2013126" lon="11.4781854"><ele>207.0</ele><time>2026-04-11T14:44:13.398Z</time></trkpt><trkpt lat="43.2013866" lon="11.4783638"><ele>208.0</ele><time>2026-04-11T14:44:14.397Z</time></trkpt><trkpt lat="43.2014612" lon="11.4785463"><ele>209.0</ele><time>2026-04-11T14:44:15.398Z</time></trkpt><trkpt lat="43.2015319" lon="11.4787346"><ele>210.33333333333334</ele><time>2026-04-11T14:44:16.397Z</time></trkpt><trkpt lat="43.2015982" lon="11.4789263"><ele>211.66666666666669</ele><time>2026-04-11T14:44:17.397Z</time></trkpt><trkpt lat="43.2016614" lon="11.4791248"><ele>213.0</ele><time>2026-04-11T14:44:18.397Z</time></trkpt><trkpt lat="43.2017212" lon="11.4793284"><ele>213.0</ele><time>2026-04-11T14:44:19.398Z</time></trkpt><trkpt lat="43.2017748" lon="11.4795304"><ele>213.0</ele><time>2026-04-11T14:44:20.398Z</time></trkpt><trkpt lat="43.201828" lon="11.4797286"><ele>213.0</ele><time>2026-04-11T14:44:21.397Z</time></trkpt><trkpt lat="43.2018811" lon="11.4799214"><ele>212.75</ele><time>2026-04-11T14:44:22.398Z</time></trkpt><trkpt lat="43.2019306" lon="11.480105"><ele>212.5</ele><time>2026-04-11T14:44:23.397Z</time></trkpt><trkpt lat="43.2019846" lon="11.4802755"><ele>212.25</ele><time>2026-04-11T14:44:24.398Z</time></trkpt><trkpt lat="43.2020416" lon="11.4804332"><ele>212.0</ele><time>2026-04-11T14:44:25.398Z</time></trkpt><trkpt lat="43.2020979" lon="11.480588"><ele>211.25</ele><time>2026-04-11T14:44:26.397Z</time></trkpt><trkpt lat="43.202157" lon="11.4807427"><ele>210.5</ele><time>2026-04-11T14:44:27.397Z</time></trkpt><trkpt lat="43.2022056" lon="11.4808987"><ele>209.75</ele><time>2026-04-11T14:44:28.397Z</time></trkpt><trkpt lat="43.2022405" lon="11.4810732"><ele>209.0</ele><time>2026-04-11T14:44:29.397Z</time></trkpt><trkpt lat="43.2022625" lon="11.4812527"><ele>210.25</ele><time>2026-04-11T14:44:30.398Z</time></trkpt><trkpt lat="43.2022805" lon="11.4814274"><ele>211.5</ele><time>2026-04-11T14:44:31.397Z</time></trkpt><trkpt lat="43.2023007" lon="11.4815989"><ele>212.75</ele><time>2026-04-11T14:44:32.398Z</time></trkpt><trkpt lat="43.2023187" lon="11.4817524"><ele>214.0</ele><time>2026-04-11T14:44:33.398Z</time></trkpt><trkpt lat="43.2023259" lon="11.4818939"><ele>214.0</ele><time>2026-04-11T14:44:34.398Z</time></trkpt><trkpt lat="43.2023168" lon="11.4820361"><ele>213.99999999999997</ele><time>2026-04-11T14:44:35.398Z</time></trkpt><trkpt lat="43.2022925" lon="11.4821786"><ele>213.99999999999997</ele><time>2026-04-11T14:44:36.397Z</time></trkpt><trkpt lat="43.2022594" lon="11.4823144"><ele>214.0</ele><time>2026-04-11T14:44:37.398Z</time></trkpt><trkpt lat="43.2022293" lon="11.4824413"><ele>214.0</ele><time>2026-04-11T14:44:38.398Z</time></trkpt><trkpt lat="43.2022065" lon="11.4825667"><ele>215.49999999999997</ele><time>2026-04-11T14:44:39.397Z</time></trkpt><trkpt lat="43.2021969" lon="11.4826999"><ele>217.0</ele><time>2026-04-11T14:44:40.397Z</time></trkpt><trkpt lat="43.2021962" lon="11.4828301"><ele>218.5</ele><time>2026-04-11T14:44:41.398Z</time></trkpt><trkpt lat="43.2022032" lon="11.4829474"><ele>220.0</ele><time>2026-04-11T14:44:42.397Z</time></trkpt><trkpt lat="43.2022099" lon="11.4830507"><ele>221.49999999999997</ele><time>2026-04-11T14:44:43.397Z</time></trkpt><trkpt lat="43.2022103" lon="11.4831485"><ele>223.0</ele><time>2026-04-11T14:44:44.397Z</time></trkpt><trkpt lat="43.2021616" lon="11.4833345"><ele>225.33333333333331</ele><time>2026-04-11T14:44:46.397Z</time></trkpt><trkpt lat="43.2021083" lon="11.4834256"><ele>227.66666666666666</ele><time>2026-04-11T14:44:47.397Z</time></trkpt><trkpt lat="43.202051" lon="11.4835131"><ele>230.0</ele><time>2026-04-11T14:44:48.397Z</time></trkpt><trkpt lat="43.2019955" lon="11.4835929"><ele>232.33333333333331</ele><time>2026-04-11T14:44:49.399Z</time></trkpt><trkpt lat="43.2019401" lon="11.4836703"><ele>234.66666666666666</ele><time>2026-04-11T14:44:50.399Z</time></trkpt><trkpt lat="43.2018867" lon="11.4837478"><ele>237.0</ele><time>2026-04-11T14:44:51.399Z</time></trkpt><trkpt lat="43.2018365" lon="11.4838274"><ele>239.28571428571425</ele><time>2026-04-11T14:44:52.399Z</time></trkpt><trkpt lat="43.201795" lon="11.4839128"><ele>241.57142857142856</ele><time>2026-04-11T14:44:53.398Z</time></trkpt><trkpt lat="43.2017603" lon="11.4840079"><ele>243.85714285714286</ele><time>2026-04-11T14:44:54.398Z</time></trkpt><trkpt lat="43.2017401" lon="11.4841056"><ele>246.14285714285714</ele><time>2026-04-11T14:44:55.398Z</time></trkpt><trkpt lat="43.2017452" lon="11.4842052"><ele>248.42857142857144</ele><time>2026-04-11T14:44:56.398Z</time></trkpt><trkpt lat="43.2017711" lon="11.4842864"><ele>250.71428571428575</ele><time>2026-04-11T14:44:57.399Z</time></trkpt><trkpt lat="43.2018146" lon="11.4843556"><ele>253.00000000000003</ele><time>2026-04-11T14:44:58.399Z</time></trkpt><trkpt lat="43.2018651" lon="11.4844293"><ele>253.0</ele><time>2026-04-11T14:44:59.399Z</time></trkpt><trkpt lat="43.2019136" lon="11.4845179"><ele>253.0</ele><time>2026-04-11T14:45:00.399Z</time></trkpt><trkpt lat="43.2019986" lon="11.4847235"><ele>253.0</ele><time>2026-04-11T14:45:02.398Z</time></trkpt><trkpt lat="43.2020442" lon="11.484848"><ele>253.0</ele><time>2026-04-11T14:45:03.399Z</time></trkpt><trkpt lat="43.2020785" lon="11.4849819"><ele>253.2</ele><time>2026-04-11T14:45:04.399Z</time></trkpt><trkpt lat="43.2021078" lon="11.4851237"><ele>253.4</ele><time>2026-04-11T14:45:05.398Z</time></trkpt><trkpt lat="43.2021273" lon="11.4852625"><ele>253.59999999999997</ele><time>2026-04-11T14:45:06.399Z</time></trkpt><trkpt lat="43.2021466" lon="11.485386"><ele>253.79999999999998</ele><time>2026-04-11T14:45:07.398Z</time></trkpt><trkpt lat="43.2021647" lon="11.4854915"><ele>254.0</ele><time>2026-04-11T14:45:08.399Z</time></trkpt><trkpt lat="43.2022086" lon="11.4856834"><ele>254.0</ele><time>2026-04-11T14:45:10.398Z</time></trkpt><trkpt lat="43.202242" lon="11.4858047"><ele>253.99999999999997</ele><time>2026-04-11T14:45:11.398Z</time></trkpt><trkpt lat="43.2022775" lon="11.4859211"><ele>253.99999999999997</ele><time>2026-04-11T14:45:12.399Z</time></trkpt><trkpt lat="43.2023175" lon="11.486033"><ele>254.0</ele><time>2026-04-11T14:45:13.398Z</time></trkpt><trkpt lat="43.2023687" lon="11.4861322"><ele>254.0</ele><time>2026-04-11T14:45:14.398Z</time></trkpt><trkpt lat="43.2024351" lon="11.486245"><ele>252.79999999999998</ele><time>2026-04-11T14:45:15.398Z</time></trkpt><trkpt lat="43.2024844" lon="11.4863344"><ele>251.59999999999997</ele><time>2026-04-11T14:45:16.398Z</time></trkpt><trkpt lat="43.2025426" lon="11.4864264"><ele>250.4</ele><time>2026-04-11T14:45:17.398Z</time></trkpt><trkpt lat="43.2026071" lon="11.4865036"><ele>249.2</ele><time>2026-04-11T14:45:18.399Z</time></trkpt><trkpt lat="43.202684" lon="11.4865874"><ele>248.0</ele><time>2026-04-11T14:45:19.398Z</time></trkpt><trkpt lat="43.2027676" lon="11.4866754"><ele>248.0</ele><time>2026-04-11T14:45:20.398Z</time></trkpt><trkpt lat="43.2028578" lon="11.4867782"><ele>248.0</ele><time>2026-04-11T14:45:21.399Z</time></trkpt><trkpt lat="43.2029455" lon="11.4868923"><ele>248.0</ele><time>2026-04-11T14:45:22.399Z</time></trkpt><trkpt lat="43.2030426" lon="11.4870189"><ele>248.0</ele><time>2026-04-11T14:45:23.399Z</time></trkpt><trkpt lat="43.2031391" lon="11.4871382"><ele>248.25</ele><time>2026-04-11T14:45:24.399Z</time></trkpt><trkpt lat="43.2032305" lon="11.4872509"><ele>248.5</ele><time>2026-04-11T14:45:25.398Z</time></trkpt><trkpt lat="43.2033177" lon="11.4873546"><ele>248.75</ele><time>2026-04-11T14:45:26.399Z</time></trkpt><trkpt lat="43.2034001" lon="11.4874544"><ele>249.0</ele><time>2026-04-11T14:45:27.399Z</time></trkpt><trkpt lat="43.2034797" lon="11.4875529"><ele>249.0</ele><time>2026-04-11T14:45:28.398Z</time></trkpt><trkpt lat="43.2035551" lon="11.4876489"><ele>248.99999999999997</ele><time>2026-04-11T14:45:29.398Z</time></trkpt><trkpt lat="43.2036291" lon="11.487749"><ele>248.99999999999997</ele><time>2026-04-11T14:45:30.399Z</time></trkpt><trkpt lat="43.2037048" lon="11.4878641"><ele>249.0</ele><time>2026-04-11T14:45:31.399Z</time></trkpt><trkpt lat="43.2037769" lon="11.4879996"><ele>249.0</ele><time>2026-04-11T14:45:32.399Z</time></trkpt><trkpt lat="43.2038513" lon="11.4881517"><ele>245.75</ele><time>2026-04-11T14:45:33.398Z</time></trkpt><trkpt lat="43.203926" lon="11.4883038"><ele>242.5</ele><time>2026-04-11T14:45:34.398Z</time></trkpt><trkpt lat="43.2039987" lon="11.4884439"><ele>239.25</ele><time>2026-04-11T14:45:35.398Z</time></trkpt><trkpt lat="43.2040664" lon="11.488571"><ele>236.0</ele><time>2026-04-11T14:45:36.399Z</time></trkpt><trkpt lat="43.2041353" lon="11.4886883"><ele>239.0</ele><time>2026-04-11T14:45:37.398Z</time></trkpt><trkpt lat="43.2042116" lon="11.4887962"><ele>242.0</ele><time>2026-04-11T14:45:38.398Z</time></trkpt><trkpt lat="43.2042898" lon="11.4889012"><ele>245.0</ele><time>2026-04-11T14:45:39.398Z</time></trkpt><trkpt lat="43.2043721" lon="11.4890061"><ele>248.0</ele><time>2026-04-11T14:45:40.398Z</time></trkpt><trkpt lat="43.2044556" lon="11.4891256"><ele>248.0</ele><time>2026-04-11T14:45:41.399Z</time></trkpt><trkpt lat="43.2045279" lon="11.4892512"><ele>248.0</ele><time>2026-04-11T14:45:42.399Z</time></trkpt><trkpt lat="43.204582" lon="11.4893925"><ele>248.0</ele><time>2026-04-11T14:45:43.399Z</time></trkpt><trkpt lat="43.2046227" lon="11.4895449"><ele>248.0</ele><time>2026-04-11T14:45:44.398Z</time></trkpt><trkpt lat="43.2046623" lon="11.4896944"><ele>251.0</ele><time>2026-04-11T14:45:45.399Z</time></trkpt><trkpt lat="43.2047027" lon="11.4898445"><ele>254.0</ele><time>2026-04-11T14:45:46.398Z</time></trkpt><trkpt lat="43.2047474" lon="11.4899943"><ele>257.0</ele><time>2026-04-11T14:45:47.398Z</time></trkpt><trkpt lat="43.2047946" lon="11.4901394"><ele>260.0</ele><time>2026-04-11T14:45:48.399Z</time></trkpt><trkpt lat="43.2048464" lon="11.4902781"><ele>260.0</ele><time>2026-04-11T14:45:49.398Z</time></trkpt><trkpt lat="43.2049084" lon="11.4904029"><ele>260.0</ele><time>2026-04-11T14:45:50.398Z</time></trkpt><trkpt lat="43.2049821" lon="11.4905167"><ele>260.0</ele><time>2026-04-11T14:45:51.398Z</time></trkpt><trkpt lat="43.2050602" lon="11.4906236"><ele>260.0</ele><time>2026-04-11T14:45:52.399Z</time></trkpt><trkpt lat="43.2051345" lon="11.4907123"><ele>260.0</ele><time>2026-04-11T14:45:53.4Z</time></trkpt><trkpt lat="43.2052027" lon="11.4907884"><ele>257.0</ele><time>2026-04-11T14:45:54.399Z</time></trkpt><trkpt lat="43.2052753" lon="11.4908566"><ele>254.0</ele><time>2026-04-11T14:45:55.4Z</time></trkpt><trkpt lat="43.2053593" lon="11.4908995"><ele>251.0</ele><time>2026-04-11T14:45:56.399Z</time></trkpt><trkpt lat="43.2054525" lon="11.4909281"><ele>248.0</ele><time>2026-04-11T14:45:57.399Z</time></trkpt><trkpt lat="43.2055481" lon="11.4909404"><ele>245.0</ele><time>2026-04-11T14:45:58.399Z</time></trkpt><trkpt lat="43.2056496" lon="11.4909425"><ele>247.6</ele><time>2026-04-11T14:45:59.4Z</time></trkpt><trkpt lat="43.2057525" lon="11.490935"><ele>250.2</ele><time>2026-04-11T14:46:00.399Z</time></trkpt><trkpt lat="43.2058522" lon="11.4909226"><ele>252.8</ele><time>2026-04-11T14:46:01.4Z</time></trkpt><trkpt lat="43.2059492" lon="11.4909023"><ele>255.4</ele><time>2026-04-11T14:46:02.399Z</time></trkpt><trkpt lat="43.2060429" lon="11.4908803"><ele>258.0</ele><time>2026-04-11T14:46:03.4Z</time></trkpt><trkpt lat="43.2061395" lon="11.4908712"><ele>258.0</ele><time>2026-04-11T14:46:04.399Z</time></trkpt><trkpt lat="43.2062372" lon="11.4908847"><ele>258.0</ele><time>2026-04-11T14:46:05.4Z</time></trkpt><trkpt lat="43.2063349" lon="11.4909097"><ele>258.0</ele><time>2026-04-11T14:46:06.399Z</time></trkpt><trkpt lat="43.2064271" lon="11.4909473"><ele>258.0</ele><time>2026-04-11T14:46:07.399Z</time></trkpt><trkpt lat="43.2065139" lon="11.4909987"><ele>258.0</ele><time>2026-04-11T14:46:08.399Z</time></trkpt><trkpt lat="43.2065965" lon="11.49107"><ele>257.8</ele><time>2026-04-11T14:46:09.399Z</time></trkpt><trkpt lat="43.2066685" lon="11.491156"><ele>257.6</ele><time>2026-04-11T14:46:10.399Z</time></trkpt><trkpt lat="43.2067312" lon="11.4912666"><ele>257.4</ele><time>2026-04-11T14:46:11.4Z</time></trkpt><trkpt lat="43.2067891" lon="11.4914073"><ele>257.2</ele><time>2026-04-11T14:46:12.4Z</time></trkpt><trkpt lat="43.2068418" lon="11.4915585"><ele>257.0</ele><time>2026-04-11T14:46:13.4Z</time></trkpt><trkpt lat="43.2069036" lon="11.4917194"><ele>256.0</ele><time>2026-04-11T14:46:14.4Z</time></trkpt><trkpt lat="43.2069653" lon="11.4918641"><ele>255.0</ele><time>2026-04-11T14:46:15.399Z</time></trkpt><trkpt lat="43.2070336" lon="11.4919917"><ele>254.0</ele><time>2026-04-11T14:46:16.4Z</time></trkpt><trkpt lat="43.2071096" lon="11.492105"><ele>253.0</ele><time>2026-04-11T14:46:17.4Z</time></trkpt><trkpt lat="43.2071991" lon="11.4922043"><ele>251.75</ele><time>2026-04-11T14:46:18.4Z</time></trkpt><trkpt lat="43.2072995" lon="11.4923002"><ele>250.5</ele><time>2026-04-11T14:46:19.399Z</time></trkpt><trkpt lat="43.2074009" lon="11.4923983"><ele>249.25</ele><time>2026-04-11T14:46:20.399Z</time></trkpt><trkpt lat="43.2075104" lon="11.492503"><ele>248.0</ele><time>2026-04-11T14:46:21.399Z</time></trkpt><trkpt lat="43.2076231" lon="11.4926084"><ele>248.0</ele><time>2026-04-11T14:46:22.399Z</time></trkpt><trkpt lat="43.2077316" lon="11.4927165"><ele>248.0</ele><time>2026-04-11T14:46:23.4Z</time></trkpt><trkpt lat="43.2078456" lon="11.4928329"><ele>248.0</ele><time>2026-04-11T14:46:24.4Z</time></trkpt><trkpt lat="43.2079552" lon="11.4929499"><ele>248.0</ele><time>2026-04-11T14:46:25.4Z</time></trkpt><trkpt lat="43.2080624" lon="11.4930626"><ele>248.5</ele><time>2026-04-11T14:46:26.4Z</time></trkpt><trkpt lat="43.2081644" lon="11.493167"><ele>249.0</ele><time>2026-04-11T14:46:27.4Z</time></trkpt><trkpt lat="43.2082697" lon="11.4932645"><ele>249.5</ele><time>2026-04-11T14:46:28.399Z</time></trkpt><trkpt lat="43.208376" lon="11.4933579"><ele>250.0</ele><time>2026-04-11T14:46:29.4Z</time></trkpt><trkpt lat="43.2084795" lon="11.4934413"><ele>250.0</ele><time>2026-04-11T14:46:30.4Z</time></trkpt><trkpt lat="43.2085813" lon="11.4935183"><ele>250.0</ele><time>2026-04-11T14:46:31.4Z</time></trkpt><trkpt lat="43.2086806" lon="11.4935922"><ele>250.0</ele><time>2026-04-11T14:46:32.4Z</time></trkpt><trkpt lat="43.2087699" lon="11.4936718"><ele>250.0</ele><time>2026-04-11T14:46:33.4Z</time></trkpt><trkpt lat="43.2088495" lon="11.4937703"><ele>250.0</ele><time>2026-04-11T14:46:34.4Z</time></trkpt><trkpt lat="43.2089711" lon="11.4940559"><ele>252.25</ele><time>2026-04-11T14:46:36.4Z</time></trkpt><trkpt lat="43.2090199" lon="11.4942082"><ele>254.5</ele><time>2026-04-11T14:46:37.399Z</time></trkpt><trkpt lat="43.2090642" lon="11.4943657"><ele>256.75</ele><time>2026-04-11T14:46:38.399Z</time></trkpt><trkpt lat="43.2091073" lon="11.4945284"><ele>259.0</ele><time>2026-04-11T14:46:39.4Z</time></trkpt><trkpt lat="43.2091447" lon="11.494697"><ele>259.5</ele><time>2026-04-11T14:46:40.4Z</time></trkpt><trkpt lat="43.2091787" lon="11.4948654"><ele>260.0</ele><time>2026-04-11T14:46:41.4Z</time></trkpt><trkpt lat="43.2092014" lon="11.4950411"><ele>260.5</ele><time>2026-04-11T14:46:42.4Z</time></trkpt><trkpt lat="43.2092234" lon="11.4952044"><ele>261.0</ele><time>2026-04-11T14:46:43.4Z</time></trkpt><trkpt lat="43.2092436" lon="11.4953368"><ele>261.3333333333333</ele><time>2026-04-11T14:46:44.4Z</time></trkpt><trkpt lat="43.2092658" lon="11.4954467"><ele>261.6666666666667</ele><time>2026-04-11T14:46:45.399Z</time></trkpt><trkpt lat="43.2092902" lon="11.4955443"><ele>262.0</ele><time>2026-04-11T14:46:46.399Z</time></trkpt><trkpt lat="43.2093211" lon="11.4956206"><ele>262.33333333333337</ele><time>2026-04-11T14:46:47.399Z</time></trkpt><trkpt lat="43.2093585" lon="11.495711"><ele>262.6666666666667</ele><time>2026-04-11T14:46:48.399Z</time></trkpt><trkpt lat="43.2093939" lon="11.4958004"><ele>263.0</ele><time>2026-04-11T14:46:49.4Z</time></trkpt><trkpt lat="43.2094335" lon="11.495901"><ele>263.0</ele><time>2026-04-11T14:46:50.4Z</time></trkpt><trkpt lat="43.2095079" lon="11.4961539"><ele>263.0</ele><time>2026-04-11T14:46:52.401Z</time></trkpt><trkpt lat="43.2095424" lon="11.4962625"><ele>263.0</ele><time>2026-04-11T14:46:53.4Z</time></trkpt><trkpt lat="43.2095818" lon="11.4963618"><ele>263.0</ele><time>2026-04-11T14:46:54.399Z</time></trkpt><trkpt lat="43.2096271" lon="11.4964569"><ele>263.4</ele><time>2026-04-11T14:46:55.4Z</time></trkpt><trkpt lat="43.2096781" lon="11.4965501"><ele>263.8</ele><time>2026-04-11T14:46:56.399Z</time></trkpt><trkpt lat="43.2097395" lon="11.4966379"><ele>264.2</ele><time>2026-04-11T14:46:57.399Z</time></trkpt><trkpt lat="43.2098165" lon="11.4967239"><ele>264.6</ele><time>2026-04-11T14:46:58.401Z</time></trkpt><trkpt lat="43.2099073" lon="11.496807"><ele>265.0</ele><time>2026-04-11T14:46:59.4Z</time></trkpt><trkpt lat="43.2100064" lon="11.4968854"><ele>265.0</ele><time>2026-04-11T14:47:00.401Z</time></trkpt><trkpt lat="43.2101072" lon="11.4969572"><ele>265.0</ele><time>2026-04-11T14:47:01.4Z</time></trkpt><trkpt lat="43.2102064" lon="11.4970283"><ele>265.0</ele><time>2026-04-11T14:47:02.401Z</time></trkpt><trkpt lat="43.2102972" lon="11.4970979"><ele>265.0</ele><time>2026-04-11T14:47:03.401Z</time></trkpt><trkpt lat="43.2103871" lon="11.497171"><ele>265.0</ele><time>2026-04-11T14:47:04.4Z</time></trkpt><trkpt lat="43.2104778" lon="11.4972438"><ele>264.8</ele><time>2026-04-11T14:47:05.401Z</time></trkpt><trkpt lat="43.2105656" lon="11.4973148"><ele>264.6</ele><time>2026-04-11T14:47:06.401Z</time></trkpt><trkpt lat="43.2106493" lon="11.4973899"><ele>264.4</ele><time>2026-04-11T14:47:07.4Z</time></trkpt><trkpt lat="43.2107233" lon="11.4974767"><ele>264.2</ele><time>2026-04-11T14:47:08.4Z</time></trkpt><trkpt lat="43.210782" lon="11.4975774"><ele>264.0</ele><time>2026-04-11T14:47:09.4Z</time></trkpt><trkpt lat="43.2108231" lon="11.4976879"><ele>264.0</ele><time>2026-04-11T14:47:10.401Z</time></trkpt><trkpt lat="43.2108506" lon="11.4978083"><ele>264.0</ele><time>2026-04-11T14:47:11.401Z</time></trkpt><trkpt lat="43.2108732" lon="11.4979381"><ele>264.0</ele><time>2026-04-11T14:47:12.4Z</time></trkpt><trkpt lat="43.2108947" lon="11.4980639"><ele>264.0</ele><time>2026-04-11T14:47:13.4Z</time></trkpt><trkpt lat="43.2109127" lon="11.4981842"><ele>264.0</ele><time>2026-04-11T14:47:14.4Z</time></trkpt><trkpt lat="43.2109349" lon="11.4982951"><ele>263.1666666666667</ele><time>2026-04-11T14:47:15.401Z</time></trkpt><trkpt lat="43.2109697" lon="11.4983981"><ele>262.3333333333333</ele><time>2026-04-11T14:47:16.4Z</time></trkpt><trkpt lat="43.2110187" lon="11.4984881"><ele>261.5</ele><time>2026-04-11T14:47:17.401Z</time></trkpt><trkpt lat="43.2110801" lon="11.4985659"><ele>260.66666666666663</ele><time>2026-04-11T14:47:18.4Z</time></trkpt><trkpt lat="43.2111545" lon="11.4986252"><ele>259.8333333333333</ele><time>2026-04-11T14:47:19.401Z</time></trkpt><trkpt lat="43.2112349" lon="11.4986646"><ele>259.0</ele><time>2026-04-11T14:47:20.401Z</time></trkpt><trkpt lat="43.2113187" lon="11.4986863"><ele>259.0</ele><time>2026-04-11T14:47:21.4Z</time></trkpt><trkpt lat="43.2114037" lon="11.4986973"><ele>259.0</ele><time>2026-04-11T14:47:22.4Z</time></trkpt><trkpt lat="43.21149" lon="11.4986886"><ele>259.0</ele><time>2026-04-11T14:47:23.401Z</time></trkpt><trkpt lat="43.2115762" lon="11.4986686"><ele>259.0</ele><time>2026-04-11T14:47:24.4Z</time></trkpt><trkpt lat="43.2116587" lon="11.4986474"><ele>259.0</ele><time>2026-04-11T14:47:25.401Z</time></trkpt><trkpt lat="43.211735" lon="11.4986243"><ele>259.0</ele><time>2026-04-11T14:47:26.4Z</time></trkpt><trkpt lat="43.2118076" lon="11.4986023"><ele>257.5</ele><time>2026-04-11T14:47:27.4Z</time></trkpt><trkpt lat="43.2118813" lon="11.4985976"><ele>256.0</ele><time>2026-04-11T14:47:28.4Z</time></trkpt><trkpt lat="43.211949" lon="11.49862"><ele>254.5</ele><time>2026-04-11T14:47:29.4Z</time></trkpt><trkpt lat="43.2120132" lon="11.4986536"><ele>253.0</ele><time>2026-04-11T14:47:30.401Z</time></trkpt><trkpt lat="43.2120662" lon="11.4987301"><ele>251.49999999999997</ele><time>2026-04-11T14:47:31.401Z</time></trkpt><trkpt lat="43.2121189" lon="11.4988184"><ele>250.0</ele><time>2026-04-11T14:47:32.401Z</time></trkpt><trkpt lat="43.2121611" lon="11.4989203"><ele>248.99999999999997</ele><time>2026-04-11T14:47:33.401Z</time></trkpt><trkpt lat="43.2121971" lon="11.4990323"><ele>248.0</ele><time>2026-04-11T14:47:34.401Z</time></trkpt><trkpt lat="43.212211" lon="11.4991535"><ele>247.0</ele><time>2026-04-11T14:47:35.401Z</time></trkpt><trkpt lat="43.2122077" lon="11.4992686"><ele>246.0</ele><time>2026-04-11T14:47:36.401Z</time></trkpt><trkpt lat="43.2121823" lon="11.4993693"><ele>244.99999999999997</ele><time>2026-04-11T14:47:37.401Z</time></trkpt><trkpt lat="43.2121441" lon="11.4994566"><ele>244.0</ele><time>2026-04-11T14:47:38.401Z</time></trkpt><trkpt lat="43.2120909" lon="11.499527"><ele>243.99999999999997</ele><time>2026-04-11T14:47:39.401Z</time></trkpt><trkpt lat="43.2120234" lon="11.4995767"><ele>244.0</ele><time>2026-04-11T14:47:40.401Z</time></trkpt><trkpt lat="43.2119451" lon="11.4996156"><ele>244.0</ele><time>2026-04-11T14:47:41.4Z</time></trkpt><trkpt lat="43.2118611" lon="11.4996472"><ele>244.0</ele><time>2026-04-11T14:47:42.401Z</time></trkpt><trkpt lat="43.2117802" lon="11.499681"><ele>243.99999999999997</ele><time>2026-04-11T14:47:43.401Z</time></trkpt><trkpt lat="43.2117086" lon="11.4997356"><ele>244.0</ele><time>2026-04-11T14:47:44.4Z</time></trkpt><trkpt lat="43.2116435" lon="11.4997892"><ele>241.39999999999998</ele><time>2026-04-11T14:47:45.401Z</time></trkpt><trkpt lat="43.2115939" lon="11.4998811"><ele>238.79999999999998</ele><time>2026-04-11T14:47:46.4Z</time></trkpt><trkpt lat="43.2115582" lon="11.499999"><ele>236.20000000000002</ele><time>2026-04-11T14:47:47.401Z</time></trkpt><trkpt lat="43.2115257" lon="11.500132"><ele>233.60000000000002</ele><time>2026-04-11T14:47:48.401Z</time></trkpt><trkpt lat="43.2114948" lon="11.5002828"><ele>231.0</ele><time>2026-04-11T14:47:49.401Z</time></trkpt><trkpt lat="43.2114696" lon="11.5004385"><ele>228.60000000000002</ele><time>2026-04-11T14:47:50.4Z</time></trkpt><trkpt lat="43.2114453" lon="11.5005779"><ele>226.20000000000002</ele><time>2026-04-11T14:47:51.401Z</time></trkpt><trkpt lat="43.2114172" lon="11.5007015"><ele>223.79999999999998</ele><time>2026-04-11T14:47:52.4Z</time></trkpt><trkpt lat="43.2113801" lon="11.500812"><ele>221.39999999999998</ele><time>2026-04-11T14:47:53.401Z</time></trkpt><trkpt lat="43.2113322" lon="11.5009068"><ele>219.0</ele><time>2026-04-11T14:47:54.4Z</time></trkpt><trkpt lat="43.2112681" lon="11.5009933"><ele>219.0</ele><time>2026-04-11T14:47:55.4Z</time></trkpt><trkpt lat="43.2112037" lon="11.5010708"><ele>218.99999999999997</ele><time>2026-04-11T14:47:56.4Z</time></trkpt><trkpt lat="43.2111296" lon="11.5011339"><ele>218.99999999999997</ele><time>2026-04-11T14:47:57.401Z</time></trkpt><trkpt lat="43.2110371" lon="11.5011809"><ele>219.0</ele><time>2026-04-11T14:47:58.401Z</time></trkpt><trkpt lat="43.2109416" lon="11.5012148"><ele>219.0</ele><time>2026-04-11T14:47:59.401Z</time></trkpt><trkpt lat="43.2107809" lon="11.5013475"><ele>219.2</ele><time>2026-04-11T14:48:01.401Z</time></trkpt><trkpt lat="43.2107028" lon="11.5014418"><ele>219.39999999999998</ele><time>2026-04-11T14:48:02.402Z</time></trkpt><trkpt lat="43.2106359" lon="11.5015469"><ele>219.6</ele><time>2026-04-11T14:48:03.401Z</time></trkpt><trkpt lat="43.2105818" lon="11.5016627"><ele>219.8</ele><time>2026-04-11T14:48:04.402Z</time></trkpt><trkpt lat="43.2105358" lon="11.501784"><ele>220.0</ele><time>2026-04-11T14:48:05.401Z</time></trkpt><trkpt lat="43.2104918" lon="11.501908"><ele>219.99999999999997</ele><time>2026-04-11T14:48:06.401Z</time></trkpt><trkpt lat="43.21045" lon="11.5020368"><ele>220.0</ele><time>2026-04-11T14:48:07.401Z</time></trkpt><trkpt lat="43.2104151" lon="11.502155"><ele>220.0</ele><time>2026-04-11T14:48:08.402Z</time></trkpt><trkpt lat="43.2103799" lon="11.5022603"><ele>220.0</ele><time>2026-04-11T14:48:09.401Z</time></trkpt><trkpt lat="43.2103394" lon="11.5023477"><ele>219.99999999999997</ele><time>2026-04-11T14:48:10.401Z</time></trkpt><trkpt lat="43.2102894" lon="11.50242"><ele>220.0</ele><time>2026-04-11T14:48:11.402Z</time></trkpt><trkpt lat="43.210222" lon="11.5024831"><ele>220.6</ele><time>2026-04-11T14:48:12.402Z</time></trkpt><trkpt lat="43.2101434" lon="11.5025462"><ele>221.2</ele><time>2026-04-11T14:48:13.402Z</time></trkpt><trkpt lat="43.2100593" lon="11.5026209"><ele>221.8</ele><time>2026-04-11T14:48:14.401Z</time></trkpt><trkpt lat="43.2099682" lon="11.5027112"><ele>222.4</ele><time>2026-04-11T14:48:15.401Z</time></trkpt><trkpt lat="43.209876" lon="11.5028043"><ele>223.0</ele><time>2026-04-11T14:48:16.402Z</time></trkpt><trkpt lat="43.2097787" lon="11.5029017"><ele>222.2</ele><time>2026-04-11T14:48:17.401Z</time></trkpt><trkpt lat="43.2096839" lon="11.5029989"><ele>221.4</ele><time>2026-04-11T14:48:18.401Z</time></trkpt><trkpt lat="43.2095921" lon="11.5030909"><ele>220.59999999999997</ele><time>2026-04-11T14:48:19.401Z</time></trkpt><trkpt lat="43.209509" lon="11.5031783"><ele>219.79999999999998</ele><time>2026-04-11T14:48:20.401Z</time></trkpt><trkpt lat="43.2094303" lon="11.503264"><ele>219.0</ele><time>2026-04-11T14:48:21.402Z</time></trkpt><trkpt lat="43.2093546" lon="11.5033494"><ele>219.0</ele><time>2026-04-11T14:48:22.401Z</time></trkpt><trkpt lat="43.2092819" lon="11.5034401"><ele>218.99999999999997</ele><time>2026-04-11T14:48:23.402Z</time></trkpt><trkpt lat="43.2092139" lon="11.5035423"><ele>218.99999999999997</ele><time>2026-04-11T14:48:24.402Z</time></trkpt><trkpt lat="43.2091488" lon="11.503662"><ele>219.0</ele><time>2026-04-11T14:48:25.402Z</time></trkpt><trkpt lat="43.2090823" lon="11.5037954"><ele>219.0</ele><time>2026-04-11T14:48:26.402Z</time></trkpt><trkpt lat="43.2090154" lon="11.5039285"><ele>216.79999999999998</ele><time>2026-04-11T14:48:27.401Z</time></trkpt><trkpt lat="43.2089474" lon="11.5040524"><ele>214.59999999999997</ele><time>2026-04-11T14:48:28.401Z</time></trkpt><trkpt lat="43.2088832" lon="11.504168"><ele>212.4</ele><time>2026-04-11T14:48:29.402Z</time></trkpt><trkpt lat="43.2088188" lon="11.5042755"><ele>210.2</ele><time>2026-04-11T14:48:30.401Z</time></trkpt><trkpt lat="43.2087549" lon="11.5043798"><ele>208.0</ele><time>2026-04-11T14:48:31.402Z</time></trkpt><trkpt lat="43.208689" lon="11.5044779"><ele>208.0</ele><time>2026-04-11T14:48:32.401Z</time></trkpt><trkpt lat="43.2086089" lon="11.5045616"><ele>208.0</ele><time>2026-04-11T14:48:33.402Z</time></trkpt><trkpt lat="43.2085186" lon="11.5046178"><ele>208.0</ele><time>2026-04-11T14:48:34.402Z</time></trkpt><trkpt lat="43.2084172" lon="11.5046501"><ele>208.0</ele><time>2026-04-11T14:48:35.401Z</time></trkpt><trkpt lat="43.2083133" lon="11.504656"><ele>208.0</ele><time>2026-04-11T14:48:36.401Z</time></trkpt><trkpt lat="43.2082168" lon="11.5046408"><ele>205.33333333333331</ele><time>2026-04-11T14:48:37.401Z</time></trkpt><trkpt lat="43.2081226" lon="11.5046346"><ele>202.66666666666666</ele><time>2026-04-11T14:48:38.402Z</time></trkpt><trkpt lat="43.2080314" lon="11.5046311"><ele>200.0</ele><time>2026-04-11T14:48:39.401Z</time></trkpt><trkpt lat="43.2079439" lon="11.5046164"><ele>197.33333333333331</ele><time>2026-04-11T14:48:40.401Z</time></trkpt><trkpt lat="43.2078681" lon="11.5045874"><ele>194.66666666666666</ele><time>2026-04-11T14:48:41.402Z</time></trkpt><trkpt lat="43.2077987" lon="11.504557"><ele>192.0</ele><time>2026-04-11T14:48:42.401Z</time></trkpt><trkpt lat="43.2077144" lon="11.5045775"><ele>190.33333333333334</ele><time>2026-04-11T14:48:44.402Z</time></trkpt><trkpt lat="43.2077095" lon="11.5046945"><ele>188.66666666666666</ele><time>2026-04-11T14:48:46.402Z</time></trkpt><trkpt lat="43.2077672" lon="11.5047378"><ele>187.0</ele><time>2026-04-11T14:50:27.404Z</time></trkpt><trkpt lat="43.2078582" lon="11.504769"><ele>185.33333333333331</ele><time>2026-04-11T14:50:30.403Z</time></trkpt><trkpt lat="43.2079679" lon="11.5048228"><ele>183.66666666666666</ele><time>2026-04-11T14:50:32.404Z</time></trkpt><trkpt lat="43.2080405" lon="11.504859"><ele>182.0</ele><time>2026-04-11T14:50:33.403Z</time></trkpt><trkpt lat="43.2081211" lon="11.5049022"><ele>183.42857142857142</ele><time>2026-04-11T14:50:34.403Z</time></trkpt><trkpt lat="43.2081958" lon="11.5049459"><ele>184.85714285714286</ele><time>2026-04-11T14:50:35.404Z</time></trkpt><trkpt lat="43.2082639" lon="11.5049882"><ele>186.28571428571428</ele><time>2026-04-11T14:50:36.403Z</time></trkpt><trkpt lat="43.2083289" lon="11.5050259"><ele>187.71428571428572</ele><time>2026-04-11T14:50:37.404Z</time></trkpt><trkpt lat="43.2083955" lon="11.5050581"><ele>189.14285714285714</ele><time>2026-04-11T14:50:38.404Z</time></trkpt><trkpt lat="43.2084581" lon="11.5050805"><ele>190.57142857142856</ele><time>2026-04-11T14:50:39.404Z</time></trkpt><trkpt lat="43.2085217" lon="11.5050982"><ele>192.0</ele><time>2026-04-11T14:50:40.404Z</time></trkpt><trkpt lat="43.2085946" lon="11.5051108"><ele>191.99999999999997</ele><time>2026-04-11T14:50:41.403Z</time></trkpt><trkpt lat="43.2086732" lon="11.5051217"><ele>192.0</ele><time>2026-04-11T14:50:42.403Z</time></trkpt><trkpt lat="43.208746" lon="11.5051304"><ele>192.0</ele><time>2026-04-11T14:50:43.403Z</time></trkpt><trkpt lat="43.2088178" lon="11.5051402"><ele>192.0</ele><time>2026-04-11T14:50:44.404Z</time></trkpt><trkpt lat="43.2088866" lon="11.5051504"><ele>192.0</ele><time>2026-04-11T14:50:45.403Z</time></trkpt><trkpt lat="43.2089563" lon="11.5051621"><ele>191.99999999999997</ele><time>2026-04-11T14:50:46.403Z</time></trkpt><trkpt lat="43.2090252" lon="11.5051694"><ele>192.0</ele><time>2026-04-11T14:50:47.403Z</time></trkpt><trkpt lat="43.2090903" lon="11.5051594"><ele>190.99999999999997</ele><time>2026-04-11T14:50:48.403Z</time></trkpt><trkpt lat="43.2091518" lon="11.5051293"><ele>190.0</ele><time>2026-04-11T14:50:49.404Z</time></trkpt><trkpt lat="43.2092175" lon="11.5050846"><ele>189.0</ele><time>2026-04-11T14:50:50.403Z</time></trkpt><trkpt lat="43.2092858" lon="11.5050369"><ele>188.0</ele><time>2026-04-11T14:50:51.403Z</time></trkpt><trkpt lat="43.2093533" lon="11.5049853"><ele>187.0</ele><time>2026-04-11T14:50:52.404Z</time></trkpt><trkpt lat="43.2094156" lon="11.5049366"><ele>185.99999999999997</ele><time>2026-04-11T14:50:53.403Z</time></trkpt><trkpt lat="43.2094846" lon="11.5048999"><ele>185.0</ele><time>2026-04-11T14:50:54.403Z</time></trkpt><trkpt lat="43.2095664" lon="11.5048833"><ele>185.0</ele><time>2026-04-11T14:50:55.404Z</time></trkpt><trkpt lat="43.2096539" lon="11.5048928"><ele>185.0</ele><time>2026-04-11T14:50:56.404Z</time></trkpt><trkpt lat="43.2097383" lon="11.5049244"><ele>185.0</ele><time>2026-04-11T14:50:57.403Z</time></trkpt><trkpt lat="43.2098155" lon="11.5049792"><ele>185.0</ele><time>2026-04-11T14:50:58.404Z</time></trkpt><trkpt lat="43.2098785" lon="11.5050577"><ele>185.0</ele><time>2026-04-11T14:50:59.403Z</time></trkpt><trkpt lat="43.2099474" lon="11.5051407"><ele>185.0</ele><time>2026-04-11T14:51:00.403Z</time></trkpt><trkpt lat="43.2100209" lon="11.5052247"><ele>183.66666666666666</ele><time>2026-04-11T14:51:01.404Z</time></trkpt><trkpt lat="43.2100926" lon="11.5053056"><ele>182.33333333333331</ele><time>2026-04-11T14:51:02.404Z</time></trkpt><trkpt lat="43.2101637" lon="11.5053728"><ele>181.0</ele><time>2026-04-11T14:51:03.403Z</time></trkpt><trkpt lat="43.210239" lon="11.5054191"><ele>179.66666666666666</ele><time>2026-04-11T14:51:04.404Z</time></trkpt><trkpt lat="43.2103235" lon="11.5054467"><ele>178.33333333333334</ele><time>2026-04-11T14:51:05.404Z</time></trkpt><trkpt lat="43.2104165" lon="11.5054659"><ele>177.0</ele><time>2026-04-11T14:51:06.404Z</time></trkpt><trkpt lat="43.2105113" lon="11.5054823"><ele>176.5</ele><time>2026-04-11T14:51:07.404Z</time></trkpt><trkpt lat="43.2106018" lon="11.5054934"><ele>176.0</ele><time>2026-04-11T14:51:08.403Z</time></trkpt><trkpt lat="43.2106828" lon="11.505495"><ele>175.5</ele><time>2026-04-11T14:51:09.403Z</time></trkpt><trkpt lat="43.2107612" lon="11.5054792"><ele>175.0</ele><time>2026-04-11T14:51:10.403Z</time></trkpt><trkpt lat="43.2108471" lon="11.5054473"><ele>174.5</ele><time>2026-04-11T14:51:11.403Z</time></trkpt><trkpt lat="43.2109499" lon="11.5054043"><ele>174.0</ele><time>2026-04-11T14:51:12.403Z</time></trkpt><trkpt lat="43.2110599" lon="11.5053605"><ele>174.0</ele><time>2026-04-11T14:51:13.404Z</time></trkpt><trkpt lat="43.2111511" lon="11.5053377"><ele>174.0</ele><time>2026-04-11T14:51:14.403Z</time></trkpt><trkpt lat="43.2112249" lon="11.5053436"><ele>174.0</ele><time>2026-04-11T14:51:15.405Z</time></trkpt><trkpt lat="43.211286" lon="11.5053881"><ele>174.0</ele><time>2026-04-11T14:51:16.404Z</time></trkpt><trkpt lat="43.2113423" lon="11.5054606"><ele>174.0</ele><time>2026-04-11T14:51:17.404Z</time></trkpt><trkpt lat="43.211398" lon="11.5055677"><ele>174.0</ele><time>2026-04-11T14:51:18.405Z</time></trkpt><trkpt lat="43.2114417" lon="11.5057131"><ele>171.75</ele><time>2026-04-11T14:51:19.404Z</time></trkpt><trkpt lat="43.211476" lon="11.5058823"><ele>169.5</ele><time>2026-04-11T14:51:20.405Z</time></trkpt><trkpt lat="43.2115141" lon="11.5060665"><ele>167.25</ele><time>2026-04-11T14:51:21.405Z</time></trkpt><trkpt lat="43.2115648" lon="11.5062547"><ele>165.0</ele><time>2026-04-11T14:51:22.405Z</time></trkpt><trkpt lat="43.2116195" lon="11.5064425"><ele>165.0</ele><time>2026-04-11T14:51:23.405Z</time></trkpt><trkpt lat="43.2116746" lon="11.5066341"><ele>165.0</ele><time>2026-04-11T14:51:24.405Z</time></trkpt><trkpt lat="43.211776" lon="11.5069876"><ele>165.0</ele><time>2026-04-11T14:51:26.405Z</time></trkpt><trkpt lat="43.2118202" lon="11.5071477"><ele>164.8</ele><time>2026-04-11T14:51:27.404Z</time></trkpt><trkpt lat="43.2118619" lon="11.5072957"><ele>164.6</ele><time>2026-04-11T14:51:28.404Z</time></trkpt><trkpt lat="43.2119045" lon="11.507428"><ele>164.39999999999998</ele><time>2026-04-11T14:51:29.404Z</time></trkpt><trkpt lat="43.2119517" lon="11.5075435"><ele>164.2</ele><time>2026-04-11T14:51:30.404Z</time></trkpt><trkpt lat="43.2120068" lon="11.5076376"><ele>164.0</ele><time>2026-04-11T14:51:31.404Z</time></trkpt><trkpt lat="43.2120705" lon="11.5077108"><ele>164.0</ele><time>2026-04-11T14:51:32.405Z</time></trkpt><trkpt lat="43.2121365" lon="11.507771"><ele>164.0</ele><time>2026-04-11T14:51:33.405Z</time></trkpt><trkpt lat="43.2122144" lon="11.507826"><ele>164.0</ele><time>2026-04-11T14:51:34.404Z</time></trkpt><trkpt lat="43.2123106" lon="11.5078765"><ele>164.0</ele><time>2026-04-11T14:51:35.405Z</time></trkpt><trkpt lat="43.2124127" lon="11.5079241"><ele>164.0</ele><time>2026-04-11T14:51:36.405Z</time></trkpt><trkpt lat="43.2125011" lon="11.5079799"><ele>163.5</ele><time>2026-04-11T14:51:37.405Z</time></trkpt><trkpt lat="43.2125809" lon="11.5080642"><ele>163.0</ele><time>2026-04-11T14:51:38.404Z</time></trkpt><trkpt lat="43.2126586" lon="11.5081799"><ele>162.5</ele><time>2026-04-11T14:51:39.404Z</time></trkpt><trkpt lat="43.2127338" lon="11.5083295"><ele>162.0</ele><time>2026-04-11T14:51:40.405Z</time></trkpt><trkpt lat="43.212808" lon="11.5085114"><ele>162.0</ele><time>2026-04-11T14:51:41.405Z</time></trkpt><trkpt lat="43.2128722" lon="11.5086888"><ele>162.0</ele><time>2026-04-11T14:51:42.404Z</time></trkpt><trkpt lat="43.2129369" lon="11.5088594"><ele>162.0</ele><time>2026-04-11T14:51:43.405Z</time></trkpt><trkpt lat="43.2130061" lon="11.5090124"><ele>162.0</ele><time>2026-04-11T14:51:44.404Z</time></trkpt><trkpt lat="43.2130787" lon="11.5091594"><ele>161.8</ele><time>2026-04-11T14:51:45.404Z</time></trkpt><trkpt lat="43.2131427" lon="11.5092968"><ele>161.6</ele><time>2026-04-11T14:51:46.405Z</time></trkpt><trkpt lat="43.2132014" lon="11.5094312"><ele>161.4</ele><time>2026-04-11T14:51:47.404Z</time></trkpt><trkpt lat="43.2132591" lon="11.5095517"><ele>161.20000000000002</ele><time>2026-04-11T14:51:48.404Z</time></trkpt><trkpt lat="43.2133204" lon="11.5096565"><ele>161.0</ele><time>2026-04-11T14:51:49.405Z</time></trkpt><trkpt lat="43.2133886" lon="11.5097488"><ele>161.5</ele><time>2026-04-11T14:51:50.404Z</time></trkpt><trkpt lat="43.2134712" lon="11.509843"><ele>162.0</ele><time>2026-04-11T14:51:51.404Z</time></trkpt><trkpt lat="43.2135717" lon="11.5099575"><ele>162.5</ele><time>2026-04-11T14:51:52.405Z</time></trkpt><trkpt lat="43.2136913" lon="11.510089"><ele>163.0</ele><time>2026-04-11T14:51:53.405Z</time></trkpt><trkpt lat="43.2138109" lon="11.5102396"><ele>163.0</ele><time>2026-04-11T14:51:54.405Z</time></trkpt><trkpt lat="43.213908" lon="11.5103862"><ele>163.0</ele><time>2026-04-11T14:51:55.405Z</time></trkpt><trkpt lat="43.21398" lon="11.510518"><ele>163.0</ele><time>2026-04-11T14:51:56.405Z</time></trkpt><trkpt lat="43.2140441" lon="11.5106478"><ele>163.0</ele><time>2026-04-11T14:51:57.405Z</time></trkpt><trkpt lat="43.2140997" lon="11.5107638"><ele>163.2</ele><time>2026-04-11T14:51:58.404Z</time></trkpt><trkpt lat="43.2141541" lon="11.5108723"><ele>163.4</ele><time>2026-04-11T14:51:59.405Z</time></trkpt><trkpt lat="43.2142085" lon="11.5109805"><ele>163.6</ele><time>2026-04-11T14:52:00.404Z</time></trkpt><trkpt lat="43.2142561" lon="11.5110894"><ele>163.79999999999998</ele><time>2026-04-11T14:52:01.405Z</time></trkpt><trkpt lat="43.2142812" lon="11.5112157"><ele>164.0</ele><time>2026-04-11T14:52:02.404Z</time></trkpt><trkpt lat="43.21428" lon="11.5113539"><ele>164.39999999999998</ele><time>2026-04-11T14:52:03.405Z</time></trkpt><trkpt lat="43.2142556" lon="11.5114965"><ele>164.8</ele><time>2026-04-11T14:52:04.404Z</time></trkpt><trkpt lat="43.2142211" lon="11.5116441"><ele>165.2</ele><time>2026-04-11T14:52:05.405Z</time></trkpt><trkpt lat="43.2141919" lon="11.51178"><ele>165.60000000000002</ele><time>2026-04-11T14:52:06.404Z</time></trkpt><trkpt lat="43.2141857" lon="11.5118862"><ele>166.0</ele><time>2026-04-11T14:52:07.404Z</time></trkpt><trkpt lat="43.2141999" lon="11.5119804"><ele>166.0</ele><time>2026-04-11T14:52:08.405Z</time></trkpt><trkpt lat="43.2142257" lon="11.5120704"><ele>166.0</ele><time>2026-04-11T14:52:09.405Z</time></trkpt><trkpt lat="43.2142625" lon="11.512167"><ele>166.0</ele><time>2026-04-11T14:52:10.404Z</time></trkpt><trkpt lat="43.214312" lon="11.5122702"><ele>166.0</ele><time>2026-04-11T14:52:11.405Z</time></trkpt><trkpt lat="43.2143736" lon="11.5123609"><ele>166.0</ele><time>2026-04-11T14:52:12.404Z</time></trkpt><trkpt lat="43.2144486" lon="11.5124383"><ele>166.0</ele><time>2026-04-11T14:52:13.404Z</time></trkpt><trkpt lat="43.2145354" lon="11.512515"><ele>166.66666666666669</ele><time>2026-04-11T14:52:14.405Z</time></trkpt><trkpt lat="43.2146392" lon="11.5125912"><ele>167.33333333333334</ele><time>2026-04-11T14:52:15.405Z</time></trkpt><trkpt lat="43.2148715" lon="11.5128055"><ele>168.0</ele><time>2026-04-11T14:52:17.404Z</time></trkpt><trkpt lat="43.2149842" lon="11.5129067"><ele>171.0</ele><time>2026-04-11T14:52:18.405Z</time></trkpt><trkpt lat="43.215091" lon="11.5130151"><ele>174.0</ele><time>2026-04-11T14:52:19.405Z</time></trkpt><trkpt lat="43.2151859" lon="11.5131268"><ele>177.0</ele><time>2026-04-11T14:52:20.406Z</time></trkpt><trkpt lat="43.215271" lon="11.5132403"><ele>180.0</ele><time>2026-04-11T14:52:21.405Z</time></trkpt><trkpt lat="43.2153452" lon="11.5133488"><ele>180.0</ele><time>2026-04-11T14:52:22.406Z</time></trkpt><trkpt lat="43.2154035" lon="11.5134749"><ele>180.0</ele><time>2026-04-11T14:52:23.405Z</time></trkpt><trkpt lat="43.2154457" lon="11.5135979"><ele>180.0</ele><time>2026-04-11T14:52:24.406Z</time></trkpt><trkpt lat="43.2154769" lon="11.5137222"><ele>180.0</ele><time>2026-04-11T14:52:25.405Z</time></trkpt><trkpt lat="43.2154989" lon="11.51386"><ele>180.0</ele><time>2026-04-11T14:52:26.405Z</time></trkpt><trkpt lat="43.2155163" lon="11.513989"><ele>180.5</ele><time>2026-04-11T14:52:27.405Z</time></trkpt><trkpt lat="43.2155418" lon="11.5141233"><ele>181.0</ele><time>2026-04-11T14:52:28.406Z</time></trkpt><trkpt lat="43.2155819" lon="11.5142647"><ele>181.5</ele><time>2026-04-11T14:52:29.406Z</time></trkpt><trkpt lat="43.2156298" lon="11.5144131"><ele>182.0</ele><time>2026-04-11T14:52:30.405Z</time></trkpt><trkpt lat="43.2156824" lon="11.5145674"><ele>180.0</ele><time>2026-04-11T14:52:31.406Z</time></trkpt><trkpt lat="43.2157367" lon="11.5147226"><ele>178.0</ele><time>2026-04-11T14:52:32.406Z</time></trkpt><trkpt lat="43.2157923" lon="11.5148777"><ele>176.0</ele><time>2026-04-11T14:52:33.406Z</time></trkpt><trkpt lat="43.2158463" lon="11.5150362"><ele>174.0</ele><time>2026-04-11T14:52:34.405Z</time></trkpt><trkpt lat="43.2158983" lon="11.5151949"><ele>174.0</ele><time>2026-04-11T14:52:35.405Z</time></trkpt><trkpt lat="43.2159545" lon="11.5153547"><ele>174.0</ele><time>2026-04-11T14:52:36.405Z</time></trkpt><trkpt lat="43.2160165" lon="11.5155194"><ele>174.0</ele><time>2026-04-11T14:52:37.405Z</time></trkpt><trkpt lat="43.2160876" lon="11.5156836"><ele>174.0</ele><time>2026-04-11T14:52:38.406Z</time></trkpt><trkpt lat="43.2161626" lon="11.5158474"><ele>172.5</ele><time>2026-04-11T14:52:39.405Z</time></trkpt><trkpt lat="43.2162395" lon="11.5160084"><ele>171.0</ele><time>2026-04-11T14:52:40.405Z</time></trkpt><trkpt lat="43.2163157" lon="11.5161616"><ele>169.5</ele><time>2026-04-11T14:52:41.406Z</time></trkpt><trkpt lat="43.2163927" lon="11.5163079"><ele>168.0</ele><time>2026-04-11T14:52:42.405Z</time></trkpt><trkpt lat="43.2164685" lon="11.5164485"><ele>168.25</ele><time>2026-04-11T14:52:43.405Z</time></trkpt><trkpt lat="43.2165416" lon="11.5165928"><ele>168.5</ele><time>2026-04-11T14:52:44.405Z</time></trkpt><trkpt lat="43.2166155" lon="11.5167451"><ele>168.75</ele><time>2026-04-11T14:52:45.405Z</time></trkpt><trkpt lat="43.2166919" lon="11.5169033"><ele>169.0</ele><time>2026-04-11T14:52:46.405Z</time></trkpt><trkpt lat="43.2167693" lon="11.5170685"><ele>169.25</ele><time>2026-04-11T14:52:47.405Z</time></trkpt><trkpt lat="43.216842" lon="11.5172375"><ele>169.5</ele><time>2026-04-11T14:52:48.406Z</time></trkpt><trkpt lat="43.2169103" lon="11.5174072"><ele>169.75</ele><time>2026-04-11T14:52:49.406Z</time></trkpt><trkpt lat="43.2169768" lon="11.5175739"><ele>170.0</ele><time>2026-04-11T14:52:50.406Z</time></trkpt><trkpt lat="43.217041" lon="11.517737"><ele>170.0</ele><time>2026-04-11T14:52:51.406Z</time></trkpt><trkpt lat="43.2171029" lon="11.517895"><ele>170.0</ele><time>2026-04-11T14:52:52.405Z</time></trkpt><trkpt lat="43.2171636" lon="11.5180512"><ele>170.0</ele><time>2026-04-11T14:52:53.406Z</time></trkpt><trkpt lat="43.2172225" lon="11.5182075"><ele>170.0</ele><time>2026-04-11T14:52:54.406Z</time></trkpt><trkpt lat="43.2172796" lon="11.5183623"><ele>171.0</ele><time>2026-04-11T14:52:55.406Z</time></trkpt><trkpt lat="43.2173367" lon="11.5185138"><ele>172.0</ele><time>2026-04-11T14:52:56.406Z</time></trkpt><trkpt lat="43.2173906" lon="11.5186669"><ele>173.0</ele><time>2026-04-11T14:52:57.405Z</time></trkpt><trkpt lat="43.2174415" lon="11.5188347"><ele>174.0</ele><time>2026-04-11T14:52:58.405Z</time></trkpt><trkpt lat="43.2174833" lon="11.519019"><ele>174.0</ele><time>2026-04-11T14:52:59.405Z</time></trkpt><trkpt lat="43.2175019" lon="11.5192047"><ele>174.0</ele><time>2026-04-11T14:53:00.405Z</time></trkpt><trkpt lat="43.2174947" lon="11.5194013"><ele>174.0</ele><time>2026-04-11T14:53:01.405Z</time></trkpt><trkpt lat="43.2174685" lon="11.5196133"><ele>174.0</ele><time>2026-04-11T14:53:02.406Z</time></trkpt><trkpt lat="43.2174398" lon="11.5198358"><ele>175.5</ele><time>2026-04-11T14:53:03.406Z</time></trkpt><trkpt lat="43.2174225" lon="11.5200478"><ele>177.0</ele><time>2026-04-11T14:53:04.406Z</time></trkpt><trkpt lat="43.2174127" lon="11.5202397"><ele>178.5</ele><time>2026-04-11T14:53:05.406Z</time></trkpt><trkpt lat="43.2174024" lon="11.5204141"><ele>180.0</ele><time>2026-04-11T14:53:06.406Z</time></trkpt><trkpt lat="43.2173904" lon="11.5205702"><ele>180.83333333333334</ele><time>2026-04-11T14:53:07.405Z</time></trkpt><trkpt lat="43.2173829" lon="11.5207079"><ele>181.66666666666666</ele><time>2026-04-11T14:53:08.405Z</time></trkpt><trkpt lat="43.2173832" lon="11.5208248"><ele>182.5</ele><time>2026-04-11T14:53:09.406Z</time></trkpt><trkpt lat="43.217394" lon="11.520921"><ele>183.33333333333331</ele><time>2026-04-11T14:53:10.405Z</time></trkpt><trkpt lat="43.2174168" lon="11.5210131"><ele>184.16666666666666</ele><time>2026-04-11T14:53:11.406Z</time></trkpt><trkpt lat="43.217454" lon="11.5211005"><ele>185.0</ele><time>2026-04-11T14:53:12.405Z</time></trkpt><trkpt lat="43.2175009" lon="11.521187"><ele>183.8</ele><time>2026-04-11T14:53:13.405Z</time></trkpt><trkpt lat="43.2175514" lon="11.5212692"><ele>182.6</ele><time>2026-04-11T14:53:14.406Z</time></trkpt><trkpt lat="43.2176812" lon="11.5214021"><ele>181.39999999999998</ele><time>2026-04-11T14:53:16.405Z</time></trkpt><trkpt lat="43.217761" lon="11.5214493"><ele>180.2</ele><time>2026-04-11T14:53:17.406Z</time></trkpt><trkpt lat="43.2178358" lon="11.5214929"><ele>179.0</ele><time>2026-04-11T14:53:18.406Z</time></trkpt><trkpt lat="43.217917" lon="11.5215373"><ele>179.0</ele><time>2026-04-11T14:53:19.406Z</time></trkpt><trkpt lat="43.2179917" lon="11.5215867"><ele>179.0</ele><time>2026-04-11T14:53:20.406Z</time></trkpt><trkpt lat="43.2180575" lon="11.5216433"><ele>179.0</ele><time>2026-04-11T14:53:21.406Z</time></trkpt><trkpt lat="43.2181098" lon="11.5217162"><ele>179.0</ele><time>2026-04-11T14:53:22.405Z</time></trkpt><trkpt lat="43.2181402" lon="11.5218089"><ele>179.0</ele><time>2026-04-11T14:53:23.405Z</time></trkpt><trkpt lat="43.2181567" lon="11.5219272"><ele>179.0</ele><time>2026-04-11T14:53:24.406Z</time></trkpt><trkpt lat="43.2181668" lon="11.5220569"><ele>179.2</ele><time>2026-04-11T14:53:25.407Z</time></trkpt><trkpt lat="43.218182" lon="11.5221823"><ele>179.39999999999998</ele><time>2026-04-11T14:53:26.407Z</time></trkpt><trkpt lat="43.218203" lon="11.5223018"><ele>179.6</ele><time>2026-04-11T14:53:27.406Z</time></trkpt><trkpt lat="43.2182336" lon="11.5224283"><ele>179.8</ele><time>2026-04-11T14:53:28.406Z</time></trkpt><trkpt lat="43.2182688" lon="11.5225549"><ele>180.0</ele><time>2026-04-11T14:53:29.406Z</time></trkpt><trkpt lat="43.218309" lon="11.5226909"><ele>180.0</ele><time>2026-04-11T14:53:30.407Z</time></trkpt><trkpt lat="43.2183526" lon="11.5228326"><ele>180.0</ele><time>2026-04-11T14:53:31.406Z</time></trkpt><trkpt lat="43.2183974" lon="11.5229778"><ele>180.0</ele><time>2026-04-11T14:53:32.407Z</time></trkpt><trkpt lat="43.2184408" lon="11.5231155"><ele>180.0</ele><time>2026-04-11T14:53:33.406Z</time></trkpt><trkpt lat="43.2184863" lon="11.5232373"><ele>180.0</ele><time>2026-04-11T14:53:34.406Z</time></trkpt><trkpt lat="43.2185334" lon="11.5233436"><ele>178.0</ele><time>2026-04-11T14:53:35.406Z</time></trkpt><trkpt lat="43.2185873" lon="11.523448"><ele>176.0</ele><time>2026-04-11T14:53:36.407Z</time></trkpt><trkpt lat="43.2186528" lon="11.5235613"><ele>174.0</ele><time>2026-04-11T14:53:37.407Z</time></trkpt><trkpt lat="43.2187275" lon="11.5236864"><ele>172.0</ele><time>2026-04-11T14:53:38.406Z</time></trkpt><trkpt lat="43.2188831" lon="11.52395"><ele>172.0</ele><time>2026-04-11T14:53:40.407Z</time></trkpt><trkpt lat="43.2189688" lon="11.5240884"><ele>172.0</ele><time>2026-04-11T14:53:41.407Z</time></trkpt><trkpt lat="43.2190596" lon="11.524239"><ele>172.0</ele><time>2026-04-11T14:53:42.407Z</time></trkpt><trkpt lat="43.2191552" lon="11.5243982"><ele>172.0</ele><time>2026-04-11T14:53:43.406Z</time></trkpt><trkpt lat="43.219249" lon="11.5245515"><ele>171.0</ele><time>2026-04-11T14:53:44.407Z</time></trkpt><trkpt lat="43.2193364" lon="11.524691"><ele>170.0</ele><time>2026-04-11T14:53:45.407Z</time></trkpt><trkpt lat="43.2194181" lon="11.5248059"><ele>169.0</ele><time>2026-04-11T14:53:46.406Z</time></trkpt><trkpt lat="43.2194903" lon="11.5248965"><ele>168.0</ele><time>2026-04-11T14:53:47.407Z</time></trkpt><trkpt lat="43.2195636" lon="11.5249592"><ele>167.0</ele><time>2026-04-11T14:53:48.407Z</time></trkpt><trkpt lat="43.2196415" lon="11.5250085"><ele>167.0</ele><time>2026-04-11T14:53:49.406Z</time></trkpt><trkpt lat="43.2197297" lon="11.5250433"><ele>167.0</ele><time>2026-04-11T14:53:50.406Z</time></trkpt><trkpt lat="43.2198248" lon="11.5250566"><ele>167.0</ele><time>2026-04-11T14:53:51.406Z</time></trkpt><trkpt lat="43.2199198" lon="11.5250418"><ele>167.0</ele><time>2026-04-11T14:53:52.407Z</time></trkpt><trkpt lat="43.2200151" lon="11.5250054"><ele>167.0</ele><time>2026-04-11T14:53:53.407Z</time></trkpt><trkpt lat="43.2201147" lon="11.5249575"><ele>168.5</ele><time>2026-04-11T14:53:54.407Z</time></trkpt><trkpt lat="43.220218" lon="11.5249036"><ele>170.0</ele><time>2026-04-11T14:53:55.408Z</time></trkpt><trkpt lat="43.2203197" lon="11.5248618"><ele>171.5</ele><time>2026-04-11T14:53:56.406Z</time></trkpt><trkpt lat="43.2205295" lon="11.5248973"><ele>173.0</ele><time>2026-04-11T14:53:58.406Z</time></trkpt><trkpt lat="43.2206331" lon="11.524978"><ele>174.0</ele><time>2026-04-11T14:53:59.407Z</time></trkpt><trkpt lat="43.2207348" lon="11.5250663"><ele>175.0</ele><time>2026-04-11T14:54:00.407Z</time></trkpt><trkpt lat="43.2208334" lon="11.5251386"><ele>176.0</ele><time>2026-04-11T14:54:01.406Z</time></trkpt><trkpt lat="43.2209272" lon="11.525205"><ele>177.0</ele><time>2026-04-11T14:54:02.406Z</time></trkpt><trkpt lat="43.2210244" lon="11.5252449"><ele>178.0</ele><time>2026-04-11T14:54:03.406Z</time></trkpt><trkpt lat="43.2211377" lon="11.5252745"><ele>178.0</ele><time>2026-04-11T14:54:04.406Z</time></trkpt><trkpt lat="43.2212643" lon="11.5253029"><ele>178.0</ele><time>2026-04-11T14:54:05.406Z</time></trkpt><trkpt lat="43.2213976" lon="11.5253306"><ele>178.0</ele><time>2026-04-11T14:54:06.407Z</time></trkpt><trkpt lat="43.2215358" lon="11.5253548"><ele>178.0</ele><time>2026-04-11T14:54:07.406Z</time></trkpt><trkpt lat="43.2216812" lon="11.5253792"><ele>176.25</ele><time>2026-04-11T14:54:08.407Z</time></trkpt><trkpt lat="43.2218327" lon="11.5254018"><ele>174.5</ele><time>2026-04-11T14:54:09.406Z</time></trkpt><trkpt lat="43.221975" lon="11.5254222"><ele>172.75</ele><time>2026-04-11T14:54:10.407Z</time></trkpt><trkpt lat="43.2221096" lon="11.5254449"><ele>171.0</ele><time>2026-04-11T14:54:11.406Z</time></trkpt><trkpt lat="43.2222335" lon="11.5254671"><ele>170.60000000000002</ele><time>2026-04-11T14:54:12.407Z</time></trkpt><trkpt lat="43.2223499" lon="11.5254829"><ele>170.2</ele><time>2026-04-11T14:54:13.406Z</time></trkpt><trkpt lat="43.2224591" lon="11.5254912"><ele>169.8</ele><time>2026-04-11T14:54:14.407Z</time></trkpt><trkpt lat="43.2225628" lon="11.5254974"><ele>169.39999999999998</ele><time>2026-04-11T14:54:15.407Z</time></trkpt><trkpt lat="43.2226633" lon="11.5255206"><ele>169.0</ele><time>2026-04-11T14:54:16.407Z</time></trkpt><trkpt lat="43.2227631" lon="11.5255758"><ele>169.0</ele><time>2026-04-11T14:54:17.407Z</time></trkpt><trkpt lat="43.2228591" lon="11.5256614"><ele>169.0</ele><time>2026-04-11T14:54:18.407Z</time></trkpt><trkpt lat="43.2229507" lon="11.5257513"><ele>169.0</ele><time>2026-04-11T14:54:19.406Z</time></trkpt><trkpt lat="43.2230259" lon="11.525826"><ele>169.0</ele><time>2026-04-11T14:54:20.406Z</time></trkpt><trkpt lat="43.223099" lon="11.5258841"><ele>169.0</ele><time>2026-04-11T14:54:21.406Z</time></trkpt><trkpt lat="43.2231707" lon="11.5259343"><ele>170.16666666666669</ele><time>2026-04-11T14:54:22.406Z</time></trkpt><trkpt lat="43.2232442" lon="11.5259683"><ele>171.33333333333334</ele><time>2026-04-11T14:54:23.407Z</time></trkpt><trkpt lat="43.2233205" lon="11.5259873"><ele>172.5</ele><time>2026-04-11T14:54:24.407Z</time></trkpt><trkpt lat="43.2233957" lon="11.5259916"><ele>173.66666666666666</ele><time>2026-04-11T14:54:25.407Z</time></trkpt><trkpt lat="43.223486" lon="11.5259901"><ele>174.83333333333331</ele><time>2026-04-11T14:54:26.407Z</time></trkpt><trkpt lat="43.2235905" lon="11.5259864"><ele>176.0</ele><time>2026-04-11T14:54:27.407Z</time></trkpt><trkpt lat="43.2236996" lon="11.5259836"><ele>176.0</ele><time>2026-04-11T14:54:28.408Z</time></trkpt><trkpt lat="43.2238131" lon="11.5259794"><ele>176.0</ele><time>2026-04-11T14:54:29.408Z</time></trkpt><trkpt lat="43.2239246" lon="11.5259717"><ele>176.0</ele><time>2026-04-11T14:54:30.407Z</time></trkpt><trkpt lat="43.224034" lon="11.5259597"><ele>176.0</ele><time>2026-04-11T14:54:31.407Z</time></trkpt><trkpt lat="43.2241461" lon="11.5259433"><ele>176.0</ele><time>2026-04-11T14:54:32.408Z</time></trkpt><trkpt lat="43.2242704" lon="11.5259351"><ele>176.25</ele><time>2026-04-11T14:54:33.408Z</time></trkpt><trkpt lat="43.2244063" lon="11.5259445"><ele>176.5</ele><time>2026-04-11T14:54:34.407Z</time></trkpt><trkpt lat="43.2245503" lon="11.5259728"><ele>176.75</ele><time>2026-04-11T14:54:35.407Z</time></trkpt><trkpt lat="43.2246935" lon="11.5260103"><ele>177.0</ele><time>2026-04-11T14:54:36.407Z</time></trkpt><trkpt lat="43.22483" lon="11.526051"><ele>177.75</ele><time>2026-04-11T14:54:37.408Z</time></trkpt><trkpt lat="43.2249612" lon="11.5260886"><ele>178.5</ele><time>2026-04-11T14:54:38.408Z</time></trkpt><trkpt lat="43.2250914" lon="11.5261238"><ele>179.25</ele><time>2026-04-11T14:54:39.408Z</time></trkpt><trkpt lat="43.2252216" lon="11.5261607"><ele>180.0</ele><time>2026-04-11T14:54:40.408Z</time></trkpt><trkpt lat="43.2253483" lon="11.5261975"><ele>178.75</ele><time>2026-04-11T14:54:41.408Z</time></trkpt><trkpt lat="43.2254753" lon="11.5262356"><ele>177.5</ele><time>2026-04-11T14:54:42.408Z</time></trkpt><trkpt lat="43.2255974" lon="11.5262765"><ele>176.25</ele><time>2026-04-11T14:54:43.408Z</time></trkpt><trkpt lat="43.2257132" lon="11.5263188"><ele>175.0</ele><time>2026-04-11T14:54:44.407Z</time></trkpt><trkpt lat="43.2258164" lon="11.5263584"><ele>175.0</ele><time>2026-04-11T14:54:45.408Z</time></trkpt><trkpt lat="43.2259077" lon="11.5263884"><ele>175.0</ele><time>2026-04-11T14:54:46.408Z</time></trkpt><trkpt lat="43.2259964" lon="11.5264049"><ele>175.0</ele><time>2026-04-11T14:54:47.407Z</time></trkpt><trkpt lat="43.226092" lon="11.5264117"><ele>175.0</ele><time>2026-04-11T14:54:48.408Z</time></trkpt><trkpt lat="43.2261949" lon="11.5264103"><ele>175.0</ele><time>2026-04-11T14:54:49.408Z</time></trkpt><trkpt lat="43.2262923" lon="11.5264053"><ele>175.0</ele><time>2026-04-11T14:54:50.408Z</time></trkpt><trkpt lat="43.2263934" lon="11.5264012"><ele>175.0</ele><time>2026-04-11T14:54:51.408Z</time></trkpt><trkpt lat="43.2264938" lon="11.5263958"><ele>175.0</ele><time>2026-04-11T14:54:52.407Z</time></trkpt><trkpt lat="43.2265916" lon="11.5263894"><ele>175.0</ele><time>2026-04-11T14:54:53.408Z</time></trkpt><trkpt lat="43.2266835" lon="11.5263852"><ele>175.0</ele><time>2026-04-11T14:54:54.407Z</time></trkpt><trkpt lat="43.2267727" lon="11.5263819"><ele>175.33333333333334</ele><time>2026-04-11T14:54:55.407Z</time></trkpt><trkpt lat="43.2268608" lon="11.526379"><ele>175.66666666666669</ele><time>2026-04-11T14:54:56.407Z</time></trkpt><trkpt lat="43.2269513" lon="11.5263799"><ele>176.0</ele><time>2026-04-11T14:54:57.407Z</time></trkpt><trkpt lat="43.2270439" lon="11.5263879"><ele>176.33333333333334</ele><time>2026-04-11T14:54:58.408Z</time></trkpt><trkpt lat="43.2271326" lon="11.5264102"><ele>176.66666666666666</ele><time>2026-04-11T14:54:59.407Z</time></trkpt><trkpt lat="43.2272097" lon="11.5264433"><ele>177.0</ele><time>2026-04-11T14:55:00.407Z</time></trkpt><trkpt lat="43.227282" lon="11.5264934"><ele>176.2</ele><time>2026-04-11T14:55:01.408Z</time></trkpt><trkpt lat="43.2273594" lon="11.5265637"><ele>175.39999999999998</ele><time>2026-04-11T14:55:02.407Z</time></trkpt><trkpt lat="43.2274404" lon="11.5266458"><ele>174.60000000000002</ele><time>2026-04-11T14:55:03.407Z</time></trkpt><trkpt lat="43.227519" lon="11.5267283"><ele>173.8</ele><time>2026-04-11T14:55:04.408Z</time></trkpt><trkpt lat="43.2276052" lon="11.5268197"><ele>173.0</ele><time>2026-04-11T14:55:05.408Z</time></trkpt><trkpt lat="43.2276884" lon="11.5269057"><ele>173.0</ele><time>2026-04-11T14:55:06.408Z</time></trkpt><trkpt lat="43.2277633" lon="11.5269787"><ele>173.0</ele><time>2026-04-11T14:55:07.408Z</time></trkpt><trkpt lat="43.2278393" lon="11.5270521"><ele>173.0</ele><time>2026-04-11T14:55:08.407Z</time></trkpt><trkpt lat="43.2279338" lon="11.5271335"><ele>173.0</ele><time>2026-04-11T14:55:09.407Z</time></trkpt><trkpt lat="43.2280498" lon="11.5272108"><ele>173.0</ele><time>2026-04-11T14:55:10.407Z</time></trkpt><trkpt lat="43.2281595" lon="11.5272674"><ele>172.0</ele><time>2026-04-11T14:55:11.408Z</time></trkpt><trkpt lat="43.228266" lon="11.5273191"><ele>171.0</ele><time>2026-04-11T14:55:12.408Z</time></trkpt><trkpt lat="43.2283708" lon="11.5273683"><ele>170.0</ele><time>2026-04-11T14:55:13.408Z</time></trkpt><trkpt lat="43.2284686" lon="11.5274133"><ele>169.0</ele><time>2026-04-11T14:55:14.407Z</time></trkpt><trkpt lat="43.2285679" lon="11.5274643"><ele>168.0</ele><time>2026-04-11T14:55:15.408Z</time></trkpt><trkpt lat="43.2286647" lon="11.5275293"><ele>168.0</ele><time>2026-04-11T14:55:16.407Z</time></trkpt><trkpt lat="43.2287644" lon="11.5276194"><ele>168.0</ele><time>2026-04-11T14:55:17.408Z</time></trkpt><trkpt lat="43.2288633" lon="11.5277178"><ele>168.0</ele><time>2026-04-11T14:55:18.408Z</time></trkpt><trkpt lat="43.2289692" lon="11.5278408"><ele>168.0</ele><time>2026-04-11T14:55:19.408Z</time></trkpt><trkpt lat="43.2290707" lon="11.5279621"><ele>169.5</ele><time>2026-04-11T14:55:20.408Z</time></trkpt><trkpt lat="43.229165" lon="11.5280751"><ele>171.0</ele><time>2026-04-11T14:55:21.407Z</time></trkpt><trkpt lat="43.2292561" lon="11.5281835"><ele>172.5</ele><time>2026-04-11T14:55:22.407Z</time></trkpt><trkpt lat="43.2293452" lon="11.5282902"><ele>174.0</ele><time>2026-04-11T14:55:23.408Z</time></trkpt><trkpt lat="43.229428" lon="11.5283907"><ele>174.0</ele><time>2026-04-11T14:55:24.407Z</time></trkpt><trkpt lat="43.2295046" lon="11.5284789"><ele>174.0</ele><time>2026-04-11T14:55:25.408Z</time></trkpt><trkpt lat="43.22958" lon="11.5285611"><ele>174.0</ele><time>2026-04-11T14:55:26.408Z</time></trkpt><trkpt lat="43.2296535" lon="11.5286327"><ele>174.0</ele><time>2026-04-11T14:55:27.408Z</time></trkpt><trkpt lat="43.2297207" lon="11.5286897"><ele>174.0</ele><time>2026-04-11T14:55:28.407Z</time></trkpt><trkpt lat="43.2297751" lon="11.5287352"><ele>174.0</ele><time>2026-04-11T14:55:29.407Z</time></trkpt><trkpt lat="43.2298641" lon="11.5288051"><ele>174.39999999999998</ele><time>2026-04-11T14:55:31.407Z</time></trkpt><trkpt lat="43.2299302" lon="11.5288601"><ele>174.8</ele><time>2026-04-11T14:55:32.407Z</time></trkpt><trkpt lat="43.2299982" lon="11.5289292"><ele>175.2</ele><time>2026-04-11T14:55:33.407Z</time></trkpt><trkpt lat="43.230086" lon="11.5290242"><ele>175.60000000000002</ele><time>2026-04-11T14:55:34.409Z</time></trkpt><trkpt lat="43.230185" lon="11.5291699"><ele>176.0</ele><time>2026-04-11T14:55:35.408Z</time></trkpt><trkpt lat="43.2302962" lon="11.5293432"><ele>176.0</ele><time>2026-04-11T14:55:36.409Z</time></trkpt><trkpt lat="43.2304231" lon="11.5295271"><ele>176.0</ele><time>2026-04-11T14:55:37.409Z</time></trkpt><trkpt lat="43.2305445" lon="11.5296902"><ele>176.0</ele><time>2026-04-11T14:55:38.409Z</time></trkpt><trkpt lat="43.2306533" lon="11.5298283"><ele>175.0</ele><time>2026-04-11T14:55:39.409Z</time></trkpt><trkpt lat="43.23075" lon="11.5299525"><ele>174.0</ele><time>2026-04-11T14:55:40.409Z</time></trkpt><trkpt lat="43.2308379" lon="11.5300725"><ele>173.0</ele><time>2026-04-11T14:55:41.408Z</time></trkpt><trkpt lat="43.2309261" lon="11.5301924"><ele>172.0</ele><time>2026-04-11T14:55:42.409Z</time></trkpt><trkpt lat="43.2310166" lon="11.5303154"><ele>171.25</ele><time>2026-04-11T14:55:43.409Z</time></trkpt><trkpt lat="43.2311102" lon="11.5304443"><ele>170.5</ele><time>2026-04-11T14:55:44.409Z</time></trkpt><trkpt lat="43.2312057" lon="11.5305826"><ele>169.75</ele><time>2026-04-11T14:55:45.409Z</time></trkpt><trkpt lat="43.2312993" lon="11.530741"><ele>169.0</ele><time>2026-04-11T14:55:46.409Z</time></trkpt><trkpt lat="43.2313842" lon="11.5309363"><ele>169.0</ele><time>2026-04-11T14:55:47.409Z</time></trkpt><trkpt lat="43.2314537" lon="11.5311634"><ele>169.0</ele><time>2026-04-11T14:55:48.409Z</time></trkpt><trkpt lat="43.2315158" lon="11.531436"><ele>169.0</ele><time>2026-04-11T14:55:49.408Z</time></trkpt><trkpt lat="43.2315621" lon="11.5317085"><ele>169.33333333333334</ele><time>2026-04-11T14:55:50.409Z</time></trkpt><trkpt lat="43.2316051" lon="11.5319726"><ele>169.66666666666666</ele><time>2026-04-11T14:55:51.409Z</time></trkpt><trkpt lat="43.2316502" lon="11.5322279"><ele>170.0</ele><time>2026-04-11T14:55:52.409Z</time></trkpt><trkpt lat="43.231699" lon="11.5324715"><ele>170.0</ele><time>2026-04-11T14:55:53.409Z</time></trkpt><trkpt lat="43.2317512" lon="11.5327076"><ele>170.0</ele><time>2026-04-11T14:55:54.409Z</time></trkpt><trkpt lat="43.2317994" lon="11.5329326"><ele>170.0</ele><time>2026-04-11T14:55:55.408Z</time></trkpt><trkpt lat="43.2318431" lon="11.5331536"><ele>170.0</ele><time>2026-04-11T14:55:56.409Z</time></trkpt><trkpt lat="43.2318823" lon="11.5333721"><ele>170.0</ele><time>2026-04-11T14:55:57.409Z</time></trkpt><trkpt lat="43.23192" lon="11.5335859"><ele>170.0</ele><time>2026-04-11T14:55:58.408Z</time></trkpt><trkpt lat="43.2319583" lon="11.5337924"><ele>169.5</ele><time>2026-04-11T14:55:59.409Z</time></trkpt><trkpt lat="43.2320054" lon="11.5339853"><ele>169.0</ele><time>2026-04-11T14:56:00.409Z</time></trkpt><trkpt lat="43.2320743" lon="11.5341565"><ele>168.5</ele><time>2026-04-11T14:56:01.409Z</time></trkpt><trkpt lat="43.232171" lon="11.5343098"><ele>168.0</ele><time>2026-04-11T14:56:02.408Z</time></trkpt><trkpt lat="43.2323016" lon="11.5344522"><ele>168.66666666666666</ele><time>2026-04-11T14:56:03.409Z</time></trkpt><trkpt lat="43.2324604" lon="11.5345877"><ele>169.33333333333331</ele><time>2026-04-11T14:56:04.409Z</time></trkpt><trkpt lat="43.2326534" lon="11.5347202"><ele>170.0</ele><time>2026-04-11T14:56:05.409Z</time></trkpt><trkpt lat="43.2328542" lon="11.5348467"><ele>170.0</ele><time>2026-04-11T14:56:06.409Z</time></trkpt><trkpt lat="43.2330332" lon="11.5349662"><ele>170.0</ele><time>2026-04-11T14:56:07.409Z</time></trkpt><trkpt lat="43.2331837" lon="11.5350747"><ele>170.0</ele><time>2026-04-11T14:56:08.409Z</time></trkpt><trkpt lat="43.2333154" lon="11.5351717"><ele>169.75</ele><time>2026-04-11T14:56:09.409Z</time></trkpt><trkpt lat="43.233434" lon="11.5352639"><ele>169.5</ele><time>2026-04-11T14:56:10.408Z</time></trkpt><trkpt lat="43.2335529" lon="11.5353737"><ele>169.25</ele><time>2026-04-11T14:56:11.408Z</time></trkpt><trkpt lat="43.2336601" lon="11.5355089"><ele>169.0</ele><time>2026-04-11T14:56:12.408Z</time></trkpt><trkpt lat="43.2337639" lon="11.535674"><ele>169.0</ele><time>2026-04-11T14:56:13.409Z</time></trkpt><trkpt lat="43.2338638" lon="11.5358693"><ele>169.0</ele><time>2026-04-11T14:56:14.408Z</time></trkpt><trkpt lat="43.2339634" lon="11.5360818"><ele>169.0</ele><time>2026-04-11T14:56:15.409Z</time></trkpt><trkpt lat="43.2340666" lon="11.536288"><ele>170.0</ele><time>2026-04-11T14:56:16.41Z</time></trkpt><trkpt lat="43.2341707" lon="11.5364864"><ele>171.0</ele><time>2026-04-11T14:56:17.409Z</time></trkpt><trkpt lat="43.2342715" lon="11.5366784"><ele>172.0</ele><time>2026-04-11T14:56:18.409Z</time></trkpt><trkpt lat="43.2343724" lon="11.5368706"><ele>172.0</ele><time>2026-04-11T14:56:19.408Z</time></trkpt><trkpt lat="43.2344735" lon="11.5370661"><ele>172.0</ele><time>2026-04-11T14:56:20.408Z</time></trkpt><trkpt lat="43.2345785" lon="11.5372666"><ele>172.0</ele><time>2026-04-11T14:56:21.409Z</time></trkpt><trkpt lat="43.234684" lon="11.5374643"><ele>172.0</ele><time>2026-04-11T14:56:22.408Z</time></trkpt><trkpt lat="43.2347877" lon="11.537658"><ele>172.0</ele><time>2026-04-11T14:56:23.408Z</time></trkpt><trkpt lat="43.2348932" lon="11.5378535"><ele>172.0</ele><time>2026-04-11T14:56:24.409Z</time></trkpt><trkpt lat="43.2349931" lon="11.5380377"><ele>172.66666666666669</ele><time>2026-04-11T14:56:25.409Z</time></trkpt><trkpt lat="43.2350857" lon="11.5382094"><ele>173.33333333333334</ele><time>2026-04-11T14:56:26.408Z</time></trkpt><trkpt lat="43.2351762" lon="11.5383779"><ele>174.0</ele><time>2026-04-11T14:56:27.409Z</time></trkpt><trkpt lat="43.2352713" lon="11.5385502"><ele>173.66666666666666</ele><time>2026-04-11T14:56:28.408Z</time></trkpt><trkpt lat="43.2353779" lon="11.5387449"><ele>173.33333333333331</ele><time>2026-04-11T14:56:29.408Z</time></trkpt><trkpt lat="43.2354884" lon="11.5389457"><ele>173.0</ele><time>2026-04-11T14:56:30.408Z</time></trkpt><trkpt lat="43.2355973" lon="11.5391405"><ele>173.66666666666666</ele><time>2026-04-11T14:56:31.408Z</time></trkpt><trkpt lat="43.2357018" lon="11.5393387"><ele>174.33333333333334</ele><time>2026-04-11T14:56:32.408Z</time></trkpt><trkpt lat="43.2358043" lon="11.5395302"><ele>175.0</ele><time>2026-04-11T14:56:33.409Z</time></trkpt><trkpt lat="43.2358881" lon="11.5397175"><ele>175.0</ele><time>2026-04-11T14:56:34.409Z</time></trkpt><trkpt lat="43.2359337" lon="11.5399345"><ele>175.0</ele><time>2026-04-11T14:56:35.408Z</time></trkpt><trkpt lat="43.2359413" lon="11.5401688"><ele>175.0</ele><time>2026-04-11T14:56:36.409Z</time></trkpt><trkpt lat="43.2358953" lon="11.5404386"><ele>175.0</ele><time>2026-04-11T14:56:37.41Z</time></trkpt><trkpt lat="43.2358622" lon="11.540694"><ele>175.0</ele><time>2026-04-11T14:56:38.409Z</time></trkpt><trkpt lat="43.2358407" lon="11.5409483"><ele>175.0</ele><time>2026-04-11T14:56:39.41Z</time></trkpt><trkpt lat="43.2358289" lon="11.5411934"><ele>176.33333333333334</ele><time>2026-04-11T14:56:40.409Z</time></trkpt><trkpt lat="43.2358218" lon="11.541436"><ele>177.66666666666666</ele><time>2026-04-11T14:56:41.41Z</time></trkpt><trkpt lat="43.2358118" lon="11.5416831"><ele>179.0</ele><time>2026-04-11T14:56:42.409Z</time></trkpt><trkpt lat="43.2358001" lon="11.5419259"><ele>179.0</ele><time>2026-04-11T14:56:43.409Z</time></trkpt><trkpt lat="43.235787" lon="11.542163"><ele>179.0</ele><time>2026-04-11T14:56:44.41Z</time></trkpt><trkpt lat="43.2357753" lon="11.5424082"><ele>179.0</ele><time>2026-04-11T14:56:45.409Z</time></trkpt><trkpt lat="43.2357649" lon="11.5426642"><ele>178.66666666666666</ele><time>2026-04-11T14:56:46.409Z</time></trkpt><trkpt lat="43.2357562" lon="11.5429263"><ele>178.33333333333334</ele><time>2026-04-11T14:56:47.409Z</time></trkpt><trkpt lat="43.2357489" lon="11.5431905"><ele>178.0</ele><time>2026-04-11T14:56:48.41Z</time></trkpt><trkpt lat="43.2357405" lon="11.543458"><ele>177.66666666666669</ele><time>2026-04-11T14:56:49.409Z</time></trkpt><trkpt lat="43.2357358" lon="11.5437274"><ele>177.33333333333334</ele><time>2026-04-11T14:56:50.409Z</time></trkpt><trkpt lat="43.2357248" lon="11.5439972"><ele>177.0</ele><time>2026-04-11T14:56:51.41Z</time></trkpt><trkpt lat="43.2357122" lon="11.5442615"><ele>177.0</ele><time>2026-04-11T14:56:52.409Z</time></trkpt><trkpt lat="43.2357016" lon="11.5445112"><ele>177.0</ele><time>2026-04-11T14:56:53.409Z</time></trkpt><trkpt lat="43.2356953" lon="11.54476"><ele>177.0</ele><time>2026-04-11T14:56:54.409Z</time></trkpt><trkpt lat="43.2357042" lon="11.545012"><ele>176.66666666666666</ele><time>2026-04-11T14:56:55.41Z</time></trkpt><trkpt lat="43.2357394" lon="11.5452692"><ele>176.33333333333331</ele><time>2026-04-11T14:56:56.41Z</time></trkpt><trkpt lat="43.2358007" lon="11.5455322"><ele>176.0</ele><time>2026-04-11T14:56:57.409Z</time></trkpt><trkpt lat="43.2358866" lon="11.5457878"><ele>176.0</ele><time>2026-04-11T14:56:58.409Z</time></trkpt><trkpt lat="43.2359814" lon="11.5460132"><ele>176.0</ele><time>2026-04-11T14:56:59.41Z</time></trkpt><trkpt lat="43.2360786" lon="11.5462257"><ele>176.0</ele><time>2026-04-11T14:57:00.409Z</time></trkpt><trkpt lat="43.2361784" lon="11.5464136"><ele>176.66666666666666</ele><time>2026-04-11T14:57:01.409Z</time></trkpt><trkpt lat="43.2362931" lon="11.5465889"><ele>177.33333333333334</ele><time>2026-04-11T14:57:02.41Z</time></trkpt><trkpt lat="43.2364177" lon="11.5467646"><ele>178.0</ele><time>2026-04-11T14:57:03.409Z</time></trkpt><trkpt lat="43.236548" lon="11.5469485"><ele>176.66666666666669</ele><time>2026-04-11T14:57:04.409Z</time></trkpt><trkpt lat="43.2366819" lon="11.5471315"><ele>175.33333333333334</ele><time>2026-04-11T14:57:05.41Z</time></trkpt><trkpt lat="43.2368208" lon="11.5473134"><ele>174.0</ele><time>2026-04-11T14:57:06.41Z</time></trkpt><trkpt lat="43.2369658" lon="11.5474881"><ele>174.0</ele><time>2026-04-11T14:57:07.409Z</time></trkpt><trkpt lat="43.2371184" lon="11.5476537"><ele>174.0</ele><time>2026-04-11T14:57:08.41Z</time></trkpt><trkpt lat="43.2372742" lon="11.5478209"><ele>174.0</ele><time>2026-04-11T14:57:09.41Z</time></trkpt><trkpt lat="43.2374328" lon="11.5479965"><ele>174.66666666666666</ele><time>2026-04-11T14:57:10.41Z</time></trkpt><trkpt lat="43.2375913" lon="11.5481754"><ele>175.33333333333331</ele><time>2026-04-11T14:57:11.41Z</time></trkpt><trkpt lat="43.2377519" lon="11.5483564"><ele>176.0</ele><time>2026-04-11T14:57:12.41Z</time></trkpt><trkpt lat="43.2379157" lon="11.5485274"><ele>176.0</ele><time>2026-04-11T14:57:13.409Z</time></trkpt><trkpt lat="43.2380787" lon="11.5486845"><ele>176.0</ele><time>2026-04-11T14:57:14.41Z</time></trkpt><trkpt lat="43.2382335" lon="11.5488254"><ele>176.0</ele><time>2026-04-11T14:57:15.409Z</time></trkpt><trkpt lat="43.2383806" lon="11.5489555"><ele>176.0</ele><time>2026-04-11T14:57:16.41Z</time></trkpt><trkpt lat="43.2385249" lon="11.5490777"><ele>176.0</ele><time>2026-04-11T14:57:17.409Z</time></trkpt><trkpt lat="43.2386718" lon="11.5491941"><ele>176.0</ele><time>2026-04-11T14:57:18.409Z</time></trkpt><trkpt lat="43.2388288" lon="11.5493058"><ele>175.66666666666666</ele><time>2026-04-11T14:57:19.41Z</time></trkpt><trkpt lat="43.2389904" lon="11.5494132"><ele>175.33333333333334</ele><time>2026-04-11T14:57:20.41Z</time></trkpt><trkpt lat="43.2391478" lon="11.54953"><ele>175.0</ele><time>2026-04-11T14:57:21.41Z</time></trkpt><trkpt lat="43.2392975" lon="11.5496612"><ele>175.0</ele><time>2026-04-11T14:57:22.41Z</time></trkpt><trkpt lat="43.2394321" lon="11.5498103"><ele>175.0</ele><time>2026-04-11T14:57:23.409Z</time></trkpt><trkpt lat="43.2395612" lon="11.5499753"><ele>175.0</ele><time>2026-04-11T14:57:24.41Z</time></trkpt><trkpt lat="43.2396853" lon="11.5501555"><ele>174.33333333333334</ele><time>2026-04-11T14:57:25.409Z</time></trkpt><trkpt lat="43.2398098" lon="11.550339"><ele>173.66666666666666</ele><time>2026-04-11T14:57:26.41Z</time></trkpt><trkpt lat="43.2399321" lon="11.5505176"><ele>173.0</ele><time>2026-04-11T14:57:27.409Z</time></trkpt><trkpt lat="43.2400483" lon="11.5506829"><ele>173.0</ele><time>2026-04-11T14:57:28.41Z</time></trkpt><trkpt lat="43.2401605" lon="11.5508377"><ele>173.0</ele><time>2026-04-11T14:57:29.41Z</time></trkpt><trkpt lat="43.2402717" lon="11.5509858"><ele>173.0</ele><time>2026-04-11T14:57:30.41Z</time></trkpt><trkpt lat="43.2403812" lon="11.5511315"><ele>172.5</ele><time>2026-04-11T14:57:31.409Z</time></trkpt><trkpt lat="43.2404864" lon="11.5512747"><ele>172.0</ele><time>2026-04-11T14:57:32.41Z</time></trkpt><trkpt lat="43.2405894" lon="11.5514116"><ele>171.5</ele><time>2026-04-11T14:57:33.409Z</time></trkpt><trkpt lat="43.2406841" lon="11.5515374"><ele>171.0</ele><time>2026-04-11T14:57:34.409Z</time></trkpt><trkpt lat="43.2407656" lon="11.5516518"><ele>172.60000000000002</ele><time>2026-04-11T14:57:35.41Z</time></trkpt><trkpt lat="43.2408281" lon="11.5517639"><ele>174.2</ele><time>2026-04-11T14:57:36.409Z</time></trkpt><trkpt lat="43.2408676" lon="11.5518852"><ele>175.8</ele><time>2026-04-11T14:57:37.409Z</time></trkpt><trkpt lat="43.2408686" lon="11.5520184"><ele>177.39999999999998</ele><time>2026-04-11T14:57:38.41Z</time></trkpt><trkpt lat="43.2408085" lon="11.5521639"><ele>179.0</ele><time>2026-04-11T14:57:39.41Z</time></trkpt><trkpt lat="43.2407282" lon="11.5522479"><ele>179.16666666666666</ele><time>2026-04-11T14:57:40.41Z</time></trkpt><trkpt lat="43.2406817" lon="11.5523253"><ele>179.33333333333331</ele><time>2026-04-11T14:57:41.409Z</time></trkpt><trkpt lat="43.2406313" lon="11.5524222"><ele>179.5</ele><time>2026-04-11T14:57:42.409Z</time></trkpt><trkpt lat="43.2405824" lon="11.5525283"><ele>179.66666666666666</ele><time>2026-04-11T14:57:43.409Z</time></trkpt><trkpt lat="43.2405312" lon="11.5526332"><ele>179.83333333333334</ele><time>2026-04-11T14:57:44.41Z</time></trkpt><trkpt lat="43.2404839" lon="11.5527192"><ele>180.0</ele><time>2026-04-11T14:57:45.411Z</time></trkpt><trkpt lat="43.2404427" lon="11.552797"><ele>178.83333333333334</ele><time>2026-04-11T14:57:46.41Z</time></trkpt><trkpt lat="43.2404031" lon="11.5528773"><ele>177.66666666666666</ele><time>2026-04-11T14:57:47.41Z</time></trkpt><trkpt lat="43.2403639" lon="11.5529516"><ele>176.5</ele><time>2026-04-11T14:57:48.41Z</time></trkpt><trkpt lat="43.2403033" lon="11.5530242"><ele>175.33333333333331</ele><time>2026-04-11T14:57:50.41Z</time></trkpt><trkpt lat="43.2402559" lon="11.5530899"><ele>174.16666666666666</ele><time>2026-04-11T14:58:16.41Z</time></trkpt><trkpt lat="43.2403061" lon="11.5531554"><ele>173.0</ele><time>2026-04-11T14:58:20.41Z</time></trkpt><trkpt lat="43.2404146" lon="11.553149"><ele>173.0</ele><time>2026-04-11T14:58:22.411Z</time></trkpt><trkpt lat="43.2404954" lon="11.5531738"><ele>173.0</ele><time>2026-04-11T14:58:23.41Z</time></trkpt><trkpt lat="43.2405643" lon="11.5532258"><ele>173.0</ele><time>2026-04-11T14:58:24.411Z</time></trkpt><trkpt lat="43.2406327" lon="11.5532825"><ele>173.0</ele><time>2026-04-11T14:58:25.411Z</time></trkpt><trkpt lat="43.240708" lon="11.5533388"><ele>173.0</ele><time>2026-04-11T14:58:26.41Z</time></trkpt><trkpt lat="43.2407878" lon="11.5533967"><ele>173.0</ele><time>2026-04-11T14:58:27.41Z</time></trkpt><trkpt lat="43.2408732" lon="11.5534525"><ele>173.0</ele><time>2026-04-11T14:58:28.41Z</time></trkpt><trkpt lat="43.2409579" lon="11.5535076"><ele>173.0</ele><time>2026-04-11T14:58:29.411Z</time></trkpt><trkpt lat="43.2410421" lon="11.5535715"><ele>173.0</ele><time>2026-04-11T14:58:30.41Z</time></trkpt><trkpt lat="43.2411269" lon="11.5536316"><ele>173.0</ele><time>2026-04-11T14:58:31.41Z</time></trkpt><trkpt lat="43.2411983" lon="11.5536964"><ele>173.0</ele><time>2026-04-11T14:58:32.411Z</time></trkpt><trkpt lat="43.2412704" lon="11.5537483"><ele>173.0</ele><time>2026-04-11T14:58:33.411Z</time></trkpt><trkpt lat="43.2413526" lon="11.5537935"><ele>173.0</ele><time>2026-04-11T14:58:34.41Z</time></trkpt><trkpt lat="43.2414416" lon="11.5538318"><ele>173.0</ele><time>2026-04-11T14:58:35.411Z</time></trkpt><trkpt lat="43.2415461" lon="11.5538541"><ele>173.0</ele><time>2026-04-11T14:58:36.41Z</time></trkpt><trkpt lat="43.2416517" lon="11.553853"><ele>173.0</ele><time>2026-04-11T14:58:37.411Z</time></trkpt><trkpt lat="43.2417533" lon="11.5538395"><ele>174.0</ele><time>2026-04-11T14:58:38.411Z</time></trkpt><trkpt lat="43.2418555" lon="11.5538333"><ele>175.0</ele><time>2026-04-11T14:58:39.411Z</time></trkpt><trkpt lat="43.2419544" lon="11.5538579"><ele>176.0</ele><time>2026-04-11T14:58:40.411Z</time></trkpt><trkpt lat="43.2420567" lon="11.5539171"><ele>177.0</ele><time>2026-04-11T14:58:41.41Z</time></trkpt><trkpt lat="43.2421539" lon="11.5539923"><ele>178.0</ele><time>2026-04-11T14:58:42.411Z</time></trkpt><trkpt lat="43.2422481" lon="11.5540736"><ele>181.2</ele><time>2026-04-11T14:58:43.411Z</time></trkpt><trkpt lat="43.242338" lon="11.55415"><ele>184.4</ele><time>2026-04-11T14:58:44.411Z</time></trkpt><trkpt lat="43.2424286" lon="11.5542246"><ele>187.6</ele><time>2026-04-11T14:58:45.411Z</time></trkpt><trkpt lat="43.2425199" lon="11.5542955"><ele>190.79999999999998</ele><time>2026-04-11T14:58:46.41Z</time></trkpt><trkpt lat="43.2426056" lon="11.5543622"><ele>194.0</ele><time>2026-04-11T14:58:47.41Z</time></trkpt><trkpt lat="43.2426915" lon="11.5544295"><ele>194.00000000000003</ele><time>2026-04-11T14:58:48.411Z</time></trkpt><trkpt lat="43.2427719" lon="11.5544808"><ele>194.0</ele><time>2026-04-11T14:58:49.41Z</time></trkpt><trkpt lat="43.2428546" lon="11.5545181"><ele>194.0</ele><time>2026-04-11T14:58:50.411Z</time></trkpt><trkpt lat="43.2429427" lon="11.5545378"><ele>194.0</ele><time>2026-04-11T14:58:51.411Z</time></trkpt><trkpt lat="43.2430344" lon="11.5545467"><ele>194.00000000000003</ele><time>2026-04-11T14:58:52.411Z</time></trkpt><trkpt lat="43.2431244" lon="11.5545469"><ele>194.0</ele><time>2026-04-11T14:58:53.412Z</time></trkpt><trkpt lat="43.2431996" lon="11.5545444"><ele>195.2</ele><time>2026-04-11T14:58:54.412Z</time></trkpt><trkpt lat="43.2433223" lon="11.5545324"><ele>196.39999999999998</ele><time>2026-04-11T14:58:56.411Z</time></trkpt><trkpt lat="43.2434484" lon="11.5545053"><ele>197.6</ele><time>2026-04-11T14:58:58.412Z</time></trkpt><trkpt lat="43.2435205" lon="11.5544878"><ele>198.8</ele><time>2026-04-11T14:58:59.411Z</time></trkpt><trkpt lat="43.2435914" lon="11.5544747"><ele>200.0</ele><time>2026-04-11T14:59:00.411Z</time></trkpt><trkpt lat="43.2436644" lon="11.5544637"><ele>200.00000000000003</ele><time>2026-04-11T14:59:01.412Z</time></trkpt><trkpt lat="43.2437403" lon="11.5544559"><ele>200.0</ele><time>2026-04-11T14:59:02.411Z</time></trkpt><trkpt lat="43.2438231" lon="11.55445"><ele>200.0</ele><time>2026-04-11T14:59:03.411Z</time></trkpt><trkpt lat="43.2439095" lon="11.554445"><ele>200.0</ele><time>2026-04-11T14:59:04.412Z</time></trkpt><trkpt lat="43.2439961" lon="11.5544394"><ele>200.00000000000003</ele><time>2026-04-11T14:59:05.411Z</time></trkpt><trkpt lat="43.244081" lon="11.5544329"><ele>200.0</ele><time>2026-04-11T14:59:06.412Z</time></trkpt><trkpt lat="43.2441647" lon="11.5544223"><ele>198.33333333333334</ele><time>2026-04-11T14:59:07.412Z</time></trkpt><trkpt lat="43.2442509" lon="11.5544108"><ele>196.66666666666669</ele><time>2026-04-11T14:59:08.411Z</time></trkpt><trkpt lat="43.2443398" lon="11.5543959"><ele>195.0</ele><time>2026-04-11T14:59:09.411Z</time></trkpt><trkpt lat="43.2444216" lon="11.5543848"><ele>193.33333333333334</ele><time>2026-04-11T14:59:10.412Z</time></trkpt><trkpt lat="43.2444978" lon="11.5543771"><ele>191.66666666666669</ele><time>2026-04-11T14:59:11.411Z</time></trkpt><trkpt lat="43.2445795" lon="11.5543683"><ele>190.0</ele><time>2026-04-11T14:59:12.411Z</time></trkpt><trkpt lat="43.2446841" lon="11.5543561"><ele>189.0</ele><time>2026-04-11T14:59:13.411Z</time></trkpt><trkpt lat="43.2448041" lon="11.5543452"><ele>188.0</ele><time>2026-04-11T14:59:14.411Z</time></trkpt><trkpt lat="43.2449274" lon="11.5543336"><ele>187.0</ele><time>2026-04-11T14:59:15.411Z</time></trkpt><trkpt lat="43.2450456" lon="11.5543183"><ele>186.0</ele><time>2026-04-11T14:59:16.411Z</time></trkpt><trkpt lat="43.2451642" lon="11.5542995"><ele>186.0</ele><time>2026-04-11T14:59:17.411Z</time></trkpt><trkpt lat="43.2452862" lon="11.55428"><ele>186.0</ele><time>2026-04-11T14:59:18.411Z</time></trkpt><trkpt lat="43.2454143" lon="11.5542614"><ele>186.0</ele><time>2026-04-11T14:59:19.411Z</time></trkpt><trkpt lat="43.2455479" lon="11.5542437"><ele>186.0</ele><time>2026-04-11T14:59:20.411Z</time></trkpt><trkpt lat="43.2456881" lon="11.5542239"><ele>183.75</ele><time>2026-04-11T14:59:21.412Z</time></trkpt><trkpt lat="43.2458243" lon="11.5542034"><ele>181.5</ele><time>2026-04-11T14:59:22.412Z</time></trkpt><trkpt lat="43.2459554" lon="11.5541843"><ele>179.25</ele><time>2026-04-11T14:59:23.411Z</time></trkpt><trkpt lat="43.246083" lon="11.5541654"><ele>177.0</ele><time>2026-04-11T14:59:24.412Z</time></trkpt><trkpt lat="43.2462068" lon="11.5541507"><ele>177.0</ele><time>2026-04-11T14:59:25.412Z</time></trkpt><trkpt lat="43.2463204" lon="11.554143"><ele>177.0</ele><time>2026-04-11T14:59:26.412Z</time></trkpt><trkpt lat="43.2464255" lon="11.5541406"><ele>177.0</ele><time>2026-04-11T14:59:27.411Z</time></trkpt><trkpt lat="43.2465371" lon="11.5541406"><ele>177.0</ele><time>2026-04-11T14:59:28.411Z</time></trkpt><trkpt lat="43.2466585" lon="11.5541523"><ele>175.75</ele><time>2026-04-11T14:59:29.412Z</time></trkpt><trkpt lat="43.2467812" lon="11.5541895"><ele>174.5</ele><time>2026-04-11T14:59:30.412Z</time></trkpt><trkpt lat="43.2468932" lon="11.5542604"><ele>173.25</ele><time>2026-04-11T14:59:31.412Z</time></trkpt><trkpt lat="43.2470063" lon="11.5543539"><ele>172.0</ele><time>2026-04-11T14:59:32.412Z</time></trkpt><trkpt lat="43.247126" lon="11.5544541"><ele>171.75</ele><time>2026-04-11T14:59:33.411Z</time></trkpt><trkpt lat="43.2472485" lon="11.5545528"><ele>171.5</ele><time>2026-04-11T14:59:34.412Z</time></trkpt><trkpt lat="43.247365" lon="11.5546455"><ele>171.25</ele><time>2026-04-11T14:59:35.411Z</time></trkpt><trkpt lat="43.247477" lon="11.5547294"><ele>171.0</ele><time>2026-04-11T14:59:36.412Z</time></trkpt><trkpt lat="43.2475836" lon="11.5548036"><ele>172.33333333333334</ele><time>2026-04-11T14:59:37.411Z</time></trkpt><trkpt lat="43.2476815" lon="11.5548703"><ele>173.66666666666666</ele><time>2026-04-11T14:59:38.412Z</time></trkpt><trkpt lat="43.2477644" lon="11.5549338"><ele>175.0</ele><time>2026-04-11T14:59:39.411Z</time></trkpt><trkpt lat="43.247829" lon="11.5550031"><ele>176.33333333333331</ele><time>2026-04-11T14:59:40.412Z</time></trkpt><trkpt lat="43.2478824" lon="11.5550842"><ele>177.66666666666666</ele><time>2026-04-11T14:59:41.411Z</time></trkpt><trkpt lat="43.247925" lon="11.5551799"><ele>179.0</ele><time>2026-04-11T14:59:42.412Z</time></trkpt><trkpt lat="43.2479679" lon="11.5552825"><ele>178.2</ele><time>2026-04-11T14:59:43.411Z</time></trkpt><trkpt lat="43.248021" lon="11.5553851"><ele>177.39999999999998</ele><time>2026-04-11T14:59:44.412Z</time></trkpt><trkpt lat="43.2480834" lon="11.5554761"><ele>176.6</ele><time>2026-04-11T14:59:45.411Z</time></trkpt><trkpt lat="43.2481555" lon="11.555558"><ele>175.8</ele><time>2026-04-11T14:59:46.412Z</time></trkpt><trkpt lat="43.2482441" lon="11.5556375"><ele>175.0</ele><time>2026-04-11T14:59:47.412Z</time></trkpt><trkpt lat="43.2483321" lon="11.5557151"><ele>177.4</ele><time>2026-04-11T14:59:48.412Z</time></trkpt><trkpt lat="43.248418" lon="11.5557876"><ele>179.8</ele><time>2026-04-11T14:59:49.412Z</time></trkpt><trkpt lat="43.2485062" lon="11.5558606"><ele>182.2</ele><time>2026-04-11T14:59:50.412Z</time></trkpt><trkpt lat="43.248596" lon="11.555932"><ele>184.6</ele><time>2026-04-11T14:59:51.412Z</time></trkpt><trkpt lat="43.2486864" lon="11.5560007"><ele>187.0</ele><time>2026-04-11T14:59:52.411Z</time></trkpt><trkpt lat="43.2487745" lon="11.5560621"><ele>187.0</ele><time>2026-04-11T14:59:53.413Z</time></trkpt><trkpt lat="43.2488641" lon="11.5561066"><ele>187.0</ele><time>2026-04-11T14:59:54.412Z</time></trkpt><trkpt lat="43.24896" lon="11.55613"><ele>187.0</ele><time>2026-04-11T14:59:55.412Z</time></trkpt><trkpt lat="43.2490661" lon="11.5561299"><ele>187.0</ele><time>2026-04-11T14:59:56.413Z</time></trkpt><trkpt lat="43.2491747" lon="11.5561116"><ele>187.0</ele><time>2026-04-11T14:59:57.412Z</time></trkpt><trkpt lat="43.2492821" lon="11.5560824"><ele>188.8</ele><time>2026-04-11T14:59:58.412Z</time></trkpt><trkpt lat="43.2493876" lon="11.5560508"><ele>190.6</ele><time>2026-04-11T14:59:59.413Z</time></trkpt><trkpt lat="43.2494955" lon="11.5560227"><ele>192.4</ele><time>2026-04-11T15:00:00.412Z</time></trkpt><trkpt lat="43.2496062" lon="11.5560008"><ele>194.20000000000002</ele><time>2026-04-11T15:00:01.412Z</time></trkpt><trkpt lat="43.2497216" lon="11.5559882"><ele>196.0</ele><time>2026-04-11T15:00:02.413Z</time></trkpt><trkpt lat="43.2498404" lon="11.5559821"><ele>196.75</ele><time>2026-04-11T15:00:03.412Z</time></trkpt><trkpt lat="43.2499588" lon="11.5559747"><ele>197.5</ele><time>2026-04-11T15:00:04.413Z</time></trkpt><trkpt lat="43.2500649" lon="11.5559516"><ele>198.25</ele><time>2026-04-11T15:00:05.412Z</time></trkpt><trkpt lat="43.2501658" lon="11.5558916"><ele>199.0</ele><time>2026-04-11T15:00:06.413Z</time></trkpt><trkpt lat="43.2502706" lon="11.5557992"><ele>199.0</ele><time>2026-04-11T15:00:07.413Z</time></trkpt><trkpt lat="43.2503734" lon="11.555698"><ele>199.0</ele><time>2026-04-11T15:00:08.413Z</time></trkpt><trkpt lat="43.2504715" lon="11.5555994"><ele>199.0</ele><time>2026-04-11T15:00:09.413Z</time></trkpt><trkpt lat="43.2505552" lon="11.5555034"><ele>199.0</ele><time>2026-04-11T15:00:10.413Z</time></trkpt><trkpt lat="43.2506286" lon="11.555421"><ele>202.2</ele><time>2026-04-11T15:00:11.413Z</time></trkpt><trkpt lat="43.2507131" lon="11.555318"><ele>205.39999999999998</ele><time>2026-04-11T15:00:12.413Z</time></trkpt><trkpt lat="43.2507886" lon="11.5552226"><ele>208.6</ele><time>2026-04-11T15:00:13.413Z</time></trkpt><trkpt lat="43.2508642" lon="11.5551243"><ele>211.8</ele><time>2026-04-11T15:00:14.413Z</time></trkpt><trkpt lat="43.2509429" lon="11.5550456"><ele>215.0</ele><time>2026-04-11T15:00:15.412Z</time></trkpt><trkpt lat="43.2510396" lon="11.5549738"><ele>215.0</ele><time>2026-04-11T15:00:16.413Z</time></trkpt><trkpt lat="43.251147" lon="11.5549158"><ele>215.0</ele><time>2026-04-11T15:00:17.413Z</time></trkpt><trkpt lat="43.2512586" lon="11.5548661"><ele>215.0</ele><time>2026-04-11T15:00:18.413Z</time></trkpt><trkpt lat="43.2513792" lon="11.5548153"><ele>215.0</ele><time>2026-04-11T15:00:19.413Z</time></trkpt><trkpt lat="43.2515031" lon="11.5547697"><ele>214.6</ele><time>2026-04-11T15:00:20.413Z</time></trkpt><trkpt lat="43.2516296" lon="11.5547291"><ele>214.2</ele><time>2026-04-11T15:00:21.412Z</time></trkpt><trkpt lat="43.2517491" lon="11.5546944"><ele>213.8</ele><time>2026-04-11T15:00:22.412Z</time></trkpt><trkpt lat="43.2518518" lon="11.5546647"><ele>213.4</ele><time>2026-04-11T15:00:23.412Z</time></trkpt><trkpt lat="43.2519368" lon="11.5546453"><ele>213.0</ele><time>2026-04-11T15:00:24.412Z</time></trkpt><trkpt lat="43.2520116" lon="11.554632"><ele>213.0</ele><time>2026-04-11T15:00:25.412Z</time></trkpt><trkpt lat="43.2520802" lon="11.5546199"><ele>213.0</ele><time>2026-04-11T15:00:26.413Z</time></trkpt><trkpt lat="43.252144" lon="11.5546184"><ele>213.0</ele><time>2026-04-11T15:00:27.413Z</time></trkpt><trkpt lat="43.2522129" lon="11.5546268"><ele>213.0</ele><time>2026-04-11T15:00:28.412Z</time></trkpt><trkpt lat="43.2522989" lon="11.5546477"><ele>213.0</ele><time>2026-04-11T15:00:29.412Z</time></trkpt><trkpt lat="43.2525194" lon="11.554713"><ele>213.25</ele><time>2026-04-11T15:00:31.412Z</time></trkpt><trkpt lat="43.2526394" lon="11.5547287"><ele>213.5</ele><time>2026-04-11T15:00:32.413Z</time></trkpt><trkpt lat="43.2527592" lon="11.5547258"><ele>213.75</ele><time>2026-04-11T15:00:33.413Z</time></trkpt><trkpt lat="43.2528739" lon="11.5547096"><ele>214.0</ele><time>2026-04-11T15:00:34.412Z</time></trkpt><trkpt lat="43.25298" lon="11.5546871"><ele>214.0</ele><time>2026-04-11T15:00:35.413Z</time></trkpt><trkpt lat="43.2530863" lon="11.5546574"><ele>213.99999999999997</ele><time>2026-04-11T15:00:36.413Z</time></trkpt><trkpt lat="43.2531881" lon="11.5546176"><ele>213.99999999999997</ele><time>2026-04-11T15:00:37.412Z</time></trkpt><trkpt lat="43.2532824" lon="11.5545662"><ele>214.0</ele><time>2026-04-11T15:00:38.412Z</time></trkpt><trkpt lat="43.2533688" lon="11.5545099"><ele>214.0</ele><time>2026-04-11T15:00:39.413Z</time></trkpt><trkpt lat="43.2534437" lon="11.5544584"><ele>216.99999999999997</ele><time>2026-04-11T15:00:40.412Z</time></trkpt><trkpt lat="43.2535092" lon="11.5544109"><ele>220.0</ele><time>2026-04-11T15:00:41.413Z</time></trkpt><trkpt lat="43.2535739" lon="11.554365"><ele>223.0</ele><time>2026-04-11T15:00:42.412Z</time></trkpt><trkpt lat="43.2536314" lon="11.5543218"><ele>226.0</ele><time>2026-04-11T15:00:43.413Z</time></trkpt><trkpt lat="43.2537301" lon="11.5542465"><ele>228.99999999999997</ele><time>2026-04-11T15:00:45.412Z</time></trkpt><trkpt lat="43.2537948" lon="11.5541862"><ele>232.0</ele><time>2026-04-11T15:00:46.412Z</time></trkpt><trkpt lat="43.2538662" lon="11.554102"><ele>232.0</ele><time>2026-04-11T15:00:47.412Z</time></trkpt><trkpt lat="43.2539294" lon="11.5540002"><ele>232.0</ele><time>2026-04-11T15:00:48.412Z</time></trkpt><trkpt lat="43.2539806" lon="11.5538831"><ele>232.0</ele><time>2026-04-11T15:00:49.413Z</time></trkpt><trkpt lat="43.2540171" lon="11.5537524"><ele>232.0</ele><time>2026-04-11T15:00:50.412Z</time></trkpt><trkpt lat="43.2540388" lon="11.5536148"><ele>232.0</ele><time>2026-04-11T15:00:51.413Z</time></trkpt><trkpt lat="43.254052" lon="11.5534788"><ele>234.16666666666666</ele><time>2026-04-11T15:00:52.412Z</time></trkpt><trkpt lat="43.2540691" lon="11.5533513"><ele>236.33333333333331</ele><time>2026-04-11T15:00:53.412Z</time></trkpt><trkpt lat="43.2540993" lon="11.5532336"><ele>238.5</ele><time>2026-04-11T15:00:54.413Z</time></trkpt><trkpt lat="43.2541437" lon="11.5531321"><ele>240.66666666666669</ele><time>2026-04-11T15:00:55.414Z</time></trkpt><trkpt lat="43.2541922" lon="11.5530439"><ele>242.83333333333334</ele><time>2026-04-11T15:00:56.413Z</time></trkpt><trkpt lat="43.2542599" lon="11.5529853"><ele>245.0</ele><time>2026-04-11T15:00:57.412Z</time></trkpt><trkpt lat="43.2543313" lon="11.5529532"><ele>245.0</ele><time>2026-04-11T15:00:58.412Z</time></trkpt><trkpt lat="43.2544049" lon="11.5529425"><ele>245.0</ele><time>2026-04-11T15:00:59.412Z</time></trkpt><trkpt lat="43.2544867" lon="11.5529378"><ele>245.0</ele><time>2026-04-11T15:01:00.414Z</time></trkpt><trkpt lat="43.2545818" lon="11.5529419"><ele>245.0</ele><time>2026-04-11T15:01:01.413Z</time></trkpt><trkpt lat="43.2546902" lon="11.5529386"><ele>245.0</ele><time>2026-04-11T15:01:02.413Z</time></trkpt><trkpt lat="43.2548113" lon="11.5529316"><ele>245.6</ele><time>2026-04-11T15:01:03.413Z</time></trkpt><trkpt lat="43.2549284" lon="11.552925"><ele>246.2</ele><time>2026-04-11T15:01:04.414Z</time></trkpt><trkpt lat="43.2550358" lon="11.5529203"><ele>246.8</ele><time>2026-04-11T15:01:05.413Z</time></trkpt><trkpt lat="43.255139" lon="11.5529149"><ele>247.4</ele><time>2026-04-11T15:01:06.413Z</time></trkpt><trkpt lat="43.255244" lon="11.5529126"><ele>248.0</ele><time>2026-04-11T15:01:07.413Z</time></trkpt><trkpt lat="43.2553525" lon="11.5529178"><ele>248.0</ele><time>2026-04-11T15:01:08.414Z</time></trkpt><trkpt lat="43.2554661" lon="11.5529308"><ele>248.0</ele><time>2026-04-11T15:01:09.413Z</time></trkpt><trkpt lat="43.2555804" lon="11.5529612"><ele>248.0</ele><time>2026-04-11T15:01:10.414Z</time></trkpt><trkpt lat="43.2556958" lon="11.55301"><ele>248.0</ele><time>2026-04-11T15:01:11.413Z</time></trkpt><trkpt lat="43.255807" lon="11.5530732"><ele>248.8</ele><time>2026-04-11T15:01:12.414Z</time></trkpt><trkpt lat="43.2559134" lon="11.5531402"><ele>249.60000000000002</ele><time>2026-04-11T15:01:13.414Z</time></trkpt><trkpt lat="43.2560157" lon="11.5532062"><ele>250.39999999999998</ele><time>2026-04-11T15:01:14.414Z</time></trkpt><trkpt lat="43.2561163" lon="11.553271"><ele>251.2</ele><time>2026-04-11T15:01:15.413Z</time></trkpt><trkpt lat="43.256214" lon="11.5533322"><ele>252.0</ele><time>2026-04-11T15:01:16.414Z</time></trkpt><trkpt lat="43.2563069" lon="11.553391"><ele>252.0</ele><time>2026-04-11T15:01:17.413Z</time></trkpt><trkpt lat="43.2563917" lon="11.5534481"><ele>252.0</ele><time>2026-04-11T15:01:18.414Z</time></trkpt><trkpt lat="43.2564668" lon="11.553503"><ele>252.0</ele><time>2026-04-11T15:01:19.413Z</time></trkpt><trkpt lat="43.2565359" lon="11.5535569"><ele>252.0</ele><time>2026-04-11T15:01:20.413Z</time></trkpt><trkpt lat="43.2566003" lon="11.553605"><ele>252.0</ele><time>2026-04-11T15:01:21.413Z</time></trkpt><trkpt lat="43.2566615" lon="11.5536485"><ele>252.0</ele><time>2026-04-11T15:01:22.414Z</time></trkpt><trkpt lat="43.2567197" lon="11.5536889"><ele>251.39999999999998</ele><time>2026-04-11T15:01:23.413Z</time></trkpt><trkpt lat="43.2567874" lon="11.5537233"><ele>250.79999999999998</ele><time>2026-04-11T15:01:24.414Z</time></trkpt><trkpt lat="43.25687" lon="11.5537504"><ele>250.2</ele><time>2026-04-11T15:01:25.414Z</time></trkpt><trkpt lat="43.2569732" lon="11.5537663"><ele>249.6</ele><time>2026-04-11T15:01:26.413Z</time></trkpt><trkpt lat="43.2570932" lon="11.5537615"><ele>249.0</ele><time>2026-04-11T15:01:27.414Z</time></trkpt><trkpt lat="43.2572145" lon="11.5537378"><ele>249.75</ele><time>2026-04-11T15:01:28.414Z</time></trkpt><trkpt lat="43.2573353" lon="11.5536986"><ele>250.5</ele><time>2026-04-11T15:01:29.413Z</time></trkpt><trkpt lat="43.2574529" lon="11.5536521"><ele>251.25</ele><time>2026-04-11T15:01:30.413Z</time></trkpt><trkpt lat="43.2575592" lon="11.5536101"><ele>252.0</ele><time>2026-04-11T15:01:31.414Z</time></trkpt><trkpt lat="43.2576553" lon="11.5535691"><ele>252.0</ele><time>2026-04-11T15:01:32.414Z</time></trkpt><trkpt lat="43.2577417" lon="11.5535246"><ele>252.0</ele><time>2026-04-11T15:01:33.413Z</time></trkpt><trkpt lat="43.2578214" lon="11.5534762"><ele>252.0</ele><time>2026-04-11T15:01:34.413Z</time></trkpt><trkpt lat="43.2578972" lon="11.5534303"><ele>252.0</ele><time>2026-04-11T15:01:35.413Z</time></trkpt><trkpt lat="43.2579757" lon="11.5533883"><ele>252.0</ele><time>2026-04-11T15:01:36.414Z</time></trkpt><trkpt lat="43.2580623" lon="11.55335"><ele>252.0</ele><time>2026-04-11T15:01:37.413Z</time></trkpt><trkpt lat="43.2581616" lon="11.5533135"><ele>252.0</ele><time>2026-04-11T15:01:38.414Z</time></trkpt><trkpt lat="43.2582671" lon="11.5532843"><ele>252.0</ele><time>2026-04-11T15:01:39.414Z</time></trkpt><trkpt lat="43.2583801" lon="11.5532564"><ele>252.0</ele><time>2026-04-11T15:01:40.413Z</time></trkpt><trkpt lat="43.2584979" lon="11.5532252"><ele>252.0</ele><time>2026-04-11T15:01:41.413Z</time></trkpt><trkpt lat="43.2586169" lon="11.5531931"><ele>252.0</ele><time>2026-04-11T15:01:42.413Z</time></trkpt><trkpt lat="43.2587327" lon="11.5531639"><ele>252.0</ele><time>2026-04-11T15:01:43.414Z</time></trkpt><trkpt lat="43.2588441" lon="11.5531346"><ele>252.0</ele><time>2026-04-11T15:01:44.414Z</time></trkpt><trkpt lat="43.2589516" lon="11.5530921"><ele>252.0</ele><time>2026-04-11T15:01:45.414Z</time></trkpt><trkpt lat="43.2590561" lon="11.5530244"><ele>250.5</ele><time>2026-04-11T15:01:46.414Z</time></trkpt><trkpt lat="43.2591576" lon="11.5529292"><ele>249.0</ele><time>2026-04-11T15:01:47.413Z</time></trkpt><trkpt lat="43.2592503" lon="11.5528147"><ele>247.5</ele><time>2026-04-11T15:01:48.413Z</time></trkpt><trkpt lat="43.2593366" lon="11.5526848"><ele>246.0</ele><time>2026-04-11T15:01:49.413Z</time></trkpt><trkpt lat="43.2594173" lon="11.5525531"><ele>246.0</ele><time>2026-04-11T15:01:50.414Z</time></trkpt><trkpt lat="43.2594913" lon="11.5524125"><ele>246.0</ele><time>2026-04-11T15:01:51.414Z</time></trkpt><trkpt lat="43.2595484" lon="11.5522568"><ele>246.0</ele><time>2026-04-11T15:01:52.413Z</time></trkpt><trkpt lat="43.2595894" lon="11.5520913"><ele>246.0</ele><time>2026-04-11T15:01:53.414Z</time></trkpt><trkpt lat="43.2596183" lon="11.5519256"><ele>246.0</ele><time>2026-04-11T15:01:54.414Z</time></trkpt><trkpt lat="43.259645" lon="11.5517682"><ele>246.00000000000003</ele><time>2026-04-11T15:01:55.414Z</time></trkpt><trkpt lat="43.2596743" lon="11.5516301"><ele>246.00000000000003</ele><time>2026-04-11T15:01:56.414Z</time></trkpt><trkpt lat="43.2597029" lon="11.5515109"><ele>246.0</ele><time>2026-04-11T15:01:57.414Z</time></trkpt><trkpt lat="43.2597245" lon="11.5514154"><ele>246.0</ele><time>2026-04-11T15:01:58.414Z</time></trkpt><trkpt lat="43.2597406" lon="11.5513293"><ele>246.0</ele><time>2026-04-11T15:01:59.415Z</time></trkpt><trkpt lat="43.2597589" lon="11.5512392"><ele>246.0</ele><time>2026-04-11T15:02:00.413Z</time></trkpt><trkpt lat="43.2597888" lon="11.5511312"><ele>246.0</ele><time>2026-04-11T15:02:01.414Z</time></trkpt><trkpt lat="43.259831" lon="11.5510165"><ele>246.0</ele><time>2026-04-11T15:02:02.413Z</time></trkpt><trkpt lat="43.2598841" lon="11.5509028"><ele>246.0</ele><time>2026-04-11T15:02:03.414Z</time></trkpt><trkpt lat="43.2599474" lon="11.5507933"><ele>246.0</ele><time>2026-04-11T15:02:04.413Z</time></trkpt><trkpt lat="43.2600183" lon="11.5506854"><ele>246.4</ele><time>2026-04-11T15:02:05.415Z</time></trkpt><trkpt lat="43.260089" lon="11.550575"><ele>246.8</ele><time>2026-04-11T15:02:06.415Z</time></trkpt><trkpt lat="43.2601596" lon="11.5504615"><ele>247.20000000000002</ele><time>2026-04-11T15:02:07.414Z</time></trkpt><trkpt lat="43.2602336" lon="11.5503475"><ele>247.60000000000002</ele><time>2026-04-11T15:02:08.415Z</time></trkpt><trkpt lat="43.2603155" lon="11.5502375"><ele>248.0</ele><time>2026-04-11T15:02:09.414Z</time></trkpt><trkpt lat="43.2604069" lon="11.5501347"><ele>246.60000000000002</ele><time>2026-04-11T15:02:10.415Z</time></trkpt><trkpt lat="43.2605059" lon="11.550054"><ele>245.20000000000002</ele><time>2026-04-11T15:02:11.414Z</time></trkpt><trkpt lat="43.2606065" lon="11.5500003"><ele>243.8</ele><time>2026-04-11T15:02:12.415Z</time></trkpt><trkpt lat="43.2607059" lon="11.5499653"><ele>242.4</ele><time>2026-04-11T15:02:13.414Z</time></trkpt><trkpt lat="43.260802" lon="11.5499445"><ele>241.0</ele><time>2026-04-11T15:02:14.415Z</time></trkpt><trkpt lat="43.2609112" lon="11.5499281"><ele>239.0</ele><time>2026-04-11T15:02:15.415Z</time></trkpt><trkpt lat="43.2610301" lon="11.5499283"><ele>237.0</ele><time>2026-04-11T15:02:16.414Z</time></trkpt><trkpt lat="43.2611527" lon="11.5499508"><ele>235.0</ele><time>2026-04-11T15:02:17.415Z</time></trkpt><trkpt lat="43.2612603" lon="11.5499811"><ele>233.0</ele><time>2026-04-11T15:02:18.415Z</time></trkpt><trkpt lat="43.2613626" lon="11.5499964"><ele>233.4</ele><time>2026-04-11T15:02:19.415Z</time></trkpt><trkpt lat="43.2614717" lon="11.5499909"><ele>233.8</ele><time>2026-04-11T15:02:20.414Z</time></trkpt><trkpt lat="43.2615834" lon="11.5499667"><ele>234.2</ele><time>2026-04-11T15:02:21.414Z</time></trkpt><trkpt lat="43.2616901" lon="11.5499244"><ele>234.6</ele><time>2026-04-11T15:02:22.415Z</time></trkpt><trkpt lat="43.2617862" lon="11.5498688"><ele>235.0</ele><time>2026-04-11T15:02:23.415Z</time></trkpt><trkpt lat="43.2618848" lon="11.5498008"><ele>235.0</ele><time>2026-04-11T15:02:24.414Z</time></trkpt><trkpt lat="43.2619882" lon="11.5497108"><ele>235.0</ele><time>2026-04-11T15:02:25.414Z</time></trkpt><trkpt lat="43.2620953" lon="11.5496056"><ele>235.0</ele><time>2026-04-11T15:02:26.415Z</time></trkpt><trkpt lat="43.262207" lon="11.549483"><ele>235.0</ele><time>2026-04-11T15:02:27.415Z</time></trkpt><trkpt lat="43.2623077" lon="11.5493611"><ele>237.75</ele><time>2026-04-11T15:02:28.415Z</time></trkpt><trkpt lat="43.2623944" lon="11.5492483"><ele>240.5</ele><time>2026-04-11T15:02:29.415Z</time></trkpt><trkpt lat="43.2624745" lon="11.5491361"><ele>243.25</ele><time>2026-04-11T15:02:30.415Z</time></trkpt><trkpt lat="43.262554" lon="11.5490131"><ele>246.0</ele><time>2026-04-11T15:02:31.415Z</time></trkpt><trkpt lat="43.2626333" lon="11.5488731"><ele>246.0</ele><time>2026-04-11T15:02:32.415Z</time></trkpt><trkpt lat="43.2627095" lon="11.5487212"><ele>246.0</ele><time>2026-04-11T15:02:33.415Z</time></trkpt><trkpt lat="43.2627877" lon="11.5485561"><ele>246.0</ele><time>2026-04-11T15:02:34.415Z</time></trkpt><trkpt lat="43.2628595" lon="11.5484066"><ele>246.0</ele><time>2026-04-11T15:02:35.415Z</time></trkpt><trkpt lat="43.2630088" lon="11.548119"><ele>248.0</ele><time>2026-04-11T15:02:37.415Z</time></trkpt><trkpt lat="43.263065" lon="11.5479704"><ele>250.0</ele><time>2026-04-11T15:02:38.415Z</time></trkpt><trkpt lat="43.2631198" lon="11.5478243"><ele>252.0</ele><time>2026-04-11T15:02:39.415Z</time></trkpt><trkpt lat="43.2631775" lon="11.5476865"><ele>254.0</ele><time>2026-04-11T15:02:40.415Z</time></trkpt><trkpt lat="43.2632415" lon="11.5475584"><ele>256.0</ele><time>2026-04-11T15:02:41.414Z</time></trkpt><trkpt lat="43.2633114" lon="11.547443"><ele>258.0</ele><time>2026-04-11T15:02:42.415Z</time></trkpt><trkpt lat="43.2633826" lon="11.5473477"><ele>260.0</ele><time>2026-04-11T15:02:43.415Z</time></trkpt><trkpt lat="43.2634549" lon="11.5472625"><ele>262.0</ele><time>2026-04-11T15:02:44.414Z</time></trkpt><trkpt lat="43.263535" lon="11.5471775"><ele>264.0</ele><time>2026-04-11T15:02:45.415Z</time></trkpt><trkpt lat="43.2636274" lon="11.5470878"><ele>264.0</ele><time>2026-04-11T15:02:46.415Z</time></trkpt><trkpt lat="43.2637308" lon="11.5469902"><ele>264.0</ele><time>2026-04-11T15:02:47.415Z</time></trkpt><trkpt lat="43.2638401" lon="11.5468888"><ele>264.0</ele><time>2026-04-11T15:02:48.415Z</time></trkpt><trkpt lat="43.2639482" lon="11.5467868"><ele>264.0</ele><time>2026-04-11T15:02:49.414Z</time></trkpt><trkpt lat="43.2640532" lon="11.5466822"><ele>264.0</ele><time>2026-04-11T15:02:50.415Z</time></trkpt><trkpt lat="43.2641497" lon="11.5465756"><ele>264.0</ele><time>2026-04-11T15:02:51.415Z</time></trkpt><trkpt lat="43.2642364" lon="11.5464655"><ele>264.0</ele><time>2026-04-11T15:02:52.414Z</time></trkpt><trkpt lat="43.2643147" lon="11.5463482"><ele>264.0</ele><time>2026-04-11T15:02:53.415Z</time></trkpt><trkpt lat="43.2643873" lon="11.5462283"><ele>267.0</ele><time>2026-04-11T15:02:54.414Z</time></trkpt><trkpt lat="43.2644346" lon="11.5460962"><ele>270.0</ele><time>2026-04-11T15:02:55.414Z</time></trkpt><trkpt lat="43.2644777" lon="11.5459474"><ele>273.0</ele><time>2026-04-11T15:02:56.415Z</time></trkpt><trkpt lat="43.2645127" lon="11.545793"><ele>276.0</ele><time>2026-04-11T15:02:57.414Z</time></trkpt><trkpt lat="43.2645408" lon="11.5456333"><ele>276.0</ele><time>2026-04-11T15:02:58.415Z</time></trkpt><trkpt lat="43.2645674" lon="11.5454681"><ele>276.0</ele><time>2026-04-11T15:02:59.414Z</time></trkpt><trkpt lat="43.2645916" lon="11.5453071"><ele>276.0</ele><time>2026-04-11T15:03:00.415Z</time></trkpt><trkpt lat="43.2646136" lon="11.5451617"><ele>276.0</ele><time>2026-04-11T15:03:01.415Z</time></trkpt><trkpt lat="43.2646336" lon="11.5450238"><ele>276.2</ele><time>2026-04-11T15:03:02.415Z</time></trkpt><trkpt lat="43.2646553" lon="11.5448858"><ele>276.40000000000003</ele><time>2026-04-11T15:03:03.415Z</time></trkpt><trkpt lat="43.2646803" lon="11.5447484"><ele>276.6</ele><time>2026-04-11T15:03:04.415Z</time></trkpt><trkpt lat="43.2647189" lon="11.5446178"><ele>276.8</ele><time>2026-04-11T15:03:05.415Z</time></trkpt><trkpt lat="43.2647722" lon="11.5444939"><ele>277.0</ele><time>2026-04-11T15:03:06.414Z</time></trkpt><trkpt lat="43.2648389" lon="11.5443772"><ele>271.0</ele><time>2026-04-11T15:03:07.414Z</time></trkpt><trkpt lat="43.2649077" lon="11.5442553"><ele>265.0</ele><time>2026-04-11T15:03:08.415Z</time></trkpt><trkpt lat="43.2649724" lon="11.5441251"><ele>259.0</ele><time>2026-04-11T15:03:09.416Z</time></trkpt><trkpt lat="43.2650301" lon="11.5439852"><ele>253.0</ele><time>2026-04-11T15:03:10.415Z</time></trkpt><trkpt lat="43.2650821" lon="11.5438354"><ele>250.75</ele><time>2026-04-11T15:03:11.415Z</time></trkpt><trkpt lat="43.2651317" lon="11.5436791"><ele>248.5</ele><time>2026-04-11T15:03:12.415Z</time></trkpt><trkpt lat="43.265175" lon="11.5435157"><ele>246.25</ele><time>2026-04-11T15:03:13.416Z</time></trkpt><trkpt lat="43.2652047" lon="11.5433479"><ele>244.0</ele><time>2026-04-11T15:03:14.415Z</time></trkpt><trkpt lat="43.2652147" lon="11.5431743"><ele>244.0</ele><time>2026-04-11T15:03:15.416Z</time></trkpt><trkpt lat="43.2652058" lon="11.5429892"><ele>244.0</ele><time>2026-04-11T15:03:16.416Z</time></trkpt><trkpt lat="43.2651959" lon="11.5427939"><ele>244.0</ele><time>2026-04-11T15:03:17.415Z</time></trkpt><trkpt lat="43.2652041" lon="11.5425939"><ele>244.0</ele><time>2026-04-11T15:03:18.416Z</time></trkpt><trkpt lat="43.2652391" lon="11.5424058"><ele>242.25</ele><time>2026-04-11T15:03:19.416Z</time></trkpt><trkpt lat="43.2652939" lon="11.5422306"><ele>240.5</ele><time>2026-04-11T15:03:20.416Z</time></trkpt><trkpt lat="43.2653509" lon="11.5420612"><ele>238.75</ele><time>2026-04-11T15:03:21.415Z</time></trkpt><trkpt lat="43.2654023" lon="11.5418856"><ele>237.0</ele><time>2026-04-11T15:03:22.415Z</time></trkpt><trkpt lat="43.2654443" lon="11.5416999"><ele>237.25</ele><time>2026-04-11T15:03:23.416Z</time></trkpt><trkpt lat="43.2654789" lon="11.5415088"><ele>237.5</ele><time>2026-04-11T15:03:24.415Z</time></trkpt><trkpt lat="43.2655042" lon="11.541329"><ele>237.75</ele><time>2026-04-11T15:03:25.415Z</time></trkpt><trkpt lat="43.2655235" lon="11.5411621"><ele>238.0</ele><time>2026-04-11T15:03:26.415Z</time></trkpt><trkpt lat="43.2655356" lon="11.5410011"><ele>238.0</ele><time>2026-04-11T15:03:27.415Z</time></trkpt><trkpt lat="43.2655485" lon="11.540858"><ele>238.0</ele><time>2026-04-11T15:03:28.415Z</time></trkpt><trkpt lat="43.2655698" lon="11.5407303"><ele>238.0</ele><time>2026-04-11T15:03:29.416Z</time></trkpt><trkpt lat="43.2655944" lon="11.5406147"><ele>238.0</ele><time>2026-04-11T15:03:30.416Z</time></trkpt><trkpt lat="43.265631" lon="11.5405116"><ele>238.0</ele><time>2026-04-11T15:03:31.415Z</time></trkpt><trkpt lat="43.265682" lon="11.5404162"><ele>239.8</ele><time>2026-04-11T15:03:32.416Z</time></trkpt><trkpt lat="43.2657455" lon="11.5403307"><ele>241.60000000000002</ele><time>2026-04-11T15:03:33.415Z</time></trkpt><trkpt lat="43.2658203" lon="11.5402427"><ele>243.39999999999998</ele><time>2026-04-11T15:03:34.416Z</time></trkpt><trkpt lat="43.2658987" lon="11.5401439"><ele>245.2</ele><time>2026-04-11T15:03:35.415Z</time></trkpt><trkpt lat="43.2659753" lon="11.5400369"><ele>247.0</ele><time>2026-04-11T15:03:36.416Z</time></trkpt><trkpt lat="43.2660499" lon="11.5399252"><ele>247.0</ele><time>2026-04-11T15:03:37.416Z</time></trkpt><trkpt lat="43.2661974" lon="11.5396975"><ele>247.0</ele><time>2026-04-11T15:03:39.415Z</time></trkpt><trkpt lat="43.2662655" lon="11.5395877"><ele>247.0</ele><time>2026-04-11T15:03:40.416Z</time></trkpt><trkpt lat="43.2663286" lon="11.5394687"><ele>247.0</ele><time>2026-04-11T15:03:41.416Z</time></trkpt><trkpt lat="43.2663896" lon="11.5393514"><ele>244.75</ele><time>2026-04-11T15:03:42.415Z</time></trkpt><trkpt lat="43.2664504" lon="11.539246"><ele>242.5</ele><time>2026-04-11T15:03:43.416Z</time></trkpt><trkpt lat="43.2665101" lon="11.5391545"><ele>240.25</ele><time>2026-04-11T15:03:44.415Z</time></trkpt><trkpt lat="43.2665696" lon="11.5390817"><ele>238.0</ele><time>2026-04-11T15:03:45.416Z</time></trkpt><trkpt lat="43.2667446" lon="11.5389802"><ele>238.0</ele><time>2026-04-11T15:03:47.415Z</time></trkpt><trkpt lat="43.2668456" lon="11.5389281"><ele>238.0</ele><time>2026-04-11T15:03:48.415Z</time></trkpt><trkpt lat="43.2669578" lon="11.5388656"><ele>238.0</ele><time>2026-04-11T15:03:49.415Z</time></trkpt><trkpt lat="43.2670769" lon="11.5387948"><ele>238.0</ele><time>2026-04-11T15:03:50.416Z</time></trkpt><trkpt lat="43.2671902" lon="11.5387212"><ele>237.0</ele><time>2026-04-11T15:03:51.416Z</time></trkpt><trkpt lat="43.2672985" lon="11.53865"><ele>236.0</ele><time>2026-04-11T15:03:52.415Z</time></trkpt><trkpt lat="43.2674035" lon="11.5385807"><ele>235.0</ele><time>2026-04-11T15:03:53.415Z</time></trkpt><trkpt lat="43.2674999" lon="11.5385161"><ele>234.0</ele><time>2026-04-11T15:03:54.416Z</time></trkpt><trkpt lat="43.2675882" lon="11.5384557"><ele>233.0</ele><time>2026-04-11T15:03:55.415Z</time></trkpt><trkpt lat="43.267671" lon="11.5383987"><ele>233.0</ele><time>2026-04-11T15:03:56.415Z</time></trkpt><trkpt lat="43.2677525" lon="11.5383374"><ele>233.0</ele><time>2026-04-11T15:03:57.416Z</time></trkpt><trkpt lat="43.2678338" lon="11.5382773"><ele>233.0</ele><time>2026-04-11T15:03:58.415Z</time></trkpt><trkpt lat="43.2679156" lon="11.5382147"><ele>233.0</ele><time>2026-04-11T15:03:59.416Z</time></trkpt><trkpt lat="43.2680058" lon="11.5381534"><ele>233.0</ele><time>2026-04-11T15:04:00.416Z</time></trkpt><trkpt lat="43.2681058" lon="11.5380891"><ele>230.4</ele><time>2026-04-11T15:04:01.416Z</time></trkpt><trkpt lat="43.2682081" lon="11.5380235"><ele>227.8</ele><time>2026-04-11T15:04:02.415Z</time></trkpt><trkpt lat="43.268304" lon="11.5379614"><ele>225.2</ele><time>2026-04-11T15:04:03.416Z</time></trkpt><trkpt lat="43.268392" lon="11.5379018"><ele>222.6</ele><time>2026-04-11T15:04:04.416Z</time></trkpt><trkpt lat="43.2684786" lon="11.5378388"><ele>220.0</ele><time>2026-04-11T15:04:05.415Z</time></trkpt><trkpt lat="43.2685659" lon="11.537775"><ele>219.4</ele><time>2026-04-11T15:04:06.415Z</time></trkpt><trkpt lat="43.2686562" lon="11.5377206"><ele>218.8</ele><time>2026-04-11T15:04:07.415Z</time></trkpt><trkpt lat="43.2687539" lon="11.5376888"><ele>218.2</ele><time>2026-04-11T15:04:08.416Z</time></trkpt><trkpt lat="43.2688623" lon="11.5376853"><ele>217.6</ele><time>2026-04-11T15:04:09.416Z</time></trkpt><trkpt lat="43.2689754" lon="11.5377146"><ele>217.0</ele><time>2026-04-11T15:04:10.415Z</time></trkpt><trkpt lat="43.2690873" lon="11.5377704"><ele>214.2</ele><time>2026-04-11T15:04:11.415Z</time></trkpt><trkpt lat="43.269186" lon="11.5378305"><ele>211.39999999999998</ele><time>2026-04-11T15:04:12.415Z</time></trkpt><trkpt lat="43.2692885" lon="11.5378534"><ele>208.60000000000002</ele><time>2026-04-11T15:04:13.416Z</time></trkpt><trkpt lat="43.2693991" lon="11.5378489"><ele>205.8</ele><time>2026-04-11T15:04:14.417Z</time></trkpt><trkpt lat="43.2695122" lon="11.5378223"><ele>203.0</ele><time>2026-04-11T15:04:15.417Z</time></trkpt><trkpt lat="43.269623" lon="11.5377798"><ele>203.0</ele><time>2026-04-11T15:04:16.416Z</time></trkpt><trkpt lat="43.2697302" lon="11.5377296"><ele>203.0</ele><time>2026-04-11T15:04:17.417Z</time></trkpt><trkpt lat="43.2699685" lon="11.5376108"><ele>203.0</ele><time>2026-04-11T15:04:19.417Z</time></trkpt><trkpt lat="43.2700873" lon="11.5375966"><ele>199.75</ele><time>2026-04-11T15:04:20.417Z</time></trkpt><trkpt lat="43.2702058" lon="11.5376188"><ele>196.5</ele><time>2026-04-11T15:04:21.417Z</time></trkpt><trkpt lat="43.270318" lon="11.5376591"><ele>193.25</ele><time>2026-04-11T15:04:22.416Z</time></trkpt><trkpt lat="43.2704286" lon="11.5377032"><ele>190.0</ele><time>2026-04-11T15:04:23.417Z</time></trkpt><trkpt lat="43.2705386" lon="11.5377335"><ele>189.0</ele><time>2026-04-11T15:04:24.416Z</time></trkpt><trkpt lat="43.2706437" lon="11.5377661"><ele>188.0</ele><time>2026-04-11T15:04:25.416Z</time></trkpt><trkpt lat="43.2707466" lon="11.5378109"><ele>187.0</ele><time>2026-04-11T15:04:26.416Z</time></trkpt><trkpt lat="43.2708505" lon="11.537875"><ele>186.0</ele><time>2026-04-11T15:04:27.417Z</time></trkpt><trkpt lat="43.2709531" lon="11.5379601"><ele>185.0</ele><time>2026-04-11T15:04:28.416Z</time></trkpt><trkpt lat="43.2710483" lon="11.5380609"><ele>184.5</ele><time>2026-04-11T15:04:29.416Z</time></trkpt><trkpt lat="43.2711399" lon="11.5381651"><ele>184.0</ele><time>2026-04-11T15:04:30.417Z</time></trkpt><trkpt lat="43.2712166" lon="11.5383011"><ele>183.5</ele><time>2026-04-11T15:04:31.416Z</time></trkpt><trkpt lat="43.2712842" lon="11.5384504"><ele>183.0</ele><time>2026-04-11T15:04:32.416Z</time></trkpt><trkpt lat="43.2713478" lon="11.5386065"><ele>182.75</ele><time>2026-04-11T15:04:33.416Z</time></trkpt><trkpt lat="43.2714125" lon="11.5387634"><ele>182.5</ele><time>2026-04-11T15:04:34.417Z</time></trkpt><trkpt lat="43.2714804" lon="11.5389292"><ele>182.25</ele><time>2026-04-11T15:04:35.416Z</time></trkpt><trkpt lat="43.2715462" lon="11.5390903"><ele>182.0</ele><time>2026-04-11T15:04:36.417Z</time></trkpt><trkpt lat="43.27161" lon="11.5392434"><ele>183.25</ele><time>2026-04-11T15:04:37.417Z</time></trkpt><trkpt lat="43.2716726" lon="11.5394014"><ele>184.5</ele><time>2026-04-11T15:04:38.417Z</time></trkpt><trkpt lat="43.2717359" lon="11.5395607"><ele>185.75</ele><time>2026-04-11T15:04:39.417Z</time></trkpt><trkpt lat="43.2717996" lon="11.5397202"><ele>187.0</ele><time>2026-04-11T15:04:40.417Z</time></trkpt><trkpt lat="43.2718646" lon="11.5398841"><ele>187.5</ele><time>2026-04-11T15:04:41.416Z</time></trkpt><trkpt lat="43.2719311" lon="11.5400501"><ele>188.0</ele><time>2026-04-11T15:04:42.416Z</time></trkpt><trkpt lat="43.2720021" lon="11.540222"><ele>188.5</ele><time>2026-04-11T15:04:43.417Z</time></trkpt><trkpt lat="43.2720677" lon="11.5403903"><ele>189.0</ele><time>2026-04-11T15:04:44.417Z</time></trkpt><trkpt lat="43.2721329" lon="11.5405527"><ele>189.5</ele><time>2026-04-11T15:04:45.416Z</time></trkpt><trkpt lat="43.2721988" lon="11.5407192"><ele>190.0</ele><time>2026-04-11T15:04:46.417Z</time></trkpt><trkpt lat="43.2722652" lon="11.5408905"><ele>190.5</ele><time>2026-04-11T15:04:47.416Z</time></trkpt><trkpt lat="43.272332" lon="11.5410663"><ele>191.0</ele><time>2026-04-11T15:04:48.416Z</time></trkpt><trkpt lat="43.2723963" lon="11.5412492"><ele>194.0</ele><time>2026-04-11T15:04:49.416Z</time></trkpt><trkpt lat="43.2724507" lon="11.5414379"><ele>197.0</ele><time>2026-04-11T15:04:50.416Z</time></trkpt><trkpt lat="43.2724857" lon="11.5416278"><ele>200.0</ele><time>2026-04-11T15:04:51.416Z</time></trkpt><trkpt lat="43.2725061" lon="11.5418168"><ele>203.0</ele><time>2026-04-11T15:04:52.417Z</time></trkpt><trkpt lat="43.2725208" lon="11.5419989"><ele>205.0</ele><time>2026-04-11T15:04:53.417Z</time></trkpt><trkpt lat="43.2725335" lon="11.5421661"><ele>207.0</ele><time>2026-04-11T15:04:54.416Z</time></trkpt><trkpt lat="43.2725484" lon="11.5423234"><ele>209.0</ele><time>2026-04-11T15:04:55.417Z</time></trkpt><trkpt lat="43.272563" lon="11.542474"><ele>211.0</ele><time>2026-04-11T15:04:56.416Z</time></trkpt><trkpt lat="43.2725805" lon="11.5426175"><ele>210.99999999999997</ele><time>2026-04-11T15:04:57.417Z</time></trkpt><trkpt lat="43.2726048" lon="11.5427513"><ele>211.0</ele><time>2026-04-11T15:04:58.417Z</time></trkpt><trkpt lat="43.272637" lon="11.5428701"><ele>211.0</ele><time>2026-04-11T15:04:59.416Z</time></trkpt><trkpt lat="43.2726813" lon="11.5429537"><ele>211.0</ele><time>2026-04-11T15:05:00.417Z</time></trkpt><trkpt lat="43.2727379" lon="11.5430236"><ele>210.99999999999997</ele><time>2026-04-11T15:05:01.416Z</time></trkpt><trkpt lat="43.2728043" lon="11.5430369"><ele>211.0</ele><time>2026-04-11T15:05:02.416Z</time></trkpt><trkpt lat="43.27294" lon="11.5430274"><ele>213.25</ele><time>2026-04-11T15:05:04.417Z</time></trkpt><trkpt lat="43.2730428" lon="11.5429587"><ele>215.5</ele><time>2026-04-11T15:05:05.417Z</time></trkpt><trkpt lat="43.2731607" lon="11.5429499"><ele>217.75</ele><time>2026-04-11T15:05:06.417Z</time></trkpt><trkpt lat="43.2732637" lon="11.5429938"><ele>220.0</ele><time>2026-04-11T15:05:07.417Z</time></trkpt><trkpt lat="43.2734386" lon="11.5431498"><ele>221.99999999999997</ele><time>2026-04-11T15:05:09.416Z</time></trkpt><trkpt lat="43.2735137" lon="11.5432366"><ele>224.0</ele><time>2026-04-11T15:05:10.417Z</time></trkpt><trkpt lat="43.2735727" lon="11.543327"><ele>226.0</ele><time>2026-04-11T15:05:11.416Z</time></trkpt><trkpt lat="43.2736118" lon="11.5434324"><ele>228.0</ele><time>2026-04-11T15:05:12.417Z</time></trkpt><trkpt lat="43.2736268" lon="11.5435474"><ele>229.99999999999997</ele><time>2026-04-11T15:05:13.416Z</time></trkpt><trkpt lat="43.2736125" lon="11.5436649"><ele>232.0</ele><time>2026-04-11T15:05:14.416Z</time></trkpt><trkpt lat="43.2735754" lon="11.5437767"><ele>233.6</ele><time>2026-04-11T15:05:15.418Z</time></trkpt><trkpt lat="43.2735247" lon="11.5438825"><ele>235.2</ele><time>2026-04-11T15:05:16.416Z</time></trkpt><trkpt lat="43.2734646" lon="11.5439827"><ele>236.8</ele><time>2026-04-11T15:05:17.418Z</time></trkpt><trkpt lat="43.2733985" lon="11.5440818"><ele>238.4</ele><time>2026-04-11T15:05:18.418Z</time></trkpt><trkpt lat="43.2733343" lon="11.5441757"><ele>240.0</ele><time>2026-04-11T15:05:19.417Z</time></trkpt><trkpt lat="43.2732776" lon="11.5442726"><ele>240.0</ele><time>2026-04-11T15:05:20.418Z</time></trkpt><trkpt lat="43.2732324" lon="11.5443683"><ele>240.0</ele><time>2026-04-11T15:05:21.418Z</time></trkpt><trkpt lat="43.2732027" lon="11.5444723"><ele>240.0</ele><time>2026-04-11T15:05:22.418Z</time></trkpt><trkpt lat="43.2731827" lon="11.5445909"><ele>240.0</ele><time>2026-04-11T15:05:23.417Z</time></trkpt><trkpt lat="43.2731729" lon="11.5447193"><ele>240.0</ele><time>2026-04-11T15:05:24.417Z</time></trkpt><trkpt lat="43.2731658" lon="11.5448575"><ele>240.0</ele><time>2026-04-11T15:05:25.418Z</time></trkpt><trkpt lat="43.2731583" lon="11.5450045"><ele>241.25</ele><time>2026-04-11T15:05:26.418Z</time></trkpt><trkpt lat="43.2731501" lon="11.5451633"><ele>242.5</ele><time>2026-04-11T15:05:27.418Z</time></trkpt><trkpt lat="43.2731422" lon="11.5453248"><ele>243.75</ele><time>2026-04-11T15:05:28.418Z</time></trkpt><trkpt lat="43.2731391" lon="11.5454734"><ele>245.0</ele><time>2026-04-11T15:05:29.417Z</time></trkpt><trkpt lat="43.2731409" lon="11.5456219"><ele>246.75</ele><time>2026-04-11T15:05:30.417Z</time></trkpt><trkpt lat="43.2731512" lon="11.5457784"><ele>248.5</ele><time>2026-04-11T15:05:31.418Z</time></trkpt><trkpt lat="43.2731722" lon="11.5459383"><ele>250.25</ele><time>2026-04-11T15:05:32.418Z</time></trkpt><trkpt lat="43.2732014" lon="11.5460954"><ele>252.0</ele><time>2026-04-11T15:05:33.417Z</time></trkpt><trkpt lat="43.2732375" lon="11.5462536"><ele>254.25</ele><time>2026-04-11T15:05:34.417Z</time></trkpt><trkpt lat="43.2732813" lon="11.5464055"><ele>256.5</ele><time>2026-04-11T15:05:35.417Z</time></trkpt><trkpt lat="43.2733304" lon="11.5465514"><ele>258.75</ele><time>2026-04-11T15:05:36.418Z</time></trkpt><trkpt lat="43.2733839" lon="11.5466879"><ele>261.0</ele><time>2026-04-11T15:05:37.418Z</time></trkpt><trkpt lat="43.2734424" lon="11.5468047"><ele>261.0</ele><time>2026-04-11T15:05:38.417Z</time></trkpt><trkpt lat="43.2735097" lon="11.5469099"><ele>261.0</ele><time>2026-04-11T15:05:39.417Z</time></trkpt><trkpt lat="43.273588" lon="11.5469989"><ele>261.0</ele><time>2026-04-11T15:05:40.418Z</time></trkpt><trkpt lat="43.2736736" lon="11.5470664"><ele>261.0</ele><time>2026-04-11T15:05:41.418Z</time></trkpt><trkpt lat="43.273767" lon="11.5471124"><ele>261.0</ele><time>2026-04-11T15:05:42.418Z</time></trkpt><trkpt lat="43.2738678" lon="11.5471345"><ele>265.5</ele><time>2026-04-11T15:05:43.417Z</time></trkpt><trkpt lat="43.2739763" lon="11.5471382"><ele>270.0</ele><time>2026-04-11T15:05:44.418Z</time></trkpt><trkpt lat="43.2740941" lon="11.5471342"><ele>274.5</ele><time>2026-04-11T15:05:45.417Z</time></trkpt><trkpt lat="43.2742151" lon="11.5471259"><ele>279.0</ele><time>2026-04-11T15:05:46.418Z</time></trkpt><trkpt lat="43.2743293" lon="11.5471134"><ele>279.0</ele><time>2026-04-11T15:05:47.418Z</time></trkpt><trkpt lat="43.2744361" lon="11.5471004"><ele>279.0</ele><time>2026-04-11T15:05:48.418Z</time></trkpt><trkpt lat="43.2745393" lon="11.5471022"><ele>279.0</ele><time>2026-04-11T15:05:49.418Z</time></trkpt><trkpt lat="43.2746343" lon="11.5471335"><ele>279.0</ele><time>2026-04-11T15:05:50.417Z</time></trkpt><trkpt lat="43.2747231" lon="11.5471922"><ele>279.0</ele><time>2026-04-11T15:05:51.418Z</time></trkpt><trkpt lat="43.2748077" lon="11.5472643"><ele>280.4</ele><time>2026-04-11T15:05:52.417Z</time></trkpt><trkpt lat="43.2748928" lon="11.5473379"><ele>281.79999999999995</ele><time>2026-04-11T15:05:53.418Z</time></trkpt><trkpt lat="43.2749781" lon="11.5474085"><ele>283.20000000000005</ele><time>2026-04-11T15:05:54.417Z</time></trkpt><trkpt lat="43.2750618" lon="11.5474774"><ele>284.6</ele><time>2026-04-11T15:05:55.417Z</time></trkpt><trkpt lat="43.2751431" lon="11.547544"><ele>286.0</ele><time>2026-04-11T15:05:56.418Z</time></trkpt><trkpt lat="43.2752244" lon="11.5476114"><ele>286.0</ele><time>2026-04-11T15:05:57.417Z</time></trkpt><trkpt lat="43.2753043" lon="11.5476802"><ele>286.0</ele><time>2026-04-11T15:05:58.418Z</time></trkpt><trkpt lat="43.2753854" lon="11.5477505"><ele>286.0</ele><time>2026-04-11T15:05:59.417Z</time></trkpt><trkpt lat="43.2754713" lon="11.5478232"><ele>286.0</ele><time>2026-04-11T15:06:00.418Z</time></trkpt><trkpt lat="43.2755628" lon="11.547896"><ele>286.0</ele><time>2026-04-11T15:06:01.418Z</time></trkpt><trkpt lat="43.2756621" lon="11.5479623"><ele>289.75</ele><time>2026-04-11T15:06:02.418Z</time></trkpt><trkpt lat="43.2757707" lon="11.5480189"><ele>293.5</ele><time>2026-04-11T15:06:03.417Z</time></trkpt><trkpt lat="43.2758876" lon="11.5480722"><ele>297.25</ele><time>2026-04-11T15:06:04.417Z</time></trkpt><trkpt lat="43.2760101" lon="11.548124"><ele>301.0</ele><time>2026-04-11T15:06:05.418Z</time></trkpt><trkpt lat="43.2761319" lon="11.5481715"><ele>301.0</ele><time>2026-04-11T15:06:06.417Z</time></trkpt><trkpt lat="43.2762452" lon="11.5482144"><ele>301.0</ele><time>2026-04-11T15:06:07.417Z</time></trkpt><trkpt lat="43.2763509" lon="11.5482562"><ele>301.0</ele><time>2026-04-11T15:06:08.417Z</time></trkpt><trkpt lat="43.2764536" lon="11.5482994"><ele>301.0</ele><time>2026-04-11T15:06:09.418Z</time></trkpt><trkpt lat="43.2765574" lon="11.5483531"><ele>301.0</ele><time>2026-04-11T15:06:10.417Z</time></trkpt><trkpt lat="43.2766608" lon="11.5484228"><ele>301.5</ele><time>2026-04-11T15:06:11.418Z</time></trkpt><trkpt lat="43.2767623" lon="11.5485052"><ele>302.0</ele><time>2026-04-11T15:06:12.418Z</time></trkpt><trkpt lat="43.2768651" lon="11.5486012"><ele>302.5</ele><time>2026-04-11T15:06:13.417Z</time></trkpt><trkpt lat="43.2769702" lon="11.5487052"><ele>303.0</ele><time>2026-04-11T15:06:14.418Z</time></trkpt><trkpt lat="43.2770733" lon="11.5488051"><ele>303.0</ele><time>2026-04-11T15:06:15.417Z</time></trkpt><trkpt lat="43.2771726" lon="11.5488946"><ele>303.0</ele><time>2026-04-11T15:06:16.417Z</time></trkpt><trkpt lat="43.2772664" lon="11.5489771"><ele>303.0</ele><time>2026-04-11T15:06:17.418Z</time></trkpt><trkpt lat="43.2773538" lon="11.5490527"><ele>303.0</ele><time>2026-04-11T15:06:18.417Z</time></trkpt><trkpt lat="43.2774355" lon="11.5491229"><ele>303.0</ele><time>2026-04-11T15:06:19.418Z</time></trkpt><trkpt lat="43.2775142" lon="11.549189"><ele>300.2</ele><time>2026-04-11T15:06:20.418Z</time></trkpt><trkpt lat="43.2775901" lon="11.5492543"><ele>297.4</ele><time>2026-04-11T15:06:21.418Z</time></trkpt><trkpt lat="43.2776686" lon="11.5493173"><ele>294.59999999999997</ele><time>2026-04-11T15:06:22.419Z</time></trkpt><trkpt lat="43.2777514" lon="11.5493736"><ele>291.8</ele><time>2026-04-11T15:06:23.418Z</time></trkpt><trkpt lat="43.2778373" lon="11.5494234"><ele>289.0</ele><time>2026-04-11T15:06:24.418Z</time></trkpt><trkpt lat="43.2779286" lon="11.549462"><ele>289.0</ele><time>2026-04-11T15:06:25.419Z</time></trkpt><trkpt lat="43.2780306" lon="11.5494801"><ele>289.0</ele><time>2026-04-11T15:06:26.419Z</time></trkpt><trkpt lat="43.278142" lon="11.5494767"><ele>289.0</ele><time>2026-04-11T15:06:27.419Z</time></trkpt><trkpt lat="43.2782645" lon="11.5494614"><ele>289.0</ele><time>2026-04-11T15:06:28.419Z</time></trkpt><trkpt lat="43.27839" lon="11.549454"><ele>286.0</ele><time>2026-04-11T15:06:29.419Z</time></trkpt><trkpt lat="43.2785123" lon="11.5494558"><ele>283.0</ele><time>2026-04-11T15:06:30.418Z</time></trkpt><trkpt lat="43.2786242" lon="11.5494636"><ele>280.0</ele><time>2026-04-11T15:06:31.418Z</time></trkpt><trkpt lat="43.2787252" lon="11.5494736"><ele>277.0</ele><time>2026-04-11T15:06:32.419Z</time></trkpt><trkpt lat="43.2788178" lon="11.5494828"><ele>274.0</ele><time>2026-04-11T15:06:33.419Z</time></trkpt><trkpt lat="43.2789039" lon="11.5495034"><ele>273.59999999999997</ele><time>2026-04-11T15:06:34.419Z</time></trkpt><trkpt lat="43.2789872" lon="11.5495437"><ele>273.2</ele><time>2026-04-11T15:06:35.419Z</time></trkpt><trkpt lat="43.2790746" lon="11.5496027"><ele>272.79999999999995</ele><time>2026-04-11T15:06:36.418Z</time></trkpt><trkpt lat="43.2791669" lon="11.5496771"><ele>272.4</ele><time>2026-04-11T15:06:37.419Z</time></trkpt><trkpt lat="43.2792645" lon="11.549756"><ele>272.0</ele><time>2026-04-11T15:06:38.418Z</time></trkpt><trkpt lat="43.2793638" lon="11.5498276"><ele>272.0</ele><time>2026-04-11T15:06:39.419Z</time></trkpt><trkpt lat="43.2794687" lon="11.5498843"><ele>272.0</ele><time>2026-04-11T15:06:40.418Z</time></trkpt><trkpt lat="43.279576" lon="11.5499284"><ele>272.0</ele><time>2026-04-11T15:06:41.418Z</time></trkpt><trkpt lat="43.2796833" lon="11.5499578"><ele>272.0</ele><time>2026-04-11T15:06:42.419Z</time></trkpt><trkpt lat="43.2797911" lon="11.5499671"><ele>272.0</ele><time>2026-04-11T15:06:43.418Z</time></trkpt><trkpt lat="43.2798994" lon="11.5499583"><ele>271.25</ele><time>2026-04-11T15:06:44.418Z</time></trkpt><trkpt lat="43.2800069" lon="11.5499335"><ele>270.5</ele><time>2026-04-11T15:06:45.418Z</time></trkpt><trkpt lat="43.28012" lon="11.5498909"><ele>269.75</ele><time>2026-04-11T15:06:46.419Z</time></trkpt><trkpt lat="43.2802365" lon="11.5498289"><ele>269.0</ele><time>2026-04-11T15:06:47.419Z</time></trkpt><trkpt lat="43.2803509" lon="11.5497501"><ele>269.0</ele><time>2026-04-11T15:06:48.419Z</time></trkpt><trkpt lat="43.2804632" lon="11.5496652"><ele>269.0</ele><time>2026-04-11T15:06:49.419Z</time></trkpt><trkpt lat="43.2805662" lon="11.549585"><ele>269.0</ele><time>2026-04-11T15:06:50.418Z</time></trkpt><trkpt lat="43.2806596" lon="11.5495108"><ele>269.0</ele><time>2026-04-11T15:06:51.419Z</time></trkpt><trkpt lat="43.2807407" lon="11.54942"><ele>272.0</ele><time>2026-04-11T15:06:52.419Z</time></trkpt><trkpt lat="43.2808116" lon="11.5492991"><ele>275.0</ele><time>2026-04-11T15:06:53.418Z</time></trkpt><trkpt lat="43.2808739" lon="11.5491636"><ele>278.0</ele><time>2026-04-11T15:06:54.419Z</time></trkpt><trkpt lat="43.2809377" lon="11.5490227"><ele>281.0</ele><time>2026-04-11T15:06:55.419Z</time></trkpt><trkpt lat="43.2810058" lon="11.5488987"><ele>281.0</ele><time>2026-04-11T15:06:56.419Z</time></trkpt><trkpt lat="43.2810859" lon="11.548786"><ele>281.0</ele><time>2026-04-11T15:06:57.418Z</time></trkpt><trkpt lat="43.281171" lon="11.5486825"><ele>281.0</ele><time>2026-04-11T15:06:58.418Z</time></trkpt><trkpt lat="43.2812662" lon="11.5485824"><ele>281.0</ele><time>2026-04-11T15:06:59.419Z</time></trkpt><trkpt lat="43.2813683" lon="11.548482"><ele>286.0</ele><time>2026-04-11T15:07:00.418Z</time></trkpt><trkpt lat="43.2814719" lon="11.548375"><ele>291.0</ele><time>2026-04-11T15:07:01.418Z</time></trkpt><trkpt lat="43.2815755" lon="11.5482682"><ele>296.0</ele><time>2026-04-11T15:07:02.419Z</time></trkpt><trkpt lat="43.2816659" lon="11.5481916"><ele>301.0</ele><time>2026-04-11T15:07:03.418Z</time></trkpt><trkpt lat="43.2817516" lon="11.5481344"><ele>301.0</ele><time>2026-04-11T15:07:04.418Z</time></trkpt><trkpt lat="43.2818342" lon="11.5481053"><ele>301.0</ele><time>2026-04-11T15:07:05.419Z</time></trkpt><trkpt lat="43.2819189" lon="11.5480938"><ele>301.0</ele><time>2026-04-11T15:07:06.418Z</time></trkpt><trkpt lat="43.2820026" lon="11.5481079"><ele>301.0</ele><time>2026-04-11T15:07:07.419Z</time></trkpt><trkpt lat="43.2820646" lon="11.5481314"><ele>301.0</ele><time>2026-04-11T15:07:08.419Z</time></trkpt><trkpt lat="43.2821533" lon="11.5481514"><ele>301.0</ele><time>2026-04-11T15:07:10.419Z</time></trkpt><trkpt lat="43.2822191" lon="11.5481475"><ele>302.75</ele><time>2026-04-11T15:07:11.418Z</time></trkpt><trkpt lat="43.2823145" lon="11.5481451"><ele>304.5</ele><time>2026-04-11T15:07:12.418Z</time></trkpt><trkpt lat="43.2824289" lon="11.5481504"><ele>306.25</ele><time>2026-04-11T15:07:13.419Z</time></trkpt><trkpt lat="43.2825523" lon="11.5481673"><ele>308.0</ele><time>2026-04-11T15:07:14.418Z</time></trkpt><trkpt lat="43.2826764" lon="11.5481897"><ele>308.0</ele><time>2026-04-11T15:07:15.419Z</time></trkpt><trkpt lat="43.2827899" lon="11.5482237"><ele>308.0</ele><time>2026-04-11T15:07:16.418Z</time></trkpt><trkpt lat="43.2828927" lon="11.5482707"><ele>308.0</ele><time>2026-04-11T15:07:17.419Z</time></trkpt><trkpt lat="43.2829915" lon="11.5483329"><ele>308.0</ele><time>2026-04-11T15:07:18.419Z</time></trkpt><trkpt lat="43.2830899" lon="11.5484094"><ele>308.0</ele><time>2026-04-11T15:07:19.419Z</time></trkpt><trkpt lat="43.2831878" lon="11.5484958"><ele>309.6</ele><time>2026-04-11T15:07:20.418Z</time></trkpt><trkpt lat="43.2832826" lon="11.548583"><ele>311.20000000000005</ele><time>2026-04-11T15:07:21.418Z</time></trkpt><trkpt lat="43.2833779" lon="11.5486681"><ele>312.8</ele><time>2026-04-11T15:07:22.419Z</time></trkpt><trkpt lat="43.2834768" lon="11.548742"><ele>314.40000000000003</ele><time>2026-04-11T15:07:23.418Z</time></trkpt><trkpt lat="43.2835759" lon="11.5487972"><ele>316.0</ele><time>2026-04-11T15:07:24.418Z</time></trkpt><trkpt lat="43.2836712" lon="11.5488332"><ele>316.0</ele><time>2026-04-11T15:07:25.419Z</time></trkpt><trkpt lat="43.2837639" lon="11.5488543"><ele>316.0</ele><time>2026-04-11T15:07:26.419Z</time></trkpt><trkpt lat="43.2838609" lon="11.548872"><ele>316.0</ele><time>2026-04-11T15:07:27.419Z</time></trkpt><trkpt lat="43.2839441" lon="11.5488829"><ele>316.0</ele><time>2026-04-11T15:07:28.42Z</time></trkpt><trkpt lat="43.284026" lon="11.5488839"><ele>316.0</ele><time>2026-04-11T15:07:29.42Z</time></trkpt><trkpt lat="43.284109" lon="11.5488689"><ele>316.0</ele><time>2026-04-11T15:07:30.419Z</time></trkpt><trkpt lat="43.284188" lon="11.5488308"><ele>312.2</ele><time>2026-04-11T15:07:31.42Z</time></trkpt><trkpt lat="43.2842684" lon="11.5487627"><ele>308.40000000000003</ele><time>2026-04-11T15:07:32.42Z</time></trkpt><trkpt lat="43.2843485" lon="11.5486656"><ele>304.6</ele><time>2026-04-11T15:07:33.419Z</time></trkpt><trkpt lat="43.2844167" lon="11.5485403"><ele>300.8</ele><time>2026-04-11T15:07:34.419Z</time></trkpt><trkpt lat="43.2844823" lon="11.5484037"><ele>297.0</ele><time>2026-04-11T15:07:35.419Z</time></trkpt><trkpt lat="43.2845382" lon="11.5482372"><ele>296.5</ele><time>2026-04-11T15:07:36.419Z</time></trkpt><trkpt lat="43.2845913" lon="11.5480684"><ele>296.0</ele><time>2026-04-11T15:07:37.419Z</time></trkpt><trkpt lat="43.2846455" lon="11.5479093"><ele>295.5</ele><time>2026-04-11T15:07:38.42Z</time></trkpt><trkpt lat="43.2846969" lon="11.5477672"><ele>295.0</ele><time>2026-04-11T15:07:39.42Z</time></trkpt><trkpt lat="43.2847296" lon="11.5476281"><ele>293.0</ele><time>2026-04-11T15:07:40.419Z</time></trkpt><trkpt lat="43.284752" lon="11.5474987"><ele>291.0</ele><time>2026-04-11T15:07:41.419Z</time></trkpt><trkpt lat="43.2847659" lon="11.547357"><ele>289.0</ele><time>2026-04-11T15:07:42.42Z</time></trkpt><trkpt lat="43.2847733" lon="11.5472071"><ele>287.0</ele><time>2026-04-11T15:07:43.42Z</time></trkpt><trkpt lat="43.2847784" lon="11.5470581"><ele>285.0</ele><time>2026-04-11T15:07:44.419Z</time></trkpt><trkpt lat="43.2848067" lon="11.5469268"><ele>290.0</ele><time>2026-04-11T15:07:45.419Z</time></trkpt><trkpt lat="43.2848605" lon="11.546813"><ele>295.0</ele><time>2026-04-11T15:07:46.42Z</time></trkpt><trkpt lat="43.2849274" lon="11.5467199"><ele>300.0</ele><time>2026-04-11T15:07:47.42Z</time></trkpt><trkpt lat="43.2849975" lon="11.5466381"><ele>305.0</ele><time>2026-04-11T15:07:48.42Z</time></trkpt><trkpt lat="43.2850787" lon="11.5465754"><ele>310.0</ele><time>2026-04-11T15:07:49.42Z</time></trkpt><trkpt lat="43.2851772" lon="11.546513"><ele>310.0</ele><time>2026-04-11T15:07:50.419Z</time></trkpt><trkpt lat="43.2854312" lon="11.5464146"><ele>310.0</ele><time>2026-04-11T15:07:52.42Z</time></trkpt><trkpt lat="43.2855612" lon="11.5463742"><ele>310.0</ele><time>2026-04-11T15:07:53.42Z</time></trkpt><trkpt lat="43.2856727" lon="11.546316"><ele>309.6</ele><time>2026-04-11T15:07:54.419Z</time></trkpt><trkpt lat="43.2857693" lon="11.5462433"><ele>309.2</ele><time>2026-04-11T15:07:55.419Z</time></trkpt><trkpt lat="43.2858701" lon="11.5461568"><ele>308.8</ele><time>2026-04-11T15:07:56.419Z</time></trkpt><trkpt lat="43.2859637" lon="11.5460788"><ele>308.4</ele><time>2026-04-11T15:07:57.42Z</time></trkpt><trkpt lat="43.2860525" lon="11.5460066"><ele>308.0</ele><time>2026-04-11T15:07:58.42Z</time></trkpt><trkpt lat="43.2861388" lon="11.5459505"><ele>308.6666666666667</ele><time>2026-04-11T15:07:59.42Z</time></trkpt><trkpt lat="43.2862217" lon="11.5459126"><ele>309.33333333333337</ele><time>2026-04-11T15:08:00.419Z</time></trkpt><trkpt lat="43.2863063" lon="11.5458957"><ele>310.0</ele><time>2026-04-11T15:08:01.419Z</time></trkpt><trkpt lat="43.2863968" lon="11.5458887"><ele>310.6666666666667</ele><time>2026-04-11T15:08:02.42Z</time></trkpt><trkpt lat="43.286486" lon="11.5459033"><ele>311.3333333333333</ele><time>2026-04-11T15:08:03.419Z</time></trkpt><trkpt lat="43.2865702" lon="11.5459396"><ele>312.0</ele><time>2026-04-11T15:08:04.419Z</time></trkpt><trkpt lat="43.2866455" lon="11.5459961"><ele>312.0</ele><time>2026-04-11T15:08:05.419Z</time></trkpt><trkpt lat="43.2867149" lon="11.5460762"><ele>312.0</ele><time>2026-04-11T15:08:06.419Z</time></trkpt><trkpt lat="43.2867868" lon="11.5461492"><ele>312.0</ele><time>2026-04-11T15:08:07.42Z</time></trkpt><trkpt lat="43.2868673" lon="11.5462009"><ele>312.0</ele><time>2026-04-11T15:08:08.42Z</time></trkpt><trkpt lat="43.2869551" lon="11.5462273"><ele>312.0</ele><time>2026-04-11T15:08:09.419Z</time></trkpt><trkpt lat="43.2870491" lon="11.546217"><ele>312.0</ele><time>2026-04-11T15:08:10.42Z</time></trkpt><trkpt lat="43.2871271" lon="11.546177"><ele>312.0</ele><time>2026-04-11T15:08:11.419Z</time></trkpt><trkpt lat="43.2872076" lon="11.5460953"><ele>312.0</ele><time>2026-04-11T15:08:12.42Z</time></trkpt><trkpt lat="43.2872668" lon="11.545995"><ele>312.0</ele><time>2026-04-11T15:08:13.42Z</time></trkpt><trkpt lat="43.2873775" lon="11.5457267"><ele>309.25</ele><time>2026-04-11T15:08:15.42Z</time></trkpt><trkpt lat="43.287393" lon="11.5455138"><ele>306.5</ele><time>2026-04-11T15:08:16.42Z</time></trkpt><trkpt lat="43.2874002" lon="11.5453331"><ele>303.75</ele><time>2026-04-11T15:08:17.419Z</time></trkpt><trkpt lat="43.2874059" lon="11.5451517"><ele>301.0</ele><time>2026-04-11T15:08:18.42Z</time></trkpt><trkpt lat="43.2874047" lon="11.5449688"><ele>301.0</ele><time>2026-04-11T15:08:19.419Z</time></trkpt><trkpt lat="43.2874155" lon="11.5448027"><ele>301.0</ele><time>2026-04-11T15:08:20.42Z</time></trkpt><trkpt lat="43.2874382" lon="11.5446465"><ele>301.0</ele><time>2026-04-11T15:08:21.42Z</time></trkpt><trkpt lat="43.2874683" lon="11.5444882"><ele>301.0</ele><time>2026-04-11T15:08:22.42Z</time></trkpt><trkpt lat="43.2875108" lon="11.5443363"><ele>300.6</ele><time>2026-04-11T15:08:23.419Z</time></trkpt><trkpt lat="43.2875586" lon="11.5441939"><ele>300.20000000000005</ele><time>2026-04-11T15:08:24.42Z</time></trkpt><trkpt lat="43.2875962" lon="11.5440621"><ele>299.79999999999995</ele><time>2026-04-11T15:08:25.421Z</time></trkpt><trkpt lat="43.287621" lon="11.5439303"><ele>299.4</ele><time>2026-04-11T15:08:26.419Z</time></trkpt><trkpt lat="43.2876339" lon="11.5437872"><ele>299.0</ele><time>2026-04-11T15:08:27.419Z</time></trkpt><trkpt lat="43.2876316" lon="11.543632"><ele>297.75</ele><time>2026-04-11T15:08:28.42Z</time></trkpt><trkpt lat="43.2876274" lon="11.5434648"><ele>296.5</ele><time>2026-04-11T15:08:29.419Z</time></trkpt><trkpt lat="43.2876406" lon="11.5432961"><ele>295.25</ele><time>2026-04-11T15:08:30.421Z</time></trkpt><trkpt lat="43.2876714" lon="11.543126"><ele>294.0</ele><time>2026-04-11T15:08:31.42Z</time></trkpt><trkpt lat="43.2877145" lon="11.5429643"><ele>291.59999999999997</ele><time>2026-04-11T15:08:32.421Z</time></trkpt><trkpt lat="43.2877565" lon="11.5428223"><ele>289.2</ele><time>2026-04-11T15:08:33.42Z</time></trkpt><trkpt lat="43.2877953" lon="11.5426918"><ele>286.79999999999995</ele><time>2026-04-11T15:08:34.421Z</time></trkpt><trkpt lat="43.2878304" lon="11.542576"><ele>284.4</ele><time>2026-04-11T15:08:35.42Z</time></trkpt><trkpt lat="43.287873" lon="11.5424637"><ele>282.0</ele><time>2026-04-11T15:08:36.42Z</time></trkpt><trkpt lat="43.287933" lon="11.5423509"><ele>282.0</ele><time>2026-04-11T15:08:37.42Z</time></trkpt><trkpt lat="43.2880093" lon="11.5422298"><ele>282.0</ele><time>2026-04-11T15:08:38.421Z</time></trkpt><trkpt lat="43.2880906" lon="11.5421015"><ele>282.0</ele><time>2026-04-11T15:08:39.421Z</time></trkpt><trkpt lat="43.2881661" lon="11.5419635"><ele>282.0</ele><time>2026-04-11T15:08:40.42Z</time></trkpt><trkpt lat="43.2882286" lon="11.5418191"><ele>286.0</ele><time>2026-04-11T15:08:41.421Z</time></trkpt><trkpt lat="43.2882776" lon="11.5416759"><ele>290.0</ele><time>2026-04-11T15:08:42.421Z</time></trkpt><trkpt lat="43.2883195" lon="11.5415463"><ele>294.0</ele><time>2026-04-11T15:08:43.42Z</time></trkpt><trkpt lat="43.2883654" lon="11.5414389"><ele>298.0</ele><time>2026-04-11T15:08:44.42Z</time></trkpt><trkpt lat="43.2884298" lon="11.5413505"><ele>302.0</ele><time>2026-04-11T15:08:45.42Z</time></trkpt><trkpt lat="43.2885184" lon="11.5412796"><ele>302.0</ele><time>2026-04-11T15:08:46.421Z</time></trkpt><trkpt lat="43.2886297" lon="11.5412245"><ele>302.0</ele><time>2026-04-11T15:08:47.421Z</time></trkpt><trkpt lat="43.2888975" lon="11.5411665"><ele>302.0</ele><time>2026-04-11T15:08:49.42Z</time></trkpt><trkpt lat="43.2890201" lon="11.5411351"><ele>302.0</ele><time>2026-04-11T15:08:50.42Z</time></trkpt><trkpt lat="43.2891377" lon="11.5411118"><ele>302.0</ele><time>2026-04-11T15:08:51.421Z</time></trkpt><trkpt lat="43.2892438" lon="11.5410984"><ele>302.0</ele><time>2026-04-11T15:08:52.42Z</time></trkpt><trkpt lat="43.2893466" lon="11.5411063"><ele>302.0</ele><time>2026-04-11T15:08:53.42Z</time></trkpt><trkpt lat="43.2894519" lon="11.5411371"><ele>302.0</ele><time>2026-04-11T15:08:54.421Z</time></trkpt><trkpt lat="43.2895642" lon="11.5411745"><ele>302.0</ele><time>2026-04-11T15:08:55.421Z</time></trkpt><trkpt lat="43.289682" lon="11.5412126"><ele>302.0</ele><time>2026-04-11T15:08:56.42Z</time></trkpt><trkpt lat="43.2898049" lon="11.5412278"><ele>302.0</ele><time>2026-04-11T15:08:57.42Z</time></trkpt><trkpt lat="43.2899247" lon="11.5412322"><ele>302.0</ele><time>2026-04-11T15:08:58.421Z</time></trkpt><trkpt lat="43.2900419" lon="11.5412223"><ele>302.0</ele><time>2026-04-11T15:08:59.42Z</time></trkpt><trkpt lat="43.2901493" lon="11.5412063"><ele>302.0</ele><time>2026-04-11T15:09:00.42Z</time></trkpt><trkpt lat="43.2902491" lon="11.5411987"><ele>302.0</ele><time>2026-04-11T15:09:01.421Z</time></trkpt><trkpt lat="43.2903457" lon="11.541205"><ele>302.0</ele><time>2026-04-11T15:09:02.421Z</time></trkpt><trkpt lat="43.2904461" lon="11.5412313"><ele>302.0</ele><time>2026-04-11T15:09:03.421Z</time></trkpt><trkpt lat="43.2905571" lon="11.5412745"><ele>303.6</ele><time>2026-04-11T15:09:04.421Z</time></trkpt><trkpt lat="43.2906638" lon="11.5413269"><ele>305.2</ele><time>2026-04-11T15:09:05.421Z</time></trkpt><trkpt lat="43.2907591" lon="11.5413788"><ele>306.8</ele><time>2026-04-11T15:09:06.42Z</time></trkpt><trkpt lat="43.2908424" lon="11.541412"><ele>308.4</ele><time>2026-04-11T15:09:07.421Z</time></trkpt><trkpt lat="43.2909334" lon="11.5414278"><ele>310.0</ele><time>2026-04-11T15:09:08.42Z</time></trkpt><trkpt lat="43.2910244" lon="11.5414095"><ele>310.0</ele><time>2026-04-11T15:09:09.421Z</time></trkpt><trkpt lat="43.2911103" lon="11.5413671"><ele>310.0</ele><time>2026-04-11T15:09:10.421Z</time></trkpt><trkpt lat="43.2911846" lon="11.5413061"><ele>310.0</ele><time>2026-04-11T15:09:11.421Z</time></trkpt><trkpt lat="43.2912495" lon="11.5412306"><ele>310.0</ele><time>2026-04-11T15:09:12.421Z</time></trkpt><trkpt lat="43.2912947" lon="11.5411447"><ele>310.0</ele><time>2026-04-11T15:09:13.42Z</time></trkpt><trkpt lat="43.2913273" lon="11.5410634"><ele>310.0</ele><time>2026-04-11T15:09:14.42Z</time></trkpt><trkpt lat="43.2913584" lon="11.5409744"><ele>308.8</ele><time>2026-04-11T15:09:15.421Z</time></trkpt><trkpt lat="43.2913762" lon="11.5408703"><ele>307.6</ele><time>2026-04-11T15:09:16.421Z</time></trkpt><trkpt lat="43.291376" lon="11.5407446"><ele>306.4</ele><time>2026-04-11T15:09:17.421Z</time></trkpt><trkpt lat="43.2913564" lon="11.5406033"><ele>305.2</ele><time>2026-04-11T15:09:18.421Z</time></trkpt><trkpt lat="43.2913276" lon="11.5404473"><ele>304.0</ele><time>2026-04-11T15:09:19.42Z</time></trkpt><trkpt lat="43.2913098" lon="11.5402915"><ele>303.59999999999997</ele><time>2026-04-11T15:09:20.421Z</time></trkpt><trkpt lat="43.2913121" lon="11.540146"><ele>303.2</ele><time>2026-04-11T15:09:21.42Z</time></trkpt><trkpt lat="43.2913404" lon="11.5400064"><ele>302.79999999999995</ele><time>2026-04-11T15:09:22.421Z</time></trkpt><trkpt lat="43.2913794" lon="11.5398581"><ele>302.4</ele><time>2026-04-11T15:09:23.42Z</time></trkpt><trkpt lat="43.2914357" lon="11.5397075"><ele>302.0</ele><time>2026-04-11T15:09:24.42Z</time></trkpt><trkpt lat="43.2915012" lon="11.5395429"><ele>305.75</ele><time>2026-04-11T15:09:25.421Z</time></trkpt><trkpt lat="43.2915696" lon="11.5393696"><ele>309.5</ele><time>2026-04-11T15:09:26.421Z</time></trkpt><trkpt lat="43.2916345" lon="11.5392054"><ele>313.25</ele><time>2026-04-11T15:09:27.421Z</time></trkpt><trkpt lat="43.2916908" lon="11.5390672"><ele>317.0</ele><time>2026-04-11T15:09:28.42Z</time></trkpt><trkpt lat="43.2917375" lon="11.5389579"><ele>317.0</ele><time>2026-04-11T15:09:29.42Z</time></trkpt><trkpt lat="43.2917855" lon="11.5388747"><ele>317.0</ele><time>2026-04-11T15:09:30.42Z</time></trkpt><trkpt lat="43.29184" lon="11.5388143"><ele>317.0</ele><time>2026-04-11T15:09:31.42Z</time></trkpt><trkpt lat="43.2919091" lon="11.5387809"><ele>317.0</ele><time>2026-04-11T15:09:32.42Z</time></trkpt><trkpt lat="43.2919943" lon="11.5387712"><ele>317.0</ele><time>2026-04-11T15:09:33.422Z</time></trkpt><trkpt lat="43.2920934" lon="11.538791"><ele>317.0</ele><time>2026-04-11T15:09:34.421Z</time></trkpt><trkpt lat="43.292207" lon="11.538833"><ele>317.0</ele><time>2026-04-11T15:09:35.422Z</time></trkpt><trkpt lat="43.2923211" lon="11.5388898"><ele>317.0</ele><time>2026-04-11T15:09:36.422Z</time></trkpt><trkpt lat="43.2924353" lon="11.5389415"><ele>317.0</ele><time>2026-04-11T15:09:37.422Z</time></trkpt><trkpt lat="43.2925484" lon="11.5389599"><ele>317.0</ele><time>2026-04-11T15:09:38.421Z</time></trkpt><trkpt lat="43.2926396" lon="11.5389509"><ele>317.0</ele><time>2026-04-11T15:09:39.422Z</time></trkpt><trkpt lat="43.2927237" lon="11.5389168"><ele>317.0</ele><time>2026-04-11T15:09:40.422Z</time></trkpt><trkpt lat="43.2928075" lon="11.5388603"><ele>317.0</ele><time>2026-04-11T15:09:41.422Z</time></trkpt><trkpt lat="43.2928931" lon="11.5387718"><ele>317.0</ele><time>2026-04-11T15:09:42.421Z</time></trkpt><trkpt lat="43.292987" lon="11.5386636"><ele>317.0</ele><time>2026-04-11T15:09:43.422Z</time></trkpt><trkpt lat="43.2931006" lon="11.5385461"><ele>315.33333333333337</ele><time>2026-04-11T15:09:44.422Z</time></trkpt><trkpt lat="43.2932251" lon="11.5384254"><ele>313.6666666666667</ele><time>2026-04-11T15:09:45.421Z</time></trkpt><trkpt lat="43.2933703" lon="11.538292"><ele>312.0</ele><time>2026-04-11T15:09:46.421Z</time></trkpt><trkpt lat="43.2935262" lon="11.5381508"><ele>312.0</ele><time>2026-04-11T15:09:47.421Z</time></trkpt><trkpt lat="43.2936822" lon="11.5380108"><ele>312.0</ele><time>2026-04-11T15:09:48.421Z</time></trkpt><trkpt lat="43.2938301" lon="11.5378778"><ele>312.0</ele><time>2026-04-11T15:09:49.421Z</time></trkpt><trkpt lat="43.29397" lon="11.5377474"><ele>312.3333333333333</ele><time>2026-04-11T15:09:50.421Z</time></trkpt><trkpt lat="43.2941004" lon="11.537617"><ele>312.66666666666663</ele><time>2026-04-11T15:09:51.422Z</time></trkpt><trkpt lat="43.2942178" lon="11.5374887"><ele>313.0</ele><time>2026-04-11T15:09:52.422Z</time></trkpt><trkpt lat="43.2943246" lon="11.5373573"><ele>313.0</ele><time>2026-04-11T15:09:53.422Z</time></trkpt><trkpt lat="43.294418" lon="11.5372318"><ele>313.0</ele><time>2026-04-11T15:09:54.422Z</time></trkpt><trkpt lat="43.2945038" lon="11.5371239"><ele>313.0</ele><time>2026-04-11T15:09:55.421Z</time></trkpt><trkpt lat="43.2945872" lon="11.5370346"><ele>313.0</ele><time>2026-04-11T15:09:56.422Z</time></trkpt><trkpt lat="43.2946705" lon="11.5369678"><ele>313.0</ele><time>2026-04-11T15:09:57.421Z</time></trkpt><trkpt lat="43.2947582" lon="11.5369176"><ele>311.5</ele><time>2026-04-11T15:09:58.422Z</time></trkpt><trkpt lat="43.2949444" lon="11.5368252"><ele>310.0</ele><time>2026-04-11T15:10:00.421Z</time></trkpt><trkpt lat="43.2950431" lon="11.5368021"><ele>308.5</ele><time>2026-04-11T15:10:01.421Z</time></trkpt><trkpt lat="43.2951404" lon="11.5367868"><ele>307.0</ele><time>2026-04-11T15:10:02.422Z</time></trkpt><trkpt lat="43.2952337" lon="11.5367616"><ele>307.0</ele><time>2026-04-11T15:10:03.421Z</time></trkpt><trkpt lat="43.2953281" lon="11.536716"><ele>307.0</ele><time>2026-04-11T15:10:04.422Z</time></trkpt><trkpt lat="43.295409" lon="11.53665"><ele>307.0</ele><time>2026-04-11T15:10:05.422Z</time></trkpt><trkpt lat="43.295477" lon="11.5365667"><ele>307.0</ele><time>2026-04-11T15:10:06.422Z</time></trkpt><trkpt lat="43.2955351" lon="11.5364622"><ele>307.0</ele><time>2026-04-11T15:10:07.422Z</time></trkpt><trkpt lat="43.2955849" lon="11.5363354"><ele>311.0</ele><time>2026-04-11T15:10:08.422Z</time></trkpt><trkpt lat="43.2956319" lon="11.5361966"><ele>315.0</ele><time>2026-04-11T15:10:09.421Z</time></trkpt><trkpt lat="43.2956838" lon="11.536047"><ele>319.0</ele><time>2026-04-11T15:10:10.421Z</time></trkpt><trkpt lat="43.2957349" lon="11.5358929"><ele>323.0</ele><time>2026-04-11T15:10:11.421Z</time></trkpt><trkpt lat="43.2957725" lon="11.5357357"><ele>323.0</ele><time>2026-04-11T15:10:12.422Z</time></trkpt><trkpt lat="43.2958028" lon="11.5355795"><ele>323.0</ele><time>2026-04-11T15:10:13.422Z</time></trkpt><trkpt lat="43.2958181" lon="11.5354164"><ele>323.0</ele><time>2026-04-11T15:10:14.421Z</time></trkpt><trkpt lat="43.2958312" lon="11.5352591"><ele>323.0</ele><time>2026-04-11T15:10:15.422Z</time></trkpt><trkpt lat="43.2958438" lon="11.5351174"><ele>323.6666666666667</ele><time>2026-04-11T15:10:16.421Z</time></trkpt><trkpt lat="43.2958481" lon="11.5349877"><ele>324.33333333333337</ele><time>2026-04-11T15:10:17.421Z</time></trkpt><trkpt lat="43.2958461" lon="11.5348651"><ele>325.0</ele><time>2026-04-11T15:10:18.421Z</time></trkpt><trkpt lat="43.2958152" lon="11.5347658"><ele>325.6666666666667</ele><time>2026-04-11T15:10:19.422Z</time></trkpt><trkpt lat="43.2957644" lon="11.5346846"><ele>326.3333333333333</ele><time>2026-04-11T15:10:20.421Z</time></trkpt><trkpt lat="43.2957053" lon="11.5346076"><ele>327.0</ele><time>2026-04-11T15:10:21.421Z</time></trkpt><trkpt lat="43.295526" lon="11.5344717"><ele>327.6</ele><time>2026-04-11T15:10:23.421Z</time></trkpt><trkpt lat="43.2954269" lon="11.5343917"><ele>328.20000000000005</ele><time>2026-04-11T15:10:24.421Z</time></trkpt><trkpt lat="43.2953321" lon="11.5343038"><ele>328.8</ele><time>2026-04-11T15:10:25.422Z</time></trkpt><trkpt lat="43.295254" lon="11.534215"><ele>329.4</ele><time>2026-04-11T15:10:26.421Z</time></trkpt><trkpt lat="43.29519" lon="11.5341202"><ele>330.0</ele><time>2026-04-11T15:10:27.422Z</time></trkpt><trkpt lat="43.295125" lon="11.5340288"><ele>330.0</ele><time>2026-04-11T15:10:28.422Z</time></trkpt><trkpt lat="43.295039" lon="11.5339501"><ele>330.0</ele><time>2026-04-11T15:10:29.421Z</time></trkpt><trkpt lat="43.2949343" lon="11.533885"><ele>330.0</ele><time>2026-04-11T15:10:30.421Z</time></trkpt><trkpt lat="43.2948248" lon="11.5338235"><ele>330.0</ele><time>2026-04-11T15:10:31.421Z</time></trkpt><trkpt lat="43.2947159" lon="11.5337716"><ele>328.6</ele><time>2026-04-11T15:10:32.421Z</time></trkpt><trkpt lat="43.2946181" lon="11.5337229"><ele>327.2</ele><time>2026-04-11T15:10:33.422Z</time></trkpt><trkpt lat="43.2945362" lon="11.5336654"><ele>325.79999999999995</ele><time>2026-04-11T15:10:34.422Z</time></trkpt><trkpt lat="43.2944744" lon="11.5335862"><ele>324.4</ele><time>2026-04-11T15:10:35.422Z</time></trkpt><trkpt lat="43.2944345" lon="11.5334753"><ele>323.0</ele><time>2026-04-11T15:10:36.422Z</time></trkpt><trkpt lat="43.294421" lon="11.5333392"><ele>323.0</ele><time>2026-04-11T15:10:37.421Z</time></trkpt><trkpt lat="43.294428" lon="11.5331805"><ele>323.0</ele><time>2026-04-11T15:10:38.421Z</time></trkpt><trkpt lat="43.2944332" lon="11.5330055"><ele>323.0</ele><time>2026-04-11T15:10:39.422Z</time></trkpt><trkpt lat="43.2944334" lon="11.532826"><ele>323.0</ele><time>2026-04-11T15:10:40.422Z</time></trkpt><trkpt lat="43.294439" lon="11.5326561"><ele>323.6666666666667</ele><time>2026-04-11T15:10:41.423Z</time></trkpt><trkpt lat="43.2944504" lon="11.5324891"><ele>324.3333333333333</ele><time>2026-04-11T15:10:42.422Z</time></trkpt><trkpt lat="43.294475" lon="11.5323323"><ele>325.0</ele><time>2026-04-11T15:10:43.422Z</time></trkpt><trkpt lat="43.2945542" lon="11.5320262"><ele>325.5</ele><time>2026-04-11T15:10:45.423Z</time></trkpt><trkpt lat="43.2946181" lon="11.5318901"><ele>326.0</ele><time>2026-04-11T15:10:46.422Z</time></trkpt><trkpt lat="43.2946934" lon="11.5317532"><ele>326.5</ele><time>2026-04-11T15:10:47.422Z</time></trkpt><trkpt lat="43.294773" lon="11.5316231"><ele>327.0</ele><time>2026-04-11T15:10:48.422Z</time></trkpt><trkpt lat="43.2948469" lon="11.5314984"><ele>325.6</ele><time>2026-04-11T15:10:49.422Z</time></trkpt><trkpt lat="43.2949141" lon="11.5313849"><ele>324.20000000000005</ele><time>2026-04-11T15:10:50.423Z</time></trkpt><trkpt lat="43.2949839" lon="11.5312672"><ele>322.8</ele><time>2026-04-11T15:10:51.423Z</time></trkpt><trkpt lat="43.295063" lon="11.5311504"><ele>321.4</ele><time>2026-04-11T15:10:52.422Z</time></trkpt><trkpt lat="43.2951453" lon="11.5310429"><ele>320.0</ele><time>2026-04-11T15:10:53.423Z</time></trkpt><trkpt lat="43.2952366" lon="11.530948"><ele>320.0</ele><time>2026-04-11T15:10:54.423Z</time></trkpt><trkpt lat="43.2953382" lon="11.5308604"><ele>320.0</ele><time>2026-04-11T15:10:55.423Z</time></trkpt><trkpt lat="43.2954483" lon="11.5307785"><ele>320.0</ele><time>2026-04-11T15:10:56.422Z</time></trkpt><trkpt lat="43.2955615" lon="11.5307056"><ele>320.0</ele><time>2026-04-11T15:10:57.423Z</time></trkpt><trkpt lat="43.2956779" lon="11.5306385"><ele>316.25</ele><time>2026-04-11T15:10:58.423Z</time></trkpt><trkpt lat="43.2957931" lon="11.5305815"><ele>312.5</ele><time>2026-04-11T15:10:59.422Z</time></trkpt><trkpt lat="43.2959058" lon="11.53053"><ele>308.75</ele><time>2026-04-11T15:11:00.422Z</time></trkpt><trkpt lat="43.2960171" lon="11.5304819"><ele>305.0</ele><time>2026-04-11T15:11:01.423Z</time></trkpt><trkpt lat="43.2961262" lon="11.530437"><ele>305.0</ele><time>2026-04-11T15:11:02.423Z</time></trkpt><trkpt lat="43.296236" lon="11.5303939"><ele>305.0</ele><time>2026-04-11T15:11:03.422Z</time></trkpt><trkpt lat="43.2963431" lon="11.5303532"><ele>305.0</ele><time>2026-04-11T15:11:04.423Z</time></trkpt><trkpt lat="43.2964402" lon="11.5303139"><ele>305.0</ele><time>2026-04-11T15:11:05.422Z</time></trkpt><trkpt lat="43.296521" lon="11.5302749"><ele>305.0</ele><time>2026-04-11T15:11:06.423Z</time></trkpt><trkpt lat="43.2965869" lon="11.5302351"><ele>303.5</ele><time>2026-04-11T15:11:07.422Z</time></trkpt><trkpt lat="43.2966392" lon="11.5301836"><ele>302.0</ele><time>2026-04-11T15:11:08.422Z</time></trkpt><trkpt lat="43.2966847" lon="11.5300259"><ele>300.5</ele><time>2026-04-11T15:11:10.423Z</time></trkpt><trkpt lat="43.2966651" lon="11.5299295"><ele>299.0</ele><time>2026-04-11T15:11:11.423Z</time></trkpt><trkpt lat="43.2966129" lon="11.5298373"><ele>297.5</ele><time>2026-04-11T15:11:12.423Z</time></trkpt><trkpt lat="43.2965409" lon="11.5297667"><ele>296.0</ele><time>2026-04-11T15:11:13.423Z</time></trkpt><trkpt lat="43.2964516" lon="11.5297188"><ele>298.40000000000003</ele><time>2026-04-11T15:11:14.422Z</time></trkpt><trkpt lat="43.2963522" lon="11.5296841"><ele>300.8</ele><time>2026-04-11T15:11:15.422Z</time></trkpt><trkpt lat="43.2962435" lon="11.5296437"><ele>303.20000000000005</ele><time>2026-04-11T15:11:16.423Z</time></trkpt><trkpt lat="43.2961277" lon="11.5296081"><ele>305.6</ele><time>2026-04-11T15:11:17.423Z</time></trkpt><trkpt lat="43.2960165" lon="11.5295867"><ele>308.0</ele><time>2026-04-11T15:11:18.422Z</time></trkpt><trkpt lat="43.2959101" lon="11.5295705"><ele>305.25</ele><time>2026-04-11T15:11:19.423Z</time></trkpt><trkpt lat="43.295803" lon="11.5295301"><ele>302.5</ele><time>2026-04-11T15:11:20.422Z</time></trkpt><trkpt lat="43.2957002" lon="11.5294426"><ele>299.75</ele><time>2026-04-11T15:11:21.423Z</time></trkpt><trkpt lat="43.2956025" lon="11.5293499"><ele>297.0</ele><time>2026-04-11T15:11:22.422Z</time></trkpt><trkpt lat="43.295508" lon="11.5292949"><ele>297.0</ele><time>2026-04-11T15:11:23.423Z</time></trkpt><trkpt lat="43.2954222" lon="11.5292714"><ele>297.0</ele><time>2026-04-11T15:11:24.422Z</time></trkpt><trkpt lat="43.2953213" lon="11.529141"><ele>297.0</ele><time>2026-04-11T15:11:26.423Z</time></trkpt><trkpt lat="43.29532" lon="11.529053"><ele>297.0</ele><time>2026-04-11T15:11:27.422Z</time></trkpt><trkpt lat="43.2953512" lon="11.5289676"><ele>297.0</ele><time>2026-04-11T15:11:28.422Z</time></trkpt><trkpt lat="43.2954109" lon="11.5288921"><ele>297.0</ele><time>2026-04-11T15:11:29.422Z</time></trkpt><trkpt lat="43.29549" lon="11.5288296"><ele>297.0</ele><time>2026-04-11T15:11:30.423Z</time></trkpt><trkpt lat="43.2955741" lon="11.5287716"><ele>297.0</ele><time>2026-04-11T15:11:31.423Z</time></trkpt><trkpt lat="43.2956515" lon="11.5287131"><ele>297.0</ele><time>2026-04-11T15:11:32.423Z</time></trkpt><trkpt lat="43.2957218" lon="11.52865"><ele>297.0</ele><time>2026-04-11T15:11:33.423Z</time></trkpt><trkpt lat="43.2957856" lon="11.5285748"><ele>297.0</ele><time>2026-04-11T15:11:34.423Z</time></trkpt><trkpt lat="43.29584" lon="11.5284853"><ele>297.0</ele><time>2026-04-11T15:11:35.422Z</time></trkpt><trkpt lat="43.2958823" lon="11.528377"><ele>295.75</ele><time>2026-04-11T15:11:36.422Z</time></trkpt><trkpt lat="43.29592" lon="11.5282598"><ele>294.5</ele><time>2026-04-11T15:11:37.422Z</time></trkpt><trkpt lat="43.2959483" lon="11.5281235"><ele>293.25</ele><time>2026-04-11T15:11:38.422Z</time></trkpt><trkpt lat="43.2959629" lon="11.527959"><ele>292.0</ele><time>2026-04-11T15:11:39.423Z</time></trkpt><trkpt lat="43.2959725" lon="11.5277755"><ele>292.0</ele><time>2026-04-11T15:11:40.422Z</time></trkpt><trkpt lat="43.2959863" lon="11.5275915"><ele>292.0</ele><time>2026-04-11T15:11:41.423Z</time></trkpt><trkpt lat="43.2960108" lon="11.5274252"><ele>292.0</ele><time>2026-04-11T15:11:42.423Z</time></trkpt><trkpt lat="43.2960369" lon="11.52727"><ele>292.0</ele><time>2026-04-11T15:11:43.423Z</time></trkpt><trkpt lat="43.2960693" lon="11.527122"><ele>290.0</ele><time>2026-04-11T15:11:44.424Z</time></trkpt><trkpt lat="43.2961251" lon="11.5269791"><ele>288.0</ele><time>2026-04-11T15:11:45.424Z</time></trkpt><trkpt lat="43.2962032" lon="11.526837"><ele>286.0</ele><time>2026-04-11T15:11:46.423Z</time></trkpt><trkpt lat="43.2962919" lon="11.5267016"><ele>284.0</ele><time>2026-04-11T15:11:47.423Z</time></trkpt><trkpt lat="43.2963811" lon="11.5265699"><ele>285.0</ele><time>2026-04-11T15:11:48.423Z</time></trkpt><trkpt lat="43.2964677" lon="11.5264378"><ele>286.0</ele><time>2026-04-11T15:11:49.424Z</time></trkpt><trkpt lat="43.2965478" lon="11.5263201"><ele>287.0</ele><time>2026-04-11T15:11:50.424Z</time></trkpt><trkpt lat="43.2966241" lon="11.5262194"><ele>288.0</ele><time>2026-04-11T15:11:51.424Z</time></trkpt><trkpt lat="43.2966919" lon="11.5261483"><ele>289.0</ele><time>2026-04-11T15:11:52.423Z</time></trkpt><trkpt lat="43.296748" lon="11.5260922"><ele>289.0</ele><time>2026-04-11T15:11:53.424Z</time></trkpt><trkpt lat="43.2967901" lon="11.5260148"><ele>289.0</ele><time>2026-04-11T15:11:54.423Z</time></trkpt><trkpt lat="43.2968143" lon="11.5259087"><ele>289.0</ele><time>2026-04-11T15:11:55.424Z</time></trkpt><trkpt lat="43.2968174" lon="11.5257812"><ele>289.0</ele><time>2026-04-11T15:11:56.423Z</time></trkpt><trkpt lat="43.2967899" lon="11.5256277"><ele>289.0</ele><time>2026-04-11T15:11:57.424Z</time></trkpt><trkpt lat="43.2967564" lon="11.5254658"><ele>289.59999999999997</ele><time>2026-04-11T15:11:58.424Z</time></trkpt><trkpt lat="43.2967434" lon="11.5253033"><ele>290.2</ele><time>2026-04-11T15:11:59.424Z</time></trkpt><trkpt lat="43.2967552" lon="11.5251427"><ele>290.79999999999995</ele><time>2026-04-11T15:12:00.423Z</time></trkpt><trkpt lat="43.2967697" lon="11.5249997"><ele>291.4</ele><time>2026-04-11T15:12:01.424Z</time></trkpt><trkpt lat="43.2967507" lon="11.5248708"><ele>292.0</ele><time>2026-04-11T15:12:02.424Z</time></trkpt><trkpt lat="43.2967078" lon="11.5247463"><ele>292.0</ele><time>2026-04-11T15:12:03.423Z</time></trkpt><trkpt lat="43.2966413" lon="11.5246185"><ele>292.0</ele><time>2026-04-11T15:12:04.423Z</time></trkpt><trkpt lat="43.2965804" lon="11.5244823"><ele>292.0</ele><time>2026-04-11T15:12:05.424Z</time></trkpt><trkpt lat="43.2965418" lon="11.5241681"><ele>294.5</ele><time>2026-04-11T15:12:07.423Z</time></trkpt><trkpt lat="43.2965231" lon="11.5240074"><ele>297.0</ele><time>2026-04-11T15:12:08.423Z</time></trkpt><trkpt lat="43.2964971" lon="11.5238453"><ele>299.5</ele><time>2026-04-11T15:12:09.423Z</time></trkpt><trkpt lat="43.2964727" lon="11.5236858"><ele>302.0</ele><time>2026-04-11T15:12:10.424Z</time></trkpt><trkpt lat="43.2964527" lon="11.5235272"><ele>303.25</ele><time>2026-04-11T15:12:11.423Z</time></trkpt><trkpt lat="43.2964349" lon="11.5233629"><ele>304.5</ele><time>2026-04-11T15:12:12.423Z</time></trkpt><trkpt lat="43.2964247" lon="11.5231974"><ele>305.75</ele><time>2026-04-11T15:12:13.424Z</time></trkpt><trkpt lat="43.2964209" lon="11.5230455"><ele>307.0</ele><time>2026-04-11T15:12:14.423Z</time></trkpt><trkpt lat="43.2964248" lon="11.5229038"><ele>306.8</ele><time>2026-04-11T15:12:15.424Z</time></trkpt><trkpt lat="43.2964406" lon="11.5227676"><ele>306.6</ele><time>2026-04-11T15:12:16.424Z</time></trkpt><trkpt lat="43.2964594" lon="11.5226351"><ele>306.40000000000003</ele><time>2026-04-11T15:12:17.423Z</time></trkpt><trkpt lat="43.2965095" lon="11.5225079"><ele>306.2</ele><time>2026-04-11T15:12:18.424Z</time></trkpt><trkpt lat="43.296569" lon="11.5223866"><ele>306.0</ele><time>2026-04-11T15:12:19.423Z</time></trkpt><trkpt lat="43.2966244" lon="11.5222526"><ele>306.0</ele><time>2026-04-11T15:12:20.424Z</time></trkpt><trkpt lat="43.2966638" lon="11.5221077"><ele>306.0</ele><time>2026-04-11T15:12:21.423Z</time></trkpt><trkpt lat="43.2966902" lon="11.5219644"><ele>306.0</ele><time>2026-04-11T15:12:22.423Z</time></trkpt><trkpt lat="43.2967165" lon="11.5218325"><ele>306.0</ele><time>2026-04-11T15:12:23.424Z</time></trkpt><trkpt lat="43.2967529" lon="11.5217226"><ele>306.0</ele><time>2026-04-11T15:12:24.424Z</time></trkpt><trkpt lat="43.296807" lon="11.5216347"><ele>305.6</ele><time>2026-04-11T15:12:25.424Z</time></trkpt><trkpt lat="43.2968829" lon="11.5215613"><ele>305.20000000000005</ele><time>2026-04-11T15:12:26.423Z</time></trkpt><trkpt lat="43.2969771" lon="11.5214956"><ele>304.79999999999995</ele><time>2026-04-11T15:12:27.423Z</time></trkpt><trkpt lat="43.2970801" lon="11.5214395"><ele>304.4</ele><time>2026-04-11T15:12:28.424Z</time></trkpt><trkpt lat="43.2971847" lon="11.521399"><ele>304.0</ele><time>2026-04-11T15:12:29.424Z</time></trkpt><trkpt lat="43.2972889" lon="11.5213674"><ele>304.0</ele><time>2026-04-11T15:12:30.423Z</time></trkpt><trkpt lat="43.2973833" lon="11.5213656"><ele>304.0</ele><time>2026-04-11T15:12:31.424Z</time></trkpt><trkpt lat="43.2974747" lon="11.5213834"><ele>304.0</ele><time>2026-04-11T15:12:32.424Z</time></trkpt><trkpt lat="43.2975576" lon="11.5214217"><ele>304.0</ele><time>2026-04-11T15:12:33.424Z</time></trkpt><trkpt lat="43.2976405" lon="11.5214784"><ele>304.0</ele><time>2026-04-11T15:12:34.423Z</time></trkpt><trkpt lat="43.2977246" lon="11.5215514"><ele>304.0</ele><time>2026-04-11T15:12:35.424Z</time></trkpt><trkpt lat="43.2978079" lon="11.5216331"><ele>304.0</ele><time>2026-04-11T15:12:36.424Z</time></trkpt><trkpt lat="43.2978878" lon="11.5217251"><ele>304.0</ele><time>2026-04-11T15:12:37.423Z</time></trkpt><trkpt lat="43.2979601" lon="11.5218285"><ele>304.0</ele><time>2026-04-11T15:12:38.423Z</time></trkpt><trkpt lat="43.2980237" lon="11.5219432"><ele>304.0</ele><time>2026-04-11T15:12:39.423Z</time></trkpt><trkpt lat="43.2980791" lon="11.5220614"><ele>304.16666666666663</ele><time>2026-04-11T15:12:40.424Z</time></trkpt><trkpt lat="43.2981322" lon="11.5221632"><ele>304.3333333333333</ele><time>2026-04-11T15:12:41.423Z</time></trkpt><trkpt lat="43.2981892" lon="11.52224"><ele>304.5</ele><time>2026-04-11T15:12:42.425Z</time></trkpt><trkpt lat="43.2982568" lon="11.5222906"><ele>304.6666666666667</ele><time>2026-04-11T15:12:43.423Z</time></trkpt><trkpt lat="43.2983357" lon="11.5223131"><ele>304.83333333333337</ele><time>2026-04-11T15:12:44.424Z</time></trkpt><trkpt lat="43.2984235" lon="11.522306"><ele>305.0</ele><time>2026-04-11T15:12:45.423Z</time></trkpt><trkpt lat="43.2985106" lon="11.5222839"><ele>305.0</ele><time>2026-04-11T15:12:46.425Z</time></trkpt><trkpt lat="43.2985914" lon="11.5222775"><ele>305.0</ele><time>2026-04-11T15:12:47.425Z</time></trkpt><trkpt lat="43.2986717" lon="11.5222997"><ele>305.0</ele><time>2026-04-11T15:12:48.425Z</time></trkpt><trkpt lat="43.2987551" lon="11.5223517"><ele>305.0</ele><time>2026-04-11T15:12:49.425Z</time></trkpt><trkpt lat="43.2988339" lon="11.5224222"><ele>305.0</ele><time>2026-04-11T15:12:50.424Z</time></trkpt><trkpt lat="43.2989144" lon="11.5224838"><ele>305.0</ele><time>2026-04-11T15:12:51.425Z</time></trkpt><trkpt lat="43.2990024" lon="11.5225193"><ele>303.6</ele><time>2026-04-11T15:12:52.425Z</time></trkpt><trkpt lat="43.2991003" lon="11.5225326"><ele>302.2</ele><time>2026-04-11T15:12:53.424Z</time></trkpt><trkpt lat="43.2992005" lon="11.5225291"><ele>300.8</ele><time>2026-04-11T15:12:54.425Z</time></trkpt><trkpt lat="43.2992978" lon="11.5225173"><ele>299.4</ele><time>2026-04-11T15:12:55.424Z</time></trkpt><trkpt lat="43.299391" lon="11.5224916"><ele>298.0</ele><time>2026-04-11T15:12:56.424Z</time></trkpt><trkpt lat="43.2994813" lon="11.5224465"><ele>298.0</ele><time>2026-04-11T15:12:57.424Z</time></trkpt><trkpt lat="43.2995672" lon="11.5223905"><ele>298.0</ele><time>2026-04-11T15:12:58.424Z</time></trkpt><trkpt lat="43.29965" lon="11.5223334"><ele>298.0</ele><time>2026-04-11T15:12:59.425Z</time></trkpt><trkpt lat="43.2997323" lon="11.5222797"><ele>298.0</ele><time>2026-04-11T15:13:00.424Z</time></trkpt><trkpt lat="43.2998389" lon="11.5222488"><ele>298.0</ele><time>2026-04-11T15:13:01.424Z</time></trkpt><trkpt lat="43.2999541" lon="11.5222386"><ele>298.25</ele><time>2026-04-11T15:13:02.425Z</time></trkpt><trkpt lat="43.3000734" lon="11.5222429"><ele>298.5</ele><time>2026-04-11T15:13:03.424Z</time></trkpt><trkpt lat="43.3001893" lon="11.522263"><ele>298.75</ele><time>2026-04-11T15:13:04.425Z</time></trkpt><trkpt lat="43.3003043" lon="11.5222847"><ele>299.0</ele><time>2026-04-11T15:13:05.425Z</time></trkpt><trkpt lat="43.3004048" lon="11.5223426"><ele>299.0</ele><time>2026-04-11T15:13:06.424Z</time></trkpt><trkpt lat="43.3005167" lon="11.5224053"><ele>299.0</ele><time>2026-04-11T15:13:07.424Z</time></trkpt><trkpt lat="43.3006309" lon="11.5224592"><ele>299.0</ele><time>2026-04-11T15:13:08.425Z</time></trkpt><trkpt lat="43.3007569" lon="11.5225"><ele>299.0</ele><time>2026-04-11T15:13:09.424Z</time></trkpt><trkpt lat="43.3008839" lon="11.5225382"><ele>297.75</ele><time>2026-04-11T15:13:10.425Z</time></trkpt><trkpt lat="43.301007" lon="11.5225863"><ele>296.5</ele><time>2026-04-11T15:13:11.425Z</time></trkpt><trkpt lat="43.3011258" lon="11.5226415"><ele>295.25</ele><time>2026-04-11T15:13:12.425Z</time></trkpt><trkpt lat="43.3012361" lon="11.5227037"><ele>294.0</ele><time>2026-04-11T15:13:13.424Z</time></trkpt><trkpt lat="43.3013469" lon="11.5227705"><ele>293.0</ele><time>2026-04-11T15:13:14.424Z</time></trkpt><trkpt lat="43.301464" lon="11.52283"><ele>292.0</ele><time>2026-04-11T15:13:15.424Z</time></trkpt><trkpt lat="43.3015881" lon="11.522869"><ele>291.0</ele><time>2026-04-11T15:13:16.425Z</time></trkpt><trkpt lat="43.3017186" lon="11.5228951"><ele>290.0</ele><time>2026-04-11T15:13:17.424Z</time></trkpt><trkpt lat="43.3018445" lon="11.5229203"><ele>290.4</ele><time>2026-04-11T15:13:18.425Z</time></trkpt><trkpt lat="43.3019609" lon="11.5229374"><ele>290.8</ele><time>2026-04-11T15:13:19.424Z</time></trkpt><trkpt lat="43.3020692" lon="11.5229396"><ele>291.2</ele><time>2026-04-11T15:13:20.425Z</time></trkpt><trkpt lat="43.3021743" lon="11.5229274"><ele>291.6</ele><time>2026-04-11T15:13:21.425Z</time></trkpt><trkpt lat="43.3022796" lon="11.5229089"><ele>292.0</ele><time>2026-04-11T15:13:22.425Z</time></trkpt><trkpt lat="43.302391" lon="11.5228621"><ele>292.0</ele><time>2026-04-11T15:13:23.425Z</time></trkpt><trkpt lat="43.3025093" lon="11.5228124"><ele>292.0</ele><time>2026-04-11T15:13:24.425Z</time></trkpt><trkpt lat="43.3026277" lon="11.5227693"><ele>292.0</ele><time>2026-04-11T15:13:25.424Z</time></trkpt><trkpt lat="43.3027441" lon="11.5227297"><ele>292.0</ele><time>2026-04-11T15:13:26.424Z</time></trkpt><trkpt lat="43.302861" lon="11.522713"><ele>292.0</ele><time>2026-04-11T15:13:27.425Z</time></trkpt><trkpt lat="43.3029749" lon="11.5227036"><ele>292.0</ele><time>2026-04-11T15:13:28.424Z</time></trkpt><trkpt lat="43.3030826" lon="11.5227045"><ele>292.0</ele><time>2026-04-11T15:13:29.424Z</time></trkpt><trkpt lat="43.3031803" lon="11.5227216"><ele>292.0</ele><time>2026-04-11T15:13:30.425Z</time></trkpt><trkpt lat="43.3032714" lon="11.5227548"><ele>292.0</ele><time>2026-04-11T15:13:31.424Z</time></trkpt><trkpt lat="43.3033558" lon="11.5228153"><ele>296.0</ele><time>2026-04-11T15:13:32.425Z</time></trkpt><trkpt lat="43.3034332" lon="11.5229035"><ele>300.0</ele><time>2026-04-11T15:13:33.425Z</time></trkpt><trkpt lat="43.3035051" lon="11.5230148"><ele>304.0</ele><time>2026-04-11T15:13:34.425Z</time></trkpt><trkpt lat="43.303577" lon="11.5231414"><ele>308.0</ele><time>2026-04-11T15:13:35.425Z</time></trkpt><trkpt lat="43.303651" lon="11.5232784"><ele>308.0</ele><time>2026-04-11T15:13:36.425Z</time></trkpt><trkpt lat="43.3037258" lon="11.523415"><ele>308.0</ele><time>2026-04-11T15:13:37.425Z</time></trkpt><trkpt lat="43.3037996" lon="11.523547"><ele>308.0</ele><time>2026-04-11T15:13:38.425Z</time></trkpt><trkpt lat="43.3038694" lon="11.523658"><ele>308.0</ele><time>2026-04-11T15:13:39.425Z</time></trkpt><trkpt lat="43.3039396" lon="11.5237609"><ele>305.2</ele><time>2026-04-11T15:13:40.425Z</time></trkpt><trkpt lat="43.3040218" lon="11.5238231"><ele>302.4</ele><time>2026-04-11T15:13:41.425Z</time></trkpt><trkpt lat="43.3041069" lon="11.5238753"><ele>299.59999999999997</ele><time>2026-04-11T15:13:42.424Z</time></trkpt><trkpt lat="43.3042061" lon="11.5238666"><ele>296.8</ele><time>2026-04-11T15:13:43.425Z</time></trkpt><trkpt lat="43.3043065" lon="11.5238385"><ele>294.0</ele><time>2026-04-11T15:13:44.425Z</time></trkpt><trkpt lat="43.3043855" lon="11.5237744"><ele>294.0</ele><time>2026-04-11T15:13:45.425Z</time></trkpt><trkpt lat="43.3044626" lon="11.523697"><ele>294.0</ele><time>2026-04-11T15:13:46.425Z</time></trkpt><trkpt lat="43.3045307" lon="11.5235893"><ele>294.0</ele><time>2026-04-11T15:13:47.425Z</time></trkpt><trkpt lat="43.3045955" lon="11.5234762"><ele>294.0</ele><time>2026-04-11T15:13:48.425Z</time></trkpt><trkpt lat="43.3046635" lon="11.5233646"><ele>294.0</ele><time>2026-04-11T15:13:49.424Z</time></trkpt><trkpt lat="43.3047438" lon="11.5232794"><ele>296.4</ele><time>2026-04-11T15:13:50.425Z</time></trkpt><trkpt lat="43.3048217" lon="11.5232157"><ele>298.79999999999995</ele><time>2026-04-11T15:13:51.426Z</time></trkpt><trkpt lat="43.3048964" lon="11.5231556"><ele>301.20000000000005</ele><time>2026-04-11T15:13:52.425Z</time></trkpt><trkpt lat="43.3049713" lon="11.5230992"><ele>303.6</ele><time>2026-04-11T15:13:53.426Z</time></trkpt><trkpt lat="43.3050651" lon="11.5230426"><ele>306.0</ele><time>2026-04-11T15:13:54.426Z</time></trkpt><trkpt lat="43.3051623" lon="11.5229897"><ele>306.0</ele><time>2026-04-11T15:13:55.425Z</time></trkpt><trkpt lat="43.3052649" lon="11.5229345"><ele>306.0</ele><time>2026-04-11T15:13:56.425Z</time></trkpt><trkpt lat="43.3053735" lon="11.522886"><ele>306.0</ele><time>2026-04-11T15:13:57.426Z</time></trkpt><trkpt lat="43.3054793" lon="11.5228399"><ele>306.0</ele><time>2026-04-11T15:13:58.426Z</time></trkpt><trkpt lat="43.3055795" lon="11.5228086"><ele>306.0</ele><time>2026-04-11T15:13:59.426Z</time></trkpt><trkpt lat="43.3056778" lon="11.5228027"><ele>307.6</ele><time>2026-04-11T15:14:00.425Z</time></trkpt><trkpt lat="43.3057783" lon="11.5228187"><ele>309.20000000000005</ele><time>2026-04-11T15:14:01.426Z</time></trkpt><trkpt lat="43.3058806" lon="11.5228532"><ele>310.79999999999995</ele><time>2026-04-11T15:14:02.425Z</time></trkpt><trkpt lat="43.3059896" lon="11.5228976"><ele>312.4</ele><time>2026-04-11T15:14:03.425Z</time></trkpt><trkpt lat="43.3060984" lon="11.5229404"><ele>314.0</ele><time>2026-04-11T15:14:04.425Z</time></trkpt><trkpt lat="43.3062155" lon="11.5229851"><ele>315.0</ele><time>2026-04-11T15:14:05.426Z</time></trkpt><trkpt lat="43.3063367" lon="11.52302"><ele>316.0</ele><time>2026-04-11T15:14:06.425Z</time></trkpt><trkpt lat="43.3064621" lon="11.5230341"><ele>317.0</ele><time>2026-04-11T15:14:07.425Z</time></trkpt><trkpt lat="43.3065862" lon="11.52305"><ele>318.0</ele><time>2026-04-11T15:14:08.426Z</time></trkpt><trkpt lat="43.3067123" lon="11.5230633"><ele>319.75</ele><time>2026-04-11T15:14:09.426Z</time></trkpt><trkpt lat="43.3068389" lon="11.5230732"><ele>321.5</ele><time>2026-04-11T15:14:10.426Z</time></trkpt><trkpt lat="43.3069621" lon="11.5230768"><ele>323.25</ele><time>2026-04-11T15:14:11.426Z</time></trkpt><trkpt lat="43.3070864" lon="11.5230844"><ele>325.0</ele><time>2026-04-11T15:14:12.426Z</time></trkpt><trkpt lat="43.3072026" lon="11.5230898"><ele>325.16666666666663</ele><time>2026-04-11T15:14:13.425Z</time></trkpt><trkpt lat="43.3073113" lon="11.5230962"><ele>325.3333333333333</ele><time>2026-04-11T15:14:14.426Z</time></trkpt><trkpt lat="43.3074076" lon="11.5231218"><ele>325.5</ele><time>2026-04-11T15:14:15.426Z</time></trkpt><trkpt lat="43.3074873" lon="11.5231729"><ele>325.6666666666667</ele><time>2026-04-11T15:14:16.426Z</time></trkpt><trkpt lat="43.3075619" lon="11.5232289"><ele>325.83333333333337</ele><time>2026-04-11T15:14:17.425Z</time></trkpt><trkpt lat="43.3076065" lon="11.5232955"><ele>326.0</ele><time>2026-04-11T15:14:18.426Z</time></trkpt><trkpt lat="43.3076507" lon="11.5233582"><ele>326.0</ele><time>2026-04-11T15:14:19.425Z</time></trkpt><trkpt lat="43.307707" lon="11.5234219"><ele>326.0</ele><time>2026-04-11T15:14:20.426Z</time></trkpt><trkpt lat="43.3077886" lon="11.5234937"><ele>326.0</ele><time>2026-04-11T15:14:21.425Z</time></trkpt><trkpt lat="43.307878" lon="11.5235662"><ele>326.0</ele><time>2026-04-11T15:14:22.425Z</time></trkpt><trkpt lat="43.3079701" lon="11.5236415"><ele>326.0</ele><time>2026-04-11T15:14:23.425Z</time></trkpt><trkpt lat="43.3080659" lon="11.5237152"><ele>326.0</ele><time>2026-04-11T15:14:24.425Z</time></trkpt><trkpt lat="43.3081587" lon="11.5237823"><ele>326.0</ele><time>2026-04-11T15:14:25.426Z</time></trkpt><trkpt lat="43.3082459" lon="11.523849"><ele>326.0</ele><time>2026-04-11T15:14:26.426Z</time></trkpt><trkpt lat="43.3083241" lon="11.5239099"><ele>326.0</ele><time>2026-04-11T15:14:27.425Z</time></trkpt><trkpt lat="43.3083885" lon="11.5239672"><ele>326.0</ele><time>2026-04-11T15:14:28.425Z</time></trkpt><trkpt lat="43.3084434" lon="11.5240251"><ele>326.0</ele><time>2026-04-11T15:14:29.426Z</time></trkpt><trkpt lat="43.3084918" lon="11.5240866"><ele>326.0</ele><time>2026-04-11T15:14:30.426Z</time></trkpt><trkpt lat="43.3085432" lon="11.5241528"><ele>326.0</ele><time>2026-04-11T15:14:31.425Z</time></trkpt><trkpt lat="43.3085882" lon="11.5242288"><ele>326.0</ele><time>2026-04-11T15:14:32.425Z</time></trkpt><trkpt lat="43.308629" lon="11.5242988"><ele>326.0</ele><time>2026-04-11T15:14:33.426Z</time></trkpt><trkpt lat="43.30871" lon="11.5244052"><ele>326.0</ele><time>2026-04-11T15:14:35.425Z</time></trkpt><trkpt lat="43.3087962" lon="11.5243972"><ele>326.0</ele><time>2026-04-11T15:14:37.426Z</time></trkpt><trkpt lat="43.3088567" lon="11.5242517"><ele>326.0</ele><time>2026-04-11T15:14:39.425Z</time></trkpt><trkpt lat="43.308883" lon="11.5241322"><ele>326.0</ele><time>2026-04-11T15:14:40.426Z</time></trkpt><trkpt lat="43.3089007" lon="11.5240066"><ele>326.0</ele><time>2026-04-11T15:14:41.426Z</time></trkpt><trkpt lat="43.3089101" lon="11.5238811"><ele>326.0</ele><time>2026-04-11T15:14:42.425Z</time></trkpt><trkpt lat="43.3089049" lon="11.5237665"><ele>326.0</ele><time>2026-04-11T15:14:43.425Z</time></trkpt><trkpt lat="43.3088904" lon="11.5236642"><ele>326.0</ele><time>2026-04-11T15:14:44.426Z</time></trkpt><trkpt lat="43.3088728" lon="11.5235662"><ele>326.1666666666667</ele><time>2026-04-11T15:14:45.425Z</time></trkpt><trkpt lat="43.3088542" lon="11.523473"><ele>326.33333333333337</ele><time>2026-04-11T15:14:46.426Z</time></trkpt><trkpt lat="43.308854" lon="11.5233651"><ele>326.5</ele><time>2026-04-11T15:14:47.426Z</time></trkpt><trkpt lat="43.3088821" lon="11.5232535"><ele>326.6666666666667</ele><time>2026-04-11T15:14:48.425Z</time></trkpt><trkpt lat="43.3089387" lon="11.5231413"><ele>326.8333333333333</ele><time>2026-04-11T15:14:49.425Z</time></trkpt><trkpt lat="43.3090193" lon="11.5230279"><ele>327.0</ele><time>2026-04-11T15:14:50.425Z</time></trkpt><trkpt lat="43.3091095" lon="11.5229237"><ele>322.75</ele><time>2026-04-11T15:14:51.426Z</time></trkpt><trkpt lat="43.3092045" lon="11.5228244"><ele>318.5</ele><time>2026-04-11T15:14:52.426Z</time></trkpt><trkpt lat="43.3093173" lon="11.5227463"><ele>314.25</ele><time>2026-04-11T15:14:53.426Z</time></trkpt><trkpt lat="43.3094362" lon="11.5226741"><ele>310.0</ele><time>2026-04-11T15:14:54.426Z</time></trkpt><trkpt lat="43.3095508" lon="11.5225928"><ele>310.0</ele><time>2026-04-11T15:14:55.427Z</time></trkpt><trkpt lat="43.3096564" lon="11.5225082"><ele>310.0</ele><time>2026-04-11T15:14:56.427Z</time></trkpt><trkpt lat="43.3097379" lon="11.5223989"><ele>310.0</ele><time>2026-04-11T15:14:57.427Z</time></trkpt><trkpt lat="43.3097999" lon="11.5222786"><ele>310.0</ele><time>2026-04-11T15:14:58.426Z</time></trkpt><trkpt lat="43.3098429" lon="11.5221365"><ele>308.75</ele><time>2026-04-11T15:14:59.427Z</time></trkpt><trkpt lat="43.3098652" lon="11.5219727"><ele>307.5</ele><time>2026-04-11T15:15:00.426Z</time></trkpt><trkpt lat="43.3098576" lon="11.5217936"><ele>306.25</ele><time>2026-04-11T15:15:01.426Z</time></trkpt><trkpt lat="43.3098221" lon="11.5216137"><ele>305.0</ele><time>2026-04-11T15:15:02.426Z</time></trkpt><trkpt lat="43.3097745" lon="11.5214372"><ele>302.5</ele><time>2026-04-11T15:15:03.427Z</time></trkpt><trkpt lat="43.3097345" lon="11.5212559"><ele>300.0</ele><time>2026-04-11T15:15:04.426Z</time></trkpt><trkpt lat="43.3097073" lon="11.521062"><ele>297.5</ele><time>2026-04-11T15:15:05.426Z</time></trkpt><trkpt lat="43.3096911" lon="11.5208507"><ele>295.0</ele><time>2026-04-11T15:15:06.426Z</time></trkpt><trkpt lat="43.3096777" lon="11.5206285"><ele>295.3333333333333</ele><time>2026-04-11T15:15:07.426Z</time></trkpt><trkpt lat="43.3096637" lon="11.5204122"><ele>295.6666666666667</ele><time>2026-04-11T15:15:08.427Z</time></trkpt><trkpt lat="43.3096486" lon="11.5202036"><ele>296.0</ele><time>2026-04-11T15:15:09.426Z</time></trkpt><trkpt lat="43.3096484" lon="11.5200043"><ele>296.0</ele><time>2026-04-11T15:15:10.427Z</time></trkpt><trkpt lat="43.3096703" lon="11.5198141"><ele>296.0</ele><time>2026-04-11T15:15:11.427Z</time></trkpt><trkpt lat="43.3097142" lon="11.5196301"><ele>296.0</ele><time>2026-04-11T15:15:12.426Z</time></trkpt><trkpt lat="43.3097756" lon="11.5194418"><ele>296.0</ele><time>2026-04-11T15:15:13.427Z</time></trkpt><trkpt lat="43.3098406" lon="11.5192581"><ele>296.0</ele><time>2026-04-11T15:15:14.427Z</time></trkpt><trkpt lat="43.3098937" lon="11.5190815"><ele>296.0</ele><time>2026-04-11T15:15:15.426Z</time></trkpt><trkpt lat="43.309924" lon="11.5189048"><ele>296.0</ele><time>2026-04-11T15:15:16.427Z</time></trkpt><trkpt lat="43.3099302" lon="11.518725"><ele>296.0</ele><time>2026-04-11T15:15:17.427Z</time></trkpt><trkpt lat="43.309913" lon="11.518539"><ele>295.75</ele><time>2026-04-11T15:15:18.426Z</time></trkpt><trkpt lat="43.3098746" lon="11.5183499"><ele>295.5</ele><time>2026-04-11T15:15:19.427Z</time></trkpt><trkpt lat="43.3098201" lon="11.5181598"><ele>295.25</ele><time>2026-04-11T15:15:20.427Z</time></trkpt><trkpt lat="43.3097519" lon="11.5179873"><ele>295.0</ele><time>2026-04-11T15:15:21.426Z</time></trkpt><trkpt lat="43.3096696" lon="11.5178342"><ele>293.75</ele><time>2026-04-11T15:15:22.426Z</time></trkpt><trkpt lat="43.3095753" lon="11.5176909"><ele>292.5</ele><time>2026-04-11T15:15:23.426Z</time></trkpt><trkpt lat="43.3094715" lon="11.5175522"><ele>291.25</ele><time>2026-04-11T15:15:24.427Z</time></trkpt><trkpt lat="43.309366" lon="11.5174193"><ele>290.0</ele><time>2026-04-11T15:15:25.426Z</time></trkpt><trkpt lat="43.3092761" lon="11.517279"><ele>290.0</ele><time>2026-04-11T15:15:26.426Z</time></trkpt><trkpt lat="43.3092117" lon="11.5171259"><ele>290.0</ele><time>2026-04-11T15:15:27.427Z</time></trkpt><trkpt lat="43.3091772" lon="11.5169675"><ele>290.0</ele><time>2026-04-11T15:15:28.426Z</time></trkpt><trkpt lat="43.3091764" lon="11.5168137"><ele>290.0</ele><time>2026-04-11T15:15:29.426Z</time></trkpt><trkpt lat="43.3092074" lon="11.5166789"><ele>291.0</ele><time>2026-04-11T15:15:30.427Z</time></trkpt><trkpt lat="43.3092719" lon="11.5165548"><ele>292.0</ele><time>2026-04-11T15:15:31.427Z</time></trkpt><trkpt lat="43.3093626" lon="11.516436"><ele>293.0</ele><time>2026-04-11T15:15:32.426Z</time></trkpt><trkpt lat="43.3094669" lon="11.5163072"><ele>294.0</ele><time>2026-04-11T15:15:33.427Z</time></trkpt><trkpt lat="43.3095752" lon="11.5161662"><ele>295.3333333333333</ele><time>2026-04-11T15:15:34.426Z</time></trkpt><trkpt lat="43.3096889" lon="11.5160176"><ele>296.66666666666663</ele><time>2026-04-11T15:15:35.427Z</time></trkpt><trkpt lat="43.3098047" lon="11.5158688"><ele>298.0</ele><time>2026-04-11T15:15:36.427Z</time></trkpt><trkpt lat="43.3099187" lon="11.5157292"><ele>295.0</ele><time>2026-04-11T15:15:37.426Z</time></trkpt><trkpt lat="43.3100335" lon="11.5156057"><ele>292.0</ele><time>2026-04-11T15:15:38.427Z</time></trkpt><trkpt lat="43.3101592" lon="11.5155007"><ele>289.0</ele><time>2026-04-11T15:15:39.427Z</time></trkpt><trkpt lat="43.3103047" lon="11.5154097"><ele>287.0</ele><time>2026-04-11T15:15:40.426Z</time></trkpt><trkpt lat="43.3104718" lon="11.5153349"><ele>285.0</ele><time>2026-04-11T15:15:41.426Z</time></trkpt><trkpt lat="43.3106533" lon="11.5152705"><ele>283.0</ele><time>2026-04-11T15:15:42.427Z</time></trkpt><trkpt lat="43.3108394" lon="11.5152133"><ele>283.0</ele><time>2026-04-11T15:15:43.427Z</time></trkpt><trkpt lat="43.3110259" lon="11.515176"><ele>283.0</ele><time>2026-04-11T15:15:44.426Z</time></trkpt><trkpt lat="43.3112109" lon="11.5151618"><ele>283.0</ele><time>2026-04-11T15:15:45.427Z</time></trkpt><trkpt lat="43.3113885" lon="11.5151603"><ele>285.0</ele><time>2026-04-11T15:15:46.426Z</time></trkpt><trkpt lat="43.3115491" lon="11.5151646"><ele>287.0</ele><time>2026-04-11T15:15:47.427Z</time></trkpt><trkpt lat="43.3116934" lon="11.5151639"><ele>289.0</ele><time>2026-04-11T15:15:48.427Z</time></trkpt><trkpt lat="43.3118215" lon="11.5151398"><ele>291.0</ele><time>2026-04-11T15:15:49.426Z</time></trkpt><trkpt lat="43.3119353" lon="11.5150808"><ele>291.0</ele><time>2026-04-11T15:15:50.427Z</time></trkpt><trkpt lat="43.3120352" lon="11.5149806"><ele>291.0</ele><time>2026-04-11T15:15:51.427Z</time></trkpt><trkpt lat="43.312123" lon="11.5148458"><ele>291.0</ele><time>2026-04-11T15:15:52.427Z</time></trkpt><trkpt lat="43.3122015" lon="11.5146858"><ele>291.0</ele><time>2026-04-11T15:15:53.427Z</time></trkpt><trkpt lat="43.3122806" lon="11.514519"><ele>292.5</ele><time>2026-04-11T15:15:54.426Z</time></trkpt><trkpt lat="43.3123669" lon="11.5143705"><ele>294.0</ele><time>2026-04-11T15:15:55.427Z</time></trkpt><trkpt lat="43.3124656" lon="11.5142438"><ele>295.5</ele><time>2026-04-11T15:15:56.426Z</time></trkpt><trkpt lat="43.3125748" lon="11.5141298"><ele>297.0</ele><time>2026-04-11T15:15:57.426Z</time></trkpt><trkpt lat="43.3126972" lon="11.514024"><ele>297.0</ele><time>2026-04-11T15:15:58.427Z</time></trkpt><trkpt lat="43.3128333" lon="11.5139326"><ele>297.0</ele><time>2026-04-11T15:15:59.427Z</time></trkpt><trkpt lat="43.3129764" lon="11.5138713"><ele>297.0</ele><time>2026-04-11T15:16:00.427Z</time></trkpt><trkpt lat="43.3131244" lon="11.5138534"><ele>297.6666666666667</ele><time>2026-04-11T15:16:01.428Z</time></trkpt><trkpt lat="43.3132764" lon="11.5138806"><ele>298.33333333333337</ele><time>2026-04-11T15:16:02.428Z</time></trkpt><trkpt lat="43.3134342" lon="11.5139478"><ele>299.0</ele><time>2026-04-11T15:16:03.428Z</time></trkpt><trkpt lat="43.3135939" lon="11.5140521"><ele>299.0</ele><time>2026-04-11T15:16:04.427Z</time></trkpt><trkpt lat="43.3137432" lon="11.514183"><ele>299.0</ele><time>2026-04-11T15:16:05.427Z</time></trkpt><trkpt lat="43.3138742" lon="11.5143243"><ele>299.0</ele><time>2026-04-11T15:16:06.427Z</time></trkpt><trkpt lat="43.313989" lon="11.5144615"><ele>299.0</ele><time>2026-04-11T15:16:07.427Z</time></trkpt><trkpt lat="43.3140922" lon="11.5145687"><ele>299.0</ele><time>2026-04-11T15:16:08.427Z</time></trkpt><trkpt lat="43.3141883" lon="11.5146305"><ele>299.0</ele><time>2026-04-11T15:16:09.427Z</time></trkpt><trkpt lat="43.3142863" lon="11.5146415"><ele>299.0</ele><time>2026-04-11T15:16:10.427Z</time></trkpt><trkpt lat="43.3143871" lon="11.5146055"><ele>299.0</ele><time>2026-04-11T15:16:11.427Z</time></trkpt><trkpt lat="43.3144843" lon="11.5145216"><ele>299.25</ele><time>2026-04-11T15:16:12.427Z</time></trkpt><trkpt lat="43.3145744" lon="11.5143939"><ele>299.5</ele><time>2026-04-11T15:16:13.427Z</time></trkpt><trkpt lat="43.3146601" lon="11.5142575"><ele>299.75</ele><time>2026-04-11T15:16:14.428Z</time></trkpt><trkpt lat="43.3147268" lon="11.5141231"><ele>300.0</ele><time>2026-04-11T15:16:15.428Z</time></trkpt><trkpt lat="43.314805" lon="11.5140155"><ele>300.8</ele><time>2026-04-11T15:16:16.428Z</time></trkpt><trkpt lat="43.314893" lon="11.5139207"><ele>301.6</ele><time>2026-04-11T15:16:17.427Z</time></trkpt><trkpt lat="43.315007" lon="11.5138891"><ele>302.4</ele><time>2026-04-11T15:16:18.427Z</time></trkpt><trkpt lat="43.3151212" lon="11.5138867"><ele>303.2</ele><time>2026-04-11T15:16:19.428Z</time></trkpt><trkpt lat="43.315228" lon="11.5138892"><ele>304.0</ele><time>2026-04-11T15:16:20.427Z</time></trkpt><trkpt lat="43.3153296" lon="11.5139002"><ele>304.0</ele><time>2026-04-11T15:16:21.428Z</time></trkpt><trkpt lat="43.3154194" lon="11.5139299"><ele>304.0</ele><time>2026-04-11T15:16:22.427Z</time></trkpt><trkpt lat="43.3154865" lon="11.5139897"><ele>304.0</ele><time>2026-04-11T15:16:23.427Z</time></trkpt><trkpt lat="43.3155285" lon="11.5140851"><ele>304.0</ele><time>2026-04-11T15:16:24.428Z</time></trkpt><trkpt lat="43.3155463" lon="11.5142218"><ele>304.0</ele><time>2026-04-11T15:16:25.428Z</time></trkpt><trkpt lat="43.3155588" lon="11.5143917"><ele>302.75</ele><time>2026-04-11T15:16:26.427Z</time></trkpt><trkpt lat="43.3155788" lon="11.5145726"><ele>301.5</ele><time>2026-04-11T15:16:27.428Z</time></trkpt><trkpt lat="43.3156137" lon="11.514743"><ele>300.25</ele><time>2026-04-11T15:16:28.427Z</time></trkpt><trkpt lat="43.3156723" lon="11.5149066"><ele>299.0</ele><time>2026-04-11T15:16:29.427Z</time></trkpt><trkpt lat="43.3157542" lon="11.5150561"><ele>299.0</ele><time>2026-04-11T15:16:30.428Z</time></trkpt><trkpt lat="43.315857" lon="11.515177"><ele>299.0</ele><time>2026-04-11T15:16:31.428Z</time></trkpt><trkpt lat="43.3159782" lon="11.5152607"><ele>299.0</ele><time>2026-04-11T15:16:32.428Z</time></trkpt><trkpt lat="43.3161138" lon="11.5152946"><ele>299.0</ele><time>2026-04-11T15:16:33.427Z</time></trkpt><trkpt lat="43.3162606" lon="11.5152784"><ele>299.33333333333337</ele><time>2026-04-11T15:16:34.427Z</time></trkpt><trkpt lat="43.3164173" lon="11.5152339"><ele>299.6666666666667</ele><time>2026-04-11T15:16:35.427Z</time></trkpt><trkpt lat="43.3165826" lon="11.5151741"><ele>300.0</ele><time>2026-04-11T15:16:36.428Z</time></trkpt><trkpt lat="43.3167515" lon="11.5151024"><ele>300.0</ele><time>2026-04-11T15:16:37.427Z</time></trkpt><trkpt lat="43.3169143" lon="11.5150309"><ele>300.0</ele><time>2026-04-11T15:16:38.427Z</time></trkpt><trkpt lat="43.3170658" lon="11.5149667"><ele>300.0</ele><time>2026-04-11T15:16:39.428Z</time></trkpt><trkpt lat="43.3172048" lon="11.5149037"><ele>300.25</ele><time>2026-04-11T15:16:40.427Z</time></trkpt><trkpt lat="43.3173278" lon="11.5148271"><ele>300.5</ele><time>2026-04-11T15:16:41.428Z</time></trkpt><trkpt lat="43.3174337" lon="11.5147254"><ele>300.75</ele><time>2026-04-11T15:16:42.428Z</time></trkpt><trkpt lat="43.3175209" lon="11.5145927"><ele>301.0</ele><time>2026-04-11T15:16:43.427Z</time></trkpt><trkpt lat="43.3175893" lon="11.5144278"><ele>301.0</ele><time>2026-04-11T15:16:44.427Z</time></trkpt><trkpt lat="43.3176414" lon="11.5142352"><ele>301.0</ele><time>2026-04-11T15:16:45.428Z</time></trkpt><trkpt lat="43.3176863" lon="11.5140316"><ele>301.0</ele><time>2026-04-11T15:16:46.428Z</time></trkpt><trkpt lat="43.317736" lon="11.5138436"><ele>300.25</ele><time>2026-04-11T15:16:47.427Z</time></trkpt><trkpt lat="43.3178015" lon="11.5136811"><ele>299.5</ele><time>2026-04-11T15:16:48.427Z</time></trkpt><trkpt lat="43.3178885" lon="11.5135566"><ele>298.75</ele><time>2026-04-11T15:16:49.428Z</time></trkpt><trkpt lat="43.3179925" lon="11.5134749"><ele>298.0</ele><time>2026-04-11T15:16:50.427Z</time></trkpt><trkpt lat="43.3181139" lon="11.5134219"><ele>298.0</ele><time>2026-04-11T15:16:51.427Z</time></trkpt><trkpt lat="43.3182502" lon="11.513396"><ele>298.0</ele><time>2026-04-11T15:16:52.427Z</time></trkpt><trkpt lat="43.3183918" lon="11.5134083"><ele>298.0</ele><time>2026-04-11T15:16:53.428Z</time></trkpt><trkpt lat="43.3185188" lon="11.5134602"><ele>298.0</ele><time>2026-04-11T15:16:54.428Z</time></trkpt><trkpt lat="43.3186198" lon="11.5135506"><ele>298.0</ele><time>2026-04-11T15:16:55.428Z</time></trkpt><trkpt lat="43.3186911" lon="11.5136718"><ele>298.0</ele><time>2026-04-11T15:16:56.427Z</time></trkpt><trkpt lat="43.318732" lon="11.5138202"><ele>298.0</ele><time>2026-04-11T15:16:57.428Z</time></trkpt><trkpt lat="43.3187404" lon="11.51399"><ele>298.0</ele><time>2026-04-11T15:16:58.427Z</time></trkpt><trkpt lat="43.3187379" lon="11.514162"><ele>298.0</ele><time>2026-04-11T15:16:59.427Z</time></trkpt><trkpt lat="43.3186787" lon="11.5143121"><ele>298.0</ele><time>2026-04-11T15:17:00.428Z</time></trkpt><trkpt lat="43.3185965" lon="11.5144396"><ele>298.0</ele><time>2026-04-11T15:17:01.428Z</time></trkpt><trkpt lat="43.3185065" lon="11.5145387"><ele>298.0</ele><time>2026-04-11T15:17:02.429Z</time></trkpt><trkpt lat="43.3184229" lon="11.5146365"><ele>298.0</ele><time>2026-04-11T15:17:03.429Z</time></trkpt><trkpt lat="43.3183643" lon="11.5147411"><ele>298.0</ele><time>2026-04-11T15:17:04.429Z</time></trkpt><trkpt lat="43.3183421" lon="11.5148546"><ele>298.0</ele><time>2026-04-11T15:17:05.428Z</time></trkpt><trkpt lat="43.3183574" lon="11.5149573"><ele>298.0</ele><time>2026-04-11T15:17:06.428Z</time></trkpt><trkpt lat="43.3184661" lon="11.5150282"><ele>298.0</ele><time>2026-04-11T15:17:08.428Z</time></trkpt><trkpt lat="43.3185301" lon="11.5149958"><ele>298.0</ele><time>2026-04-11T15:17:09.428Z</time></trkpt><trkpt lat="43.3185938" lon="11.5149206"><ele>298.0</ele><time>2026-04-11T15:17:10.429Z</time></trkpt><trkpt lat="43.3186615" lon="11.5148097"><ele>298.0</ele><time>2026-04-11T15:17:11.429Z</time></trkpt><trkpt lat="43.3187335" lon="11.5146832"><ele>298.0</ele><time>2026-04-11T15:17:12.428Z</time></trkpt><trkpt lat="43.3188066" lon="11.514565"><ele>298.0</ele><time>2026-04-11T15:17:13.429Z</time></trkpt><trkpt lat="43.3188776" lon="11.5144407"><ele>296.75</ele><time>2026-04-11T15:17:14.429Z</time></trkpt><trkpt lat="43.3189359" lon="11.5143044"><ele>295.5</ele><time>2026-04-11T15:17:15.428Z</time></trkpt><trkpt lat="43.3189749" lon="11.5141498"><ele>294.25</ele><time>2026-04-11T15:17:16.428Z</time></trkpt><trkpt lat="43.3189935" lon="11.5139718"><ele>293.0</ele><time>2026-04-11T15:17:17.429Z</time></trkpt><trkpt lat="43.3190053" lon="11.5137879"><ele>292.25</ele><time>2026-04-11T15:17:18.429Z</time></trkpt><trkpt lat="43.3189998" lon="11.5136133"><ele>291.5</ele><time>2026-04-11T15:17:19.428Z</time></trkpt><trkpt lat="43.3190118" lon="11.513444"><ele>290.75</ele><time>2026-04-11T15:17:20.428Z</time></trkpt><trkpt lat="43.3190494" lon="11.5132919"><ele>290.0</ele><time>2026-04-11T15:17:21.428Z</time></trkpt><trkpt lat="43.3190929" lon="11.5131457"><ele>290.0</ele><time>2026-04-11T15:17:22.428Z</time></trkpt><trkpt lat="43.3191542" lon="11.5130104"><ele>290.0</ele><time>2026-04-11T15:17:23.428Z</time></trkpt><trkpt lat="43.3192127" lon="11.512833"><ele>290.0</ele><time>2026-04-11T15:17:24.428Z</time></trkpt><trkpt lat="43.3192435" lon="11.5126257"><ele>290.0</ele><time>2026-04-11T15:17:25.429Z</time></trkpt><trkpt lat="43.3192502" lon="11.5124046"><ele>287.0</ele><time>2026-04-11T15:17:26.428Z</time></trkpt><trkpt lat="43.3192444" lon="11.5121824"><ele>284.0</ele><time>2026-04-11T15:17:27.428Z</time></trkpt><trkpt lat="43.3192261" lon="11.5119678"><ele>281.0</ele><time>2026-04-11T15:17:28.429Z</time></trkpt><trkpt lat="43.3191975" lon="11.5117633"><ele>279.0</ele><time>2026-04-11T15:17:29.428Z</time></trkpt><trkpt lat="43.3191675" lon="11.5115698"><ele>277.0</ele><time>2026-04-11T15:17:30.428Z</time></trkpt><trkpt lat="43.3191412" lon="11.5113919"><ele>275.0</ele><time>2026-04-11T15:17:31.428Z</time></trkpt><trkpt lat="43.3191238" lon="11.5112207"><ele>273.0</ele><time>2026-04-11T15:17:32.429Z</time></trkpt><trkpt lat="43.3191198" lon="11.5110585"><ele>270.75</ele><time>2026-04-11T15:17:33.428Z</time></trkpt><trkpt lat="43.3191289" lon="11.5108987"><ele>268.5</ele><time>2026-04-11T15:17:34.429Z</time></trkpt><trkpt lat="43.3191538" lon="11.5107459"><ele>266.25</ele><time>2026-04-11T15:17:35.428Z</time></trkpt><trkpt lat="43.3191986" lon="11.5105991"><ele>264.0</ele><time>2026-04-11T15:17:36.429Z</time></trkpt><trkpt lat="43.3192633" lon="11.5104568"><ele>261.5</ele><time>2026-04-11T15:17:37.429Z</time></trkpt><trkpt lat="43.3193463" lon="11.5103131"><ele>259.0</ele><time>2026-04-11T15:17:38.429Z</time></trkpt><trkpt lat="43.3194368" lon="11.5101626"><ele>256.5</ele><time>2026-04-11T15:17:39.428Z</time></trkpt><trkpt lat="43.3195307" lon="11.5100077"><ele>254.0</ele><time>2026-04-11T15:17:40.428Z</time></trkpt><trkpt lat="43.3196194" lon="11.5098454"><ele>254.0</ele><time>2026-04-11T15:17:41.428Z</time></trkpt><trkpt lat="43.3196946" lon="11.5096764"><ele>254.0</ele><time>2026-04-11T15:17:42.428Z</time></trkpt><trkpt lat="43.3197534" lon="11.5094984"><ele>254.0</ele><time>2026-04-11T15:17:43.429Z</time></trkpt><trkpt lat="43.3197978" lon="11.5093127"><ele>254.0</ele><time>2026-04-11T15:17:44.428Z</time></trkpt><trkpt lat="43.3198287" lon="11.509121"><ele>252.25</ele><time>2026-04-11T15:17:45.429Z</time></trkpt><trkpt lat="43.3198474" lon="11.5089254"><ele>250.5</ele><time>2026-04-11T15:17:46.428Z</time></trkpt><trkpt lat="43.3198547" lon="11.5087272"><ele>248.75</ele><time>2026-04-11T15:17:47.428Z</time></trkpt><trkpt lat="43.3198499" lon="11.5085271"><ele>247.0</ele><time>2026-04-11T15:17:48.429Z</time></trkpt><trkpt lat="43.3198347" lon="11.5083204"><ele>247.0</ele><time>2026-04-11T15:17:49.428Z</time></trkpt><trkpt lat="43.3198133" lon="11.5081043"><ele>247.0</ele><time>2026-04-11T15:17:50.428Z</time></trkpt><trkpt lat="43.3197906" lon="11.5078746"><ele>247.0</ele><time>2026-04-11T15:17:51.428Z</time></trkpt><trkpt lat="43.3197656" lon="11.5076311"><ele>246.33333333333331</ele><time>2026-04-11T15:17:52.429Z</time></trkpt><trkpt lat="43.3197411" lon="11.5073862"><ele>245.66666666666669</ele><time>2026-04-11T15:17:53.429Z</time></trkpt><trkpt lat="43.3197189" lon="11.5071455"><ele>245.0</ele><time>2026-04-11T15:17:54.428Z</time></trkpt><trkpt lat="43.3196952" lon="11.5069169"><ele>248.5</ele><time>2026-04-11T15:17:55.428Z</time></trkpt><trkpt lat="43.319676" lon="11.5067099"><ele>252.0</ele><time>2026-04-11T15:17:56.428Z</time></trkpt><trkpt lat="43.3196621" lon="11.5065253"><ele>255.5</ele><time>2026-04-11T15:17:57.429Z</time></trkpt><trkpt lat="43.3196783" lon="11.5063784"><ele>259.0</ele><time>2026-04-11T15:17:58.429Z</time></trkpt><trkpt lat="43.319721" lon="11.5062534"><ele>255.25</ele><time>2026-04-11T15:17:59.429Z</time></trkpt><trkpt lat="43.3197726" lon="11.5061366"><ele>251.5</ele><time>2026-04-11T15:18:00.429Z</time></trkpt><trkpt lat="43.3198752" lon="11.5060636"><ele>247.75</ele><time>2026-04-11T15:18:01.429Z</time></trkpt><trkpt lat="43.3199945" lon="11.5059977"><ele>244.0</ele><time>2026-04-11T15:18:02.429Z</time></trkpt><trkpt lat="43.3201423" lon="11.5059485"><ele>244.0</ele><time>2026-04-11T15:18:03.43Z</time></trkpt><trkpt lat="43.320294" lon="11.5058991"><ele>244.0</ele><time>2026-04-11T15:18:04.429Z</time></trkpt><trkpt lat="43.3204374" lon="11.5058405"><ele>244.0</ele><time>2026-04-11T15:18:05.43Z</time></trkpt><trkpt lat="43.3205741" lon="11.505788"><ele>244.0</ele><time>2026-04-11T15:18:06.429Z</time></trkpt><trkpt lat="43.3207005" lon="11.5057453"><ele>244.75</ele><time>2026-04-11T15:18:07.43Z</time></trkpt><trkpt lat="43.320829" lon="11.5057092"><ele>245.5</ele><time>2026-04-11T15:18:08.43Z</time></trkpt><trkpt lat="43.3209618" lon="11.5056923"><ele>246.25</ele><time>2026-04-11T15:18:09.429Z</time></trkpt><trkpt lat="43.3210991" lon="11.5057033"><ele>247.0</ele><time>2026-04-11T15:18:10.429Z</time></trkpt><trkpt lat="43.3212351" lon="11.5057462"><ele>247.0</ele><time>2026-04-11T15:18:11.43Z</time></trkpt><trkpt lat="43.3213642" lon="11.5058287"><ele>247.0</ele><time>2026-04-11T15:18:12.429Z</time></trkpt><trkpt lat="43.3214837" lon="11.5059468"><ele>247.0</ele><time>2026-04-11T15:18:13.43Z</time></trkpt><trkpt lat="43.3215931" lon="11.5060942"><ele>247.0</ele><time>2026-04-11T15:18:14.43Z</time></trkpt><trkpt lat="43.3216993" lon="11.5062527"><ele>249.66666666666666</ele><time>2026-04-11T15:18:15.43Z</time></trkpt><trkpt lat="43.3218086" lon="11.5064099"><ele>252.33333333333331</ele><time>2026-04-11T15:18:16.43Z</time></trkpt><trkpt lat="43.3219209" lon="11.5065664"><ele>255.0</ele><time>2026-04-11T15:18:17.429Z</time></trkpt><trkpt lat="43.3220312" lon="11.5067267"><ele>255.0</ele><time>2026-04-11T15:18:18.429Z</time></trkpt><trkpt lat="43.3221431" lon="11.5068923"><ele>255.0</ele><time>2026-04-11T15:18:19.429Z</time></trkpt><trkpt lat="43.3222604" lon="11.5070629"><ele>255.0</ele><time>2026-04-11T15:18:20.429Z</time></trkpt><trkpt lat="43.3223718" lon="11.5072294"><ele>258.5</ele><time>2026-04-11T15:18:21.43Z</time></trkpt><trkpt lat="43.3224759" lon="11.507378"><ele>262.0</ele><time>2026-04-11T15:18:22.429Z</time></trkpt><trkpt lat="43.3225816" lon="11.507499"><ele>265.5</ele><time>2026-04-11T15:18:23.43Z</time></trkpt><trkpt lat="43.3227019" lon="11.5075853"><ele>269.0</ele><time>2026-04-11T15:18:24.429Z</time></trkpt><trkpt lat="43.3228407" lon="11.5076372"><ele>269.0</ele><time>2026-04-11T15:18:25.429Z</time></trkpt><trkpt lat="43.3229994" lon="11.5076636"><ele>269.0</ele><time>2026-04-11T15:18:26.43Z</time></trkpt><trkpt lat="43.3231724" lon="11.5076677"><ele>269.0</ele><time>2026-04-11T15:18:27.429Z</time></trkpt><trkpt lat="43.3233472" lon="11.5076665"><ele>271.0</ele><time>2026-04-11T15:18:28.43Z</time></trkpt><trkpt lat="43.3235237" lon="11.5076857"><ele>273.0</ele><time>2026-04-11T15:18:29.429Z</time></trkpt><trkpt lat="43.3236994" lon="11.5077405"><ele>275.0</ele><time>2026-04-11T15:18:30.429Z</time></trkpt><trkpt lat="43.3238573" lon="11.5078313"><ele>278.0</ele><time>2026-04-11T15:18:31.43Z</time></trkpt><trkpt lat="43.3239836" lon="11.507959"><ele>281.0</ele><time>2026-04-11T15:18:32.43Z</time></trkpt><trkpt lat="43.3240842" lon="11.5081269"><ele>284.0</ele><time>2026-04-11T15:18:33.429Z</time></trkpt><trkpt lat="43.3241672" lon="11.5083225"><ele>284.0</ele><time>2026-04-11T15:18:34.429Z</time></trkpt><trkpt lat="43.3242486" lon="11.5085312"><ele>284.0</ele><time>2026-04-11T15:18:35.43Z</time></trkpt><trkpt lat="43.3243267" lon="11.5087317"><ele>284.0</ele><time>2026-04-11T15:18:36.43Z</time></trkpt><trkpt lat="43.3244001" lon="11.5089192"><ele>285.25</ele><time>2026-04-11T15:18:37.429Z</time></trkpt><trkpt lat="43.3244723" lon="11.5090821"><ele>286.5</ele><time>2026-04-11T15:18:38.43Z</time></trkpt><trkpt lat="43.3245536" lon="11.5092313"><ele>287.75</ele><time>2026-04-11T15:18:39.43Z</time></trkpt><trkpt lat="43.3246454" lon="11.5093546"><ele>289.0</ele><time>2026-04-11T15:18:40.43Z</time></trkpt><trkpt lat="43.324753" lon="11.5094475"><ele>289.0</ele><time>2026-04-11T15:18:41.43Z</time></trkpt><trkpt lat="43.3248753" lon="11.5095051"><ele>289.0</ele><time>2026-04-11T15:18:42.43Z</time></trkpt><trkpt lat="43.3250092" lon="11.509521"><ele>289.0</ele><time>2026-04-11T15:18:43.43Z</time></trkpt><trkpt lat="43.3251514" lon="11.5095002"><ele>289.0</ele><time>2026-04-11T15:18:44.43Z</time></trkpt><trkpt lat="43.3253015" lon="11.5094494"><ele>289.0</ele><time>2026-04-11T15:18:45.429Z</time></trkpt><trkpt lat="43.3254637" lon="11.5093838"><ele>289.0</ele><time>2026-04-11T15:18:46.429Z</time></trkpt><trkpt lat="43.3256357" lon="11.5093125"><ele>289.0</ele><time>2026-04-11T15:18:47.43Z</time></trkpt><trkpt lat="43.3258113" lon="11.5092377"><ele>289.3333333333333</ele><time>2026-04-11T15:18:48.429Z</time></trkpt><trkpt lat="43.325986" lon="11.5091603"><ele>289.6666666666667</ele><time>2026-04-11T15:18:49.43Z</time></trkpt><trkpt lat="43.3261557" lon="11.5090801"><ele>290.0</ele><time>2026-04-11T15:18:50.429Z</time></trkpt><trkpt lat="43.326322" lon="11.508999"><ele>291.0</ele><time>2026-04-11T15:18:51.43Z</time></trkpt><trkpt lat="43.3264855" lon="11.5089161"><ele>292.0</ele><time>2026-04-11T15:18:52.429Z</time></trkpt><trkpt lat="43.326646" lon="11.5088302"><ele>293.0</ele><time>2026-04-11T15:18:53.43Z</time></trkpt><trkpt lat="43.326805" lon="11.5087405"><ele>293.6666666666667</ele><time>2026-04-11T15:18:54.43Z</time></trkpt><trkpt lat="43.3269603" lon="11.5086444"><ele>294.3333333333333</ele><time>2026-04-11T15:18:55.429Z</time></trkpt><trkpt lat="43.3271137" lon="11.5085462"><ele>295.0</ele><time>2026-04-11T15:18:56.429Z</time></trkpt><trkpt lat="43.3272648" lon="11.5084491"><ele>296.3333333333333</ele><time>2026-04-11T15:18:57.429Z</time></trkpt><trkpt lat="43.3274162" lon="11.5083494"><ele>297.6666666666667</ele><time>2026-04-11T15:18:58.43Z</time></trkpt><trkpt lat="43.3275615" lon="11.5082542"><ele>299.0</ele><time>2026-04-11T15:18:59.429Z</time></trkpt><trkpt lat="43.3277015" lon="11.5081586"><ele>299.0</ele><time>2026-04-11T15:19:00.43Z</time></trkpt><trkpt lat="43.3278602" lon="11.5080701"><ele>299.0</ele><time>2026-04-11T15:19:01.429Z</time></trkpt><trkpt lat="43.3280116" lon="11.507972"><ele>299.0</ele><time>2026-04-11T15:19:02.43Z</time></trkpt><trkpt lat="43.3281639" lon="11.5078706"><ele>300.33333333333337</ele><time>2026-04-11T15:19:03.429Z</time></trkpt><trkpt lat="43.328318" lon="11.5077859"><ele>301.6666666666667</ele><time>2026-04-11T15:19:04.429Z</time></trkpt><trkpt lat="43.328465" lon="11.5076782"><ele>303.0</ele><time>2026-04-11T15:19:05.43Z</time></trkpt><trkpt lat="43.3286062" lon="11.5075865"><ele>303.0</ele><time>2026-04-11T15:19:06.429Z</time></trkpt><trkpt lat="43.3287403" lon="11.5075123"><ele>303.0</ele><time>2026-04-11T15:19:07.429Z</time></trkpt><trkpt lat="43.3288735" lon="11.5074328"><ele>303.0</ele><time>2026-04-11T15:19:08.43Z</time></trkpt><trkpt lat="43.3290016" lon="11.5073545"><ele>303.0</ele><time>2026-04-11T15:19:09.43Z</time></trkpt><trkpt lat="43.3291453" lon="11.5072967"><ele>304.3333333333333</ele><time>2026-04-11T15:19:10.431Z</time></trkpt><trkpt lat="43.329299" lon="11.5072404"><ele>305.66666666666663</ele><time>2026-04-11T15:19:11.43Z</time></trkpt><trkpt lat="43.32946" lon="11.5071984"><ele>307.0</ele><time>2026-04-11T15:19:12.43Z</time></trkpt><trkpt lat="43.3296349" lon="11.5071684"><ele>307.0</ele><time>2026-04-11T15:19:13.431Z</time></trkpt><trkpt lat="43.3298108" lon="11.5071359"><ele>307.0</ele><time>2026-04-11T15:19:14.43Z</time></trkpt><trkpt lat="43.3299879" lon="11.5070929"><ele>307.0</ele><time>2026-04-11T15:19:15.431Z</time></trkpt><trkpt lat="43.3301676" lon="11.5070562"><ele>307.0</ele><time>2026-04-11T15:19:16.43Z</time></trkpt><trkpt lat="43.3303383" lon="11.5070237"><ele>307.0</ele><time>2026-04-11T15:19:17.43Z</time></trkpt><trkpt lat="43.3305125" lon="11.5069912"><ele>307.0</ele><time>2026-04-11T15:19:18.431Z</time></trkpt><trkpt lat="43.3306909" lon="11.5069527"><ele>308.3333333333333</ele><time>2026-04-11T15:19:19.43Z</time></trkpt><trkpt lat="43.3308631" lon="11.5069256"><ele>309.6666666666667</ele><time>2026-04-11T15:19:20.431Z</time></trkpt><trkpt lat="43.3310341" lon="11.5068868"><ele>311.0</ele><time>2026-04-11T15:19:21.431Z</time></trkpt><trkpt lat="43.3312112" lon="11.5068284"><ele>311.0</ele><time>2026-04-11T15:19:22.43Z</time></trkpt><trkpt lat="43.3313798" lon="11.5067485"><ele>311.0</ele><time>2026-04-11T15:19:23.431Z</time></trkpt><trkpt lat="43.3315524" lon="11.506654"><ele>311.0</ele><time>2026-04-11T15:19:24.431Z</time></trkpt><trkpt lat="43.3317275" lon="11.5065469"><ele>312.0</ele><time>2026-04-11T15:19:25.43Z</time></trkpt><trkpt lat="43.3319011" lon="11.5064318"><ele>313.0</ele><time>2026-04-11T15:19:26.43Z</time></trkpt><trkpt lat="43.3320709" lon="11.5063171"><ele>314.0</ele><time>2026-04-11T15:19:27.43Z</time></trkpt><trkpt lat="43.3322367" lon="11.5062066"><ele>314.6666666666667</ele><time>2026-04-11T15:19:28.431Z</time></trkpt><trkpt lat="43.3323993" lon="11.5061008"><ele>315.3333333333333</ele><time>2026-04-11T15:19:29.43Z</time></trkpt><trkpt lat="43.332563" lon="11.5059986"><ele>316.0</ele><time>2026-04-11T15:19:30.431Z</time></trkpt><trkpt lat="43.3327336" lon="11.5059081"><ele>316.0</ele><time>2026-04-11T15:19:31.43Z</time></trkpt><trkpt lat="43.3329138" lon="11.5058382"><ele>316.0</ele><time>2026-04-11T15:19:32.43Z</time></trkpt><trkpt lat="43.3331124" lon="11.5058004"><ele>316.0</ele><time>2026-04-11T15:19:33.43Z</time></trkpt><trkpt lat="43.3333088" lon="11.5057756"><ele>316.0</ele><time>2026-04-11T15:19:34.43Z</time></trkpt><trkpt lat="43.3335011" lon="11.5057455"><ele>316.0</ele><time>2026-04-11T15:19:35.43Z</time></trkpt><trkpt lat="43.3336966" lon="11.5057041"><ele>316.0</ele><time>2026-04-11T15:19:36.431Z</time></trkpt><trkpt lat="43.3338892" lon="11.5056615"><ele>315.66666666666663</ele><time>2026-04-11T15:19:37.43Z</time></trkpt><trkpt lat="43.3340764" lon="11.5056241"><ele>315.3333333333333</ele><time>2026-04-11T15:19:38.431Z</time></trkpt><trkpt lat="43.3342622" lon="11.5055901"><ele>315.0</ele><time>2026-04-11T15:19:39.43Z</time></trkpt><trkpt lat="43.3344458" lon="11.5055534"><ele>315.0</ele><time>2026-04-11T15:19:40.431Z</time></trkpt><trkpt lat="43.3346306" lon="11.505515"><ele>315.0</ele><time>2026-04-11T15:19:41.43Z</time></trkpt><trkpt lat="43.3348175" lon="11.5054751"><ele>315.0</ele><time>2026-04-11T15:19:42.431Z</time></trkpt><trkpt lat="43.3350053" lon="11.5054365"><ele>316.0</ele><time>2026-04-11T15:19:43.43Z</time></trkpt><trkpt lat="43.3351894" lon="11.5053936"><ele>317.0</ele><time>2026-04-11T15:19:44.43Z</time></trkpt><trkpt lat="43.3353803" lon="11.5053571"><ele>318.0</ele><time>2026-04-11T15:19:45.43Z</time></trkpt><trkpt lat="43.3355733" lon="11.5053204"><ele>318.0</ele><time>2026-04-11T15:19:46.43Z</time></trkpt><trkpt lat="43.3357705" lon="11.5052805"><ele>318.0</ele><time>2026-04-11T15:19:47.431Z</time></trkpt><trkpt lat="43.3359743" lon="11.505239"><ele>318.0</ele><time>2026-04-11T15:19:48.431Z</time></trkpt><trkpt lat="43.3361798" lon="11.5051947"><ele>318.0</ele><time>2026-04-11T15:19:49.43Z</time></trkpt><trkpt lat="43.3363835" lon="11.5051529"><ele>318.0</ele><time>2026-04-11T15:19:50.431Z</time></trkpt><trkpt lat="43.3365814" lon="11.5051156"><ele>318.0</ele><time>2026-04-11T15:19:51.43Z</time></trkpt><trkpt lat="43.3367716" lon="11.5050891"><ele>320.0</ele><time>2026-04-11T15:19:52.431Z</time></trkpt><trkpt lat="43.3369658" lon="11.5050766"><ele>322.0</ele><time>2026-04-11T15:19:53.43Z</time></trkpt><trkpt lat="43.33716" lon="11.5050984"><ele>324.0</ele><time>2026-04-11T15:19:54.43Z</time></trkpt><trkpt lat="43.3373479" lon="11.5051611"><ele>324.3333333333333</ele><time>2026-04-11T15:19:55.43Z</time></trkpt><trkpt lat="43.3375192" lon="11.5052633"><ele>324.66666666666663</ele><time>2026-04-11T15:19:56.43Z</time></trkpt><trkpt lat="43.337687" lon="11.5053857"><ele>325.0</ele><time>2026-04-11T15:19:57.43Z</time></trkpt><trkpt lat="43.337845" lon="11.505511"><ele>326.3333333333333</ele><time>2026-04-11T15:19:58.43Z</time></trkpt><trkpt lat="43.3379969" lon="11.5056266"><ele>327.6666666666667</ele><time>2026-04-11T15:19:59.43Z</time></trkpt><trkpt lat="43.3381423" lon="11.5057271"><ele>329.0</ele><time>2026-04-11T15:20:00.431Z</time></trkpt><trkpt lat="43.3382867" lon="11.5058119"><ele>330.0</ele><time>2026-04-11T15:20:01.43Z</time></trkpt><trkpt lat="43.3384408" lon="11.5058834"><ele>331.0</ele><time>2026-04-11T15:20:02.431Z</time></trkpt><trkpt lat="43.33861" lon="11.5059273"><ele>332.0</ele><time>2026-04-11T15:20:03.43Z</time></trkpt><trkpt lat="43.3387882" lon="11.5059429"><ele>333.6666666666667</ele><time>2026-04-11T15:20:04.431Z</time></trkpt><trkpt lat="43.3389779" lon="11.5059226"><ele>335.3333333333333</ele><time>2026-04-11T15:20:05.43Z</time></trkpt><trkpt lat="43.3391681" lon="11.5058763"><ele>337.0</ele><time>2026-04-11T15:20:06.43Z</time></trkpt><trkpt lat="43.3393521" lon="11.5058131"><ele>337.0</ele><time>2026-04-11T15:20:07.431Z</time></trkpt><trkpt lat="43.3395341" lon="11.5057299"><ele>337.0</ele><time>2026-04-11T15:20:08.43Z</time></trkpt><trkpt lat="43.3397" lon="11.5056596"><ele>337.0</ele><time>2026-04-11T15:20:09.431Z</time></trkpt><trkpt lat="43.3398543" lon="11.5056014"><ele>336.75</ele><time>2026-04-11T15:20:10.43Z</time></trkpt><trkpt lat="43.3399955" lon="11.5055523"><ele>336.5</ele><time>2026-04-11T15:20:11.432Z</time></trkpt><trkpt lat="43.34012" lon="11.5055117"><ele>336.25</ele><time>2026-04-11T15:20:12.432Z</time></trkpt><trkpt lat="43.3402314" lon="11.5054735"><ele>336.0</ele><time>2026-04-11T15:20:13.431Z</time></trkpt><trkpt lat="43.3403358" lon="11.5054354"><ele>335.8</ele><time>2026-04-11T15:20:14.431Z</time></trkpt><trkpt lat="43.3404339" lon="11.5053963"><ele>335.6</ele><time>2026-04-11T15:20:15.432Z</time></trkpt><trkpt lat="43.3405188" lon="11.5053674"><ele>335.4</ele><time>2026-04-11T15:20:16.432Z</time></trkpt><trkpt lat="43.3405921" lon="11.5053554"><ele>335.2</ele><time>2026-04-11T15:20:17.431Z</time></trkpt><trkpt lat="43.3406591" lon="11.5053664"><ele>335.0</ele><time>2026-04-11T15:20:18.432Z</time></trkpt><trkpt lat="43.3407719" lon="11.5054223"><ele>335.0</ele><time>2026-04-11T15:20:20.432Z</time></trkpt><trkpt lat="43.3408494" lon="11.5053923"><ele>335.0</ele><time>2026-04-11T15:20:21.432Z</time></trkpt><trkpt lat="43.3409447" lon="11.5053008"><ele>335.0</ele><time>2026-04-11T15:20:22.432Z</time></trkpt><trkpt lat="43.3410496" lon="11.5051968"><ele>335.0</ele><time>2026-04-11T15:20:23.432Z</time></trkpt><trkpt lat="43.341167" lon="11.5051442"><ele>335.0</ele><time>2026-04-11T15:20:24.432Z</time></trkpt><trkpt lat="43.3412809" lon="11.5051047"><ele>335.0</ele><time>2026-04-11T15:20:25.431Z</time></trkpt><trkpt lat="43.3413853" lon="11.5050856"><ele>335.0</ele><time>2026-04-11T15:20:26.431Z</time></trkpt><trkpt lat="43.3414879" lon="11.5050676"><ele>335.0</ele><time>2026-04-11T15:20:27.432Z</time></trkpt><trkpt lat="43.3415901" lon="11.5050478"><ele>335.0</ele><time>2026-04-11T15:20:28.432Z</time></trkpt><trkpt lat="43.3416889" lon="11.5050339"><ele>335.0</ele><time>2026-04-11T15:20:29.431Z</time></trkpt><trkpt lat="43.3417851" lon="11.5050137"><ele>335.0</ele><time>2026-04-11T15:20:30.432Z</time></trkpt><trkpt lat="43.3418833" lon="11.5049923"><ele>335.0</ele><time>2026-04-11T15:20:31.431Z</time></trkpt><trkpt lat="43.3419834" lon="11.5049674"><ele>335.0</ele><time>2026-04-11T15:20:32.431Z</time></trkpt><trkpt lat="43.3420779" lon="11.5049432"><ele>335.0</ele><time>2026-04-11T15:20:33.431Z</time></trkpt><trkpt lat="43.3421617" lon="11.5049165"><ele>335.5</ele><time>2026-04-11T15:20:34.431Z</time></trkpt><trkpt lat="43.3422478" lon="11.5049016"><ele>336.0</ele><time>2026-04-11T15:20:35.432Z</time></trkpt><trkpt lat="43.3423147" lon="11.5049032"><ele>336.5</ele><time>2026-04-11T15:20:36.431Z</time></trkpt><trkpt lat="43.342396" lon="11.5049077"><ele>337.0</ele><time>2026-04-11T15:20:38.431Z</time></trkpt><trkpt lat="43.3424578" lon="11.5048822"><ele>337.5</ele><time>2026-04-11T15:20:42.431Z</time></trkpt><trkpt lat="43.3425236" lon="11.5047966"><ele>338.0</ele><time>2026-04-11T15:20:45.432Z</time></trkpt><trkpt lat="43.3425143" lon="11.5046644"><ele>337.4</ele><time>2026-04-11T15:20:47.431Z</time></trkpt><trkpt lat="43.3424697" lon="11.5045413"><ele>336.79999999999995</ele><time>2026-04-11T15:20:49.431Z</time></trkpt><trkpt lat="43.3424228" lon="11.5044248"><ele>336.2</ele><time>2026-04-11T15:20:51.432Z</time></trkpt><trkpt lat="43.3423769" lon="11.5042751"><ele>335.6</ele><time>2026-04-11T15:20:53.431Z</time></trkpt><trkpt lat="43.3423332" lon="11.504135"><ele>335.0</ele><time>2026-04-11T15:20:55.432Z</time></trkpt><trkpt lat="43.3423092" lon="11.5040261"><ele>335.0</ele><time>2026-04-11T15:20:57.432Z</time></trkpt><trkpt lat="43.3422851" lon="11.5039191"><ele>335.0</ele><time>2026-04-11T15:20:59.432Z</time></trkpt><trkpt lat="43.3422157" lon="11.5039084"><ele>335.0</ele><time>2026-04-11T15:21:01.431Z</time></trkpt><trkpt lat="43.3421797" lon="11.504006"><ele>335.0</ele><time>2026-04-11T15:21:03.431Z</time></trkpt><trkpt lat="43.3422006" lon="11.5041531"><ele>335.0</ele><time>2026-04-11T15:21:05.431Z</time></trkpt><trkpt lat="43.3422352" lon="11.5042847"><ele>335.0</ele><time>2026-04-11T15:21:07.431Z</time></trkpt><trkpt lat="43.3422599" lon="11.5043739"><ele>335.0</ele><time>2026-04-11T15:21:10.431Z</time></trkpt><trkpt lat="43.342247" lon="11.5044706"><ele>335.0</ele><time>2026-04-11T15:21:16.432Z</time></trkpt></trkseg><trkseg><trkpt lat="43.3423448" lon="11.5045204"><ele>335.5</ele><time>2026-04-11T16:03:53.534Z</time></trkpt><trkpt lat="43.3424194" lon="11.5046359"><ele>336.0</ele><time>2026-04-11T16:03:55.478Z</time></trkpt><trkpt lat="43.3424394" lon="11.5047347"><ele>336.5</ele><time>2026-04-11T16:03:56.478Z</time></trkpt><trkpt lat="43.3424759" lon="11.5048425"><ele>337.0</ele><time>2026-04-11T16:03:59.478Z</time></trkpt><trkpt lat="43.3425578" lon="11.5048846"><ele>337.5</ele><time>2026-04-11T16:04:01.477Z</time></trkpt><trkpt lat="43.3426267" lon="11.504877"><ele>338.0</ele><time>2026-04-11T16:04:02.478Z</time></trkpt><trkpt lat="43.3426941" lon="11.5048546"><ele>338.0</ele><time>2026-04-11T16:04:03.477Z</time></trkpt><trkpt lat="43.3427607" lon="11.5048349"><ele>338.0</ele><time>2026-04-11T16:04:04.477Z</time></trkpt><trkpt lat="43.3428319" lon="11.5048216"><ele>338.0</ele><time>2026-04-11T16:04:05.477Z</time></trkpt><trkpt lat="43.3429169" lon="11.5048116"><ele>338.0</ele><time>2026-04-11T16:04:06.478Z</time></trkpt><trkpt lat="43.3430086" lon="11.5047888"><ele>338.0</ele><time>2026-04-11T16:04:07.478Z</time></trkpt><trkpt lat="43.3431012" lon="11.5047681"><ele>338.0</ele><time>2026-04-11T16:04:08.477Z</time></trkpt><trkpt lat="43.3431889" lon="11.5047503"><ele>338.0</ele><time>2026-04-11T16:04:09.477Z</time></trkpt><trkpt lat="43.3432779" lon="11.5047279"><ele>338.0</ele><time>2026-04-11T16:04:10.478Z</time></trkpt><trkpt lat="43.3433712" lon="11.5047118"><ele>338.0</ele><time>2026-04-11T16:04:11.478Z</time></trkpt><trkpt lat="43.3434622" lon="11.504691"><ele>338.0</ele><time>2026-04-11T16:04:12.478Z</time></trkpt><trkpt lat="43.3435378" lon="11.504678"><ele>338.0</ele><time>2026-04-11T16:04:13.477Z</time></trkpt><trkpt lat="43.3436244" lon="11.5046705"><ele>338.0</ele><time>2026-04-11T16:04:15.478Z</time></trkpt><trkpt lat="43.3436968" lon="11.5046939"><ele>338.0</ele><time>2026-04-11T16:04:19.477Z</time></trkpt><trkpt lat="43.3437622" lon="11.5046486"><ele>338.0</ele><time>2026-04-11T16:04:32.479Z</time></trkpt><trkpt lat="43.3438858" lon="11.5046076"><ele>338.0</ele><time>2026-04-11T16:04:34.478Z</time></trkpt><trkpt lat="43.3439667" lon="11.504584"><ele>338.0</ele><time>2026-04-11T16:04:35.478Z</time></trkpt><trkpt lat="43.3440352" lon="11.5045734"><ele>338.0</ele><time>2026-04-11T16:04:36.478Z</time></trkpt><trkpt lat="43.3441471" lon="11.5045518"><ele>337.6666666666667</ele><time>2026-04-11T16:04:38.478Z</time></trkpt><trkpt lat="43.3442128" lon="11.5045386"><ele>337.33333333333337</ele><time>2026-04-11T16:04:39.478Z</time></trkpt><trkpt lat="43.344284" lon="11.5045257"><ele>337.0</ele><time>2026-04-11T16:04:40.479Z</time></trkpt><trkpt lat="43.3443579" lon="11.5045122"><ele>336.6666666666667</ele><time>2026-04-11T16:04:41.478Z</time></trkpt><trkpt lat="43.3444287" lon="11.5045004"><ele>336.3333333333333</ele><time>2026-04-11T16:04:42.479Z</time></trkpt><trkpt lat="43.3445443" lon="11.5044858"><ele>336.0</ele><time>2026-04-11T16:04:44.479Z</time></trkpt><trkpt lat="43.3446323" lon="11.504479"><ele>336.0</ele><time>2026-04-11T16:04:46.478Z</time></trkpt><trkpt lat="43.3446968" lon="11.5044573"><ele>336.0</ele><time>2026-04-11T16:04:48.479Z</time></trkpt><trkpt lat="43.344796" lon="11.5043326"><ele>336.0</ele><time>2026-04-11T16:04:50.478Z</time></trkpt><trkpt lat="43.3448418" lon="11.5042486"><ele>336.0</ele><time>2026-04-11T16:04:51.478Z</time></trkpt><trkpt lat="43.3448832" lon="11.5041409"><ele>336.0</ele><time>2026-04-11T16:04:52.479Z</time></trkpt><trkpt lat="43.3449178" lon="11.5040558"><ele>336.0</ele><time>2026-04-11T16:04:53.479Z</time></trkpt><trkpt lat="43.3449631" lon="11.5039272"><ele>337.4</ele><time>2026-04-11T16:04:55.479Z</time></trkpt><trkpt lat="43.3450036" lon="11.5037404"><ele>338.8</ele><time>2026-04-11T16:04:57.479Z</time></trkpt><trkpt lat="43.3450166" lon="11.5036239"><ele>340.2</ele><time>2026-04-11T16:04:58.478Z</time></trkpt><trkpt lat="43.3450055" lon="11.5035008"><ele>341.59999999999997</ele><time>2026-04-11T16:04:59.478Z</time></trkpt><trkpt lat="43.3449753" lon="11.5033932"><ele>343.0</ele><time>2026-04-11T16:05:00.479Z</time></trkpt><trkpt lat="43.3449354" lon="11.5032879"><ele>343.0</ele><time>2026-04-11T16:05:01.478Z</time></trkpt><trkpt lat="43.344898" lon="11.5032039"><ele>343.0</ele><time>2026-04-11T16:05:02.479Z</time></trkpt><trkpt lat="43.3448698" lon="11.5031259"><ele>343.0</ele><time>2026-04-11T16:05:03.479Z</time></trkpt><trkpt lat="43.3448621" lon="11.5029332"><ele>343.0</ele><time>2026-04-11T16:05:05.479Z</time></trkpt><trkpt lat="43.3448764" lon="11.5027986"><ele>343.0</ele><time>2026-04-11T16:05:06.479Z</time></trkpt><trkpt lat="43.344899" lon="11.5026569"><ele>343.25</ele><time>2026-04-11T16:05:07.478Z</time></trkpt><trkpt lat="43.3449293" lon="11.5025174"><ele>343.5</ele><time>2026-04-11T16:05:08.478Z</time></trkpt><trkpt lat="43.3449762" lon="11.5023819"><ele>343.75</ele><time>2026-04-11T16:05:09.479Z</time></trkpt><trkpt lat="43.3450336" lon="11.5022376"><ele>344.0</ele><time>2026-04-11T16:05:10.479Z</time></trkpt><trkpt lat="43.3450908" lon="11.5020978"><ele>342.6666666666667</ele><time>2026-04-11T16:05:11.479Z</time></trkpt><trkpt lat="43.3451472" lon="11.5019983"><ele>341.33333333333337</ele><time>2026-04-11T16:05:12.479Z</time></trkpt><trkpt lat="43.345185" lon="11.5018809"><ele>340.0</ele><time>2026-04-11T16:05:13.479Z</time></trkpt><trkpt lat="43.3452127" lon="11.501773"><ele>338.6666666666667</ele><time>2026-04-11T16:05:14.479Z</time></trkpt><trkpt lat="43.3452235" lon="11.5016543"><ele>337.3333333333333</ele><time>2026-04-11T16:05:15.479Z</time></trkpt><trkpt lat="43.3452191" lon="11.5015358"><ele>336.0</ele><time>2026-04-11T16:05:16.479Z</time></trkpt><trkpt lat="43.3451972" lon="11.5014173"><ele>336.0</ele><time>2026-04-11T16:05:17.478Z</time></trkpt><trkpt lat="43.3451578" lon="11.5013006"><ele>336.0</ele><time>2026-04-11T16:05:18.478Z</time></trkpt><trkpt lat="43.3451126" lon="11.5011869"><ele>336.0</ele><time>2026-04-11T16:05:19.479Z</time></trkpt><trkpt lat="43.3450689" lon="11.5010812"><ele>336.0</ele><time>2026-04-11T16:05:20.479Z</time></trkpt><trkpt lat="43.3450221" lon="11.500978"><ele>336.0</ele><time>2026-04-11T16:05:21.479Z</time></trkpt><trkpt lat="43.3449669" lon="11.5008789"><ele>335.8333333333333</ele><time>2026-04-11T16:05:22.478Z</time></trkpt><trkpt lat="43.3449183" lon="11.5007907"><ele>335.6666666666667</ele><time>2026-04-11T16:05:23.479Z</time></trkpt><trkpt lat="43.3448915" lon="11.5006608"><ele>335.5</ele><time>2026-04-11T16:05:25.478Z</time></trkpt><trkpt lat="43.3449768" lon="11.500624"><ele>335.33333333333337</ele><time>2026-04-11T16:05:27.479Z</time></trkpt><trkpt lat="43.3450425" lon="11.5005868"><ele>335.1666666666667</ele><time>2026-04-11T16:05:31.479Z</time></trkpt><trkpt lat="43.3450512" lon="11.5004869"><ele>335.0</ele><time>2026-04-11T16:05:34.479Z</time></trkpt><trkpt lat="43.3449954" lon="11.5002583"><ele>335.0</ele><time>2026-04-11T16:05:36.479Z</time></trkpt><trkpt lat="43.344933" lon="11.5001109"><ele>335.0</ele><time>2026-04-11T16:05:37.48Z</time></trkpt><trkpt lat="43.3448517" lon="11.4999282"><ele>335.0</ele><time>2026-04-11T16:05:38.479Z</time></trkpt><trkpt lat="43.344787" lon="11.499749"><ele>335.0</ele><time>2026-04-11T16:05:39.48Z</time></trkpt><trkpt lat="43.344721" lon="11.4995761"><ele>335.25</ele><time>2026-04-11T16:05:40.479Z</time></trkpt><trkpt lat="43.3446553" lon="11.4994027"><ele>335.5</ele><time>2026-04-11T16:05:41.48Z</time></trkpt><trkpt lat="43.344598" lon="11.4992356"><ele>335.75</ele><time>2026-04-11T16:05:42.479Z</time></trkpt><trkpt lat="43.3445398" lon="11.4990945"><ele>336.0</ele><time>2026-04-11T16:05:43.48Z</time></trkpt><trkpt lat="43.3444864" lon="11.4989512"><ele>335.3333333333333</ele><time>2026-04-11T16:05:44.479Z</time></trkpt><trkpt lat="43.3443807" lon="11.4986542"><ele>334.66666666666663</ele><time>2026-04-11T16:05:46.48Z</time></trkpt><trkpt lat="43.3443278" lon="11.4984962"><ele>334.0</ele><time>2026-04-11T16:05:47.48Z</time></trkpt><trkpt lat="43.3442708" lon="11.4983331"><ele>334.0</ele><time>2026-04-11T16:05:48.48Z</time></trkpt><trkpt lat="43.3442123" lon="11.4981771"><ele>334.0</ele><time>2026-04-11T16:05:49.479Z</time></trkpt><trkpt lat="43.3441538" lon="11.4980211"><ele>334.0</ele><time>2026-04-11T16:05:50.48Z</time></trkpt><trkpt lat="43.3440953" lon="11.4978675"><ele>334.0</ele><time>2026-04-11T16:05:51.479Z</time></trkpt><trkpt lat="43.3440385" lon="11.4977212"><ele>334.6</ele><time>2026-04-11T16:05:52.479Z</time></trkpt><trkpt lat="43.3439861" lon="11.4975887"><ele>335.2</ele><time>2026-04-11T16:05:53.479Z</time></trkpt><trkpt lat="43.3439382" lon="11.4974704"><ele>335.8</ele><time>2026-04-11T16:05:54.479Z</time></trkpt><trkpt lat="43.343896" lon="11.4973656"><ele>336.40000000000003</ele><time>2026-04-11T16:05:55.48Z</time></trkpt><trkpt lat="43.3438561" lon="11.4972648"><ele>337.0</ele><time>2026-04-11T16:05:56.479Z</time></trkpt><trkpt lat="43.3438096" lon="11.4971593"><ele>336.40000000000003</ele><time>2026-04-11T16:05:57.479Z</time></trkpt><trkpt lat="43.3437491" lon="11.4970504"><ele>335.8</ele><time>2026-04-11T16:05:58.479Z</time></trkpt><trkpt lat="43.3436837" lon="11.4969422"><ele>335.2</ele><time>2026-04-11T16:05:59.479Z</time></trkpt><trkpt lat="43.343602" lon="11.4968298"><ele>334.6</ele><time>2026-04-11T16:06:00.48Z</time></trkpt><trkpt lat="43.3435162" lon="11.496711"><ele>334.0</ele><time>2026-04-11T16:06:01.479Z</time></trkpt><trkpt lat="43.3434344" lon="11.4966004"><ele>334.0</ele><time>2026-04-11T16:06:02.479Z</time></trkpt><trkpt lat="43.3433576" lon="11.496498"><ele>334.0</ele><time>2026-04-11T16:06:03.479Z</time></trkpt><trkpt lat="43.3432863" lon="11.4964039"><ele>334.0</ele><time>2026-04-11T16:06:04.48Z</time></trkpt><trkpt lat="43.343118" lon="11.4962094"><ele>334.0</ele><time>2026-04-11T16:06:06.48Z</time></trkpt><trkpt lat="43.3430281" lon="11.4961031"><ele>333.25</ele><time>2026-04-11T16:06:07.479Z</time></trkpt><trkpt lat="43.3429327" lon="11.495988"><ele>332.5</ele><time>2026-04-11T16:06:08.479Z</time></trkpt><trkpt lat="43.3428358" lon="11.4958678"><ele>331.75</ele><time>2026-04-11T16:06:09.48Z</time></trkpt><trkpt lat="43.3427376" lon="11.4957466"><ele>331.0</ele><time>2026-04-11T16:06:10.48Z</time></trkpt><trkpt lat="43.3426378" lon="11.4956242"><ele>331.0</ele><time>2026-04-11T16:06:11.479Z</time></trkpt><trkpt lat="43.3425307" lon="11.4954958"><ele>331.0</ele><time>2026-04-11T16:06:12.48Z</time></trkpt><trkpt lat="43.3424159" lon="11.4953618"><ele>331.0</ele><time>2026-04-11T16:06:13.48Z</time></trkpt><trkpt lat="43.3422981" lon="11.4952267"><ele>331.0</ele><time>2026-04-11T16:06:14.48Z</time></trkpt><trkpt lat="43.3421782" lon="11.4950859"><ele>326.0</ele><time>2026-04-11T16:06:15.479Z</time></trkpt><trkpt lat="43.3420553" lon="11.4949414"><ele>321.0</ele><time>2026-04-11T16:06:16.481Z</time></trkpt><trkpt lat="43.3419289" lon="11.4947933"><ele>316.0</ele><time>2026-04-11T16:06:17.48Z</time></trkpt><trkpt lat="43.3418014" lon="11.4946421"><ele>315.0</ele><time>2026-04-11T16:06:18.479Z</time></trkpt><trkpt lat="43.3416762" lon="11.4944906"><ele>314.0</ele><time>2026-04-11T16:06:19.48Z</time></trkpt><trkpt lat="43.3415503" lon="11.4943416"><ele>313.0</ele><time>2026-04-11T16:06:20.479Z</time></trkpt><trkpt lat="43.341425" lon="11.4941957"><ele>312.0</ele><time>2026-04-11T16:06:21.48Z</time></trkpt><trkpt lat="43.341301" lon="11.4940497"><ele>311.0</ele><time>2026-04-11T16:06:22.48Z</time></trkpt><trkpt lat="43.3411749" lon="11.4939007"><ele>310.0</ele><time>2026-04-11T16:06:23.479Z</time></trkpt><trkpt lat="43.34105" lon="11.4937537"><ele>310.0</ele><time>2026-04-11T16:06:24.48Z</time></trkpt><trkpt lat="43.3409203" lon="11.4936021"><ele>310.0</ele><time>2026-04-11T16:06:25.48Z</time></trkpt><trkpt lat="43.3407859" lon="11.4934442"><ele>310.0</ele><time>2026-04-11T16:06:26.479Z</time></trkpt><trkpt lat="43.3406492" lon="11.4932833"><ele>310.0</ele><time>2026-04-11T16:06:27.48Z</time></trkpt><trkpt lat="43.3405106" lon="11.4931155"><ele>310.0</ele><time>2026-04-11T16:06:28.479Z</time></trkpt><trkpt lat="43.3403744" lon="11.4929385"><ele>310.0</ele><time>2026-04-11T16:06:29.48Z</time></trkpt><trkpt lat="43.3402309" lon="11.4927531"><ele>310.3333333333333</ele><time>2026-04-11T16:06:30.481Z</time></trkpt><trkpt lat="43.3400877" lon="11.4925613"><ele>310.6666666666667</ele><time>2026-04-11T16:06:31.481Z</time></trkpt><trkpt lat="43.3399597" lon="11.4923582"><ele>311.0</ele><time>2026-04-11T16:06:32.481Z</time></trkpt><trkpt lat="43.3398281" lon="11.4921713"><ele>309.6666666666667</ele><time>2026-04-11T16:06:33.48Z</time></trkpt><trkpt lat="43.3397019" lon="11.4919822"><ele>308.3333333333333</ele><time>2026-04-11T16:06:34.481Z</time></trkpt><trkpt lat="43.3395794" lon="11.4917924"><ele>307.0</ele><time>2026-04-11T16:06:35.48Z</time></trkpt><trkpt lat="43.3394627" lon="11.491612"><ele>307.0</ele><time>2026-04-11T16:06:36.482Z</time></trkpt><trkpt lat="43.3393504" lon="11.4914413"><ele>307.0</ele><time>2026-04-11T16:06:37.481Z</time></trkpt><trkpt lat="43.3392426" lon="11.4912759"><ele>307.0</ele><time>2026-04-11T16:06:38.48Z</time></trkpt><trkpt lat="43.3391348" lon="11.4911136"><ele>306.66666666666663</ele><time>2026-04-11T16:06:39.48Z</time></trkpt><trkpt lat="43.3390204" lon="11.4909547"><ele>306.3333333333333</ele><time>2026-04-11T16:06:40.48Z</time></trkpt><trkpt lat="43.3389023" lon="11.4908146"><ele>306.0</ele><time>2026-04-11T16:06:41.48Z</time></trkpt><trkpt lat="43.3387897" lon="11.4906978"><ele>305.5</ele><time>2026-04-11T16:06:42.48Z</time></trkpt><trkpt lat="43.3387045" lon="11.4906199"><ele>305.0</ele><time>2026-04-11T16:06:43.481Z</time></trkpt><trkpt lat="43.3386372" lon="11.4905609"><ele>304.5</ele><time>2026-04-11T16:06:44.48Z</time></trkpt><trkpt lat="43.3385737" lon="11.490498"><ele>304.0</ele><time>2026-04-11T16:06:46.48Z</time></trkpt><trkpt lat="43.3385311" lon="11.4904285"><ele>303.5</ele><time>2026-04-11T16:06:50.481Z</time></trkpt><trkpt lat="43.3384796" lon="11.4903736"><ele>303.0</ele><time>2026-04-11T16:06:54.48Z</time></trkpt><trkpt lat="43.3384085" lon="11.4903225"><ele>303.0</ele><time>2026-04-11T16:07:27.48Z</time></trkpt><trkpt lat="43.3383474" lon="11.4902615"><ele>303.0</ele><time>2026-04-11T16:07:28.481Z</time></trkpt><trkpt lat="43.338279" lon="11.4901894"><ele>303.0</ele><time>2026-04-11T16:07:29.48Z</time></trkpt><trkpt lat="43.3381933" lon="11.4901011"><ele>303.0</ele><time>2026-04-11T16:07:30.481Z</time></trkpt><trkpt lat="43.3380873" lon="11.4899933"><ele>303.0</ele><time>2026-04-11T16:07:31.481Z</time></trkpt><trkpt lat="43.3379794" lon="11.489885"><ele>301.75</ele><time>2026-04-11T16:07:32.481Z</time></trkpt><trkpt lat="43.3378685" lon="11.4897704"><ele>300.5</ele><time>2026-04-11T16:07:33.481Z</time></trkpt><trkpt lat="43.3377618" lon="11.4896579"><ele>299.25</ele><time>2026-04-11T16:07:34.481Z</time></trkpt><trkpt lat="43.3376555" lon="11.4895451"><ele>298.0</ele><time>2026-04-11T16:07:35.482Z</time></trkpt><trkpt lat="43.3375443" lon="11.4894284"><ele>297.75</ele><time>2026-04-11T16:07:36.481Z</time></trkpt><trkpt lat="43.3374323" lon="11.4893106"><ele>297.5</ele><time>2026-04-11T16:07:37.482Z</time></trkpt><trkpt lat="43.3373228" lon="11.4891961"><ele>297.25</ele><time>2026-04-11T16:07:38.481Z</time></trkpt><trkpt lat="43.3372247" lon="11.4890945"><ele>297.0</ele><time>2026-04-11T16:07:39.482Z</time></trkpt><trkpt lat="43.3371316" lon="11.4890044"><ele>297.3333333333333</ele><time>2026-04-11T16:07:40.482Z</time></trkpt><trkpt lat="43.3370399" lon="11.4889208"><ele>297.6666666666667</ele><time>2026-04-11T16:07:41.482Z</time></trkpt><trkpt lat="43.3369432" lon="11.4888524"><ele>298.0</ele><time>2026-04-11T16:07:42.481Z</time></trkpt><trkpt lat="43.3368422" lon="11.4887976"><ele>298.33333333333337</ele><time>2026-04-11T16:07:43.482Z</time></trkpt><trkpt lat="43.3367434" lon="11.4887475"><ele>298.6666666666667</ele><time>2026-04-11T16:07:44.482Z</time></trkpt><trkpt lat="43.3367434" lon="11.4887475"><ele>299.0</ele><time>2026-04-11T16:07:44.482Z</time></trkpt><trkpt lat="43.3363944" lon="11.4884973"><ele>299.0</ele><time>2026-04-11T16:07:48.481Z</time></trkpt><trkpt lat="43.336326" lon="11.4883821"><ele>299.0</ele><time>2026-04-11T16:07:49.481Z</time></trkpt><trkpt lat="43.3362564" lon="11.4882462"><ele>299.0</ele><time>2026-04-11T16:07:50.481Z</time></trkpt><trkpt lat="43.3361" lon="11.4879716"><ele>297.0</ele><time>2026-04-11T16:07:52.481Z</time></trkpt><trkpt lat="43.3360051" lon="11.4878501"><ele>295.0</ele><time>2026-04-11T16:07:53.481Z</time></trkpt><trkpt lat="43.3359016" lon="11.4877316"><ele>293.0</ele><time>2026-04-11T16:07:54.481Z</time></trkpt><trkpt lat="43.3358" lon="11.4876167"><ele>291.0</ele><time>2026-04-11T16:07:55.482Z</time></trkpt><trkpt lat="43.3357038" lon="11.487503"><ele>291.0</ele><time>2026-04-11T16:07:56.482Z</time></trkpt><trkpt lat="43.3356127" lon="11.4873824"><ele>291.0</ele><time>2026-04-11T16:07:57.481Z</time></trkpt><trkpt lat="43.335528" lon="11.4872456"><ele>291.0</ele><time>2026-04-11T16:07:58.481Z</time></trkpt><trkpt lat="43.3354509" lon="11.4870954"><ele>291.0</ele><time>2026-04-11T16:07:59.481Z</time></trkpt><trkpt lat="43.3353792" lon="11.4869338"><ele>291.75</ele><time>2026-04-11T16:08:00.481Z</time></trkpt><trkpt lat="43.33531" lon="11.4867668"><ele>292.5</ele><time>2026-04-11T16:08:01.481Z</time></trkpt><trkpt lat="43.3352436" lon="11.4865961"><ele>293.25</ele><time>2026-04-11T16:08:02.482Z</time></trkpt><trkpt lat="43.3351738" lon="11.4864204"><ele>294.0</ele><time>2026-04-11T16:08:03.481Z</time></trkpt><trkpt lat="43.3351015" lon="11.4862386"><ele>291.0</ele><time>2026-04-11T16:08:04.482Z</time></trkpt><trkpt lat="43.3350293" lon="11.4860494"><ele>288.0</ele><time>2026-04-11T16:08:05.482Z</time></trkpt><trkpt lat="43.3349644" lon="11.4858427"><ele>285.0</ele><time>2026-04-11T16:08:06.482Z</time></trkpt><trkpt lat="43.334909" lon="11.4856203"><ele>283.0</ele><time>2026-04-11T16:08:07.482Z</time></trkpt><trkpt lat="43.3348681" lon="11.4853801"><ele>281.0</ele><time>2026-04-11T16:08:08.482Z</time></trkpt><trkpt lat="43.3348379" lon="11.4851228"><ele>279.0</ele><time>2026-04-11T16:08:09.482Z</time></trkpt><trkpt lat="43.3348094" lon="11.4848536"><ele>277.6666666666667</ele><time>2026-04-11T16:08:10.482Z</time></trkpt><trkpt lat="43.3347797" lon="11.4845658"><ele>276.33333333333337</ele><time>2026-04-11T16:08:11.481Z</time></trkpt><trkpt lat="43.3347468" lon="11.4842681"><ele>275.0</ele><time>2026-04-11T16:08:12.481Z</time></trkpt><trkpt lat="43.3347173" lon="11.4839637"><ele>279.5</ele><time>2026-04-11T16:08:13.482Z</time></trkpt><trkpt lat="43.3346929" lon="11.4836468"><ele>284.0</ele><time>2026-04-11T16:08:14.481Z</time></trkpt><trkpt lat="43.3346716" lon="11.4833138"><ele>284.0</ele><time>2026-04-11T16:08:15.482Z</time></trkpt><trkpt lat="43.3346469" lon="11.4830038"><ele>284.0</ele><time>2026-04-11T16:08:16.481Z</time></trkpt><trkpt lat="43.3346239" lon="11.482723"><ele>284.0</ele><time>2026-04-11T16:08:17.482Z</time></trkpt><trkpt lat="43.3345871" lon="11.4825019"><ele>283.25</ele><time>2026-04-11T16:08:18.482Z</time></trkpt><trkpt lat="43.3345666" lon="11.4823287"><ele>282.5</ele><time>2026-04-11T16:08:19.482Z</time></trkpt><trkpt lat="43.3345688" lon="11.4821962"><ele>281.75</ele><time>2026-04-11T16:08:20.482Z</time></trkpt><trkpt lat="43.334594" lon="11.4820208"><ele>281.0</ele><time>2026-04-11T16:08:21.481Z</time></trkpt><trkpt lat="43.3346475" lon="11.4818255"><ele>280.33333333333337</ele><time>2026-04-11T16:08:22.481Z</time></trkpt><trkpt lat="43.3347284" lon="11.4816411"><ele>279.6666666666667</ele><time>2026-04-11T16:08:23.482Z</time></trkpt><trkpt lat="43.3348522" lon="11.4814612"><ele>279.0</ele><time>2026-04-11T16:08:24.482Z</time></trkpt><trkpt lat="43.334988" lon="11.4812551"><ele>279.0</ele><time>2026-04-11T16:08:25.482Z</time></trkpt><trkpt lat="43.335124" lon="11.4810538"><ele>279.0</ele><time>2026-04-11T16:08:26.482Z</time></trkpt><trkpt lat="43.33524" lon="11.4808618"><ele>279.0</ele><time>2026-04-11T16:08:27.483Z</time></trkpt><trkpt lat="43.3353291" lon="11.4807087"><ele>279.0</ele><time>2026-04-11T16:08:28.482Z</time></trkpt><trkpt lat="43.3353856" lon="11.480613"><ele>279.0</ele><time>2026-04-11T16:08:29.482Z</time></trkpt><trkpt lat="43.3354162" lon="11.4805268"><ele>279.0</ele><time>2026-04-11T16:08:30.482Z</time></trkpt><trkpt lat="43.3354458" lon="11.4803959"><ele>279.0</ele><time>2026-04-11T16:08:31.481Z</time></trkpt><trkpt lat="43.3354719" lon="11.4802347"><ele>279.0</ele><time>2026-04-11T16:08:32.482Z</time></trkpt><trkpt lat="43.3355114" lon="11.4800325"><ele>279.3333333333333</ele><time>2026-04-11T16:08:33.482Z</time></trkpt><trkpt lat="43.3355489" lon="11.4798338"><ele>279.66666666666663</ele><time>2026-04-11T16:08:34.482Z</time></trkpt><trkpt lat="43.3356029" lon="11.4796247"><ele>280.0</ele><time>2026-04-11T16:08:35.482Z</time></trkpt><trkpt lat="43.3356772" lon="11.4793961"><ele>279.3333333333333</ele><time>2026-04-11T16:08:36.483Z</time></trkpt><trkpt lat="43.3357456" lon="11.4791575"><ele>278.6666666666667</ele><time>2026-04-11T16:08:37.482Z</time></trkpt><trkpt lat="43.3358321" lon="11.4789093"><ele>278.0</ele><time>2026-04-11T16:08:38.483Z</time></trkpt><trkpt lat="43.3359016" lon="11.4786832"><ele>276.6666666666667</ele><time>2026-04-11T16:08:39.482Z</time></trkpt><trkpt lat="43.3359608" lon="11.4784716"><ele>275.3333333333333</ele><time>2026-04-11T16:08:40.482Z</time></trkpt><trkpt lat="43.3360076" lon="11.4782793"><ele>274.0</ele><time>2026-04-11T16:08:41.482Z</time></trkpt><trkpt lat="43.3360374" lon="11.4780941"><ele>274.0</ele><time>2026-04-11T16:08:42.482Z</time></trkpt><trkpt lat="43.3360437" lon="11.4779102"><ele>274.0</ele><time>2026-04-11T16:08:43.482Z</time></trkpt><trkpt lat="43.3360104" lon="11.4777139"><ele>274.0</ele><time>2026-04-11T16:08:44.482Z</time></trkpt><trkpt lat="43.335954" lon="11.4775153"><ele>274.0</ele><time>2026-04-11T16:08:45.483Z</time></trkpt><trkpt lat="43.33588" lon="11.4773022"><ele>275.0</ele><time>2026-04-11T16:08:46.483Z</time></trkpt><trkpt lat="43.335801" lon="11.4770739"><ele>276.0</ele><time>2026-04-11T16:08:47.482Z</time></trkpt><trkpt lat="43.3357236" lon="11.4768523"><ele>277.0</ele><time>2026-04-11T16:08:48.483Z</time></trkpt><trkpt lat="43.33565" lon="11.4766396"><ele>277.0</ele><time>2026-04-11T16:08:49.483Z</time></trkpt><trkpt lat="43.3355848" lon="11.4764576"><ele>277.0</ele><time>2026-04-11T16:08:50.482Z</time></trkpt><trkpt lat="43.3355242" lon="11.4763056"><ele>277.0</ele><time>2026-04-11T16:08:51.482Z</time></trkpt><trkpt lat="43.3354496" lon="11.4761301"><ele>277.0</ele><time>2026-04-11T16:08:52.482Z</time></trkpt><trkpt lat="43.3353607" lon="11.4759139"><ele>276.3333333333333</ele><time>2026-04-11T16:08:53.482Z</time></trkpt><trkpt lat="43.3352688" lon="11.4756898"><ele>275.6666666666667</ele><time>2026-04-11T16:08:54.482Z</time></trkpt><trkpt lat="43.3351725" lon="11.4754575"><ele>275.0</ele><time>2026-04-11T16:08:55.482Z</time></trkpt><trkpt lat="43.3350842" lon="11.4752356"><ele>274.33333333333337</ele><time>2026-04-11T16:08:56.483Z</time></trkpt><trkpt lat="43.3350141" lon="11.475013"><ele>273.6666666666667</ele><time>2026-04-11T16:08:57.482Z</time></trkpt><trkpt lat="43.3349733" lon="11.474796"><ele>273.0</ele><time>2026-04-11T16:08:58.483Z</time></trkpt><trkpt lat="43.3349395" lon="11.4745626"><ele>272.6666666666667</ele><time>2026-04-11T16:08:59.483Z</time></trkpt><trkpt lat="43.3349124" lon="11.4743018"><ele>272.33333333333337</ele><time>2026-04-11T16:09:00.482Z</time></trkpt><trkpt lat="43.3348869" lon="11.4740229"><ele>272.0</ele><time>2026-04-11T16:09:01.482Z</time></trkpt><trkpt lat="43.3348627" lon="11.4737497"><ele>271.33333333333337</ele><time>2026-04-11T16:09:02.483Z</time></trkpt><trkpt lat="43.3348325" lon="11.4735028"><ele>270.6666666666667</ele><time>2026-04-11T16:09:03.483Z</time></trkpt><trkpt lat="43.334816" lon="11.4732868"><ele>270.0</ele><time>2026-04-11T16:09:04.483Z</time></trkpt><trkpt lat="43.3348142" lon="11.4731057"><ele>270.3333333333333</ele><time>2026-04-11T16:09:05.483Z</time></trkpt><trkpt lat="43.3348402" lon="11.4729264"><ele>270.66666666666663</ele><time>2026-04-11T16:09:06.482Z</time></trkpt><trkpt lat="43.3348942" lon="11.4727252"><ele>271.0</ele><time>2026-04-11T16:09:07.482Z</time></trkpt><trkpt lat="43.3349584" lon="11.4724911"><ele>271.0</ele><time>2026-04-11T16:09:08.482Z</time></trkpt><trkpt lat="43.3350287" lon="11.4722512"><ele>271.0</ele><time>2026-04-11T16:09:09.482Z</time></trkpt><trkpt lat="43.3350967" lon="11.4720326"><ele>271.0</ele><time>2026-04-11T16:09:10.483Z</time></trkpt><trkpt lat="43.3351663" lon="11.4718286"><ele>269.66666666666663</ele><time>2026-04-11T16:09:11.482Z</time></trkpt><trkpt lat="43.335244" lon="11.4716262"><ele>268.3333333333333</ele><time>2026-04-11T16:09:12.483Z</time></trkpt><trkpt lat="43.335338" lon="11.4714151"><ele>267.0</ele><time>2026-04-11T16:09:13.483Z</time></trkpt><trkpt lat="43.3354523" lon="11.471177"><ele>265.3333333333333</ele><time>2026-04-11T16:09:14.483Z</time></trkpt><trkpt lat="43.3355537" lon="11.4709575"><ele>263.66666666666663</ele><time>2026-04-11T16:09:15.482Z</time></trkpt><trkpt lat="43.335636" lon="11.4707513"><ele>262.0</ele><time>2026-04-11T16:09:16.483Z</time></trkpt><trkpt lat="43.3357033" lon="11.4705617"><ele>261.0</ele><time>2026-04-11T16:09:17.483Z</time></trkpt><trkpt lat="43.3357417" lon="11.4704069"><ele>260.0</ele><time>2026-04-11T16:09:18.482Z</time></trkpt><trkpt lat="43.3357662" lon="11.4702675"><ele>259.0</ele><time>2026-04-11T16:09:19.482Z</time></trkpt><trkpt lat="43.3357714" lon="11.4701027"><ele>258.0</ele><time>2026-04-11T16:09:20.482Z</time></trkpt><trkpt lat="43.3357595" lon="11.4699283"><ele>258.0</ele><time>2026-04-11T16:09:21.483Z</time></trkpt><trkpt lat="43.335728" lon="11.4697538"><ele>258.0</ele><time>2026-04-11T16:09:22.482Z</time></trkpt><trkpt lat="43.3356843" lon="11.4695604"><ele>258.0</ele><time>2026-04-11T16:09:23.482Z</time></trkpt><trkpt lat="43.3356286" lon="11.4693702"><ele>258.0</ele><time>2026-04-11T16:09:24.483Z</time></trkpt><trkpt lat="43.3355637" lon="11.4691943"><ele>257.3333333333333</ele><time>2026-04-11T16:09:25.482Z</time></trkpt><trkpt lat="43.3354871" lon="11.469035"><ele>256.66666666666663</ele><time>2026-04-11T16:09:26.482Z</time></trkpt><trkpt lat="43.3353926" lon="11.4688791"><ele>256.0</ele><time>2026-04-11T16:09:27.483Z</time></trkpt><trkpt lat="43.3352728" lon="11.4687151"><ele>256.0</ele><time>2026-04-11T16:09:28.482Z</time></trkpt><trkpt lat="43.335144" lon="11.468535"><ele>256.0</ele><time>2026-04-11T16:09:29.482Z</time></trkpt><trkpt lat="43.3350193" lon="11.4683467"><ele>256.0</ele><time>2026-04-11T16:09:30.483Z</time></trkpt><trkpt lat="43.3349116" lon="11.4681588"><ele>256.0</ele><time>2026-04-11T16:09:31.483Z</time></trkpt><trkpt lat="43.3348179" lon="11.4679619"><ele>256.0</ele><time>2026-04-11T16:09:32.483Z</time></trkpt><trkpt lat="43.3347581" lon="11.4677847"><ele>256.0</ele><time>2026-04-11T16:09:33.482Z</time></trkpt><trkpt lat="43.334754" lon="11.4676122"><ele>256.0</ele><time>2026-04-11T16:09:34.483Z</time></trkpt><trkpt lat="43.3347385" lon="11.4674617"><ele>256.25</ele><time>2026-04-11T16:09:35.483Z</time></trkpt><trkpt lat="43.3347271" lon="11.4673104"><ele>256.5</ele><time>2026-04-11T16:09:36.483Z</time></trkpt><trkpt lat="43.3347322" lon="11.4671373"><ele>256.75</ele><time>2026-04-11T16:09:37.484Z</time></trkpt><trkpt lat="43.3347269" lon="11.4669863"><ele>257.0</ele><time>2026-04-11T16:09:38.483Z</time></trkpt><trkpt lat="43.3347164" lon="11.4668292"><ele>254.75</ele><time>2026-04-11T16:09:39.483Z</time></trkpt><trkpt lat="43.334709" lon="11.466678"><ele>252.5</ele><time>2026-04-11T16:09:40.484Z</time></trkpt><trkpt lat="43.3347086" lon="11.4665284"><ele>250.25</ele><time>2026-04-11T16:09:41.484Z</time></trkpt><trkpt lat="43.3347207" lon="11.4663743"><ele>248.0</ele><time>2026-04-11T16:09:42.483Z</time></trkpt><trkpt lat="43.3347446" lon="11.4662134"><ele>247.5</ele><time>2026-04-11T16:09:43.483Z</time></trkpt><trkpt lat="43.3347827" lon="11.4660428"><ele>247.0</ele><time>2026-04-11T16:09:44.484Z</time></trkpt><trkpt lat="43.3348394" lon="11.4658677"><ele>246.5</ele><time>2026-04-11T16:09:45.483Z</time></trkpt><trkpt lat="43.3348918" lon="11.4656764"><ele>246.0</ele><time>2026-04-11T16:09:46.484Z</time></trkpt><trkpt lat="43.3349424" lon="11.4654764"><ele>245.66666666666669</ele><time>2026-04-11T16:09:47.484Z</time></trkpt><trkpt lat="43.3349913" lon="11.4652778"><ele>245.33333333333334</ele><time>2026-04-11T16:09:48.484Z</time></trkpt><trkpt lat="43.3350428" lon="11.4650868"><ele>245.0</ele><time>2026-04-11T16:09:49.484Z</time></trkpt><trkpt lat="43.3350945" lon="11.4648927"><ele>245.0</ele><time>2026-04-11T16:09:50.483Z</time></trkpt><trkpt lat="43.3351526" lon="11.4646913"><ele>245.0</ele><time>2026-04-11T16:09:51.483Z</time></trkpt><trkpt lat="43.3352103" lon="11.464484"><ele>245.0</ele><time>2026-04-11T16:09:52.484Z</time></trkpt><trkpt lat="43.3352648" lon="11.4642732"><ele>243.66666666666669</ele><time>2026-04-11T16:09:53.484Z</time></trkpt><trkpt lat="43.335321" lon="11.4640563"><ele>242.33333333333331</ele><time>2026-04-11T16:09:54.484Z</time></trkpt><trkpt lat="43.3353835" lon="11.4638358"><ele>241.0</ele><time>2026-04-11T16:09:55.484Z</time></trkpt><trkpt lat="43.335454" lon="11.4636114"><ele>241.0</ele><time>2026-04-11T16:09:56.483Z</time></trkpt><trkpt lat="43.3355322" lon="11.4633869"><ele>241.0</ele><time>2026-04-11T16:09:57.483Z</time></trkpt><trkpt lat="43.3356165" lon="11.4631819"><ele>241.0</ele><time>2026-04-11T16:09:58.483Z</time></trkpt><trkpt lat="43.3356934" lon="11.4629886"><ele>242.5</ele><time>2026-04-11T16:09:59.483Z</time></trkpt><trkpt lat="43.3357654" lon="11.4628155"><ele>244.0</ele><time>2026-04-11T16:10:00.484Z</time></trkpt><trkpt lat="43.335828" lon="11.4626272"><ele>245.5</ele><time>2026-04-11T16:10:01.483Z</time></trkpt><trkpt lat="43.3358812" lon="11.4624361"><ele>247.0</ele><time>2026-04-11T16:10:02.483Z</time></trkpt><trkpt lat="43.335905" lon="11.4622607"><ele>247.5</ele><time>2026-04-11T16:10:03.484Z</time></trkpt><trkpt lat="43.3359099" lon="11.4621057"><ele>248.0</ele><time>2026-04-11T16:10:04.484Z</time></trkpt><trkpt lat="43.3359201" lon="11.4619299"><ele>248.5</ele><time>2026-04-11T16:10:05.484Z</time></trkpt><trkpt lat="43.3359435" lon="11.4616994"><ele>249.0</ele><time>2026-04-11T16:10:06.484Z</time></trkpt><trkpt lat="43.3359576" lon="11.4614538"><ele>247.66666666666669</ele><time>2026-04-11T16:10:07.483Z</time></trkpt><trkpt lat="43.3359554" lon="11.461182"><ele>246.33333333333334</ele><time>2026-04-11T16:10:08.484Z</time></trkpt><trkpt lat="43.3359643" lon="11.4609154"><ele>245.0</ele><time>2026-04-11T16:10:09.483Z</time></trkpt><trkpt lat="43.3359846" lon="11.4606406"><ele>244.0</ele><time>2026-04-11T16:10:10.483Z</time></trkpt><trkpt lat="43.3360231" lon="11.460377"><ele>243.0</ele><time>2026-04-11T16:10:11.484Z</time></trkpt><trkpt lat="43.3360636" lon="11.4601252"><ele>242.0</ele><time>2026-04-11T16:10:12.484Z</time></trkpt><trkpt lat="43.3360879" lon="11.4598876"><ele>242.0</ele><time>2026-04-11T16:10:13.484Z</time></trkpt><trkpt lat="43.3360947" lon="11.4596497"><ele>242.0</ele><time>2026-04-11T16:10:14.484Z</time></trkpt><trkpt lat="43.3360779" lon="11.4594254"><ele>242.0</ele><time>2026-04-11T16:10:15.483Z</time></trkpt><trkpt lat="43.336044" lon="11.4592184"><ele>242.0</ele><time>2026-04-11T16:10:16.484Z</time></trkpt><trkpt lat="43.3360067" lon="11.4590345"><ele>242.0</ele><time>2026-04-11T16:10:17.483Z</time></trkpt><trkpt lat="43.3359777" lon="11.4588733"><ele>242.0</ele><time>2026-04-11T16:10:18.483Z</time></trkpt><trkpt lat="43.3359798" lon="11.4587218"><ele>242.0</ele><time>2026-04-11T16:10:19.484Z</time></trkpt><trkpt lat="43.3360387" lon="11.4585829"><ele>242.0</ele><time>2026-04-11T16:10:20.483Z</time></trkpt><trkpt lat="43.3361166" lon="11.4584384"><ele>242.0</ele><time>2026-04-11T16:10:21.484Z</time></trkpt><trkpt lat="43.3361841" lon="11.4582715"><ele>242.0</ele><time>2026-04-11T16:10:22.483Z</time></trkpt><trkpt lat="43.3362208" lon="11.4580675"><ele>242.0</ele><time>2026-04-11T16:10:23.483Z</time></trkpt><trkpt lat="43.3362497" lon="11.4578519"><ele>242.0</ele><time>2026-04-11T16:10:24.483Z</time></trkpt><trkpt lat="43.3362755" lon="11.4576378"><ele>242.0</ele><time>2026-04-11T16:10:25.483Z</time></trkpt><trkpt lat="43.3363125" lon="11.4574488"><ele>242.0</ele><time>2026-04-11T16:10:26.484Z</time></trkpt><trkpt lat="43.3363491" lon="11.457276"><ele>242.0</ele><time>2026-04-11T16:10:27.484Z</time></trkpt><trkpt lat="43.3363631" lon="11.4570863"><ele>240.5</ele><time>2026-04-11T16:10:28.484Z</time></trkpt><trkpt lat="43.3363533" lon="11.4568738"><ele>239.0</ele><time>2026-04-11T16:10:29.483Z</time></trkpt><trkpt lat="43.3363305" lon="11.4566669"><ele>237.5</ele><time>2026-04-11T16:10:30.484Z</time></trkpt><trkpt lat="43.3363026" lon="11.4564777"><ele>236.0</ele><time>2026-04-11T16:10:31.483Z</time></trkpt><trkpt lat="43.3362928" lon="11.45631"><ele>235.75</ele><time>2026-04-11T16:10:32.484Z</time></trkpt><trkpt lat="43.3363149" lon="11.4561533"><ele>235.5</ele><time>2026-04-11T16:10:33.483Z</time></trkpt><trkpt lat="43.3363655" lon="11.4559793"><ele>235.25</ele><time>2026-04-11T16:10:34.483Z</time></trkpt><trkpt lat="43.3364394" lon="11.4558122"><ele>235.0</ele><time>2026-04-11T16:10:35.483Z</time></trkpt><trkpt lat="43.3365139" lon="11.4556032"><ele>233.66666666666666</ele><time>2026-04-11T16:10:36.486Z</time></trkpt><trkpt lat="43.3365916" lon="11.4553792"><ele>232.33333333333331</ele><time>2026-04-11T16:10:37.484Z</time></trkpt><trkpt lat="43.3366557" lon="11.4551719"><ele>231.0</ele><time>2026-04-11T16:10:38.485Z</time></trkpt><trkpt lat="43.3367106" lon="11.4549946"><ele>231.0</ele><time>2026-04-11T16:10:39.484Z</time></trkpt><trkpt lat="43.336763" lon="11.4548301"><ele>231.0</ele><time>2026-04-11T16:10:40.484Z</time></trkpt><trkpt lat="43.3368028" lon="11.4546786"><ele>231.0</ele><time>2026-04-11T16:10:41.484Z</time></trkpt><trkpt lat="43.3368165" lon="11.4545108"><ele>231.0</ele><time>2026-04-11T16:10:42.485Z</time></trkpt><trkpt lat="43.3368092" lon="11.4543328"><ele>231.0</ele><time>2026-04-11T16:10:43.484Z</time></trkpt><trkpt lat="43.336815" lon="11.4541304"><ele>231.0</ele><time>2026-04-11T16:10:44.485Z</time></trkpt><trkpt lat="43.3368377" lon="11.453899"><ele>231.0</ele><time>2026-04-11T16:10:45.485Z</time></trkpt><trkpt lat="43.3368582" lon="11.4536948"><ele>231.0</ele><time>2026-04-11T16:10:46.485Z</time></trkpt><trkpt lat="43.3368516" lon="11.4535231"><ele>231.0</ele><time>2026-04-11T16:10:47.485Z</time></trkpt><trkpt lat="43.336819" lon="11.4533678"><ele>231.0</ele><time>2026-04-11T16:10:48.484Z</time></trkpt><trkpt lat="43.3367643" lon="11.4532222"><ele>231.0</ele><time>2026-04-11T16:10:49.484Z</time></trkpt><trkpt lat="43.336688" lon="11.4530337"><ele>230.33333333333331</ele><time>2026-04-11T16:10:50.484Z</time></trkpt><trkpt lat="43.3366023" lon="11.4528134"><ele>229.66666666666666</ele><time>2026-04-11T16:10:51.485Z</time></trkpt><trkpt lat="43.3365241" lon="11.452603"><ele>229.0</ele><time>2026-04-11T16:10:52.484Z</time></trkpt><trkpt lat="43.3364492" lon="11.4524001"><ele>226.33333333333331</ele><time>2026-04-11T16:10:53.485Z</time></trkpt><trkpt lat="43.3363763" lon="11.452206"><ele>223.66666666666669</ele><time>2026-04-11T16:10:54.484Z</time></trkpt><trkpt lat="43.3363034" lon="11.4520059"><ele>221.0</ele><time>2026-04-11T16:10:55.485Z</time></trkpt><trkpt lat="43.3362302" lon="11.451808"><ele>221.0</ele><time>2026-04-11T16:10:56.484Z</time></trkpt><trkpt lat="43.3361567" lon="11.4516182"><ele>221.0</ele><time>2026-04-11T16:10:57.484Z</time></trkpt><trkpt lat="43.3360812" lon="11.451443"><ele>221.0</ele><time>2026-04-11T16:10:58.485Z</time></trkpt><trkpt lat="43.3359962" lon="11.4512875"><ele>221.0</ele><time>2026-04-11T16:10:59.485Z</time></trkpt><trkpt lat="43.335888" lon="11.4511671"><ele>220.75</ele><time>2026-04-11T16:11:00.484Z</time></trkpt><trkpt lat="43.33576" lon="11.4510804"><ele>220.5</ele><time>2026-04-11T16:11:01.484Z</time></trkpt><trkpt lat="43.3356254" lon="11.4510176"><ele>220.25</ele><time>2026-04-11T16:11:02.485Z</time></trkpt><trkpt lat="43.3355156" lon="11.450957"><ele>220.0</ele><time>2026-04-11T16:11:03.484Z</time></trkpt><trkpt lat="43.3354356" lon="11.4508755"><ele>218.4</ele><time>2026-04-11T16:11:04.485Z</time></trkpt><trkpt lat="43.3354006" lon="11.4507627"><ele>216.8</ele><time>2026-04-11T16:11:05.484Z</time></trkpt><trkpt lat="43.3353966" lon="11.4506452"><ele>215.2</ele><time>2026-04-11T16:11:06.485Z</time></trkpt><trkpt lat="43.3354331" lon="11.4505257"><ele>213.6</ele><time>2026-04-11T16:11:07.484Z</time></trkpt><trkpt lat="43.3355167" lon="11.450421"><ele>212.0</ele><time>2026-04-11T16:11:08.484Z</time></trkpt><trkpt lat="43.3355858" lon="11.4503011"><ele>212.0</ele><time>2026-04-11T16:11:09.484Z</time></trkpt><trkpt lat="43.3356684" lon="11.4501947"><ele>212.0</ele><time>2026-04-11T16:11:10.484Z</time></trkpt><trkpt lat="43.3357509" lon="11.450085"><ele>212.0</ele><time>2026-04-11T16:11:11.486Z</time></trkpt><trkpt lat="43.3358389" lon="11.4499878"><ele>212.0</ele><time>2026-04-11T16:11:12.484Z</time></trkpt><trkpt lat="43.3359371" lon="11.4499249"><ele>212.0</ele><time>2026-04-11T16:11:13.484Z</time></trkpt><trkpt lat="43.3360366" lon="11.4499042"><ele>212.0</ele><time>2026-04-11T16:11:14.485Z</time></trkpt><trkpt lat="43.3361414" lon="11.4499315"><ele>212.0</ele><time>2026-04-11T16:11:15.484Z</time></trkpt><trkpt lat="43.3362264" lon="11.4499453"><ele>212.0</ele><time>2026-04-11T16:11:16.485Z</time></trkpt><trkpt lat="43.3362966" lon="11.4499264"><ele>212.0</ele><time>2026-04-11T16:11:17.485Z</time></trkpt><trkpt lat="43.3363484" lon="11.4498517"><ele>212.0</ele><time>2026-04-11T16:11:18.485Z</time></trkpt><trkpt lat="43.336403" lon="11.4497181"><ele>211.5</ele><time>2026-04-11T16:11:19.484Z</time></trkpt><trkpt lat="43.3364475" lon="11.4495534"><ele>211.0</ele><time>2026-04-11T16:11:20.485Z</time></trkpt><trkpt lat="43.3364726" lon="11.4493854"><ele>210.5</ele><time>2026-04-11T16:11:21.484Z</time></trkpt><trkpt lat="43.3364873" lon="11.4492117"><ele>210.0</ele><time>2026-04-11T16:11:22.484Z</time></trkpt><trkpt lat="43.3364819" lon="11.4490293"><ele>210.0</ele><time>2026-04-11T16:11:23.485Z</time></trkpt><trkpt lat="43.3364431" lon="11.4488303"><ele>210.0</ele><time>2026-04-11T16:11:24.485Z</time></trkpt><trkpt lat="43.3363801" lon="11.4486297"><ele>210.0</ele><time>2026-04-11T16:11:25.484Z</time></trkpt><trkpt lat="43.3363041" lon="11.4484608"><ele>209.4</ele><time>2026-04-11T16:11:26.484Z</time></trkpt><trkpt lat="43.3362268" lon="11.4483227"><ele>208.8</ele><time>2026-04-11T16:11:27.486Z</time></trkpt><trkpt lat="43.3361699" lon="11.4482117"><ele>208.2</ele><time>2026-04-11T16:11:28.484Z</time></trkpt><trkpt lat="43.3361196" lon="11.4481071"><ele>207.6</ele><time>2026-04-11T16:11:29.485Z</time></trkpt><trkpt lat="43.3360873" lon="11.4479928"><ele>207.0</ele><time>2026-04-11T16:11:30.485Z</time></trkpt><trkpt lat="43.3360922" lon="11.4478512"><ele>207.0</ele><time>2026-04-11T16:11:31.485Z</time></trkpt><trkpt lat="43.3361395" lon="11.4477029"><ele>207.0</ele><time>2026-04-11T16:11:32.484Z</time></trkpt><trkpt lat="43.3362315" lon="11.4475535"><ele>207.0</ele><time>2026-04-11T16:11:33.484Z</time></trkpt><trkpt lat="43.3363325" lon="11.4473876"><ele>207.0</ele><time>2026-04-11T16:11:34.484Z</time></trkpt><trkpt lat="43.3364139" lon="11.447225"><ele>207.5</ele><time>2026-04-11T16:11:35.485Z</time></trkpt><trkpt lat="43.3364577" lon="11.4470595"><ele>208.0</ele><time>2026-04-11T16:11:36.484Z</time></trkpt><trkpt lat="43.3364779" lon="11.4468677"><ele>208.5</ele><time>2026-04-11T16:11:37.484Z</time></trkpt><trkpt lat="43.3364667" lon="11.4466605"><ele>209.0</ele><time>2026-04-11T16:11:38.485Z</time></trkpt><trkpt lat="43.3364215" lon="11.4464437"><ele>210.66666666666669</ele><time>2026-04-11T16:11:39.484Z</time></trkpt><trkpt lat="43.3363554" lon="11.4462095"><ele>212.33333333333331</ele><time>2026-04-11T16:11:40.484Z</time></trkpt><trkpt lat="43.3362847" lon="11.4459588"><ele>214.0</ele><time>2026-04-11T16:11:41.485Z</time></trkpt><trkpt lat="43.3362257" lon="11.4457222"><ele>214.0</ele><time>2026-04-11T16:11:42.485Z</time></trkpt><trkpt lat="43.3361679" lon="11.4455197"><ele>214.0</ele><time>2026-04-11T16:11:43.485Z</time></trkpt><trkpt lat="43.3360994" lon="11.4453476"><ele>214.0</ele><time>2026-04-11T16:11:44.486Z</time></trkpt><trkpt lat="43.3360154" lon="11.4451818"><ele>214.0</ele><time>2026-04-11T16:11:45.485Z</time></trkpt><trkpt lat="43.3359318" lon="11.4450135"><ele>215.75</ele><time>2026-04-11T16:11:46.486Z</time></trkpt><trkpt lat="43.3358494" lon="11.444845"><ele>217.5</ele><time>2026-04-11T16:11:47.486Z</time></trkpt><trkpt lat="43.3357686" lon="11.4446787"><ele>219.25</ele><time>2026-04-11T16:11:48.486Z</time></trkpt><trkpt lat="43.3356862" lon="11.4445087"><ele>221.0</ele><time>2026-04-11T16:11:49.485Z</time></trkpt><trkpt lat="43.3356078" lon="11.4443556"><ele>221.0</ele><time>2026-04-11T16:11:50.485Z</time></trkpt><trkpt lat="43.3355274" lon="11.4441996"><ele>221.0</ele><time>2026-04-11T16:11:51.485Z</time></trkpt><trkpt lat="43.3354467" lon="11.4440452"><ele>221.0</ele><time>2026-04-11T16:11:52.486Z</time></trkpt><trkpt lat="43.3353664" lon="11.4439005"><ele>221.0</ele><time>2026-04-11T16:11:53.485Z</time></trkpt><trkpt lat="43.3352922" lon="11.4437737"><ele>221.0</ele><time>2026-04-11T16:11:54.485Z</time></trkpt><trkpt lat="43.3352235" lon="11.4436537"><ele>221.00000000000003</ele><time>2026-04-11T16:11:55.485Z</time></trkpt><trkpt lat="43.3351681" lon="11.4435422"><ele>221.00000000000003</ele><time>2026-04-11T16:11:56.485Z</time></trkpt><trkpt lat="43.3351319" lon="11.4434294"><ele>221.0</ele><time>2026-04-11T16:11:57.485Z</time></trkpt><trkpt lat="43.3351064" lon="11.4433041"><ele>221.0</ele><time>2026-04-11T16:11:58.485Z</time></trkpt><trkpt lat="43.3350884" lon="11.4431599"><ele>221.0</ele><time>2026-04-11T16:11:59.486Z</time></trkpt><trkpt lat="43.3350829" lon="11.4429873"><ele>221.0</ele><time>2026-04-11T16:12:00.486Z</time></trkpt><trkpt lat="43.3351087" lon="11.4427846"><ele>221.0</ele><time>2026-04-11T16:12:01.486Z</time></trkpt><trkpt lat="43.335152" lon="11.4425765"><ele>221.0</ele><time>2026-04-11T16:12:02.485Z</time></trkpt><trkpt lat="43.3352056" lon="11.4423843"><ele>218.75</ele><time>2026-04-11T16:12:03.486Z</time></trkpt><trkpt lat="43.3352625" lon="11.4422003"><ele>216.5</ele><time>2026-04-11T16:12:04.486Z</time></trkpt><trkpt lat="43.3352947" lon="11.442032"><ele>214.25</ele><time>2026-04-11T16:12:05.485Z</time></trkpt><trkpt lat="43.3353001" lon="11.441886"><ele>212.0</ele><time>2026-04-11T16:12:06.486Z</time></trkpt><trkpt lat="43.3352845" lon="11.4417562"><ele>212.0</ele><time>2026-04-11T16:12:07.486Z</time></trkpt><trkpt lat="43.3352507" lon="11.4416438"><ele>212.0</ele><time>2026-04-11T16:12:08.485Z</time></trkpt><trkpt lat="43.3352064" lon="11.4415381"><ele>212.0</ele><time>2026-04-11T16:12:09.485Z</time></trkpt><trkpt lat="43.3351456" lon="11.4413887"><ele>212.0</ele><time>2026-04-11T16:12:10.485Z</time></trkpt><trkpt lat="43.3351034" lon="11.4412321"><ele>212.0</ele><time>2026-04-11T16:12:11.485Z</time></trkpt><trkpt lat="43.3350889" lon="11.4410193"><ele>214.33333333333334</ele><time>2026-04-11T16:12:12.485Z</time></trkpt><trkpt lat="43.3350858" lon="11.4407975"><ele>216.66666666666669</ele><time>2026-04-11T16:12:13.485Z</time></trkpt><trkpt lat="43.3350831" lon="11.4405799"><ele>219.0</ele><time>2026-04-11T16:12:14.485Z</time></trkpt><trkpt lat="43.3350681" lon="11.4403706"><ele>220.5</ele><time>2026-04-11T16:12:15.486Z</time></trkpt><trkpt lat="43.3350368" lon="11.4401686"><ele>222.0</ele><time>2026-04-11T16:12:16.486Z</time></trkpt><trkpt lat="43.3349871" lon="11.4399908"><ele>223.5</ele><time>2026-04-11T16:12:17.486Z</time></trkpt><trkpt lat="43.3349247" lon="11.4398109"><ele>225.0</ele><time>2026-04-11T16:12:18.486Z</time></trkpt><trkpt lat="43.3348544" lon="11.4396343"><ele>224.75</ele><time>2026-04-11T16:12:19.486Z</time></trkpt><trkpt lat="43.3347791" lon="11.4394671"><ele>224.5</ele><time>2026-04-11T16:12:20.486Z</time></trkpt><trkpt lat="43.3347" lon="11.4393092"><ele>224.25</ele><time>2026-04-11T16:12:21.485Z</time></trkpt><trkpt lat="43.3346232" lon="11.4391602"><ele>224.0</ele><time>2026-04-11T16:12:22.486Z</time></trkpt><trkpt lat="43.3345509" lon="11.4390251"><ele>225.6</ele><time>2026-04-11T16:12:23.485Z</time></trkpt><trkpt lat="43.3344872" lon="11.4389127"><ele>227.2</ele><time>2026-04-11T16:12:24.486Z</time></trkpt><trkpt lat="43.334433" lon="11.4388264"><ele>228.79999999999998</ele><time>2026-04-11T16:12:25.485Z</time></trkpt><trkpt lat="43.3343618" lon="11.4387446"><ele>230.39999999999998</ele><time>2026-04-11T16:12:26.485Z</time></trkpt><trkpt lat="43.3342714" lon="11.4386792"><ele>232.0</ele><time>2026-04-11T16:12:27.485Z</time></trkpt><trkpt lat="43.3341473" lon="11.4386345"><ele>232.0</ele><time>2026-04-11T16:12:28.485Z</time></trkpt><trkpt lat="43.3340117" lon="11.4385887"><ele>232.0</ele><time>2026-04-11T16:12:29.486Z</time></trkpt><trkpt lat="43.3338784" lon="11.438511"><ele>232.0</ele><time>2026-04-11T16:12:30.486Z</time></trkpt><trkpt lat="43.3337723" lon="11.438401"><ele>232.0</ele><time>2026-04-11T16:12:31.486Z</time></trkpt><trkpt lat="43.3336953" lon="11.438261"><ele>233.0</ele><time>2026-04-11T16:12:32.485Z</time></trkpt><trkpt lat="43.3336486" lon="11.4380856"><ele>234.0</ele><time>2026-04-11T16:12:33.486Z</time></trkpt><trkpt lat="43.3336229" lon="11.4378879"><ele>235.0</ele><time>2026-04-11T16:12:34.486Z</time></trkpt><trkpt lat="43.3336187" lon="11.4376654"><ele>236.0</ele><time>2026-04-11T16:12:35.485Z</time></trkpt><trkpt lat="43.3336236" lon="11.4374416"><ele>236.8</ele><time>2026-04-11T16:12:36.486Z</time></trkpt><trkpt lat="43.3336248" lon="11.4372537"><ele>237.60000000000002</ele><time>2026-04-11T16:12:37.486Z</time></trkpt><trkpt lat="43.3336195" lon="11.4371034"><ele>238.4</ele><time>2026-04-11T16:12:38.485Z</time></trkpt><trkpt lat="43.3336075" lon="11.4369756"><ele>239.2</ele><time>2026-04-11T16:12:39.485Z</time></trkpt><trkpt lat="43.3335888" lon="11.4368478"><ele>240.0</ele><time>2026-04-11T16:12:40.485Z</time></trkpt><trkpt lat="43.3335678" lon="11.4367128"><ele>240.4</ele><time>2026-04-11T16:12:41.486Z</time></trkpt><trkpt lat="43.3335485" lon="11.4365728"><ele>240.8</ele><time>2026-04-11T16:12:42.486Z</time></trkpt><trkpt lat="43.3335335" lon="11.4364316"><ele>241.2</ele><time>2026-04-11T16:12:43.486Z</time></trkpt><trkpt lat="43.3335221" lon="11.4362838"><ele>241.6</ele><time>2026-04-11T16:12:44.486Z</time></trkpt><trkpt lat="43.3335106" lon="11.4361242"><ele>242.0</ele><time>2026-04-11T16:12:45.487Z</time></trkpt><trkpt lat="43.3335013" lon="11.435954"><ele>242.0</ele><time>2026-04-11T16:12:46.487Z</time></trkpt><trkpt lat="43.3334932" lon="11.4357827"><ele>242.0</ele><time>2026-04-11T16:12:47.487Z</time></trkpt><trkpt lat="43.3334918" lon="11.4356145"><ele>242.0</ele><time>2026-04-11T16:12:48.487Z</time></trkpt><trkpt lat="43.3335103" lon="11.4354763"><ele>242.0</ele><time>2026-04-11T16:12:49.486Z</time></trkpt><trkpt lat="43.3335473" lon="11.4353485"><ele>242.0</ele><time>2026-04-11T16:12:50.487Z</time></trkpt><trkpt lat="43.3336162" lon="11.4352186"><ele>241.25</ele><time>2026-04-11T16:12:51.487Z</time></trkpt><trkpt lat="43.3336868" lon="11.4350759"><ele>240.5</ele><time>2026-04-11T16:12:52.486Z</time></trkpt><trkpt lat="43.3337437" lon="11.4349194"><ele>239.75</ele><time>2026-04-11T16:12:53.486Z</time></trkpt><trkpt lat="43.3337871" lon="11.4347691"><ele>239.0</ele><time>2026-04-11T16:12:54.487Z</time></trkpt><trkpt lat="43.3338224" lon="11.4346414"><ele>239.66666666666669</ele><time>2026-04-11T16:12:55.487Z</time></trkpt><trkpt lat="43.3338518" lon="11.4345227"><ele>240.33333333333334</ele><time>2026-04-11T16:12:56.487Z</time></trkpt><trkpt lat="43.3338776" lon="11.434406"><ele>241.0</ele><time>2026-04-11T16:12:57.487Z</time></trkpt><trkpt lat="43.3338966" lon="11.4342906"><ele>241.66666666666669</ele><time>2026-04-11T16:12:58.486Z</time></trkpt><trkpt lat="43.3339004" lon="11.4341732"><ele>242.33333333333334</ele><time>2026-04-11T16:12:59.486Z</time></trkpt><trkpt lat="43.3338867" lon="11.4340562"><ele>243.0</ele><time>2026-04-11T16:13:00.487Z</time></trkpt><trkpt lat="43.3338528" lon="11.433941"><ele>243.0</ele><time>2026-04-11T16:13:01.487Z</time></trkpt><trkpt lat="43.3338014" lon="11.4338312"><ele>243.0</ele><time>2026-04-11T16:13:02.486Z</time></trkpt><trkpt lat="43.3337481" lon="11.4337311"><ele>243.0</ele><time>2026-04-11T16:13:03.486Z</time></trkpt><trkpt lat="43.3336946" lon="11.4336377"><ele>243.0</ele><time>2026-04-11T16:13:04.486Z</time></trkpt><trkpt lat="43.3336457" lon="11.4335511"><ele>243.0</ele><time>2026-04-11T16:13:05.486Z</time></trkpt><trkpt lat="43.3336055" lon="11.4334757"><ele>243.0</ele><time>2026-04-11T16:13:06.487Z</time></trkpt><trkpt lat="43.3335595" lon="11.4333839"><ele>244.16666666666666</ele><time>2026-04-11T16:13:08.487Z</time></trkpt><trkpt lat="43.3335359" lon="11.4332975"><ele>245.33333333333331</ele><time>2026-04-11T16:15:02.489Z</time></trkpt><trkpt lat="43.3334698" lon="11.4332124"><ele>246.5</ele><time>2026-04-11T16:15:08.488Z</time></trkpt><trkpt lat="43.3333962" lon="11.4331878"><ele>247.66666666666666</ele><time>2026-04-11T16:15:09.488Z</time></trkpt><trkpt lat="43.3333165" lon="11.4331715"><ele>248.83333333333331</ele><time>2026-04-11T16:15:10.488Z</time></trkpt><trkpt lat="43.3332371" lon="11.4331528"><ele>250.0</ele><time>2026-04-11T16:15:11.489Z</time></trkpt><trkpt lat="43.3331766" lon="11.4331268"><ele>250.0</ele><time>2026-04-11T16:15:12.489Z</time></trkpt><trkpt lat="43.3330738" lon="11.4330651"><ele>250.0</ele><time>2026-04-11T16:15:14.489Z</time></trkpt><trkpt lat="43.3330035" lon="11.43303"><ele>250.0</ele><time>2026-04-11T16:15:15.489Z</time></trkpt><trkpt lat="43.3329155" lon="11.4329853"><ele>250.0</ele><time>2026-04-11T16:15:16.489Z</time></trkpt><trkpt lat="43.332812" lon="11.4329315"><ele>250.0</ele><time>2026-04-11T16:15:17.488Z</time></trkpt><trkpt lat="43.3327168" lon="11.4328805"><ele>250.0</ele><time>2026-04-11T16:15:18.488Z</time></trkpt><trkpt lat="43.3326196" lon="11.432831"><ele>250.0</ele><time>2026-04-11T16:15:19.488Z</time></trkpt><trkpt lat="43.33251" lon="11.4327837"><ele>250.0</ele><time>2026-04-11T16:15:20.488Z</time></trkpt><trkpt lat="43.3323832" lon="11.432748"><ele>250.0</ele><time>2026-04-11T16:15:21.489Z</time></trkpt><trkpt lat="43.3322413" lon="11.4327255"><ele>250.0</ele><time>2026-04-11T16:15:22.488Z</time></trkpt><trkpt lat="43.332084" lon="11.4327274"><ele>250.0</ele><time>2026-04-11T16:15:23.488Z</time></trkpt><trkpt lat="43.3319273" lon="11.4327293"><ele>250.0</ele><time>2026-04-11T16:15:24.488Z</time></trkpt><trkpt lat="43.3317699" lon="11.4327284"><ele>250.0</ele><time>2026-04-11T16:15:25.489Z</time></trkpt><trkpt lat="43.3316059" lon="11.4327148"><ele>250.0</ele><time>2026-04-11T16:15:26.488Z</time></trkpt><trkpt lat="43.3314379" lon="11.4326959"><ele>250.0</ele><time>2026-04-11T16:15:27.489Z</time></trkpt><trkpt lat="43.3312671" lon="11.4326797"><ele>250.33333333333331</ele><time>2026-04-11T16:15:28.488Z</time></trkpt><trkpt lat="43.3310933" lon="11.4326682"><ele>250.66666666666669</ele><time>2026-04-11T16:15:29.489Z</time></trkpt><trkpt lat="43.3309256" lon="11.4326601"><ele>251.0</ele><time>2026-04-11T16:15:30.488Z</time></trkpt><trkpt lat="43.3307637" lon="11.4326511"><ele>251.0</ele><time>2026-04-11T16:15:31.488Z</time></trkpt><trkpt lat="43.3306055" lon="11.432642"><ele>251.0</ele><time>2026-04-11T16:15:32.488Z</time></trkpt><trkpt lat="43.3304505" lon="11.4326333"><ele>251.0</ele><time>2026-04-11T16:15:33.488Z</time></trkpt><trkpt lat="43.3303009" lon="11.4326244"><ele>251.5</ele><time>2026-04-11T16:15:34.489Z</time></trkpt><trkpt lat="43.3301641" lon="11.4326121"><ele>252.0</ele><time>2026-04-11T16:15:35.488Z</time></trkpt><trkpt lat="43.3300388" lon="11.4325997"><ele>252.5</ele><time>2026-04-11T16:15:36.489Z</time></trkpt><trkpt lat="43.3299153" lon="11.432586"><ele>253.0</ele><time>2026-04-11T16:15:37.489Z</time></trkpt><trkpt lat="43.3297887" lon="11.4325722"><ele>253.8</ele><time>2026-04-11T16:15:38.489Z</time></trkpt><trkpt lat="43.3296652" lon="11.4325598"><ele>254.60000000000002</ele><time>2026-04-11T16:15:39.489Z</time></trkpt><trkpt lat="43.3295468" lon="11.4325495"><ele>255.39999999999998</ele><time>2026-04-11T16:15:40.488Z</time></trkpt><trkpt lat="43.3294411" lon="11.4325418"><ele>256.2</ele><time>2026-04-11T16:15:41.488Z</time></trkpt><trkpt lat="43.3293452" lon="11.4325275"><ele>257.0</ele><time>2026-04-11T16:15:42.489Z</time></trkpt><trkpt lat="43.3292463" lon="11.4324968"><ele>257.0</ele><time>2026-04-11T16:15:43.489Z</time></trkpt><trkpt lat="43.3291283" lon="11.4324569"><ele>257.0</ele><time>2026-04-11T16:15:44.488Z</time></trkpt><trkpt lat="43.3290009" lon="11.4323901"><ele>257.0</ele><time>2026-04-11T16:15:45.49Z</time></trkpt><trkpt lat="43.3288635" lon="11.4323215"><ele>257.0</ele><time>2026-04-11T16:15:46.489Z</time></trkpt><trkpt lat="43.3287235" lon="11.4322578"><ele>256.75</ele><time>2026-04-11T16:15:47.49Z</time></trkpt><trkpt lat="43.3285931" lon="11.4322039"><ele>256.5</ele><time>2026-04-11T16:15:48.49Z</time></trkpt><trkpt lat="43.3284735" lon="11.4321598"><ele>256.25</ele><time>2026-04-11T16:15:49.489Z</time></trkpt><trkpt lat="43.3283657" lon="11.4321176"><ele>256.0</ele><time>2026-04-11T16:15:50.49Z</time></trkpt><trkpt lat="43.3282651" lon="11.432077"><ele>256.0</ele><time>2026-04-11T16:15:51.49Z</time></trkpt><trkpt lat="43.32817" lon="11.4320407"><ele>256.0</ele><time>2026-04-11T16:15:52.489Z</time></trkpt><trkpt lat="43.3280812" lon="11.4320083"><ele>256.0</ele><time>2026-04-11T16:15:53.49Z</time></trkpt><trkpt lat="43.3279931" lon="11.4319733"><ele>256.0</ele><time>2026-04-11T16:15:54.49Z</time></trkpt><trkpt lat="43.3279059" lon="11.4319447"><ele>256.0</ele><time>2026-04-11T16:15:55.489Z</time></trkpt><trkpt lat="43.327811" lon="11.4319169"><ele>255.75</ele><time>2026-04-11T16:15:56.49Z</time></trkpt><trkpt lat="43.327721" lon="11.4318815"><ele>255.5</ele><time>2026-04-11T16:15:57.49Z</time></trkpt><trkpt lat="43.3276215" lon="11.4318432"><ele>255.25</ele><time>2026-04-11T16:15:58.489Z</time></trkpt><trkpt lat="43.3275" lon="11.4317982"><ele>255.0</ele><time>2026-04-11T16:15:59.49Z</time></trkpt><trkpt lat="43.3273673" lon="11.4317548"><ele>253.75</ele><time>2026-04-11T16:16:00.49Z</time></trkpt><trkpt lat="43.3272195" lon="11.4317012"><ele>252.5</ele><time>2026-04-11T16:16:01.49Z</time></trkpt><trkpt lat="43.3270768" lon="11.4316517"><ele>251.25</ele><time>2026-04-11T16:16:02.49Z</time></trkpt><trkpt lat="43.3269403" lon="11.4316055"><ele>250.0</ele><time>2026-04-11T16:16:03.49Z</time></trkpt><trkpt lat="43.3268157" lon="11.4315593"><ele>250.0</ele><time>2026-04-11T16:16:04.489Z</time></trkpt><trkpt lat="43.3267028" lon="11.4315211"><ele>250.0</ele><time>2026-04-11T16:16:05.489Z</time></trkpt><trkpt lat="43.3266063" lon="11.4314901"><ele>250.0</ele><time>2026-04-11T16:16:06.49Z</time></trkpt><trkpt lat="43.3265296" lon="11.4314684"><ele>250.0</ele><time>2026-04-11T16:16:07.49Z</time></trkpt><trkpt lat="43.3264147" lon="11.4314353"><ele>250.0</ele><time>2026-04-11T16:16:09.489Z</time></trkpt><trkpt lat="43.3263394" lon="11.4314112"><ele>249.5</ele><time>2026-04-11T16:16:10.49Z</time></trkpt><trkpt lat="43.3262501" lon="11.4313841"><ele>249.0</ele><time>2026-04-11T16:16:11.489Z</time></trkpt><trkpt lat="43.3261369" lon="11.4313507"><ele>248.5</ele><time>2026-04-11T16:16:12.49Z</time></trkpt><trkpt lat="43.3260112" lon="11.4313106"><ele>248.0</ele><time>2026-04-11T16:16:13.49Z</time></trkpt><trkpt lat="43.3258793" lon="11.4312697"><ele>248.5</ele><time>2026-04-11T16:16:14.489Z</time></trkpt><trkpt lat="43.3257426" lon="11.4312365"><ele>249.0</ele><time>2026-04-11T16:16:15.489Z</time></trkpt><trkpt lat="43.3256116" lon="11.4312255"><ele>249.5</ele><time>2026-04-11T16:16:16.489Z</time></trkpt><trkpt lat="43.3254557" lon="11.4312328"><ele>250.0</ele><time>2026-04-11T16:16:17.49Z</time></trkpt><trkpt lat="43.3252923" lon="11.4312479"><ele>250.0</ele><time>2026-04-11T16:16:18.489Z</time></trkpt><trkpt lat="43.3251144" lon="11.4312625"><ele>250.0</ele><time>2026-04-11T16:16:19.489Z</time></trkpt><trkpt lat="43.3249303" lon="11.4312742"><ele>250.0</ele><time>2026-04-11T16:16:20.489Z</time></trkpt><trkpt lat="43.3247561" lon="11.4312884"><ele>248.0</ele><time>2026-04-11T16:16:21.49Z</time></trkpt><trkpt lat="43.3246014" lon="11.4313095"><ele>246.0</ele><time>2026-04-11T16:16:22.49Z</time></trkpt><trkpt lat="43.324465" lon="11.4313314"><ele>244.0</ele><time>2026-04-11T16:16:23.489Z</time></trkpt><trkpt lat="43.3243414" lon="11.4313455"><ele>242.0</ele><time>2026-04-11T16:16:24.489Z</time></trkpt><trkpt lat="43.3242169" lon="11.4313455"><ele>242.0</ele><time>2026-04-11T16:16:25.489Z</time></trkpt><trkpt lat="43.3240931" lon="11.4313257"><ele>242.0</ele><time>2026-04-11T16:16:26.49Z</time></trkpt><trkpt lat="43.3239608" lon="11.4312832"><ele>242.0</ele><time>2026-04-11T16:16:27.489Z</time></trkpt><trkpt lat="43.3238229" lon="11.4312222"><ele>242.0</ele><time>2026-04-11T16:16:28.49Z</time></trkpt><trkpt lat="43.3236689" lon="11.4311375"><ele>239.66666666666669</ele><time>2026-04-11T16:16:29.489Z</time></trkpt><trkpt lat="43.3235158" lon="11.431063"><ele>237.33333333333331</ele><time>2026-04-11T16:16:30.489Z</time></trkpt><trkpt lat="43.3233552" lon="11.4309866"><ele>235.0</ele><time>2026-04-11T16:16:31.489Z</time></trkpt><trkpt lat="43.3231889" lon="11.4309088"><ele>231.33333333333331</ele><time>2026-04-11T16:16:32.489Z</time></trkpt><trkpt lat="43.323018" lon="11.4308332"><ele>227.66666666666669</ele><time>2026-04-11T16:16:33.489Z</time></trkpt><trkpt lat="43.3228481" lon="11.4307581"><ele>224.0</ele><time>2026-04-11T16:16:34.489Z</time></trkpt><trkpt lat="43.3226712" lon="11.4306788"><ele>224.0</ele><time>2026-04-11T16:16:35.49Z</time></trkpt><trkpt lat="43.3224924" lon="11.4306002"><ele>224.0</ele><time>2026-04-11T16:16:36.489Z</time></trkpt><trkpt lat="43.3223105" lon="11.4305244"><ele>224.0</ele><time>2026-04-11T16:16:37.489Z</time></trkpt><trkpt lat="43.3221211" lon="11.4304517"><ele>222.66666666666669</ele><time>2026-04-11T16:16:38.489Z</time></trkpt><trkpt lat="43.3219375" lon="11.4303846"><ele>221.33333333333331</ele><time>2026-04-11T16:16:39.489Z</time></trkpt><trkpt lat="43.3217575" lon="11.4303248"><ele>220.0</ele><time>2026-04-11T16:16:40.49Z</time></trkpt><trkpt lat="43.3215808" lon="11.4302691"><ele>219.66666666666666</ele><time>2026-04-11T16:16:41.49Z</time></trkpt><trkpt lat="43.3213926" lon="11.4302247"><ele>219.33333333333331</ele><time>2026-04-11T16:16:42.49Z</time></trkpt><trkpt lat="43.3212023" lon="11.4301622"><ele>219.0</ele><time>2026-04-11T16:16:43.49Z</time></trkpt><trkpt lat="43.3210073" lon="11.4300941"><ele>219.0</ele><time>2026-04-11T16:16:44.49Z</time></trkpt><trkpt lat="43.3208111" lon="11.430026"><ele>219.0</ele><time>2026-04-11T16:16:45.489Z</time></trkpt><trkpt lat="43.3206112" lon="11.4299577"><ele>219.0</ele><time>2026-04-11T16:16:46.49Z</time></trkpt><trkpt lat="43.3203992" lon="11.4298839"><ele>217.0</ele><time>2026-04-11T16:16:47.489Z</time></trkpt><trkpt lat="43.3201734" lon="11.4298088"><ele>215.0</ele><time>2026-04-11T16:16:48.49Z</time></trkpt><trkpt lat="43.3199448" lon="11.4297335"><ele>215.0</ele><time>2026-04-11T16:16:49.491Z</time></trkpt><trkpt lat="43.3197213" lon="11.4296608"><ele>215.0</ele><time>2026-04-11T16:16:50.491Z</time></trkpt><trkpt lat="43.3195061" lon="11.4295886"><ele>215.66666666666669</ele><time>2026-04-11T16:16:51.491Z</time></trkpt><trkpt lat="43.3192927" lon="11.4295159"><ele>216.33333333333331</ele><time>2026-04-11T16:16:52.491Z</time></trkpt><trkpt lat="43.3190815" lon="11.4294403"><ele>217.0</ele><time>2026-04-11T16:16:53.49Z</time></trkpt><trkpt lat="43.3188716" lon="11.4293638"><ele>217.66666666666666</ele><time>2026-04-11T16:16:54.491Z</time></trkpt><trkpt lat="43.3186631" lon="11.4292899"><ele>218.33333333333331</ele><time>2026-04-11T16:16:55.49Z</time></trkpt><trkpt lat="43.3184568" lon="11.429216"><ele>219.0</ele><time>2026-04-11T16:16:56.49Z</time></trkpt><trkpt lat="43.3182558" lon="11.4291418"><ele>219.0</ele><time>2026-04-11T16:16:57.49Z</time></trkpt><trkpt lat="43.318059" lon="11.4290682"><ele>219.0</ele><time>2026-04-11T16:16:58.491Z</time></trkpt><trkpt lat="43.3178637" lon="11.4289976"><ele>219.0</ele><time>2026-04-11T16:16:59.49Z</time></trkpt><trkpt lat="43.317668" lon="11.4289329"><ele>219.0</ele><time>2026-04-11T16:17:00.491Z</time></trkpt><trkpt lat="43.3174689" lon="11.4288762"><ele>219.0</ele><time>2026-04-11T16:17:01.491Z</time></trkpt><trkpt lat="43.3172644" lon="11.4288231"><ele>219.0</ele><time>2026-04-11T16:17:02.49Z</time></trkpt><trkpt lat="43.317058" lon="11.4287723"><ele>219.33333333333331</ele><time>2026-04-11T16:17:03.49Z</time></trkpt><trkpt lat="43.3168515" lon="11.4287208"><ele>219.66666666666666</ele><time>2026-04-11T16:17:04.49Z</time></trkpt><trkpt lat="43.3166434" lon="11.4286671"><ele>220.0</ele><time>2026-04-11T16:17:05.49Z</time></trkpt><trkpt lat="43.3164337" lon="11.4286119"><ele>219.33333333333331</ele><time>2026-04-11T16:17:06.491Z</time></trkpt><trkpt lat="43.3162233" lon="11.4285571"><ele>218.66666666666669</ele><time>2026-04-11T16:17:07.49Z</time></trkpt><trkpt lat="43.3160113" lon="11.4285024"><ele>218.0</ele><time>2026-04-11T16:17:08.49Z</time></trkpt><trkpt lat="43.3157962" lon="11.4284505"><ele>218.0</ele><time>2026-04-11T16:17:09.49Z</time></trkpt><trkpt lat="43.3155814" lon="11.4283976"><ele>218.0</ele><time>2026-04-11T16:17:10.49Z</time></trkpt><trkpt lat="43.3153819" lon="11.4283546"><ele>218.0</ele><time>2026-04-11T16:17:11.49Z</time></trkpt><trkpt lat="43.3151899" lon="11.4283047"><ele>218.66666666666669</ele><time>2026-04-11T16:17:12.49Z</time></trkpt><trkpt lat="43.3150081" lon="11.4282422"><ele>219.33333333333331</ele><time>2026-04-11T16:17:13.491Z</time></trkpt><trkpt lat="43.3148372" lon="11.4281444"><ele>220.0</ele><time>2026-04-11T16:17:14.491Z</time></trkpt><trkpt lat="43.3146889" lon="11.4280007"><ele>220.33333333333331</ele><time>2026-04-11T16:17:15.49Z</time></trkpt><trkpt lat="43.3145378" lon="11.427831"><ele>220.66666666666669</ele><time>2026-04-11T16:17:16.49Z</time></trkpt><trkpt lat="43.314378" lon="11.4276404"><ele>221.0</ele><time>2026-04-11T16:17:17.49Z</time></trkpt><trkpt lat="43.3142015" lon="11.4274388"><ele>221.0</ele><time>2026-04-11T16:17:18.491Z</time></trkpt><trkpt lat="43.3140131" lon="11.4272391"><ele>221.0</ele><time>2026-04-11T16:17:19.491Z</time></trkpt><trkpt lat="43.3138331" lon="11.4270455"><ele>220.33333333333334</ele><time>2026-04-11T16:17:20.49Z</time></trkpt><trkpt lat="43.3136623" lon="11.426855"><ele>219.66666666666669</ele><time>2026-04-11T16:17:21.491Z</time></trkpt><trkpt lat="43.3134998" lon="11.4266698"><ele>219.0</ele><time>2026-04-11T16:17:22.491Z</time></trkpt><trkpt lat="43.3133437" lon="11.4264917"><ele>219.0</ele><time>2026-04-11T16:17:23.491Z</time></trkpt><trkpt lat="43.3131919" lon="11.4263158"><ele>219.0</ele><time>2026-04-11T16:17:24.491Z</time></trkpt><trkpt lat="43.3130392" lon="11.4261406"><ele>219.0</ele><time>2026-04-11T16:17:25.491Z</time></trkpt><trkpt lat="43.3128807" lon="11.4259651"><ele>219.0</ele><time>2026-04-11T16:17:26.49Z</time></trkpt><trkpt lat="43.3127199" lon="11.4257894"><ele>219.0</ele><time>2026-04-11T16:17:27.491Z</time></trkpt><trkpt lat="43.3125561" lon="11.42561"><ele>219.0</ele><time>2026-04-11T16:17:28.491Z</time></trkpt><trkpt lat="43.312395" lon="11.4254315"><ele>218.33333333333331</ele><time>2026-04-11T16:17:29.49Z</time></trkpt><trkpt lat="43.3122356" lon="11.4252534"><ele>217.66666666666666</ele><time>2026-04-11T16:17:30.491Z</time></trkpt><trkpt lat="43.3120795" lon="11.4250799"><ele>217.0</ele><time>2026-04-11T16:17:31.491Z</time></trkpt><trkpt lat="43.3119289" lon="11.4249137"><ele>217.0</ele><time>2026-04-11T16:17:32.49Z</time></trkpt><trkpt lat="43.3117848" lon="11.4247591"><ele>217.0</ele><time>2026-04-11T16:17:33.491Z</time></trkpt><trkpt lat="43.3116415" lon="11.4246051"><ele>217.0</ele><time>2026-04-11T16:17:34.491Z</time></trkpt><trkpt lat="43.3114972" lon="11.4244525"><ele>216.33333333333331</ele><time>2026-04-11T16:17:35.491Z</time></trkpt><trkpt lat="43.3113477" lon="11.4242979"><ele>215.66666666666669</ele><time>2026-04-11T16:17:36.49Z</time></trkpt><trkpt lat="43.3111958" lon="11.4241372"><ele>215.0</ele><time>2026-04-11T16:17:37.49Z</time></trkpt><trkpt lat="43.3110461" lon="11.4239837"><ele>215.0</ele><time>2026-04-11T16:17:38.491Z</time></trkpt><trkpt lat="43.3109068" lon="11.4238305"><ele>215.0</ele><time>2026-04-11T16:17:39.491Z</time></trkpt><trkpt lat="43.3107779" lon="11.4236854"><ele>215.0</ele><time>2026-04-11T16:17:40.49Z</time></trkpt><trkpt lat="43.3106587" lon="11.4235494"><ele>214.25</ele><time>2026-04-11T16:17:41.491Z</time></trkpt><trkpt lat="43.3105455" lon="11.4234303"><ele>213.5</ele><time>2026-04-11T16:17:42.491Z</time></trkpt><trkpt lat="43.3104402" lon="11.4233182"><ele>212.75</ele><time>2026-04-11T16:17:43.49Z</time></trkpt><trkpt lat="43.3103374" lon="11.4232022"><ele>212.0</ele><time>2026-04-11T16:17:44.49Z</time></trkpt><trkpt lat="43.3102331" lon="11.4230877"><ele>212.0</ele><time>2026-04-11T16:17:45.49Z</time></trkpt><trkpt lat="43.31013" lon="11.422981"><ele>212.0</ele><time>2026-04-11T16:17:46.49Z</time></trkpt><trkpt lat="43.3100271" lon="11.4228875"><ele>212.0</ele><time>2026-04-11T16:17:47.49Z</time></trkpt><trkpt lat="43.3099184" lon="11.4228375"><ele>212.0</ele><time>2026-04-11T16:17:48.49Z</time></trkpt><trkpt lat="43.3098166" lon="11.4228265"><ele>211.75</ele><time>2026-04-11T16:17:49.492Z</time></trkpt><trkpt lat="43.3097074" lon="11.4228732"><ele>211.5</ele><time>2026-04-11T16:17:50.492Z</time></trkpt><trkpt lat="43.3095977" lon="11.4229671"><ele>211.25</ele><time>2026-04-11T16:17:51.491Z</time></trkpt><trkpt lat="43.3094884" lon="11.4230952"><ele>211.0</ele><time>2026-04-11T16:17:52.492Z</time></trkpt><trkpt lat="43.3093699" lon="11.4232394"><ele>210.33333333333331</ele><time>2026-04-11T16:17:53.491Z</time></trkpt><trkpt lat="43.3092498" lon="11.4233998"><ele>209.66666666666669</ele><time>2026-04-11T16:17:54.491Z</time></trkpt><trkpt lat="43.3091082" lon="11.4235444"><ele>209.0</ele><time>2026-04-11T16:17:55.491Z</time></trkpt><trkpt lat="43.3089664" lon="11.4236991"><ele>204.66666666666669</ele><time>2026-04-11T16:17:56.491Z</time></trkpt><trkpt lat="43.3088224" lon="11.4238332"><ele>200.33333333333331</ele><time>2026-04-11T16:17:57.492Z</time></trkpt><trkpt lat="43.3086793" lon="11.4239593"><ele>196.0</ele><time>2026-04-11T16:17:58.492Z</time></trkpt><trkpt lat="43.3085355" lon="11.4241031"><ele>196.0</ele><time>2026-04-11T16:17:59.492Z</time></trkpt><trkpt lat="43.3083851" lon="11.424254"><ele>196.0</ele><time>2026-04-11T16:18:00.492Z</time></trkpt><trkpt lat="43.3082321" lon="11.4244103"><ele>196.0</ele><time>2026-04-11T16:18:01.491Z</time></trkpt><trkpt lat="43.3080791" lon="11.4245746"><ele>193.66666666666666</ele><time>2026-04-11T16:18:02.491Z</time></trkpt><trkpt lat="43.3079232" lon="11.4247464"><ele>191.33333333333331</ele><time>2026-04-11T16:18:03.491Z</time></trkpt><trkpt lat="43.3077772" lon="11.4249302"><ele>189.0</ele><time>2026-04-11T16:18:04.492Z</time></trkpt><trkpt lat="43.3076423" lon="11.4251391"><ele>189.0</ele><time>2026-04-11T16:18:05.492Z</time></trkpt><trkpt lat="43.3075226" lon="11.4253629"><ele>189.0</ele><time>2026-04-11T16:18:06.491Z</time></trkpt><trkpt lat="43.307417" lon="11.4255867"><ele>189.0</ele><time>2026-04-11T16:18:07.491Z</time></trkpt><trkpt lat="43.3073244" lon="11.4257952"><ele>189.0</ele><time>2026-04-11T16:18:08.492Z</time></trkpt><trkpt lat="43.3072357" lon="11.4259847"><ele>189.0</ele><time>2026-04-11T16:18:09.491Z</time></trkpt><trkpt lat="43.3071498" lon="11.4261592"><ele>189.0</ele><time>2026-04-11T16:18:10.491Z</time></trkpt><trkpt lat="43.307064" lon="11.4263317"><ele>189.0</ele><time>2026-04-11T16:18:11.492Z</time></trkpt><trkpt lat="43.3069769" lon="11.4265068"><ele>189.0</ele><time>2026-04-11T16:18:12.492Z</time></trkpt><trkpt lat="43.3068864" lon="11.4266805"><ele>189.0</ele><time>2026-04-11T16:18:13.492Z</time></trkpt><trkpt lat="43.3067927" lon="11.4268319"><ele>189.0</ele><time>2026-04-11T16:18:14.491Z</time></trkpt><trkpt lat="43.3067017" lon="11.4269555"><ele>189.0</ele><time>2026-04-11T16:18:15.492Z</time></trkpt><trkpt lat="43.3066113" lon="11.4270607"><ele>189.0</ele><time>2026-04-11T16:18:16.492Z</time></trkpt><trkpt lat="43.306531" lon="11.4271463"><ele>189.0</ele><time>2026-04-11T16:18:17.491Z</time></trkpt><trkpt lat="43.3064598" lon="11.4272186"><ele>189.0</ele><time>2026-04-11T16:18:18.492Z</time></trkpt><trkpt lat="43.3063993" lon="11.4272701"><ele>190.25</ele><time>2026-04-11T16:18:19.492Z</time></trkpt><trkpt lat="43.3062665" lon="11.4272837"><ele>191.5</ele><time>2026-04-11T16:18:21.491Z</time></trkpt><trkpt lat="43.3061795" lon="11.4272512"><ele>192.75</ele><time>2026-04-11T16:18:22.491Z</time></trkpt><trkpt lat="43.3060689" lon="11.4272297"><ele>194.0</ele><time>2026-04-11T16:18:23.492Z</time></trkpt><trkpt lat="43.3059502" lon="11.4272374"><ele>194.0</ele><time>2026-04-11T16:18:24.491Z</time></trkpt><trkpt lat="43.3058368" lon="11.4272478"><ele>194.0</ele><time>2026-04-11T16:18:25.492Z</time></trkpt><trkpt lat="43.305737" lon="11.4272331"><ele>194.0</ele><time>2026-04-11T16:18:26.491Z</time></trkpt><trkpt lat="43.3056544" lon="11.4271586"><ele>194.0</ele><time>2026-04-11T16:18:27.492Z</time></trkpt><trkpt lat="43.3055983" lon="11.4270366"><ele>194.0</ele><time>2026-04-11T16:18:28.492Z</time></trkpt><trkpt lat="43.3055402" lon="11.4268949"><ele>194.25</ele><time>2026-04-11T16:18:29.491Z</time></trkpt><trkpt lat="43.3055083" lon="11.4267237"><ele>194.5</ele><time>2026-04-11T16:18:30.491Z</time></trkpt><trkpt lat="43.305493" lon="11.4265318"><ele>194.75</ele><time>2026-04-11T16:18:31.491Z</time></trkpt><trkpt lat="43.3054779" lon="11.4263231"><ele>195.0</ele><time>2026-04-11T16:18:32.492Z</time></trkpt><trkpt lat="43.3054542" lon="11.4260863"><ele>195.0</ele><time>2026-04-11T16:18:33.492Z</time></trkpt><trkpt lat="43.3054223" lon="11.425824"><ele>195.0</ele><time>2026-04-11T16:18:34.491Z</time></trkpt><trkpt lat="43.3053987" lon="11.4255458"><ele>195.0</ele><time>2026-04-11T16:18:35.492Z</time></trkpt><trkpt lat="43.3053789" lon="11.4252883"><ele>193.66666666666666</ele><time>2026-04-11T16:18:36.492Z</time></trkpt><trkpt lat="43.3053552" lon="11.4250254"><ele>192.33333333333331</ele><time>2026-04-11T16:18:37.492Z</time></trkpt><trkpt lat="43.3053321" lon="11.4247692"><ele>191.0</ele><time>2026-04-11T16:18:38.491Z</time></trkpt><trkpt lat="43.3053159" lon="11.4245033"><ele>191.0</ele><time>2026-04-11T16:18:39.491Z</time></trkpt><trkpt lat="43.3052984" lon="11.4242363"><ele>191.0</ele><time>2026-04-11T16:18:40.492Z</time></trkpt><trkpt lat="43.30528" lon="11.4239646"><ele>191.0</ele><time>2026-04-11T16:18:41.491Z</time></trkpt><trkpt lat="43.3052601" lon="11.4236863"><ele>190.66666666666666</ele><time>2026-04-11T16:18:42.491Z</time></trkpt><trkpt lat="43.3052344" lon="11.4234033"><ele>190.33333333333334</ele><time>2026-04-11T16:18:43.491Z</time></trkpt><trkpt lat="43.305208" lon="11.4231156"><ele>190.0</ele><time>2026-04-11T16:18:44.492Z</time></trkpt><trkpt lat="43.3051829" lon="11.4228183"><ele>189.66666666666669</ele><time>2026-04-11T16:18:45.491Z</time></trkpt><trkpt lat="43.3051638" lon="11.4225157"><ele>189.33333333333334</ele><time>2026-04-11T16:18:46.492Z</time></trkpt><trkpt lat="43.3051437" lon="11.4222141"><ele>189.0</ele><time>2026-04-11T16:18:47.491Z</time></trkpt><trkpt lat="43.3051208" lon="11.4219022"><ele>188.0</ele><time>2026-04-11T16:18:48.492Z</time></trkpt><trkpt lat="43.3050975" lon="11.4215845"><ele>187.0</ele><time>2026-04-11T16:18:49.493Z</time></trkpt><trkpt lat="43.3050737" lon="11.4212581"><ele>187.0</ele><time>2026-04-11T16:18:50.493Z</time></trkpt><trkpt lat="43.3050506" lon="11.4209194"><ele>187.0</ele><time>2026-04-11T16:18:51.492Z</time></trkpt><trkpt lat="43.3050244" lon="11.4205796"><ele>187.5</ele><time>2026-04-11T16:18:52.493Z</time></trkpt><trkpt lat="43.3049946" lon="11.4202357"><ele>188.0</ele><time>2026-04-11T16:18:53.493Z</time></trkpt><trkpt lat="43.3049644" lon="11.4199008"><ele>187.0</ele><time>2026-04-11T16:18:54.493Z</time></trkpt><trkpt lat="43.3049319" lon="11.4195748"><ele>186.0</ele><time>2026-04-11T16:18:55.492Z</time></trkpt><trkpt lat="43.3048939" lon="11.4192481"><ele>186.0</ele><time>2026-04-11T16:18:56.493Z</time></trkpt><trkpt lat="43.3048523" lon="11.4189329"><ele>186.0</ele><time>2026-04-11T16:18:57.493Z</time></trkpt><trkpt lat="43.3047991" lon="11.4186151"><ele>186.0</ele><time>2026-04-11T16:18:58.493Z</time></trkpt><trkpt lat="43.3047415" lon="11.4183024"><ele>186.0</ele><time>2026-04-11T16:18:59.492Z</time></trkpt><trkpt lat="43.3046791" lon="11.4179949"><ele>185.5</ele><time>2026-04-11T16:19:00.493Z</time></trkpt><trkpt lat="43.3046133" lon="11.4176921"><ele>185.0</ele><time>2026-04-11T16:19:01.492Z</time></trkpt><trkpt lat="43.3045401" lon="11.4173898"><ele>185.0</ele><time>2026-04-11T16:19:02.492Z</time></trkpt><trkpt lat="43.3044623" lon="11.4170898"><ele>185.0</ele><time>2026-04-11T16:19:03.493Z</time></trkpt><trkpt lat="43.3043788" lon="11.4167888"><ele>185.0</ele><time>2026-04-11T16:19:04.492Z</time></trkpt><trkpt lat="43.3042933" lon="11.4164849"><ele>185.0</ele><time>2026-04-11T16:19:05.493Z</time></trkpt><trkpt lat="43.3042093" lon="11.4161825"><ele>185.0</ele><time>2026-04-11T16:19:06.493Z</time></trkpt><trkpt lat="43.3041241" lon="11.4158773"><ele>185.0</ele><time>2026-04-11T16:19:07.493Z</time></trkpt><trkpt lat="43.3040415" lon="11.4155718"><ele>185.0</ele><time>2026-04-11T16:19:08.493Z</time></trkpt><trkpt lat="43.3039584" lon="11.4152727"><ele>185.0</ele><time>2026-04-11T16:19:09.492Z</time></trkpt><trkpt lat="43.3038737" lon="11.4149749"><ele>185.0</ele><time>2026-04-11T16:19:10.493Z</time></trkpt><trkpt lat="43.3037929" lon="11.4146789"><ele>185.0</ele><time>2026-04-11T16:19:11.493Z</time></trkpt><trkpt lat="43.3037096" lon="11.4143802"><ele>185.0</ele><time>2026-04-11T16:19:12.492Z</time></trkpt><trkpt lat="43.3036301" lon="11.4140722"><ele>185.0</ele><time>2026-04-11T16:19:13.492Z</time></trkpt><trkpt lat="43.3035469" lon="11.4137679"><ele>185.5</ele><time>2026-04-11T16:19:14.493Z</time></trkpt><trkpt lat="43.303461" lon="11.4134621"><ele>186.0</ele><time>2026-04-11T16:19:15.492Z</time></trkpt><trkpt lat="43.3033704" lon="11.4131566"><ele>185.0</ele><time>2026-04-11T16:19:16.493Z</time></trkpt><trkpt lat="43.3032825" lon="11.4128437"><ele>184.0</ele><time>2026-04-11T16:19:17.492Z</time></trkpt><trkpt lat="43.3031906" lon="11.4125322"><ele>184.0</ele><time>2026-04-11T16:19:18.493Z</time></trkpt><trkpt lat="43.3031036" lon="11.4122207"><ele>184.0</ele><time>2026-04-11T16:19:19.493Z</time></trkpt><trkpt lat="43.3030168" lon="11.4119149"><ele>183.5</ele><time>2026-04-11T16:19:20.493Z</time></trkpt><trkpt lat="43.3029312" lon="11.4116089"><ele>183.0</ele><time>2026-04-11T16:19:21.493Z</time></trkpt><trkpt lat="43.3028428" lon="11.4113036"><ele>183.0</ele><time>2026-04-11T16:19:22.492Z</time></trkpt><trkpt lat="43.3027604" lon="11.4109986"><ele>183.0</ele><time>2026-04-11T16:19:23.493Z</time></trkpt><trkpt lat="43.3026783" lon="11.4106953"><ele>183.0</ele><time>2026-04-11T16:19:24.493Z</time></trkpt><trkpt lat="43.3025969" lon="11.4103958"><ele>183.0</ele><time>2026-04-11T16:19:25.492Z</time></trkpt><trkpt lat="43.3025169" lon="11.4101014"><ele>183.0</ele><time>2026-04-11T16:19:26.493Z</time></trkpt><trkpt lat="43.3024348" lon="11.4098064"><ele>183.0</ele><time>2026-04-11T16:19:27.492Z</time></trkpt><trkpt lat="43.3023519" lon="11.40951"><ele>183.0</ele><time>2026-04-11T16:19:28.493Z</time></trkpt><trkpt lat="43.3022717" lon="11.4092156"><ele>183.0</ele><time>2026-04-11T16:19:29.493Z</time></trkpt><trkpt lat="43.3021902" lon="11.4089254"><ele>182.66666666666666</ele><time>2026-04-11T16:19:30.494Z</time></trkpt><trkpt lat="43.3021117" lon="11.4086399"><ele>182.33333333333331</ele><time>2026-04-11T16:19:31.492Z</time></trkpt><trkpt lat="43.3020312" lon="11.4083544"><ele>182.0</ele><time>2026-04-11T16:19:32.492Z</time></trkpt><trkpt lat="43.3019499" lon="11.408075"><ele>182.33333333333331</ele><time>2026-04-11T16:19:33.493Z</time></trkpt><trkpt lat="43.3018595" lon="11.407801"><ele>182.66666666666666</ele><time>2026-04-11T16:19:34.493Z</time></trkpt><trkpt lat="43.3017617" lon="11.4075277"><ele>183.0</ele><time>2026-04-11T16:19:35.493Z</time></trkpt><trkpt lat="43.3016542" lon="11.407254"><ele>183.5</ele><time>2026-04-11T16:19:36.493Z</time></trkpt><trkpt lat="43.3015393" lon="11.4069792"><ele>184.0</ele><time>2026-04-11T16:19:37.492Z</time></trkpt><trkpt lat="43.3014181" lon="11.4067131"><ele>184.5</ele><time>2026-04-11T16:19:38.493Z</time></trkpt><trkpt lat="43.301288" lon="11.4064518"><ele>185.0</ele><time>2026-04-11T16:19:39.492Z</time></trkpt><trkpt lat="43.3011459" lon="11.406189"><ele>185.0</ele><time>2026-04-11T16:19:40.492Z</time></trkpt><trkpt lat="43.300999" lon="11.4059325"><ele>185.0</ele><time>2026-04-11T16:19:41.493Z</time></trkpt><trkpt lat="43.3008514" lon="11.4056722"><ele>185.5</ele><time>2026-04-11T16:19:42.492Z</time></trkpt><trkpt lat="43.3006861" lon="11.4054358"><ele>186.0</ele><time>2026-04-11T16:19:43.492Z</time></trkpt><trkpt lat="43.3005267" lon="11.4051879"><ele>183.5</ele><time>2026-04-11T16:19:44.493Z</time></trkpt><trkpt lat="43.3003676" lon="11.4049401"><ele>181.0</ele><time>2026-04-11T16:19:45.493Z</time></trkpt><trkpt lat="43.3002071" lon="11.4046886"><ele>182.5</ele><time>2026-04-11T16:19:46.493Z</time></trkpt><trkpt lat="43.3000464" lon="11.4044329"><ele>184.0</ele><time>2026-04-11T16:19:47.493Z</time></trkpt><trkpt lat="43.2998838" lon="11.4041789"><ele>183.5</ele><time>2026-04-11T16:19:48.492Z</time></trkpt><trkpt lat="43.2997223" lon="11.403921"><ele>183.0</ele><time>2026-04-11T16:19:49.493Z</time></trkpt><trkpt lat="43.2995605" lon="11.4036681"><ele>183.0</ele><time>2026-04-11T16:19:50.492Z</time></trkpt><trkpt lat="43.2994013" lon="11.4034207"><ele>183.0</ele><time>2026-04-11T16:19:51.492Z</time></trkpt><trkpt lat="43.2992432" lon="11.4031783"><ele>183.0</ele><time>2026-04-11T16:19:52.492Z</time></trkpt><trkpt lat="43.2990915" lon="11.4029416"><ele>183.0</ele><time>2026-04-11T16:19:53.494Z</time></trkpt><trkpt lat="43.2989425" lon="11.4027075"><ele>183.33333333333334</ele><time>2026-04-11T16:19:54.494Z</time></trkpt><trkpt lat="43.2987954" lon="11.402478"><ele>183.66666666666669</ele><time>2026-04-11T16:19:55.493Z</time></trkpt><trkpt lat="43.2986456" lon="11.4022453"><ele>184.0</ele><time>2026-04-11T16:19:56.494Z</time></trkpt><trkpt lat="43.2984941" lon="11.4020077"><ele>187.5</ele><time>2026-04-11T16:19:57.493Z</time></trkpt><trkpt lat="43.2983445" lon="11.4017693"><ele>191.0</ele><time>2026-04-11T16:19:58.494Z</time></trkpt><trkpt lat="43.2981915" lon="11.4015243"><ele>190.5</ele><time>2026-04-11T16:19:59.494Z</time></trkpt><trkpt lat="43.2980354" lon="11.401273"><ele>190.0</ele><time>2026-04-11T16:20:00.493Z</time></trkpt><trkpt lat="43.2978746" lon="11.4010217"><ele>190.0</ele><time>2026-04-11T16:20:01.493Z</time></trkpt><trkpt lat="43.2977134" lon="11.4007719"><ele>190.0</ele><time>2026-04-11T16:20:02.493Z</time></trkpt><trkpt lat="43.2975527" lon="11.400521"><ele>192.5</ele><time>2026-04-11T16:20:03.494Z</time></trkpt><trkpt lat="43.2973951" lon="11.4002741"><ele>195.0</ele><time>2026-04-11T16:20:04.494Z</time></trkpt><trkpt lat="43.2972416" lon="11.4000354"><ele>196.0</ele><time>2026-04-11T16:20:05.494Z</time></trkpt><trkpt lat="43.2970897" lon="11.3998014"><ele>197.0</ele><time>2026-04-11T16:20:06.493Z</time></trkpt><trkpt lat="43.2969395" lon="11.3995679"><ele>197.5</ele><time>2026-04-11T16:20:07.494Z</time></trkpt><trkpt lat="43.2967886" lon="11.3993343"><ele>198.0</ele><time>2026-04-11T16:20:08.494Z</time></trkpt><trkpt lat="43.2966378" lon="11.3991053"><ele>198.0</ele><time>2026-04-11T16:20:09.494Z</time></trkpt><trkpt lat="43.2964886" lon="11.3988714"><ele>198.0</ele><time>2026-04-11T16:20:10.494Z</time></trkpt><trkpt lat="43.2963437" lon="11.3986279"><ele>195.5</ele><time>2026-04-11T16:20:11.493Z</time></trkpt><trkpt lat="43.2962122" lon="11.3983606"><ele>193.0</ele><time>2026-04-11T16:20:12.494Z</time></trkpt><trkpt lat="43.2960912" lon="11.3980735"><ele>195.0</ele><time>2026-04-11T16:20:13.494Z</time></trkpt><trkpt lat="43.2959796" lon="11.3977767"><ele>197.0</ele><time>2026-04-11T16:20:14.493Z</time></trkpt><trkpt lat="43.2958866" lon="11.3974807"><ele>197.0</ele><time>2026-04-11T16:20:15.493Z</time></trkpt><trkpt lat="43.295819" lon="11.3971807"><ele>197.0</ele><time>2026-04-11T16:20:16.494Z</time></trkpt><trkpt lat="43.2957643" lon="11.3968655"><ele>197.5</ele><time>2026-04-11T16:20:17.494Z</time></trkpt><trkpt lat="43.2957195" lon="11.3965472"><ele>198.0</ele><time>2026-04-11T16:20:18.494Z</time></trkpt><trkpt lat="43.2957025" lon="11.396211"><ele>198.0</ele><time>2026-04-11T16:20:19.493Z</time></trkpt><trkpt lat="43.2956992" lon="11.3958643"><ele>198.0</ele><time>2026-04-11T16:20:20.494Z</time></trkpt><trkpt lat="43.2957002" lon="11.3955307"><ele>196.5</ele><time>2026-04-11T16:20:21.493Z</time></trkpt><trkpt lat="43.2956999" lon="11.3951971"><ele>195.0</ele><time>2026-04-11T16:20:22.494Z</time></trkpt><trkpt lat="43.2956972" lon="11.394864"><ele>195.0</ele><time>2026-04-11T16:20:23.493Z</time></trkpt><trkpt lat="43.2956974" lon="11.3945298"><ele>195.0</ele><time>2026-04-11T16:20:24.494Z</time></trkpt><trkpt lat="43.2957082" lon="11.3941929"><ele>195.0</ele><time>2026-04-11T16:20:25.493Z</time></trkpt><trkpt lat="43.2957223" lon="11.3938626"><ele>195.0</ele><time>2026-04-11T16:20:26.493Z</time></trkpt><trkpt lat="43.2957358" lon="11.3935385"><ele>195.0</ele><time>2026-04-11T16:20:27.494Z</time></trkpt><trkpt lat="43.2957487" lon="11.3932149"><ele>195.0</ele><time>2026-04-11T16:20:28.494Z</time></trkpt><trkpt lat="43.2957683" lon="11.3928863"><ele>195.0</ele><time>2026-04-11T16:20:29.494Z</time></trkpt><trkpt lat="43.2958017" lon="11.392552"><ele>195.0</ele><time>2026-04-11T16:20:30.494Z</time></trkpt><trkpt lat="43.2958563" lon="11.3922227"><ele>195.0</ele><time>2026-04-11T16:20:31.494Z</time></trkpt><trkpt lat="43.2959277" lon="11.3919103"><ele>195.0</ele><time>2026-04-11T16:20:32.493Z</time></trkpt><trkpt lat="43.2960183" lon="11.3916157"><ele>197.5</ele><time>2026-04-11T16:20:33.493Z</time></trkpt><trkpt lat="43.2961326" lon="11.3913304"><ele>200.0</ele><time>2026-04-11T16:20:34.493Z</time></trkpt><trkpt lat="43.2962611" lon="11.391041"><ele>200.0</ele><time>2026-04-11T16:20:35.493Z</time></trkpt><trkpt lat="43.2964092" lon="11.3907696"><ele>200.0</ele><time>2026-04-11T16:20:36.493Z</time></trkpt><trkpt lat="43.2965615" lon="11.3905061"><ele>202.5</ele><time>2026-04-11T16:20:37.495Z</time></trkpt><trkpt lat="43.2967189" lon="11.3902545"><ele>205.0</ele><time>2026-04-11T16:20:38.493Z</time></trkpt><trkpt lat="43.2968823" lon="11.3900138"><ele>205.0</ele><time>2026-04-11T16:20:39.494Z</time></trkpt><trkpt lat="43.2970502" lon="11.38977"><ele>205.0</ele><time>2026-04-11T16:20:40.493Z</time></trkpt><trkpt lat="43.2972154" lon="11.3895251"><ele>203.0</ele><time>2026-04-11T16:20:41.493Z</time></trkpt><trkpt lat="43.2973815" lon="11.3892778"><ele>201.0</ele><time>2026-04-11T16:20:42.493Z</time></trkpt><trkpt lat="43.2975462" lon="11.3890293"><ele>198.5</ele><time>2026-04-11T16:20:43.493Z</time></trkpt><trkpt lat="43.2977116" lon="11.3887798"><ele>196.0</ele><time>2026-04-11T16:20:44.493Z</time></trkpt><trkpt lat="43.2978781" lon="11.3885338"><ele>196.0</ele><time>2026-04-11T16:20:45.494Z</time></trkpt><trkpt lat="43.2980428" lon="11.3882815"><ele>196.0</ele><time>2026-04-11T16:20:46.494Z</time></trkpt><trkpt lat="43.2982136" lon="11.3880292"><ele>192.0</ele><time>2026-04-11T16:20:47.493Z</time></trkpt><trkpt lat="43.2983888" lon="11.3877651"><ele>188.0</ele><time>2026-04-11T16:20:48.494Z</time></trkpt><trkpt lat="43.2985658" lon="11.3874957"><ele>188.0</ele><time>2026-04-11T16:20:49.494Z</time></trkpt><trkpt lat="43.2987487" lon="11.3872262"><ele>188.0</ele><time>2026-04-11T16:20:50.494Z</time></trkpt><trkpt lat="43.2989299" lon="11.3869556"><ele>186.0</ele><time>2026-04-11T16:20:51.493Z</time></trkpt><trkpt lat="43.2991062" lon="11.3866906"><ele>184.0</ele><time>2026-04-11T16:20:52.495Z</time></trkpt><trkpt lat="43.2992771" lon="11.3864333"><ele>183.5</ele><time>2026-04-11T16:20:53.493Z</time></trkpt><trkpt lat="43.2994419" lon="11.3861877"><ele>183.0</ele><time>2026-04-11T16:20:54.494Z</time></trkpt><trkpt lat="43.2996084" lon="11.3859472"><ele>183.5</ele><time>2026-04-11T16:20:55.494Z</time></trkpt><trkpt lat="43.2997733" lon="11.3857097"><ele>184.0</ele><time>2026-04-11T16:20:56.494Z</time></trkpt><trkpt lat="43.2999364" lon="11.3854807"><ele>185.0</ele><time>2026-04-11T16:20:57.494Z</time></trkpt><trkpt lat="43.300095" lon="11.3852625"><ele>186.0</ele><time>2026-04-11T16:20:58.494Z</time></trkpt><trkpt lat="43.3002459" lon="11.385044"><ele>187.0</ele><time>2026-04-11T16:20:59.494Z</time></trkpt><trkpt lat="43.3003961" lon="11.3848101"><ele>187.33333333333334</ele><time>2026-04-11T16:21:00.494Z</time></trkpt><trkpt lat="43.3005405" lon="11.3845873"><ele>187.66666666666666</ele><time>2026-04-11T16:21:01.494Z</time></trkpt><trkpt lat="43.3006872" lon="11.384366"><ele>188.0</ele><time>2026-04-11T16:21:02.495Z</time></trkpt><trkpt lat="43.300827" lon="11.3841539"><ele>188.0</ele><time>2026-04-11T16:21:03.494Z</time></trkpt><trkpt lat="43.3009642" lon="11.3839422"><ele>188.0</ele><time>2026-04-11T16:21:04.495Z</time></trkpt><trkpt lat="43.3010917" lon="11.3837317"><ele>188.0</ele><time>2026-04-11T16:21:05.495Z</time></trkpt><trkpt lat="43.3012096" lon="11.3835107"><ele>188.66666666666666</ele><time>2026-04-11T16:21:06.494Z</time></trkpt><trkpt lat="43.3013158" lon="11.3832662"><ele>189.33333333333334</ele><time>2026-04-11T16:21:07.494Z</time></trkpt><trkpt lat="43.301407" lon="11.3830123"><ele>190.0</ele><time>2026-04-11T16:21:08.495Z</time></trkpt><trkpt lat="43.3014838" lon="11.3827498"><ele>192.0</ele><time>2026-04-11T16:21:09.494Z</time></trkpt><trkpt lat="43.3015443" lon="11.3824917"><ele>194.0</ele><time>2026-04-11T16:21:10.494Z</time></trkpt><trkpt lat="43.3015831" lon="11.3822249"><ele>196.0</ele><time>2026-04-11T16:21:11.494Z</time></trkpt><trkpt lat="43.3016023" lon="11.3819499"><ele>197.0</ele><time>2026-04-11T16:21:12.494Z</time></trkpt><trkpt lat="43.3016042" lon="11.3816688"><ele>198.0</ele><time>2026-04-11T16:21:13.494Z</time></trkpt><trkpt lat="43.301591" lon="11.3813832"><ele>199.0</ele><time>2026-04-11T16:21:14.494Z</time></trkpt><trkpt lat="43.3015782" lon="11.3811083"><ele>199.33333333333331</ele><time>2026-04-11T16:21:15.495Z</time></trkpt><trkpt lat="43.3015641" lon="11.3808366"><ele>199.66666666666669</ele><time>2026-04-11T16:21:16.495Z</time></trkpt><trkpt lat="43.3015404" lon="11.3805536"><ele>200.0</ele><time>2026-04-11T16:21:17.494Z</time></trkpt><trkpt lat="43.3015204" lon="11.3802629"><ele>199.33333333333334</ele><time>2026-04-11T16:21:18.495Z</time></trkpt><trkpt lat="43.3014964" lon="11.379957"><ele>198.66666666666669</ele><time>2026-04-11T16:21:19.495Z</time></trkpt><trkpt lat="43.3014822" lon="11.379663"><ele>198.0</ele><time>2026-04-11T16:21:20.495Z</time></trkpt><trkpt lat="43.30148" lon="11.3793733"><ele>197.33333333333331</ele><time>2026-04-11T16:21:21.495Z</time></trkpt><trkpt lat="43.3014718" lon="11.379078"><ele>196.66666666666666</ele><time>2026-04-11T16:21:22.495Z</time></trkpt><trkpt lat="43.3014672" lon="11.3787788"><ele>196.0</ele><time>2026-04-11T16:21:23.494Z</time></trkpt><trkpt lat="43.3014614" lon="11.3784799"><ele>196.0</ele><time>2026-04-11T16:21:24.495Z</time></trkpt><trkpt lat="43.3014515" lon="11.3781864"><ele>196.0</ele><time>2026-04-11T16:21:25.494Z</time></trkpt><trkpt lat="43.3014623" lon="11.3778664"><ele>196.0</ele><time>2026-04-11T16:21:26.495Z</time></trkpt><trkpt lat="43.3014552" lon="11.3775659"><ele>196.33333333333331</ele><time>2026-04-11T16:21:27.495Z</time></trkpt><trkpt lat="43.3014452" lon="11.3772615"><ele>196.66666666666669</ele><time>2026-04-11T16:21:28.495Z</time></trkpt><trkpt lat="43.3014322" lon="11.3769618"><ele>197.0</ele><time>2026-04-11T16:21:29.495Z</time></trkpt><trkpt lat="43.301429" lon="11.3766521"><ele>197.33333333333334</ele><time>2026-04-11T16:21:30.495Z</time></trkpt><trkpt lat="43.3014236" lon="11.3763469"><ele>197.66666666666669</ele><time>2026-04-11T16:21:31.494Z</time></trkpt><trkpt lat="43.3014183" lon="11.376043"><ele>198.0</ele><time>2026-04-11T16:21:32.494Z</time></trkpt><trkpt lat="43.301416" lon="11.3757321"><ele>196.66666666666669</ele><time>2026-04-11T16:21:33.495Z</time></trkpt><trkpt lat="43.3014083" lon="11.3754339"><ele>195.33333333333334</ele><time>2026-04-11T16:21:34.495Z</time></trkpt><trkpt lat="43.3014016" lon="11.3751398"><ele>194.0</ele><time>2026-04-11T16:21:35.494Z</time></trkpt><trkpt lat="43.3013962" lon="11.3748485"><ele>194.0</ele><time>2026-04-11T16:21:36.494Z</time></trkpt><trkpt lat="43.301392" lon="11.3745505"><ele>194.0</ele><time>2026-04-11T16:21:37.495Z</time></trkpt><trkpt lat="43.3013878" lon="11.3742507"><ele>194.0</ele><time>2026-04-11T16:21:38.494Z</time></trkpt><trkpt lat="43.3013824" lon="11.3739508"><ele>194.66666666666669</ele><time>2026-04-11T16:21:39.495Z</time></trkpt><trkpt lat="43.3013802" lon="11.3736486"><ele>195.33333333333331</ele><time>2026-04-11T16:21:40.494Z</time></trkpt><trkpt lat="43.3013795" lon="11.3733559"><ele>196.0</ele><time>2026-04-11T16:21:41.494Z</time></trkpt><trkpt lat="43.3013809" lon="11.3730701"><ele>196.66666666666666</ele><time>2026-04-11T16:21:42.495Z</time></trkpt><trkpt lat="43.3013868" lon="11.3727966"><ele>197.33333333333331</ele><time>2026-04-11T16:21:43.494Z</time></trkpt><trkpt lat="43.3014054" lon="11.3725636"><ele>198.0</ele><time>2026-04-11T16:21:44.495Z</time></trkpt><trkpt lat="43.3014261" lon="11.3723689"><ele>198.0</ele><time>2026-04-11T16:21:45.494Z</time></trkpt><trkpt lat="43.3014536" lon="11.3722074"><ele>198.0</ele><time>2026-04-11T16:21:46.494Z</time></trkpt><trkpt lat="43.3014809" lon="11.37206"><ele>198.0</ele><time>2026-04-11T16:21:47.494Z</time></trkpt><trkpt lat="43.3015035" lon="11.3719287"><ele>198.0</ele><time>2026-04-11T16:21:48.494Z</time></trkpt><trkpt lat="43.3015255" lon="11.3718117"><ele>198.0</ele><time>2026-04-11T16:21:49.494Z</time></trkpt><trkpt lat="43.3015486" lon="11.3716961"><ele>197.83333333333334</ele><time>2026-04-11T16:21:50.494Z</time></trkpt><trkpt lat="43.3015759" lon="11.3715991"><ele>197.66666666666669</ele><time>2026-04-11T16:21:51.495Z</time></trkpt><trkpt lat="43.3016071" lon="11.3715202"><ele>197.5</ele><time>2026-04-11T16:21:52.494Z</time></trkpt><trkpt lat="43.3016509" lon="11.3714566"><ele>197.33333333333334</ele><time>2026-04-11T16:21:53.494Z</time></trkpt><trkpt lat="43.3017151" lon="11.3713739"><ele>197.16666666666669</ele><time>2026-04-11T16:21:54.495Z</time></trkpt><trkpt lat="43.3017899" lon="11.3712744"><ele>197.0</ele><time>2026-04-11T16:21:55.494Z</time></trkpt><trkpt lat="43.3018405" lon="11.3711199"><ele>197.39999999999998</ele><time>2026-04-11T16:21:56.494Z</time></trkpt><trkpt lat="43.3018683" lon="11.3709662"><ele>197.79999999999998</ele><time>2026-04-11T16:21:57.495Z</time></trkpt><trkpt lat="43.3018586" lon="11.3708179"><ele>198.2</ele><time>2026-04-11T16:21:58.495Z</time></trkpt><trkpt lat="43.3017972" lon="11.3707034"><ele>198.6</ele><time>2026-04-11T16:21:59.495Z</time></trkpt><trkpt lat="43.301727" lon="11.3706401"><ele>199.0</ele><time>2026-04-11T16:22:00.495Z</time></trkpt><trkpt lat="43.3016536" lon="11.3706112"><ele>199.0</ele><time>2026-04-11T16:22:01.496Z</time></trkpt><trkpt lat="43.3015798" lon="11.3706472"><ele>199.0</ele><time>2026-04-11T16:22:02.496Z</time></trkpt><trkpt lat="43.3015069" lon="11.3707102"><ele>199.0</ele><time>2026-04-11T16:22:03.496Z</time></trkpt><trkpt lat="43.3014404" lon="11.3708022"><ele>199.0</ele><time>2026-04-11T16:22:04.496Z</time></trkpt><trkpt lat="43.3013957" lon="11.370918"><ele>199.0</ele><time>2026-04-11T16:22:05.496Z</time></trkpt><trkpt lat="43.30137" lon="11.3710512"><ele>198.6</ele><time>2026-04-11T16:22:06.496Z</time></trkpt><trkpt lat="43.301367" lon="11.3711829"><ele>198.2</ele><time>2026-04-11T16:22:07.495Z</time></trkpt><trkpt lat="43.3013967" lon="11.3713079"><ele>197.79999999999998</ele><time>2026-04-11T16:22:08.496Z</time></trkpt><trkpt lat="43.3014417" lon="11.3714153"><ele>197.39999999999998</ele><time>2026-04-11T16:22:09.495Z</time></trkpt><trkpt lat="43.3015" lon="11.3715191"><ele>197.0</ele><time>2026-04-11T16:22:10.495Z</time></trkpt><trkpt lat="43.3015254" lon="11.371663"><ele>197.0</ele><time>2026-04-11T16:22:11.496Z</time></trkpt><trkpt lat="43.3014991" lon="11.3718185"><ele>197.0</ele><time>2026-04-11T16:22:12.495Z</time></trkpt><trkpt lat="43.3014803" lon="11.3719835"><ele>197.0</ele><time>2026-04-11T16:22:13.496Z</time></trkpt><trkpt lat="43.3014359" lon="11.3721789"><ele>197.0</ele><time>2026-04-11T16:22:14.495Z</time></trkpt><trkpt lat="43.3014051" lon="11.3724"><ele>196.66666666666669</ele><time>2026-04-11T16:22:15.495Z</time></trkpt><trkpt lat="43.3013836" lon="11.3726249"><ele>196.33333333333331</ele><time>2026-04-11T16:22:16.495Z</time></trkpt><trkpt lat="43.3013654" lon="11.3728595"><ele>196.0</ele><time>2026-04-11T16:22:17.496Z</time></trkpt><trkpt lat="43.3013548" lon="11.373111"><ele>196.0</ele><time>2026-04-11T16:22:18.495Z</time></trkpt><trkpt lat="43.3013483" lon="11.3733693"><ele>196.0</ele><time>2026-04-11T16:22:19.495Z</time></trkpt><trkpt lat="43.3013475" lon="11.3736323"><ele>196.0</ele><time>2026-04-11T16:22:20.496Z</time></trkpt><trkpt lat="43.3013378" lon="11.3738818"><ele>195.33333333333331</ele><time>2026-04-11T16:22:21.496Z</time></trkpt><trkpt lat="43.3013229" lon="11.3741297"><ele>194.66666666666669</ele><time>2026-04-11T16:22:22.495Z</time></trkpt><trkpt lat="43.3013055" lon="11.374374"><ele>194.0</ele><time>2026-04-11T16:22:23.495Z</time></trkpt><trkpt lat="43.3012867" lon="11.3746076"><ele>194.0</ele><time>2026-04-11T16:22:24.495Z</time></trkpt><trkpt lat="43.3012749" lon="11.374836"><ele>194.0</ele><time>2026-04-11T16:22:25.495Z</time></trkpt><trkpt lat="43.3012663" lon="11.3750446"><ele>194.0</ele><time>2026-04-11T16:22:26.496Z</time></trkpt><trkpt lat="43.3012562" lon="11.3752332"><ele>194.0</ele><time>2026-04-11T16:22:27.495Z</time></trkpt><trkpt lat="43.3012401" lon="11.3754158"><ele>194.0</ele><time>2026-04-11T16:22:28.496Z</time></trkpt><trkpt lat="43.3012129" lon="11.375589"><ele>194.0</ele><time>2026-04-11T16:22:29.496Z</time></trkpt><trkpt lat="43.3011666" lon="11.3757421"><ele>194.0</ele><time>2026-04-11T16:22:30.496Z</time></trkpt><trkpt lat="43.3010935" lon="11.3758558"><ele>194.39999999999998</ele><time>2026-04-11T16:22:31.496Z</time></trkpt><trkpt lat="43.3010063" lon="11.3759196"><ele>194.8</ele><time>2026-04-11T16:22:32.495Z</time></trkpt><trkpt lat="43.3009044" lon="11.3759573"><ele>195.2</ele><time>2026-04-11T16:22:33.495Z</time></trkpt><trkpt lat="43.3007967" lon="11.3759627"><ele>195.60000000000002</ele><time>2026-04-11T16:22:34.495Z</time></trkpt><trkpt lat="43.300682" lon="11.3759409"><ele>196.0</ele><time>2026-04-11T16:22:35.495Z</time></trkpt><trkpt lat="43.3005584" lon="11.3759025"><ele>196.0</ele><time>2026-04-11T16:22:36.495Z</time></trkpt><trkpt lat="43.3004397" lon="11.3758202"><ele>196.0</ele><time>2026-04-11T16:22:37.495Z</time></trkpt><trkpt lat="43.300328" lon="11.3757061"><ele>196.0</ele><time>2026-04-11T16:22:38.496Z</time></trkpt><trkpt lat="43.3002173" lon="11.3755741"><ele>196.0</ele><time>2026-04-11T16:22:39.495Z</time></trkpt><trkpt lat="43.300101" lon="11.3754286"><ele>196.0</ele><time>2026-04-11T16:22:40.495Z</time></trkpt><trkpt lat="43.2999749" lon="11.3752616"><ele>196.0</ele><time>2026-04-11T16:22:41.495Z</time></trkpt><trkpt lat="43.299842" lon="11.3750756"><ele>196.0</ele><time>2026-04-11T16:22:42.496Z</time></trkpt><trkpt lat="43.2997056" lon="11.3748576"><ele>196.66666666666666</ele><time>2026-04-11T16:22:43.495Z</time></trkpt><trkpt lat="43.2995807" lon="11.3746261"><ele>197.33333333333331</ele><time>2026-04-11T16:22:44.496Z</time></trkpt><trkpt lat="43.2994616" lon="11.3743725"><ele>198.0</ele><time>2026-04-11T16:22:45.496Z</time></trkpt><trkpt lat="43.2993433" lon="11.3741022"><ele>201.0</ele><time>2026-04-11T16:22:46.495Z</time></trkpt><trkpt lat="43.2992277" lon="11.3738182"><ele>204.0</ele><time>2026-04-11T16:22:47.496Z</time></trkpt><trkpt lat="43.2991241" lon="11.3735286"><ele>204.0</ele><time>2026-04-11T16:22:48.495Z</time></trkpt><trkpt lat="43.2990361" lon="11.3732376"><ele>204.0</ele><time>2026-04-11T16:22:49.495Z</time></trkpt><trkpt lat="43.2989637" lon="11.3729424"><ele>206.5</ele><time>2026-04-11T16:22:50.496Z</time></trkpt><trkpt lat="43.2989028" lon="11.3726417"><ele>209.0</ele><time>2026-04-11T16:22:51.496Z</time></trkpt><trkpt lat="43.2988547" lon="11.3723334"><ele>209.66666666666669</ele><time>2026-04-11T16:22:52.496Z</time></trkpt><trkpt lat="43.2988226" lon="11.3720366"><ele>210.33333333333331</ele><time>2026-04-11T16:22:53.495Z</time></trkpt><trkpt lat="43.2988011" lon="11.3717422"><ele>211.0</ele><time>2026-04-11T16:22:54.495Z</time></trkpt><trkpt lat="43.2987865" lon="11.3714564"><ele>211.66666666666666</ele><time>2026-04-11T16:22:55.496Z</time></trkpt><trkpt lat="43.2987827" lon="11.371173"><ele>212.33333333333331</ele><time>2026-04-11T16:22:56.496Z</time></trkpt><trkpt lat="43.2987837" lon="11.3709041"><ele>213.0</ele><time>2026-04-11T16:22:57.495Z</time></trkpt><trkpt lat="43.2987906" lon="11.3706562"><ele>216.0</ele><time>2026-04-11T16:22:58.497Z</time></trkpt><trkpt lat="43.2987947" lon="11.3704115"><ele>219.0</ele><time>2026-04-11T16:22:59.496Z</time></trkpt><trkpt lat="43.2987979" lon="11.3701699"><ele>222.0</ele><time>2026-04-11T16:23:00.496Z</time></trkpt><trkpt lat="43.2987988" lon="11.3699413"><ele>222.0</ele><time>2026-04-11T16:23:01.497Z</time></trkpt><trkpt lat="43.2988015" lon="11.369727"><ele>222.0</ele><time>2026-04-11T16:23:02.496Z</time></trkpt><trkpt lat="43.2988083" lon="11.3695237"><ele>222.0</ele><time>2026-04-11T16:23:03.496Z</time></trkpt><trkpt lat="43.2988121" lon="11.3693161"><ele>224.66666666666669</ele><time>2026-04-11T16:23:04.497Z</time></trkpt><trkpt lat="43.2988213" lon="11.3691095"><ele>227.33333333333334</ele><time>2026-04-11T16:23:05.496Z</time></trkpt><trkpt lat="43.2988262" lon="11.368887"><ele>230.0</ele><time>2026-04-11T16:23:06.497Z</time></trkpt><trkpt lat="43.2988279" lon="11.3686569"><ele>230.33333333333334</ele><time>2026-04-11T16:23:07.497Z</time></trkpt><trkpt lat="43.2988264" lon="11.3684169"><ele>230.66666666666669</ele><time>2026-04-11T16:23:08.497Z</time></trkpt><trkpt lat="43.2988342" lon="11.3681705"><ele>231.0</ele><time>2026-04-11T16:23:09.497Z</time></trkpt><trkpt lat="43.2988461" lon="11.367918"><ele>231.0</ele><time>2026-04-11T16:23:10.496Z</time></trkpt><trkpt lat="43.298867" lon="11.3674086"><ele>231.0</ele><time>2026-04-11T16:23:12.497Z</time></trkpt><trkpt lat="43.2988843" lon="11.3671645"><ele>210.0</ele><time>2026-04-11T16:23:13.496Z</time></trkpt><trkpt lat="43.2988859" lon="11.3648546"><ele>209.33333333333331</ele><time>2026-04-11T16:23:23.496Z</time></trkpt><trkpt lat="43.2989029" lon="11.3646354"><ele>208.66666666666666</ele><time>2026-04-11T16:23:24.497Z</time></trkpt><trkpt lat="43.2989231" lon="11.3644142"><ele>208.0</ele><time>2026-04-11T16:23:25.496Z</time></trkpt><trkpt lat="43.2989425" lon="11.3641853"><ele>207.66666666666666</ele><time>2026-04-11T16:23:26.497Z</time></trkpt><trkpt lat="43.2989724" lon="11.3639541"><ele>207.33333333333331</ele><time>2026-04-11T16:23:27.496Z</time></trkpt><trkpt lat="43.2990087" lon="11.3637385"><ele>207.0</ele><time>2026-04-11T16:23:28.497Z</time></trkpt><trkpt lat="43.2990476" lon="11.3635177"><ele>207.0</ele><time>2026-04-11T16:23:29.496Z</time></trkpt><trkpt lat="43.2990891" lon="11.3633032"><ele>207.0</ele><time>2026-04-11T16:23:30.497Z</time></trkpt><trkpt lat="43.2991328" lon="11.3630923"><ele>207.0</ele><time>2026-04-11T16:23:31.496Z</time></trkpt><trkpt lat="43.299179" lon="11.3628784"><ele>205.0</ele><time>2026-04-11T16:23:32.496Z</time></trkpt><trkpt lat="43.2992255" lon="11.3626627"><ele>203.0</ele><time>2026-04-11T16:23:33.497Z</time></trkpt><trkpt lat="43.2992748" lon="11.3624543"><ele>201.0</ele><time>2026-04-11T16:23:34.497Z</time></trkpt><trkpt lat="43.2993251" lon="11.3622532"><ele>200.66666666666669</ele><time>2026-04-11T16:23:35.497Z</time></trkpt><trkpt lat="43.2993796" lon="11.3620544"><ele>200.33333333333334</ele><time>2026-04-11T16:23:36.496Z</time></trkpt><trkpt lat="43.2994372" lon="11.3618603"><ele>200.0</ele><time>2026-04-11T16:23:37.497Z</time></trkpt><trkpt lat="43.2994922" lon="11.3616695"><ele>200.0</ele><time>2026-04-11T16:23:38.497Z</time></trkpt><trkpt lat="43.2995444" lon="11.3614842"><ele>200.0</ele><time>2026-04-11T16:23:39.496Z</time></trkpt><trkpt lat="43.2995875" lon="11.3613317"><ele>200.0</ele><time>2026-04-11T16:23:40.497Z</time></trkpt><trkpt lat="43.299625" lon="11.3612048"><ele>200.0</ele><time>2026-04-11T16:23:41.496Z</time></trkpt><trkpt lat="43.2996657" lon="11.3610817"><ele>199.8</ele><time>2026-04-11T16:23:42.496Z</time></trkpt><trkpt lat="43.2997091" lon="11.3609554"><ele>199.6</ele><time>2026-04-11T16:23:43.497Z</time></trkpt><trkpt lat="43.2997516" lon="11.3608267"><ele>199.39999999999998</ele><time>2026-04-11T16:23:44.497Z</time></trkpt><trkpt lat="43.2997901" lon="11.3606966"><ele>199.2</ele><time>2026-04-11T16:23:45.497Z</time></trkpt><trkpt lat="43.2998298" lon="11.3605662"><ele>199.0</ele><time>2026-04-11T16:23:46.497Z</time></trkpt><trkpt lat="43.2998691" lon="11.3604349"><ele>199.75</ele><time>2026-04-11T16:23:47.496Z</time></trkpt><trkpt lat="43.2999127" lon="11.3602986"><ele>200.5</ele><time>2026-04-11T16:23:48.497Z</time></trkpt><trkpt lat="43.2999594" lon="11.3601537"><ele>201.25</ele><time>2026-04-11T16:23:49.496Z</time></trkpt><trkpt lat="43.3000059" lon="11.359995"><ele>202.0</ele><time>2026-04-11T16:23:50.496Z</time></trkpt><trkpt lat="43.3000549" lon="11.3598269"><ele>201.25</ele><time>2026-04-11T16:23:51.497Z</time></trkpt><trkpt lat="43.3001097" lon="11.3596501"><ele>200.5</ele><time>2026-04-11T16:23:52.497Z</time></trkpt><trkpt lat="43.300162" lon="11.359462"><ele>199.75</ele><time>2026-04-11T16:23:53.497Z</time></trkpt><trkpt lat="43.3002189" lon="11.3592677"><ele>199.0</ele><time>2026-04-11T16:23:54.497Z</time></trkpt><trkpt lat="43.3002806" lon="11.3590681"><ele>198.0</ele><time>2026-04-11T16:23:55.496Z</time></trkpt><trkpt lat="43.3003418" lon="11.3588631"><ele>197.0</ele><time>2026-04-11T16:23:56.496Z</time></trkpt><trkpt lat="43.3004032" lon="11.3586578"><ele>196.0</ele><time>2026-04-11T16:23:57.497Z</time></trkpt><trkpt lat="43.3004599" lon="11.3584543"><ele>196.0</ele><time>2026-04-11T16:23:58.497Z</time></trkpt><trkpt lat="43.3005104" lon="11.3582553"><ele>196.0</ele><time>2026-04-11T16:23:59.497Z</time></trkpt><trkpt lat="43.300555" lon="11.3580644"><ele>196.0</ele><time>2026-04-11T16:24:00.497Z</time></trkpt><trkpt lat="43.3005938" lon="11.3578886"><ele>196.0</ele><time>2026-04-11T16:24:01.498Z</time></trkpt><trkpt lat="43.3006246" lon="11.3577226"><ele>197.0</ele><time>2026-04-11T16:24:02.496Z</time></trkpt><trkpt lat="43.3006486" lon="11.3575647"><ele>198.0</ele><time>2026-04-11T16:24:03.497Z</time></trkpt><trkpt lat="43.3006704" lon="11.3574062"><ele>199.0</ele><time>2026-04-11T16:24:04.498Z</time></trkpt><trkpt lat="43.3006907" lon="11.3572322"><ele>200.0</ele><time>2026-04-11T16:24:05.498Z</time></trkpt><trkpt lat="43.3007087" lon="11.3570299"><ele>201.33333333333334</ele><time>2026-04-11T16:24:06.497Z</time></trkpt><trkpt lat="43.3007294" lon="11.3568184"><ele>202.66666666666669</ele><time>2026-04-11T16:24:07.497Z</time></trkpt><trkpt lat="43.3007502" lon="11.3566045"><ele>204.0</ele><time>2026-04-11T16:24:08.497Z</time></trkpt><trkpt lat="43.3007622" lon="11.3564165"><ele>204.75</ele><time>2026-04-11T16:24:09.498Z</time></trkpt><trkpt lat="43.3007733" lon="11.3562486"><ele>205.5</ele><time>2026-04-11T16:24:10.497Z</time></trkpt><trkpt lat="43.3007802" lon="11.3560987"><ele>206.25</ele><time>2026-04-11T16:24:11.497Z</time></trkpt><trkpt lat="43.3007814" lon="11.3559425"><ele>207.0</ele><time>2026-04-11T16:24:12.497Z</time></trkpt><trkpt lat="43.3007813" lon="11.3557793"><ele>207.0</ele><time>2026-04-11T16:24:13.498Z</time></trkpt><trkpt lat="43.3007769" lon="11.3556004"><ele>207.0</ele><time>2026-04-11T16:24:14.497Z</time></trkpt><trkpt lat="43.3007681" lon="11.355414"><ele>207.0</ele><time>2026-04-11T16:24:15.498Z</time></trkpt><trkpt lat="43.3007542" lon="11.3552246"><ele>207.0</ele><time>2026-04-11T16:24:16.498Z</time></trkpt><trkpt lat="43.3007379" lon="11.355036"><ele>207.25</ele><time>2026-04-11T16:24:17.498Z</time></trkpt><trkpt lat="43.3007205" lon="11.3548667"><ele>207.5</ele><time>2026-04-11T16:24:18.497Z</time></trkpt><trkpt lat="43.3007022" lon="11.3547197"><ele>207.75</ele><time>2026-04-11T16:24:19.498Z</time></trkpt><trkpt lat="43.3006818" lon="11.3545774"><ele>208.0</ele><time>2026-04-11T16:24:20.497Z</time></trkpt><trkpt lat="43.3006618" lon="11.3544272"><ele>207.5</ele><time>2026-04-11T16:24:21.498Z</time></trkpt><trkpt lat="43.3006397" lon="11.3542681"><ele>207.0</ele><time>2026-04-11T16:24:22.498Z</time></trkpt><trkpt lat="43.300616" lon="11.3541011"><ele>206.5</ele><time>2026-04-11T16:24:23.498Z</time></trkpt><trkpt lat="43.3005869" lon="11.3539302"><ele>206.0</ele><time>2026-04-11T16:24:24.497Z</time></trkpt><trkpt lat="43.3005566" lon="11.3537601"><ele>203.75</ele><time>2026-04-11T16:24:25.497Z</time></trkpt><trkpt lat="43.3005283" lon="11.3535948"><ele>201.5</ele><time>2026-04-11T16:24:26.498Z</time></trkpt><trkpt lat="43.3004986" lon="11.3534248"><ele>199.25</ele><time>2026-04-11T16:24:27.497Z</time></trkpt><trkpt lat="43.3004681" lon="11.3532499"><ele>197.0</ele><time>2026-04-11T16:24:28.498Z</time></trkpt><trkpt lat="43.3004383" lon="11.3530683"><ele>197.25</ele><time>2026-04-11T16:24:29.498Z</time></trkpt><trkpt lat="43.300409" lon="11.3528815"><ele>197.5</ele><time>2026-04-11T16:24:30.497Z</time></trkpt><trkpt lat="43.3003797" lon="11.3526964"><ele>197.75</ele><time>2026-04-11T16:24:31.498Z</time></trkpt><trkpt lat="43.3003514" lon="11.3525172"><ele>198.0</ele><time>2026-04-11T16:24:32.497Z</time></trkpt><trkpt lat="43.3003243" lon="11.3523425"><ele>198.5</ele><time>2026-04-11T16:24:33.498Z</time></trkpt><trkpt lat="43.3002968" lon="11.3521709"><ele>199.0</ele><time>2026-04-11T16:24:34.498Z</time></trkpt><trkpt lat="43.3002675" lon="11.3519902"><ele>199.5</ele><time>2026-04-11T16:24:35.497Z</time></trkpt><trkpt lat="43.300237" lon="11.3518024"><ele>200.0</ele><time>2026-04-11T16:24:36.497Z</time></trkpt><trkpt lat="43.3002072" lon="11.3516094"><ele>200.0</ele><time>2026-04-11T16:24:37.498Z</time></trkpt><trkpt lat="43.3001809" lon="11.3514189"><ele>200.0</ele><time>2026-04-11T16:24:38.497Z</time></trkpt><trkpt lat="43.3001545" lon="11.3512331"><ele>200.0</ele><time>2026-04-11T16:24:39.498Z</time></trkpt><trkpt lat="43.3001272" lon="11.351048"><ele>200.0</ele><time>2026-04-11T16:24:40.497Z</time></trkpt><trkpt lat="43.3000969" lon="11.350857"><ele>200.66666666666669</ele><time>2026-04-11T16:24:41.498Z</time></trkpt><trkpt lat="43.3000653" lon="11.3506522"><ele>201.33333333333331</ele><time>2026-04-11T16:24:42.497Z</time></trkpt><trkpt lat="43.300033" lon="11.3504366"><ele>202.0</ele><time>2026-04-11T16:24:43.498Z</time></trkpt><trkpt lat="43.2999984" lon="11.3502084"><ele>204.0</ele><time>2026-04-11T16:24:44.497Z</time></trkpt><trkpt lat="43.2999588" lon="11.3499658"><ele>206.0</ele><time>2026-04-11T16:24:45.497Z</time></trkpt><trkpt lat="43.2999152" lon="11.349702"><ele>208.0</ele><time>2026-04-11T16:24:46.498Z</time></trkpt><trkpt lat="43.299869" lon="11.3494234"><ele>209.0</ele><time>2026-04-11T16:24:47.498Z</time></trkpt><trkpt lat="43.2998234" lon="11.3491332"><ele>210.0</ele><time>2026-04-11T16:24:48.497Z</time></trkpt><trkpt lat="43.2997803" lon="11.3488504"><ele>211.0</ele><time>2026-04-11T16:24:49.497Z</time></trkpt><trkpt lat="43.2997385" lon="11.3485754"><ele>209.0</ele><time>2026-04-11T16:24:50.498Z</time></trkpt><trkpt lat="43.2996984" lon="11.3483126"><ele>207.0</ele><time>2026-04-11T16:24:51.497Z</time></trkpt><trkpt lat="43.2996605" lon="11.3480686"><ele>205.0</ele><time>2026-04-11T16:24:52.498Z</time></trkpt><trkpt lat="43.2996227" lon="11.3478355"><ele>205.0</ele><time>2026-04-11T16:24:53.498Z</time></trkpt><trkpt lat="43.2995855" lon="11.3476126"><ele>205.0</ele><time>2026-04-11T16:24:54.498Z</time></trkpt><trkpt lat="43.2995538" lon="11.3474006"><ele>205.0</ele><time>2026-04-11T16:24:55.497Z</time></trkpt><trkpt lat="43.2995206" lon="11.3471955"><ele>205.0</ele><time>2026-04-11T16:24:56.498Z</time></trkpt><trkpt lat="43.2994865" lon="11.3469894"><ele>205.0</ele><time>2026-04-11T16:24:57.497Z</time></trkpt><trkpt lat="43.2994504" lon="11.3467798"><ele>205.0</ele><time>2026-04-11T16:24:58.498Z</time></trkpt><trkpt lat="43.2994101" lon="11.3465565"><ele>206.66666666666666</ele><time>2026-04-11T16:24:59.497Z</time></trkpt><trkpt lat="43.2993624" lon="11.3463085"><ele>208.33333333333331</ele><time>2026-04-11T16:25:00.497Z</time></trkpt><trkpt lat="43.2993234" lon="11.3460206"><ele>210.0</ele><time>2026-04-11T16:25:01.497Z</time></trkpt><trkpt lat="43.2992735" lon="11.345723"><ele>210.5</ele><time>2026-04-11T16:25:02.498Z</time></trkpt><trkpt lat="43.299224" lon="11.3454159"><ele>211.0</ele><time>2026-04-11T16:25:03.498Z</time></trkpt><trkpt lat="43.2991819" lon="11.345114"><ele>211.0</ele><time>2026-04-11T16:25:04.498Z</time></trkpt><trkpt lat="43.2991455" lon="11.3448244"><ele>211.0</ele><time>2026-04-11T16:25:05.498Z</time></trkpt><trkpt lat="43.299109" lon="11.3445395"><ele>211.0</ele><time>2026-04-11T16:25:06.498Z</time></trkpt><trkpt lat="43.2990671" lon="11.3442607"><ele>211.0</ele><time>2026-04-11T16:25:07.498Z</time></trkpt><trkpt lat="43.2990194" lon="11.3439805"><ele>211.0</ele><time>2026-04-11T16:25:08.498Z</time></trkpt><trkpt lat="43.2989692" lon="11.3437018"><ele>211.0</ele><time>2026-04-11T16:25:09.498Z</time></trkpt><trkpt lat="43.2989168" lon="11.3434316"><ele>212.0</ele><time>2026-04-11T16:25:10.499Z</time></trkpt><trkpt lat="43.2988621" lon="11.3431775"><ele>213.0</ele><time>2026-04-11T16:25:11.499Z</time></trkpt><trkpt lat="43.2988095" lon="11.3429272"><ele>214.0</ele><time>2026-04-11T16:25:12.499Z</time></trkpt><trkpt lat="43.2987553" lon="11.3426916"><ele>215.0</ele><time>2026-04-11T16:25:13.498Z</time></trkpt><trkpt lat="43.2986978" lon="11.3424705"><ele>216.0</ele><time>2026-04-11T16:25:14.499Z</time></trkpt><trkpt lat="43.2986388" lon="11.3422561"><ele>217.0</ele><time>2026-04-11T16:25:15.498Z</time></trkpt><trkpt lat="43.298574" lon="11.3420502"><ele>219.33333333333331</ele><time>2026-04-11T16:25:16.498Z</time></trkpt><trkpt lat="43.2985088" lon="11.3418368"><ele>221.66666666666669</ele><time>2026-04-11T16:25:17.498Z</time></trkpt><trkpt lat="43.29844" lon="11.3416287"><ele>224.0</ele><time>2026-04-11T16:25:18.498Z</time></trkpt><trkpt lat="43.2983654" lon="11.3414179"><ele>224.66666666666669</ele><time>2026-04-11T16:25:19.498Z</time></trkpt><trkpt lat="43.2982887" lon="11.3412034"><ele>225.33333333333331</ele><time>2026-04-11T16:25:20.498Z</time></trkpt><trkpt lat="43.2982136" lon="11.3409835"><ele>226.0</ele><time>2026-04-11T16:25:21.498Z</time></trkpt><trkpt lat="43.2981335" lon="11.3407576"><ele>227.66666666666666</ele><time>2026-04-11T16:25:22.499Z</time></trkpt><trkpt lat="43.2980522" lon="11.3405247"><ele>229.33333333333331</ele><time>2026-04-11T16:25:23.499Z</time></trkpt><trkpt lat="43.297968" lon="11.3402839"><ele>231.0</ele><time>2026-04-11T16:25:24.499Z</time></trkpt><trkpt lat="43.2978783" lon="11.3400268"><ele>231.0</ele><time>2026-04-11T16:25:25.499Z</time></trkpt><trkpt lat="43.2977901" lon="11.3397696"><ele>231.0</ele><time>2026-04-11T16:25:26.498Z</time></trkpt><trkpt lat="43.297692" lon="11.3395107"><ele>231.0</ele><time>2026-04-11T16:25:27.499Z</time></trkpt><trkpt lat="43.2975927" lon="11.3392492"><ele>233.0</ele><time>2026-04-11T16:25:28.499Z</time></trkpt><trkpt lat="43.2974971" lon="11.3389888"><ele>235.0</ele><time>2026-04-11T16:25:29.498Z</time></trkpt><trkpt lat="43.2973934" lon="11.3387312"><ele>237.0</ele><time>2026-04-11T16:25:30.499Z</time></trkpt><trkpt lat="43.2972917" lon="11.3384812"><ele>226.0</ele><time>2026-04-11T16:25:31.499Z</time></trkpt><trkpt lat="43.297006" lon="11.3378344"><ele>226.0</ele><time>2026-04-11T16:25:34.498Z</time></trkpt><trkpt lat="43.296891" lon="11.3376894"><ele>226.0</ele><time>2026-04-11T16:25:35.498Z</time></trkpt><trkpt lat="43.2968026" lon="11.3375591"><ele>226.0</ele><time>2026-04-11T16:25:36.498Z</time></trkpt><trkpt lat="43.2967037" lon="11.33741"><ele>226.0</ele><time>2026-04-11T16:25:37.499Z</time></trkpt><trkpt lat="43.2966136" lon="11.337261"><ele>225.75</ele><time>2026-04-11T16:25:38.498Z</time></trkpt><trkpt lat="43.296534" lon="11.3371037"><ele>225.5</ele><time>2026-04-11T16:25:39.498Z</time></trkpt><trkpt lat="43.2964576" lon="11.3369389"><ele>225.25</ele><time>2026-04-11T16:25:40.499Z</time></trkpt><trkpt lat="43.2963859" lon="11.3367799"><ele>225.0</ele><time>2026-04-11T16:25:41.498Z</time></trkpt><trkpt lat="43.296319" lon="11.3366072"><ele>223.0</ele><time>2026-04-11T16:25:42.499Z</time></trkpt><trkpt lat="43.296264" lon="11.3364237"><ele>221.0</ele><time>2026-04-11T16:25:43.499Z</time></trkpt><trkpt lat="43.2962168" lon="11.3362262"><ele>219.0</ele><time>2026-04-11T16:25:44.499Z</time></trkpt><trkpt lat="43.2961771" lon="11.3360242"><ele>217.0</ele><time>2026-04-11T16:25:45.499Z</time></trkpt><trkpt lat="43.2961433" lon="11.335821"><ele>216.0</ele><time>2026-04-11T16:25:46.499Z</time></trkpt><trkpt lat="43.2961117" lon="11.3356179"><ele>215.0</ele><time>2026-04-11T16:25:47.499Z</time></trkpt><trkpt lat="43.296084" lon="11.3354025"><ele>214.0</ele><time>2026-04-11T16:25:48.499Z</time></trkpt><trkpt lat="43.2960626" lon="11.3351727"><ele>213.66666666666666</ele><time>2026-04-11T16:25:49.498Z</time></trkpt><trkpt lat="43.2960465" lon="11.3349306"><ele>213.33333333333331</ele><time>2026-04-11T16:25:50.499Z</time></trkpt><trkpt lat="43.2960473" lon="11.3346761"><ele>213.0</ele><time>2026-04-11T16:25:51.499Z</time></trkpt><trkpt lat="43.2960563" lon="11.3344169"><ele>213.0</ele><time>2026-04-11T16:25:52.499Z</time></trkpt><trkpt lat="43.2960782" lon="11.3341604"><ele>213.0</ele><time>2026-04-11T16:25:53.499Z</time></trkpt><trkpt lat="43.296112" lon="11.3339134"><ele>213.0</ele><time>2026-04-11T16:25:54.499Z</time></trkpt><trkpt lat="43.2961522" lon="11.3336697"><ele>212.66666666666669</ele><time>2026-04-11T16:25:55.499Z</time></trkpt><trkpt lat="43.2962022" lon="11.3334261"><ele>212.33333333333334</ele><time>2026-04-11T16:25:56.498Z</time></trkpt><trkpt lat="43.2962672" lon="11.3331825"><ele>212.0</ele><time>2026-04-11T16:25:57.499Z</time></trkpt><trkpt lat="43.2963416" lon="11.3329429"><ele>213.33333333333334</ele><time>2026-04-11T16:25:58.499Z</time></trkpt><trkpt lat="43.2964275" lon="11.3326968"><ele>214.66666666666669</ele><time>2026-04-11T16:25:59.498Z</time></trkpt><trkpt lat="43.2965216" lon="11.3324564"><ele>216.0</ele><time>2026-04-11T16:26:00.498Z</time></trkpt><trkpt lat="43.2966274" lon="11.3322118"><ele>216.0</ele><time>2026-04-11T16:26:01.499Z</time></trkpt><trkpt lat="43.2967394" lon="11.331965"><ele>216.0</ele><time>2026-04-11T16:26:02.498Z</time></trkpt><trkpt lat="43.2968546" lon="11.3317167"><ele>216.0</ele><time>2026-04-11T16:26:03.498Z</time></trkpt><trkpt lat="43.2969757" lon="11.3314809"><ele>216.33333333333331</ele><time>2026-04-11T16:26:04.498Z</time></trkpt><trkpt lat="43.2970984" lon="11.3312496"><ele>216.66666666666666</ele><time>2026-04-11T16:26:05.498Z</time></trkpt><trkpt lat="43.2972286" lon="11.3310233"><ele>217.0</ele><time>2026-04-11T16:26:06.498Z</time></trkpt><trkpt lat="43.2973605" lon="11.3308015"><ele>217.0</ele><time>2026-04-11T16:26:07.498Z</time></trkpt><trkpt lat="43.2974984" lon="11.3305823"><ele>217.0</ele><time>2026-04-11T16:26:08.5Z</time></trkpt><trkpt lat="43.2976248" lon="11.3303408"><ele>217.0</ele><time>2026-04-11T16:26:09.5Z</time></trkpt><trkpt lat="43.2977536" lon="11.3301121"><ele>216.33333333333331</ele><time>2026-04-11T16:26:10.5Z</time></trkpt><trkpt lat="43.2978841" lon="11.3298898"><ele>215.66666666666669</ele><time>2026-04-11T16:26:11.5Z</time></trkpt><trkpt lat="43.2980093" lon="11.3296645"><ele>215.0</ele><time>2026-04-11T16:26:12.5Z</time></trkpt><trkpt lat="43.2981308" lon="11.3294462"><ele>216.0</ele><time>2026-04-11T16:26:13.499Z</time></trkpt><trkpt lat="43.2982502" lon="11.3292283"><ele>217.0</ele><time>2026-04-11T16:26:14.499Z</time></trkpt><trkpt lat="43.2983685" lon="11.3290115"><ele>218.0</ele><time>2026-04-11T16:26:15.5Z</time></trkpt><trkpt lat="43.2984873" lon="11.3287919"><ele>218.0</ele><time>2026-04-11T16:26:16.5Z</time></trkpt><trkpt lat="43.2986087" lon="11.328568"><ele>218.0</ele><time>2026-04-11T16:26:17.5Z</time></trkpt><trkpt lat="43.2987313" lon="11.3283529"><ele>218.0</ele><time>2026-04-11T16:26:18.5Z</time></trkpt><trkpt lat="43.298851" lon="11.3281381"><ele>217.33333333333334</ele><time>2026-04-11T16:26:19.499Z</time></trkpt><trkpt lat="43.2989678" lon="11.3279267"><ele>216.66666666666669</ele><time>2026-04-11T16:26:20.499Z</time></trkpt><trkpt lat="43.2990859" lon="11.3277138"><ele>216.0</ele><time>2026-04-11T16:26:21.499Z</time></trkpt><trkpt lat="43.2992034" lon="11.327496"><ele>216.0</ele><time>2026-04-11T16:26:22.5Z</time></trkpt><trkpt lat="43.2993218" lon="11.327282"><ele>216.0</ele><time>2026-04-11T16:26:23.499Z</time></trkpt><trkpt lat="43.2994397" lon="11.3270653"><ele>216.0</ele><time>2026-04-11T16:26:24.5Z</time></trkpt><trkpt lat="43.2995568" lon="11.3268475"><ele>217.0</ele><time>2026-04-11T16:26:25.5Z</time></trkpt><trkpt lat="43.2996755" lon="11.3266278"><ele>218.0</ele><time>2026-04-11T16:26:26.499Z</time></trkpt><trkpt lat="43.2997996" lon="11.326407"><ele>219.0</ele><time>2026-04-11T16:26:27.499Z</time></trkpt><trkpt lat="43.2999243" lon="11.3261817"><ele>219.66666666666669</ele><time>2026-04-11T16:26:28.499Z</time></trkpt><trkpt lat="43.3000509" lon="11.3259554"><ele>220.33333333333334</ele><time>2026-04-11T16:26:29.499Z</time></trkpt><trkpt lat="43.3001793" lon="11.3257241"><ele>221.0</ele><time>2026-04-11T16:26:30.5Z</time></trkpt><trkpt lat="43.300309" lon="11.3254919"><ele>221.33333333333334</ele><time>2026-04-11T16:26:31.499Z</time></trkpt><trkpt lat="43.3004378" lon="11.325258"><ele>221.66666666666669</ele><time>2026-04-11T16:26:32.499Z</time></trkpt><trkpt lat="43.3005706" lon="11.3250258"><ele>222.0</ele><time>2026-04-11T16:26:33.5Z</time></trkpt><trkpt lat="43.3007073" lon="11.3247918"><ele>222.66666666666669</ele><time>2026-04-11T16:26:34.5Z</time></trkpt><trkpt lat="43.3008428" lon="11.324556"><ele>223.33333333333334</ele><time>2026-04-11T16:26:35.499Z</time></trkpt><trkpt lat="43.3009777" lon="11.3243233"><ele>224.0</ele><time>2026-04-11T16:26:36.5Z</time></trkpt><trkpt lat="43.3011118" lon="11.3240917"><ele>223.33333333333334</ele><time>2026-04-11T16:26:37.5Z</time></trkpt><trkpt lat="43.3012463" lon="11.323864"><ele>222.66666666666669</ele><time>2026-04-11T16:26:38.5Z</time></trkpt><trkpt lat="43.3013863" lon="11.3236411"><ele>222.0</ele><time>2026-04-11T16:26:39.499Z</time></trkpt><trkpt lat="43.3015296" lon="11.3234191"><ele>222.0</ele><time>2026-04-11T16:26:40.5Z</time></trkpt><trkpt lat="43.3016742" lon="11.3231974"><ele>222.0</ele><time>2026-04-11T16:26:41.499Z</time></trkpt><trkpt lat="43.3018186" lon="11.3229772"><ele>222.0</ele><time>2026-04-11T16:26:42.5Z</time></trkpt><trkpt lat="43.3019631" lon="11.3227558"><ele>223.66666666666669</ele><time>2026-04-11T16:26:43.5Z</time></trkpt><trkpt lat="43.3021054" lon="11.3225297"><ele>225.33333333333334</ele><time>2026-04-11T16:26:44.5Z</time></trkpt><trkpt lat="43.3022466" lon="11.3223092"><ele>227.0</ele><time>2026-04-11T16:26:45.5Z</time></trkpt><trkpt lat="43.3023862" lon="11.3220968"><ele>227.33333333333334</ele><time>2026-04-11T16:26:46.5Z</time></trkpt><trkpt lat="43.3025294" lon="11.3218858"><ele>227.66666666666669</ele><time>2026-04-11T16:26:47.5Z</time></trkpt><trkpt lat="43.3026713" lon="11.3216843"><ele>228.0</ele><time>2026-04-11T16:26:48.499Z</time></trkpt><trkpt lat="43.3028104" lon="11.3214784"><ele>227.33333333333331</ele><time>2026-04-11T16:26:49.5Z</time></trkpt><trkpt lat="43.3029429" lon="11.3212779"><ele>226.66666666666666</ele><time>2026-04-11T16:26:50.5Z</time></trkpt><trkpt lat="43.3030731" lon="11.3210762"><ele>226.0</ele><time>2026-04-11T16:26:51.499Z</time></trkpt><trkpt lat="43.3032083" lon="11.3208766"><ele>226.0</ele><time>2026-04-11T16:26:52.499Z</time></trkpt><trkpt lat="43.303346" lon="11.3206727"><ele>226.0</ele><time>2026-04-11T16:26:53.499Z</time></trkpt><trkpt lat="43.3034883" lon="11.3204578"><ele>226.0</ele><time>2026-04-11T16:26:54.499Z</time></trkpt><trkpt lat="43.3036348" lon="11.3202377"><ele>225.66666666666666</ele><time>2026-04-11T16:26:55.499Z</time></trkpt><trkpt lat="43.3037737" lon="11.320015"><ele>225.33333333333331</ele><time>2026-04-11T16:26:56.499Z</time></trkpt><trkpt lat="43.3039179" lon="11.3197929"><ele>225.0</ele><time>2026-04-11T16:26:57.499Z</time></trkpt><trkpt lat="43.3040609" lon="11.3195688"><ele>225.66666666666669</ele><time>2026-04-11T16:26:58.5Z</time></trkpt><trkpt lat="43.3042046" lon="11.319352"><ele>226.33333333333334</ele><time>2026-04-11T16:26:59.5Z</time></trkpt><trkpt lat="43.3043428" lon="11.319143"><ele>227.0</ele><time>2026-04-11T16:27:00.499Z</time></trkpt><trkpt lat="43.3044784" lon="11.3189339"><ele>226.33333333333334</ele><time>2026-04-11T16:27:01.5Z</time></trkpt><trkpt lat="43.304616" lon="11.3187265"><ele>225.66666666666669</ele><time>2026-04-11T16:27:02.499Z</time></trkpt><trkpt lat="43.3047559" lon="11.3185229"><ele>225.0</ele><time>2026-04-11T16:27:03.5Z</time></trkpt><trkpt lat="43.304895" lon="11.3183165"><ele>225.0</ele><time>2026-04-11T16:27:04.5Z</time></trkpt><trkpt lat="43.3050332" lon="11.3181107"><ele>225.0</ele><time>2026-04-11T16:27:05.5Z</time></trkpt><trkpt lat="43.3051717" lon="11.317908"><ele>225.0</ele><time>2026-04-11T16:27:06.5Z</time></trkpt><trkpt lat="43.3053093" lon="11.3177064"><ele>225.66666666666669</ele><time>2026-04-11T16:27:07.5Z</time></trkpt><trkpt lat="43.3054443" lon="11.3174994"><ele>226.33333333333334</ele><time>2026-04-11T16:27:08.5Z</time></trkpt><trkpt lat="43.3055777" lon="11.3172912"><ele>227.0</ele><time>2026-04-11T16:27:09.5Z</time></trkpt><trkpt lat="43.3057124" lon="11.3170878"><ele>229.33333333333334</ele><time>2026-04-11T16:27:10.499Z</time></trkpt><trkpt lat="43.3058482" lon="11.3168851"><ele>231.66666666666669</ele><time>2026-04-11T16:27:11.5Z</time></trkpt><trkpt lat="43.3059872" lon="11.3166864"><ele>234.0</ele><time>2026-04-11T16:27:12.5Z</time></trkpt><trkpt lat="43.3061262" lon="11.3164883"><ele>233.66666666666669</ele><time>2026-04-11T16:27:13.5Z</time></trkpt><trkpt lat="43.3062666" lon="11.3162928"><ele>233.33333333333334</ele><time>2026-04-11T16:27:14.501Z</time></trkpt><trkpt lat="43.3064109" lon="11.3160989"><ele>233.0</ele><time>2026-04-11T16:27:15.5Z</time></trkpt><trkpt lat="43.3065585" lon="11.3159112"><ele>233.0</ele><time>2026-04-11T16:27:16.5Z</time></trkpt><trkpt lat="43.3067076" lon="11.3157322"><ele>233.0</ele><time>2026-04-11T16:27:17.5Z</time></trkpt><trkpt lat="43.3068582" lon="11.3155585"><ele>233.0</ele><time>2026-04-11T16:27:18.501Z</time></trkpt><trkpt lat="43.307009" lon="11.3153878"><ele>233.66666666666669</ele><time>2026-04-11T16:27:19.5Z</time></trkpt><trkpt lat="43.3071557" lon="11.3152151"><ele>234.33333333333331</ele><time>2026-04-11T16:27:20.5Z</time></trkpt><trkpt lat="43.3073042" lon="11.3150617"><ele>235.0</ele><time>2026-04-11T16:27:21.5Z</time></trkpt><trkpt lat="43.3074526" lon="11.3149124"><ele>234.0</ele><time>2026-04-11T16:27:22.5Z</time></trkpt><trkpt lat="43.3075983" lon="11.3147704"><ele>233.0</ele><time>2026-04-11T16:27:23.5Z</time></trkpt><trkpt lat="43.3077496" lon="11.3146318"><ele>232.0</ele><time>2026-04-11T16:27:24.501Z</time></trkpt><trkpt lat="43.3079028" lon="11.3144967"><ele>232.0</ele><time>2026-04-11T16:27:25.501Z</time></trkpt><trkpt lat="43.3080608" lon="11.3143668"><ele>232.0</ele><time>2026-04-11T16:27:26.501Z</time></trkpt><trkpt lat="43.3082222" lon="11.3142304"><ele>232.0</ele><time>2026-04-11T16:27:27.5Z</time></trkpt><trkpt lat="43.3083834" lon="11.3140964"><ele>232.66666666666666</ele><time>2026-04-11T16:27:28.5Z</time></trkpt><trkpt lat="43.3085421" lon="11.3139662"><ele>233.33333333333331</ele><time>2026-04-11T16:27:29.501Z</time></trkpt><trkpt lat="43.3087045" lon="11.3138164"><ele>234.0</ele><time>2026-04-11T16:27:30.5Z</time></trkpt><trkpt lat="43.3088811" lon="11.3136576"><ele>234.33333333333331</ele><time>2026-04-11T16:27:31.501Z</time></trkpt><trkpt lat="43.3090627" lon="11.3134943"><ele>234.66666666666666</ele><time>2026-04-11T16:27:32.501Z</time></trkpt><trkpt lat="43.3092549" lon="11.3133292"><ele>235.0</ele><time>2026-04-11T16:27:33.5Z</time></trkpt><trkpt lat="43.3094517" lon="11.3131646"><ele>235.0</ele><time>2026-04-11T16:27:34.5Z</time></trkpt><trkpt lat="43.3096478" lon="11.3129962"><ele>235.0</ele><time>2026-04-11T16:27:35.5Z</time></trkpt><trkpt lat="43.3098458" lon="11.3128233"><ele>235.0</ele><time>2026-04-11T16:27:36.5Z</time></trkpt><trkpt lat="43.3100405" lon="11.3126509"><ele>235.0</ele><time>2026-04-11T16:27:37.5Z</time></trkpt><trkpt lat="43.3102321" lon="11.3124785"><ele>235.0</ele><time>2026-04-11T16:27:38.501Z</time></trkpt><trkpt lat="43.3104203" lon="11.3123102"><ele>235.0</ele><time>2026-04-11T16:27:39.5Z</time></trkpt><trkpt lat="43.3106045" lon="11.3121424"><ele>235.0</ele><time>2026-04-11T16:27:40.501Z</time></trkpt><trkpt lat="43.3107898" lon="11.3119807"><ele>236.33333333333331</ele><time>2026-04-11T16:27:41.5Z</time></trkpt><trkpt lat="43.310973" lon="11.3118213"><ele>237.66666666666669</ele><time>2026-04-11T16:27:42.501Z</time></trkpt><trkpt lat="43.3111547" lon="11.3116621"><ele>239.0</ele><time>2026-04-11T16:27:43.5Z</time></trkpt><trkpt lat="43.3113296" lon="11.3115002"><ele>239.33333333333334</ele><time>2026-04-11T16:27:44.501Z</time></trkpt><trkpt lat="43.3115074" lon="11.311327"><ele>239.66666666666669</ele><time>2026-04-11T16:27:45.5Z</time></trkpt><trkpt lat="43.3116848" lon="11.3111572"><ele>240.0</ele><time>2026-04-11T16:27:46.5Z</time></trkpt><trkpt lat="43.3118622" lon="11.3109951"><ele>240.0</ele><time>2026-04-11T16:27:47.501Z</time></trkpt><trkpt lat="43.3120319" lon="11.3108242"><ele>240.0</ele><time>2026-04-11T16:27:48.501Z</time></trkpt><trkpt lat="43.3121983" lon="11.3106478"><ele>240.0</ele><time>2026-04-11T16:27:49.5Z</time></trkpt><trkpt lat="43.3123624" lon="11.3104691"><ele>239.66666666666669</ele><time>2026-04-11T16:27:50.5Z</time></trkpt><trkpt lat="43.3125264" lon="11.3102833"><ele>239.33333333333334</ele><time>2026-04-11T16:27:51.501Z</time></trkpt><trkpt lat="43.3126867" lon="11.3100921"><ele>239.0</ele><time>2026-04-11T16:27:52.501Z</time></trkpt><trkpt lat="43.3128416" lon="11.3098984"><ele>239.0</ele><time>2026-04-11T16:27:53.501Z</time></trkpt><trkpt lat="43.3129971" lon="11.3097008"><ele>239.0</ele><time>2026-04-11T16:27:54.5Z</time></trkpt><trkpt lat="43.3131488" lon="11.3095024"><ele>239.0</ele><time>2026-04-11T16:27:55.5Z</time></trkpt><trkpt lat="43.3132954" lon="11.3093032"><ele>239.66666666666669</ele><time>2026-04-11T16:27:56.5Z</time></trkpt><trkpt lat="43.3134391" lon="11.3090975"><ele>240.33333333333331</ele><time>2026-04-11T16:27:57.501Z</time></trkpt><trkpt lat="43.3135786" lon="11.3088871"><ele>241.0</ele><time>2026-04-11T16:27:58.5Z</time></trkpt><trkpt lat="43.3137192" lon="11.3086669"><ele>241.0</ele><time>2026-04-11T16:27:59.5Z</time></trkpt><trkpt lat="43.3138605" lon="11.3084468"><ele>241.0</ele><time>2026-04-11T16:28:00.5Z</time></trkpt><trkpt lat="43.3139968" lon="11.3082261"><ele>241.0</ele><time>2026-04-11T16:28:01.5Z</time></trkpt><trkpt lat="43.3141271" lon="11.3080117"><ele>242.33333333333331</ele><time>2026-04-11T16:28:02.501Z</time></trkpt><trkpt lat="43.3142502" lon="11.3077984"><ele>243.66666666666669</ele><time>2026-04-11T16:28:03.501Z</time></trkpt><trkpt lat="43.3143667" lon="11.3075895"><ele>245.0</ele><time>2026-04-11T16:28:04.5Z</time></trkpt><trkpt lat="43.3144819" lon="11.3073825"><ele>246.0</ele><time>2026-04-11T16:28:05.5Z</time></trkpt><trkpt lat="43.3145977" lon="11.3071844"><ele>247.0</ele><time>2026-04-11T16:28:06.5Z</time></trkpt><trkpt lat="43.3147049" lon="11.3069785"><ele>248.0</ele><time>2026-04-11T16:28:07.5Z</time></trkpt><trkpt lat="43.3148085" lon="11.3067746"><ele>248.0</ele><time>2026-04-11T16:28:08.501Z</time></trkpt><trkpt lat="43.3149107" lon="11.3065748"><ele>248.0</ele><time>2026-04-11T16:28:09.501Z</time></trkpt><trkpt lat="43.315013" lon="11.30638"><ele>248.0</ele><time>2026-04-11T16:28:10.5Z</time></trkpt><trkpt lat="43.3151124" lon="11.3061901"><ele>249.0</ele><time>2026-04-11T16:28:11.501Z</time></trkpt><trkpt lat="43.3152092" lon="11.3060079"><ele>250.0</ele><time>2026-04-11T16:28:12.501Z</time></trkpt><trkpt lat="43.3153034" lon="11.3058445"><ele>251.0</ele><time>2026-04-11T16:28:13.5Z</time></trkpt><trkpt lat="43.315391" lon="11.3056966"><ele>250.0</ele><time>2026-04-11T16:28:14.501Z</time></trkpt><trkpt lat="43.3154651" lon="11.3055683"><ele>249.00000000000003</ele><time>2026-04-11T16:28:15.501Z</time></trkpt><trkpt lat="43.3155234" lon="11.305465"><ele>248.00000000000003</ele><time>2026-04-11T16:28:16.502Z</time></trkpt><trkpt lat="43.3155706" lon="11.3053709"><ele>247.0</ele><time>2026-04-11T16:28:17.502Z</time></trkpt><trkpt lat="43.3156182" lon="11.3052969"><ele>246.0</ele><time>2026-04-11T16:28:18.502Z</time></trkpt><trkpt lat="43.315712" lon="11.305218"><ele>246.0</ele><time>2026-04-11T16:28:20.501Z</time></trkpt><trkpt lat="43.3157907" lon="11.3052168"><ele>246.0</ele><time>2026-04-11T16:28:22.501Z</time></trkpt><trkpt lat="43.3158533" lon="11.305263"><ele>246.0</ele><time>2026-04-11T16:28:25.501Z</time></trkpt><trkpt lat="43.3159198" lon="11.3053316"><ele>246.0</ele><time>2026-04-11T16:28:29.502Z</time></trkpt><trkpt lat="43.3159709" lon="11.3054154"><ele>246.0</ele><time>2026-04-11T16:28:31.502Z</time></trkpt><trkpt lat="43.3160279" lon="11.3055278"><ele>246.0</ele><time>2026-04-11T16:28:33.502Z</time></trkpt><trkpt lat="43.3161126" lon="11.3055791"><ele>246.0</ele><time>2026-04-11T16:28:35.502Z</time></trkpt><trkpt lat="43.316196" lon="11.3055312"><ele>246.0</ele><time>2026-04-11T16:28:37.501Z</time></trkpt><trkpt lat="43.3162436" lon="11.3054269"><ele>246.0</ele><time>2026-04-11T16:28:39.502Z</time></trkpt><trkpt lat="43.316259" lon="11.3053172"><ele>246.0</ele><time>2026-04-11T16:28:41.502Z</time></trkpt><trkpt lat="43.3162375" lon="11.3052309"><ele>246.0</ele><time>2026-04-11T16:28:44.501Z</time></trkpt></trkseg></trk></gpx>